<?xml version="1.0" encoding="UTF-8" standalone="no" ?><gpx xmlns="http://www.topografix.com/GPX/1/1" xmlns:gpxx="http://www.garmin.com/xmlschemas/GpxExtensions/v3" xmlns:wptx1="http://www.garmin.com/xmlschemas/WaypointExtension/v1" xmlns:gpxtpx="http://www.garmin.com/xmlschemas/TrackPointExtension/v1" creator="GuideVTT.com" version="1.1" xmlns:xsi="http://www.w3.org/2001/XMLSchema-instance" xsi:schemaLocation="http://www.topografix.com/GPX/1/1 http://www.topografix.com/GPX/1/1/gpx.xsd http://www.garmin.com/xmlschemas/GpxExtensions/v3 http://www8.garmin.com/xmlschemas/GpxExtensionsv3.xsd http://www.garmin.com/xmlschemas/WaypointExtension/v1 http://www8.garmin.com/xmlschemas/WaypointExtensionv1.xsd http://www.garmin.com/xmlschemas/TrackPointExtension/v1 http://www.garmin.com/xmlschemas/TrackPointExtensionv1.xsd">
<metadata><link href="http://www.garmin.com"><text>Garmin International</text></link><time>2013-06-22T15:13:50Z</time></metadata>
<trk><name>cyclemeter-mountaincycle-20170615-0921.gpx</name><extensions><gpxx:TrackExtension><gpxx:DisplayColor>Cyan</gpxx:DisplayColor></gpxx:TrackExtension></extensions><trkseg>
<trkpt lat="46.24613" lon="7.01261"><ele>434.2</ele><time>2017-06-15T08:21:24Z</time></trkpt>
<trkpt lat="46.24612" lon="7.01259"><ele>436.8</ele><time>2017-06-15T08:21:27Z</time></trkpt>
<trkpt lat="46.2461" lon="7.01257"><ele>438.8</ele><time>2017-06-15T08:21:29Z</time></trkpt>
<trkpt lat="46.24609" lon="7.01255"><ele>438.8</ele><time>2017-06-15T08:21:31Z</time></trkpt>
<trkpt lat="46.24608" lon="7.01253"><ele>439</ele><time>2017-06-15T08:21:33Z</time></trkpt>
<trkpt lat="46.24606" lon="7.01251"><ele>439.2</ele><time>2017-06-15T08:21:35Z</time></trkpt>
<trkpt lat="46.246" lon="7.0125"><ele>439.4</ele><time>2017-06-15T08:21:37Z</time></trkpt>
<trkpt lat="46.24594" lon="7.01248"><ele>439.4</ele><time>2017-06-15T08:21:39Z</time></trkpt>
<trkpt lat="46.24588" lon="7.01247"><ele>439.6</ele><time>2017-06-15T08:21:41Z</time></trkpt>
<trkpt lat="46.24582" lon="7.01244"><ele>439.8</ele><time>2017-06-15T08:21:43Z</time></trkpt>
<trkpt lat="46.24578" lon="7.01236"><ele>440</ele><time>2017-06-15T08:21:45Z</time></trkpt>
<trkpt lat="46.24573" lon="7.01228"><ele>440</ele><time>2017-06-15T08:21:47Z</time></trkpt>
<trkpt lat="46.24569" lon="7.0122"><ele>440.2</ele><time>2017-06-15T08:21:49Z</time></trkpt>
<trkpt lat="46.24566" lon="7.01217"><ele>440.4</ele><time>2017-06-15T08:21:50Z</time></trkpt>
<trkpt lat="46.24562" lon="7.01216"><ele>440.4</ele><time>2017-06-15T08:21:51Z</time></trkpt>
<trkpt lat="46.24554" lon="7.01216"><ele>440.6</ele><time>2017-06-15T08:21:53Z</time></trkpt>
<trkpt lat="46.24546" lon="7.0122"><ele>441</ele><time>2017-06-15T08:21:55Z</time></trkpt>
<trkpt lat="46.24538" lon="7.01225"><ele>441.2</ele><time>2017-06-15T08:21:57Z</time></trkpt>
<trkpt lat="46.2453" lon="7.01229"><ele>441.4</ele><time>2017-06-15T08:21:59Z</time></trkpt>
<trkpt lat="46.24522" lon="7.01233"><ele>441.6</ele><time>2017-06-15T08:22:01Z</time></trkpt>
<trkpt lat="46.24514" lon="7.01238"><ele>441.8</ele><time>2017-06-15T08:22:03Z</time></trkpt>
<trkpt lat="46.24511" lon="7.0124"><ele>442</ele><time>2017-06-15T08:22:04Z</time></trkpt>
<trkpt lat="46.24507" lon="7.01241"><ele>442</ele><time>2017-06-15T08:22:05Z</time></trkpt>
<trkpt lat="46.245" lon="7.01245"><ele>442.2</ele><time>2017-06-15T08:22:07Z</time></trkpt>
<trkpt lat="46.24492" lon="7.01248"><ele>442.4</ele><time>2017-06-15T08:22:09Z</time></trkpt>
<trkpt lat="46.24485" lon="7.01252"><ele>442.6</ele><time>2017-06-15T08:22:11Z</time></trkpt>
<trkpt lat="46.24478" lon="7.01255"><ele>443</ele><time>2017-06-15T08:22:13Z</time></trkpt>
<trkpt lat="46.2447" lon="7.01259"><ele>443.2</ele><time>2017-06-15T08:22:15Z</time></trkpt>
<trkpt lat="46.24467" lon="7.01261"><ele>443.2</ele><time>2017-06-15T08:22:16Z</time></trkpt>
<trkpt lat="46.24464" lon="7.01264"><ele>443.4</ele><time>2017-06-15T08:22:17Z</time></trkpt>
<trkpt lat="46.24457" lon="7.0127"><ele>443.6</ele><time>2017-06-15T08:22:19Z</time></trkpt>
<trkpt lat="46.2445" lon="7.01276"><ele>443.8</ele><time>2017-06-15T08:22:21Z</time></trkpt>
<trkpt lat="46.24443" lon="7.01282"><ele>444</ele><time>2017-06-15T08:22:23Z</time></trkpt>
<trkpt lat="46.2444" lon="7.01285"><ele>444.2</ele><time>2017-06-15T08:22:24Z</time></trkpt>
<trkpt lat="46.24436" lon="7.01287"><ele>444.2</ele><time>2017-06-15T08:22:25Z</time></trkpt>
<trkpt lat="46.2443" lon="7.01293"><ele>444.4</ele><time>2017-06-15T08:22:27Z</time></trkpt>
<trkpt lat="46.24426" lon="7.01297"><ele>444.4</ele><time>2017-06-15T08:22:28Z</time></trkpt>
<trkpt lat="46.24422" lon="7.01301"><ele>444.4</ele><time>2017-06-15T08:22:29Z</time></trkpt>
<trkpt lat="46.24417" lon="7.01305"><ele>444.4</ele><time>2017-06-15T08:22:30Z</time></trkpt>
<trkpt lat="46.24413" lon="7.01309"><ele>444.2</ele><time>2017-06-15T08:22:31Z</time></trkpt>
<trkpt lat="46.24405" lon="7.01318"><ele>443.8</ele><time>2017-06-15T08:22:33Z</time></trkpt>
<trkpt lat="46.24396" lon="7.01326"><ele>443.4</ele><time>2017-06-15T08:22:35Z</time></trkpt>
<trkpt lat="46.24388" lon="7.01335"><ele>443</ele><time>2017-06-15T08:22:37Z</time></trkpt>
<trkpt lat="46.24383" lon="7.01339"><ele>442.8</ele><time>2017-06-15T08:22:38Z</time></trkpt>
<trkpt lat="46.24378" lon="7.01344"><ele>442.6</ele><time>2017-06-15T08:22:39Z</time></trkpt>
<trkpt lat="46.24372" lon="7.01347"><ele>442.4</ele><time>2017-06-15T08:22:40Z</time></trkpt>
<trkpt lat="46.24366" lon="7.01345"><ele>442.2</ele><time>2017-06-15T08:22:41Z</time></trkpt>
<trkpt lat="46.24361" lon="7.01338"><ele>442</ele><time>2017-06-15T08:22:42Z</time></trkpt>
<trkpt lat="46.24358" lon="7.01328"><ele>441.8</ele><time>2017-06-15T08:22:43Z</time></trkpt>
<trkpt lat="46.24351" lon="7.01309"><ele>441.4</ele><time>2017-06-15T08:22:45Z</time></trkpt>
<trkpt lat="46.24347" lon="7.01299"><ele>441</ele><time>2017-06-15T08:22:46Z</time></trkpt>
<trkpt lat="46.24344" lon="7.0129"><ele>440.6</ele><time>2017-06-15T08:22:47Z</time></trkpt>
<trkpt lat="46.24337" lon="7.0127"><ele>439.8</ele><time>2017-06-15T08:22:49Z</time></trkpt>
<trkpt lat="46.24328" lon="7.01249"><ele>439.2</ele><time>2017-06-15T08:22:51Z</time></trkpt>
<trkpt lat="46.24324" lon="7.01239"><ele>438.8</ele><time>2017-06-15T08:22:52Z</time></trkpt>
<trkpt lat="46.24319" lon="7.01228"><ele>438.6</ele><time>2017-06-15T08:22:53Z</time></trkpt>
<trkpt lat="46.24311" lon="7.01208"><ele>438.4</ele><time>2017-06-15T08:22:55Z</time></trkpt>
<trkpt lat="46.24303" lon="7.01189"><ele>438</ele><time>2017-06-15T08:22:57Z</time></trkpt>
<trkpt lat="46.24295" lon="7.01169"><ele>437.8</ele><time>2017-06-15T08:22:59Z</time></trkpt>
<trkpt lat="46.24288" lon="7.01151"><ele>437.4</ele><time>2017-06-15T08:23:01Z</time></trkpt>
<trkpt lat="46.24281" lon="7.01135"><ele>437</ele><time>2017-06-15T08:23:03Z</time></trkpt>
<trkpt lat="46.24275" lon="7.0112"><ele>436.8</ele><time>2017-06-15T08:23:05Z</time></trkpt>
<trkpt lat="46.24271" lon="7.01115"><ele>436.6</ele><time>2017-06-15T08:23:06Z</time></trkpt>
<trkpt lat="46.24266" lon="7.01115"><ele>436.4</ele><time>2017-06-15T08:23:07Z</time></trkpt>
<trkpt lat="46.24262" lon="7.01117"><ele>436.2</ele><time>2017-06-15T08:23:08Z</time></trkpt>
<trkpt lat="46.24258" lon="7.01122"><ele>436.2</ele><time>2017-06-15T08:23:09Z</time></trkpt>
<trkpt lat="46.24251" lon="7.01132"><ele>436</ele><time>2017-06-15T08:23:11Z</time></trkpt>
<trkpt lat="46.24244" lon="7.01143"><ele>435.8</ele><time>2017-06-15T08:23:13Z</time></trkpt>
<trkpt lat="46.24236" lon="7.01153"><ele>435.6</ele><time>2017-06-15T08:23:15Z</time></trkpt>
<trkpt lat="46.24229" lon="7.01163"><ele>435.6</ele><time>2017-06-15T08:23:17Z</time></trkpt>
<trkpt lat="46.2422" lon="7.01172"><ele>435.8</ele><time>2017-06-15T08:23:19Z</time></trkpt>
<trkpt lat="46.24212" lon="7.01181"><ele>435.8</ele><time>2017-06-15T08:23:21Z</time></trkpt>
<trkpt lat="46.24203" lon="7.0119"><ele>435.8</ele><time>2017-06-15T08:23:23Z</time></trkpt>
<trkpt lat="46.24195" lon="7.01199"><ele>436</ele><time>2017-06-15T08:23:25Z</time></trkpt>
<trkpt lat="46.24191" lon="7.01203"><ele>436</ele><time>2017-06-15T08:23:26Z</time></trkpt>
<trkpt lat="46.24186" lon="7.01204"><ele>436</ele><time>2017-06-15T08:23:27Z</time></trkpt>
<trkpt lat="46.24177" lon="7.01206"><ele>436</ele><time>2017-06-15T08:23:29Z</time></trkpt>
<trkpt lat="46.24168" lon="7.01208"><ele>436</ele><time>2017-06-15T08:23:31Z</time></trkpt>
<trkpt lat="46.24159" lon="7.0121"><ele>436.2</ele><time>2017-06-15T08:23:33Z</time></trkpt>
<trkpt lat="46.2415" lon="7.01212"><ele>436.2</ele><time>2017-06-15T08:23:35Z</time></trkpt>
<trkpt lat="46.24124" lon="7.01218"><ele>437.6</ele><time>2017-06-15T08:23:36Z</time></trkpt>
<trkpt lat="46.24124" lon="7.01218"><ele>437.6</ele><time>2017-06-15T08:25:18Z</time></trkpt>
<trkpt lat="46.24101" lon="7.01223"><ele>439</ele><time>2017-06-15T08:25:19Z</time></trkpt>
<trkpt lat="46.241" lon="7.01224"><ele>439</ele><time>2017-06-15T08:25:21Z</time></trkpt>
<trkpt lat="46.24099" lon="7.01224"><ele>439</ele><time>2017-06-15T08:25:23Z</time></trkpt>
<trkpt lat="46.24098" lon="7.01224"><ele>439.2</ele><time>2017-06-15T08:25:25Z</time></trkpt>
<trkpt lat="46.24097" lon="7.01225"><ele>439.2</ele><time>2017-06-15T08:25:27Z</time></trkpt>
<trkpt lat="46.24096" lon="7.01225"><ele>439.2</ele><time>2017-06-15T08:25:29Z</time></trkpt>
<trkpt lat="46.24095" lon="7.01226"><ele>439.4</ele><time>2017-06-15T08:25:31Z</time></trkpt>
<trkpt lat="46.24092" lon="7.01226"><ele>439.4</ele><time>2017-06-15T08:25:33Z</time></trkpt>
<trkpt lat="46.24089" lon="7.01227"><ele>439.4</ele><time>2017-06-15T08:25:35Z</time></trkpt>
<trkpt lat="46.24086" lon="7.01227"><ele>439.6</ele><time>2017-06-15T08:25:37Z</time></trkpt>
<trkpt lat="46.24083" lon="7.01228"><ele>440</ele><time>2017-06-15T08:25:39Z</time></trkpt>
<trkpt lat="46.2408" lon="7.01229"><ele>440.4</ele><time>2017-06-15T08:25:41Z</time></trkpt>
<trkpt lat="46.24077" lon="7.01229"><ele>440.8</ele><time>2017-06-15T08:25:43Z</time></trkpt>
<trkpt lat="46.24074" lon="7.0123"><ele>441.2</ele><time>2017-06-15T08:25:45Z</time></trkpt>
<trkpt lat="46.24071" lon="7.01231"><ele>441.8</ele><time>2017-06-15T08:25:47Z</time></trkpt>
<trkpt lat="46.24068" lon="7.01231"><ele>442.2</ele><time>2017-06-15T08:25:49Z</time></trkpt>
<trkpt lat="46.24065" lon="7.01232"><ele>442.6</ele><time>2017-06-15T08:25:51Z</time></trkpt>
<trkpt lat="46.24063" lon="7.01233"><ele>443</ele><time>2017-06-15T08:25:53Z</time></trkpt>
<trkpt lat="46.2406" lon="7.01233"><ele>443.4</ele><time>2017-06-15T08:25:55Z</time></trkpt>
<trkpt lat="46.24057" lon="7.01234"><ele>443.8</ele><time>2017-06-15T08:25:57Z</time></trkpt>
<trkpt lat="46.24054" lon="7.01235"><ele>444.2</ele><time>2017-06-15T08:25:59Z</time></trkpt>
<trkpt lat="46.24051" lon="7.01235"><ele>444.6</ele><time>2017-06-15T08:26:01Z</time></trkpt>
<trkpt lat="46.24049" lon="7.01236"><ele>444.8</ele><time>2017-06-15T08:26:02Z</time></trkpt>
<trkpt lat="46.24048" lon="7.01236"><ele>445</ele><time>2017-06-15T08:26:03Z</time></trkpt>
<trkpt lat="46.24045" lon="7.01238"><ele>445.4</ele><time>2017-06-15T08:26:05Z</time></trkpt>
<trkpt lat="46.24042" lon="7.01239"><ele>446</ele><time>2017-06-15T08:26:07Z</time></trkpt>
<trkpt lat="46.24039" lon="7.01241"><ele>446.4</ele><time>2017-06-15T08:26:09Z</time></trkpt>
<trkpt lat="46.24037" lon="7.01243"><ele>446.8</ele><time>2017-06-15T08:26:11Z</time></trkpt>
<trkpt lat="46.24034" lon="7.01244"><ele>447.2</ele><time>2017-06-15T08:26:13Z</time></trkpt>
<trkpt lat="46.24031" lon="7.01246"><ele>447.4</ele><time>2017-06-15T08:26:15Z</time></trkpt>
<trkpt lat="46.24028" lon="7.01247"><ele>447.8</ele><time>2017-06-15T08:26:17Z</time></trkpt>
<trkpt lat="46.24025" lon="7.01249"><ele>448</ele><time>2017-06-15T08:26:19Z</time></trkpt>
<trkpt lat="46.24022" lon="7.0125"><ele>448.4</ele><time>2017-06-15T08:26:21Z</time></trkpt>
<trkpt lat="46.24019" lon="7.01252"><ele>448.6</ele><time>2017-06-15T08:26:23Z</time></trkpt>
<trkpt lat="46.24017" lon="7.01253"><ele>449</ele><time>2017-06-15T08:26:25Z</time></trkpt>
<trkpt lat="46.24014" lon="7.01255"><ele>449.2</ele><time>2017-06-15T08:26:27Z</time></trkpt>
<trkpt lat="46.24011" lon="7.01256"><ele>449.6</ele><time>2017-06-15T08:26:29Z</time></trkpt>
<trkpt lat="46.24008" lon="7.01258"><ele>449.8</ele><time>2017-06-15T08:26:31Z</time></trkpt>
<trkpt lat="46.24007" lon="7.01259"><ele>450</ele><time>2017-06-15T08:26:32Z</time></trkpt>
<trkpt lat="46.24006" lon="7.0126"><ele>450.2</ele><time>2017-06-15T08:26:33Z</time></trkpt>
<trkpt lat="46.24003" lon="7.01263"><ele>450.4</ele><time>2017-06-15T08:26:35Z</time></trkpt>
<trkpt lat="46.24002" lon="7.01264"><ele>450.6</ele><time>2017-06-15T08:26:36Z</time></trkpt>
<trkpt lat="46.24001" lon="7.01265"><ele>450.8</ele><time>2017-06-15T08:26:37Z</time></trkpt>
<trkpt lat="46.23999" lon="7.01268"><ele>451</ele><time>2017-06-15T08:26:39Z</time></trkpt>
<trkpt lat="46.23996" lon="7.01271"><ele>451.4</ele><time>2017-06-15T08:26:41Z</time></trkpt>
<trkpt lat="46.23994" lon="7.01273"><ele>451.8</ele><time>2017-06-15T08:26:43Z</time></trkpt>
<trkpt lat="46.23992" lon="7.01276"><ele>452</ele><time>2017-06-15T08:26:45Z</time></trkpt>
<trkpt lat="46.23989" lon="7.01278"><ele>452.4</ele><time>2017-06-15T08:26:47Z</time></trkpt>
<trkpt lat="46.23987" lon="7.01281"><ele>452.6</ele><time>2017-06-15T08:26:49Z</time></trkpt>
<trkpt lat="46.23985" lon="7.01284"><ele>453</ele><time>2017-06-15T08:26:51Z</time></trkpt>
<trkpt lat="46.23982" lon="7.01286"><ele>453.2</ele><time>2017-06-15T08:26:53Z</time></trkpt>
<trkpt lat="46.2398" lon="7.01289"><ele>453.6</ele><time>2017-06-15T08:26:55Z</time></trkpt>
<trkpt lat="46.23978" lon="7.01292"><ele>454</ele><time>2017-06-15T08:26:57Z</time></trkpt>
<trkpt lat="46.23976" lon="7.01294"><ele>454.4</ele><time>2017-06-15T08:26:59Z</time></trkpt>
<trkpt lat="46.23971" lon="7.013"><ele>455.2</ele><time>2017-06-15T08:27:03Z</time></trkpt>
<trkpt lat="46.23964" lon="7.01315"><ele>457.2</ele><time>2017-06-15T08:27:14Z</time></trkpt>
<trkpt lat="46.23961" lon="7.0131"><ele>458</ele><time>2017-06-15T08:27:19Z</time></trkpt>
<trkpt lat="46.23959" lon="7.01308"><ele>458.2</ele><time>2017-06-15T08:27:21Z</time></trkpt>
<trkpt lat="46.23958" lon="7.01306"><ele>458.4</ele><time>2017-06-15T08:27:23Z</time></trkpt>
<trkpt lat="46.23956" lon="7.01304"><ele>458.8</ele><time>2017-06-15T08:27:25Z</time></trkpt>
<trkpt lat="46.23955" lon="7.01302"><ele>459</ele><time>2017-06-15T08:27:27Z</time></trkpt>
<trkpt lat="46.23954" lon="7.01301"><ele>459.2</ele><time>2017-06-15T08:27:28Z</time></trkpt>
<trkpt lat="46.23954" lon="7.01299"><ele>459.2</ele><time>2017-06-15T08:27:29Z</time></trkpt>
<trkpt lat="46.23954" lon="7.01296"><ele>459.6</ele><time>2017-06-15T08:27:31Z</time></trkpt>
<trkpt lat="46.23953" lon="7.01293"><ele>459.8</ele><time>2017-06-15T08:27:33Z</time></trkpt>
<trkpt lat="46.23953" lon="7.0129"><ele>460</ele><time>2017-06-15T08:27:35Z</time></trkpt>
<trkpt lat="46.23953" lon="7.01288"><ele>460.2</ele><time>2017-06-15T08:27:36Z</time></trkpt>
<trkpt lat="46.23952" lon="7.01287"><ele>460.2</ele><time>2017-06-15T08:27:37Z</time></trkpt>
<trkpt lat="46.23952" lon="7.01284"><ele>460.4</ele><time>2017-06-15T08:27:39Z</time></trkpt>
<trkpt lat="46.23952" lon="7.01281"><ele>460.6</ele><time>2017-06-15T08:27:41Z</time></trkpt>
<trkpt lat="46.23951" lon="7.01278"><ele>461</ele><time>2017-06-15T08:27:43Z</time></trkpt>
<trkpt lat="46.23951" lon="7.01275"><ele>461.2</ele><time>2017-06-15T08:27:45Z</time></trkpt>
<trkpt lat="46.23951" lon="7.01272"><ele>461.4</ele><time>2017-06-15T08:27:47Z</time></trkpt>
<trkpt lat="46.2395" lon="7.01268"><ele>461.6</ele><time>2017-06-15T08:27:49Z</time></trkpt>
<trkpt lat="46.2395" lon="7.01265"><ele>461.8</ele><time>2017-06-15T08:27:51Z</time></trkpt>
<trkpt lat="46.23949" lon="7.01262"><ele>462</ele><time>2017-06-15T08:27:53Z</time></trkpt>
<trkpt lat="46.23949" lon="7.01259"><ele>462.2</ele><time>2017-06-15T08:27:55Z</time></trkpt>
<trkpt lat="46.23949" lon="7.01256"><ele>462.4</ele><time>2017-06-15T08:27:57Z</time></trkpt>
<trkpt lat="46.23948" lon="7.01253"><ele>462.6</ele><time>2017-06-15T08:27:59Z</time></trkpt>
<trkpt lat="46.23948" lon="7.0125"><ele>462.8</ele><time>2017-06-15T08:28:01Z</time></trkpt>
<trkpt lat="46.23947" lon="7.01247"><ele>463</ele><time>2017-06-15T08:28:03Z</time></trkpt>
<trkpt lat="46.23947" lon="7.01244"><ele>463.2</ele><time>2017-06-15T08:28:05Z</time></trkpt>
<trkpt lat="46.23947" lon="7.01241"><ele>463.4</ele><time>2017-06-15T08:28:07Z</time></trkpt>
<trkpt lat="46.23946" lon="7.01239"><ele>463.6</ele><time>2017-06-15T08:28:08Z</time></trkpt>
<trkpt lat="46.23946" lon="7.01238"><ele>463.8</ele><time>2017-06-15T08:28:09Z</time></trkpt>
<trkpt lat="46.23946" lon="7.01236"><ele>464</ele><time>2017-06-15T08:28:10Z</time></trkpt>
<trkpt lat="46.23944" lon="7.01235"><ele>464.2</ele><time>2017-06-15T08:28:11Z</time></trkpt>
<trkpt lat="46.23942" lon="7.01232"><ele>464.8</ele><time>2017-06-15T08:28:13Z</time></trkpt>
<trkpt lat="46.23939" lon="7.0123"><ele>465.2</ele><time>2017-06-15T08:28:15Z</time></trkpt>
<trkpt lat="46.23937" lon="7.01227"><ele>465.6</ele><time>2017-06-15T08:28:17Z</time></trkpt>
<trkpt lat="46.23934" lon="7.01224"><ele>466.2</ele><time>2017-06-15T08:28:19Z</time></trkpt>
<trkpt lat="46.23932" lon="7.01222"><ele>466.6</ele><time>2017-06-15T08:28:21Z</time></trkpt>
<trkpt lat="46.23929" lon="7.01219"><ele>467</ele><time>2017-06-15T08:28:23Z</time></trkpt>
<trkpt lat="46.23928" lon="7.01218"><ele>467.2</ele><time>2017-06-15T08:28:24Z</time></trkpt>
<trkpt lat="46.23927" lon="7.01216"><ele>467.4</ele><time>2017-06-15T08:28:25Z</time></trkpt>
<trkpt lat="46.23924" lon="7.01214"><ele>467.8</ele><time>2017-06-15T08:28:27Z</time></trkpt>
<trkpt lat="46.23922" lon="7.01211"><ele>468.2</ele><time>2017-06-15T08:28:29Z</time></trkpt>
<trkpt lat="46.23919" lon="7.01208"><ele>468.6</ele><time>2017-06-15T08:28:31Z</time></trkpt>
<trkpt lat="46.23917" lon="7.01206"><ele>469</ele><time>2017-06-15T08:28:33Z</time></trkpt>
<trkpt lat="46.23914" lon="7.01203"><ele>469.4</ele><time>2017-06-15T08:28:35Z</time></trkpt>
<trkpt lat="46.23912" lon="7.012"><ele>469.8</ele><time>2017-06-15T08:28:37Z</time></trkpt>
<trkpt lat="46.23909" lon="7.01198"><ele>470.2</ele><time>2017-06-15T08:28:39Z</time></trkpt>
<trkpt lat="46.23908" lon="7.01196"><ele>470.4</ele><time>2017-06-15T08:28:40Z</time></trkpt>
<trkpt lat="46.23907" lon="7.01195"><ele>470.6</ele><time>2017-06-15T08:28:41Z</time></trkpt>
<trkpt lat="46.23904" lon="7.01191"><ele>471</ele><time>2017-06-15T08:28:43Z</time></trkpt>
<trkpt lat="46.23902" lon="7.01188"><ele>471.4</ele><time>2017-06-15T08:28:45Z</time></trkpt>
<trkpt lat="46.239" lon="7.01184"><ele>471.6</ele><time>2017-06-15T08:28:47Z</time></trkpt>
<trkpt lat="46.23897" lon="7.01181"><ele>472</ele><time>2017-06-15T08:28:49Z</time></trkpt>
<trkpt lat="46.23895" lon="7.01177"><ele>472.4</ele><time>2017-06-15T08:28:51Z</time></trkpt>
<trkpt lat="46.23892" lon="7.01174"><ele>472.8</ele><time>2017-06-15T08:28:53Z</time></trkpt>
<trkpt lat="46.2389" lon="7.0117"><ele>473.2</ele><time>2017-06-15T08:28:55Z</time></trkpt>
<trkpt lat="46.23887" lon="7.01167"><ele>473.4</ele><time>2017-06-15T08:28:57Z</time></trkpt>
<trkpt lat="46.23885" lon="7.01163"><ele>473.4</ele><time>2017-06-15T08:28:59Z</time></trkpt>
<trkpt lat="46.23882" lon="7.0116"><ele>473.4</ele><time>2017-06-15T08:29:01Z</time></trkpt>
<trkpt lat="46.23875" lon="7.01149"><ele>473.2</ele><time>2017-06-15T08:29:07Z</time></trkpt>
<trkpt lat="46.23858" lon="7.01132"><ele>474</ele><time>2017-06-15T08:29:17Z</time></trkpt>
<trkpt lat="46.23855" lon="7.01129"><ele>474</ele><time>2017-06-15T08:29:19Z</time></trkpt>
<trkpt lat="46.23851" lon="7.01126"><ele>474.2</ele><time>2017-06-15T08:29:21Z</time></trkpt>
<trkpt lat="46.23848" lon="7.01122"><ele>474.4</ele><time>2017-06-15T08:29:23Z</time></trkpt>
<trkpt lat="46.23845" lon="7.01119"><ele>474.4</ele><time>2017-06-15T08:29:25Z</time></trkpt>
<trkpt lat="46.23841" lon="7.01115"><ele>474.6</ele><time>2017-06-15T08:29:27Z</time></trkpt>
<trkpt lat="46.23838" lon="7.01112"><ele>474.8</ele><time>2017-06-15T08:29:29Z</time></trkpt>
<trkpt lat="46.23835" lon="7.01109"><ele>474.8</ele><time>2017-06-15T08:29:31Z</time></trkpt>
<trkpt lat="46.23832" lon="7.01106"><ele>475</ele><time>2017-06-15T08:29:33Z</time></trkpt>
<trkpt lat="46.2383" lon="7.01103"><ele>475.2</ele><time>2017-06-15T08:29:35Z</time></trkpt>
<trkpt lat="46.23827" lon="7.011"><ele>475.4</ele><time>2017-06-15T08:29:37Z</time></trkpt>
<trkpt lat="46.23824" lon="7.01096"><ele>475.4</ele><time>2017-06-15T08:29:39Z</time></trkpt>
<trkpt lat="46.23821" lon="7.01093"><ele>475.6</ele><time>2017-06-15T08:29:41Z</time></trkpt>
<trkpt lat="46.23818" lon="7.0109"><ele>476</ele><time>2017-06-15T08:29:43Z</time></trkpt>
<trkpt lat="46.23816" lon="7.01087"><ele>476.4</ele><time>2017-06-15T08:29:45Z</time></trkpt>
<trkpt lat="46.23813" lon="7.01084"><ele>477</ele><time>2017-06-15T08:29:47Z</time></trkpt>
<trkpt lat="46.2381" lon="7.01081"><ele>477.4</ele><time>2017-06-15T08:29:49Z</time></trkpt>
<trkpt lat="46.23807" lon="7.01078"><ele>477.8</ele><time>2017-06-15T08:29:51Z</time></trkpt>
<trkpt lat="46.23804" lon="7.01074"><ele>478.2</ele><time>2017-06-15T08:29:53Z</time></trkpt>
<trkpt lat="46.23802" lon="7.01071"><ele>478.6</ele><time>2017-06-15T08:29:55Z</time></trkpt>
<trkpt lat="46.23799" lon="7.01068"><ele>479</ele><time>2017-06-15T08:29:57Z</time></trkpt>
<trkpt lat="46.23798" lon="7.01067"><ele>479.2</ele><time>2017-06-15T08:29:58Z</time></trkpt>
<trkpt lat="46.23797" lon="7.01065"><ele>479.4</ele><time>2017-06-15T08:29:59Z</time></trkpt>
<trkpt lat="46.23795" lon="7.01062"><ele>480</ele><time>2017-06-15T08:30:01Z</time></trkpt>
<trkpt lat="46.23793" lon="7.01059"><ele>480.4</ele><time>2017-06-15T08:30:03Z</time></trkpt>
<trkpt lat="46.2379" lon="7.01056"><ele>480.8</ele><time>2017-06-15T08:30:05Z</time></trkpt>
<trkpt lat="46.23788" lon="7.01053"><ele>481.4</ele><time>2017-06-15T08:30:07Z</time></trkpt>
<trkpt lat="46.23786" lon="7.0105"><ele>481.8</ele><time>2017-06-15T08:30:09Z</time></trkpt>
<trkpt lat="46.23784" lon="7.01047"><ele>482.2</ele><time>2017-06-15T08:30:11Z</time></trkpt>
<trkpt lat="46.23781" lon="7.01044"><ele>482.8</ele><time>2017-06-15T08:30:13Z</time></trkpt>
<trkpt lat="46.23779" lon="7.01041"><ele>483.2</ele><time>2017-06-15T08:30:15Z</time></trkpt>
<trkpt lat="46.23777" lon="7.01038"><ele>483.6</ele><time>2017-06-15T08:30:17Z</time></trkpt>
<trkpt lat="46.23775" lon="7.01035"><ele>484</ele><time>2017-06-15T08:30:19Z</time></trkpt>
<trkpt lat="46.23772" lon="7.01032"><ele>484.4</ele><time>2017-06-15T08:30:21Z</time></trkpt>
<trkpt lat="46.2377" lon="7.01029"><ele>484.8</ele><time>2017-06-15T08:30:23Z</time></trkpt>
<trkpt lat="46.23768" lon="7.01026"><ele>485.4</ele><time>2017-06-15T08:30:25Z</time></trkpt>
<trkpt lat="46.23766" lon="7.01024"><ele>485.8</ele><time>2017-06-15T08:30:27Z</time></trkpt>
<trkpt lat="46.23764" lon="7.01022"><ele>486.2</ele><time>2017-06-15T08:30:29Z</time></trkpt>
<trkpt lat="46.23761" lon="7.01019"><ele>486.6</ele><time>2017-06-15T08:30:31Z</time></trkpt>
<trkpt lat="46.23759" lon="7.01017"><ele>487</ele><time>2017-06-15T08:30:33Z</time></trkpt>
<trkpt lat="46.23757" lon="7.01015"><ele>487.4</ele><time>2017-06-15T08:30:35Z</time></trkpt>
<trkpt lat="46.23755" lon="7.01013"><ele>487.6</ele><time>2017-06-15T08:30:37Z</time></trkpt>
<trkpt lat="46.23753" lon="7.01011"><ele>488</ele><time>2017-06-15T08:30:39Z</time></trkpt>
<trkpt lat="46.23751" lon="7.01009"><ele>488.4</ele><time>2017-06-15T08:30:41Z</time></trkpt>
<trkpt lat="46.23749" lon="7.01007"><ele>488.6</ele><time>2017-06-15T08:30:43Z</time></trkpt>
<trkpt lat="46.23747" lon="7.01004"><ele>489</ele><time>2017-06-15T08:30:45Z</time></trkpt>
<trkpt lat="46.23744" lon="7.01002"><ele>489.4</ele><time>2017-06-15T08:30:47Z</time></trkpt>
<trkpt lat="46.23742" lon="7.01"><ele>489.8</ele><time>2017-06-15T08:30:49Z</time></trkpt>
<trkpt lat="46.2374" lon="7.00998"><ele>490</ele><time>2017-06-15T08:30:51Z</time></trkpt>
<trkpt lat="46.23738" lon="7.00996"><ele>490.4</ele><time>2017-06-15T08:30:53Z</time></trkpt>
<trkpt lat="46.23735" lon="7.00993"><ele>490.8</ele><time>2017-06-15T08:30:56Z</time></trkpt>
<trkpt lat="46.23731" lon="7.00988"><ele>491.6</ele><time>2017-06-15T08:31:00Z</time></trkpt>
<trkpt lat="46.23712" lon="7.00965"><ele>494.4</ele><time>2017-06-15T08:31:17Z</time></trkpt>
<trkpt lat="46.23711" lon="7.00964"><ele>494.4</ele><time>2017-06-15T08:31:18Z</time></trkpt>
<trkpt lat="46.2371" lon="7.00963"><ele>494.6</ele><time>2017-06-15T08:31:19Z</time></trkpt>
<trkpt lat="46.23707" lon="7.0096"><ele>494.8</ele><time>2017-06-15T08:31:21Z</time></trkpt>
<trkpt lat="46.23705" lon="7.00957"><ele>495</ele><time>2017-06-15T08:31:23Z</time></trkpt>
<trkpt lat="46.23703" lon="7.00955"><ele>495.4</ele><time>2017-06-15T08:31:25Z</time></trkpt>
<trkpt lat="46.23701" lon="7.00952"><ele>495.6</ele><time>2017-06-15T08:31:27Z</time></trkpt>
<trkpt lat="46.23698" lon="7.00949"><ele>495.8</ele><time>2017-06-15T08:31:29Z</time></trkpt>
<trkpt lat="46.23696" lon="7.00947"><ele>496</ele><time>2017-06-15T08:31:31Z</time></trkpt>
<trkpt lat="46.23695" lon="7.00946"><ele>496.2</ele><time>2017-06-15T08:31:32Z</time></trkpt>
<trkpt lat="46.23694" lon="7.00947"><ele>496.2</ele><time>2017-06-15T08:31:33Z</time></trkpt>
<trkpt lat="46.23691" lon="7.00948"><ele>496.4</ele><time>2017-06-15T08:31:35Z</time></trkpt>
<trkpt lat="46.2369" lon="7.00949"><ele>496.6</ele><time>2017-06-15T08:31:36Z</time></trkpt>
<trkpt lat="46.23688" lon="7.00949"><ele>496.8</ele><time>2017-06-15T08:31:37Z</time></trkpt>
<trkpt lat="46.23685" lon="7.00951"><ele>497</ele><time>2017-06-15T08:31:39Z</time></trkpt>
<trkpt lat="46.23683" lon="7.00952"><ele>497.4</ele><time>2017-06-15T08:31:41Z</time></trkpt>
<trkpt lat="46.2368" lon="7.00954"><ele>497.6</ele><time>2017-06-15T08:31:43Z</time></trkpt>
<trkpt lat="46.23678" lon="7.00957"><ele>498</ele><time>2017-06-15T08:31:45Z</time></trkpt>
<trkpt lat="46.23676" lon="7.0096"><ele>498.2</ele><time>2017-06-15T08:31:47Z</time></trkpt>
<trkpt lat="46.23674" lon="7.00963"><ele>498.4</ele><time>2017-06-15T08:31:49Z</time></trkpt>
<trkpt lat="46.23672" lon="7.00966"><ele>498.8</ele><time>2017-06-15T08:31:51Z</time></trkpt>
<trkpt lat="46.2367" lon="7.0097"><ele>499</ele><time>2017-06-15T08:31:53Z</time></trkpt>
<trkpt lat="46.23668" lon="7.00973"><ele>499.6</ele><time>2017-06-15T08:31:55Z</time></trkpt>
<trkpt lat="46.23666" lon="7.00976"><ele>500</ele><time>2017-06-15T08:31:57Z</time></trkpt>
<trkpt lat="46.23664" lon="7.00979"><ele>500.4</ele><time>2017-06-15T08:31:59Z</time></trkpt>
<trkpt lat="46.23663" lon="7.00983"><ele>500.8</ele><time>2017-06-15T08:32:01Z</time></trkpt>
<trkpt lat="46.23661" lon="7.00986"><ele>501.4</ele><time>2017-06-15T08:32:03Z</time></trkpt>
<trkpt lat="46.23659" lon="7.00989"><ele>501.8</ele><time>2017-06-15T08:32:05Z</time></trkpt>
<trkpt lat="46.23657" lon="7.00992"><ele>502.2</ele><time>2017-06-15T08:32:07Z</time></trkpt>
<trkpt lat="46.23655" lon="7.00995"><ele>502.6</ele><time>2017-06-15T08:32:09Z</time></trkpt>
<trkpt lat="46.23654" lon="7.00997"><ele>502.8</ele><time>2017-06-15T08:32:10Z</time></trkpt>
<trkpt lat="46.23653" lon="7.00999"><ele>503</ele><time>2017-06-15T08:32:11Z</time></trkpt>
<trkpt lat="46.23651" lon="7.01002"><ele>503.2</ele><time>2017-06-15T08:32:13Z</time></trkpt>
<trkpt lat="46.2365" lon="7.01003"><ele>503.4</ele><time>2017-06-15T08:32:14Z</time></trkpt>
<trkpt lat="46.23649" lon="7.01005"><ele>503.6</ele><time>2017-06-15T08:32:15Z</time></trkpt>
<trkpt lat="46.23647" lon="7.01007"><ele>503.8</ele><time>2017-06-15T08:32:17Z</time></trkpt>
<trkpt lat="46.23644" lon="7.0101"><ele>504.2</ele><time>2017-06-15T08:32:19Z</time></trkpt>
<trkpt lat="46.23642" lon="7.01013"><ele>504.4</ele><time>2017-06-15T08:32:21Z</time></trkpt>
<trkpt lat="46.2364" lon="7.01015"><ele>504.8</ele><time>2017-06-15T08:32:23Z</time></trkpt>
<trkpt lat="46.23638" lon="7.01018"><ele>505</ele><time>2017-06-15T08:32:25Z</time></trkpt>
<trkpt lat="46.23636" lon="7.01021"><ele>505.4</ele><time>2017-06-15T08:32:27Z</time></trkpt>
<trkpt lat="46.23633" lon="7.01023"><ele>505.6</ele><time>2017-06-15T08:32:29Z</time></trkpt>
<trkpt lat="46.23631" lon="7.01026"><ele>505.8</ele><time>2017-06-15T08:32:31Z</time></trkpt>
<trkpt lat="46.2363" lon="7.01027"><ele>506</ele><time>2017-06-15T08:32:32Z</time></trkpt>
<trkpt lat="46.23629" lon="7.01029"><ele>506.2</ele><time>2017-06-15T08:32:33Z</time></trkpt>
<trkpt lat="46.23627" lon="7.01031"><ele>506.4</ele><time>2017-06-15T08:32:35Z</time></trkpt>
<trkpt lat="46.23625" lon="7.01034"><ele>506.6</ele><time>2017-06-15T08:32:37Z</time></trkpt>
<trkpt lat="46.23623" lon="7.01037"><ele>506.8</ele><time>2017-06-15T08:32:39Z</time></trkpt>
<trkpt lat="46.2362" lon="7.01039"><ele>507</ele><time>2017-06-15T08:32:41Z</time></trkpt>
<trkpt lat="46.23618" lon="7.01042"><ele>507.2</ele><time>2017-06-15T08:32:43Z</time></trkpt>
<trkpt lat="46.23616" lon="7.01045"><ele>507.4</ele><time>2017-06-15T08:32:45Z</time></trkpt>
<trkpt lat="46.23615" lon="7.01046"><ele>507.6</ele><time>2017-06-15T08:32:46Z</time></trkpt>
<trkpt lat="46.23613" lon="7.01047"><ele>507.6</ele><time>2017-06-15T08:32:47Z</time></trkpt>
<trkpt lat="46.23612" lon="7.01048"><ele>507.8</ele><time>2017-06-15T08:32:48Z</time></trkpt>
<trkpt lat="46.23611" lon="7.01049"><ele>508</ele><time>2017-06-15T08:32:49Z</time></trkpt>
<trkpt lat="46.23608" lon="7.01051"><ele>508.2</ele><time>2017-06-15T08:32:51Z</time></trkpt>
<trkpt lat="46.23579" lon="7.01074"><ele>510.8</ele><time>2017-06-15T08:33:13Z</time></trkpt>
<trkpt lat="46.23576" lon="7.01077"><ele>511</ele><time>2017-06-15T08:33:15Z</time></trkpt>
<trkpt lat="46.23575" lon="7.01077"><ele>511</ele><time>2017-06-15T08:33:16Z</time></trkpt>
<trkpt lat="46.23573" lon="7.01077"><ele>511.2</ele><time>2017-06-15T08:33:17Z</time></trkpt>
<trkpt lat="46.23571" lon="7.01077"><ele>511.4</ele><time>2017-06-15T08:33:19Z</time></trkpt>
<trkpt lat="46.23569" lon="7.01077"><ele>511.6</ele><time>2017-06-15T08:33:20Z</time></trkpt>
<trkpt lat="46.23568" lon="7.01077"><ele>511.6</ele><time>2017-06-15T08:33:21Z</time></trkpt>
<trkpt lat="46.23565" lon="7.01078"><ele>512</ele><time>2017-06-15T08:33:23Z</time></trkpt>
<trkpt lat="46.23562" lon="7.01078"><ele>512.2</ele><time>2017-06-15T08:33:25Z</time></trkpt>
<trkpt lat="46.2356" lon="7.01078"><ele>512.4</ele><time>2017-06-15T08:33:26Z</time></trkpt>
<trkpt lat="46.23559" lon="7.01078"><ele>512.6</ele><time>2017-06-15T08:33:27Z</time></trkpt>
<trkpt lat="46.23556" lon="7.01078"><ele>512.8</ele><time>2017-06-15T08:33:29Z</time></trkpt>
<trkpt lat="46.23553" lon="7.01078"><ele>513</ele><time>2017-06-15T08:33:31Z</time></trkpt>
<trkpt lat="46.2355" lon="7.01078"><ele>513.4</ele><time>2017-06-15T08:33:33Z</time></trkpt>
<trkpt lat="46.23547" lon="7.01078"><ele>513.6</ele><time>2017-06-15T08:33:35Z</time></trkpt>
<trkpt lat="46.23545" lon="7.01078"><ele>514</ele><time>2017-06-15T08:33:37Z</time></trkpt>
<trkpt lat="46.23542" lon="7.01078"><ele>514.2</ele><time>2017-06-15T08:33:39Z</time></trkpt>
<trkpt lat="46.23539" lon="7.01078"><ele>514.6</ele><time>2017-06-15T08:33:41Z</time></trkpt>
<trkpt lat="46.23536" lon="7.01078"><ele>514.8</ele><time>2017-06-15T08:33:43Z</time></trkpt>
<trkpt lat="46.23533" lon="7.01078"><ele>515</ele><time>2017-06-15T08:33:45Z</time></trkpt>
<trkpt lat="46.2353" lon="7.01078"><ele>515.4</ele><time>2017-06-15T08:33:47Z</time></trkpt>
<trkpt lat="46.23527" lon="7.01077"><ele>515.6</ele><time>2017-06-15T08:33:49Z</time></trkpt>
<trkpt lat="46.23524" lon="7.01076"><ele>515.8</ele><time>2017-06-15T08:33:51Z</time></trkpt>
<trkpt lat="46.2352" lon="7.01075"><ele>516.2</ele><time>2017-06-15T08:33:53Z</time></trkpt>
<trkpt lat="46.23517" lon="7.01074"><ele>516.4</ele><time>2017-06-15T08:33:55Z</time></trkpt>
<trkpt lat="46.23514" lon="7.01073"><ele>516.6</ele><time>2017-06-15T08:33:57Z</time></trkpt>
<trkpt lat="46.2351" lon="7.01072"><ele>517</ele><time>2017-06-15T08:33:59Z</time></trkpt>
<trkpt lat="46.23509" lon="7.01072"><ele>517</ele><time>2017-06-15T08:34:00Z</time></trkpt>
<trkpt lat="46.23507" lon="7.01071"><ele>517.2</ele><time>2017-06-15T08:34:01Z</time></trkpt>
<trkpt lat="46.23504" lon="7.0107"><ele>517.6</ele><time>2017-06-15T08:34:03Z</time></trkpt>
<trkpt lat="46.23501" lon="7.0107"><ele>518</ele><time>2017-06-15T08:34:05Z</time></trkpt>
<trkpt lat="46.235" lon="7.01076"><ele>518.4</ele><time>2017-06-15T08:34:07Z</time></trkpt>
<trkpt lat="46.235" lon="7.01081"><ele>518.6</ele><time>2017-06-15T08:34:09Z</time></trkpt>
<trkpt lat="46.23499" lon="7.01086"><ele>519</ele><time>2017-06-15T08:34:11Z</time></trkpt>
<trkpt lat="46.23498" lon="7.01092"><ele>519.4</ele><time>2017-06-15T08:34:13Z</time></trkpt>
<trkpt lat="46.23498" lon="7.01097"><ele>519.8</ele><time>2017-06-15T08:34:15Z</time></trkpt>
<trkpt lat="46.23497" lon="7.01102"><ele>520</ele><time>2017-06-15T08:34:17Z</time></trkpt>
<trkpt lat="46.23496" lon="7.01108"><ele>520.4</ele><time>2017-06-15T08:34:19Z</time></trkpt>
<trkpt lat="46.23496" lon="7.01113"><ele>520.8</ele><time>2017-06-15T08:34:21Z</time></trkpt>
<trkpt lat="46.23495" lon="7.01118"><ele>521.2</ele><time>2017-06-15T08:34:23Z</time></trkpt>
<trkpt lat="46.23494" lon="7.01124"><ele>521.4</ele><time>2017-06-15T08:34:25Z</time></trkpt>
<trkpt lat="46.23493" lon="7.01129"><ele>521.8</ele><time>2017-06-15T08:34:27Z</time></trkpt>
<trkpt lat="46.23493" lon="7.01134"><ele>522.2</ele><time>2017-06-15T08:34:29Z</time></trkpt>
<trkpt lat="46.23491" lon="7.01139"><ele>522.6</ele><time>2017-06-15T08:34:31Z</time></trkpt>
<trkpt lat="46.23489" lon="7.01142"><ele>523</ele><time>2017-06-15T08:34:33Z</time></trkpt>
<trkpt lat="46.23484" lon="7.01143"><ele>523.4</ele><time>2017-06-15T08:34:35Z</time></trkpt>
<trkpt lat="46.2348" lon="7.01144"><ele>523.8</ele><time>2017-06-15T08:34:37Z</time></trkpt>
<trkpt lat="46.23475" lon="7.01145"><ele>524.2</ele><time>2017-06-15T08:34:39Z</time></trkpt>
<trkpt lat="46.23471" lon="7.01146"><ele>524.6</ele><time>2017-06-15T08:34:41Z</time></trkpt>
<trkpt lat="46.23466" lon="7.01147"><ele>525</ele><time>2017-06-15T08:34:43Z</time></trkpt>
<trkpt lat="46.23462" lon="7.01148"><ele>525.2</ele><time>2017-06-15T08:34:45Z</time></trkpt>
<trkpt lat="46.23457" lon="7.0115"><ele>525.4</ele><time>2017-06-15T08:34:47Z</time></trkpt>
<trkpt lat="46.23453" lon="7.01151"><ele>525.6</ele><time>2017-06-15T08:34:49Z</time></trkpt>
<trkpt lat="46.23448" lon="7.01152"><ele>525.8</ele><time>2017-06-15T08:34:51Z</time></trkpt>
<trkpt lat="46.23444" lon="7.01153"><ele>526</ele><time>2017-06-15T08:34:53Z</time></trkpt>
<trkpt lat="46.23439" lon="7.01154"><ele>526.2</ele><time>2017-06-15T08:34:55Z</time></trkpt>
<trkpt lat="46.23423" lon="7.01156"><ele>526.8</ele><time>2017-06-15T08:35:01Z</time></trkpt>
<trkpt lat="46.23398" lon="7.0116"><ele>528.2</ele><time>2017-06-15T08:35:11Z</time></trkpt>
<trkpt lat="46.23394" lon="7.01158"><ele>528.4</ele><time>2017-06-15T08:35:13Z</time></trkpt>
<trkpt lat="46.2339" lon="7.01156"><ele>528.6</ele><time>2017-06-15T08:35:15Z</time></trkpt>
<trkpt lat="46.23386" lon="7.01154"><ele>528.8</ele><time>2017-06-15T08:35:17Z</time></trkpt>
<trkpt lat="46.23382" lon="7.01152"><ele>529.2</ele><time>2017-06-15T08:35:19Z</time></trkpt>
<trkpt lat="46.23378" lon="7.0115"><ele>529.4</ele><time>2017-06-15T08:35:21Z</time></trkpt>
<trkpt lat="46.23374" lon="7.01148"><ele>529.6</ele><time>2017-06-15T08:35:23Z</time></trkpt>
<trkpt lat="46.23369" lon="7.01146"><ele>530</ele><time>2017-06-15T08:35:25Z</time></trkpt>
<trkpt lat="46.23365" lon="7.01144"><ele>530.2</ele><time>2017-06-15T08:35:27Z</time></trkpt>
<trkpt lat="46.23361" lon="7.01142"><ele>530.4</ele><time>2017-06-15T08:35:29Z</time></trkpt>
<trkpt lat="46.23357" lon="7.0114"><ele>530.6</ele><time>2017-06-15T08:35:31Z</time></trkpt>
<trkpt lat="46.23355" lon="7.01138"><ele>530.8</ele><time>2017-06-15T08:35:32Z</time></trkpt>
<trkpt lat="46.23353" lon="7.01136"><ele>531</ele><time>2017-06-15T08:35:33Z</time></trkpt>
<trkpt lat="46.23351" lon="7.01134"><ele>531</ele><time>2017-06-15T08:35:34Z</time></trkpt>
<trkpt lat="46.23349" lon="7.01132"><ele>531.2</ele><time>2017-06-15T08:35:35Z</time></trkpt>
<trkpt lat="46.23345" lon="7.01129"><ele>531.2</ele><time>2017-06-15T08:35:37Z</time></trkpt>
<trkpt lat="46.23341" lon="7.01125"><ele>531.4</ele><time>2017-06-15T08:35:39Z</time></trkpt>
<trkpt lat="46.23337" lon="7.01121"><ele>531.6</ele><time>2017-06-15T08:35:41Z</time></trkpt>
<trkpt lat="46.23333" lon="7.01117"><ele>531.6</ele><time>2017-06-15T08:35:43Z</time></trkpt>
<trkpt lat="46.23329" lon="7.01113"><ele>531.8</ele><time>2017-06-15T08:35:45Z</time></trkpt>
<trkpt lat="46.23324" lon="7.01109"><ele>531.8</ele><time>2017-06-15T08:35:47Z</time></trkpt>
<trkpt lat="46.2332" lon="7.01105"><ele>532</ele><time>2017-06-15T08:35:49Z</time></trkpt>
<trkpt lat="46.23316" lon="7.01101"><ele>532.2</ele><time>2017-06-15T08:35:51Z</time></trkpt>
<trkpt lat="46.23313" lon="7.01092"><ele>532.2</ele><time>2017-06-15T08:35:53Z</time></trkpt>
<trkpt lat="46.23309" lon="7.01083"><ele>532.4</ele><time>2017-06-15T08:35:55Z</time></trkpt>
<trkpt lat="46.23305" lon="7.01074"><ele>532.4</ele><time>2017-06-15T08:35:57Z</time></trkpt>
<trkpt lat="46.23302" lon="7.01065"><ele>532.4</ele><time>2017-06-15T08:35:59Z</time></trkpt>
<trkpt lat="46.23298" lon="7.01056"><ele>532.6</ele><time>2017-06-15T08:36:01Z</time></trkpt>
<trkpt lat="46.23294" lon="7.01048"><ele>532.6</ele><time>2017-06-15T08:36:03Z</time></trkpt>
<trkpt lat="46.23293" lon="7.01043"><ele>532.8</ele><time>2017-06-15T08:36:04Z</time></trkpt>
<trkpt lat="46.23292" lon="7.01039"><ele>532.8</ele><time>2017-06-15T08:36:05Z</time></trkpt>
<trkpt lat="46.2329" lon="7.01031"><ele>532.8</ele><time>2017-06-15T08:36:07Z</time></trkpt>
<trkpt lat="46.23289" lon="7.01023"><ele>533</ele><time>2017-06-15T08:36:09Z</time></trkpt>
<trkpt lat="46.23287" lon="7.01015"><ele>533</ele><time>2017-06-15T08:36:11Z</time></trkpt>
<trkpt lat="46.23285" lon="7.01007"><ele>533.2</ele><time>2017-06-15T08:36:13Z</time></trkpt>
<trkpt lat="46.23283" lon="7.00999"><ele>533.2</ele><time>2017-06-15T08:36:15Z</time></trkpt>
<trkpt lat="46.23282" lon="7.00991"><ele>533.4</ele><time>2017-06-15T08:36:17Z</time></trkpt>
<trkpt lat="46.2328" lon="7.00983"><ele>533.4</ele><time>2017-06-15T08:36:19Z</time></trkpt>
<trkpt lat="46.23279" lon="7.00979"><ele>533.4</ele><time>2017-06-15T08:36:20Z</time></trkpt>
<trkpt lat="46.23278" lon="7.00976"><ele>533.4</ele><time>2017-06-15T08:36:21Z</time></trkpt>
<trkpt lat="46.23276" lon="7.00969"><ele>533.6</ele><time>2017-06-15T08:36:23Z</time></trkpt>
<trkpt lat="46.23273" lon="7.00962"><ele>533.6</ele><time>2017-06-15T08:36:25Z</time></trkpt>
<trkpt lat="46.23271" lon="7.00955"><ele>533.8</ele><time>2017-06-15T08:36:27Z</time></trkpt>
<trkpt lat="46.23269" lon="7.00948"><ele>533.8</ele><time>2017-06-15T08:36:29Z</time></trkpt>
<trkpt lat="46.23267" lon="7.00941"><ele>534</ele><time>2017-06-15T08:36:31Z</time></trkpt>
<trkpt lat="46.23264" lon="7.00934"><ele>534</ele><time>2017-06-15T08:36:33Z</time></trkpt>
<trkpt lat="46.23263" lon="7.0093"><ele>534</ele><time>2017-06-15T08:36:34Z</time></trkpt>
<trkpt lat="46.23262" lon="7.00927"><ele>534.2</ele><time>2017-06-15T08:36:35Z</time></trkpt>
<trkpt lat="46.23261" lon="7.00924"><ele>534.2</ele><time>2017-06-15T08:36:36Z</time></trkpt>
<trkpt lat="46.23258" lon="7.00923"><ele>534.2</ele><time>2017-06-15T08:36:37Z</time></trkpt>
<trkpt lat="46.23253" lon="7.0092"><ele>534.4</ele><time>2017-06-15T08:36:39Z</time></trkpt>
<trkpt lat="46.23248" lon="7.00918"><ele>534.4</ele><time>2017-06-15T08:36:41Z</time></trkpt>
<trkpt lat="46.23242" lon="7.00915"><ele>534.6</ele><time>2017-06-15T08:36:43Z</time></trkpt>
<trkpt lat="46.2324" lon="7.00913"><ele>534.6</ele><time>2017-06-15T08:36:44Z</time></trkpt>
<trkpt lat="46.23238" lon="7.00908"><ele>534.6</ele><time>2017-06-15T08:36:45Z</time></trkpt>
<trkpt lat="46.23236" lon="7.00903"><ele>534.8</ele><time>2017-06-15T08:36:46Z</time></trkpt>
<trkpt lat="46.23235" lon="7.00895"><ele>534.8</ele><time>2017-06-15T08:36:47Z</time></trkpt>
<trkpt lat="46.23232" lon="7.0088"><ele>535</ele><time>2017-06-15T08:36:49Z</time></trkpt>
<trkpt lat="46.2323" lon="7.00872"><ele>534.8</ele><time>2017-06-15T08:36:50Z</time></trkpt>
<trkpt lat="46.23225" lon="7.00843"><ele>533.8</ele><time>2017-06-15T08:36:54Z</time></trkpt>
<trkpt lat="46.23222" lon="7.00842"><ele>533.6</ele><time>2017-06-15T08:36:55Z</time></trkpt>
<trkpt lat="46.23209" lon="7.00852"><ele>532.4</ele><time>2017-06-15T08:37:01Z</time></trkpt>
<trkpt lat="46.23196" lon="7.00861"><ele>533.8</ele><time>2017-06-15T08:37:07Z</time></trkpt>
<trkpt lat="46.23192" lon="7.00865"><ele>534.2</ele><time>2017-06-15T08:37:09Z</time></trkpt>
<trkpt lat="46.23188" lon="7.00868"><ele>534.8</ele><time>2017-06-15T08:37:11Z</time></trkpt>
<trkpt lat="46.23184" lon="7.00871"><ele>535.2</ele><time>2017-06-15T08:37:13Z</time></trkpt>
<trkpt lat="46.23181" lon="7.00872"><ele>535.4</ele><time>2017-06-15T08:37:14Z</time></trkpt>
<trkpt lat="46.2318" lon="7.00873"><ele>535.8</ele><time>2017-06-15T08:37:15Z</time></trkpt>
<trkpt lat="46.23176" lon="7.00873"><ele>536.2</ele><time>2017-06-15T08:37:17Z</time></trkpt>
<trkpt lat="46.23174" lon="7.00873"><ele>536.4</ele><time>2017-06-15T08:37:18Z</time></trkpt>
<trkpt lat="46.23173" lon="7.00874"><ele>536.6</ele><time>2017-06-15T08:37:19Z</time></trkpt>
<trkpt lat="46.23169" lon="7.00874"><ele>537</ele><time>2017-06-15T08:37:21Z</time></trkpt>
<trkpt lat="46.23166" lon="7.00875"><ele>537.4</ele><time>2017-06-15T08:37:23Z</time></trkpt>
<trkpt lat="46.23162" lon="7.00875"><ele>537.8</ele><time>2017-06-15T08:37:25Z</time></trkpt>
<trkpt lat="46.23158" lon="7.00876"><ele>538.2</ele><time>2017-06-15T08:37:27Z</time></trkpt>
<trkpt lat="46.23157" lon="7.00877"><ele>538.4</ele><time>2017-06-15T08:37:28Z</time></trkpt>
<trkpt lat="46.23155" lon="7.0088"><ele>538.6</ele><time>2017-06-15T08:37:29Z</time></trkpt>
<trkpt lat="46.23152" lon="7.00885"><ele>539</ele><time>2017-06-15T08:37:31Z</time></trkpt>
<trkpt lat="46.23148" lon="7.00891"><ele>539.4</ele><time>2017-06-15T08:37:33Z</time></trkpt>
<trkpt lat="46.23145" lon="7.00897"><ele>539.8</ele><time>2017-06-15T08:37:35Z</time></trkpt>
<trkpt lat="46.23143" lon="7.009"><ele>539.8</ele><time>2017-06-15T08:37:36Z</time></trkpt>
<trkpt lat="46.23141" lon="7.00902"><ele>540</ele><time>2017-06-15T08:37:37Z</time></trkpt>
<trkpt lat="46.23138" lon="7.00908"><ele>540</ele><time>2017-06-15T08:37:39Z</time></trkpt>
<trkpt lat="46.23135" lon="7.00914"><ele>540.2</ele><time>2017-06-15T08:37:41Z</time></trkpt>
<trkpt lat="46.23131" lon="7.00919"><ele>540.2</ele><time>2017-06-15T08:37:43Z</time></trkpt>
<trkpt lat="46.23128" lon="7.00925"><ele>540.4</ele><time>2017-06-15T08:37:45Z</time></trkpt>
<trkpt lat="46.23126" lon="7.00928"><ele>540.4</ele><time>2017-06-15T08:37:46Z</time></trkpt>
<trkpt lat="46.23123" lon="7.00929"><ele>540.4</ele><time>2017-06-15T08:37:47Z</time></trkpt>
<trkpt lat="46.23118" lon="7.00933"><ele>540</ele><time>2017-06-15T08:37:49Z</time></trkpt>
<trkpt lat="46.23113" lon="7.00937"><ele>539.8</ele><time>2017-06-15T08:37:51Z</time></trkpt>
<trkpt lat="46.23108" lon="7.00941"><ele>539.6</ele><time>2017-06-15T08:37:53Z</time></trkpt>
<trkpt lat="46.23103" lon="7.00944"><ele>539.2</ele><time>2017-06-15T08:37:55Z</time></trkpt>
<trkpt lat="46.23098" lon="7.00948"><ele>539</ele><time>2017-06-15T08:37:57Z</time></trkpt>
<trkpt lat="46.23092" lon="7.00952"><ele>538.8</ele><time>2017-06-15T08:37:59Z</time></trkpt>
<trkpt lat="46.23087" lon="7.00956"><ele>538.4</ele><time>2017-06-15T08:38:01Z</time></trkpt>
<trkpt lat="46.23084" lon="7.00958"><ele>538.4</ele><time>2017-06-15T08:38:02Z</time></trkpt>
<trkpt lat="46.23081" lon="7.0096"><ele>538.2</ele><time>2017-06-15T08:38:03Z</time></trkpt>
<trkpt lat="46.23075" lon="7.00964"><ele>538</ele><time>2017-06-15T08:38:05Z</time></trkpt>
<trkpt lat="46.23068" lon="7.00969"><ele>537.6</ele><time>2017-06-15T08:38:07Z</time></trkpt>
<trkpt lat="46.23062" lon="7.00973"><ele>537.4</ele><time>2017-06-15T08:38:09Z</time></trkpt>
<trkpt lat="46.23056" lon="7.00978"><ele>537.2</ele><time>2017-06-15T08:38:11Z</time></trkpt>
<trkpt lat="46.23049" lon="7.00982"><ele>536.8</ele><time>2017-06-15T08:38:13Z</time></trkpt>
<trkpt lat="46.23042" lon="7.00988"><ele>536.6</ele><time>2017-06-15T08:38:15Z</time></trkpt>
<trkpt lat="46.23034" lon="7.01004"><ele>536.4</ele><time>2017-06-15T08:38:17Z</time></trkpt>
<trkpt lat="46.23025" lon="7.01019"><ele>536</ele><time>2017-06-15T08:38:19Z</time></trkpt>
<trkpt lat="46.23016" lon="7.01035"><ele>535.8</ele><time>2017-06-15T08:38:21Z</time></trkpt>
<trkpt lat="46.23011" lon="7.01043"><ele>535.6</ele><time>2017-06-15T08:38:22Z</time></trkpt>
<trkpt lat="46.23004" lon="7.01051"><ele>535.6</ele><time>2017-06-15T08:38:23Z</time></trkpt>
<trkpt lat="46.22997" lon="7.01057"><ele>535.4</ele><time>2017-06-15T08:38:24Z</time></trkpt>
<trkpt lat="46.22988" lon="7.01061"><ele>535.2</ele><time>2017-06-15T08:38:25Z</time></trkpt>
<trkpt lat="46.22979" lon="7.01064"><ele>535</ele><time>2017-06-15T08:38:26Z</time></trkpt>
<trkpt lat="46.2297" lon="7.01068"><ele>534.4</ele><time>2017-06-15T08:38:27Z</time></trkpt>
<trkpt lat="46.22953" lon="7.01074"><ele>533.2</ele><time>2017-06-15T08:38:29Z</time></trkpt>
<trkpt lat="46.22937" lon="7.01077"><ele>532</ele><time>2017-06-15T08:38:31Z</time></trkpt>
<trkpt lat="46.22922" lon="7.01081"><ele>531.4</ele><time>2017-06-15T08:38:33Z</time></trkpt>
<trkpt lat="46.22907" lon="7.01085"><ele>530.6</ele><time>2017-06-15T08:38:35Z</time></trkpt>
<trkpt lat="46.22896" lon="7.01094"><ele>530</ele><time>2017-06-15T08:38:37Z</time></trkpt>
<trkpt lat="46.22885" lon="7.01103"><ele>529.2</ele><time>2017-06-15T08:38:39Z</time></trkpt>
<trkpt lat="46.22874" lon="7.01111"><ele>528.6</ele><time>2017-06-15T08:38:41Z</time></trkpt>
<trkpt lat="46.22859" lon="7.01116"><ele>527.8</ele><time>2017-06-15T08:38:43Z</time></trkpt>
<trkpt lat="46.22845" lon="7.01122"><ele>527.2</ele><time>2017-06-15T08:38:45Z</time></trkpt>
<trkpt lat="46.22841" lon="7.01132"><ele>526.6</ele><time>2017-06-15T08:38:47Z</time></trkpt>
<trkpt lat="46.22842" lon="7.01138"><ele>526.6</ele><time>2017-06-15T08:38:49Z</time></trkpt>
<trkpt lat="46.22843" lon="7.01145"><ele>526.8</ele><time>2017-06-15T08:38:51Z</time></trkpt>
<trkpt lat="46.22848" lon="7.01172"><ele>527.2</ele><time>2017-06-15T08:38:59Z</time></trkpt>
<trkpt lat="46.22851" lon="7.01188"><ele>528.4</ele><time>2017-06-15T08:39:04Z</time></trkpt>
<trkpt lat="46.22852" lon="7.01195"><ele>528.8</ele><time>2017-06-15T08:39:06Z</time></trkpt>
<trkpt lat="46.22857" lon="7.01202"><ele>529.2</ele><time>2017-06-15T08:39:09Z</time></trkpt>
<trkpt lat="46.22859" lon="7.01204"><ele>529.4</ele><time>2017-06-15T08:39:10Z</time></trkpt>
<trkpt lat="46.2286" lon="7.01206"><ele>529.4</ele><time>2017-06-15T08:39:11Z</time></trkpt>
<trkpt lat="46.22864" lon="7.01211"><ele>529.6</ele><time>2017-06-15T08:39:13Z</time></trkpt>
<trkpt lat="46.22867" lon="7.01216"><ele>529.8</ele><time>2017-06-15T08:39:15Z</time></trkpt>
<trkpt lat="46.2287" lon="7.0122"><ele>530</ele><time>2017-06-15T08:39:17Z</time></trkpt>
<trkpt lat="46.22873" lon="7.01225"><ele>530.2</ele><time>2017-06-15T08:39:19Z</time></trkpt>
<trkpt lat="46.22877" lon="7.0123"><ele>530.4</ele><time>2017-06-15T08:39:21Z</time></trkpt>
<trkpt lat="46.2288" lon="7.01234"><ele>530.6</ele><time>2017-06-15T08:39:23Z</time></trkpt>
<trkpt lat="46.22883" lon="7.01239"><ele>530.8</ele><time>2017-06-15T08:39:25Z</time></trkpt>
<trkpt lat="46.22885" lon="7.01241"><ele>531</ele><time>2017-06-15T08:39:26Z</time></trkpt>
<trkpt lat="46.22887" lon="7.01243"><ele>531</ele><time>2017-06-15T08:39:27Z</time></trkpt>
<trkpt lat="46.2289" lon="7.01245"><ele>531.4</ele><time>2017-06-15T08:39:29Z</time></trkpt>
<trkpt lat="46.22894" lon="7.01248"><ele>531.8</ele><time>2017-06-15T08:39:31Z</time></trkpt>
<trkpt lat="46.22898" lon="7.01251"><ele>532.2</ele><time>2017-06-15T08:39:33Z</time></trkpt>
<trkpt lat="46.22901" lon="7.01254"><ele>532.6</ele><time>2017-06-15T08:39:35Z</time></trkpt>
<trkpt lat="46.22905" lon="7.01257"><ele>533</ele><time>2017-06-15T08:39:37Z</time></trkpt>
<trkpt lat="46.22909" lon="7.0126"><ele>533.2</ele><time>2017-06-15T08:39:39Z</time></trkpt>
<trkpt lat="46.22912" lon="7.01263"><ele>533.6</ele><time>2017-06-15T08:39:41Z</time></trkpt>
<trkpt lat="46.22916" lon="7.01265"><ele>534.2</ele><time>2017-06-15T08:39:43Z</time></trkpt>
<trkpt lat="46.2292" lon="7.01268"><ele>534.6</ele><time>2017-06-15T08:39:45Z</time></trkpt>
<trkpt lat="46.22923" lon="7.01271"><ele>535</ele><time>2017-06-15T08:39:47Z</time></trkpt>
<trkpt lat="46.22924" lon="7.01272"><ele>535.4</ele><time>2017-06-15T08:39:48Z</time></trkpt>
<trkpt lat="46.22923" lon="7.01273"><ele>535.6</ele><time>2017-06-15T08:39:49Z</time></trkpt>
<trkpt lat="46.22922" lon="7.01275"><ele>536</ele><time>2017-06-15T08:39:51Z</time></trkpt>
<trkpt lat="46.2292" lon="7.01277"><ele>536.4</ele><time>2017-06-15T08:39:53Z</time></trkpt>
<trkpt lat="46.22918" lon="7.01278"><ele>537</ele><time>2017-06-15T08:39:55Z</time></trkpt>
<trkpt lat="46.22916" lon="7.0128"><ele>537.4</ele><time>2017-06-15T08:39:57Z</time></trkpt>
<trkpt lat="46.22915" lon="7.01281"><ele>537.6</ele><time>2017-06-15T08:39:58Z</time></trkpt>
<trkpt lat="46.22914" lon="7.01281"><ele>537.8</ele><time>2017-06-15T08:39:59Z</time></trkpt>
<trkpt lat="46.22912" lon="7.01283"><ele>538.2</ele><time>2017-06-15T08:40:01Z</time></trkpt>
<trkpt lat="46.2291" lon="7.01285"><ele>538.8</ele><time>2017-06-15T08:40:03Z</time></trkpt>
<trkpt lat="46.22908" lon="7.01286"><ele>539.2</ele><time>2017-06-15T08:40:05Z</time></trkpt>
<trkpt lat="46.22906" lon="7.01288"><ele>539.6</ele><time>2017-06-15T08:40:07Z</time></trkpt>
<trkpt lat="46.22904" lon="7.0129"><ele>540</ele><time>2017-06-15T08:40:09Z</time></trkpt>
<trkpt lat="46.22902" lon="7.01291"><ele>540.4</ele><time>2017-06-15T08:40:11Z</time></trkpt>
<trkpt lat="46.229" lon="7.01293"><ele>540.8</ele><time>2017-06-15T08:40:13Z</time></trkpt>
<trkpt lat="46.22899" lon="7.01294"><ele>541</ele><time>2017-06-15T08:40:14Z</time></trkpt>
<trkpt lat="46.22899" lon="7.01295"><ele>541.2</ele><time>2017-06-15T08:40:15Z</time></trkpt>
<trkpt lat="46.22897" lon="7.01296"><ele>541.6</ele><time>2017-06-15T08:40:17Z</time></trkpt>
<trkpt lat="46.22895" lon="7.01298"><ele>542</ele><time>2017-06-15T08:40:19Z</time></trkpt>
<trkpt lat="46.22893" lon="7.013"><ele>542.4</ele><time>2017-06-15T08:40:21Z</time></trkpt>
<trkpt lat="46.22891" lon="7.01301"><ele>542.8</ele><time>2017-06-15T08:40:23Z</time></trkpt>
<trkpt lat="46.22889" lon="7.01303"><ele>543.2</ele><time>2017-06-15T08:40:25Z</time></trkpt>
<trkpt lat="46.22887" lon="7.01305"><ele>543.6</ele><time>2017-06-15T08:40:27Z</time></trkpt>
<trkpt lat="46.22885" lon="7.01306"><ele>544</ele><time>2017-06-15T08:40:29Z</time></trkpt>
<trkpt lat="46.22884" lon="7.01308"><ele>544.4</ele><time>2017-06-15T08:40:31Z</time></trkpt>
<trkpt lat="46.22883" lon="7.0131"><ele>544.6</ele><time>2017-06-15T08:40:33Z</time></trkpt>
<trkpt lat="46.22882" lon="7.01311"><ele>544.8</ele><time>2017-06-15T08:40:35Z</time></trkpt>
<trkpt lat="46.22881" lon="7.01313"><ele>545.2</ele><time>2017-06-15T08:40:37Z</time></trkpt>
<trkpt lat="46.2288" lon="7.01315"><ele>545.4</ele><time>2017-06-15T08:40:39Z</time></trkpt>
<trkpt lat="46.22879" lon="7.01316"><ele>545.8</ele><time>2017-06-15T08:40:41Z</time></trkpt>
<trkpt lat="46.22878" lon="7.01318"><ele>546</ele><time>2017-06-15T08:40:43Z</time></trkpt>
<trkpt lat="46.22877" lon="7.0132"><ele>546.2</ele><time>2017-06-15T08:40:45Z</time></trkpt>
<trkpt lat="46.22876" lon="7.01321"><ele>546.6</ele><time>2017-06-15T08:40:47Z</time></trkpt>
<trkpt lat="46.22875" lon="7.01323"><ele>546.8</ele><time>2017-06-15T08:40:49Z</time></trkpt>
<trkpt lat="46.22875" lon="7.01324"><ele>547</ele><time>2017-06-15T08:40:50Z</time></trkpt>
<trkpt lat="46.22875" lon="7.01325"><ele>547.2</ele><time>2017-06-15T08:40:51Z</time></trkpt>
<trkpt lat="46.22875" lon="7.01327"><ele>547.4</ele><time>2017-06-15T08:40:53Z</time></trkpt>
<trkpt lat="46.22876" lon="7.01344"><ele>550.4</ele><time>2017-06-15T08:41:11Z</time></trkpt>
<trkpt lat="46.22876" lon="7.01346"><ele>550.8</ele><time>2017-06-15T08:41:13Z</time></trkpt>
<trkpt lat="46.22876" lon="7.01347"><ele>551.2</ele><time>2017-06-15T08:41:15Z</time></trkpt>
<trkpt lat="46.22876" lon="7.01349"><ele>551.6</ele><time>2017-06-15T08:41:17Z</time></trkpt>
<trkpt lat="46.22876" lon="7.01351"><ele>552</ele><time>2017-06-15T08:41:19Z</time></trkpt>
<trkpt lat="46.22876" lon="7.01353"><ele>552.2</ele><time>2017-06-15T08:41:21Z</time></trkpt>
<trkpt lat="46.22876" lon="7.01355"><ele>552.6</ele><time>2017-06-15T08:41:23Z</time></trkpt>
<trkpt lat="46.22877" lon="7.01357"><ele>553</ele><time>2017-06-15T08:41:25Z</time></trkpt>
<trkpt lat="46.22877" lon="7.01359"><ele>553.4</ele><time>2017-06-15T08:41:27Z</time></trkpt>
<trkpt lat="46.22877" lon="7.01361"><ele>553.8</ele><time>2017-06-15T08:41:29Z</time></trkpt>
<trkpt lat="46.22877" lon="7.01363"><ele>554.2</ele><time>2017-06-15T08:41:31Z</time></trkpt>
<trkpt lat="46.22877" lon="7.01364"><ele>554.4</ele><time>2017-06-15T08:41:33Z</time></trkpt>
<trkpt lat="46.22877" lon="7.01366"><ele>554.6</ele><time>2017-06-15T08:41:35Z</time></trkpt>
<trkpt lat="46.22877" lon="7.01368"><ele>554.8</ele><time>2017-06-15T08:41:37Z</time></trkpt>
<trkpt lat="46.22877" lon="7.0137"><ele>555</ele><time>2017-06-15T08:41:39Z</time></trkpt>
<trkpt lat="46.22877" lon="7.01372"><ele>555.4</ele><time>2017-06-15T08:41:41Z</time></trkpt>
<trkpt lat="46.22877" lon="7.01374"><ele>555.6</ele><time>2017-06-15T08:41:43Z</time></trkpt>
<trkpt lat="46.22878" lon="7.01376"><ele>555.8</ele><time>2017-06-15T08:41:45Z</time></trkpt>
<trkpt lat="46.22878" lon="7.01378"><ele>556</ele><time>2017-06-15T08:41:47Z</time></trkpt>
<trkpt lat="46.22878" lon="7.01379"><ele>556.2</ele><time>2017-06-15T08:41:49Z</time></trkpt>
<trkpt lat="46.22878" lon="7.01381"><ele>556.4</ele><time>2017-06-15T08:41:51Z</time></trkpt>
<trkpt lat="46.22878" lon="7.01383"><ele>556.8</ele><time>2017-06-15T08:41:53Z</time></trkpt>
<trkpt lat="46.22878" lon="7.01385"><ele>557.2</ele><time>2017-06-15T08:41:55Z</time></trkpt>
<trkpt lat="46.22878" lon="7.01387"><ele>557.6</ele><time>2017-06-15T08:41:57Z</time></trkpt>
<trkpt lat="46.22878" lon="7.01389"><ele>558</ele><time>2017-06-15T08:41:59Z</time></trkpt>
<trkpt lat="46.22879" lon="7.01392"><ele>558.4</ele><time>2017-06-15T08:42:01Z</time></trkpt>
<trkpt lat="46.2288" lon="7.01396"><ele>558.6</ele><time>2017-06-15T08:42:03Z</time></trkpt>
<trkpt lat="46.22881" lon="7.01399"><ele>559</ele><time>2017-06-15T08:42:05Z</time></trkpt>
<trkpt lat="46.22882" lon="7.01402"><ele>559.4</ele><time>2017-06-15T08:42:07Z</time></trkpt>
<trkpt lat="46.22882" lon="7.01406"><ele>559.8</ele><time>2017-06-15T08:42:09Z</time></trkpt>
<trkpt lat="46.22883" lon="7.01409"><ele>560.2</ele><time>2017-06-15T08:42:11Z</time></trkpt>
<trkpt lat="46.22884" lon="7.01412"><ele>560.6</ele><time>2017-06-15T08:42:13Z</time></trkpt>
<trkpt lat="46.22885" lon="7.01416"><ele>561</ele><time>2017-06-15T08:42:15Z</time></trkpt>
<trkpt lat="46.22885" lon="7.01417"><ele>561</ele><time>2017-06-15T08:42:16Z</time></trkpt>
<trkpt lat="46.22886" lon="7.01419"><ele>561.2</ele><time>2017-06-15T08:42:17Z</time></trkpt>
<trkpt lat="46.22886" lon="7.01422"><ele>561.4</ele><time>2017-06-15T08:42:19Z</time></trkpt>
<trkpt lat="46.22887" lon="7.01425"><ele>561.6</ele><time>2017-06-15T08:42:21Z</time></trkpt>
<trkpt lat="46.22888" lon="7.01429"><ele>561.8</ele><time>2017-06-15T08:42:23Z</time></trkpt>
<trkpt lat="46.22889" lon="7.01432"><ele>562.2</ele><time>2017-06-15T08:42:25Z</time></trkpt>
<trkpt lat="46.2289" lon="7.01435"><ele>562.4</ele><time>2017-06-15T08:42:27Z</time></trkpt>
<trkpt lat="46.2289" lon="7.01439"><ele>562.6</ele><time>2017-06-15T08:42:29Z</time></trkpt>
<trkpt lat="46.22891" lon="7.01442"><ele>563</ele><time>2017-06-15T08:42:31Z</time></trkpt>
<trkpt lat="46.22892" lon="7.01445"><ele>563.2</ele><time>2017-06-15T08:42:33Z</time></trkpt>
<trkpt lat="46.22893" lon="7.01449"><ele>563.6</ele><time>2017-06-15T08:42:35Z</time></trkpt>
<trkpt lat="46.22894" lon="7.01452"><ele>563.8</ele><time>2017-06-15T08:42:37Z</time></trkpt>
<trkpt lat="46.22895" lon="7.01457"><ele>564.2</ele><time>2017-06-15T08:42:39Z</time></trkpt>
<trkpt lat="46.22896" lon="7.01461"><ele>564.4</ele><time>2017-06-15T08:42:41Z</time></trkpt>
<trkpt lat="46.22897" lon="7.01466"><ele>564.8</ele><time>2017-06-15T08:42:43Z</time></trkpt>
<trkpt lat="46.22897" lon="7.0147"><ele>565</ele><time>2017-06-15T08:42:45Z</time></trkpt>
<trkpt lat="46.22899" lon="7.01477"><ele>565.4</ele><time>2017-06-15T08:42:48Z</time></trkpt>
<trkpt lat="46.22905" lon="7.01504"><ele>566.6</ele><time>2017-06-15T08:43:00Z</time></trkpt>
<trkpt lat="46.22906" lon="7.01511"><ele>566.8</ele><time>2017-06-15T08:43:03Z</time></trkpt>
<trkpt lat="46.22907" lon="7.01515"><ele>566.8</ele><time>2017-06-15T08:43:05Z</time></trkpt>
<trkpt lat="46.22907" lon="7.01518"><ele>566.8</ele><time>2017-06-15T08:43:06Z</time></trkpt>
<trkpt lat="46.22908" lon="7.01523"><ele>566.8</ele><time>2017-06-15T08:43:07Z</time></trkpt>
<trkpt lat="46.22909" lon="7.01533"><ele>566.8</ele><time>2017-06-15T08:43:09Z</time></trkpt>
<trkpt lat="46.2291" lon="7.01543"><ele>567</ele><time>2017-06-15T08:43:11Z</time></trkpt>
<trkpt lat="46.22911" lon="7.01554"><ele>567</ele><time>2017-06-15T08:43:13Z</time></trkpt>
<trkpt lat="46.22912" lon="7.01564"><ele>567</ele><time>2017-06-15T08:43:15Z</time></trkpt>
<trkpt lat="46.22914" lon="7.01574"><ele>567</ele><time>2017-06-15T08:43:17Z</time></trkpt>
<trkpt lat="46.22915" lon="7.01584"><ele>567.2</ele><time>2017-06-15T08:43:19Z</time></trkpt>
<trkpt lat="46.22915" lon="7.01593"><ele>567.2</ele><time>2017-06-15T08:43:21Z</time></trkpt>
<trkpt lat="46.22915" lon="7.01603"><ele>567.2</ele><time>2017-06-15T08:43:23Z</time></trkpt>
<trkpt lat="46.22916" lon="7.01613"><ele>567.2</ele><time>2017-06-15T08:43:25Z</time></trkpt>
<trkpt lat="46.22918" lon="7.0162"><ele>567.4</ele><time>2017-06-15T08:43:27Z</time></trkpt>
<trkpt lat="46.22921" lon="7.01627"><ele>567.4</ele><time>2017-06-15T08:43:29Z</time></trkpt>
<trkpt lat="46.22923" lon="7.01635"><ele>567.4</ele><time>2017-06-15T08:43:31Z</time></trkpt>
<trkpt lat="46.22926" lon="7.01642"><ele>567.6</ele><time>2017-06-15T08:43:33Z</time></trkpt>
<trkpt lat="46.22928" lon="7.01649"><ele>567.6</ele><time>2017-06-15T08:43:35Z</time></trkpt>
<trkpt lat="46.2293" lon="7.01657"><ele>567.6</ele><time>2017-06-15T08:43:37Z</time></trkpt>
<trkpt lat="46.22933" lon="7.01664"><ele>567.6</ele><time>2017-06-15T08:43:39Z</time></trkpt>
<trkpt lat="46.22933" lon="7.01667"><ele>567.6</ele><time>2017-06-15T08:43:40Z</time></trkpt>
<trkpt lat="46.22932" lon="7.0167"><ele>567.8</ele><time>2017-06-15T08:43:41Z</time></trkpt>
<trkpt lat="46.2293" lon="7.01675"><ele>567.8</ele><time>2017-06-15T08:43:43Z</time></trkpt>
<trkpt lat="46.22928" lon="7.01681"><ele>567.8</ele><time>2017-06-15T08:43:45Z</time></trkpt>
<trkpt lat="46.22926" lon="7.01686"><ele>567.8</ele><time>2017-06-15T08:43:47Z</time></trkpt>
<trkpt lat="46.22923" lon="7.01692"><ele>568</ele><time>2017-06-15T08:43:49Z</time></trkpt>
<trkpt lat="46.22921" lon="7.01697"><ele>568</ele><time>2017-06-15T08:43:51Z</time></trkpt>
<trkpt lat="46.22919" lon="7.01702"><ele>568</ele><time>2017-06-15T08:43:53Z</time></trkpt>
<trkpt lat="46.22917" lon="7.01708"><ele>568</ele><time>2017-06-15T08:43:55Z</time></trkpt>
<trkpt lat="46.22915" lon="7.01713"><ele>568.2</ele><time>2017-06-15T08:43:57Z</time></trkpt>
<trkpt lat="46.22912" lon="7.01719"><ele>568.2</ele><time>2017-06-15T08:43:59Z</time></trkpt>
<trkpt lat="46.2291" lon="7.01724"><ele>568.2</ele><time>2017-06-15T08:44:01Z</time></trkpt>
<trkpt lat="46.22909" lon="7.01729"><ele>568.4</ele><time>2017-06-15T08:44:03Z</time></trkpt>
<trkpt lat="46.22908" lon="7.01734"><ele>568.8</ele><time>2017-06-15T08:44:05Z</time></trkpt>
<trkpt lat="46.22907" lon="7.01739"><ele>569.2</ele><time>2017-06-15T08:44:07Z</time></trkpt>
<trkpt lat="46.22906" lon="7.01744"><ele>569.4</ele><time>2017-06-15T08:44:09Z</time></trkpt>
<trkpt lat="46.22905" lon="7.01749"><ele>569.8</ele><time>2017-06-15T08:44:11Z</time></trkpt>
<trkpt lat="46.22904" lon="7.01754"><ele>570.2</ele><time>2017-06-15T08:44:13Z</time></trkpt>
<trkpt lat="46.22903" lon="7.01759"><ele>570.6</ele><time>2017-06-15T08:44:15Z</time></trkpt>
<trkpt lat="46.22901" lon="7.01763"><ele>571</ele><time>2017-06-15T08:44:17Z</time></trkpt>
<trkpt lat="46.229" lon="7.01768"><ele>571.4</ele><time>2017-06-15T08:44:19Z</time></trkpt>
<trkpt lat="46.22899" lon="7.01773"><ele>571.8</ele><time>2017-06-15T08:44:21Z</time></trkpt>
<trkpt lat="46.22898" lon="7.01778"><ele>572.4</ele><time>2017-06-15T08:44:23Z</time></trkpt>
<trkpt lat="46.22898" lon="7.01781"><ele>572.6</ele><time>2017-06-15T08:44:24Z</time></trkpt>
<trkpt lat="46.22899" lon="7.01783"><ele>572.8</ele><time>2017-06-15T08:44:25Z</time></trkpt>
<trkpt lat="46.229" lon="7.01787"><ele>573.2</ele><time>2017-06-15T08:44:27Z</time></trkpt>
<trkpt lat="46.22902" lon="7.01792"><ele>573.8</ele><time>2017-06-15T08:44:29Z</time></trkpt>
<trkpt lat="46.22903" lon="7.01796"><ele>574.2</ele><time>2017-06-15T08:44:31Z</time></trkpt>
<trkpt lat="46.22905" lon="7.01801"><ele>574.8</ele><time>2017-06-15T08:44:33Z</time></trkpt>
<trkpt lat="46.22907" lon="7.01805"><ele>575.2</ele><time>2017-06-15T08:44:35Z</time></trkpt>
<trkpt lat="46.22907" lon="7.01807"><ele>575.4</ele><time>2017-06-15T08:44:36Z</time></trkpt>
<trkpt lat="46.22908" lon="7.0181"><ele>575.6</ele><time>2017-06-15T08:44:37Z</time></trkpt>
<trkpt lat="46.2291" lon="7.01814"><ele>575.8</ele><time>2017-06-15T08:44:39Z</time></trkpt>
<trkpt lat="46.22911" lon="7.01818"><ele>576.2</ele><time>2017-06-15T08:44:41Z</time></trkpt>
<trkpt lat="46.22913" lon="7.01823"><ele>576.6</ele><time>2017-06-15T08:44:43Z</time></trkpt>
<trkpt lat="46.22919" lon="7.01841"><ele>577.8</ele><time>2017-06-15T08:44:51Z</time></trkpt>
<trkpt lat="46.22925" lon="7.01863"><ele>579</ele><time>2017-06-15T08:44:58Z</time></trkpt>
<trkpt lat="46.22931" lon="7.01884"><ele>579.4</ele><time>2017-06-15T08:45:05Z</time></trkpt>
<trkpt lat="46.22933" lon="7.0189"><ele>579.6</ele><time>2017-06-15T08:45:07Z</time></trkpt>
<trkpt lat="46.22935" lon="7.01896"><ele>579.8</ele><time>2017-06-15T08:45:09Z</time></trkpt>
<trkpt lat="46.22937" lon="7.01903"><ele>580</ele><time>2017-06-15T08:45:11Z</time></trkpt>
<trkpt lat="46.2294" lon="7.01912"><ele>580.2</ele><time>2017-06-15T08:45:13Z</time></trkpt>
<trkpt lat="46.22942" lon="7.0192"><ele>580.4</ele><time>2017-06-15T08:45:15Z</time></trkpt>
<trkpt lat="46.22945" lon="7.01929"><ele>580.6</ele><time>2017-06-15T08:45:17Z</time></trkpt>
<trkpt lat="46.22947" lon="7.01938"><ele>580.8</ele><time>2017-06-15T08:45:19Z</time></trkpt>
<trkpt lat="46.2295" lon="7.01946"><ele>581</ele><time>2017-06-15T08:45:21Z</time></trkpt>
<trkpt lat="46.22953" lon="7.01955"><ele>581.2</ele><time>2017-06-15T08:45:23Z</time></trkpt>
<trkpt lat="46.22955" lon="7.01963"><ele>581.4</ele><time>2017-06-15T08:45:25Z</time></trkpt>
<trkpt lat="46.22956" lon="7.01971"><ele>581.8</ele><time>2017-06-15T08:45:27Z</time></trkpt>
<trkpt lat="46.22957" lon="7.01978"><ele>582</ele><time>2017-06-15T08:45:29Z</time></trkpt>
<trkpt lat="46.22958" lon="7.01985"><ele>582.2</ele><time>2017-06-15T08:45:31Z</time></trkpt>
<trkpt lat="46.22959" lon="7.01992"><ele>582.4</ele><time>2017-06-15T08:45:33Z</time></trkpt>
<trkpt lat="46.2296" lon="7.02"><ele>582.6</ele><time>2017-06-15T08:45:35Z</time></trkpt>
<trkpt lat="46.2296" lon="7.02003"><ele>582.6</ele><time>2017-06-15T08:45:36Z</time></trkpt>
<trkpt lat="46.22961" lon="7.02007"><ele>582.8</ele><time>2017-06-15T08:45:37Z</time></trkpt>
<trkpt lat="46.22962" lon="7.02014"><ele>583</ele><time>2017-06-15T08:45:39Z</time></trkpt>
<trkpt lat="46.22963" lon="7.02022"><ele>583.2</ele><time>2017-06-15T08:45:41Z</time></trkpt>
<trkpt lat="46.22963" lon="7.02029"><ele>583.4</ele><time>2017-06-15T08:45:43Z</time></trkpt>
<trkpt lat="46.22963" lon="7.02039"><ele>583.6</ele><time>2017-06-15T08:45:45Z</time></trkpt>
<trkpt lat="46.22963" lon="7.02048"><ele>583.6</ele><time>2017-06-15T08:45:47Z</time></trkpt>
<trkpt lat="46.22963" lon="7.02057"><ele>583.8</ele><time>2017-06-15T08:45:49Z</time></trkpt>
<trkpt lat="46.22962" lon="7.02066"><ele>584</ele><time>2017-06-15T08:45:51Z</time></trkpt>
<trkpt lat="46.22962" lon="7.02076"><ele>584.2</ele><time>2017-06-15T08:45:53Z</time></trkpt>
<trkpt lat="46.22962" lon="7.02085"><ele>584.4</ele><time>2017-06-15T08:45:55Z</time></trkpt>
<trkpt lat="46.22962" lon="7.02094"><ele>584.6</ele><time>2017-06-15T08:45:57Z</time></trkpt>
<trkpt lat="46.22962" lon="7.021"><ele>584.6</ele><time>2017-06-15T08:45:58Z</time></trkpt>
<trkpt lat="46.22963" lon="7.02107"><ele>584.4</ele><time>2017-06-15T08:45:59Z</time></trkpt>
<trkpt lat="46.22966" lon="7.02121"><ele>584.2</ele><time>2017-06-15T08:46:01Z</time></trkpt>
<trkpt lat="46.22969" lon="7.02136"><ele>583.8</ele><time>2017-06-15T08:46:03Z</time></trkpt>
<trkpt lat="46.22971" lon="7.0215"><ele>583.6</ele><time>2017-06-15T08:46:05Z</time></trkpt>
<trkpt lat="46.22974" lon="7.02165"><ele>583.2</ele><time>2017-06-15T08:46:07Z</time></trkpt>
<trkpt lat="46.22978" lon="7.02181"><ele>582.8</ele><time>2017-06-15T08:46:09Z</time></trkpt>
<trkpt lat="46.22981" lon="7.02198"><ele>582.6</ele><time>2017-06-15T08:46:11Z</time></trkpt>
<trkpt lat="46.22985" lon="7.02215"><ele>582.2</ele><time>2017-06-15T08:46:13Z</time></trkpt>
<trkpt lat="46.22988" lon="7.02234"><ele>581.6</ele><time>2017-06-15T08:46:15Z</time></trkpt>
<trkpt lat="46.22993" lon="7.02261"><ele>579.8</ele><time>2017-06-15T08:46:17Z</time></trkpt>
<trkpt lat="46.22994" lon="7.02274"><ele>579</ele><time>2017-06-15T08:46:18Z</time></trkpt>
<trkpt lat="46.22994" lon="7.02289"><ele>578</ele><time>2017-06-15T08:46:19Z</time></trkpt>
<trkpt lat="46.22993" lon="7.02318"><ele>576.4</ele><time>2017-06-15T08:46:21Z</time></trkpt>
<trkpt lat="46.22993" lon="7.02347"><ele>575</ele><time>2017-06-15T08:46:23Z</time></trkpt>
<trkpt lat="46.22995" lon="7.02374"><ele>573.8</ele><time>2017-06-15T08:46:25Z</time></trkpt>
<trkpt lat="46.23004" lon="7.02402"><ele>572.4</ele><time>2017-06-15T08:46:27Z</time></trkpt>
<trkpt lat="46.23013" lon="7.0243"><ele>570.6</ele><time>2017-06-15T08:46:29Z</time></trkpt>
<trkpt lat="46.23017" lon="7.02444"><ele>569.8</ele><time>2017-06-15T08:46:30Z</time></trkpt>
<trkpt lat="46.23022" lon="7.02458"><ele>568.8</ele><time>2017-06-15T08:46:31Z</time></trkpt>
<trkpt lat="46.2303" lon="7.02488"><ele>567.2</ele><time>2017-06-15T08:46:33Z</time></trkpt>
<trkpt lat="46.23032" lon="7.0252"><ele>565.8</ele><time>2017-06-15T08:46:35Z</time></trkpt>
<trkpt lat="46.23033" lon="7.02535"><ele>565</ele><time>2017-06-15T08:46:36Z</time></trkpt>
<trkpt lat="46.23032" lon="7.02549"><ele>564.2</ele><time>2017-06-15T08:46:37Z</time></trkpt>
<trkpt lat="46.23029" lon="7.02578"><ele>563</ele><time>2017-06-15T08:46:39Z</time></trkpt>
<trkpt lat="46.23027" lon="7.02591"><ele>563</ele><time>2017-06-15T08:46:40Z</time></trkpt>
<trkpt lat="46.23022" lon="7.026"><ele>563</ele><time>2017-06-15T08:46:41Z</time></trkpt>
<trkpt lat="46.23012" lon="7.02618"><ele>563</ele><time>2017-06-15T08:46:43Z</time></trkpt>
<trkpt lat="46.22995" lon="7.02636"><ele>563</ele><time>2017-06-15T08:46:46Z</time></trkpt>
<trkpt lat="46.22992" lon="7.0265"><ele>563</ele><time>2017-06-15T08:46:48Z</time></trkpt>
<trkpt lat="46.22999" lon="7.0267"><ele>563</ele><time>2017-06-15T08:46:53Z</time></trkpt>
<trkpt lat="46.22994" lon="7.02679"><ele>563</ele><time>2017-06-15T08:46:57Z</time></trkpt>
<trkpt lat="46.22991" lon="7.02684"><ele>563.6</ele><time>2017-06-15T08:46:59Z</time></trkpt>
<trkpt lat="46.22988" lon="7.02688"><ele>564.2</ele><time>2017-06-15T08:47:01Z</time></trkpt>
<trkpt lat="46.22987" lon="7.02691"><ele>564.4</ele><time>2017-06-15T08:47:02Z</time></trkpt>
<trkpt lat="46.22985" lon="7.02693"><ele>564.6</ele><time>2017-06-15T08:47:03Z</time></trkpt>
<trkpt lat="46.22982" lon="7.02698"><ele>565</ele><time>2017-06-15T08:47:05Z</time></trkpt>
<trkpt lat="46.2298" lon="7.02702"><ele>565.4</ele><time>2017-06-15T08:47:07Z</time></trkpt>
<trkpt lat="46.22977" lon="7.02707"><ele>565.8</ele><time>2017-06-15T08:47:09Z</time></trkpt>
<trkpt lat="46.22974" lon="7.02711"><ele>566.2</ele><time>2017-06-15T08:47:11Z</time></trkpt>
<trkpt lat="46.22971" lon="7.02716"><ele>566.6</ele><time>2017-06-15T08:47:13Z</time></trkpt>
<trkpt lat="46.22968" lon="7.0272"><ele>567</ele><time>2017-06-15T08:47:15Z</time></trkpt>
<trkpt lat="46.22963" lon="7.02719"><ele>567.4</ele><time>2017-06-15T08:47:17Z</time></trkpt>
<trkpt lat="46.22958" lon="7.02719"><ele>567.8</ele><time>2017-06-15T08:47:19Z</time></trkpt>
<trkpt lat="46.22953" lon="7.02718"><ele>568</ele><time>2017-06-15T08:47:21Z</time></trkpt>
<trkpt lat="46.22948" lon="7.02718"><ele>568.2</ele><time>2017-06-15T08:47:23Z</time></trkpt>
<trkpt lat="46.22942" lon="7.02718"><ele>568.4</ele><time>2017-06-15T08:47:25Z</time></trkpt>
<trkpt lat="46.22937" lon="7.02717"><ele>568.6</ele><time>2017-06-15T08:47:27Z</time></trkpt>
<trkpt lat="46.22932" lon="7.02717"><ele>568.8</ele><time>2017-06-15T08:47:29Z</time></trkpt>
<trkpt lat="46.22927" lon="7.02716"><ele>569</ele><time>2017-06-15T08:47:31Z</time></trkpt>
<trkpt lat="46.22922" lon="7.02716"><ele>569.2</ele><time>2017-06-15T08:47:33Z</time></trkpt>
<trkpt lat="46.22916" lon="7.02716"><ele>569.4</ele><time>2017-06-15T08:47:35Z</time></trkpt>
<trkpt lat="46.22914" lon="7.02716"><ele>569.4</ele><time>2017-06-15T08:47:36Z</time></trkpt>
<trkpt lat="46.22911" lon="7.02716"><ele>569.6</ele><time>2017-06-15T08:47:37Z</time></trkpt>
<trkpt lat="46.22905" lon="7.02717"><ele>569.8</ele><time>2017-06-15T08:47:39Z</time></trkpt>
<trkpt lat="46.22899" lon="7.02717"><ele>570.2</ele><time>2017-06-15T08:47:41Z</time></trkpt>
<trkpt lat="46.22894" lon="7.02717"><ele>570.4</ele><time>2017-06-15T08:47:43Z</time></trkpt>
<trkpt lat="46.22888" lon="7.02717"><ele>570.6</ele><time>2017-06-15T08:47:45Z</time></trkpt>
<trkpt lat="46.22882" lon="7.02717"><ele>571</ele><time>2017-06-15T08:47:47Z</time></trkpt>
<trkpt lat="46.22877" lon="7.02717"><ele>571.2</ele><time>2017-06-15T08:47:49Z</time></trkpt>
<trkpt lat="46.22871" lon="7.02718"><ele>571.6</ele><time>2017-06-15T08:47:51Z</time></trkpt>
<trkpt lat="46.22864" lon="7.02718"><ele>571.8</ele><time>2017-06-15T08:47:53Z</time></trkpt>
<trkpt lat="46.22858" lon="7.02719"><ele>572</ele><time>2017-06-15T08:47:55Z</time></trkpt>
<trkpt lat="46.22852" lon="7.02719"><ele>572.2</ele><time>2017-06-15T08:47:57Z</time></trkpt>
<trkpt lat="46.22846" lon="7.0272"><ele>572.4</ele><time>2017-06-15T08:47:59Z</time></trkpt>
<trkpt lat="46.2284" lon="7.02721"><ele>572.6</ele><time>2017-06-15T08:48:01Z</time></trkpt>
<trkpt lat="46.22834" lon="7.02721"><ele>572.8</ele><time>2017-06-15T08:48:03Z</time></trkpt>
<trkpt lat="46.22831" lon="7.02722"><ele>572.8</ele><time>2017-06-15T08:48:04Z</time></trkpt>
<trkpt lat="46.22829" lon="7.02723"><ele>572.8</ele><time>2017-06-15T08:48:05Z</time></trkpt>
<trkpt lat="46.22823" lon="7.02726"><ele>573</ele><time>2017-06-15T08:48:07Z</time></trkpt>
<trkpt lat="46.22818" lon="7.02729"><ele>573.2</ele><time>2017-06-15T08:48:09Z</time></trkpt>
<trkpt lat="46.22816" lon="7.0273"><ele>573.4</ele><time>2017-06-15T08:48:10Z</time></trkpt>
<trkpt lat="46.22813" lon="7.02731"><ele>573.6</ele><time>2017-06-15T08:48:11Z</time></trkpt>
<trkpt lat="46.22808" lon="7.02734"><ele>573.8</ele><time>2017-06-15T08:48:13Z</time></trkpt>
<trkpt lat="46.22802" lon="7.02737"><ele>574.2</ele><time>2017-06-15T08:48:15Z</time></trkpt>
<trkpt lat="46.22797" lon="7.0274"><ele>574.4</ele><time>2017-06-15T08:48:17Z</time></trkpt>
<trkpt lat="46.22792" lon="7.02742"><ele>574.8</ele><time>2017-06-15T08:48:19Z</time></trkpt>
<trkpt lat="46.22787" lon="7.02745"><ele>575</ele><time>2017-06-15T08:48:21Z</time></trkpt>
<trkpt lat="46.22786" lon="7.02747"><ele>575.2</ele><time>2017-06-15T08:48:22Z</time></trkpt>
<trkpt lat="46.22784" lon="7.02749"><ele>575.4</ele><time>2017-06-15T08:48:23Z</time></trkpt>
<trkpt lat="46.22781" lon="7.02753"><ele>575.8</ele><time>2017-06-15T08:48:25Z</time></trkpt>
<trkpt lat="46.22778" lon="7.02757"><ele>576.2</ele><time>2017-06-15T08:48:27Z</time></trkpt>
<trkpt lat="46.22775" lon="7.02761"><ele>576.4</ele><time>2017-06-15T08:48:29Z</time></trkpt>
<trkpt lat="46.22772" lon="7.02764"><ele>576.8</ele><time>2017-06-15T08:48:31Z</time></trkpt>
<trkpt lat="46.22769" lon="7.02768"><ele>577.2</ele><time>2017-06-15T08:48:33Z</time></trkpt>
<trkpt lat="46.22766" lon="7.02772"><ele>577.6</ele><time>2017-06-15T08:48:35Z</time></trkpt>
<trkpt lat="46.22763" lon="7.02776"><ele>578</ele><time>2017-06-15T08:48:37Z</time></trkpt>
<trkpt lat="46.2276" lon="7.0278"><ele>578.2</ele><time>2017-06-15T08:48:39Z</time></trkpt>
<trkpt lat="46.22752" lon="7.02789"><ele>579.2</ele><time>2017-06-15T08:48:44Z</time></trkpt>
<trkpt lat="46.22728" lon="7.02799"><ele>581.4</ele><time>2017-06-15T08:48:56Z</time></trkpt>
<trkpt lat="46.22725" lon="7.02799"><ele>581.6</ele><time>2017-06-15T08:48:57Z</time></trkpt>
<trkpt lat="46.22721" lon="7.02801"><ele>581.6</ele><time>2017-06-15T08:48:59Z</time></trkpt>
<trkpt lat="46.22717" lon="7.02803"><ele>581.8</ele><time>2017-06-15T08:49:01Z</time></trkpt>
<trkpt lat="46.22713" lon="7.02804"><ele>581.8</ele><time>2017-06-15T08:49:03Z</time></trkpt>
<trkpt lat="46.22711" lon="7.02806"><ele>582</ele><time>2017-06-15T08:49:04Z</time></trkpt>
<trkpt lat="46.22709" lon="7.02809"><ele>582</ele><time>2017-06-15T08:49:05Z</time></trkpt>
<trkpt lat="46.22708" lon="7.02812"><ele>582</ele><time>2017-06-15T08:49:06Z</time></trkpt>
<trkpt lat="46.22706" lon="7.02815"><ele>582</ele><time>2017-06-15T08:49:07Z</time></trkpt>
<trkpt lat="46.22703" lon="7.02822"><ele>581.8</ele><time>2017-06-15T08:49:09Z</time></trkpt>
<trkpt lat="46.22699" lon="7.02828"><ele>581.6</ele><time>2017-06-15T08:49:11Z</time></trkpt>
<trkpt lat="46.22696" lon="7.02834"><ele>581.4</ele><time>2017-06-15T08:49:13Z</time></trkpt>
<trkpt lat="46.22693" lon="7.02841"><ele>581.2</ele><time>2017-06-15T08:49:15Z</time></trkpt>
<trkpt lat="46.22689" lon="7.02847"><ele>581</ele><time>2017-06-15T08:49:17Z</time></trkpt>
<trkpt lat="46.22686" lon="7.02853"><ele>580.8</ele><time>2017-06-15T08:49:19Z</time></trkpt>
<trkpt lat="46.22682" lon="7.0286"><ele>580.8</ele><time>2017-06-15T08:49:21Z</time></trkpt>
<trkpt lat="46.22677" lon="7.02865"><ele>580.6</ele><time>2017-06-15T08:49:23Z</time></trkpt>
<trkpt lat="46.22672" lon="7.02871"><ele>580.4</ele><time>2017-06-15T08:49:25Z</time></trkpt>
<trkpt lat="46.22667" lon="7.02877"><ele>580.2</ele><time>2017-06-15T08:49:27Z</time></trkpt>
<trkpt lat="46.22662" lon="7.02882"><ele>580</ele><time>2017-06-15T08:49:29Z</time></trkpt>
<trkpt lat="46.22657" lon="7.02888"><ele>579.8</ele><time>2017-06-15T08:49:31Z</time></trkpt>
<trkpt lat="46.22652" lon="7.02893"><ele>579.6</ele><time>2017-06-15T08:49:33Z</time></trkpt>
<trkpt lat="46.22647" lon="7.02899"><ele>579.6</ele><time>2017-06-15T08:49:35Z</time></trkpt>
<trkpt lat="46.22644" lon="7.02902"><ele>579.4</ele><time>2017-06-15T08:49:36Z</time></trkpt>
<trkpt lat="46.22641" lon="7.02906"><ele>579.4</ele><time>2017-06-15T08:49:37Z</time></trkpt>
<trkpt lat="46.22634" lon="7.02913"><ele>579.2</ele><time>2017-06-15T08:49:39Z</time></trkpt>
<trkpt lat="46.22626" lon="7.0292"><ele>579</ele><time>2017-06-15T08:49:41Z</time></trkpt>
<trkpt lat="46.22619" lon="7.02927"><ele>578.8</ele><time>2017-06-15T08:49:43Z</time></trkpt>
<trkpt lat="46.22612" lon="7.02934"><ele>578.6</ele><time>2017-06-15T08:49:45Z</time></trkpt>
<trkpt lat="46.22605" lon="7.02941"><ele>578.4</ele><time>2017-06-15T08:49:47Z</time></trkpt>
<trkpt lat="46.22601" lon="7.02945"><ele>578.4</ele><time>2017-06-15T08:49:49Z</time></trkpt>
<trkpt lat="46.22596" lon="7.02949"><ele>578.2</ele><time>2017-06-15T08:49:51Z</time></trkpt>
<trkpt lat="46.22592" lon="7.02954"><ele>578</ele><time>2017-06-15T08:49:53Z</time></trkpt>
<trkpt lat="46.22589" lon="7.02955"><ele>577.8</ele><time>2017-06-15T08:49:54Z</time></trkpt>
<trkpt lat="46.22585" lon="7.02954"><ele>577.8</ele><time>2017-06-15T08:49:55Z</time></trkpt>
<trkpt lat="46.22581" lon="7.02951"><ele>577.8</ele><time>2017-06-15T08:49:56Z</time></trkpt>
<trkpt lat="46.22576" lon="7.02943"><ele>577.6</ele><time>2017-06-15T08:49:57Z</time></trkpt>
<trkpt lat="46.22567" lon="7.02928"><ele>577.4</ele><time>2017-06-15T08:49:59Z</time></trkpt>
<trkpt lat="46.22557" lon="7.02913"><ele>577.2</ele><time>2017-06-15T08:50:01Z</time></trkpt>
<trkpt lat="46.22552" lon="7.02906"><ele>577.2</ele><time>2017-06-15T08:50:02Z</time></trkpt>
<trkpt lat="46.22544" lon="7.02898"><ele>577.2</ele><time>2017-06-15T08:50:03Z</time></trkpt>
<trkpt lat="46.22536" lon="7.0289"><ele>576.6</ele><time>2017-06-15T08:50:04Z</time></trkpt>
<trkpt lat="46.22528" lon="7.02882"><ele>575.2</ele><time>2017-06-15T08:50:05Z</time></trkpt>
<trkpt lat="46.22514" lon="7.02865"><ele>572.2</ele><time>2017-06-15T08:50:07Z</time></trkpt>
<trkpt lat="46.22502" lon="7.02844"><ele>569.2</ele><time>2017-06-15T08:50:09Z</time></trkpt>
<trkpt lat="46.22497" lon="7.02834"><ele>567.8</ele><time>2017-06-15T08:50:10Z</time></trkpt>
<trkpt lat="46.22491" lon="7.02823"><ele>566.6</ele><time>2017-06-15T08:50:11Z</time></trkpt>
<trkpt lat="46.22486" lon="7.02815"><ele>565.4</ele><time>2017-06-15T08:50:12Z</time></trkpt>
<trkpt lat="46.22482" lon="7.02809"><ele>564</ele><time>2017-06-15T08:50:13Z</time></trkpt>
<trkpt lat="46.22475" lon="7.02797"><ele>561.6</ele><time>2017-06-15T08:50:15Z</time></trkpt>
<trkpt lat="46.22473" lon="7.02794"><ele>560.4</ele><time>2017-06-15T08:50:16Z</time></trkpt>
<trkpt lat="46.22471" lon="7.02795"><ele>559.6</ele><time>2017-06-15T08:50:17Z</time></trkpt>
<trkpt lat="46.22469" lon="7.02797"><ele>558.2</ele><time>2017-06-15T08:50:19Z</time></trkpt>
<trkpt lat="46.22467" lon="7.028"><ele>556.6</ele><time>2017-06-15T08:50:21Z</time></trkpt>
<trkpt lat="46.22466" lon="7.02801"><ele>556.2</ele><time>2017-06-15T08:50:22Z</time></trkpt>
<trkpt lat="46.22464" lon="7.02802"><ele>556.4</ele><time>2017-06-15T08:50:23Z</time></trkpt>
<trkpt lat="46.22462" lon="7.02804"><ele>556.8</ele><time>2017-06-15T08:50:25Z</time></trkpt>
<trkpt lat="46.2246" lon="7.02807"><ele>557</ele><time>2017-06-15T08:50:27Z</time></trkpt>
<trkpt lat="46.22457" lon="7.02809"><ele>557.4</ele><time>2017-06-15T08:50:29Z</time></trkpt>
<trkpt lat="46.22455" lon="7.02811"><ele>557.8</ele><time>2017-06-15T08:50:31Z</time></trkpt>
<trkpt lat="46.22453" lon="7.02814"><ele>558.2</ele><time>2017-06-15T08:50:33Z</time></trkpt>
<trkpt lat="46.2245" lon="7.02816"><ele>558.4</ele><time>2017-06-15T08:50:35Z</time></trkpt>
<trkpt lat="46.22448" lon="7.02818"><ele>558.8</ele><time>2017-06-15T08:50:37Z</time></trkpt>
<trkpt lat="46.22446" lon="7.0282"><ele>559.2</ele><time>2017-06-15T08:50:39Z</time></trkpt>
<trkpt lat="46.2244" lon="7.02826"><ele>560</ele><time>2017-06-15T08:50:44Z</time></trkpt>
<trkpt lat="46.22423" lon="7.02815"><ele>562.2</ele><time>2017-06-15T08:50:57Z</time></trkpt>
<trkpt lat="46.2242" lon="7.02813"><ele>562.6</ele><time>2017-06-15T08:50:59Z</time></trkpt>
<trkpt lat="46.22418" lon="7.02812"><ele>563</ele><time>2017-06-15T08:51:01Z</time></trkpt>
<trkpt lat="46.22416" lon="7.02811"><ele>563.2</ele><time>2017-06-15T08:51:02Z</time></trkpt>
<trkpt lat="46.22415" lon="7.0281"><ele>563.2</ele><time>2017-06-15T08:51:03Z</time></trkpt>
<trkpt lat="46.22412" lon="7.02809"><ele>563.4</ele><time>2017-06-15T08:51:05Z</time></trkpt>
<trkpt lat="46.2241" lon="7.02807"><ele>563.8</ele><time>2017-06-15T08:51:07Z</time></trkpt>
<trkpt lat="46.22407" lon="7.02805"><ele>564</ele><time>2017-06-15T08:51:09Z</time></trkpt>
<trkpt lat="46.22405" lon="7.02804"><ele>564.2</ele><time>2017-06-15T08:51:11Z</time></trkpt>
<trkpt lat="46.22402" lon="7.02802"><ele>564.4</ele><time>2017-06-15T08:51:13Z</time></trkpt>
<trkpt lat="46.22399" lon="7.028"><ele>564.8</ele><time>2017-06-15T08:51:15Z</time></trkpt>
<trkpt lat="46.22398" lon="7.028"><ele>564.8</ele><time>2017-06-15T08:51:16Z</time></trkpt>
<trkpt lat="46.22396" lon="7.02799"><ele>565</ele><time>2017-06-15T08:51:17Z</time></trkpt>
<trkpt lat="46.22393" lon="7.02797"><ele>565.2</ele><time>2017-06-15T08:51:19Z</time></trkpt>
<trkpt lat="46.2239" lon="7.02795"><ele>565.4</ele><time>2017-06-15T08:51:21Z</time></trkpt>
<trkpt lat="46.22387" lon="7.02793"><ele>565.8</ele><time>2017-06-15T08:51:23Z</time></trkpt>
<trkpt lat="46.22384" lon="7.02791"><ele>566</ele><time>2017-06-15T08:51:25Z</time></trkpt>
<trkpt lat="46.22381" lon="7.02789"><ele>566.2</ele><time>2017-06-15T08:51:27Z</time></trkpt>
<trkpt lat="46.22377" lon="7.02787"><ele>566.4</ele><time>2017-06-15T08:51:29Z</time></trkpt>
<trkpt lat="46.22374" lon="7.02785"><ele>566.8</ele><time>2017-06-15T08:51:31Z</time></trkpt>
<trkpt lat="46.22371" lon="7.02783"><ele>567</ele><time>2017-06-15T08:51:33Z</time></trkpt>
<trkpt lat="46.22368" lon="7.02781"><ele>567.4</ele><time>2017-06-15T08:51:35Z</time></trkpt>
<trkpt lat="46.22365" lon="7.02779"><ele>567.6</ele><time>2017-06-15T08:51:37Z</time></trkpt>
<trkpt lat="46.22362" lon="7.02777"><ele>568</ele><time>2017-06-15T08:51:39Z</time></trkpt>
<trkpt lat="46.22358" lon="7.02775"><ele>568.2</ele><time>2017-06-15T08:51:41Z</time></trkpt>
<trkpt lat="46.22355" lon="7.02774"><ele>568.6</ele><time>2017-06-15T08:51:43Z</time></trkpt>
<trkpt lat="46.22353" lon="7.02774"><ele>569</ele><time>2017-06-15T08:51:45Z</time></trkpt>
<trkpt lat="46.22351" lon="7.02774"><ele>569.2</ele><time>2017-06-15T08:51:47Z</time></trkpt>
<trkpt lat="46.22349" lon="7.02774"><ele>569.6</ele><time>2017-06-15T08:51:49Z</time></trkpt>
<trkpt lat="46.22347" lon="7.02774"><ele>569.8</ele><time>2017-06-15T08:51:51Z</time></trkpt>
<trkpt lat="46.22346" lon="7.02774"><ele>570.2</ele><time>2017-06-15T08:51:53Z</time></trkpt>
<trkpt lat="46.22344" lon="7.02774"><ele>570.4</ele><time>2017-06-15T08:51:55Z</time></trkpt>
<trkpt lat="46.22342" lon="7.02774"><ele>570.8</ele><time>2017-06-15T08:51:57Z</time></trkpt>
<trkpt lat="46.2234" lon="7.02774"><ele>571.2</ele><time>2017-06-15T08:51:59Z</time></trkpt>
<trkpt lat="46.22338" lon="7.02774"><ele>571.6</ele><time>2017-06-15T08:52:01Z</time></trkpt>
<trkpt lat="46.22336" lon="7.02774"><ele>572</ele><time>2017-06-15T08:52:03Z</time></trkpt>
<trkpt lat="46.22334" lon="7.02774"><ele>572.4</ele><time>2017-06-15T08:52:05Z</time></trkpt>
<trkpt lat="46.22332" lon="7.02774"><ele>572.8</ele><time>2017-06-15T08:52:07Z</time></trkpt>
<trkpt lat="46.2233" lon="7.02774"><ele>573</ele><time>2017-06-15T08:52:09Z</time></trkpt>
<trkpt lat="46.22328" lon="7.02774"><ele>573.4</ele><time>2017-06-15T08:52:11Z</time></trkpt>
<trkpt lat="46.22326" lon="7.02774"><ele>573.8</ele><time>2017-06-15T08:52:13Z</time></trkpt>
<trkpt lat="46.22324" lon="7.02774"><ele>574.2</ele><time>2017-06-15T08:52:15Z</time></trkpt>
<trkpt lat="46.22322" lon="7.02775"><ele>574.6</ele><time>2017-06-15T08:52:17Z</time></trkpt>
<trkpt lat="46.2232" lon="7.02775"><ele>574.8</ele><time>2017-06-15T08:52:19Z</time></trkpt>
<trkpt lat="46.22318" lon="7.02775"><ele>575.2</ele><time>2017-06-15T08:52:21Z</time></trkpt>
<trkpt lat="46.22316" lon="7.02775"><ele>575.4</ele><time>2017-06-15T08:52:23Z</time></trkpt>
<trkpt lat="46.22314" lon="7.02775"><ele>575.8</ele><time>2017-06-15T08:52:25Z</time></trkpt>
<trkpt lat="46.22312" lon="7.02775"><ele>576.2</ele><time>2017-06-15T08:52:27Z</time></trkpt>
<trkpt lat="46.2231" lon="7.02775"><ele>576.4</ele><time>2017-06-15T08:52:29Z</time></trkpt>
<trkpt lat="46.22309" lon="7.02774"><ele>576.8</ele><time>2017-06-15T08:52:31Z</time></trkpt>
<trkpt lat="46.22306" lon="7.02774"><ele>577.6</ele><time>2017-06-15T08:52:36Z</time></trkpt>
<trkpt lat="46.22298" lon="7.02772"><ele>579.8</ele><time>2017-06-15T08:52:49Z</time></trkpt>
<trkpt lat="46.22297" lon="7.02772"><ele>580.2</ele><time>2017-06-15T08:52:51Z</time></trkpt>
<trkpt lat="46.22296" lon="7.02771"><ele>580.6</ele><time>2017-06-15T08:52:53Z</time></trkpt>
<trkpt lat="46.22295" lon="7.02771"><ele>581</ele><time>2017-06-15T08:52:55Z</time></trkpt>
<trkpt lat="46.22294" lon="7.02771"><ele>581.2</ele><time>2017-06-15T08:52:57Z</time></trkpt>
<trkpt lat="46.22293" lon="7.02771"><ele>581.4</ele><time>2017-06-15T08:52:58Z</time></trkpt>
<trkpt lat="46.22293" lon="7.02771"><ele>581.6</ele><time>2017-06-15T08:52:59Z</time></trkpt>
<trkpt lat="46.22291" lon="7.0277"><ele>581.8</ele><time>2017-06-15T08:53:01Z</time></trkpt>
<trkpt lat="46.2229" lon="7.0277"><ele>582.2</ele><time>2017-06-15T08:53:03Z</time></trkpt>
<trkpt lat="46.22289" lon="7.0277"><ele>582.4</ele><time>2017-06-15T08:53:05Z</time></trkpt>
<trkpt lat="46.22288" lon="7.02769"><ele>582.6</ele><time>2017-06-15T08:53:07Z</time></trkpt>
<trkpt lat="46.22287" lon="7.02769"><ele>583</ele><time>2017-06-15T08:53:09Z</time></trkpt>
<trkpt lat="46.22286" lon="7.02769"><ele>583.2</ele><time>2017-06-15T08:53:11Z</time></trkpt>
<trkpt lat="46.22284" lon="7.02769"><ele>583.6</ele><time>2017-06-15T08:53:13Z</time></trkpt>
<trkpt lat="46.22283" lon="7.02768"><ele>583.8</ele><time>2017-06-15T08:53:15Z</time></trkpt>
<trkpt lat="46.22282" lon="7.02768"><ele>584.2</ele><time>2017-06-15T08:53:17Z</time></trkpt>
<trkpt lat="46.22281" lon="7.02768"><ele>584.4</ele><time>2017-06-15T08:53:19Z</time></trkpt>
<trkpt lat="46.2228" lon="7.02768"><ele>584.6</ele><time>2017-06-15T08:53:21Z</time></trkpt>
<trkpt lat="46.22279" lon="7.02767"><ele>584.8</ele><time>2017-06-15T08:53:22Z</time></trkpt>
<trkpt lat="46.22279" lon="7.02767"><ele>585</ele><time>2017-06-15T08:53:23Z</time></trkpt>
<trkpt lat="46.22277" lon="7.02767"><ele>585.4</ele><time>2017-06-15T08:53:25Z</time></trkpt>
<trkpt lat="46.22276" lon="7.02767"><ele>585.8</ele><time>2017-06-15T08:53:27Z</time></trkpt>
<trkpt lat="46.22275" lon="7.02766"><ele>586</ele><time>2017-06-15T08:53:29Z</time></trkpt>
<trkpt lat="46.22274" lon="7.02766"><ele>586.4</ele><time>2017-06-15T08:53:31Z</time></trkpt>
<trkpt lat="46.22273" lon="7.02766"><ele>586.8</ele><time>2017-06-15T08:53:33Z</time></trkpt>
<trkpt lat="46.22272" lon="7.02766"><ele>587.2</ele><time>2017-06-15T08:53:35Z</time></trkpt>
<trkpt lat="46.22271" lon="7.02765"><ele>587.4</ele><time>2017-06-15T08:53:37Z</time></trkpt>
<trkpt lat="46.22269" lon="7.02765"><ele>587.8</ele><time>2017-06-15T08:53:39Z</time></trkpt>
<trkpt lat="46.22268" lon="7.02765"><ele>588.2</ele><time>2017-06-15T08:53:41Z</time></trkpt>
<trkpt lat="46.22267" lon="7.02765"><ele>588.6</ele><time>2017-06-15T08:53:43Z</time></trkpt>
<trkpt lat="46.22266" lon="7.02764"><ele>588.6</ele><time>2017-06-15T08:53:44Z</time></trkpt>
<trkpt lat="46.22266" lon="7.02764"><ele>588.8</ele><time>2017-06-15T08:53:45Z</time></trkpt>
<trkpt lat="46.22265" lon="7.02764"><ele>589.2</ele><time>2017-06-15T08:53:47Z</time></trkpt>
<trkpt lat="46.22263" lon="7.02764"><ele>589.4</ele><time>2017-06-15T08:53:49Z</time></trkpt>
<trkpt lat="46.22261" lon="7.02764"><ele>589.8</ele><time>2017-06-15T08:53:51Z</time></trkpt>
<trkpt lat="46.22259" lon="7.02764"><ele>590.2</ele><time>2017-06-15T08:53:53Z</time></trkpt>
<trkpt lat="46.22258" lon="7.02763"><ele>590.4</ele><time>2017-06-15T08:53:55Z</time></trkpt>
<trkpt lat="46.22256" lon="7.02763"><ele>590.8</ele><time>2017-06-15T08:53:57Z</time></trkpt>
<trkpt lat="46.22254" lon="7.02763"><ele>591.2</ele><time>2017-06-15T08:53:59Z</time></trkpt>
<trkpt lat="46.22253" lon="7.02763"><ele>591.4</ele><time>2017-06-15T08:54:01Z</time></trkpt>
<trkpt lat="46.22251" lon="7.02763"><ele>591.8</ele><time>2017-06-15T08:54:03Z</time></trkpt>
<trkpt lat="46.22249" lon="7.02763"><ele>592</ele><time>2017-06-15T08:54:05Z</time></trkpt>
<trkpt lat="46.22248" lon="7.02763"><ele>592.2</ele><time>2017-06-15T08:54:06Z</time></trkpt>
<trkpt lat="46.22247" lon="7.02763"><ele>592.4</ele><time>2017-06-15T08:54:07Z</time></trkpt>
<trkpt lat="46.22246" lon="7.02762"><ele>592.6</ele><time>2017-06-15T08:54:09Z</time></trkpt>
<trkpt lat="46.22244" lon="7.02762"><ele>592.8</ele><time>2017-06-15T08:54:11Z</time></trkpt>
<trkpt lat="46.22242" lon="7.02762"><ele>593</ele><time>2017-06-15T08:54:13Z</time></trkpt>
<trkpt lat="46.22241" lon="7.02762"><ele>593.2</ele><time>2017-06-15T08:54:15Z</time></trkpt>
<trkpt lat="46.22239" lon="7.02762"><ele>593.4</ele><time>2017-06-15T08:54:17Z</time></trkpt>
<trkpt lat="46.22237" lon="7.02762"><ele>593.6</ele><time>2017-06-15T08:54:19Z</time></trkpt>
<trkpt lat="46.22235" lon="7.02762"><ele>593.8</ele><time>2017-06-15T08:54:21Z</time></trkpt>
<trkpt lat="46.22234" lon="7.02761"><ele>594</ele><time>2017-06-15T08:54:23Z</time></trkpt>
<trkpt lat="46.22232" lon="7.02761"><ele>594.2</ele><time>2017-06-15T08:54:25Z</time></trkpt>
<trkpt lat="46.2223" lon="7.02761"><ele>594.6</ele><time>2017-06-15T08:54:27Z</time></trkpt>
<trkpt lat="46.22229" lon="7.02761"><ele>594.8</ele><time>2017-06-15T08:54:29Z</time></trkpt>
<trkpt lat="46.22227" lon="7.02761"><ele>595.2</ele><time>2017-06-15T08:54:31Z</time></trkpt>
<trkpt lat="46.22219" lon="7.0276"><ele>596.4</ele><time>2017-06-15T08:54:40Z</time></trkpt>
<trkpt lat="46.22217" lon="7.02762"><ele>596.8</ele><time>2017-06-15T08:54:44Z</time></trkpt>
<trkpt lat="46.22215" lon="7.02764"><ele>597.4</ele><time>2017-06-15T08:54:47Z</time></trkpt>
<trkpt lat="46.22214" lon="7.02765"><ele>597.8</ele><time>2017-06-15T08:54:49Z</time></trkpt>
<trkpt lat="46.22213" lon="7.02766"><ele>598.2</ele><time>2017-06-15T08:54:51Z</time></trkpt>
<trkpt lat="46.22212" lon="7.02767"><ele>598.6</ele><time>2017-06-15T08:54:53Z</time></trkpt>
<trkpt lat="46.22211" lon="7.02768"><ele>599</ele><time>2017-06-15T08:54:55Z</time></trkpt>
<trkpt lat="46.22209" lon="7.02769"><ele>599.4</ele><time>2017-06-15T08:54:57Z</time></trkpt>
<trkpt lat="46.22208" lon="7.0277"><ele>599.8</ele><time>2017-06-15T08:54:59Z</time></trkpt>
<trkpt lat="46.22207" lon="7.02771"><ele>600.2</ele><time>2017-06-15T08:55:01Z</time></trkpt>
<trkpt lat="46.22206" lon="7.02772"><ele>600.6</ele><time>2017-06-15T08:55:03Z</time></trkpt>
<trkpt lat="46.22205" lon="7.02773"><ele>600.8</ele><time>2017-06-15T08:55:05Z</time></trkpt>
<trkpt lat="46.22204" lon="7.02774"><ele>601.2</ele><time>2017-06-15T08:55:07Z</time></trkpt>
<trkpt lat="46.22202" lon="7.02775"><ele>601.6</ele><time>2017-06-15T08:55:09Z</time></trkpt>
<trkpt lat="46.22201" lon="7.02776"><ele>602</ele><time>2017-06-15T08:55:11Z</time></trkpt>
<trkpt lat="46.222" lon="7.02777"><ele>602.4</ele><time>2017-06-15T08:55:13Z</time></trkpt>
<trkpt lat="46.22189" lon="7.02787"><ele>605.6</ele><time>2017-06-15T08:55:16Z</time></trkpt>
<trkpt lat="46.22189" lon="7.02787"><ele>605.6</ele><time>2017-06-15T08:55:47Z</time></trkpt>
<trkpt lat="46.22179" lon="7.02795"><ele>608.4</ele><time>2017-06-15T08:55:49Z</time></trkpt>
<trkpt lat="46.22178" lon="7.02796"><ele>608.6</ele><time>2017-06-15T08:55:51Z</time></trkpt>
<trkpt lat="46.22177" lon="7.02797"><ele>609</ele><time>2017-06-15T08:55:53Z</time></trkpt>
<trkpt lat="46.22176" lon="7.02798"><ele>609.4</ele><time>2017-06-15T08:55:55Z</time></trkpt>
<trkpt lat="46.22175" lon="7.02799"><ele>609.6</ele><time>2017-06-15T08:55:56Z</time></trkpt>
<trkpt lat="46.22175" lon="7.02799"><ele>609.8</ele><time>2017-06-15T08:55:57Z</time></trkpt>
<trkpt lat="46.22173" lon="7.028"><ele>610.2</ele><time>2017-06-15T08:55:59Z</time></trkpt>
<trkpt lat="46.22172" lon="7.02801"><ele>610.6</ele><time>2017-06-15T08:56:01Z</time></trkpt>
<trkpt lat="46.22171" lon="7.02802"><ele>611</ele><time>2017-06-15T08:56:03Z</time></trkpt>
<trkpt lat="46.2217" lon="7.02803"><ele>611.2</ele><time>2017-06-15T08:56:05Z</time></trkpt>
<trkpt lat="46.22169" lon="7.02804"><ele>611.6</ele><time>2017-06-15T08:56:07Z</time></trkpt>
<trkpt lat="46.22168" lon="7.02805"><ele>612</ele><time>2017-06-15T08:56:09Z</time></trkpt>
<trkpt lat="46.22167" lon="7.02806"><ele>612.4</ele><time>2017-06-15T08:56:11Z</time></trkpt>
<trkpt lat="46.22166" lon="7.02807"><ele>612.8</ele><time>2017-06-15T08:56:13Z</time></trkpt>
<trkpt lat="46.22164" lon="7.02808"><ele>613</ele><time>2017-06-15T08:56:15Z</time></trkpt>
<trkpt lat="46.22163" lon="7.02809"><ele>613.4</ele><time>2017-06-15T08:56:17Z</time></trkpt>
<trkpt lat="46.22162" lon="7.0281"><ele>613.8</ele><time>2017-06-15T08:56:19Z</time></trkpt>
<trkpt lat="46.22161" lon="7.02811"><ele>614</ele><time>2017-06-15T08:56:21Z</time></trkpt>
<trkpt lat="46.2216" lon="7.02812"><ele>614.4</ele><time>2017-06-15T08:56:23Z</time></trkpt>
<trkpt lat="46.22159" lon="7.02813"><ele>614.6</ele><time>2017-06-15T08:56:25Z</time></trkpt>
<trkpt lat="46.22158" lon="7.02814"><ele>615</ele><time>2017-06-15T08:56:27Z</time></trkpt>
<trkpt lat="46.22156" lon="7.02815"><ele>615.4</ele><time>2017-06-15T08:56:29Z</time></trkpt>
<trkpt lat="46.22153" lon="7.02818"><ele>616.2</ele><time>2017-06-15T08:56:35Z</time></trkpt>
<trkpt lat="46.22152" lon="7.02817"><ele>616.2</ele><time>2017-06-15T08:56:36Z</time></trkpt>
<trkpt lat="46.22133" lon="7.02793"><ele>615.8</ele><time>2017-06-15T08:56:46Z</time></trkpt>
<trkpt lat="46.22129" lon="7.02787"><ele>615</ele><time>2017-06-15T08:56:48Z</time></trkpt>
<trkpt lat="46.22116" lon="7.02767"><ele>614</ele><time>2017-06-15T08:56:51Z</time></trkpt>
<trkpt lat="46.22108" lon="7.02754"><ele>613.4</ele><time>2017-06-15T08:56:53Z</time></trkpt>
<trkpt lat="46.22104" lon="7.02746"><ele>613</ele><time>2017-06-15T08:56:54Z</time></trkpt>
<trkpt lat="46.22101" lon="7.02737"><ele>612.8</ele><time>2017-06-15T08:56:55Z</time></trkpt>
<trkpt lat="46.22095" lon="7.02718"><ele>612</ele><time>2017-06-15T08:56:57Z</time></trkpt>
<trkpt lat="46.22093" lon="7.02708"><ele>611.6</ele><time>2017-06-15T08:56:58Z</time></trkpt>
<trkpt lat="46.2209" lon="7.02698"><ele>611.2</ele><time>2017-06-15T08:56:59Z</time></trkpt>
<trkpt lat="46.22086" lon="7.02679"><ele>610</ele><time>2017-06-15T08:57:01Z</time></trkpt>
<trkpt lat="46.22083" lon="7.0267"><ele>609.6</ele><time>2017-06-15T08:57:02Z</time></trkpt>
<trkpt lat="46.2208" lon="7.02662"><ele>609</ele><time>2017-06-15T08:57:03Z</time></trkpt>
<trkpt lat="46.22072" lon="7.02647"><ele>607.8</ele><time>2017-06-15T08:57:05Z</time></trkpt>
<trkpt lat="46.22064" lon="7.02631"><ele>606.4</ele><time>2017-06-15T08:57:07Z</time></trkpt>
<trkpt lat="46.22059" lon="7.02623"><ele>605.8</ele><time>2017-06-15T08:57:08Z</time></trkpt>
<trkpt lat="46.22054" lon="7.02617"><ele>605.4</ele><time>2017-06-15T08:57:09Z</time></trkpt>
<trkpt lat="46.22042" lon="7.02603"><ele>604.2</ele><time>2017-06-15T08:57:11Z</time></trkpt>
<trkpt lat="46.2203" lon="7.02589"><ele>603.2</ele><time>2017-06-15T08:57:13Z</time></trkpt>
<trkpt lat="46.22017" lon="7.02575"><ele>602.2</ele><time>2017-06-15T08:57:15Z</time></trkpt>
<trkpt lat="46.22003" lon="7.02561"><ele>601</ele><time>2017-06-15T08:57:17Z</time></trkpt>
<trkpt lat="46.21995" lon="7.02555"><ele>600.4</ele><time>2017-06-15T08:57:18Z</time></trkpt>
<trkpt lat="46.21987" lon="7.0255"><ele>599.6</ele><time>2017-06-15T08:57:19Z</time></trkpt>
<trkpt lat="46.2198" lon="7.02545"><ele>599</ele><time>2017-06-15T08:57:20Z</time></trkpt>
<trkpt lat="46.21975" lon="7.02541"><ele>598.2</ele><time>2017-06-15T08:57:21Z</time></trkpt>
<trkpt lat="46.21964" lon="7.02532"><ele>596.6</ele><time>2017-06-15T08:57:23Z</time></trkpt>
<trkpt lat="46.21958" lon="7.02526"><ele>596</ele><time>2017-06-15T08:57:24Z</time></trkpt>
<trkpt lat="46.21953" lon="7.02519"><ele>595.6</ele><time>2017-06-15T08:57:25Z</time></trkpt>
<trkpt lat="46.21949" lon="7.02511"><ele>595.4</ele><time>2017-06-15T08:57:26Z</time></trkpt>
<trkpt lat="46.21947" lon="7.025"><ele>595</ele><time>2017-06-15T08:57:27Z</time></trkpt>
<trkpt lat="46.21941" lon="7.02479"><ele>594.4</ele><time>2017-06-15T08:57:29Z</time></trkpt>
<trkpt lat="46.21935" lon="7.02458"><ele>593.6</ele><time>2017-06-15T08:57:31Z</time></trkpt>
<trkpt lat="46.21932" lon="7.02449"><ele>593.4</ele><time>2017-06-15T08:57:32Z</time></trkpt>
<trkpt lat="46.21927" lon="7.02441"><ele>593</ele><time>2017-06-15T08:57:33Z</time></trkpt>
<trkpt lat="46.21921" lon="7.02435"><ele>592.6</ele><time>2017-06-15T08:57:34Z</time></trkpt>
<trkpt lat="46.21914" lon="7.02432"><ele>592.2</ele><time>2017-06-15T08:57:35Z</time></trkpt>
<trkpt lat="46.21901" lon="7.02418"><ele>591</ele><time>2017-06-15T08:57:37Z</time></trkpt>
<trkpt lat="46.21889" lon="7.02405"><ele>590</ele><time>2017-06-15T08:57:39Z</time></trkpt>
<trkpt lat="46.21878" lon="7.02391"><ele>588.8</ele><time>2017-06-15T08:57:41Z</time></trkpt>
<trkpt lat="46.2187" lon="7.02379"><ele>587.4</ele><time>2017-06-15T08:57:43Z</time></trkpt>
<trkpt lat="46.21862" lon="7.02369"><ele>586.2</ele><time>2017-06-15T08:57:45Z</time></trkpt>
<trkpt lat="46.21857" lon="7.02366"><ele>585.6</ele><time>2017-06-15T08:57:46Z</time></trkpt>
<trkpt lat="46.21854" lon="7.02358"><ele>585</ele><time>2017-06-15T08:57:47Z</time></trkpt>
<trkpt lat="46.21846" lon="7.02342"><ele>584</ele><time>2017-06-15T08:57:49Z</time></trkpt>
<trkpt lat="46.21838" lon="7.02326"><ele>583</ele><time>2017-06-15T08:57:51Z</time></trkpt>
<trkpt lat="46.2183" lon="7.0231"><ele>582</ele><time>2017-06-15T08:57:53Z</time></trkpt>
<trkpt lat="46.21821" lon="7.0229"><ele>581</ele><time>2017-06-15T08:57:55Z</time></trkpt>
<trkpt lat="46.21806" lon="7.02269"><ele>579.8</ele><time>2017-06-15T08:57:57Z</time></trkpt>
<trkpt lat="46.21792" lon="7.02249"><ele>578.6</ele><time>2017-06-15T08:57:59Z</time></trkpt>
<trkpt lat="46.21785" lon="7.02238"><ele>577.6</ele><time>2017-06-15T08:58:00Z</time></trkpt>
<trkpt lat="46.21778" lon="7.02226"><ele>576.6</ele><time>2017-06-15T08:58:01Z</time></trkpt>
<trkpt lat="46.21773" lon="7.02213"><ele>575.4</ele><time>2017-06-15T08:58:02Z</time></trkpt>
<trkpt lat="46.21772" lon="7.022"><ele>574.4</ele><time>2017-06-15T08:58:03Z</time></trkpt>
<trkpt lat="46.21769" lon="7.02175"><ele>572.2</ele><time>2017-06-15T08:58:05Z</time></trkpt>
<trkpt lat="46.21771" lon="7.02152"><ele>570.8</ele><time>2017-06-15T08:58:07Z</time></trkpt>
<trkpt lat="46.21772" lon="7.02129"><ele>569.4</ele><time>2017-06-15T08:58:09Z</time></trkpt>
<trkpt lat="46.21772" lon="7.02119"><ele>568.8</ele><time>2017-06-15T08:58:10Z</time></trkpt>
<trkpt lat="46.21769" lon="7.02109"><ele>568</ele><time>2017-06-15T08:58:11Z</time></trkpt>
<trkpt lat="46.21762" lon="7.02091"><ele>566.4</ele><time>2017-06-15T08:58:13Z</time></trkpt>
<trkpt lat="46.21755" lon="7.02073"><ele>564.8</ele><time>2017-06-15T08:58:15Z</time></trkpt>
<trkpt lat="46.2175" lon="7.02067"><ele>564.2</ele><time>2017-06-15T08:58:16Z</time></trkpt>
<trkpt lat="46.21745" lon="7.02062"><ele>563.6</ele><time>2017-06-15T08:58:17Z</time></trkpt>
<trkpt lat="46.21734" lon="7.02051"><ele>562.6</ele><time>2017-06-15T08:58:19Z</time></trkpt>
<trkpt lat="46.21724" lon="7.02039"><ele>561.6</ele><time>2017-06-15T08:58:21Z</time></trkpt>
<trkpt lat="46.21719" lon="7.02035"><ele>561</ele><time>2017-06-15T08:58:22Z</time></trkpt>
<trkpt lat="46.21712" lon="7.02032"><ele>560</ele><time>2017-06-15T08:58:23Z</time></trkpt>
<trkpt lat="46.21699" lon="7.02026"><ele>558.2</ele><time>2017-06-15T08:58:25Z</time></trkpt>
<trkpt lat="46.21687" lon="7.02023"><ele>556.4</ele><time>2017-06-15T08:58:27Z</time></trkpt>
<trkpt lat="46.21666" lon="7.02028"><ele>554.4</ele><time>2017-06-15T08:58:30Z</time></trkpt>
<trkpt lat="46.21649" lon="7.02022"><ele>553.2</ele><time>2017-06-15T08:58:32Z</time></trkpt>
<trkpt lat="46.21644" lon="7.02014"><ele>552.4</ele><time>2017-06-15T08:58:33Z</time></trkpt>
<trkpt lat="46.21635" lon="7.01998"><ele>551.2</ele><time>2017-06-15T08:58:35Z</time></trkpt>
<trkpt lat="46.21625" lon="7.01977"><ele>549.2</ele><time>2017-06-15T08:58:38Z</time></trkpt>
<trkpt lat="46.21618" lon="7.01965"><ele>548</ele><time>2017-06-15T08:58:40Z</time></trkpt>
<trkpt lat="46.2161" lon="7.01966"><ele>545.6</ele><time>2017-06-15T08:58:44Z</time></trkpt>
<trkpt lat="46.21608" lon="7.01966"><ele>545.8</ele><time>2017-06-15T08:58:45Z</time></trkpt>
<trkpt lat="46.21604" lon="7.01966"><ele>546</ele><time>2017-06-15T08:58:47Z</time></trkpt>
<trkpt lat="46.21599" lon="7.01967"><ele>546.4</ele><time>2017-06-15T08:58:49Z</time></trkpt>
<trkpt lat="46.21595" lon="7.01967"><ele>546.6</ele><time>2017-06-15T08:58:51Z</time></trkpt>
<trkpt lat="46.21591" lon="7.01968"><ele>547</ele><time>2017-06-15T08:58:53Z</time></trkpt>
<trkpt lat="46.21586" lon="7.01968"><ele>547.2</ele><time>2017-06-15T08:58:55Z</time></trkpt>
<trkpt lat="46.21582" lon="7.01969"><ele>547.6</ele><time>2017-06-15T08:58:57Z</time></trkpt>
<trkpt lat="46.21578" lon="7.01969"><ele>547.8</ele><time>2017-06-15T08:58:59Z</time></trkpt>
<trkpt lat="46.21574" lon="7.0197"><ele>548.2</ele><time>2017-06-15T08:59:01Z</time></trkpt>
<trkpt lat="46.2157" lon="7.01969"><ele>548.4</ele><time>2017-06-15T08:59:03Z</time></trkpt>
<trkpt lat="46.21565" lon="7.01969"><ele>548.6</ele><time>2017-06-15T08:59:05Z</time></trkpt>
<trkpt lat="46.21563" lon="7.01968"><ele>548.6</ele><time>2017-06-15T08:59:06Z</time></trkpt>
<trkpt lat="46.21561" lon="7.01968"><ele>548.8</ele><time>2017-06-15T08:59:07Z</time></trkpt>
<trkpt lat="46.21557" lon="7.01967"><ele>549.2</ele><time>2017-06-15T08:59:09Z</time></trkpt>
<trkpt lat="46.21553" lon="7.01967"><ele>549.4</ele><time>2017-06-15T08:59:11Z</time></trkpt>
<trkpt lat="46.21549" lon="7.01966"><ele>549.8</ele><time>2017-06-15T08:59:13Z</time></trkpt>
<trkpt lat="46.21545" lon="7.01966"><ele>550</ele><time>2017-06-15T08:59:15Z</time></trkpt>
<trkpt lat="46.21541" lon="7.01965"><ele>550.4</ele><time>2017-06-15T08:59:17Z</time></trkpt>
<trkpt lat="46.21537" lon="7.01965"><ele>550.6</ele><time>2017-06-15T08:59:19Z</time></trkpt>
<trkpt lat="46.21533" lon="7.01964"><ele>551</ele><time>2017-06-15T08:59:21Z</time></trkpt>
<trkpt lat="46.21529" lon="7.01963"><ele>551.4</ele><time>2017-06-15T08:59:23Z</time></trkpt>
<trkpt lat="46.21525" lon="7.01963"><ele>551.6</ele><time>2017-06-15T08:59:25Z</time></trkpt>
<trkpt lat="46.21521" lon="7.01963"><ele>552</ele><time>2017-06-15T08:59:27Z</time></trkpt>
<trkpt lat="46.21519" lon="7.01963"><ele>552</ele><time>2017-06-15T08:59:28Z</time></trkpt>
<trkpt lat="46.21517" lon="7.01962"><ele>552.2</ele><time>2017-06-15T08:59:29Z</time></trkpt>
<trkpt lat="46.21513" lon="7.01962"><ele>552.4</ele><time>2017-06-15T08:59:31Z</time></trkpt>
<trkpt lat="46.21509" lon="7.01962"><ele>552.4</ele><time>2017-06-15T08:59:33Z</time></trkpt>
<trkpt lat="46.21505" lon="7.01961"><ele>552.6</ele><time>2017-06-15T08:59:35Z</time></trkpt>
<trkpt lat="46.21501" lon="7.01961"><ele>552.8</ele><time>2017-06-15T08:59:37Z</time></trkpt>
<trkpt lat="46.21497" lon="7.01961"><ele>553</ele><time>2017-06-15T08:59:39Z</time></trkpt>
<trkpt lat="46.21495" lon="7.01961"><ele>553</ele><time>2017-06-15T08:59:40Z</time></trkpt>
<trkpt lat="46.21493" lon="7.0196"><ele>552.6</ele><time>2017-06-15T08:59:41Z</time></trkpt>
<trkpt lat="46.21489" lon="7.0196"><ele>552</ele><time>2017-06-15T08:59:43Z</time></trkpt>
<trkpt lat="46.21484" lon="7.0196"><ele>551.6</ele><time>2017-06-15T08:59:45Z</time></trkpt>
<trkpt lat="46.21481" lon="7.01958"><ele>551.2</ele><time>2017-06-15T08:59:46Z</time></trkpt>
<trkpt lat="46.21473" lon="7.01952"><ele>551</ele><time>2017-06-15T08:59:47Z</time></trkpt>
<trkpt lat="46.21457" lon="7.01941"><ele>550.4</ele><time>2017-06-15T08:59:49Z</time></trkpt>
<trkpt lat="46.21442" lon="7.0193"><ele>549.8</ele><time>2017-06-15T08:59:51Z</time></trkpt>
<trkpt lat="46.21434" lon="7.01925"><ele>549.4</ele><time>2017-06-15T08:59:52Z</time></trkpt>
<trkpt lat="46.21428" lon="7.01919"><ele>549</ele><time>2017-06-15T08:59:53Z</time></trkpt>
<trkpt lat="46.21414" lon="7.01908"><ele>548.2</ele><time>2017-06-15T08:59:55Z</time></trkpt>
<trkpt lat="46.21408" lon="7.01903"><ele>548</ele><time>2017-06-15T08:59:56Z</time></trkpt>
<trkpt lat="46.21401" lon="7.01897"><ele>548</ele><time>2017-06-15T08:59:57Z</time></trkpt>
<trkpt lat="46.21395" lon="7.01892"><ele>548</ele><time>2017-06-15T08:59:58Z</time></trkpt>
<trkpt lat="46.21389" lon="7.0189"><ele>548</ele><time>2017-06-15T08:59:59Z</time></trkpt>
<trkpt lat="46.21379" lon="7.01886"><ele>548</ele><time>2017-06-15T09:00:01Z</time></trkpt>
<trkpt lat="46.21375" lon="7.0188"><ele>548.2</ele><time>2017-06-15T09:00:03Z</time></trkpt>
<trkpt lat="46.21372" lon="7.01875"><ele>548.2</ele><time>2017-06-15T09:00:05Z</time></trkpt>
<trkpt lat="46.2137" lon="7.01872"><ele>548.4</ele><time>2017-06-15T09:00:06Z</time></trkpt>
<trkpt lat="46.21369" lon="7.01869"><ele>548.6</ele><time>2017-06-15T09:00:07Z</time></trkpt>
<trkpt lat="46.21365" lon="7.01864"><ele>549</ele><time>2017-06-15T09:00:09Z</time></trkpt>
<trkpt lat="46.21362" lon="7.01859"><ele>549.6</ele><time>2017-06-15T09:00:11Z</time></trkpt>
<trkpt lat="46.2136" lon="7.01856"><ele>549.8</ele><time>2017-06-15T09:00:12Z</time></trkpt>
<trkpt lat="46.21359" lon="7.01853"><ele>550</ele><time>2017-06-15T09:00:13Z</time></trkpt>
<trkpt lat="46.21355" lon="7.01848"><ele>550.6</ele><time>2017-06-15T09:00:15Z</time></trkpt>
<trkpt lat="46.21352" lon="7.01842"><ele>551</ele><time>2017-06-15T09:00:17Z</time></trkpt>
<trkpt lat="46.21348" lon="7.01838"><ele>551.2</ele><time>2017-06-15T09:00:19Z</time></trkpt>
<trkpt lat="46.21344" lon="7.0184"><ele>551.2</ele><time>2017-06-15T09:00:21Z</time></trkpt>
<trkpt lat="46.2134" lon="7.01841"><ele>551.4</ele><time>2017-06-15T09:00:23Z</time></trkpt>
<trkpt lat="46.21327" lon="7.01847"><ele>551.8</ele><time>2017-06-15T09:00:29Z</time></trkpt>
<trkpt lat="46.21312" lon="7.01872"><ele>552.4</ele><time>2017-06-15T09:00:35Z</time></trkpt>
<trkpt lat="46.2129" lon="7.0188"><ele>552.4</ele><time>2017-06-15T09:00:39Z</time></trkpt>
<trkpt lat="46.21289" lon="7.01875"><ele>551.8</ele><time>2017-06-15T09:00:40Z</time></trkpt>
<trkpt lat="46.21298" lon="7.0184"><ele>549.6</ele><time>2017-06-15T09:00:44Z</time></trkpt>
<trkpt lat="46.21299" lon="7.01828"><ele>549</ele><time>2017-06-15T09:00:45Z</time></trkpt>
<trkpt lat="46.21297" lon="7.01815"><ele>548.2</ele><time>2017-06-15T09:00:46Z</time></trkpt>
<trkpt lat="46.21293" lon="7.01803"><ele>547.2</ele><time>2017-06-15T09:00:47Z</time></trkpt>
<trkpt lat="46.21284" lon="7.01778"><ele>545.6</ele><time>2017-06-15T09:00:49Z</time></trkpt>
<trkpt lat="46.21276" lon="7.01767"><ele>544.8</ele><time>2017-06-15T09:00:50Z</time></trkpt>
<trkpt lat="46.21267" lon="7.01756"><ele>543.8</ele><time>2017-06-15T09:00:51Z</time></trkpt>
<trkpt lat="46.21251" lon="7.01733"><ele>542</ele><time>2017-06-15T09:00:53Z</time></trkpt>
<trkpt lat="46.21237" lon="7.01704"><ele>540.2</ele><time>2017-06-15T09:00:55Z</time></trkpt>
<trkpt lat="46.2123" lon="7.01689"><ele>539.2</ele><time>2017-06-15T09:00:56Z</time></trkpt>
<trkpt lat="46.21223" lon="7.01674"><ele>538.2</ele><time>2017-06-15T09:00:57Z</time></trkpt>
<trkpt lat="46.21211" lon="7.01643"><ele>536.2</ele><time>2017-06-15T09:00:59Z</time></trkpt>
<trkpt lat="46.21199" lon="7.01613"><ele>534.2</ele><time>2017-06-15T09:01:01Z</time></trkpt>
<trkpt lat="46.21188" lon="7.01584"><ele>533.4</ele><time>2017-06-15T09:01:03Z</time></trkpt>
<trkpt lat="46.21183" lon="7.01569"><ele>532.8</ele><time>2017-06-15T09:01:04Z</time></trkpt>
<trkpt lat="46.21182" lon="7.01554"><ele>532.4</ele><time>2017-06-15T09:01:05Z</time></trkpt>
<trkpt lat="46.21187" lon="7.01542"><ele>531.8</ele><time>2017-06-15T09:01:06Z</time></trkpt>
<trkpt lat="46.21193" lon="7.01533"><ele>531.4</ele><time>2017-06-15T09:01:07Z</time></trkpt>
<trkpt lat="46.212" lon="7.01526"><ele>530.8</ele><time>2017-06-15T09:01:08Z</time></trkpt>
<trkpt lat="46.21209" lon="7.01522"><ele>530.4</ele><time>2017-06-15T09:01:09Z</time></trkpt>
<trkpt lat="46.2122" lon="7.01523"><ele>530</ele><time>2017-06-15T09:01:10Z</time></trkpt>
<trkpt lat="46.2123" lon="7.01527"><ele>529.4</ele><time>2017-06-15T09:01:11Z</time></trkpt>
<trkpt lat="46.21239" lon="7.0153"><ele>528.8</ele><time>2017-06-15T09:01:12Z</time></trkpt>
<trkpt lat="46.2125" lon="7.01532"><ele>527.6</ele><time>2017-06-15T09:01:13Z</time></trkpt>
<trkpt lat="46.21279" lon="7.01531"><ele>525.4</ele><time>2017-06-15T09:01:15Z</time></trkpt>
<trkpt lat="46.21305" lon="7.01516"><ele>523</ele><time>2017-06-15T09:01:17Z</time></trkpt>
<trkpt lat="46.21332" lon="7.01502"><ele>519.8</ele><time>2017-06-15T09:01:19Z</time></trkpt>
<trkpt lat="46.2136" lon="7.01489"><ele>516.4</ele><time>2017-06-15T09:01:21Z</time></trkpt>
<trkpt lat="46.21388" lon="7.01477"><ele>513.2</ele><time>2017-06-15T09:01:23Z</time></trkpt>
<trkpt lat="46.21414" lon="7.01469"><ele>511.4</ele><time>2017-06-15T09:01:25Z</time></trkpt>
<trkpt lat="46.21439" lon="7.0146"><ele>509.4</ele><time>2017-06-15T09:01:27Z</time></trkpt>
<trkpt lat="46.21464" lon="7.01451"><ele>507.6</ele><time>2017-06-15T09:01:29Z</time></trkpt>
<trkpt lat="46.21473" lon="7.01443"><ele>506.6</ele><time>2017-06-15T09:01:30Z</time></trkpt>
<trkpt lat="46.21479" lon="7.01432"><ele>505.8</ele><time>2017-06-15T09:01:31Z</time></trkpt>
<trkpt lat="46.21483" lon="7.01419"><ele>505</ele><time>2017-06-15T09:01:32Z</time></trkpt>
<trkpt lat="46.21485" lon="7.01404"><ele>504</ele><time>2017-06-15T09:01:33Z</time></trkpt>
<trkpt lat="46.21484" lon="7.01391"><ele>503.2</ele><time>2017-06-15T09:01:34Z</time></trkpt>
<trkpt lat="46.21475" lon="7.01381"><ele>502.2</ele><time>2017-06-15T09:01:35Z</time></trkpt>
<trkpt lat="46.21459" lon="7.01362"><ele>500.2</ele><time>2017-06-15T09:01:37Z</time></trkpt>
<trkpt lat="46.2145" lon="7.01353"><ele>499.2</ele><time>2017-06-15T09:01:38Z</time></trkpt>
<trkpt lat="46.21439" lon="7.01348"><ele>498.2</ele><time>2017-06-15T09:01:39Z</time></trkpt>
<trkpt lat="46.21417" lon="7.01337"><ele>496.2</ele><time>2017-06-15T09:01:41Z</time></trkpt>
<trkpt lat="46.21406" lon="7.01333"><ele>495.2</ele><time>2017-06-15T09:01:42Z</time></trkpt>
<trkpt lat="46.21393" lon="7.01331"><ele>494.2</ele><time>2017-06-15T09:01:43Z</time></trkpt>
<trkpt lat="46.21379" lon="7.01329"><ele>492.8</ele><time>2017-06-15T09:01:44Z</time></trkpt>
<trkpt lat="46.21366" lon="7.01329"><ele>491.2</ele><time>2017-06-15T09:01:45Z</time></trkpt>
<trkpt lat="46.21351" lon="7.01334"><ele>489.6</ele><time>2017-06-15T09:01:46Z</time></trkpt>
<trkpt lat="46.21338" lon="7.01332"><ele>488</ele><time>2017-06-15T09:01:47Z</time></trkpt>
<trkpt lat="46.21311" lon="7.01332"><ele>484.6</ele><time>2017-06-15T09:01:49Z</time></trkpt>
<trkpt lat="46.213" lon="7.01338"><ele>483</ele><time>2017-06-15T09:01:50Z</time></trkpt>
<trkpt lat="46.21289" lon="7.01344"><ele>481.2</ele><time>2017-06-15T09:01:51Z</time></trkpt>
<trkpt lat="46.21267" lon="7.01366"><ele>477.8</ele><time>2017-06-15T09:01:53Z</time></trkpt>
<trkpt lat="46.21259" lon="7.01385"><ele>476</ele><time>2017-06-15T09:01:54Z</time></trkpt>
<trkpt lat="46.21249" lon="7.01396"><ele>474.2</ele><time>2017-06-15T09:01:55Z</time></trkpt>
<trkpt lat="46.21238" lon="7.01405"><ele>472.2</ele><time>2017-06-15T09:01:56Z</time></trkpt>
<trkpt lat="46.21226" lon="7.01408"><ele>470</ele><time>2017-06-15T09:01:57Z</time></trkpt>
<trkpt lat="46.21201" lon="7.01415"><ele>466</ele><time>2017-06-15T09:01:59Z</time></trkpt>
<trkpt lat="46.21186" lon="7.01414"><ele>463.8</ele><time>2017-06-15T09:02:00Z</time></trkpt>
<trkpt lat="46.21173" lon="7.0141"><ele>461.8</ele><time>2017-06-15T09:02:01Z</time></trkpt>
<trkpt lat="46.21146" lon="7.01401"><ele>457.8</ele><time>2017-06-15T09:02:03Z</time></trkpt>
<trkpt lat="46.21133" lon="7.014"><ele>455.8</ele><time>2017-06-15T09:02:04Z</time></trkpt>
<trkpt lat="46.21121" lon="7.01406"><ele>454</ele><time>2017-06-15T09:02:05Z</time></trkpt>
<trkpt lat="46.21097" lon="7.01418"><ele>450</ele><time>2017-06-15T09:02:07Z</time></trkpt>
<trkpt lat="46.21072" lon="7.01434"><ele>446.2</ele><time>2017-06-15T09:02:09Z</time></trkpt>
<trkpt lat="46.2104" lon="7.01445"><ele>442.6</ele><time>2017-06-15T09:02:11Z</time></trkpt>
<trkpt lat="46.21024" lon="7.0145"><ele>440.6</ele><time>2017-06-15T09:02:12Z</time></trkpt>
<trkpt lat="46.21006" lon="7.01449"><ele>438</ele><time>2017-06-15T09:02:13Z</time></trkpt>
<trkpt lat="46.2099" lon="7.01441"><ele>435.6</ele><time>2017-06-15T09:02:14Z</time></trkpt>
<trkpt lat="46.20975" lon="7.01436"><ele>433.2</ele><time>2017-06-15T09:02:15Z</time></trkpt>
<trkpt lat="46.20965" lon="7.01427"><ele>430.6</ele><time>2017-06-15T09:02:16Z</time></trkpt>
<trkpt lat="46.2096" lon="7.0142"><ele>428.6</ele><time>2017-06-15T09:02:17Z</time></trkpt>
<trkpt lat="46.20949" lon="7.0141"><ele>425.6</ele><time>2017-06-15T09:02:19Z</time></trkpt>
<trkpt lat="46.20934" lon="7.01416"><ele>421.8</ele><time>2017-06-15T09:02:22Z</time></trkpt>
<trkpt lat="46.20925" lon="7.0142"><ele>421.6</ele><time>2017-06-15T09:02:24Z</time></trkpt>
<trkpt lat="46.2088" lon="7.01446"><ele>421.2</ele><time>2017-06-15T09:02:33Z</time></trkpt>
<trkpt lat="46.20855" lon="7.01462"><ele>421</ele><time>2017-06-15T09:02:39Z</time></trkpt>
<trkpt lat="46.20846" lon="7.01467"><ele>421</ele><time>2017-06-15T09:02:41Z</time></trkpt>
<trkpt lat="46.20838" lon="7.01473"><ele>420.8</ele><time>2017-06-15T09:02:43Z</time></trkpt>
<trkpt lat="46.20834" lon="7.01475"><ele>420.8</ele><time>2017-06-15T09:02:44Z</time></trkpt>
<trkpt lat="46.20829" lon="7.01478"><ele>421</ele><time>2017-06-15T09:02:45Z</time></trkpt>
<trkpt lat="46.20821" lon="7.01484"><ele>421</ele><time>2017-06-15T09:02:47Z</time></trkpt>
<trkpt lat="46.20813" lon="7.0149"><ele>421</ele><time>2017-06-15T09:02:49Z</time></trkpt>
<trkpt lat="46.20804" lon="7.01496"><ele>421</ele><time>2017-06-15T09:02:51Z</time></trkpt>
<trkpt lat="46.20796" lon="7.01501"><ele>421.2</ele><time>2017-06-15T09:02:53Z</time></trkpt>
<trkpt lat="46.20788" lon="7.01506"><ele>421.2</ele><time>2017-06-15T09:02:55Z</time></trkpt>
<trkpt lat="46.20779" lon="7.0151"><ele>421.2</ele><time>2017-06-15T09:02:57Z</time></trkpt>
<trkpt lat="46.20771" lon="7.01515"><ele>421.4</ele><time>2017-06-15T09:02:59Z</time></trkpt>
<trkpt lat="46.20763" lon="7.0152"><ele>421.4</ele><time>2017-06-15T09:03:01Z</time></trkpt>
<trkpt lat="46.20755" lon="7.01524"><ele>421.4</ele><time>2017-06-15T09:03:03Z</time></trkpt>
<trkpt lat="46.20751" lon="7.01527"><ele>421.4</ele><time>2017-06-15T09:03:04Z</time></trkpt>
<trkpt lat="46.20747" lon="7.0153"><ele>421.6</ele><time>2017-06-15T09:03:05Z</time></trkpt>
<trkpt lat="46.2074" lon="7.01537"><ele>421.6</ele><time>2017-06-15T09:03:07Z</time></trkpt>
<trkpt lat="46.20732" lon="7.01543"><ele>421.6</ele><time>2017-06-15T09:03:09Z</time></trkpt>
<trkpt lat="46.20725" lon="7.0155"><ele>421.6</ele><time>2017-06-15T09:03:11Z</time></trkpt>
<trkpt lat="46.20721" lon="7.01553"><ele>421.8</ele><time>2017-06-15T09:03:12Z</time></trkpt>
<trkpt lat="46.20717" lon="7.01555"><ele>421.8</ele><time>2017-06-15T09:03:13Z</time></trkpt>
<trkpt lat="46.20709" lon="7.01559"><ele>421.8</ele><time>2017-06-15T09:03:15Z</time></trkpt>
<trkpt lat="46.20701" lon="7.01564"><ele>421.8</ele><time>2017-06-15T09:03:17Z</time></trkpt>
<trkpt lat="46.20693" lon="7.01568"><ele>422</ele><time>2017-06-15T09:03:19Z</time></trkpt>
<trkpt lat="46.20684" lon="7.01572"><ele>422</ele><time>2017-06-15T09:03:21Z</time></trkpt>
<trkpt lat="46.20676" lon="7.01577"><ele>422</ele><time>2017-06-15T09:03:23Z</time></trkpt>
<trkpt lat="46.20669" lon="7.01582"><ele>422.2</ele><time>2017-06-15T09:03:25Z</time></trkpt>
<trkpt lat="46.20661" lon="7.01588"><ele>422.2</ele><time>2017-06-15T09:03:27Z</time></trkpt>
<trkpt lat="46.20653" lon="7.01593"><ele>422.2</ele><time>2017-06-15T09:03:29Z</time></trkpt>
<trkpt lat="46.20646" lon="7.01599"><ele>422.4</ele><time>2017-06-15T09:03:31Z</time></trkpt>
<trkpt lat="46.20638" lon="7.01604"><ele>422.4</ele><time>2017-06-15T09:03:33Z</time></trkpt>
<trkpt lat="46.20634" lon="7.01607"><ele>422.4</ele><time>2017-06-15T09:03:34Z</time></trkpt>
<trkpt lat="46.2063" lon="7.0161"><ele>422.4</ele><time>2017-06-15T09:03:35Z</time></trkpt>
<trkpt lat="46.20621" lon="7.01616"><ele>422.4</ele><time>2017-06-15T09:03:37Z</time></trkpt>
<trkpt lat="46.20613" lon="7.01621"><ele>422.6</ele><time>2017-06-15T09:03:39Z</time></trkpt>
<trkpt lat="46.20605" lon="7.01627"><ele>422.6</ele><time>2017-06-15T09:03:41Z</time></trkpt>
<trkpt lat="46.20596" lon="7.01633"><ele>422.6</ele><time>2017-06-15T09:03:43Z</time></trkpt>
<trkpt lat="46.20592" lon="7.01636"><ele>422.8</ele><time>2017-06-15T09:03:44Z</time></trkpt>
<trkpt lat="46.20588" lon="7.01639"><ele>422.8</ele><time>2017-06-15T09:03:45Z</time></trkpt>
<trkpt lat="46.20579" lon="7.01645"><ele>422.8</ele><time>2017-06-15T09:03:47Z</time></trkpt>
<trkpt lat="46.20571" lon="7.0165"><ele>422.8</ele><time>2017-06-15T09:03:49Z</time></trkpt>
<trkpt lat="46.20562" lon="7.01656"><ele>423</ele><time>2017-06-15T09:03:51Z</time></trkpt>
<trkpt lat="46.20553" lon="7.01662"><ele>423</ele><time>2017-06-15T09:03:53Z</time></trkpt>
<trkpt lat="46.20549" lon="7.01666"><ele>423</ele><time>2017-06-15T09:03:54Z</time></trkpt>
<trkpt lat="46.20546" lon="7.0167"><ele>423</ele><time>2017-06-15T09:03:55Z</time></trkpt>
<trkpt lat="46.20539" lon="7.01678"><ele>423.2</ele><time>2017-06-15T09:03:57Z</time></trkpt>
<trkpt lat="46.20532" lon="7.01686"><ele>423.2</ele><time>2017-06-15T09:03:59Z</time></trkpt>
<trkpt lat="46.20526" lon="7.01694"><ele>423.2</ele><time>2017-06-15T09:04:01Z</time></trkpt>
<trkpt lat="46.20523" lon="7.01698"><ele>423.2</ele><time>2017-06-15T09:04:02Z</time></trkpt>
<trkpt lat="46.20521" lon="7.01703"><ele>423.2</ele><time>2017-06-15T09:04:03Z</time></trkpt>
<trkpt lat="46.20519" lon="7.01713"><ele>423.4</ele><time>2017-06-15T09:04:05Z</time></trkpt>
<trkpt lat="46.20495" lon="7.01719"><ele>424.4</ele><time>2017-06-15T09:04:07Z</time></trkpt>
<trkpt lat="46.20495" lon="7.01719"><ele>424.4</ele><time>2017-06-15T09:05:06Z</time></trkpt>
<trkpt lat="46.20475" lon="7.01715"><ele>425.6</ele><time>2017-06-15T09:05:07Z</time></trkpt>
<trkpt lat="46.20473" lon="7.01714"><ele>425.6</ele><time>2017-06-15T09:05:09Z</time></trkpt>
<trkpt lat="46.20472" lon="7.01713"><ele>425.6</ele><time>2017-06-15T09:05:11Z</time></trkpt>
<trkpt lat="46.20471" lon="7.01712"><ele>425.8</ele><time>2017-06-15T09:05:13Z</time></trkpt>
<trkpt lat="46.20469" lon="7.0171"><ele>425.8</ele><time>2017-06-15T09:05:15Z</time></trkpt>
<trkpt lat="46.20463" lon="7.01705"><ele>426</ele><time>2017-06-15T09:05:17Z</time></trkpt>
<trkpt lat="46.20457" lon="7.017"><ele>426</ele><time>2017-06-15T09:05:19Z</time></trkpt>
<trkpt lat="46.20451" lon="7.01694"><ele>426</ele><time>2017-06-15T09:05:21Z</time></trkpt>
<trkpt lat="46.20445" lon="7.01689"><ele>426.2</ele><time>2017-06-15T09:05:23Z</time></trkpt>
<trkpt lat="46.20439" lon="7.01684"><ele>426.2</ele><time>2017-06-15T09:05:25Z</time></trkpt>
<trkpt lat="46.20433" lon="7.01678"><ele>426.4</ele><time>2017-06-15T09:05:27Z</time></trkpt>
<trkpt lat="46.2043" lon="7.01676"><ele>426.4</ele><time>2017-06-15T09:05:28Z</time></trkpt>
<trkpt lat="46.20427" lon="7.01672"><ele>426.4</ele><time>2017-06-15T09:05:29Z</time></trkpt>
<trkpt lat="46.2042" lon="7.01666"><ele>426.4</ele><time>2017-06-15T09:05:31Z</time></trkpt>
<trkpt lat="46.20413" lon="7.01659"><ele>426.6</ele><time>2017-06-15T09:05:33Z</time></trkpt>
<trkpt lat="46.20406" lon="7.01653"><ele>426.6</ele><time>2017-06-15T09:05:35Z</time></trkpt>
<trkpt lat="46.20399" lon="7.01647"><ele>426.6</ele><time>2017-06-15T09:05:37Z</time></trkpt>
<trkpt lat="46.20392" lon="7.0164"><ele>426.8</ele><time>2017-06-15T09:05:39Z</time></trkpt>
<trkpt lat="46.20385" lon="7.01635"><ele>426.8</ele><time>2017-06-15T09:05:41Z</time></trkpt>
<trkpt lat="46.20378" lon="7.01629"><ele>427</ele><time>2017-06-15T09:05:43Z</time></trkpt>
<trkpt lat="46.20371" lon="7.01623"><ele>427</ele><time>2017-06-15T09:05:45Z</time></trkpt>
<trkpt lat="46.20364" lon="7.01618"><ele>427</ele><time>2017-06-15T09:05:47Z</time></trkpt>
<trkpt lat="46.2036" lon="7.01615"><ele>427</ele><time>2017-06-15T09:05:48Z</time></trkpt>
<trkpt lat="46.20356" lon="7.01612"><ele>426.8</ele><time>2017-06-15T09:05:49Z</time></trkpt>
<trkpt lat="46.2035" lon="7.01606"><ele>426.6</ele><time>2017-06-15T09:05:51Z</time></trkpt>
<trkpt lat="46.20344" lon="7.01599"><ele>426.2</ele><time>2017-06-15T09:05:53Z</time></trkpt>
<trkpt lat="46.20338" lon="7.01591"><ele>425.8</ele><time>2017-06-15T09:05:55Z</time></trkpt>
<trkpt lat="46.20332" lon="7.01584"><ele>425.6</ele><time>2017-06-15T09:05:57Z</time></trkpt>
<trkpt lat="46.20326" lon="7.01577"><ele>425.2</ele><time>2017-06-15T09:05:59Z</time></trkpt>
<trkpt lat="46.2032" lon="7.01568"><ele>425</ele><time>2017-06-15T09:06:01Z</time></trkpt>
<trkpt lat="46.20316" lon="7.0155"><ele>424.6</ele><time>2017-06-15T09:06:03Z</time></trkpt>
<trkpt lat="46.20312" lon="7.01533"><ele>424.2</ele><time>2017-06-15T09:06:05Z</time></trkpt>
<trkpt lat="46.20308" lon="7.01516"><ele>424</ele><time>2017-06-15T09:06:07Z</time></trkpt>
<trkpt lat="46.20303" lon="7.01498"><ele>423.6</ele><time>2017-06-15T09:06:09Z</time></trkpt>
<trkpt lat="46.20299" lon="7.01473"><ele>423.4</ele><time>2017-06-15T09:06:11Z</time></trkpt>
<trkpt lat="46.20295" lon="7.01449"><ele>423</ele><time>2017-06-15T09:06:13Z</time></trkpt>
<trkpt lat="46.20291" lon="7.01425"><ele>422.6</ele><time>2017-06-15T09:06:15Z</time></trkpt>
<trkpt lat="46.20289" lon="7.01416"><ele>422.6</ele><time>2017-06-15T09:06:16Z</time></trkpt>
<trkpt lat="46.20286" lon="7.01406"><ele>422.8</ele><time>2017-06-15T09:06:17Z</time></trkpt>
<trkpt lat="46.20282" lon="7.01387"><ele>423.4</ele><time>2017-06-15T09:06:19Z</time></trkpt>
<trkpt lat="46.20278" lon="7.01367"><ele>423.8</ele><time>2017-06-15T09:06:21Z</time></trkpt>
<trkpt lat="46.20276" lon="7.01359"><ele>424</ele><time>2017-06-15T09:06:22Z</time></trkpt>
<trkpt lat="46.20274" lon="7.01353"><ele>424.2</ele><time>2017-06-15T09:06:23Z</time></trkpt>
<trkpt lat="46.20269" lon="7.01333"><ele>424.8</ele><time>2017-06-15T09:06:26Z</time></trkpt>
<trkpt lat="46.20269" lon="7.01326"><ele>425</ele><time>2017-06-15T09:06:27Z</time></trkpt>
<trkpt lat="46.20268" lon="7.01311"><ele>425.4</ele><time>2017-06-15T09:06:29Z</time></trkpt>
<trkpt lat="46.20267" lon="7.01305"><ele>425.6</ele><time>2017-06-15T09:06:30Z</time></trkpt>
<trkpt lat="46.20265" lon="7.01293"><ele>426</ele><time>2017-06-15T09:06:32Z</time></trkpt>
<trkpt lat="46.20253" lon="7.01264"><ele>426.8</ele><time>2017-06-15T09:06:37Z</time></trkpt>
<trkpt lat="46.20244" lon="7.01241"><ele>426.8</ele><time>2017-06-15T09:06:41Z</time></trkpt>
<trkpt lat="46.20242" lon="7.01235"><ele>426.8</ele><time>2017-06-15T09:06:42Z</time></trkpt>
<trkpt lat="46.2024" lon="7.01229"><ele>427</ele><time>2017-06-15T09:06:43Z</time></trkpt>
<trkpt lat="46.20235" lon="7.01215"><ele>427</ele><time>2017-06-15T09:06:45Z</time></trkpt>
<trkpt lat="46.20231" lon="7.01202"><ele>427</ele><time>2017-06-15T09:06:47Z</time></trkpt>
<trkpt lat="46.20229" lon="7.01195"><ele>427</ele><time>2017-06-15T09:06:48Z</time></trkpt>
<trkpt lat="46.20227" lon="7.01189"><ele>427</ele><time>2017-06-15T09:06:49Z</time></trkpt>
<trkpt lat="46.20222" lon="7.01176"><ele>427.2</ele><time>2017-06-15T09:06:51Z</time></trkpt>
<trkpt lat="46.20218" lon="7.01166"><ele>427.2</ele><time>2017-06-15T09:06:53Z</time></trkpt>
<trkpt lat="46.20214" lon="7.01156"><ele>427.2</ele><time>2017-06-15T09:06:55Z</time></trkpt>
<trkpt lat="46.20209" lon="7.01146"><ele>427.2</ele><time>2017-06-15T09:06:57Z</time></trkpt>
<trkpt lat="46.20205" lon="7.01136"><ele>427.4</ele><time>2017-06-15T09:06:59Z</time></trkpt>
<trkpt lat="46.20201" lon="7.01126"><ele>427.4</ele><time>2017-06-15T09:07:01Z</time></trkpt>
<trkpt lat="46.202" lon="7.01121"><ele>427.4</ele><time>2017-06-15T09:07:02Z</time></trkpt>
<trkpt lat="46.20201" lon="7.01119"><ele>427.4</ele><time>2017-06-15T09:07:03Z</time></trkpt>
<trkpt lat="46.20201" lon="7.01115"><ele>427.4</ele><time>2017-06-15T09:07:04Z</time></trkpt>
<trkpt lat="46.20199" lon="7.01109"><ele>427.6</ele><time>2017-06-15T09:07:05Z</time></trkpt>
<trkpt lat="46.20195" lon="7.01097"><ele>427.6</ele><time>2017-06-15T09:07:07Z</time></trkpt>
<trkpt lat="46.20191" lon="7.01085"><ele>427.6</ele><time>2017-06-15T09:07:09Z</time></trkpt>
<trkpt lat="46.20187" lon="7.01073"><ele>427.6</ele><time>2017-06-15T09:07:11Z</time></trkpt>
<trkpt lat="46.20183" lon="7.01061"><ele>427.8</ele><time>2017-06-15T09:07:13Z</time></trkpt>
<trkpt lat="46.2018" lon="7.01049"><ele>427.8</ele><time>2017-06-15T09:07:15Z</time></trkpt>
<trkpt lat="46.20175" lon="7.01033"><ele>427.8</ele><time>2017-06-15T09:07:17Z</time></trkpt>
<trkpt lat="46.20171" lon="7.01018"><ele>427.8</ele><time>2017-06-15T09:07:19Z</time></trkpt>
<trkpt lat="46.20167" lon="7.01002"><ele>428</ele><time>2017-06-15T09:07:21Z</time></trkpt>
<trkpt lat="46.20163" lon="7.00987"><ele>428</ele><time>2017-06-15T09:07:23Z</time></trkpt>
<trkpt lat="46.2016" lon="7.00969"><ele>428</ele><time>2017-06-15T09:07:25Z</time></trkpt>
<trkpt lat="46.20157" lon="7.00951"><ele>428.2</ele><time>2017-06-15T09:07:27Z</time></trkpt>
<trkpt lat="46.20154" lon="7.00933"><ele>428.2</ele><time>2017-06-15T09:07:29Z</time></trkpt>
<trkpt lat="46.2015" lon="7.00916"><ele>428.2</ele><time>2017-06-15T09:07:31Z</time></trkpt>
<trkpt lat="46.20147" lon="7.009"><ele>428.2</ele><time>2017-06-15T09:07:33Z</time></trkpt>
<trkpt lat="46.20143" lon="7.00884"><ele>428.4</ele><time>2017-06-15T09:07:35Z</time></trkpt>
<trkpt lat="46.2014" lon="7.00868"><ele>428.4</ele><time>2017-06-15T09:07:37Z</time></trkpt>
<trkpt lat="46.20136" lon="7.00852"><ele>428.4</ele><time>2017-06-15T09:07:39Z</time></trkpt>
<trkpt lat="46.20133" lon="7.0084"><ele>428.4</ele><time>2017-06-15T09:07:41Z</time></trkpt>
<trkpt lat="46.20129" lon="7.00827"><ele>428.6</ele><time>2017-06-15T09:07:43Z</time></trkpt>
<trkpt lat="46.20125" lon="7.00814"><ele>428.6</ele><time>2017-06-15T09:07:45Z</time></trkpt>
<trkpt lat="46.20121" lon="7.00801"><ele>428.6</ele><time>2017-06-15T09:07:47Z</time></trkpt>
<trkpt lat="46.20118" lon="7.00789"><ele>428.6</ele><time>2017-06-15T09:07:49Z</time></trkpt>
<trkpt lat="46.20116" lon="7.00779"><ele>428.8</ele><time>2017-06-15T09:07:51Z</time></trkpt>
<trkpt lat="46.20116" lon="7.00769"><ele>428.8</ele><time>2017-06-15T09:07:53Z</time></trkpt>
<trkpt lat="46.20122" lon="7.00758"><ele>428.8</ele><time>2017-06-15T09:07:55Z</time></trkpt>
<trkpt lat="46.20128" lon="7.00748"><ele>429</ele><time>2017-06-15T09:07:57Z</time></trkpt>
<trkpt lat="46.20131" lon="7.00744"><ele>429</ele><time>2017-06-15T09:07:58Z</time></trkpt>
<trkpt lat="46.20136" lon="7.00742"><ele>429</ele><time>2017-06-15T09:07:59Z</time></trkpt>
<trkpt lat="46.20146" lon="7.00738"><ele>429</ele><time>2017-06-15T09:08:01Z</time></trkpt>
<trkpt lat="46.20156" lon="7.00734"><ele>429</ele><time>2017-06-15T09:08:03Z</time></trkpt>
<trkpt lat="46.20166" lon="7.00731"><ele>429.2</ele><time>2017-06-15T09:08:05Z</time></trkpt>
<trkpt lat="46.20171" lon="7.00728"><ele>429.2</ele><time>2017-06-15T09:08:06Z</time></trkpt>
<trkpt lat="46.20175" lon="7.00722"><ele>429.2</ele><time>2017-06-15T09:08:07Z</time></trkpt>
<trkpt lat="46.20177" lon="7.00716"><ele>429.2</ele><time>2017-06-15T09:08:08Z</time></trkpt>
<trkpt lat="46.20176" lon="7.00708"><ele>429.2</ele><time>2017-06-15T09:08:09Z</time></trkpt>
<trkpt lat="46.20173" lon="7.00695"><ele>429.2</ele><time>2017-06-15T09:08:11Z</time></trkpt>
<trkpt lat="46.20164" lon="7.00689"><ele>429.4</ele><time>2017-06-15T09:08:13Z</time></trkpt>
<trkpt lat="46.20154" lon="7.00684"><ele>429.4</ele><time>2017-06-15T09:08:15Z</time></trkpt>
<trkpt lat="46.20145" lon="7.00679"><ele>429.4</ele><time>2017-06-15T09:08:17Z</time></trkpt>
<trkpt lat="46.20136" lon="7.00676"><ele>429.4</ele><time>2017-06-15T09:08:19Z</time></trkpt>
<trkpt lat="46.20128" lon="7.00674"><ele>429.6</ele><time>2017-06-15T09:08:21Z</time></trkpt>
<trkpt lat="46.2012" lon="7.00671"><ele>429.6</ele><time>2017-06-15T09:08:23Z</time></trkpt>
<trkpt lat="46.20111" lon="7.00668"><ele>429.6</ele><time>2017-06-15T09:08:25Z</time></trkpt>
<trkpt lat="46.20103" lon="7.00666"><ele>429.8</ele><time>2017-06-15T09:08:27Z</time></trkpt>
<trkpt lat="46.20099" lon="7.00664"><ele>429.8</ele><time>2017-06-15T09:08:28Z</time></trkpt>
<trkpt lat="46.20096" lon="7.00663"><ele>429.8</ele><time>2017-06-15T09:08:29Z</time></trkpt>
<trkpt lat="46.20089" lon="7.00659"><ele>429.8</ele><time>2017-06-15T09:08:31Z</time></trkpt>
<trkpt lat="46.20082" lon="7.00655"><ele>429.8</ele><time>2017-06-15T09:08:33Z</time></trkpt>
<trkpt lat="46.20075" lon="7.00652"><ele>430</ele><time>2017-06-15T09:08:35Z</time></trkpt>
<trkpt lat="46.20068" lon="7.00648"><ele>430</ele><time>2017-06-15T09:08:37Z</time></trkpt>
<trkpt lat="46.20062" lon="7.00644"><ele>430</ele><time>2017-06-15T09:08:39Z</time></trkpt>
<trkpt lat="46.20055" lon="7.00641"><ele>430</ele><time>2017-06-15T09:08:41Z</time></trkpt>
<trkpt lat="46.20049" lon="7.00638"><ele>430.2</ele><time>2017-06-15T09:08:43Z</time></trkpt>
<trkpt lat="46.20045" lon="7.00637"><ele>430.2</ele><time>2017-06-15T09:08:44Z</time></trkpt>
<trkpt lat="46.20042" lon="7.00635"><ele>430.4</ele><time>2017-06-15T09:08:45Z</time></trkpt>
<trkpt lat="46.20036" lon="7.00632"><ele>430.6</ele><time>2017-06-15T09:08:47Z</time></trkpt>
<trkpt lat="46.2003" lon="7.00629"><ele>431</ele><time>2017-06-15T09:08:49Z</time></trkpt>
<trkpt lat="46.20027" lon="7.00628"><ele>431.2</ele><time>2017-06-15T09:08:50Z</time></trkpt>
<trkpt lat="46.20024" lon="7.00626"><ele>431.2</ele><time>2017-06-15T09:08:51Z</time></trkpt>
<trkpt lat="46.20018" lon="7.00624"><ele>431.6</ele><time>2017-06-15T09:08:53Z</time></trkpt>
<trkpt lat="46.20015" lon="7.00622"><ele>431.8</ele><time>2017-06-15T09:08:54Z</time></trkpt>
<trkpt lat="46.20011" lon="7.00621"><ele>432</ele><time>2017-06-15T09:08:55Z</time></trkpt>
<trkpt lat="46.20005" lon="7.00621"><ele>432.4</ele><time>2017-06-15T09:08:57Z</time></trkpt>
<trkpt lat="46.19998" lon="7.00621"><ele>432.6</ele><time>2017-06-15T09:08:59Z</time></trkpt>
<trkpt lat="46.19992" lon="7.00621"><ele>433</ele><time>2017-06-15T09:09:01Z</time></trkpt>
<trkpt lat="46.19985" lon="7.00621"><ele>433.4</ele><time>2017-06-15T09:09:03Z</time></trkpt>
<trkpt lat="46.19979" lon="7.00621"><ele>433.8</ele><time>2017-06-15T09:09:05Z</time></trkpt>
<trkpt lat="46.19973" lon="7.00622"><ele>434.2</ele><time>2017-06-15T09:09:07Z</time></trkpt>
<trkpt lat="46.19966" lon="7.00622"><ele>434.6</ele><time>2017-06-15T09:09:09Z</time></trkpt>
<trkpt lat="46.1996" lon="7.00622"><ele>434.8</ele><time>2017-06-15T09:09:11Z</time></trkpt>
<trkpt lat="46.19957" lon="7.00622"><ele>435</ele><time>2017-06-15T09:09:12Z</time></trkpt>
<trkpt lat="46.19954" lon="7.00622"><ele>435.2</ele><time>2017-06-15T09:09:13Z</time></trkpt>
<trkpt lat="46.19948" lon="7.00622"><ele>435.4</ele><time>2017-06-15T09:09:15Z</time></trkpt>
<trkpt lat="46.19941" lon="7.00622"><ele>435.6</ele><time>2017-06-15T09:09:17Z</time></trkpt>
<trkpt lat="46.19935" lon="7.00622"><ele>435.8</ele><time>2017-06-15T09:09:19Z</time></trkpt>
<trkpt lat="46.19929" lon="7.00622"><ele>436</ele><time>2017-06-15T09:09:21Z</time></trkpt>
<trkpt lat="46.19923" lon="7.00622"><ele>436.2</ele><time>2017-06-15T09:09:23Z</time></trkpt>
<trkpt lat="46.1992" lon="7.00622"><ele>436.4</ele><time>2017-06-15T09:09:24Z</time></trkpt>
<trkpt lat="46.19917" lon="7.00623"><ele>436.4</ele><time>2017-06-15T09:09:25Z</time></trkpt>
<trkpt lat="46.19911" lon="7.00624"><ele>436.6</ele><time>2017-06-15T09:09:27Z</time></trkpt>
<trkpt lat="46.19906" lon="7.00625"><ele>436.8</ele><time>2017-06-15T09:09:29Z</time></trkpt>
<trkpt lat="46.199" lon="7.00626"><ele>437.2</ele><time>2017-06-15T09:09:31Z</time></trkpt>
<trkpt lat="46.19894" lon="7.00627"><ele>437.6</ele><time>2017-06-15T09:09:33Z</time></trkpt>
<trkpt lat="46.19888" lon="7.00628"><ele>437.8</ele><time>2017-06-15T09:09:35Z</time></trkpt>
<trkpt lat="46.19882" lon="7.00629"><ele>438.2</ele><time>2017-06-15T09:09:37Z</time></trkpt>
<trkpt lat="46.19877" lon="7.0063"><ele>438.6</ele><time>2017-06-15T09:09:39Z</time></trkpt>
<trkpt lat="46.19874" lon="7.0063"><ele>438.8</ele><time>2017-06-15T09:09:40Z</time></trkpt>
<trkpt lat="46.19872" lon="7.0063"><ele>438.8</ele><time>2017-06-15T09:09:41Z</time></trkpt>
<trkpt lat="46.19867" lon="7.0063"><ele>439.2</ele><time>2017-06-15T09:09:43Z</time></trkpt>
<trkpt lat="46.19862" lon="7.0063"><ele>439.6</ele><time>2017-06-15T09:09:45Z</time></trkpt>
<trkpt lat="46.19857" lon="7.0063"><ele>439.8</ele><time>2017-06-15T09:09:47Z</time></trkpt>
<trkpt lat="46.19852" lon="7.0063"><ele>440.2</ele><time>2017-06-15T09:09:49Z</time></trkpt>
<trkpt lat="46.19847" lon="7.0063"><ele>440.4</ele><time>2017-06-15T09:09:51Z</time></trkpt>
<trkpt lat="46.19843" lon="7.0063"><ele>440.8</ele><time>2017-06-15T09:09:53Z</time></trkpt>
<trkpt lat="46.19838" lon="7.0063"><ele>441.2</ele><time>2017-06-15T09:09:55Z</time></trkpt>
<trkpt lat="46.19833" lon="7.0063"><ele>441.4</ele><time>2017-06-15T09:09:57Z</time></trkpt>
<trkpt lat="46.19828" lon="7.0063"><ele>441.8</ele><time>2017-06-15T09:09:59Z</time></trkpt>
<trkpt lat="46.19823" lon="7.0063"><ele>442</ele><time>2017-06-15T09:10:01Z</time></trkpt>
<trkpt lat="46.19818" lon="7.0063"><ele>442.4</ele><time>2017-06-15T09:10:03Z</time></trkpt>
<trkpt lat="46.19813" lon="7.00629"><ele>442.6</ele><time>2017-06-15T09:10:05Z</time></trkpt>
<trkpt lat="46.19808" lon="7.00629"><ele>443</ele><time>2017-06-15T09:10:07Z</time></trkpt>
<trkpt lat="46.19803" lon="7.00628"><ele>443.2</ele><time>2017-06-15T09:10:09Z</time></trkpt>
<trkpt lat="46.19798" lon="7.00628"><ele>443.4</ele><time>2017-06-15T09:10:11Z</time></trkpt>
<trkpt lat="46.19793" lon="7.00628"><ele>443.8</ele><time>2017-06-15T09:10:13Z</time></trkpt>
<trkpt lat="46.19788" lon="7.00627"><ele>444</ele><time>2017-06-15T09:10:15Z</time></trkpt>
<trkpt lat="46.19783" lon="7.00627"><ele>444.4</ele><time>2017-06-15T09:10:17Z</time></trkpt>
<trkpt lat="46.19781" lon="7.00627"><ele>444.4</ele><time>2017-06-15T09:10:18Z</time></trkpt>
<trkpt lat="46.19778" lon="7.00626"><ele>444.6</ele><time>2017-06-15T09:10:19Z</time></trkpt>
<trkpt lat="46.19773" lon="7.00624"><ele>444.8</ele><time>2017-06-15T09:10:21Z</time></trkpt>
<trkpt lat="46.19768" lon="7.00623"><ele>445.2</ele><time>2017-06-15T09:10:23Z</time></trkpt>
<trkpt lat="46.19763" lon="7.00621"><ele>445.4</ele><time>2017-06-15T09:10:25Z</time></trkpt>
<trkpt lat="46.19758" lon="7.0062"><ele>445.6</ele><time>2017-06-15T09:10:27Z</time></trkpt>
<trkpt lat="46.19753" lon="7.00618"><ele>446</ele><time>2017-06-15T09:10:29Z</time></trkpt>
<trkpt lat="46.19748" lon="7.00616"><ele>446.2</ele><time>2017-06-15T09:10:31Z</time></trkpt>
<trkpt lat="46.19743" lon="7.00615"><ele>446.6</ele><time>2017-06-15T09:10:33Z</time></trkpt>
<trkpt lat="46.19738" lon="7.00613"><ele>446.8</ele><time>2017-06-15T09:10:35Z</time></trkpt>
<trkpt lat="46.19736" lon="7.00612"><ele>447</ele><time>2017-06-15T09:10:36Z</time></trkpt>
<trkpt lat="46.19733" lon="7.00612"><ele>447.2</ele><time>2017-06-15T09:10:37Z</time></trkpt>
<trkpt lat="46.19728" lon="7.0061"><ele>447.4</ele><time>2017-06-15T09:10:39Z</time></trkpt>
<trkpt lat="46.19723" lon="7.00608"><ele>447.8</ele><time>2017-06-15T09:10:41Z</time></trkpt>
<trkpt lat="46.19718" lon="7.00606"><ele>448</ele><time>2017-06-15T09:10:43Z</time></trkpt>
<trkpt lat="46.19713" lon="7.00605"><ele>448.4</ele><time>2017-06-15T09:10:45Z</time></trkpt>
<trkpt lat="46.19708" lon="7.00603"><ele>448.6</ele><time>2017-06-15T09:10:47Z</time></trkpt>
<trkpt lat="46.19703" lon="7.00601"><ele>449</ele><time>2017-06-15T09:10:49Z</time></trkpt>
<trkpt lat="46.19699" lon="7.00599"><ele>449.2</ele><time>2017-06-15T09:10:51Z</time></trkpt>
<trkpt lat="46.19696" lon="7.00599"><ele>449.4</ele><time>2017-06-15T09:10:52Z</time></trkpt>
<trkpt lat="46.19694" lon="7.00598"><ele>449.6</ele><time>2017-06-15T09:10:53Z</time></trkpt>
<trkpt lat="46.19691" lon="7.00597"><ele>449.6</ele><time>2017-06-15T09:10:54Z</time></trkpt>
<trkpt lat="46.19688" lon="7.00598"><ele>449.8</ele><time>2017-06-15T09:10:55Z</time></trkpt>
<trkpt lat="46.19683" lon="7.00598"><ele>450</ele><time>2017-06-15T09:10:57Z</time></trkpt>
<trkpt lat="46.19678" lon="7.00599"><ele>450.2</ele><time>2017-06-15T09:10:59Z</time></trkpt>
<trkpt lat="46.19673" lon="7.00599"><ele>450.4</ele><time>2017-06-15T09:11:01Z</time></trkpt>
<trkpt lat="46.19668" lon="7.006"><ele>450.6</ele><time>2017-06-15T09:11:03Z</time></trkpt>
<trkpt lat="46.19665" lon="7.006"><ele>450.8</ele><time>2017-06-15T09:11:04Z</time></trkpt>
<trkpt lat="46.19663" lon="7.00601"><ele>450.8</ele><time>2017-06-15T09:11:05Z</time></trkpt>
<trkpt lat="46.19657" lon="7.00601"><ele>451.2</ele><time>2017-06-15T09:11:07Z</time></trkpt>
<trkpt lat="46.19652" lon="7.00602"><ele>451.4</ele><time>2017-06-15T09:11:09Z</time></trkpt>
<trkpt lat="46.19647" lon="7.00602"><ele>451.6</ele><time>2017-06-15T09:11:11Z</time></trkpt>
<trkpt lat="46.19645" lon="7.00602"><ele>451.8</ele><time>2017-06-15T09:11:12Z</time></trkpt>
<trkpt lat="46.19642" lon="7.00602"><ele>451.8</ele><time>2017-06-15T09:11:13Z</time></trkpt>
<trkpt lat="46.19637" lon="7.00602"><ele>452.2</ele><time>2017-06-15T09:11:15Z</time></trkpt>
<trkpt lat="46.19632" lon="7.00601"><ele>452.4</ele><time>2017-06-15T09:11:17Z</time></trkpt>
<trkpt lat="46.19627" lon="7.00601"><ele>452.6</ele><time>2017-06-15T09:11:19Z</time></trkpt>
<trkpt lat="46.19622" lon="7.006"><ele>453</ele><time>2017-06-15T09:11:21Z</time></trkpt>
<trkpt lat="46.19618" lon="7.006"><ele>453.2</ele><time>2017-06-15T09:11:23Z</time></trkpt>
<trkpt lat="46.19613" lon="7.006"><ele>453.4</ele><time>2017-06-15T09:11:25Z</time></trkpt>
<trkpt lat="46.19608" lon="7.00599"><ele>453.8</ele><time>2017-06-15T09:11:27Z</time></trkpt>
<trkpt lat="46.19603" lon="7.00599"><ele>454.2</ele><time>2017-06-15T09:11:29Z</time></trkpt>
<trkpt lat="46.19598" lon="7.00598"><ele>454.6</ele><time>2017-06-15T09:11:31Z</time></trkpt>
<trkpt lat="46.19594" lon="7.00599"><ele>455</ele><time>2017-06-15T09:11:33Z</time></trkpt>
<trkpt lat="46.19589" lon="7.006"><ele>455.4</ele><time>2017-06-15T09:11:35Z</time></trkpt>
<trkpt lat="46.19585" lon="7.00601"><ele>455.8</ele><time>2017-06-15T09:11:37Z</time></trkpt>
<trkpt lat="46.1958" lon="7.00602"><ele>456.2</ele><time>2017-06-15T09:11:39Z</time></trkpt>
<trkpt lat="46.19576" lon="7.00603"><ele>456.6</ele><time>2017-06-15T09:11:41Z</time></trkpt>
<trkpt lat="46.19571" lon="7.00604"><ele>456.8</ele><time>2017-06-15T09:11:43Z</time></trkpt>
<trkpt lat="46.19567" lon="7.00605"><ele>457.2</ele><time>2017-06-15T09:11:45Z</time></trkpt>
<trkpt lat="46.19562" lon="7.00606"><ele>457.4</ele><time>2017-06-15T09:11:47Z</time></trkpt>
<trkpt lat="46.19558" lon="7.00607"><ele>457.8</ele><time>2017-06-15T09:11:49Z</time></trkpt>
<trkpt lat="46.19553" lon="7.00608"><ele>458</ele><time>2017-06-15T09:11:51Z</time></trkpt>
<trkpt lat="46.19549" lon="7.00611"><ele>458.4</ele><time>2017-06-15T09:11:53Z</time></trkpt>
<trkpt lat="46.19545" lon="7.00613"><ele>458.6</ele><time>2017-06-15T09:11:55Z</time></trkpt>
<trkpt lat="46.1954" lon="7.00616"><ele>459</ele><time>2017-06-15T09:11:57Z</time></trkpt>
<trkpt lat="46.19536" lon="7.00618"><ele>459.2</ele><time>2017-06-15T09:11:59Z</time></trkpt>
<trkpt lat="46.19532" lon="7.00621"><ele>459.6</ele><time>2017-06-15T09:12:01Z</time></trkpt>
<trkpt lat="46.19527" lon="7.00623"><ele>460</ele><time>2017-06-15T09:12:03Z</time></trkpt>
<trkpt lat="46.19523" lon="7.00626"><ele>460.2</ele><time>2017-06-15T09:12:05Z</time></trkpt>
<trkpt lat="46.19518" lon="7.00628"><ele>460.6</ele><time>2017-06-15T09:12:07Z</time></trkpt>
<trkpt lat="46.19514" lon="7.00631"><ele>461</ele><time>2017-06-15T09:12:09Z</time></trkpt>
<trkpt lat="46.1951" lon="7.00633"><ele>461.4</ele><time>2017-06-15T09:12:11Z</time></trkpt>
<trkpt lat="46.19505" lon="7.00636"><ele>461.6</ele><time>2017-06-15T09:12:13Z</time></trkpt>
<trkpt lat="46.19501" lon="7.00639"><ele>462</ele><time>2017-06-15T09:12:15Z</time></trkpt>
<trkpt lat="46.19497" lon="7.00641"><ele>462.4</ele><time>2017-06-15T09:12:17Z</time></trkpt>
<trkpt lat="46.19492" lon="7.00644"><ele>462.8</ele><time>2017-06-15T09:12:19Z</time></trkpt>
<trkpt lat="46.1949" lon="7.00645"><ele>463</ele><time>2017-06-15T09:12:20Z</time></trkpt>
<trkpt lat="46.19488" lon="7.00647"><ele>463.2</ele><time>2017-06-15T09:12:21Z</time></trkpt>
<trkpt lat="46.19483" lon="7.00649"><ele>463.4</ele><time>2017-06-15T09:12:23Z</time></trkpt>
<trkpt lat="46.19479" lon="7.00652"><ele>463.8</ele><time>2017-06-15T09:12:25Z</time></trkpt>
<trkpt lat="46.19475" lon="7.00655"><ele>464.2</ele><time>2017-06-15T09:12:27Z</time></trkpt>
<trkpt lat="46.1947" lon="7.00658"><ele>464.4</ele><time>2017-06-15T09:12:29Z</time></trkpt>
<trkpt lat="46.19468" lon="7.00659"><ele>464.6</ele><time>2017-06-15T09:12:30Z</time></trkpt>
<trkpt lat="46.19466" lon="7.0066"><ele>464.8</ele><time>2017-06-15T09:12:31Z</time></trkpt>
<trkpt lat="46.19463" lon="7.00662"><ele>465.2</ele><time>2017-06-15T09:12:33Z</time></trkpt>
<trkpt lat="46.19459" lon="7.00663"><ele>465.4</ele><time>2017-06-15T09:12:35Z</time></trkpt>
<trkpt lat="46.19455" lon="7.00665"><ele>465.8</ele><time>2017-06-15T09:12:37Z</time></trkpt>
<trkpt lat="46.19451" lon="7.00667"><ele>466.2</ele><time>2017-06-15T09:12:39Z</time></trkpt>
<trkpt lat="46.19447" lon="7.00669"><ele>466.4</ele><time>2017-06-15T09:12:41Z</time></trkpt>
<trkpt lat="46.19443" lon="7.00671"><ele>466.8</ele><time>2017-06-15T09:12:43Z</time></trkpt>
<trkpt lat="46.19441" lon="7.00672"><ele>467</ele><time>2017-06-15T09:12:44Z</time></trkpt>
<trkpt lat="46.1944" lon="7.00672"><ele>467.2</ele><time>2017-06-15T09:12:45Z</time></trkpt>
<trkpt lat="46.19436" lon="7.00674"><ele>467.4</ele><time>2017-06-15T09:12:47Z</time></trkpt>
<trkpt lat="46.19432" lon="7.00676"><ele>467.6</ele><time>2017-06-15T09:12:49Z</time></trkpt>
<trkpt lat="46.19428" lon="7.00678"><ele>468</ele><time>2017-06-15T09:12:51Z</time></trkpt>
<trkpt lat="46.19424" lon="7.0068"><ele>468.2</ele><time>2017-06-15T09:12:53Z</time></trkpt>
<trkpt lat="46.19421" lon="7.00682"><ele>468.6</ele><time>2017-06-15T09:12:55Z</time></trkpt>
<trkpt lat="46.19417" lon="7.00684"><ele>468.8</ele><time>2017-06-15T09:12:57Z</time></trkpt>
<trkpt lat="46.19413" lon="7.00686"><ele>469</ele><time>2017-06-15T09:12:59Z</time></trkpt>
<trkpt lat="46.1941" lon="7.00688"><ele>469.4</ele><time>2017-06-15T09:13:01Z</time></trkpt>
<trkpt lat="46.19406" lon="7.0069"><ele>469.6</ele><time>2017-06-15T09:13:03Z</time></trkpt>
<trkpt lat="46.19403" lon="7.00692"><ele>470</ele><time>2017-06-15T09:13:05Z</time></trkpt>
<trkpt lat="46.19401" lon="7.00693"><ele>470</ele><time>2017-06-15T09:13:06Z</time></trkpt>
<trkpt lat="46.19399" lon="7.00693"><ele>470.2</ele><time>2017-06-15T09:13:07Z</time></trkpt>
<trkpt lat="46.19396" lon="7.00695"><ele>470.6</ele><time>2017-06-15T09:13:09Z</time></trkpt>
<trkpt lat="46.19392" lon="7.00697"><ele>470.8</ele><time>2017-06-15T09:13:11Z</time></trkpt>
<trkpt lat="46.19388" lon="7.00699"><ele>471</ele><time>2017-06-15T09:13:13Z</time></trkpt>
<trkpt lat="46.19385" lon="7.00701"><ele>471.4</ele><time>2017-06-15T09:13:15Z</time></trkpt>
<trkpt lat="46.19381" lon="7.00703"><ele>471.6</ele><time>2017-06-15T09:13:17Z</time></trkpt>
<trkpt lat="46.19378" lon="7.00706"><ele>471.8</ele><time>2017-06-15T09:13:19Z</time></trkpt>
<trkpt lat="46.19375" lon="7.0071"><ele>472.2</ele><time>2017-06-15T09:13:21Z</time></trkpt>
<trkpt lat="46.19371" lon="7.00713"><ele>472.4</ele><time>2017-06-15T09:13:23Z</time></trkpt>
<trkpt lat="46.19368" lon="7.00716"><ele>472.8</ele><time>2017-06-15T09:13:25Z</time></trkpt>
<trkpt lat="46.19364" lon="7.00719"><ele>473</ele><time>2017-06-15T09:13:27Z</time></trkpt>
<trkpt lat="46.19361" lon="7.00722"><ele>473.2</ele><time>2017-06-15T09:13:29Z</time></trkpt>
<trkpt lat="46.19357" lon="7.00725"><ele>473.6</ele><time>2017-06-15T09:13:31Z</time></trkpt>
<trkpt lat="46.19354" lon="7.00728"><ele>473.8</ele><time>2017-06-15T09:13:33Z</time></trkpt>
<trkpt lat="46.19351" lon="7.00731"><ele>474.2</ele><time>2017-06-15T09:13:35Z</time></trkpt>
<trkpt lat="46.19347" lon="7.00734"><ele>474.6</ele><time>2017-06-15T09:13:37Z</time></trkpt>
<trkpt lat="46.19344" lon="7.00737"><ele>474.8</ele><time>2017-06-15T09:13:39Z</time></trkpt>
<trkpt lat="46.19342" lon="7.00739"><ele>475</ele><time>2017-06-15T09:13:40Z</time></trkpt>
<trkpt lat="46.19341" lon="7.0074"><ele>475.2</ele><time>2017-06-15T09:13:41Z</time></trkpt>
<trkpt lat="46.19338" lon="7.00744"><ele>475.4</ele><time>2017-06-15T09:13:43Z</time></trkpt>
<trkpt lat="46.19336" lon="7.00748"><ele>475.8</ele><time>2017-06-15T09:13:45Z</time></trkpt>
<trkpt lat="46.19333" lon="7.00752"><ele>476</ele><time>2017-06-15T09:13:47Z</time></trkpt>
<trkpt lat="46.1933" lon="7.00756"><ele>476.4</ele><time>2017-06-15T09:13:49Z</time></trkpt>
<trkpt lat="46.19328" lon="7.0076"><ele>476.6</ele><time>2017-06-15T09:13:51Z</time></trkpt>
<trkpt lat="46.19325" lon="7.00763"><ele>477</ele><time>2017-06-15T09:13:53Z</time></trkpt>
<trkpt lat="46.19322" lon="7.00767"><ele>477.4</ele><time>2017-06-15T09:13:55Z</time></trkpt>
<trkpt lat="46.1932" lon="7.00771"><ele>477.8</ele><time>2017-06-15T09:13:57Z</time></trkpt>
<trkpt lat="46.19317" lon="7.00775"><ele>478</ele><time>2017-06-15T09:13:59Z</time></trkpt>
<trkpt lat="46.19315" lon="7.00779"><ele>478.4</ele><time>2017-06-15T09:14:01Z</time></trkpt>
<trkpt lat="46.19312" lon="7.00783"><ele>478.8</ele><time>2017-06-15T09:14:03Z</time></trkpt>
<trkpt lat="46.19309" lon="7.00786"><ele>479.2</ele><time>2017-06-15T09:14:05Z</time></trkpt>
<trkpt lat="46.19307" lon="7.0079"><ele>479.6</ele><time>2017-06-15T09:14:07Z</time></trkpt>
<trkpt lat="46.19304" lon="7.00794"><ele>479.8</ele><time>2017-06-15T09:14:09Z</time></trkpt>
<trkpt lat="46.19301" lon="7.00798"><ele>480.2</ele><time>2017-06-15T09:14:11Z</time></trkpt>
<trkpt lat="46.19298" lon="7.00802"><ele>480.6</ele><time>2017-06-15T09:14:13Z</time></trkpt>
<trkpt lat="46.19297" lon="7.00804"><ele>480.8</ele><time>2017-06-15T09:14:14Z</time></trkpt>
<trkpt lat="46.19296" lon="7.00805"><ele>480.8</ele><time>2017-06-15T09:14:15Z</time></trkpt>
<trkpt lat="46.19293" lon="7.00809"><ele>481.2</ele><time>2017-06-15T09:14:17Z</time></trkpt>
<trkpt lat="46.1929" lon="7.00813"><ele>481.6</ele><time>2017-06-15T09:14:19Z</time></trkpt>
<trkpt lat="46.19287" lon="7.00817"><ele>481.8</ele><time>2017-06-15T09:14:21Z</time></trkpt>
<trkpt lat="46.19285" lon="7.00821"><ele>482.2</ele><time>2017-06-15T09:14:23Z</time></trkpt>
<trkpt lat="46.19282" lon="7.00824"><ele>482.4</ele><time>2017-06-15T09:14:25Z</time></trkpt>
<trkpt lat="46.19279" lon="7.00828"><ele>482.8</ele><time>2017-06-15T09:14:27Z</time></trkpt>
<trkpt lat="46.19276" lon="7.00832"><ele>483</ele><time>2017-06-15T09:14:29Z</time></trkpt>
<trkpt lat="46.19274" lon="7.00836"><ele>483.4</ele><time>2017-06-15T09:14:31Z</time></trkpt>
<trkpt lat="46.19271" lon="7.0084"><ele>483.6</ele><time>2017-06-15T09:14:33Z</time></trkpt>
<trkpt lat="46.19269" lon="7.00844"><ele>484</ele><time>2017-06-15T09:14:35Z</time></trkpt>
<trkpt lat="46.19267" lon="7.00846"><ele>484.2</ele><time>2017-06-15T09:14:36Z</time></trkpt>
<trkpt lat="46.19266" lon="7.00848"><ele>484.4</ele><time>2017-06-15T09:14:37Z</time></trkpt>
<trkpt lat="46.19263" lon="7.00852"><ele>484.8</ele><time>2017-06-15T09:14:39Z</time></trkpt>
<trkpt lat="46.19261" lon="7.00856"><ele>485.2</ele><time>2017-06-15T09:14:41Z</time></trkpt>
<trkpt lat="46.19258" lon="7.0086"><ele>485.6</ele><time>2017-06-15T09:14:43Z</time></trkpt>
<trkpt lat="46.19255" lon="7.00864"><ele>486</ele><time>2017-06-15T09:14:45Z</time></trkpt>
<trkpt lat="46.19253" lon="7.00868"><ele>486.4</ele><time>2017-06-15T09:14:47Z</time></trkpt>
<trkpt lat="46.1925" lon="7.00873"><ele>486.8</ele><time>2017-06-15T09:14:49Z</time></trkpt>
<trkpt lat="46.19248" lon="7.00877"><ele>487.2</ele><time>2017-06-15T09:14:51Z</time></trkpt>
<trkpt lat="46.19246" lon="7.00879"><ele>487.2</ele><time>2017-06-15T09:14:52Z</time></trkpt>
<trkpt lat="46.19245" lon="7.00881"><ele>487.4</ele><time>2017-06-15T09:14:53Z</time></trkpt>
<trkpt lat="46.19244" lon="7.00886"><ele>487.8</ele><time>2017-06-15T09:14:55Z</time></trkpt>
<trkpt lat="46.19243" lon="7.00891"><ele>488</ele><time>2017-06-15T09:14:57Z</time></trkpt>
<trkpt lat="46.19242" lon="7.00896"><ele>488.4</ele><time>2017-06-15T09:14:59Z</time></trkpt>
<trkpt lat="46.19241" lon="7.009"><ele>488.8</ele><time>2017-06-15T09:15:01Z</time></trkpt>
<trkpt lat="46.1924" lon="7.00905"><ele>489</ele><time>2017-06-15T09:15:03Z</time></trkpt>
<trkpt lat="46.19239" lon="7.0091"><ele>489.4</ele><time>2017-06-15T09:15:05Z</time></trkpt>
<trkpt lat="46.19238" lon="7.00915"><ele>489.6</ele><time>2017-06-15T09:15:07Z</time></trkpt>
<trkpt lat="46.19238" lon="7.0092"><ele>490</ele><time>2017-06-15T09:15:09Z</time></trkpt>
<trkpt lat="46.19237" lon="7.00925"><ele>490.2</ele><time>2017-06-15T09:15:11Z</time></trkpt>
<trkpt lat="46.19236" lon="7.0093"><ele>490.6</ele><time>2017-06-15T09:15:13Z</time></trkpt>
<trkpt lat="46.19235" lon="7.00933"><ele>490.8</ele><time>2017-06-15T09:15:14Z</time></trkpt>
<trkpt lat="46.19235" lon="7.00935"><ele>491</ele><time>2017-06-15T09:15:15Z</time></trkpt>
<trkpt lat="46.19234" lon="7.0094"><ele>491.2</ele><time>2017-06-15T09:15:17Z</time></trkpt>
<trkpt lat="46.19233" lon="7.00945"><ele>491.6</ele><time>2017-06-15T09:15:19Z</time></trkpt>
<trkpt lat="46.19232" lon="7.0095"><ele>492</ele><time>2017-06-15T09:15:21Z</time></trkpt>
<trkpt lat="46.19232" lon="7.00955"><ele>492.4</ele><time>2017-06-15T09:15:23Z</time></trkpt>
<trkpt lat="46.19231" lon="7.0096"><ele>492.8</ele><time>2017-06-15T09:15:25Z</time></trkpt>
<trkpt lat="46.1923" lon="7.00965"><ele>493</ele><time>2017-06-15T09:15:27Z</time></trkpt>
<trkpt lat="46.1923" lon="7.0097"><ele>493.4</ele><time>2017-06-15T09:15:29Z</time></trkpt>
<trkpt lat="46.19229" lon="7.00975"><ele>493.8</ele><time>2017-06-15T09:15:31Z</time></trkpt>
<trkpt lat="46.19229" lon="7.0098"><ele>494.2</ele><time>2017-06-15T09:15:33Z</time></trkpt>
<trkpt lat="46.19228" lon="7.00984"><ele>494.6</ele><time>2017-06-15T09:15:35Z</time></trkpt>
<trkpt lat="46.19227" lon="7.00989"><ele>495</ele><time>2017-06-15T09:15:37Z</time></trkpt>
<trkpt lat="46.19227" lon="7.00994"><ele>495.4</ele><time>2017-06-15T09:15:39Z</time></trkpt>
<trkpt lat="46.19226" lon="7.00999"><ele>495.8</ele><time>2017-06-15T09:15:41Z</time></trkpt>
<trkpt lat="46.19226" lon="7.01004"><ele>496</ele><time>2017-06-15T09:15:43Z</time></trkpt>
<trkpt lat="46.19225" lon="7.01009"><ele>496.4</ele><time>2017-06-15T09:15:45Z</time></trkpt>
<trkpt lat="46.19223" lon="7.01012"><ele>496.8</ele><time>2017-06-15T09:15:47Z</time></trkpt>
<trkpt lat="46.19222" lon="7.01014"><ele>497</ele><time>2017-06-15T09:15:48Z</time></trkpt>
<trkpt lat="46.19221" lon="7.01015"><ele>497.2</ele><time>2017-06-15T09:15:49Z</time></trkpt>
<trkpt lat="46.19219" lon="7.01018"><ele>497.6</ele><time>2017-06-15T09:15:51Z</time></trkpt>
<trkpt lat="46.19217" lon="7.01021"><ele>498</ele><time>2017-06-15T09:15:53Z</time></trkpt>
<trkpt lat="46.19215" lon="7.01025"><ele>498.4</ele><time>2017-06-15T09:15:55Z</time></trkpt>
<trkpt lat="46.19214" lon="7.01028"><ele>498.6</ele><time>2017-06-15T09:15:57Z</time></trkpt>
<trkpt lat="46.19212" lon="7.01031"><ele>499</ele><time>2017-06-15T09:15:59Z</time></trkpt>
<trkpt lat="46.1921" lon="7.01034"><ele>499.4</ele><time>2017-06-15T09:16:01Z</time></trkpt>
<trkpt lat="46.19208" lon="7.01037"><ele>499.8</ele><time>2017-06-15T09:16:03Z</time></trkpt>
<trkpt lat="46.19206" lon="7.0104"><ele>500.2</ele><time>2017-06-15T09:16:05Z</time></trkpt>
<trkpt lat="46.19204" lon="7.01043"><ele>500.4</ele><time>2017-06-15T09:16:07Z</time></trkpt>
<trkpt lat="46.19202" lon="7.01047"><ele>500.8</ele><time>2017-06-15T09:16:09Z</time></trkpt>
<trkpt lat="46.192" lon="7.0105"><ele>501.2</ele><time>2017-06-15T09:16:11Z</time></trkpt>
<trkpt lat="46.19199" lon="7.01053"><ele>501.4</ele><time>2017-06-15T09:16:13Z</time></trkpt>
<trkpt lat="46.19197" lon="7.01056"><ele>501.8</ele><time>2017-06-15T09:16:15Z</time></trkpt>
<trkpt lat="46.19195" lon="7.01059"><ele>502.2</ele><time>2017-06-15T09:16:17Z</time></trkpt>
<trkpt lat="46.19191" lon="7.0106"><ele>502.6</ele><time>2017-06-15T09:16:19Z</time></trkpt>
<trkpt lat="46.19188" lon="7.0106"><ele>502.8</ele><time>2017-06-15T09:16:21Z</time></trkpt>
<trkpt lat="46.19185" lon="7.01061"><ele>503.2</ele><time>2017-06-15T09:16:23Z</time></trkpt>
<trkpt lat="46.19182" lon="7.01062"><ele>503.6</ele><time>2017-06-15T09:16:25Z</time></trkpt>
<trkpt lat="46.19179" lon="7.01063"><ele>504</ele><time>2017-06-15T09:16:27Z</time></trkpt>
<trkpt lat="46.19175" lon="7.01064"><ele>504.4</ele><time>2017-06-15T09:16:29Z</time></trkpt>
<trkpt lat="46.19172" lon="7.01065"><ele>504.8</ele><time>2017-06-15T09:16:31Z</time></trkpt>
<trkpt lat="46.19169" lon="7.01066"><ele>505</ele><time>2017-06-15T09:16:33Z</time></trkpt>
<trkpt lat="46.19166" lon="7.01066"><ele>505.4</ele><time>2017-06-15T09:16:35Z</time></trkpt>
<trkpt lat="46.19162" lon="7.01067"><ele>505.8</ele><time>2017-06-15T09:16:37Z</time></trkpt>
<trkpt lat="46.19159" lon="7.01068"><ele>506.2</ele><time>2017-06-15T09:16:39Z</time></trkpt>
<trkpt lat="46.19158" lon="7.01069"><ele>506.4</ele><time>2017-06-15T09:16:40Z</time></trkpt>
<trkpt lat="46.19156" lon="7.01069"><ele>506.6</ele><time>2017-06-15T09:16:41Z</time></trkpt>
<trkpt lat="46.19153" lon="7.0107"><ele>507</ele><time>2017-06-15T09:16:43Z</time></trkpt>
<trkpt lat="46.19149" lon="7.01071"><ele>507.4</ele><time>2017-06-15T09:16:45Z</time></trkpt>
<trkpt lat="46.19146" lon="7.01071"><ele>507.6</ele><time>2017-06-15T09:16:47Z</time></trkpt>
<trkpt lat="46.19143" lon="7.01072"><ele>508</ele><time>2017-06-15T09:16:49Z</time></trkpt>
<trkpt lat="46.19139" lon="7.01073"><ele>508.4</ele><time>2017-06-15T09:16:51Z</time></trkpt>
<trkpt lat="46.19136" lon="7.01073"><ele>508.8</ele><time>2017-06-15T09:16:53Z</time></trkpt>
<trkpt lat="46.19133" lon="7.01074"><ele>509.2</ele><time>2017-06-15T09:16:55Z</time></trkpt>
<trkpt lat="46.19129" lon="7.01075"><ele>509.6</ele><time>2017-06-15T09:16:57Z</time></trkpt>
<trkpt lat="46.19126" lon="7.01075"><ele>509.8</ele><time>2017-06-15T09:16:59Z</time></trkpt>
<trkpt lat="46.19123" lon="7.01076"><ele>510.2</ele><time>2017-06-15T09:17:01Z</time></trkpt>
<trkpt lat="46.19119" lon="7.01077"><ele>510.6</ele><time>2017-06-15T09:17:03Z</time></trkpt>
<trkpt lat="46.19116" lon="7.01077"><ele>511</ele><time>2017-06-15T09:17:05Z</time></trkpt>
<trkpt lat="46.19113" lon="7.01078"><ele>511.4</ele><time>2017-06-15T09:17:07Z</time></trkpt>
<trkpt lat="46.19109" lon="7.01079"><ele>511.8</ele><time>2017-06-15T09:17:09Z</time></trkpt>
<trkpt lat="46.19106" lon="7.01079"><ele>512.2</ele><time>2017-06-15T09:17:11Z</time></trkpt>
<trkpt lat="46.19104" lon="7.0108"><ele>512.4</ele><time>2017-06-15T09:17:12Z</time></trkpt>
<trkpt lat="46.19103" lon="7.0108"><ele>512.6</ele><time>2017-06-15T09:17:13Z</time></trkpt>
<trkpt lat="46.19099" lon="7.01081"><ele>513</ele><time>2017-06-15T09:17:15Z</time></trkpt>
<trkpt lat="46.19096" lon="7.01082"><ele>513.4</ele><time>2017-06-15T09:17:17Z</time></trkpt>
<trkpt lat="46.19094" lon="7.01082"><ele>513.6</ele><time>2017-06-15T09:17:18Z</time></trkpt>
<trkpt lat="46.19093" lon="7.01082"><ele>513.8</ele><time>2017-06-15T09:17:19Z</time></trkpt>
<trkpt lat="46.19089" lon="7.01083"><ele>514.2</ele><time>2017-06-15T09:17:21Z</time></trkpt>
<trkpt lat="46.19086" lon="7.01084"><ele>514.4</ele><time>2017-06-15T09:17:23Z</time></trkpt>
<trkpt lat="46.19083" lon="7.01084"><ele>514.8</ele><time>2017-06-15T09:17:25Z</time></trkpt>
<trkpt lat="46.19079" lon="7.01085"><ele>515.2</ele><time>2017-06-15T09:17:27Z</time></trkpt>
<trkpt lat="46.19076" lon="7.01086"><ele>515.4</ele><time>2017-06-15T09:17:29Z</time></trkpt>
<trkpt lat="46.19073" lon="7.01086"><ele>515.8</ele><time>2017-06-15T09:17:31Z</time></trkpt>
<trkpt lat="46.19069" lon="7.01087"><ele>516</ele><time>2017-06-15T09:17:33Z</time></trkpt>
<trkpt lat="46.19066" lon="7.01088"><ele>516.4</ele><time>2017-06-15T09:17:35Z</time></trkpt>
<trkpt lat="46.19063" lon="7.01089"><ele>516.8</ele><time>2017-06-15T09:17:37Z</time></trkpt>
<trkpt lat="46.19059" lon="7.01089"><ele>517</ele><time>2017-06-15T09:17:39Z</time></trkpt>
<trkpt lat="46.19057" lon="7.0109"><ele>517.4</ele><time>2017-06-15T09:17:41Z</time></trkpt>
<trkpt lat="46.19054" lon="7.01091"><ele>517.8</ele><time>2017-06-15T09:17:43Z</time></trkpt>
<trkpt lat="46.19051" lon="7.01092"><ele>518.2</ele><time>2017-06-15T09:17:45Z</time></trkpt>
<trkpt lat="46.19048" lon="7.01092"><ele>518.4</ele><time>2017-06-15T09:17:47Z</time></trkpt>
<trkpt lat="46.19045" lon="7.01093"><ele>518.8</ele><time>2017-06-15T09:17:49Z</time></trkpt>
<trkpt lat="46.19042" lon="7.01094"><ele>519.2</ele><time>2017-06-15T09:17:51Z</time></trkpt>
<trkpt lat="46.1904" lon="7.01095"><ele>519.6</ele><time>2017-06-15T09:17:53Z</time></trkpt>
<trkpt lat="46.19037" lon="7.01096"><ele>519.8</ele><time>2017-06-15T09:17:55Z</time></trkpt>
<trkpt lat="46.19035" lon="7.01096"><ele>520</ele><time>2017-06-15T09:17:56Z</time></trkpt>
<trkpt lat="46.19034" lon="7.01096"><ele>520.2</ele><time>2017-06-15T09:17:57Z</time></trkpt>
<trkpt lat="46.19031" lon="7.01097"><ele>520.6</ele><time>2017-06-15T09:17:59Z</time></trkpt>
<trkpt lat="46.19028" lon="7.01098"><ele>520.8</ele><time>2017-06-15T09:18:01Z</time></trkpt>
<trkpt lat="46.19025" lon="7.01099"><ele>521.2</ele><time>2017-06-15T09:18:03Z</time></trkpt>
<trkpt lat="46.19023" lon="7.011"><ele>521.4</ele><time>2017-06-15T09:18:05Z</time></trkpt>
<trkpt lat="46.1902" lon="7.011"><ele>521.8</ele><time>2017-06-15T09:18:07Z</time></trkpt>
<trkpt lat="46.19017" lon="7.01101"><ele>522</ele><time>2017-06-15T09:18:09Z</time></trkpt>
<trkpt lat="46.19014" lon="7.01102"><ele>522.4</ele><time>2017-06-15T09:18:11Z</time></trkpt>
<trkpt lat="46.19011" lon="7.01103"><ele>522.6</ele><time>2017-06-15T09:18:13Z</time></trkpt>
<trkpt lat="46.19008" lon="7.01104"><ele>523</ele><time>2017-06-15T09:18:15Z</time></trkpt>
<trkpt lat="46.19006" lon="7.01105"><ele>523.2</ele><time>2017-06-15T09:18:17Z</time></trkpt>
<trkpt lat="46.19004" lon="7.01106"><ele>523.4</ele><time>2017-06-15T09:18:18Z</time></trkpt>
<trkpt lat="46.19003" lon="7.01106"><ele>523.6</ele><time>2017-06-15T09:18:19Z</time></trkpt>
<trkpt lat="46.19" lon="7.01107"><ele>524</ele><time>2017-06-15T09:18:21Z</time></trkpt>
<trkpt lat="46.18997" lon="7.01108"><ele>524.4</ele><time>2017-06-15T09:18:23Z</time></trkpt>
<trkpt lat="46.18994" lon="7.01109"><ele>524.8</ele><time>2017-06-15T09:18:25Z</time></trkpt>
<trkpt lat="46.18991" lon="7.0111"><ele>525</ele><time>2017-06-15T09:18:27Z</time></trkpt>
<trkpt lat="46.18988" lon="7.01111"><ele>525.4</ele><time>2017-06-15T09:18:29Z</time></trkpt>
<trkpt lat="46.18986" lon="7.01112"><ele>525.8</ele><time>2017-06-15T09:18:31Z</time></trkpt>
<trkpt lat="46.18983" lon="7.01113"><ele>526.2</ele><time>2017-06-15T09:18:33Z</time></trkpt>
<trkpt lat="46.1898" lon="7.01114"><ele>526.6</ele><time>2017-06-15T09:18:35Z</time></trkpt>
<trkpt lat="46.18977" lon="7.01115"><ele>526.8</ele><time>2017-06-15T09:18:37Z</time></trkpt>
<trkpt lat="46.18974" lon="7.01116"><ele>527.2</ele><time>2017-06-15T09:18:39Z</time></trkpt>
<trkpt lat="46.18971" lon="7.01117"><ele>527.4</ele><time>2017-06-15T09:18:41Z</time></trkpt>
<trkpt lat="46.1897" lon="7.01118"><ele>527.6</ele><time>2017-06-15T09:18:42Z</time></trkpt>
<trkpt lat="46.18968" lon="7.01118"><ele>527.8</ele><time>2017-06-15T09:18:43Z</time></trkpt>
<trkpt lat="46.18965" lon="7.01118"><ele>528</ele><time>2017-06-15T09:18:45Z</time></trkpt>
<trkpt lat="46.18962" lon="7.01119"><ele>528.4</ele><time>2017-06-15T09:18:47Z</time></trkpt>
<trkpt lat="46.18959" lon="7.0112"><ele>528.8</ele><time>2017-06-15T09:18:49Z</time></trkpt>
<trkpt lat="46.18957" lon="7.0112"><ele>529</ele><time>2017-06-15T09:18:51Z</time></trkpt>
<trkpt lat="46.18954" lon="7.01121"><ele>529.4</ele><time>2017-06-15T09:18:53Z</time></trkpt>
<trkpt lat="46.18951" lon="7.01121"><ele>529.6</ele><time>2017-06-15T09:18:55Z</time></trkpt>
<trkpt lat="46.18948" lon="7.01122"><ele>530</ele><time>2017-06-15T09:18:57Z</time></trkpt>
<trkpt lat="46.18946" lon="7.01122"><ele>530.2</ele><time>2017-06-15T09:18:58Z</time></trkpt>
<trkpt lat="46.18945" lon="7.01122"><ele>530.2</ele><time>2017-06-15T09:18:59Z</time></trkpt>
<trkpt lat="46.18942" lon="7.01123"><ele>530.6</ele><time>2017-06-15T09:19:01Z</time></trkpt>
<trkpt lat="46.18939" lon="7.01123"><ele>530.8</ele><time>2017-06-15T09:19:03Z</time></trkpt>
<trkpt lat="46.18936" lon="7.01124"><ele>531.2</ele><time>2017-06-15T09:19:05Z</time></trkpt>
<trkpt lat="46.18933" lon="7.01124"><ele>531.4</ele><time>2017-06-15T09:19:07Z</time></trkpt>
<trkpt lat="46.1893" lon="7.01125"><ele>531.8</ele><time>2017-06-15T09:19:09Z</time></trkpt>
<trkpt lat="46.18927" lon="7.01125"><ele>532</ele><time>2017-06-15T09:19:11Z</time></trkpt>
<trkpt lat="46.18924" lon="7.01126"><ele>532.4</ele><time>2017-06-15T09:19:13Z</time></trkpt>
<trkpt lat="46.18921" lon="7.01126"><ele>532.6</ele><time>2017-06-15T09:19:15Z</time></trkpt>
<trkpt lat="46.18918" lon="7.01126"><ele>533</ele><time>2017-06-15T09:19:17Z</time></trkpt>
<trkpt lat="46.18915" lon="7.01127"><ele>533.2</ele><time>2017-06-15T09:19:19Z</time></trkpt>
<trkpt lat="46.18912" lon="7.01127"><ele>533.6</ele><time>2017-06-15T09:19:21Z</time></trkpt>
<trkpt lat="46.18909" lon="7.01127"><ele>534</ele><time>2017-06-15T09:19:23Z</time></trkpt>
<trkpt lat="46.18906" lon="7.01127"><ele>534.2</ele><time>2017-06-15T09:19:25Z</time></trkpt>
<trkpt lat="46.18903" lon="7.01127"><ele>534.6</ele><time>2017-06-15T09:19:27Z</time></trkpt>
<trkpt lat="46.18899" lon="7.01128"><ele>535</ele><time>2017-06-15T09:19:29Z</time></trkpt>
<trkpt lat="46.18896" lon="7.01128"><ele>535.2</ele><time>2017-06-15T09:19:31Z</time></trkpt>
<trkpt lat="46.18893" lon="7.01128"><ele>535.6</ele><time>2017-06-15T09:19:33Z</time></trkpt>
<trkpt lat="46.1889" lon="7.01128"><ele>536</ele><time>2017-06-15T09:19:35Z</time></trkpt>
<trkpt lat="46.18887" lon="7.01129"><ele>536.2</ele><time>2017-06-15T09:19:37Z</time></trkpt>
<trkpt lat="46.18884" lon="7.01129"><ele>536.6</ele><time>2017-06-15T09:19:39Z</time></trkpt>
<trkpt lat="46.18881" lon="7.01129"><ele>537</ele><time>2017-06-15T09:19:41Z</time></trkpt>
<trkpt lat="46.1888" lon="7.01129"><ele>537.2</ele><time>2017-06-15T09:19:42Z</time></trkpt>
<trkpt lat="46.18878" lon="7.01129"><ele>537.2</ele><time>2017-06-15T09:19:43Z</time></trkpt>
<trkpt lat="46.18875" lon="7.0113"><ele>537.6</ele><time>2017-06-15T09:19:45Z</time></trkpt>
<trkpt lat="46.18872" lon="7.01131"><ele>538</ele><time>2017-06-15T09:19:47Z</time></trkpt>
<trkpt lat="46.18869" lon="7.01131"><ele>538.4</ele><time>2017-06-15T09:19:49Z</time></trkpt>
<trkpt lat="46.18866" lon="7.01132"><ele>538.6</ele><time>2017-06-15T09:19:51Z</time></trkpt>
<trkpt lat="46.18863" lon="7.01132"><ele>539</ele><time>2017-06-15T09:19:53Z</time></trkpt>
<trkpt lat="46.1886" lon="7.01133"><ele>539.4</ele><time>2017-06-15T09:19:55Z</time></trkpt>
<trkpt lat="46.18857" lon="7.01134"><ele>539.6</ele><time>2017-06-15T09:19:57Z</time></trkpt>
<trkpt lat="46.18854" lon="7.01134"><ele>540</ele><time>2017-06-15T09:19:59Z</time></trkpt>
<trkpt lat="46.18851" lon="7.01135"><ele>540.4</ele><time>2017-06-15T09:20:01Z</time></trkpt>
<trkpt lat="46.18848" lon="7.01136"><ele>540.6</ele><time>2017-06-15T09:20:03Z</time></trkpt>
<trkpt lat="46.18845" lon="7.01136"><ele>541</ele><time>2017-06-15T09:20:05Z</time></trkpt>
<trkpt lat="46.18842" lon="7.01137"><ele>541.4</ele><time>2017-06-15T09:20:07Z</time></trkpt>
<trkpt lat="46.18839" lon="7.01137"><ele>541.6</ele><time>2017-06-15T09:20:09Z</time></trkpt>
<trkpt lat="46.18836" lon="7.01138"><ele>542</ele><time>2017-06-15T09:20:11Z</time></trkpt>
<trkpt lat="46.18833" lon="7.01139"><ele>542.4</ele><time>2017-06-15T09:20:13Z</time></trkpt>
<trkpt lat="46.18829" lon="7.01141"><ele>542.6</ele><time>2017-06-15T09:20:15Z</time></trkpt>
<trkpt lat="46.18826" lon="7.01143"><ele>543</ele><time>2017-06-15T09:20:17Z</time></trkpt>
<trkpt lat="46.18823" lon="7.01145"><ele>543.4</ele><time>2017-06-15T09:20:19Z</time></trkpt>
<trkpt lat="46.1882" lon="7.01147"><ele>543.6</ele><time>2017-06-15T09:20:21Z</time></trkpt>
<trkpt lat="46.18817" lon="7.0115"><ele>544</ele><time>2017-06-15T09:20:23Z</time></trkpt>
<trkpt lat="46.18814" lon="7.01152"><ele>544.4</ele><time>2017-06-15T09:20:25Z</time></trkpt>
<trkpt lat="46.18811" lon="7.01154"><ele>544.8</ele><time>2017-06-15T09:20:27Z</time></trkpt>
<trkpt lat="46.18807" lon="7.01156"><ele>545</ele><time>2017-06-15T09:20:29Z</time></trkpt>
<trkpt lat="46.18804" lon="7.01158"><ele>545.4</ele><time>2017-06-15T09:20:31Z</time></trkpt>
<trkpt lat="46.18801" lon="7.0116"><ele>545.8</ele><time>2017-06-15T09:20:33Z</time></trkpt>
<trkpt lat="46.18798" lon="7.01163"><ele>546.2</ele><time>2017-06-15T09:20:35Z</time></trkpt>
<trkpt lat="46.18795" lon="7.01165"><ele>546.6</ele><time>2017-06-15T09:20:37Z</time></trkpt>
<trkpt lat="46.18792" lon="7.01167"><ele>547</ele><time>2017-06-15T09:20:39Z</time></trkpt>
<trkpt lat="46.1879" lon="7.01171"><ele>547.4</ele><time>2017-06-15T09:20:41Z</time></trkpt>
<trkpt lat="46.1879" lon="7.01173"><ele>547.4</ele><time>2017-06-15T09:20:42Z</time></trkpt>
<trkpt lat="46.18789" lon="7.01175"><ele>547.6</ele><time>2017-06-15T09:20:43Z</time></trkpt>
<trkpt lat="46.18788" lon="7.01178"><ele>548</ele><time>2017-06-15T09:20:45Z</time></trkpt>
<trkpt lat="46.18786" lon="7.01182"><ele>548.2</ele><time>2017-06-15T09:20:47Z</time></trkpt>
<trkpt lat="46.18785" lon="7.01186"><ele>548.6</ele><time>2017-06-15T09:20:49Z</time></trkpt>
<trkpt lat="46.18783" lon="7.0119"><ele>549</ele><time>2017-06-15T09:20:51Z</time></trkpt>
<trkpt lat="46.18782" lon="7.01193"><ele>549.2</ele><time>2017-06-15T09:20:53Z</time></trkpt>
<trkpt lat="46.1878" lon="7.01197"><ele>549.6</ele><time>2017-06-15T09:20:55Z</time></trkpt>
<trkpt lat="46.18779" lon="7.01201"><ele>549.8</ele><time>2017-06-15T09:20:57Z</time></trkpt>
<trkpt lat="46.18777" lon="7.01205"><ele>550.2</ele><time>2017-06-15T09:20:59Z</time></trkpt>
<trkpt lat="46.18776" lon="7.01208"><ele>550.6</ele><time>2017-06-15T09:21:01Z</time></trkpt>
<trkpt lat="46.18774" lon="7.01212"><ele>550.8</ele><time>2017-06-15T09:21:03Z</time></trkpt>
<trkpt lat="46.18774" lon="7.01214"><ele>551</ele><time>2017-06-15T09:21:04Z</time></trkpt>
<trkpt lat="46.18773" lon="7.01216"><ele>551.2</ele><time>2017-06-15T09:21:05Z</time></trkpt>
<trkpt lat="46.18771" lon="7.0122"><ele>551.6</ele><time>2017-06-15T09:21:07Z</time></trkpt>
<trkpt lat="46.1877" lon="7.01223"><ele>552</ele><time>2017-06-15T09:21:09Z</time></trkpt>
<trkpt lat="46.18769" lon="7.01225"><ele>552</ele><time>2017-06-15T09:21:10Z</time></trkpt>
<trkpt lat="46.18768" lon="7.01227"><ele>552.2</ele><time>2017-06-15T09:21:11Z</time></trkpt>
<trkpt lat="46.18767" lon="7.01231"><ele>552.6</ele><time>2017-06-15T09:21:13Z</time></trkpt>
<trkpt lat="46.18765" lon="7.01234"><ele>553</ele><time>2017-06-15T09:21:15Z</time></trkpt>
<trkpt lat="46.18763" lon="7.01238"><ele>553.4</ele><time>2017-06-15T09:21:17Z</time></trkpt>
<trkpt lat="46.18761" lon="7.01241"><ele>553.6</ele><time>2017-06-15T09:21:19Z</time></trkpt>
<trkpt lat="46.1876" lon="7.01245"><ele>554</ele><time>2017-06-15T09:21:21Z</time></trkpt>
<trkpt lat="46.18758" lon="7.01249"><ele>554.4</ele><time>2017-06-15T09:21:23Z</time></trkpt>
<trkpt lat="46.18756" lon="7.01252"><ele>554.8</ele><time>2017-06-15T09:21:25Z</time></trkpt>
<trkpt lat="46.18754" lon="7.01256"><ele>555.2</ele><time>2017-06-15T09:21:27Z</time></trkpt>
<trkpt lat="46.18753" lon="7.01259"><ele>555.6</ele><time>2017-06-15T09:21:29Z</time></trkpt>
<trkpt lat="46.18751" lon="7.01263"><ele>555.8</ele><time>2017-06-15T09:21:31Z</time></trkpt>
<trkpt lat="46.18749" lon="7.01267"><ele>556.2</ele><time>2017-06-15T09:21:33Z</time></trkpt>
<trkpt lat="46.18748" lon="7.0127"><ele>556.6</ele><time>2017-06-15T09:21:35Z</time></trkpt>
<trkpt lat="46.18746" lon="7.01274"><ele>557</ele><time>2017-06-15T09:21:37Z</time></trkpt>
<trkpt lat="46.18744" lon="7.01277"><ele>557.4</ele><time>2017-06-15T09:21:39Z</time></trkpt>
<trkpt lat="46.18743" lon="7.01279"><ele>557.6</ele><time>2017-06-15T09:21:40Z</time></trkpt>
<trkpt lat="46.18741" lon="7.01279"><ele>557.8</ele><time>2017-06-15T09:21:41Z</time></trkpt>
<trkpt lat="46.1874" lon="7.01279"><ele>558</ele><time>2017-06-15T09:21:42Z</time></trkpt>
<trkpt lat="46.18738" lon="7.01279"><ele>558.2</ele><time>2017-06-15T09:21:43Z</time></trkpt>
<trkpt lat="46.18735" lon="7.01279"><ele>558.4</ele><time>2017-06-15T09:21:45Z</time></trkpt>
<trkpt lat="46.18731" lon="7.01279"><ele>558.8</ele><time>2017-06-15T09:21:47Z</time></trkpt>
<trkpt lat="46.18728" lon="7.01279"><ele>559.2</ele><time>2017-06-15T09:21:49Z</time></trkpt>
<trkpt lat="46.18725" lon="7.0128"><ele>559.4</ele><time>2017-06-15T09:21:51Z</time></trkpt>
<trkpt lat="46.18721" lon="7.0128"><ele>559.8</ele><time>2017-06-15T09:21:53Z</time></trkpt>
<trkpt lat="46.18718" lon="7.0128"><ele>560.2</ele><time>2017-06-15T09:21:55Z</time></trkpt>
<trkpt lat="46.18715" lon="7.0128"><ele>560.4</ele><time>2017-06-15T09:21:57Z</time></trkpt>
<trkpt lat="46.18712" lon="7.0128"><ele>560.8</ele><time>2017-06-15T09:21:59Z</time></trkpt>
<trkpt lat="46.18708" lon="7.0128"><ele>561.2</ele><time>2017-06-15T09:22:01Z</time></trkpt>
<trkpt lat="46.18705" lon="7.01281"><ele>561.4</ele><time>2017-06-15T09:22:03Z</time></trkpt>
<trkpt lat="46.18702" lon="7.01281"><ele>561.8</ele><time>2017-06-15T09:22:05Z</time></trkpt>
<trkpt lat="46.18698" lon="7.01281"><ele>562.2</ele><time>2017-06-15T09:22:07Z</time></trkpt>
<trkpt lat="46.18697" lon="7.01281"><ele>562.4</ele><time>2017-06-15T09:22:08Z</time></trkpt>
<trkpt lat="46.18695" lon="7.0128"><ele>562.4</ele><time>2017-06-15T09:22:09Z</time></trkpt>
<trkpt lat="46.18692" lon="7.01279"><ele>562.8</ele><time>2017-06-15T09:22:11Z</time></trkpt>
<trkpt lat="46.18689" lon="7.01278"><ele>563.2</ele><time>2017-06-15T09:22:13Z</time></trkpt>
<trkpt lat="46.18686" lon="7.01277"><ele>563.4</ele><time>2017-06-15T09:22:15Z</time></trkpt>
<trkpt lat="46.18683" lon="7.01276"><ele>563.8</ele><time>2017-06-15T09:22:17Z</time></trkpt>
<trkpt lat="46.1868" lon="7.01275"><ele>564.2</ele><time>2017-06-15T09:22:19Z</time></trkpt>
<trkpt lat="46.18677" lon="7.01274"><ele>564.4</ele><time>2017-06-15T09:22:21Z</time></trkpt>
<trkpt lat="46.18674" lon="7.01273"><ele>564.8</ele><time>2017-06-15T09:22:23Z</time></trkpt>
<trkpt lat="46.18671" lon="7.01272"><ele>565.2</ele><time>2017-06-15T09:22:25Z</time></trkpt>
<trkpt lat="46.18668" lon="7.01271"><ele>565.4</ele><time>2017-06-15T09:22:27Z</time></trkpt>
<trkpt lat="46.18665" lon="7.0127"><ele>565.8</ele><time>2017-06-15T09:22:29Z</time></trkpt>
<trkpt lat="46.18662" lon="7.01269"><ele>566.2</ele><time>2017-06-15T09:22:31Z</time></trkpt>
<trkpt lat="46.18659" lon="7.01268"><ele>566.6</ele><time>2017-06-15T09:22:33Z</time></trkpt>
<trkpt lat="46.18656" lon="7.01267"><ele>567</ele><time>2017-06-15T09:22:35Z</time></trkpt>
<trkpt lat="46.18653" lon="7.01266"><ele>567.4</ele><time>2017-06-15T09:22:37Z</time></trkpt>
<trkpt lat="46.18651" lon="7.01265"><ele>567.6</ele><time>2017-06-15T09:22:39Z</time></trkpt>
<trkpt lat="46.18648" lon="7.01263"><ele>568</ele><time>2017-06-15T09:22:41Z</time></trkpt>
<trkpt lat="46.18646" lon="7.01262"><ele>568.4</ele><time>2017-06-15T09:22:43Z</time></trkpt>
<trkpt lat="46.18643" lon="7.01261"><ele>568.8</ele><time>2017-06-15T09:22:45Z</time></trkpt>
<trkpt lat="46.18641" lon="7.0126"><ele>569</ele><time>2017-06-15T09:22:47Z</time></trkpt>
<trkpt lat="46.18638" lon="7.01258"><ele>569.4</ele><time>2017-06-15T09:22:49Z</time></trkpt>
<trkpt lat="46.18636" lon="7.01257"><ele>569.8</ele><time>2017-06-15T09:22:51Z</time></trkpt>
<trkpt lat="46.18633" lon="7.01256"><ele>570</ele><time>2017-06-15T09:22:53Z</time></trkpt>
<trkpt lat="46.18631" lon="7.01254"><ele>570.4</ele><time>2017-06-15T09:22:55Z</time></trkpt>
<trkpt lat="46.18628" lon="7.01253"><ele>570.6</ele><time>2017-06-15T09:22:57Z</time></trkpt>
<trkpt lat="46.18626" lon="7.01252"><ele>571</ele><time>2017-06-15T09:22:59Z</time></trkpt>
<trkpt lat="46.18623" lon="7.01251"><ele>571.4</ele><time>2017-06-15T09:23:01Z</time></trkpt>
<trkpt lat="46.18621" lon="7.01249"><ele>571.6</ele><time>2017-06-15T09:23:03Z</time></trkpt>
<trkpt lat="46.18618" lon="7.01248"><ele>572</ele><time>2017-06-15T09:23:05Z</time></trkpt>
<trkpt lat="46.18616" lon="7.01247"><ele>572.2</ele><time>2017-06-15T09:23:07Z</time></trkpt>
<trkpt lat="46.18613" lon="7.01246"><ele>572.6</ele><time>2017-06-15T09:23:09Z</time></trkpt>
<trkpt lat="46.18611" lon="7.01244"><ele>573</ele><time>2017-06-15T09:23:11Z</time></trkpt>
<trkpt lat="46.18609" lon="7.01244"><ele>573.2</ele><time>2017-06-15T09:23:12Z</time></trkpt>
<trkpt lat="46.18608" lon="7.01243"><ele>573.2</ele><time>2017-06-15T09:23:13Z</time></trkpt>
<trkpt lat="46.18605" lon="7.01242"><ele>573.6</ele><time>2017-06-15T09:23:15Z</time></trkpt>
<trkpt lat="46.18602" lon="7.01241"><ele>574</ele><time>2017-06-15T09:23:17Z</time></trkpt>
<trkpt lat="46.18598" lon="7.01239"><ele>574.4</ele><time>2017-06-15T09:23:19Z</time></trkpt>
<trkpt lat="46.18595" lon="7.01238"><ele>574.6</ele><time>2017-06-15T09:23:21Z</time></trkpt>
<trkpt lat="46.18592" lon="7.01237"><ele>575</ele><time>2017-06-15T09:23:23Z</time></trkpt>
<trkpt lat="46.18589" lon="7.01236"><ele>575.4</ele><time>2017-06-15T09:23:25Z</time></trkpt>
<trkpt lat="46.18586" lon="7.01234"><ele>575.6</ele><time>2017-06-15T09:23:27Z</time></trkpt>
<trkpt lat="46.18582" lon="7.01233"><ele>576</ele><time>2017-06-15T09:23:29Z</time></trkpt>
<trkpt lat="46.18579" lon="7.01232"><ele>576.4</ele><time>2017-06-15T09:23:31Z</time></trkpt>
<trkpt lat="46.18578" lon="7.01231"><ele>576.4</ele><time>2017-06-15T09:23:32Z</time></trkpt>
<trkpt lat="46.18576" lon="7.01231"><ele>576.6</ele><time>2017-06-15T09:23:33Z</time></trkpt>
<trkpt lat="46.18573" lon="7.01229"><ele>577</ele><time>2017-06-15T09:23:35Z</time></trkpt>
<trkpt lat="46.1857" lon="7.01228"><ele>577.2</ele><time>2017-06-15T09:23:37Z</time></trkpt>
<trkpt lat="46.18566" lon="7.01227"><ele>577.6</ele><time>2017-06-15T09:23:39Z</time></trkpt>
<trkpt lat="46.18565" lon="7.01226"><ele>577.6</ele><time>2017-06-15T09:23:40Z</time></trkpt>
<trkpt lat="46.18564" lon="7.01225"><ele>577.8</ele><time>2017-06-15T09:23:41Z</time></trkpt>
<trkpt lat="46.18561" lon="7.01223"><ele>578</ele><time>2017-06-15T09:23:43Z</time></trkpt>
<trkpt lat="46.18558" lon="7.01221"><ele>578.4</ele><time>2017-06-15T09:23:45Z</time></trkpt>
<trkpt lat="46.18556" lon="7.01219"><ele>578.6</ele><time>2017-06-15T09:23:47Z</time></trkpt>
<trkpt lat="46.18553" lon="7.01217"><ele>579</ele><time>2017-06-15T09:23:49Z</time></trkpt>
<trkpt lat="46.1855" lon="7.01215"><ele>579.2</ele><time>2017-06-15T09:23:51Z</time></trkpt>
<trkpt lat="46.18548" lon="7.01213"><ele>579.6</ele><time>2017-06-15T09:23:53Z</time></trkpt>
<trkpt lat="46.18545" lon="7.01211"><ele>579.8</ele><time>2017-06-15T09:23:55Z</time></trkpt>
<trkpt lat="46.18542" lon="7.01209"><ele>580.2</ele><time>2017-06-15T09:23:57Z</time></trkpt>
<trkpt lat="46.1854" lon="7.01207"><ele>580.6</ele><time>2017-06-15T09:23:59Z</time></trkpt>
<trkpt lat="46.18537" lon="7.01206"><ele>580.8</ele><time>2017-06-15T09:24:01Z</time></trkpt>
<trkpt lat="46.18535" lon="7.01204"><ele>581.2</ele><time>2017-06-15T09:24:03Z</time></trkpt>
<trkpt lat="46.18532" lon="7.01202"><ele>581.6</ele><time>2017-06-15T09:24:05Z</time></trkpt>
<trkpt lat="46.18529" lon="7.012"><ele>582</ele><time>2017-06-15T09:24:07Z</time></trkpt>
<trkpt lat="46.18527" lon="7.01198"><ele>582.2</ele><time>2017-06-15T09:24:09Z</time></trkpt>
<trkpt lat="46.18524" lon="7.01196"><ele>582.6</ele><time>2017-06-15T09:24:11Z</time></trkpt>
<trkpt lat="46.18521" lon="7.01193"><ele>583</ele><time>2017-06-15T09:24:13Z</time></trkpt>
<trkpt lat="46.1852" lon="7.01192"><ele>583.2</ele><time>2017-06-15T09:24:14Z</time></trkpt>
<trkpt lat="46.18519" lon="7.0119"><ele>583.2</ele><time>2017-06-15T09:24:15Z</time></trkpt>
<trkpt lat="46.18516" lon="7.01188"><ele>583.6</ele><time>2017-06-15T09:24:17Z</time></trkpt>
<trkpt lat="46.18513" lon="7.01185"><ele>584</ele><time>2017-06-15T09:24:19Z</time></trkpt>
<trkpt lat="46.1851" lon="7.01182"><ele>584.4</ele><time>2017-06-15T09:24:21Z</time></trkpt>
<trkpt lat="46.18508" lon="7.0118"><ele>584.8</ele><time>2017-06-15T09:24:23Z</time></trkpt>
<trkpt lat="46.18505" lon="7.01177"><ele>585</ele><time>2017-06-15T09:24:25Z</time></trkpt>
<trkpt lat="46.18502" lon="7.01175"><ele>585.4</ele><time>2017-06-15T09:24:27Z</time></trkpt>
<trkpt lat="46.185" lon="7.01172"><ele>585.8</ele><time>2017-06-15T09:24:29Z</time></trkpt>
<trkpt lat="46.18497" lon="7.01169"><ele>586.2</ele><time>2017-06-15T09:24:31Z</time></trkpt>
<trkpt lat="46.18494" lon="7.01167"><ele>586.4</ele><time>2017-06-15T09:24:33Z</time></trkpt>
<trkpt lat="46.18491" lon="7.01164"><ele>586.8</ele><time>2017-06-15T09:24:35Z</time></trkpt>
<trkpt lat="46.18489" lon="7.01162"><ele>587.2</ele><time>2017-06-15T09:24:37Z</time></trkpt>
<trkpt lat="46.18486" lon="7.01159"><ele>587.6</ele><time>2017-06-15T09:24:39Z</time></trkpt>
<trkpt lat="46.18484" lon="7.01155"><ele>587.8</ele><time>2017-06-15T09:24:41Z</time></trkpt>
<trkpt lat="46.18482" lon="7.01152"><ele>588.2</ele><time>2017-06-15T09:24:43Z</time></trkpt>
<trkpt lat="46.1848" lon="7.01148"><ele>588.6</ele><time>2017-06-15T09:24:45Z</time></trkpt>
<trkpt lat="46.18478" lon="7.01145"><ele>589</ele><time>2017-06-15T09:24:47Z</time></trkpt>
<trkpt lat="46.18476" lon="7.01141"><ele>589.2</ele><time>2017-06-15T09:24:49Z</time></trkpt>
<trkpt lat="46.18474" lon="7.01137"><ele>589.6</ele><time>2017-06-15T09:24:51Z</time></trkpt>
<trkpt lat="46.18473" lon="7.01134"><ele>590</ele><time>2017-06-15T09:24:53Z</time></trkpt>
<trkpt lat="46.18471" lon="7.0113"><ele>590.4</ele><time>2017-06-15T09:24:55Z</time></trkpt>
<trkpt lat="46.18469" lon="7.01127"><ele>590.6</ele><time>2017-06-15T09:24:57Z</time></trkpt>
<trkpt lat="46.18467" lon="7.01123"><ele>591</ele><time>2017-06-15T09:24:59Z</time></trkpt>
<trkpt lat="46.18465" lon="7.0112"><ele>591.4</ele><time>2017-06-15T09:25:01Z</time></trkpt>
<trkpt lat="46.18463" lon="7.01116"><ele>591.8</ele><time>2017-06-15T09:25:03Z</time></trkpt>
<trkpt lat="46.18461" lon="7.01113"><ele>592.2</ele><time>2017-06-15T09:25:05Z</time></trkpt>
<trkpt lat="46.18459" lon="7.01109"><ele>592.6</ele><time>2017-06-15T09:25:07Z</time></trkpt>
<trkpt lat="46.18459" lon="7.01107"><ele>592.8</ele><time>2017-06-15T09:25:08Z</time></trkpt>
<trkpt lat="46.18459" lon="7.01106"><ele>593</ele><time>2017-06-15T09:25:09Z</time></trkpt>
<trkpt lat="46.18461" lon="7.01103"><ele>593.4</ele><time>2017-06-15T09:25:11Z</time></trkpt>
<trkpt lat="46.18462" lon="7.01099"><ele>593.6</ele><time>2017-06-15T09:25:13Z</time></trkpt>
<trkpt lat="46.18463" lon="7.01098"><ele>593.8</ele><time>2017-06-15T09:25:14Z</time></trkpt>
<trkpt lat="46.18463" lon="7.01096"><ele>594</ele><time>2017-06-15T09:25:15Z</time></trkpt>
<trkpt lat="46.18465" lon="7.01093"><ele>594.4</ele><time>2017-06-15T09:25:17Z</time></trkpt>
<trkpt lat="46.18466" lon="7.0109"><ele>594.6</ele><time>2017-06-15T09:25:19Z</time></trkpt>
<trkpt lat="46.18468" lon="7.01087"><ele>595</ele><time>2017-06-15T09:25:21Z</time></trkpt>
<trkpt lat="46.18469" lon="7.01084"><ele>595.4</ele><time>2017-06-15T09:25:23Z</time></trkpt>
<trkpt lat="46.1847" lon="7.01081"><ele>595.6</ele><time>2017-06-15T09:25:25Z</time></trkpt>
<trkpt lat="46.18472" lon="7.01077"><ele>596</ele><time>2017-06-15T09:25:27Z</time></trkpt>
<trkpt lat="46.18473" lon="7.01074"><ele>596.2</ele><time>2017-06-15T09:25:29Z</time></trkpt>
<trkpt lat="46.18475" lon="7.01071"><ele>596.6</ele><time>2017-06-15T09:25:31Z</time></trkpt>
<trkpt lat="46.18476" lon="7.01068"><ele>597</ele><time>2017-06-15T09:25:33Z</time></trkpt>
<trkpt lat="46.18477" lon="7.01065"><ele>597.2</ele><time>2017-06-15T09:25:35Z</time></trkpt>
<trkpt lat="46.18478" lon="7.01062"><ele>597.6</ele><time>2017-06-15T09:25:37Z</time></trkpt>
<trkpt lat="46.18475" lon="7.01061"><ele>597.8</ele><time>2017-06-15T09:25:39Z</time></trkpt>
<trkpt lat="46.18471" lon="7.0106"><ele>598</ele><time>2017-06-15T09:25:41Z</time></trkpt>
<trkpt lat="46.18468" lon="7.0106"><ele>598.4</ele><time>2017-06-15T09:25:43Z</time></trkpt>
<trkpt lat="46.18465" lon="7.01059"><ele>598.6</ele><time>2017-06-15T09:25:45Z</time></trkpt>
<trkpt lat="46.18462" lon="7.01058"><ele>598.8</ele><time>2017-06-15T09:25:47Z</time></trkpt>
<trkpt lat="46.18458" lon="7.01057"><ele>599</ele><time>2017-06-15T09:25:49Z</time></trkpt>
<trkpt lat="46.18455" lon="7.01056"><ele>599.4</ele><time>2017-06-15T09:25:51Z</time></trkpt>
<trkpt lat="46.18452" lon="7.01056"><ele>599.6</ele><time>2017-06-15T09:25:53Z</time></trkpt>
<trkpt lat="46.18448" lon="7.01055"><ele>599.8</ele><time>2017-06-15T09:25:55Z</time></trkpt>
<trkpt lat="46.18445" lon="7.01054"><ele>600.2</ele><time>2017-06-15T09:25:57Z</time></trkpt>
<trkpt lat="46.18443" lon="7.01054"><ele>600.2</ele><time>2017-06-15T09:25:58Z</time></trkpt>
<trkpt lat="46.18442" lon="7.01053"><ele>600.4</ele><time>2017-06-15T09:25:59Z</time></trkpt>
<trkpt lat="46.18438" lon="7.01053"><ele>600.8</ele><time>2017-06-15T09:26:01Z</time></trkpt>
<trkpt lat="46.18435" lon="7.01052"><ele>601</ele><time>2017-06-15T09:26:03Z</time></trkpt>
<trkpt lat="46.18434" lon="7.01051"><ele>601.2</ele><time>2017-06-15T09:26:04Z</time></trkpt>
<trkpt lat="46.18432" lon="7.01051"><ele>601.4</ele><time>2017-06-15T09:26:05Z</time></trkpt>
<trkpt lat="46.18429" lon="7.01049"><ele>601.8</ele><time>2017-06-15T09:26:07Z</time></trkpt>
<trkpt lat="46.18426" lon="7.01048"><ele>602</ele><time>2017-06-15T09:26:09Z</time></trkpt>
<trkpt lat="46.18423" lon="7.01046"><ele>602.4</ele><time>2017-06-15T09:26:11Z</time></trkpt>
<trkpt lat="46.1842" lon="7.01045"><ele>602.6</ele><time>2017-06-15T09:26:13Z</time></trkpt>
<trkpt lat="46.18417" lon="7.01044"><ele>603</ele><time>2017-06-15T09:26:15Z</time></trkpt>
<trkpt lat="46.18414" lon="7.01042"><ele>603.2</ele><time>2017-06-15T09:26:17Z</time></trkpt>
<trkpt lat="46.1841" lon="7.01041"><ele>603.6</ele><time>2017-06-15T09:26:19Z</time></trkpt>
<trkpt lat="46.18407" lon="7.0104"><ele>603.8</ele><time>2017-06-15T09:26:21Z</time></trkpt>
<trkpt lat="46.18404" lon="7.01038"><ele>604.2</ele><time>2017-06-15T09:26:23Z</time></trkpt>
<trkpt lat="46.18401" lon="7.01037"><ele>604.4</ele><time>2017-06-15T09:26:25Z</time></trkpt>
<trkpt lat="46.18398" lon="7.01036"><ele>604.8</ele><time>2017-06-15T09:26:27Z</time></trkpt>
<trkpt lat="46.18395" lon="7.01034"><ele>605</ele><time>2017-06-15T09:26:29Z</time></trkpt>
<trkpt lat="46.18392" lon="7.01033"><ele>605.4</ele><time>2017-06-15T09:26:31Z</time></trkpt>
<trkpt lat="46.18391" lon="7.01032"><ele>605.6</ele><time>2017-06-15T09:26:32Z</time></trkpt>
<trkpt lat="46.18389" lon="7.01031"><ele>605.6</ele><time>2017-06-15T09:26:33Z</time></trkpt>
<trkpt lat="46.18387" lon="7.01028"><ele>606</ele><time>2017-06-15T09:26:35Z</time></trkpt>
<trkpt lat="46.18384" lon="7.01025"><ele>606.4</ele><time>2017-06-15T09:26:37Z</time></trkpt>
<trkpt lat="46.18382" lon="7.01022"><ele>606.8</ele><time>2017-06-15T09:26:39Z</time></trkpt>
<trkpt lat="46.1838" lon="7.0102"><ele>607.2</ele><time>2017-06-15T09:26:41Z</time></trkpt>
<trkpt lat="46.18377" lon="7.01017"><ele>607.6</ele><time>2017-06-15T09:26:43Z</time></trkpt>
<trkpt lat="46.18375" lon="7.01014"><ele>607.8</ele><time>2017-06-15T09:26:45Z</time></trkpt>
<trkpt lat="46.18372" lon="7.01012"><ele>608.2</ele><time>2017-06-15T09:26:47Z</time></trkpt>
<trkpt lat="46.1837" lon="7.01009"><ele>608.6</ele><time>2017-06-15T09:26:49Z</time></trkpt>
<trkpt lat="46.18367" lon="7.01006"><ele>609</ele><time>2017-06-15T09:26:51Z</time></trkpt>
<trkpt lat="46.18365" lon="7.01004"><ele>609.4</ele><time>2017-06-15T09:26:53Z</time></trkpt>
<trkpt lat="46.18362" lon="7.01001"><ele>609.8</ele><time>2017-06-15T09:26:55Z</time></trkpt>
<trkpt lat="46.1836" lon="7.00998"><ele>610.2</ele><time>2017-06-15T09:26:57Z</time></trkpt>
<trkpt lat="46.18358" lon="7.00995"><ele>610.4</ele><time>2017-06-15T09:26:59Z</time></trkpt>
<trkpt lat="46.18355" lon="7.00993"><ele>610.8</ele><time>2017-06-15T09:27:01Z</time></trkpt>
<trkpt lat="46.18354" lon="7.00991"><ele>611</ele><time>2017-06-15T09:27:02Z</time></trkpt>
<trkpt lat="46.18353" lon="7.00989"><ele>611.2</ele><time>2017-06-15T09:27:03Z</time></trkpt>
<trkpt lat="46.18352" lon="7.00985"><ele>611.6</ele><time>2017-06-15T09:27:05Z</time></trkpt>
<trkpt lat="46.18351" lon="7.00981"><ele>612</ele><time>2017-06-15T09:27:07Z</time></trkpt>
<trkpt lat="46.18349" lon="7.00977"><ele>612.4</ele><time>2017-06-15T09:27:09Z</time></trkpt>
<trkpt lat="46.18349" lon="7.00975"><ele>612.6</ele><time>2017-06-15T09:27:10Z</time></trkpt>
<trkpt lat="46.18348" lon="7.00972"><ele>612.8</ele><time>2017-06-15T09:27:11Z</time></trkpt>
<trkpt lat="46.18347" lon="7.00968"><ele>613.2</ele><time>2017-06-15T09:27:13Z</time></trkpt>
<trkpt lat="46.18346" lon="7.00964"><ele>613.6</ele><time>2017-06-15T09:27:15Z</time></trkpt>
<trkpt lat="46.18344" lon="7.0096"><ele>614</ele><time>2017-06-15T09:27:17Z</time></trkpt>
<trkpt lat="46.18343" lon="7.00956"><ele>614.4</ele><time>2017-06-15T09:27:19Z</time></trkpt>
<trkpt lat="46.18342" lon="7.00952"><ele>614.8</ele><time>2017-06-15T09:27:21Z</time></trkpt>
<trkpt lat="46.1834" lon="7.00947"><ele>615.2</ele><time>2017-06-15T09:27:23Z</time></trkpt>
<trkpt lat="46.18339" lon="7.00943"><ele>615.6</ele><time>2017-06-15T09:27:25Z</time></trkpt>
<trkpt lat="46.18338" lon="7.00939"><ele>616</ele><time>2017-06-15T09:27:27Z</time></trkpt>
<trkpt lat="46.18336" lon="7.00935"><ele>616.4</ele><time>2017-06-15T09:27:29Z</time></trkpt>
<trkpt lat="46.18335" lon="7.00931"><ele>616.6</ele><time>2017-06-15T09:27:31Z</time></trkpt>
<trkpt lat="46.18332" lon="7.00928"><ele>617</ele><time>2017-06-15T09:27:33Z</time></trkpt>
<trkpt lat="46.18329" lon="7.00925"><ele>617.4</ele><time>2017-06-15T09:27:35Z</time></trkpt>
<trkpt lat="46.18325" lon="7.00922"><ele>617.6</ele><time>2017-06-15T09:27:37Z</time></trkpt>
<trkpt lat="46.18322" lon="7.00919"><ele>618</ele><time>2017-06-15T09:27:39Z</time></trkpt>
<trkpt lat="46.18319" lon="7.00916"><ele>618.2</ele><time>2017-06-15T09:27:41Z</time></trkpt>
<trkpt lat="46.18316" lon="7.00913"><ele>618.6</ele><time>2017-06-15T09:27:43Z</time></trkpt>
<trkpt lat="46.18313" lon="7.0091"><ele>619</ele><time>2017-06-15T09:27:45Z</time></trkpt>
<trkpt lat="46.1831" lon="7.00907"><ele>619.2</ele><time>2017-06-15T09:27:47Z</time></trkpt>
<trkpt lat="46.18307" lon="7.00904"><ele>619.6</ele><time>2017-06-15T09:27:49Z</time></trkpt>
<trkpt lat="46.18304" lon="7.009"><ele>620</ele><time>2017-06-15T09:27:51Z</time></trkpt>
<trkpt lat="46.18301" lon="7.00897"><ele>620.4</ele><time>2017-06-15T09:27:53Z</time></trkpt>
<trkpt lat="46.18298" lon="7.00894"><ele>620.8</ele><time>2017-06-15T09:27:55Z</time></trkpt>
<trkpt lat="46.18296" lon="7.00893"><ele>621</ele><time>2017-06-15T09:27:56Z</time></trkpt>
<trkpt lat="46.18295" lon="7.00892"><ele>621.2</ele><time>2017-06-15T09:27:57Z</time></trkpt>
<trkpt lat="46.18292" lon="7.0089"><ele>621.6</ele><time>2017-06-15T09:27:59Z</time></trkpt>
<trkpt lat="46.18288" lon="7.00888"><ele>622</ele><time>2017-06-15T09:28:01Z</time></trkpt>
<trkpt lat="46.18285" lon="7.00886"><ele>622.4</ele><time>2017-06-15T09:28:03Z</time></trkpt>
<trkpt lat="46.18283" lon="7.00885"><ele>622.6</ele><time>2017-06-15T09:28:04Z</time></trkpt>
<trkpt lat="46.18282" lon="7.00884"><ele>622.8</ele><time>2017-06-15T09:28:05Z</time></trkpt>
<trkpt lat="46.18278" lon="7.00883"><ele>623.2</ele><time>2017-06-15T09:28:07Z</time></trkpt>
<trkpt lat="46.18275" lon="7.00882"><ele>623.6</ele><time>2017-06-15T09:28:09Z</time></trkpt>
<trkpt lat="46.18271" lon="7.00882"><ele>624</ele><time>2017-06-15T09:28:11Z</time></trkpt>
<trkpt lat="46.18267" lon="7.00881"><ele>624.4</ele><time>2017-06-15T09:28:13Z</time></trkpt>
<trkpt lat="46.18263" lon="7.0088"><ele>624.8</ele><time>2017-06-15T09:28:15Z</time></trkpt>
<trkpt lat="46.1826" lon="7.00878"><ele>625.2</ele><time>2017-06-15T09:28:17Z</time></trkpt>
<trkpt lat="46.18257" lon="7.00876"><ele>625.6</ele><time>2017-06-15T09:28:19Z</time></trkpt>
<trkpt lat="46.18255" lon="7.00875"><ele>625.6</ele><time>2017-06-15T09:28:20Z</time></trkpt>
<trkpt lat="46.18254" lon="7.00874"><ele>625.8</ele><time>2017-06-15T09:28:21Z</time></trkpt>
<trkpt lat="46.1825" lon="7.00872"><ele>626</ele><time>2017-06-15T09:28:23Z</time></trkpt>
<trkpt lat="46.1823" lon="7.00887"><ele>626.6</ele><time>2017-06-15T09:28:26Z</time></trkpt>
<trkpt lat="46.1823" lon="7.00887"><ele>626.6</ele><time>2017-06-15T09:29:37Z</time></trkpt>
<trkpt lat="46.18213" lon="7.00904"><ele>627</ele><time>2017-06-15T09:29:39Z</time></trkpt>
<trkpt lat="46.18212" lon="7.00905"><ele>627</ele><time>2017-06-15T09:29:41Z</time></trkpt>
<trkpt lat="46.18211" lon="7.00906"><ele>627</ele><time>2017-06-15T09:29:43Z</time></trkpt>
<trkpt lat="46.1821" lon="7.00907"><ele>626.8</ele><time>2017-06-15T09:29:45Z</time></trkpt>
<trkpt lat="46.18208" lon="7.00909"><ele>626.8</ele><time>2017-06-15T09:29:47Z</time></trkpt>
<trkpt lat="46.18207" lon="7.00909"><ele>626.8</ele><time>2017-06-15T09:29:49Z</time></trkpt>
<trkpt lat="46.18209" lon="7.00922"><ele>625</ele><time>2017-06-15T09:29:51Z</time></trkpt>
<trkpt lat="46.18209" lon="7.00922"><ele>625</ele><time>2017-06-15T09:33:03Z</time></trkpt>
<trkpt lat="46.18212" lon="7.00938"><ele>623.2</ele><time>2017-06-15T09:33:05Z</time></trkpt>
<trkpt lat="46.18212" lon="7.00939"><ele>623.2</ele><time>2017-06-15T09:33:07Z</time></trkpt>
<trkpt lat="46.18213" lon="7.00939"><ele>623.2</ele><time>2017-06-15T09:33:09Z</time></trkpt>
<trkpt lat="46.18214" lon="7.00941"><ele>623.2</ele><time>2017-06-15T09:33:10Z</time></trkpt>
<trkpt lat="46.1822" lon="7.00948"><ele>623</ele><time>2017-06-15T09:33:11Z</time></trkpt>
<trkpt lat="46.18231" lon="7.00961"><ele>623</ele><time>2017-06-15T09:33:13Z</time></trkpt>
<trkpt lat="46.18243" lon="7.00973"><ele>623</ele><time>2017-06-15T09:33:15Z</time></trkpt>
<trkpt lat="46.18248" lon="7.00981"><ele>623</ele><time>2017-06-15T09:33:16Z</time></trkpt>
<trkpt lat="46.18251" lon="7.00992"><ele>623</ele><time>2017-06-15T09:33:17Z</time></trkpt>
<trkpt lat="46.18257" lon="7.01013"><ele>623</ele><time>2017-06-15T09:33:19Z</time></trkpt>
<trkpt lat="46.18253" lon="7.01031"><ele>622.6</ele><time>2017-06-15T09:33:21Z</time></trkpt>
<trkpt lat="46.18234" lon="7.01046"><ele>620.6</ele><time>2017-06-15T09:33:23Z</time></trkpt>
<trkpt lat="46.18231" lon="7.01053"><ele>619.4</ele><time>2017-06-15T09:33:24Z</time></trkpt>
<trkpt lat="46.18228" lon="7.01061"><ele>618.4</ele><time>2017-06-15T09:33:25Z</time></trkpt>
<trkpt lat="46.18227" lon="7.0107"><ele>617.4</ele><time>2017-06-15T09:33:26Z</time></trkpt>
<trkpt lat="46.18229" lon="7.01074"><ele>616.6</ele><time>2017-06-15T09:33:27Z</time></trkpt>
<trkpt lat="46.18241" lon="7.01059"><ele>615.4</ele><time>2017-06-15T09:33:29Z</time></trkpt>
<trkpt lat="46.18247" lon="7.01054"><ele>615</ele><time>2017-06-15T09:33:30Z</time></trkpt>
<trkpt lat="46.18254" lon="7.01055"><ele>614.4</ele><time>2017-06-15T09:33:31Z</time></trkpt>
<trkpt lat="46.18262" lon="7.01058"><ele>614</ele><time>2017-06-15T09:33:32Z</time></trkpt>
<trkpt lat="46.18272" lon="7.01065"><ele>613.4</ele><time>2017-06-15T09:33:33Z</time></trkpt>
<trkpt lat="46.18287" lon="7.01083"><ele>611.6</ele><time>2017-06-15T09:33:35Z</time></trkpt>
<trkpt lat="46.18287" lon="7.01097"><ele>610.8</ele><time>2017-06-15T09:33:36Z</time></trkpt>
<trkpt lat="46.18296" lon="7.01105"><ele>610</ele><time>2017-06-15T09:33:37Z</time></trkpt>
<trkpt lat="46.18316" lon="7.01122"><ele>608.2</ele><time>2017-06-15T09:33:39Z</time></trkpt>
<trkpt lat="46.18326" lon="7.0113"><ele>607</ele><time>2017-06-15T09:33:40Z</time></trkpt>
<trkpt lat="46.18335" lon="7.01137"><ele>605.8</ele><time>2017-06-15T09:33:41Z</time></trkpt>
<trkpt lat="46.18343" lon="7.01144"><ele>604.6</ele><time>2017-06-15T09:33:42Z</time></trkpt>
<trkpt lat="46.18346" lon="7.01153"><ele>603.4</ele><time>2017-06-15T09:33:43Z</time></trkpt>
<trkpt lat="46.18346" lon="7.01163"><ele>602.2</ele><time>2017-06-15T09:33:44Z</time></trkpt>
<trkpt lat="46.18345" lon="7.01173"><ele>601.2</ele><time>2017-06-15T09:33:45Z</time></trkpt>
<trkpt lat="46.1834" lon="7.01178"><ele>600.2</ele><time>2017-06-15T09:33:46Z</time></trkpt>
<trkpt lat="46.18332" lon="7.01178"><ele>599.2</ele><time>2017-06-15T09:33:47Z</time></trkpt>
<trkpt lat="46.18314" lon="7.01178"><ele>597.4</ele><time>2017-06-15T09:33:49Z</time></trkpt>
<trkpt lat="46.18306" lon="7.0118"><ele>596.8</ele><time>2017-06-15T09:33:50Z</time></trkpt>
<trkpt lat="46.18297" lon="7.01186"><ele>596.4</ele><time>2017-06-15T09:33:51Z</time></trkpt>
<trkpt lat="46.1829" lon="7.01193"><ele>595.8</ele><time>2017-06-15T09:33:52Z</time></trkpt>
<trkpt lat="46.18284" lon="7.01202"><ele>595.2</ele><time>2017-06-15T09:33:53Z</time></trkpt>
<trkpt lat="46.18273" lon="7.01223"><ele>593.8</ele><time>2017-06-15T09:33:55Z</time></trkpt>
<trkpt lat="46.18271" lon="7.01235"><ele>593</ele><time>2017-06-15T09:33:56Z</time></trkpt>
<trkpt lat="46.18275" lon="7.01247"><ele>592.2</ele><time>2017-06-15T09:33:57Z</time></trkpt>
<trkpt lat="46.18279" lon="7.0126"><ele>591.4</ele><time>2017-06-15T09:33:58Z</time></trkpt>
<trkpt lat="46.18286" lon="7.01273"><ele>590.6</ele><time>2017-06-15T09:33:59Z</time></trkpt>
<trkpt lat="46.18292" lon="7.01286"><ele>589.8</ele><time>2017-06-15T09:34:00Z</time></trkpt>
<trkpt lat="46.18299" lon="7.01297"><ele>588.8</ele><time>2017-06-15T09:34:01Z</time></trkpt>
<trkpt lat="46.18304" lon="7.01311"><ele>587.6</ele><time>2017-06-15T09:34:02Z</time></trkpt>
<trkpt lat="46.18306" lon="7.01328"><ele>586.6</ele><time>2017-06-15T09:34:03Z</time></trkpt>
<trkpt lat="46.18304" lon="7.01344"><ele>585.4</ele><time>2017-06-15T09:34:04Z</time></trkpt>
<trkpt lat="46.18297" lon="7.01359"><ele>584.2</ele><time>2017-06-15T09:34:05Z</time></trkpt>
<trkpt lat="46.1829" lon="7.01372"><ele>583</ele><time>2017-06-15T09:34:06Z</time></trkpt>
<trkpt lat="46.18281" lon="7.01384"><ele>581.8</ele><time>2017-06-15T09:34:07Z</time></trkpt>
<trkpt lat="46.18264" lon="7.01408"><ele>579</ele><time>2017-06-15T09:34:09Z</time></trkpt>
<trkpt lat="46.18259" lon="7.01421"><ele>577.6</ele><time>2017-06-15T09:34:10Z</time></trkpt>
<trkpt lat="46.18258" lon="7.01435"><ele>576.2</ele><time>2017-06-15T09:34:11Z</time></trkpt>
<trkpt lat="46.18261" lon="7.01463"><ele>573.4</ele><time>2017-06-15T09:34:13Z</time></trkpt>
<trkpt lat="46.18265" lon="7.01474"><ele>571.8</ele><time>2017-06-15T09:34:14Z</time></trkpt>
<trkpt lat="46.18275" lon="7.01481"><ele>570.2</ele><time>2017-06-15T09:34:15Z</time></trkpt>
<trkpt lat="46.18294" lon="7.01495"><ele>567.2</ele><time>2017-06-15T09:34:17Z</time></trkpt>
<trkpt lat="46.18299" lon="7.01504"><ele>565.8</ele><time>2017-06-15T09:34:18Z</time></trkpt>
<trkpt lat="46.18302" lon="7.01513"><ele>564.8</ele><time>2017-06-15T09:34:19Z</time></trkpt>
<trkpt lat="46.18303" lon="7.01523"><ele>564</ele><time>2017-06-15T09:34:20Z</time></trkpt>
<trkpt lat="46.18299" lon="7.01535"><ele>563</ele><time>2017-06-15T09:34:21Z</time></trkpt>
<trkpt lat="46.18287" lon="7.01558"><ele>561.2</ele><time>2017-06-15T09:34:23Z</time></trkpt>
<trkpt lat="46.18281" lon="7.01569"><ele>560.2</ele><time>2017-06-15T09:34:24Z</time></trkpt>
<trkpt lat="46.18275" lon="7.01581"><ele>559</ele><time>2017-06-15T09:34:25Z</time></trkpt>
<trkpt lat="46.18269" lon="7.01593"><ele>557.8</ele><time>2017-06-15T09:34:26Z</time></trkpt>
<trkpt lat="46.18264" lon="7.01614"><ele>556.6</ele><time>2017-06-15T09:34:27Z</time></trkpt>
<trkpt lat="46.18261" lon="7.0165"><ele>554.2</ele><time>2017-06-15T09:34:29Z</time></trkpt>
<trkpt lat="46.18257" lon="7.01685"><ele>551.6</ele><time>2017-06-15T09:34:31Z</time></trkpt>
<trkpt lat="46.1825" lon="7.01721"><ele>549</ele><time>2017-06-15T09:34:33Z</time></trkpt>
<trkpt lat="46.18242" lon="7.01737"><ele>547.6</ele><time>2017-06-15T09:34:34Z</time></trkpt>
<trkpt lat="46.18234" lon="7.01751"><ele>546.2</ele><time>2017-06-15T09:34:35Z</time></trkpt>
<trkpt lat="46.18212" lon="7.01774"><ele>543.6</ele><time>2017-06-15T09:34:37Z</time></trkpt>
<trkpt lat="46.18191" lon="7.01797"><ele>541</ele><time>2017-06-15T09:34:39Z</time></trkpt>
<trkpt lat="46.18182" lon="7.01811"><ele>539.6</ele><time>2017-06-15T09:34:40Z</time></trkpt>
<trkpt lat="46.18174" lon="7.01826"><ele>538.2</ele><time>2017-06-15T09:34:41Z</time></trkpt>
<trkpt lat="46.1816" lon="7.01858"><ele>535.2</ele><time>2017-06-15T09:34:43Z</time></trkpt>
<trkpt lat="46.18152" lon="7.01874"><ele>533.8</ele><time>2017-06-15T09:34:44Z</time></trkpt>
<trkpt lat="46.18144" lon="7.01889"><ele>532.2</ele><time>2017-06-15T09:34:45Z</time></trkpt>
<trkpt lat="46.18128" lon="7.01918"><ele>528.6</ele><time>2017-06-15T09:34:47Z</time></trkpt>
<trkpt lat="46.1812" lon="7.01934"><ele>527</ele><time>2017-06-15T09:34:48Z</time></trkpt>
<trkpt lat="46.18115" lon="7.0195"><ele>525.2</ele><time>2017-06-15T09:34:49Z</time></trkpt>
<trkpt lat="46.18109" lon="7.01967"><ele>523.6</ele><time>2017-06-15T09:34:50Z</time></trkpt>
<trkpt lat="46.18104" lon="7.01984"><ele>522.2</ele><time>2017-06-15T09:34:51Z</time></trkpt>
<trkpt lat="46.18099" lon="7.01999"><ele>521</ele><time>2017-06-15T09:34:52Z</time></trkpt>
<trkpt lat="46.18094" lon="7.0201"><ele>519.6</ele><time>2017-06-15T09:34:53Z</time></trkpt>
<trkpt lat="46.18088" lon="7.02017"><ele>518.4</ele><time>2017-06-15T09:34:54Z</time></trkpt>
<trkpt lat="46.18078" lon="7.0202"><ele>517.2</ele><time>2017-06-15T09:34:55Z</time></trkpt>
<trkpt lat="46.18069" lon="7.02021"><ele>516</ele><time>2017-06-15T09:34:56Z</time></trkpt>
<trkpt lat="46.1806" lon="7.02017"><ele>515</ele><time>2017-06-15T09:34:57Z</time></trkpt>
<trkpt lat="46.1804" lon="7.02012"><ele>512.8</ele><time>2017-06-15T09:34:59Z</time></trkpt>
<trkpt lat="46.18029" lon="7.02014"><ele>511.6</ele><time>2017-06-15T09:35:00Z</time></trkpt>
<trkpt lat="46.1802" lon="7.0202"><ele>510.6</ele><time>2017-06-15T09:35:01Z</time></trkpt>
<trkpt lat="46.18002" lon="7.02033"><ele>508.6</ele><time>2017-06-15T09:35:03Z</time></trkpt>
<trkpt lat="46.17983" lon="7.02046"><ele>506.6</ele><time>2017-06-15T09:35:05Z</time></trkpt>
<trkpt lat="46.17972" lon="7.02055"><ele>505.6</ele><time>2017-06-15T09:35:06Z</time></trkpt>
<trkpt lat="46.17961" lon="7.02065"><ele>504.4</ele><time>2017-06-15T09:35:07Z</time></trkpt>
<trkpt lat="46.1794" lon="7.02085"><ele>502.4</ele><time>2017-06-15T09:35:09Z</time></trkpt>
<trkpt lat="46.17923" lon="7.02108"><ele>500.2</ele><time>2017-06-15T09:35:11Z</time></trkpt>
<trkpt lat="46.17914" lon="7.0212"><ele>499</ele><time>2017-06-15T09:35:12Z</time></trkpt>
<trkpt lat="46.17905" lon="7.02132"><ele>497.6</ele><time>2017-06-15T09:35:13Z</time></trkpt>
<trkpt lat="46.17885" lon="7.02158"><ele>495</ele><time>2017-06-15T09:35:15Z</time></trkpt>
<trkpt lat="46.17865" lon="7.02183"><ele>492.2</ele><time>2017-06-15T09:35:17Z</time></trkpt>
<trkpt lat="46.17856" lon="7.02195"><ele>491.2</ele><time>2017-06-15T09:35:18Z</time></trkpt>
<trkpt lat="46.17847" lon="7.02206"><ele>490.4</ele><time>2017-06-15T09:35:19Z</time></trkpt>
<trkpt lat="46.1783" lon="7.02228"><ele>488.8</ele><time>2017-06-15T09:35:21Z</time></trkpt>
<trkpt lat="46.17822" lon="7.02234"><ele>488.2</ele><time>2017-06-15T09:35:22Z</time></trkpt>
<trkpt lat="46.17813" lon="7.02234"><ele>487.2</ele><time>2017-06-15T09:35:23Z</time></trkpt>
<trkpt lat="46.17805" lon="7.02233"><ele>486.2</ele><time>2017-06-15T09:35:24Z</time></trkpt>
<trkpt lat="46.17797" lon="7.02229"><ele>485.2</ele><time>2017-06-15T09:35:25Z</time></trkpt>
<trkpt lat="46.17781" lon="7.02221"><ele>483.2</ele><time>2017-06-15T09:35:27Z</time></trkpt>
<trkpt lat="46.17765" lon="7.02215"><ele>481.4</ele><time>2017-06-15T09:35:29Z</time></trkpt>
<trkpt lat="46.17746" lon="7.02216"><ele>480.6</ele><time>2017-06-15T09:35:31Z</time></trkpt>
<trkpt lat="46.17726" lon="7.02217"><ele>479.8</ele><time>2017-06-15T09:35:33Z</time></trkpt>
<trkpt lat="46.17717" lon="7.02218"><ele>479.6</ele><time>2017-06-15T09:35:34Z</time></trkpt>
<trkpt lat="46.17706" lon="7.02221"><ele>479.2</ele><time>2017-06-15T09:35:35Z</time></trkpt>
<trkpt lat="46.17686" lon="7.02226"><ele>478.4</ele><time>2017-06-15T09:35:37Z</time></trkpt>
<trkpt lat="46.17666" lon="7.02233"><ele>477.6</ele><time>2017-06-15T09:35:39Z</time></trkpt>
<trkpt lat="46.17646" lon="7.0224"><ele>476.8</ele><time>2017-06-15T09:35:41Z</time></trkpt>
<trkpt lat="46.17625" lon="7.02248"><ele>475.4</ele><time>2017-06-15T09:35:43Z</time></trkpt>
<trkpt lat="46.17615" lon="7.02251"><ele>474.8</ele><time>2017-06-15T09:35:44Z</time></trkpt>
<trkpt lat="46.17605" lon="7.02254"><ele>474</ele><time>2017-06-15T09:35:45Z</time></trkpt>
<trkpt lat="46.17594" lon="7.02258"><ele>473.4</ele><time>2017-06-15T09:35:46Z</time></trkpt>
<trkpt lat="46.17584" lon="7.02261"><ele>472.8</ele><time>2017-06-15T09:35:47Z</time></trkpt>
<trkpt lat="46.17563" lon="7.02266"><ele>471.6</ele><time>2017-06-15T09:35:49Z</time></trkpt>
<trkpt lat="46.17542" lon="7.02268"><ele>470.2</ele><time>2017-06-15T09:35:51Z</time></trkpt>
<trkpt lat="46.17531" lon="7.02269"><ele>469.6</ele><time>2017-06-15T09:35:52Z</time></trkpt>
<trkpt lat="46.17521" lon="7.0227"><ele>468.8</ele><time>2017-06-15T09:35:53Z</time></trkpt>
<trkpt lat="46.17511" lon="7.02271"><ele>468.2</ele><time>2017-06-15T09:35:54Z</time></trkpt>
<trkpt lat="46.17503" lon="7.02271"><ele>467.4</ele><time>2017-06-15T09:35:55Z</time></trkpt>
<trkpt lat="46.17496" lon="7.02271"><ele>466.6</ele><time>2017-06-15T09:35:56Z</time></trkpt>
<trkpt lat="46.17492" lon="7.02268"><ele>465.8</ele><time>2017-06-15T09:35:57Z</time></trkpt>
<trkpt lat="46.17482" lon="7.02262"><ele>464.2</ele><time>2017-06-15T09:35:59Z</time></trkpt>
<trkpt lat="46.17473" lon="7.02256"><ele>462.4</ele><time>2017-06-15T09:36:01Z</time></trkpt>
<trkpt lat="46.17469" lon="7.02253"><ele>461.8</ele><time>2017-06-15T09:36:02Z</time></trkpt>
<trkpt lat="46.17464" lon="7.0225"><ele>461.4</ele><time>2017-06-15T09:36:03Z</time></trkpt>
<trkpt lat="46.17455" lon="7.02244"><ele>460.6</ele><time>2017-06-15T09:36:05Z</time></trkpt>
<trkpt lat="46.17442" lon="7.0223"><ele>459.8</ele><time>2017-06-15T09:36:07Z</time></trkpt>
<trkpt lat="46.17429" lon="7.02215"><ele>459.2</ele><time>2017-06-15T09:36:09Z</time></trkpt>
<trkpt lat="46.17416" lon="7.02201"><ele>458.4</ele><time>2017-06-15T09:36:11Z</time></trkpt>
<trkpt lat="46.17403" lon="7.02186"><ele>457.6</ele><time>2017-06-15T09:36:13Z</time></trkpt>
<trkpt lat="46.17396" lon="7.0218"><ele>457.6</ele><time>2017-06-15T09:36:14Z</time></trkpt>
<trkpt lat="46.17388" lon="7.02177"><ele>457.4</ele><time>2017-06-15T09:36:15Z</time></trkpt>
<trkpt lat="46.17372" lon="7.0217"><ele>457.2</ele><time>2017-06-15T09:36:17Z</time></trkpt>
<trkpt lat="46.17364" lon="7.02167"><ele>457.2</ele><time>2017-06-15T09:36:18Z</time></trkpt>
<trkpt lat="46.17356" lon="7.02168"><ele>457</ele><time>2017-06-15T09:36:19Z</time></trkpt>
<trkpt lat="46.1734" lon="7.02169"><ele>456.8</ele><time>2017-06-15T09:36:21Z</time></trkpt>
<trkpt lat="46.17324" lon="7.02171"><ele>456.6</ele><time>2017-06-15T09:36:23Z</time></trkpt>
<trkpt lat="46.17317" lon="7.02171"><ele>456.4</ele><time>2017-06-15T09:36:24Z</time></trkpt>
<trkpt lat="46.17309" lon="7.02171"><ele>456.4</ele><time>2017-06-15T09:36:25Z</time></trkpt>
<trkpt lat="46.17295" lon="7.02171"><ele>456.4</ele><time>2017-06-15T09:36:27Z</time></trkpt>
<trkpt lat="46.1728" lon="7.02171"><ele>456.4</ele><time>2017-06-15T09:36:29Z</time></trkpt>
<trkpt lat="46.17266" lon="7.0217"><ele>456.2</ele><time>2017-06-15T09:36:31Z</time></trkpt>
<trkpt lat="46.17253" lon="7.02167"><ele>456.2</ele><time>2017-06-15T09:36:33Z</time></trkpt>
<trkpt lat="46.17247" lon="7.02164"><ele>456.2</ele><time>2017-06-15T09:36:34Z</time></trkpt>
<trkpt lat="46.17243" lon="7.02159"><ele>456.2</ele><time>2017-06-15T09:36:35Z</time></trkpt>
<trkpt lat="46.17233" lon="7.0215"><ele>456.2</ele><time>2017-06-15T09:36:37Z</time></trkpt>
<trkpt lat="46.17223" lon="7.02141"><ele>456.4</ele><time>2017-06-15T09:36:39Z</time></trkpt>
<trkpt lat="46.17213" lon="7.02132"><ele>456.6</ele><time>2017-06-15T09:36:41Z</time></trkpt>
<trkpt lat="46.17208" lon="7.02128"><ele>456.6</ele><time>2017-06-15T09:36:42Z</time></trkpt>
<trkpt lat="46.17203" lon="7.02126"><ele>456.6</ele><time>2017-06-15T09:36:43Z</time></trkpt>
<trkpt lat="46.17191" lon="7.02122"><ele>456.8</ele><time>2017-06-15T09:36:45Z</time></trkpt>
<trkpt lat="46.1718" lon="7.02118"><ele>457</ele><time>2017-06-15T09:36:47Z</time></trkpt>
<trkpt lat="46.17168" lon="7.02114"><ele>457.2</ele><time>2017-06-15T09:36:49Z</time></trkpt>
<trkpt lat="46.17157" lon="7.02115"><ele>457.4</ele><time>2017-06-15T09:36:51Z</time></trkpt>
<trkpt lat="46.17148" lon="7.02119"><ele>457.6</ele><time>2017-06-15T09:36:53Z</time></trkpt>
<trkpt lat="46.17139" lon="7.02123"><ele>457.8</ele><time>2017-06-15T09:36:55Z</time></trkpt>
<trkpt lat="46.17129" lon="7.02127"><ele>457.8</ele><time>2017-06-15T09:36:57Z</time></trkpt>
<trkpt lat="46.1712" lon="7.02131"><ele>458</ele><time>2017-06-15T09:36:59Z</time></trkpt>
<trkpt lat="46.17111" lon="7.02134"><ele>458.2</ele><time>2017-06-15T09:37:01Z</time></trkpt>
<trkpt lat="46.17102" lon="7.02133"><ele>458.4</ele><time>2017-06-15T09:37:03Z</time></trkpt>
<trkpt lat="46.17093" lon="7.02131"><ele>458.6</ele><time>2017-06-15T09:37:05Z</time></trkpt>
<trkpt lat="46.17088" lon="7.02132"><ele>458.8</ele><time>2017-06-15T09:37:06Z</time></trkpt>
<trkpt lat="46.17084" lon="7.02134"><ele>459</ele><time>2017-06-15T09:37:07Z</time></trkpt>
<trkpt lat="46.17075" lon="7.02133"><ele>459.2</ele><time>2017-06-15T09:37:09Z</time></trkpt>
<trkpt lat="46.17067" lon="7.02132"><ele>459.4</ele><time>2017-06-15T09:37:11Z</time></trkpt>
<trkpt lat="46.17059" lon="7.0213"><ele>459.6</ele><time>2017-06-15T09:37:13Z</time></trkpt>
<trkpt lat="46.1705" lon="7.02129"><ele>460</ele><time>2017-06-15T09:37:15Z</time></trkpt>
<trkpt lat="46.17042" lon="7.02128"><ele>460.2</ele><time>2017-06-15T09:37:17Z</time></trkpt>
<trkpt lat="46.17038" lon="7.02127"><ele>460.4</ele><time>2017-06-15T09:37:18Z</time></trkpt>
<trkpt lat="46.17033" lon="7.02125"><ele>460.4</ele><time>2017-06-15T09:37:19Z</time></trkpt>
<trkpt lat="46.17025" lon="7.02123"><ele>460.8</ele><time>2017-06-15T09:37:21Z</time></trkpt>
<trkpt lat="46.17017" lon="7.0212"><ele>461</ele><time>2017-06-15T09:37:23Z</time></trkpt>
<trkpt lat="46.17009" lon="7.02117"><ele>461.2</ele><time>2017-06-15T09:37:25Z</time></trkpt>
<trkpt lat="46.17004" lon="7.02116"><ele>461.4</ele><time>2017-06-15T09:37:26Z</time></trkpt>
<trkpt lat="46.16998" lon="7.02116"><ele>461.4</ele><time>2017-06-15T09:37:27Z</time></trkpt>
<trkpt lat="46.16986" lon="7.02115"><ele>461.2</ele><time>2017-06-15T09:37:29Z</time></trkpt>
<trkpt lat="46.16975" lon="7.02114"><ele>460.8</ele><time>2017-06-15T09:37:31Z</time></trkpt>
<trkpt lat="46.16963" lon="7.02114"><ele>460.4</ele><time>2017-06-15T09:37:33Z</time></trkpt>
<trkpt lat="46.16957" lon="7.02113"><ele>460.4</ele><time>2017-06-15T09:37:34Z</time></trkpt>
<trkpt lat="46.16951" lon="7.02114"><ele>460.2</ele><time>2017-06-15T09:37:35Z</time></trkpt>
<trkpt lat="46.1694" lon="7.02114"><ele>460</ele><time>2017-06-15T09:37:37Z</time></trkpt>
<trkpt lat="46.16935" lon="7.02115"><ele>460</ele><time>2017-06-15T09:37:38Z</time></trkpt>
<trkpt lat="46.16929" lon="7.02118"><ele>459.8</ele><time>2017-06-15T09:37:39Z</time></trkpt>
<trkpt lat="46.16918" lon="7.02124"><ele>459.6</ele><time>2017-06-15T09:37:41Z</time></trkpt>
<trkpt lat="46.16907" lon="7.02131"><ele>459.4</ele><time>2017-06-15T09:37:43Z</time></trkpt>
<trkpt lat="46.16896" lon="7.02137"><ele>459</ele><time>2017-06-15T09:37:45Z</time></trkpt>
<trkpt lat="46.16891" lon="7.02141"><ele>459</ele><time>2017-06-15T09:37:46Z</time></trkpt>
<trkpt lat="46.16885" lon="7.02144"><ele>458.8</ele><time>2017-06-15T09:37:47Z</time></trkpt>
<trkpt lat="46.16874" lon="7.0215"><ele>458.6</ele><time>2017-06-15T09:37:49Z</time></trkpt>
<trkpt lat="46.16863" lon="7.02157"><ele>458.4</ele><time>2017-06-15T09:37:51Z</time></trkpt>
<trkpt lat="46.16852" lon="7.02163"><ele>458.2</ele><time>2017-06-15T09:37:53Z</time></trkpt>
<trkpt lat="46.16847" lon="7.02167"><ele>458</ele><time>2017-06-15T09:37:54Z</time></trkpt>
<trkpt lat="46.1684" lon="7.02171"><ele>458</ele><time>2017-06-15T09:37:55Z</time></trkpt>
<trkpt lat="46.16827" lon="7.0218"><ele>457.6</ele><time>2017-06-15T09:37:57Z</time></trkpt>
<trkpt lat="46.16815" lon="7.02189"><ele>457.4</ele><time>2017-06-15T09:37:59Z</time></trkpt>
<trkpt lat="46.16803" lon="7.02197"><ele>457.4</ele><time>2017-06-15T09:38:01Z</time></trkpt>
<trkpt lat="46.16793" lon="7.02202"><ele>457.6</ele><time>2017-06-15T09:38:03Z</time></trkpt>
<trkpt lat="46.16789" lon="7.02204"><ele>457.8</ele><time>2017-06-15T09:38:04Z</time></trkpt>
<trkpt lat="46.16786" lon="7.02209"><ele>457.8</ele><time>2017-06-15T09:38:05Z</time></trkpt>
<trkpt lat="46.16783" lon="7.02214"><ele>458</ele><time>2017-06-15T09:38:06Z</time></trkpt>
<trkpt lat="46.16777" lon="7.02219"><ele>458.2</ele><time>2017-06-15T09:38:07Z</time></trkpt>
<trkpt lat="46.16765" lon="7.02228"><ele>458.2</ele><time>2017-06-15T09:38:09Z</time></trkpt>
<trkpt lat="46.16752" lon="7.02238"><ele>458.2</ele><time>2017-06-15T09:38:11Z</time></trkpt>
<trkpt lat="46.1674" lon="7.02248"><ele>458.2</ele><time>2017-06-15T09:38:13Z</time></trkpt>
<trkpt lat="46.16728" lon="7.02259"><ele>458.2</ele><time>2017-06-15T09:38:15Z</time></trkpt>
<trkpt lat="46.16721" lon="7.02264"><ele>458.2</ele><time>2017-06-15T09:38:16Z</time></trkpt>
<trkpt lat="46.16712" lon="7.02269"><ele>458.2</ele><time>2017-06-15T09:38:17Z</time></trkpt>
<trkpt lat="46.16695" lon="7.0228"><ele>458.2</ele><time>2017-06-15T09:38:19Z</time></trkpt>
<trkpt lat="46.16679" lon="7.0229"><ele>458.2</ele><time>2017-06-15T09:38:21Z</time></trkpt>
<trkpt lat="46.16668" lon="7.02298"><ele>458.2</ele><time>2017-06-15T09:38:23Z</time></trkpt>
<trkpt lat="46.16656" lon="7.02306"><ele>458.4</ele><time>2017-06-15T09:38:25Z</time></trkpt>
<trkpt lat="46.16644" lon="7.02314"><ele>458.4</ele><time>2017-06-15T09:38:27Z</time></trkpt>
<trkpt lat="46.16633" lon="7.02323"><ele>458.4</ele><time>2017-06-15T09:38:29Z</time></trkpt>
<trkpt lat="46.16621" lon="7.02332"><ele>458.4</ele><time>2017-06-15T09:38:31Z</time></trkpt>
<trkpt lat="46.1661" lon="7.02341"><ele>458.4</ele><time>2017-06-15T09:38:33Z</time></trkpt>
<trkpt lat="46.16598" lon="7.02351"><ele>458.4</ele><time>2017-06-15T09:38:35Z</time></trkpt>
<trkpt lat="46.16592" lon="7.02355"><ele>458.4</ele><time>2017-06-15T09:38:36Z</time></trkpt>
<trkpt lat="46.16587" lon="7.02359"><ele>458.4</ele><time>2017-06-15T09:38:37Z</time></trkpt>
<trkpt lat="46.16576" lon="7.02367"><ele>458.4</ele><time>2017-06-15T09:38:39Z</time></trkpt>
<trkpt lat="46.16565" lon="7.02376"><ele>458.6</ele><time>2017-06-15T09:38:41Z</time></trkpt>
<trkpt lat="46.16554" lon="7.02384"><ele>458.6</ele><time>2017-06-15T09:38:43Z</time></trkpt>
<trkpt lat="46.16549" lon="7.02388"><ele>458.6</ele><time>2017-06-15T09:38:44Z</time></trkpt>
<trkpt lat="46.16545" lon="7.02391"><ele>458.6</ele><time>2017-06-15T09:38:45Z</time></trkpt>
<trkpt lat="46.16536" lon="7.02397"><ele>458.6</ele><time>2017-06-15T09:38:47Z</time></trkpt>
<trkpt lat="46.16527" lon="7.02403"><ele>458.6</ele><time>2017-06-15T09:38:49Z</time></trkpt>
<trkpt lat="46.16518" lon="7.02409"><ele>458.6</ele><time>2017-06-15T09:38:51Z</time></trkpt>
<trkpt lat="46.16509" lon="7.02415"><ele>458.6</ele><time>2017-06-15T09:38:53Z</time></trkpt>
<trkpt lat="46.16505" lon="7.02418"><ele>458.6</ele><time>2017-06-15T09:38:54Z</time></trkpt>
<trkpt lat="46.16501" lon="7.02421"><ele>458.6</ele><time>2017-06-15T09:38:55Z</time></trkpt>
<trkpt lat="46.16494" lon="7.02427"><ele>458.6</ele><time>2017-06-15T09:38:57Z</time></trkpt>
<trkpt lat="46.16486" lon="7.02433"><ele>458.8</ele><time>2017-06-15T09:38:59Z</time></trkpt>
<trkpt lat="46.16478" lon="7.02439"><ele>458.8</ele><time>2017-06-15T09:39:01Z</time></trkpt>
<trkpt lat="46.16471" lon="7.02446"><ele>458.8</ele><time>2017-06-15T09:39:03Z</time></trkpt>
<trkpt lat="46.16463" lon="7.02452"><ele>458.8</ele><time>2017-06-15T09:39:05Z</time></trkpt>
<trkpt lat="46.16456" lon="7.02459"><ele>458.8</ele><time>2017-06-15T09:39:07Z</time></trkpt>
<trkpt lat="46.16449" lon="7.02466"><ele>458.8</ele><time>2017-06-15T09:39:09Z</time></trkpt>
<trkpt lat="46.16441" lon="7.02474"><ele>458.8</ele><time>2017-06-15T09:39:11Z</time></trkpt>
<trkpt lat="46.16435" lon="7.02481"><ele>458.8</ele><time>2017-06-15T09:39:13Z</time></trkpt>
<trkpt lat="46.1643" lon="7.02487"><ele>458.8</ele><time>2017-06-15T09:39:15Z</time></trkpt>
<trkpt lat="46.16425" lon="7.02494"><ele>459</ele><time>2017-06-15T09:39:17Z</time></trkpt>
<trkpt lat="46.16411" lon="7.02505"><ele>459</ele><time>2017-06-15T09:39:19Z</time></trkpt>
<trkpt lat="46.16405" lon="7.02509"><ele>459</ele><time>2017-06-15T09:39:20Z</time></trkpt>
<trkpt lat="46.16399" lon="7.02512"><ele>459</ele><time>2017-06-15T09:39:21Z</time></trkpt>
<trkpt lat="46.16393" lon="7.02514"><ele>459</ele><time>2017-06-15T09:39:22Z</time></trkpt>
<trkpt lat="46.16386" lon="7.02518"><ele>459</ele><time>2017-06-15T09:39:23Z</time></trkpt>
<trkpt lat="46.16372" lon="7.02525"><ele>459</ele><time>2017-06-15T09:39:25Z</time></trkpt>
<trkpt lat="46.16359" lon="7.02531"><ele>459</ele><time>2017-06-15T09:39:27Z</time></trkpt>
<trkpt lat="46.16347" lon="7.02531"><ele>459</ele><time>2017-06-15T09:39:29Z</time></trkpt>
<trkpt lat="46.16336" lon="7.02531"><ele>459</ele><time>2017-06-15T09:39:31Z</time></trkpt>
<trkpt lat="46.16324" lon="7.02531"><ele>459.2</ele><time>2017-06-15T09:39:33Z</time></trkpt>
<trkpt lat="46.16318" lon="7.02532"><ele>459.2</ele><time>2017-06-15T09:39:34Z</time></trkpt>
<trkpt lat="46.16313" lon="7.02536"><ele>459.2</ele><time>2017-06-15T09:39:35Z</time></trkpt>
<trkpt lat="46.16302" lon="7.02544"><ele>459.2</ele><time>2017-06-15T09:39:37Z</time></trkpt>
<trkpt lat="46.16292" lon="7.02552"><ele>459.2</ele><time>2017-06-15T09:39:39Z</time></trkpt>
<trkpt lat="46.16282" lon="7.0256"><ele>459.2</ele><time>2017-06-15T09:39:41Z</time></trkpt>
<trkpt lat="46.16277" lon="7.02564"><ele>459.2</ele><time>2017-06-15T09:39:42Z</time></trkpt>
<trkpt lat="46.16272" lon="7.02567"><ele>459.2</ele><time>2017-06-15T09:39:43Z</time></trkpt>
<trkpt lat="46.16263" lon="7.02575"><ele>459.2</ele><time>2017-06-15T09:39:45Z</time></trkpt>
<trkpt lat="46.16254" lon="7.02582"><ele>459.2</ele><time>2017-06-15T09:39:47Z</time></trkpt>
<trkpt lat="46.16244" lon="7.02582"><ele>459.2</ele><time>2017-06-15T09:39:49Z</time></trkpt>
<trkpt lat="46.16234" lon="7.02583"><ele>459.4</ele><time>2017-06-15T09:39:51Z</time></trkpt>
<trkpt lat="46.16224" lon="7.02584"><ele>459.4</ele><time>2017-06-15T09:39:53Z</time></trkpt>
<trkpt lat="46.16214" lon="7.02585"><ele>459.4</ele><time>2017-06-15T09:39:55Z</time></trkpt>
<trkpt lat="46.16203" lon="7.02588"><ele>459.4</ele><time>2017-06-15T09:39:57Z</time></trkpt>
<trkpt lat="46.16198" lon="7.0259"><ele>459.4</ele><time>2017-06-15T09:39:58Z</time></trkpt>
<trkpt lat="46.16194" lon="7.02593"><ele>459.4</ele><time>2017-06-15T09:39:59Z</time></trkpt>
<trkpt lat="46.16186" lon="7.02597"><ele>459.4</ele><time>2017-06-15T09:40:01Z</time></trkpt>
<trkpt lat="46.16178" lon="7.02602"><ele>459.4</ele><time>2017-06-15T09:40:03Z</time></trkpt>
<trkpt lat="46.16171" lon="7.02607"><ele>459.4</ele><time>2017-06-15T09:40:05Z</time></trkpt>
<trkpt lat="46.16163" lon="7.02611"><ele>459.4</ele><time>2017-06-15T09:40:07Z</time></trkpt>
<trkpt lat="46.16156" lon="7.02616"><ele>459.6</ele><time>2017-06-15T09:40:09Z</time></trkpt>
<trkpt lat="46.16152" lon="7.02622"><ele>459.6</ele><time>2017-06-15T09:40:11Z</time></trkpt>
<trkpt lat="46.16147" lon="7.02628"><ele>459.6</ele><time>2017-06-15T09:40:13Z</time></trkpt>
<trkpt lat="46.16143" lon="7.02634"><ele>459.6</ele><time>2017-06-15T09:40:15Z</time></trkpt>
<trkpt lat="46.16139" lon="7.0264"><ele>459.6</ele><time>2017-06-15T09:40:17Z</time></trkpt>
<trkpt lat="46.16136" lon="7.02643"><ele>459.6</ele><time>2017-06-15T09:40:18Z</time></trkpt>
<trkpt lat="46.16134" lon="7.02646"><ele>459.8</ele><time>2017-06-15T09:40:19Z</time></trkpt>
<trkpt lat="46.1613" lon="7.02652"><ele>460</ele><time>2017-06-15T09:40:21Z</time></trkpt>
<trkpt lat="46.16126" lon="7.02658"><ele>460.2</ele><time>2017-06-15T09:40:23Z</time></trkpt>
<trkpt lat="46.16123" lon="7.02662"><ele>460.2</ele><time>2017-06-15T09:40:24Z</time></trkpt>
<trkpt lat="46.1612" lon="7.02667"><ele>460.4</ele><time>2017-06-15T09:40:25Z</time></trkpt>
<trkpt lat="46.16114" lon="7.02677"><ele>460.6</ele><time>2017-06-15T09:40:27Z</time></trkpt>
<trkpt lat="46.16108" lon="7.02687"><ele>460.8</ele><time>2017-06-15T09:40:29Z</time></trkpt>
<trkpt lat="46.16102" lon="7.02697"><ele>461</ele><time>2017-06-15T09:40:31Z</time></trkpt>
<trkpt lat="46.16096" lon="7.02707"><ele>461.2</ele><time>2017-06-15T09:40:33Z</time></trkpt>
<trkpt lat="46.16092" lon="7.02712"><ele>461.4</ele><time>2017-06-15T09:40:34Z</time></trkpt>
<trkpt lat="46.16088" lon="7.02717"><ele>461.4</ele><time>2017-06-15T09:40:35Z</time></trkpt>
<trkpt lat="46.1608" lon="7.02727"><ele>461.2</ele><time>2017-06-15T09:40:37Z</time></trkpt>
<trkpt lat="46.16076" lon="7.02732"><ele>461.2</ele><time>2017-06-15T09:40:38Z</time></trkpt>
<trkpt lat="46.16073" lon="7.02738"><ele>461.2</ele><time>2017-06-15T09:40:39Z</time></trkpt>
<trkpt lat="46.16066" lon="7.02749"><ele>461</ele><time>2017-06-15T09:40:41Z</time></trkpt>
<trkpt lat="46.16059" lon="7.0276"><ele>461</ele><time>2017-06-15T09:40:43Z</time></trkpt>
<trkpt lat="46.16052" lon="7.02771"><ele>460.8</ele><time>2017-06-15T09:40:45Z</time></trkpt>
<trkpt lat="46.16048" lon="7.02776"><ele>460.8</ele><time>2017-06-15T09:40:46Z</time></trkpt>
<trkpt lat="46.16044" lon="7.0278"><ele>460.8</ele><time>2017-06-15T09:40:47Z</time></trkpt>
<trkpt lat="46.1604" lon="7.02784"><ele>460.8</ele><time>2017-06-15T09:40:48Z</time></trkpt>
<trkpt lat="46.16036" lon="7.02789"><ele>460.6</ele><time>2017-06-15T09:40:49Z</time></trkpt>
<trkpt lat="46.16028" lon="7.02798"><ele>460.6</ele><time>2017-06-15T09:40:51Z</time></trkpt>
<trkpt lat="46.1602" lon="7.02807"><ele>460.4</ele><time>2017-06-15T09:40:53Z</time></trkpt>
<trkpt lat="46.16016" lon="7.0281"><ele>460.4</ele><time>2017-06-15T09:40:54Z</time></trkpt>
<trkpt lat="46.16011" lon="7.0281"><ele>460.4</ele><time>2017-06-15T09:40:55Z</time></trkpt>
<trkpt lat="46.16002" lon="7.02816"><ele>460.2</ele><time>2017-06-15T09:40:57Z</time></trkpt>
<trkpt lat="46.15992" lon="7.02818"><ele>460.2</ele><time>2017-06-15T09:40:59Z</time></trkpt>
<trkpt lat="46.15982" lon="7.0282"><ele>460</ele><time>2017-06-15T09:41:01Z</time></trkpt>
<trkpt lat="46.15972" lon="7.02821"><ele>460</ele><time>2017-06-15T09:41:03Z</time></trkpt>
<trkpt lat="46.15962" lon="7.02823"><ele>459.8</ele><time>2017-06-15T09:41:05Z</time></trkpt>
<trkpt lat="46.15957" lon="7.02824"><ele>459.8</ele><time>2017-06-15T09:41:06Z</time></trkpt>
<trkpt lat="46.15951" lon="7.02825"><ele>459.8</ele><time>2017-06-15T09:41:07Z</time></trkpt>
<trkpt lat="46.15939" lon="7.02827"><ele>459.6</ele><time>2017-06-15T09:41:09Z</time></trkpt>
<trkpt lat="46.15928" lon="7.02829"><ele>459.6</ele><time>2017-06-15T09:41:11Z</time></trkpt>
<trkpt lat="46.15916" lon="7.02831"><ele>459.4</ele><time>2017-06-15T09:41:13Z</time></trkpt>
<trkpt lat="46.1591" lon="7.02831"><ele>459.4</ele><time>2017-06-15T09:41:14Z</time></trkpt>
<trkpt lat="46.15905" lon="7.02831"><ele>459.4</ele><time>2017-06-15T09:41:15Z</time></trkpt>
<trkpt lat="46.15894" lon="7.0283"><ele>459.2</ele><time>2017-06-15T09:41:17Z</time></trkpt>
<trkpt lat="46.15883" lon="7.0283"><ele>459.2</ele><time>2017-06-15T09:41:19Z</time></trkpt>
<trkpt lat="46.15872" lon="7.02829"><ele>459</ele><time>2017-06-15T09:41:21Z</time></trkpt>
<trkpt lat="46.15861" lon="7.02829"><ele>459</ele><time>2017-06-15T09:41:23Z</time></trkpt>
<trkpt lat="46.15849" lon="7.02829"><ele>458.8</ele><time>2017-06-15T09:41:25Z</time></trkpt>
<trkpt lat="46.15836" lon="7.0283"><ele>458.8</ele><time>2017-06-15T09:41:27Z</time></trkpt>
<trkpt lat="46.15823" lon="7.02831"><ele>458.6</ele><time>2017-06-15T09:41:29Z</time></trkpt>
<trkpt lat="46.1581" lon="7.02841"><ele>458.6</ele><time>2017-06-15T09:41:31Z</time></trkpt>
<trkpt lat="46.15802" lon="7.02855"><ele>458.4</ele><time>2017-06-15T09:41:33Z</time></trkpt>
<trkpt lat="46.15796" lon="7.02875"><ele>458.4</ele><time>2017-06-15T09:41:35Z</time></trkpt>
<trkpt lat="46.15793" lon="7.02884"><ele>458.2</ele><time>2017-06-15T09:41:36Z</time></trkpt>
<trkpt lat="46.15787" lon="7.0289"><ele>458</ele><time>2017-06-15T09:41:37Z</time></trkpt>
<trkpt lat="46.15775" lon="7.02902"><ele>457.8</ele><time>2017-06-15T09:41:39Z</time></trkpt>
<trkpt lat="46.15769" lon="7.02909"><ele>457.8</ele><time>2017-06-15T09:41:40Z</time></trkpt>
<trkpt lat="46.15763" lon="7.02915"><ele>457.8</ele><time>2017-06-15T09:41:41Z</time></trkpt>
<trkpt lat="46.15751" lon="7.02927"><ele>457.8</ele><time>2017-06-15T09:41:43Z</time></trkpt>
<trkpt lat="46.15742" lon="7.0294"><ele>457.8</ele><time>2017-06-15T09:41:45Z</time></trkpt>
<trkpt lat="46.15732" lon="7.02954"><ele>457.8</ele><time>2017-06-15T09:41:47Z</time></trkpt>
<trkpt lat="46.15722" lon="7.02967"><ele>457.8</ele><time>2017-06-15T09:41:49Z</time></trkpt>
<trkpt lat="46.15718" lon="7.02973"><ele>457.8</ele><time>2017-06-15T09:41:50Z</time></trkpt>
<trkpt lat="46.15714" lon="7.0298"><ele>457.8</ele><time>2017-06-15T09:41:51Z</time></trkpt>
<trkpt lat="46.15709" lon="7.02986"><ele>457.8</ele><time>2017-06-15T09:41:52Z</time></trkpt>
<trkpt lat="46.15705" lon="7.02993"><ele>457.8</ele><time>2017-06-15T09:41:53Z</time></trkpt>
<trkpt lat="46.15697" lon="7.03006"><ele>457.8</ele><time>2017-06-15T09:41:55Z</time></trkpt>
<trkpt lat="46.15688" lon="7.03019"><ele>457.8</ele><time>2017-06-15T09:41:57Z</time></trkpt>
<trkpt lat="46.15684" lon="7.03025"><ele>458</ele><time>2017-06-15T09:41:58Z</time></trkpt>
<trkpt lat="46.15679" lon="7.03029"><ele>458</ele><time>2017-06-15T09:41:59Z</time></trkpt>
<trkpt lat="46.15669" lon="7.03038"><ele>458</ele><time>2017-06-15T09:42:01Z</time></trkpt>
<trkpt lat="46.1566" lon="7.03047"><ele>458</ele><time>2017-06-15T09:42:03Z</time></trkpt>
<trkpt lat="46.1565" lon="7.03056"><ele>458</ele><time>2017-06-15T09:42:05Z</time></trkpt>
<trkpt lat="46.15645" lon="7.0306"><ele>458.2</ele><time>2017-06-15T09:42:06Z</time></trkpt>
<trkpt lat="46.1564" lon="7.03063"><ele>458.2</ele><time>2017-06-15T09:42:07Z</time></trkpt>
<trkpt lat="46.1563" lon="7.03069"><ele>458.2</ele><time>2017-06-15T09:42:09Z</time></trkpt>
<trkpt lat="46.1562" lon="7.03075"><ele>458.2</ele><time>2017-06-15T09:42:11Z</time></trkpt>
<trkpt lat="46.1561" lon="7.03081"><ele>458.2</ele><time>2017-06-15T09:42:13Z</time></trkpt>
<trkpt lat="46.156" lon="7.03087"><ele>458.4</ele><time>2017-06-15T09:42:15Z</time></trkpt>
<trkpt lat="46.15593" lon="7.03092"><ele>458.4</ele><time>2017-06-15T09:42:17Z</time></trkpt>
<trkpt lat="46.15585" lon="7.03097"><ele>458.4</ele><time>2017-06-15T09:42:19Z</time></trkpt>
<trkpt lat="46.15578" lon="7.03103"><ele>458.4</ele><time>2017-06-15T09:42:21Z</time></trkpt>
<trkpt lat="46.1557" lon="7.03108"><ele>458.6</ele><time>2017-06-15T09:42:23Z</time></trkpt>
<trkpt lat="46.15562" lon="7.03113"><ele>458.6</ele><time>2017-06-15T09:42:25Z</time></trkpt>
<trkpt lat="46.15558" lon="7.03116"><ele>458.6</ele><time>2017-06-15T09:42:26Z</time></trkpt>
<trkpt lat="46.15554" lon="7.03117"><ele>458.6</ele><time>2017-06-15T09:42:27Z</time></trkpt>
<trkpt lat="46.1555" lon="7.03118"><ele>458.6</ele><time>2017-06-15T09:42:28Z</time></trkpt>
<trkpt lat="46.15545" lon="7.03118"><ele>458.8</ele><time>2017-06-15T09:42:29Z</time></trkpt>
<trkpt lat="46.15535" lon="7.03118"><ele>458.8</ele><time>2017-06-15T09:42:31Z</time></trkpt>
<trkpt lat="46.15525" lon="7.03118"><ele>458.8</ele><time>2017-06-15T09:42:33Z</time></trkpt>
<trkpt lat="46.15515" lon="7.03117"><ele>458.8</ele><time>2017-06-15T09:42:35Z</time></trkpt>
<trkpt lat="46.15505" lon="7.03117"><ele>459</ele><time>2017-06-15T09:42:37Z</time></trkpt>
<trkpt lat="46.155" lon="7.03117"><ele>459</ele><time>2017-06-15T09:42:38Z</time></trkpt>
<trkpt lat="46.15495" lon="7.03116"><ele>459</ele><time>2017-06-15T09:42:39Z</time></trkpt>
<trkpt lat="46.15485" lon="7.03115"><ele>459</ele><time>2017-06-15T09:42:41Z</time></trkpt>
<trkpt lat="46.15475" lon="7.03114"><ele>459</ele><time>2017-06-15T09:42:43Z</time></trkpt>
<trkpt lat="46.15464" lon="7.03113"><ele>459.2</ele><time>2017-06-15T09:42:45Z</time></trkpt>
<trkpt lat="46.15454" lon="7.03112"><ele>459.2</ele><time>2017-06-15T09:42:47Z</time></trkpt>
<trkpt lat="46.15443" lon="7.03111"><ele>459.2</ele><time>2017-06-15T09:42:49Z</time></trkpt>
<trkpt lat="46.15433" lon="7.03109"><ele>459.2</ele><time>2017-06-15T09:42:51Z</time></trkpt>
<trkpt lat="46.15422" lon="7.03108"><ele>459.4</ele><time>2017-06-15T09:42:53Z</time></trkpt>
<trkpt lat="46.15412" lon="7.03106"><ele>459.4</ele><time>2017-06-15T09:42:55Z</time></trkpt>
<trkpt lat="46.15406" lon="7.03106"><ele>459.4</ele><time>2017-06-15T09:42:56Z</time></trkpt>
<trkpt lat="46.15401" lon="7.03104"><ele>459.4</ele><time>2017-06-15T09:42:57Z</time></trkpt>
<trkpt lat="46.15392" lon="7.03102"><ele>459.4</ele><time>2017-06-15T09:42:59Z</time></trkpt>
<trkpt lat="46.15382" lon="7.031"><ele>459.6</ele><time>2017-06-15T09:43:01Z</time></trkpt>
<trkpt lat="46.15372" lon="7.03097"><ele>459.6</ele><time>2017-06-15T09:43:03Z</time></trkpt>
<trkpt lat="46.15362" lon="7.03095"><ele>459.6</ele><time>2017-06-15T09:43:05Z</time></trkpt>
<trkpt lat="46.15358" lon="7.03094"><ele>459.6</ele><time>2017-06-15T09:43:06Z</time></trkpt>
<trkpt lat="46.15353" lon="7.03093"><ele>459.6</ele><time>2017-06-15T09:43:07Z</time></trkpt>
<trkpt lat="46.15344" lon="7.03091"><ele>459.8</ele><time>2017-06-15T09:43:09Z</time></trkpt>
<trkpt lat="46.15334" lon="7.03089"><ele>459.8</ele><time>2017-06-15T09:43:11Z</time></trkpt>
<trkpt lat="46.15325" lon="7.03088"><ele>459.8</ele><time>2017-06-15T09:43:13Z</time></trkpt>
<trkpt lat="46.15316" lon="7.03086"><ele>459.8</ele><time>2017-06-15T09:43:15Z</time></trkpt>
<trkpt lat="46.15311" lon="7.03085"><ele>460</ele><time>2017-06-15T09:43:16Z</time></trkpt>
<trkpt lat="46.15306" lon="7.03084"><ele>460</ele><time>2017-06-15T09:43:17Z</time></trkpt>
<trkpt lat="46.15296" lon="7.03082"><ele>460</ele><time>2017-06-15T09:43:19Z</time></trkpt>
<trkpt lat="46.15286" lon="7.0308"><ele>460</ele><time>2017-06-15T09:43:21Z</time></trkpt>
<trkpt lat="46.15276" lon="7.03078"><ele>460</ele><time>2017-06-15T09:43:23Z</time></trkpt>
<trkpt lat="46.15267" lon="7.03076"><ele>460.2</ele><time>2017-06-15T09:43:25Z</time></trkpt>
<trkpt lat="46.15257" lon="7.03074"><ele>460.2</ele><time>2017-06-15T09:43:27Z</time></trkpt>
<trkpt lat="46.15247" lon="7.03072"><ele>460.2</ele><time>2017-06-15T09:43:29Z</time></trkpt>
<trkpt lat="46.15237" lon="7.03069"><ele>460.2</ele><time>2017-06-15T09:43:31Z</time></trkpt>
<trkpt lat="46.15227" lon="7.03067"><ele>460.4</ele><time>2017-06-15T09:43:33Z</time></trkpt>
<trkpt lat="46.15217" lon="7.03065"><ele>460.4</ele><time>2017-06-15T09:43:35Z</time></trkpt>
<trkpt lat="46.15207" lon="7.03064"><ele>460.4</ele><time>2017-06-15T09:43:37Z</time></trkpt>
<trkpt lat="46.15198" lon="7.03062"><ele>460.4</ele><time>2017-06-15T09:43:39Z</time></trkpt>
<trkpt lat="46.15188" lon="7.03061"><ele>460.6</ele><time>2017-06-15T09:43:41Z</time></trkpt>
<trkpt lat="46.15178" lon="7.03059"><ele>460.6</ele><time>2017-06-15T09:43:43Z</time></trkpt>
<trkpt lat="46.15168" lon="7.03058"><ele>460.6</ele><time>2017-06-15T09:43:45Z</time></trkpt>
<trkpt lat="46.15159" lon="7.03056"><ele>460.6</ele><time>2017-06-15T09:43:47Z</time></trkpt>
<trkpt lat="46.15149" lon="7.03055"><ele>460.8</ele><time>2017-06-15T09:43:49Z</time></trkpt>
<trkpt lat="46.1514" lon="7.03054"><ele>460.8</ele><time>2017-06-15T09:43:51Z</time></trkpt>
<trkpt lat="46.15131" lon="7.03053"><ele>460.8</ele><time>2017-06-15T09:43:53Z</time></trkpt>
<trkpt lat="46.15121" lon="7.03052"><ele>460.6</ele><time>2017-06-15T09:43:55Z</time></trkpt>
<trkpt lat="46.15111" lon="7.03051"><ele>460.6</ele><time>2017-06-15T09:43:57Z</time></trkpt>
<trkpt lat="46.15101" lon="7.0305"><ele>460.6</ele><time>2017-06-15T09:43:59Z</time></trkpt>
<trkpt lat="46.15091" lon="7.03049"><ele>460.4</ele><time>2017-06-15T09:44:01Z</time></trkpt>
<trkpt lat="46.15081" lon="7.03048"><ele>460.4</ele><time>2017-06-15T09:44:03Z</time></trkpt>
<trkpt lat="46.15076" lon="7.03047"><ele>460.4</ele><time>2017-06-15T09:44:04Z</time></trkpt>
<trkpt lat="46.15071" lon="7.03047"><ele>460.4</ele><time>2017-06-15T09:44:05Z</time></trkpt>
<trkpt lat="46.1506" lon="7.03045"><ele>460.2</ele><time>2017-06-15T09:44:07Z</time></trkpt>
<trkpt lat="46.1505" lon="7.03044"><ele>460.2</ele><time>2017-06-15T09:44:09Z</time></trkpt>
<trkpt lat="46.1504" lon="7.03043"><ele>460.2</ele><time>2017-06-15T09:44:11Z</time></trkpt>
<trkpt lat="46.1503" lon="7.03041"><ele>460</ele><time>2017-06-15T09:44:13Z</time></trkpt>
<trkpt lat="46.15019" lon="7.0304"><ele>460</ele><time>2017-06-15T09:44:15Z</time></trkpt>
<trkpt lat="46.15009" lon="7.03038"><ele>460</ele><time>2017-06-15T09:44:17Z</time></trkpt>
<trkpt lat="46.14999" lon="7.03036"><ele>459.8</ele><time>2017-06-15T09:44:19Z</time></trkpt>
<trkpt lat="46.14988" lon="7.03034"><ele>459.8</ele><time>2017-06-15T09:44:21Z</time></trkpt>
<trkpt lat="46.14978" lon="7.03032"><ele>459.8</ele><time>2017-06-15T09:44:23Z</time></trkpt>
<trkpt lat="46.14968" lon="7.03029"><ele>459.6</ele><time>2017-06-15T09:44:25Z</time></trkpt>
<trkpt lat="46.14963" lon="7.03028"><ele>459.6</ele><time>2017-06-15T09:44:26Z</time></trkpt>
<trkpt lat="46.14958" lon="7.03025"><ele>459.6</ele><time>2017-06-15T09:44:27Z</time></trkpt>
<trkpt lat="46.14948" lon="7.0302"><ele>459.4</ele><time>2017-06-15T09:44:29Z</time></trkpt>
<trkpt lat="46.14938" lon="7.03016"><ele>459.4</ele><time>2017-06-15T09:44:31Z</time></trkpt>
<trkpt lat="46.14928" lon="7.03011"><ele>459.4</ele><time>2017-06-15T09:44:33Z</time></trkpt>
<trkpt lat="46.14918" lon="7.03005"><ele>459.2</ele><time>2017-06-15T09:44:35Z</time></trkpt>
<trkpt lat="46.1491" lon="7.02995"><ele>459.2</ele><time>2017-06-15T09:44:37Z</time></trkpt>
<trkpt lat="46.14906" lon="7.02991"><ele>459.2</ele><time>2017-06-15T09:44:38Z</time></trkpt>
<trkpt lat="46.14901" lon="7.02989"><ele>459.2</ele><time>2017-06-15T09:44:39Z</time></trkpt>
<trkpt lat="46.1489" lon="7.02984"><ele>459</ele><time>2017-06-15T09:44:41Z</time></trkpt>
<trkpt lat="46.1488" lon="7.02979"><ele>459</ele><time>2017-06-15T09:44:43Z</time></trkpt>
<trkpt lat="46.1487" lon="7.02973"><ele>459</ele><time>2017-06-15T09:44:45Z</time></trkpt>
<trkpt lat="46.14859" lon="7.02969"><ele>458.8</ele><time>2017-06-15T09:44:47Z</time></trkpt>
<trkpt lat="46.14849" lon="7.02965"><ele>458.8</ele><time>2017-06-15T09:44:49Z</time></trkpt>
<trkpt lat="46.14838" lon="7.02962"><ele>458.8</ele><time>2017-06-15T09:44:51Z</time></trkpt>
<trkpt lat="46.14827" lon="7.02958"><ele>458.6</ele><time>2017-06-15T09:44:53Z</time></trkpt>
<trkpt lat="46.14821" lon="7.02958"><ele>458.6</ele><time>2017-06-15T09:44:54Z</time></trkpt>
<trkpt lat="46.14815" lon="7.02959"><ele>458.6</ele><time>2017-06-15T09:44:55Z</time></trkpt>
<trkpt lat="46.14802" lon="7.02962"><ele>458.6</ele><time>2017-06-15T09:44:57Z</time></trkpt>
<trkpt lat="46.14789" lon="7.02965"><ele>458.4</ele><time>2017-06-15T09:44:59Z</time></trkpt>
<trkpt lat="46.14776" lon="7.02967"><ele>458.4</ele><time>2017-06-15T09:45:01Z</time></trkpt>
<trkpt lat="46.14763" lon="7.0297"><ele>458.4</ele><time>2017-06-15T09:45:03Z</time></trkpt>
<trkpt lat="46.1475" lon="7.02972"><ele>458.2</ele><time>2017-06-15T09:45:05Z</time></trkpt>
<trkpt lat="46.14737" lon="7.02974"><ele>458.2</ele><time>2017-06-15T09:45:07Z</time></trkpt>
<trkpt lat="46.14725" lon="7.02977"><ele>458.2</ele><time>2017-06-15T09:45:09Z</time></trkpt>
<trkpt lat="46.14715" lon="7.02979"><ele>458.2</ele><time>2017-06-15T09:45:11Z</time></trkpt>
<trkpt lat="46.14705" lon="7.02982"><ele>458.2</ele><time>2017-06-15T09:45:13Z</time></trkpt>
<trkpt lat="46.14695" lon="7.02985"><ele>458.2</ele><time>2017-06-15T09:45:15Z</time></trkpt>
<trkpt lat="46.14686" lon="7.02988"><ele>458.4</ele><time>2017-06-15T09:45:17Z</time></trkpt>
<trkpt lat="46.14676" lon="7.02991"><ele>458.4</ele><time>2017-06-15T09:45:19Z</time></trkpt>
<trkpt lat="46.14666" lon="7.02993"><ele>458.4</ele><time>2017-06-15T09:45:21Z</time></trkpt>
<trkpt lat="46.14657" lon="7.02995"><ele>458.6</ele><time>2017-06-15T09:45:23Z</time></trkpt>
<trkpt lat="46.14647" lon="7.02998"><ele>458.6</ele><time>2017-06-15T09:45:25Z</time></trkpt>
<trkpt lat="46.14637" lon="7.03"><ele>458.6</ele><time>2017-06-15T09:45:27Z</time></trkpt>
<trkpt lat="46.14628" lon="7.03001"><ele>458.8</ele><time>2017-06-15T09:45:29Z</time></trkpt>
<trkpt lat="46.1462" lon="7.02996"><ele>458.8</ele><time>2017-06-15T09:45:31Z</time></trkpt>
<trkpt lat="46.1462" lon="7.02988"><ele>458.8</ele><time>2017-06-15T09:45:33Z</time></trkpt>
<trkpt lat="46.14612" lon="7.02963"><ele>460.2</ele><time>2017-06-15T09:45:35Z</time></trkpt>
<trkpt lat="46.14612" lon="7.02963"><ele>460.2</ele><time>2017-06-15T09:46:46Z</time></trkpt>
<trkpt lat="46.14604" lon="7.02948"><ele>461.4</ele><time>2017-06-15T09:46:47Z</time></trkpt>
<trkpt lat="46.14601" lon="7.02944"><ele>461.4</ele><time>2017-06-15T09:46:49Z</time></trkpt>
<trkpt lat="46.14597" lon="7.02946"><ele>461.4</ele><time>2017-06-15T09:46:51Z</time></trkpt>
<trkpt lat="46.14593" lon="7.02949"><ele>461.6</ele><time>2017-06-15T09:46:53Z</time></trkpt>
<trkpt lat="46.14589" lon="7.0295"><ele>461.6</ele><time>2017-06-15T09:46:55Z</time></trkpt>
<trkpt lat="46.14587" lon="7.02944"><ele>461.8</ele><time>2017-06-15T09:46:57Z</time></trkpt>
<trkpt lat="46.14588" lon="7.02933"><ele>461.8</ele><time>2017-06-15T09:46:59Z</time></trkpt>
<trkpt lat="46.1459" lon="7.02923"><ele>461.8</ele><time>2017-06-15T09:47:01Z</time></trkpt>
<trkpt lat="46.14589" lon="7.02919"><ele>461.8</ele><time>2017-06-15T09:47:02Z</time></trkpt>
<trkpt lat="46.14585" lon="7.02917"><ele>462</ele><time>2017-06-15T09:47:03Z</time></trkpt>
<trkpt lat="46.14578" lon="7.02914"><ele>462</ele><time>2017-06-15T09:47:05Z</time></trkpt>
<trkpt lat="46.14569" lon="7.02916"><ele>462</ele><time>2017-06-15T09:47:07Z</time></trkpt>
<trkpt lat="46.14564" lon="7.02917"><ele>462</ele><time>2017-06-15T09:47:08Z</time></trkpt>
<trkpt lat="46.1456" lon="7.02918"><ele>462.2</ele><time>2017-06-15T09:47:09Z</time></trkpt>
<trkpt lat="46.1455" lon="7.02919"><ele>462.2</ele><time>2017-06-15T09:47:11Z</time></trkpt>
<trkpt lat="46.14541" lon="7.0292"><ele>462.2</ele><time>2017-06-15T09:47:13Z</time></trkpt>
<trkpt lat="46.14532" lon="7.02922"><ele>462.4</ele><time>2017-06-15T09:47:15Z</time></trkpt>
<trkpt lat="46.14523" lon="7.02923"><ele>462.4</ele><time>2017-06-15T09:47:17Z</time></trkpt>
<trkpt lat="46.14518" lon="7.02924"><ele>462.4</ele><time>2017-06-15T09:47:18Z</time></trkpt>
<trkpt lat="46.14515" lon="7.02924"><ele>462.4</ele><time>2017-06-15T09:47:19Z</time></trkpt>
<trkpt lat="46.14508" lon="7.02925"><ele>462.6</ele><time>2017-06-15T09:47:21Z</time></trkpt>
<trkpt lat="46.14501" lon="7.02927"><ele>462.6</ele><time>2017-06-15T09:47:23Z</time></trkpt>
<trkpt lat="46.14494" lon="7.02928"><ele>462.6</ele><time>2017-06-15T09:47:25Z</time></trkpt>
<trkpt lat="46.14487" lon="7.02929"><ele>462.8</ele><time>2017-06-15T09:47:27Z</time></trkpt>
<trkpt lat="46.14481" lon="7.0293"><ele>462.8</ele><time>2017-06-15T09:47:29Z</time></trkpt>
<trkpt lat="46.14474" lon="7.02931"><ele>462.8</ele><time>2017-06-15T09:47:31Z</time></trkpt>
<trkpt lat="46.14466" lon="7.02933"><ele>463</ele><time>2017-06-15T09:47:33Z</time></trkpt>
<trkpt lat="46.14459" lon="7.02935"><ele>463</ele><time>2017-06-15T09:47:35Z</time></trkpt>
<trkpt lat="46.14451" lon="7.02936"><ele>463</ele><time>2017-06-15T09:47:37Z</time></trkpt>
<trkpt lat="46.14444" lon="7.02938"><ele>463.2</ele><time>2017-06-15T09:47:39Z</time></trkpt>
<trkpt lat="46.14436" lon="7.0294"><ele>463.2</ele><time>2017-06-15T09:47:41Z</time></trkpt>
<trkpt lat="46.14429" lon="7.02942"><ele>463.2</ele><time>2017-06-15T09:47:43Z</time></trkpt>
<trkpt lat="46.1442" lon="7.02943"><ele>463.4</ele><time>2017-06-15T09:47:45Z</time></trkpt>
<trkpt lat="46.14412" lon="7.02945"><ele>463.4</ele><time>2017-06-15T09:47:47Z</time></trkpt>
<trkpt lat="46.14407" lon="7.02946"><ele>463.4</ele><time>2017-06-15T09:47:48Z</time></trkpt>
<trkpt lat="46.14405" lon="7.02946"><ele>463.2</ele><time>2017-06-15T09:47:49Z</time></trkpt>
<trkpt lat="46.14396" lon="7.02933"><ele>461.6</ele><time>2017-06-15T09:47:51Z</time></trkpt>
<trkpt lat="46.14396" lon="7.02933"><ele>461.6</ele><time>2017-06-15T09:49:28Z</time></trkpt>
<trkpt lat="46.14387" lon="7.02921"><ele>460.2</ele><time>2017-06-15T09:49:29Z</time></trkpt>
<trkpt lat="46.14384" lon="7.02923"><ele>460.2</ele><time>2017-06-15T09:49:31Z</time></trkpt>
<trkpt lat="46.14381" lon="7.02924"><ele>460.2</ele><time>2017-06-15T09:49:33Z</time></trkpt>
<trkpt lat="46.14379" lon="7.02926"><ele>460.2</ele><time>2017-06-15T09:49:35Z</time></trkpt>
<trkpt lat="46.14378" lon="7.02927"><ele>460.2</ele><time>2017-06-15T09:49:36Z</time></trkpt>
<trkpt lat="46.14377" lon="7.02928"><ele>460.2</ele><time>2017-06-15T09:49:37Z</time></trkpt>
<trkpt lat="46.14376" lon="7.02932"><ele>460</ele><time>2017-06-15T09:49:39Z</time></trkpt>
<trkpt lat="46.14375" lon="7.02935"><ele>460</ele><time>2017-06-15T09:49:41Z</time></trkpt>
<trkpt lat="46.14374" lon="7.02938"><ele>460</ele><time>2017-06-15T09:49:43Z</time></trkpt>
<trkpt lat="46.14373" lon="7.0294"><ele>460</ele><time>2017-06-15T09:49:45Z</time></trkpt>
<trkpt lat="46.1437" lon="7.0294"><ele>459.8</ele><time>2017-06-15T09:49:47Z</time></trkpt>
<trkpt lat="46.14368" lon="7.02939"><ele>459.8</ele><time>2017-06-15T09:49:49Z</time></trkpt>
<trkpt lat="46.14366" lon="7.02938"><ele>459.8</ele><time>2017-06-15T09:49:51Z</time></trkpt>
<trkpt lat="46.14364" lon="7.02938"><ele>459.8</ele><time>2017-06-15T09:49:53Z</time></trkpt>
<trkpt lat="46.14363" lon="7.0294"><ele>459.6</ele><time>2017-06-15T09:49:55Z</time></trkpt>
<trkpt lat="46.14363" lon="7.02942"><ele>459.6</ele><time>2017-06-15T09:49:57Z</time></trkpt>
<trkpt lat="46.14363" lon="7.02943"><ele>459.6</ele><time>2017-06-15T09:49:59Z</time></trkpt>
<trkpt lat="46.14362" lon="7.02945"><ele>459.6</ele><time>2017-06-15T09:50:01Z</time></trkpt>
<trkpt lat="46.14362" lon="7.02947"><ele>459.4</ele><time>2017-06-15T09:50:03Z</time></trkpt>
<trkpt lat="46.14362" lon="7.02949"><ele>459.4</ele><time>2017-06-15T09:50:05Z</time></trkpt>
<trkpt lat="46.1436" lon="7.02951"><ele>459.4</ele><time>2017-06-15T09:50:06Z</time></trkpt>
<trkpt lat="46.14357" lon="7.02954"><ele>459.4</ele><time>2017-06-15T09:50:07Z</time></trkpt>
<trkpt lat="46.14351" lon="7.02961"><ele>459.4</ele><time>2017-06-15T09:50:09Z</time></trkpt>
<trkpt lat="46.14345" lon="7.02968"><ele>459.2</ele><time>2017-06-15T09:50:11Z</time></trkpt>
<trkpt lat="46.14338" lon="7.02975"><ele>459.2</ele><time>2017-06-15T09:50:13Z</time></trkpt>
<trkpt lat="46.14332" lon="7.02981"><ele>459.2</ele><time>2017-06-15T09:50:15Z</time></trkpt>
<trkpt lat="46.14326" lon="7.02988"><ele>459.2</ele><time>2017-06-15T09:50:17Z</time></trkpt>
<trkpt lat="46.14322" lon="7.02991"><ele>459.2</ele><time>2017-06-15T09:50:18Z</time></trkpt>
<trkpt lat="46.14318" lon="7.02994"><ele>459</ele><time>2017-06-15T09:50:19Z</time></trkpt>
<trkpt lat="46.14309" lon="7.02999"><ele>459</ele><time>2017-06-15T09:50:21Z</time></trkpt>
<trkpt lat="46.14299" lon="7.03004"><ele>458.8</ele><time>2017-06-15T09:50:23Z</time></trkpt>
<trkpt lat="46.14294" lon="7.03007"><ele>458.8</ele><time>2017-06-15T09:50:24Z</time></trkpt>
<trkpt lat="46.14289" lon="7.03011"><ele>458.8</ele><time>2017-06-15T09:50:25Z</time></trkpt>
<trkpt lat="46.14278" lon="7.0302"><ele>458.6</ele><time>2017-06-15T09:50:27Z</time></trkpt>
<trkpt lat="46.14266" lon="7.03029"><ele>458.6</ele><time>2017-06-15T09:50:29Z</time></trkpt>
<trkpt lat="46.14261" lon="7.03034"><ele>458.4</ele><time>2017-06-15T09:50:30Z</time></trkpt>
<trkpt lat="46.14258" lon="7.0304"><ele>458.6</ele><time>2017-06-15T09:50:31Z</time></trkpt>
<trkpt lat="46.14251" lon="7.03052"><ele>458.6</ele><time>2017-06-15T09:50:33Z</time></trkpt>
<trkpt lat="46.14247" lon="7.03056"><ele>458.6</ele><time>2017-06-15T09:50:34Z</time></trkpt>
<trkpt lat="46.14244" lon="7.03057"><ele>458.6</ele><time>2017-06-15T09:50:35Z</time></trkpt>
<trkpt lat="46.14239" lon="7.0306"><ele>458.8</ele><time>2017-06-15T09:50:37Z</time></trkpt>
<trkpt lat="46.14238" lon="7.03062"><ele>458.8</ele><time>2017-06-15T09:50:38Z</time></trkpt>
<trkpt lat="46.14238" lon="7.03067"><ele>458.8</ele><time>2017-06-15T09:50:39Z</time></trkpt>
<trkpt lat="46.14232" lon="7.03072"><ele>458.8</ele><time>2017-06-15T09:50:41Z</time></trkpt>
<trkpt lat="46.14226" lon="7.03077"><ele>459</ele><time>2017-06-15T09:50:43Z</time></trkpt>
<trkpt lat="46.1422" lon="7.03083"><ele>459</ele><time>2017-06-15T09:50:45Z</time></trkpt>
<trkpt lat="46.14214" lon="7.03088"><ele>459.2</ele><time>2017-06-15T09:50:47Z</time></trkpt>
<trkpt lat="46.14208" lon="7.03093"><ele>459.2</ele><time>2017-06-15T09:50:49Z</time></trkpt>
<trkpt lat="46.14202" lon="7.03099"><ele>459.2</ele><time>2017-06-15T09:50:51Z</time></trkpt>
<trkpt lat="46.14199" lon="7.03101"><ele>459.2</ele><time>2017-06-15T09:50:52Z</time></trkpt>
<trkpt lat="46.14196" lon="7.03102"><ele>459.4</ele><time>2017-06-15T09:50:53Z</time></trkpt>
<trkpt lat="46.1419" lon="7.03105"><ele>459.4</ele><time>2017-06-15T09:50:55Z</time></trkpt>
<trkpt lat="46.14183" lon="7.03108"><ele>459.4</ele><time>2017-06-15T09:50:57Z</time></trkpt>
<trkpt lat="46.14177" lon="7.0311"><ele>459.6</ele><time>2017-06-15T09:50:59Z</time></trkpt>
<trkpt lat="46.14171" lon="7.03113"><ele>459.6</ele><time>2017-06-15T09:51:01Z</time></trkpt>
<trkpt lat="46.14167" lon="7.03115"><ele>459.6</ele><time>2017-06-15T09:51:02Z</time></trkpt>
<trkpt lat="46.14161" lon="7.03116"><ele>459.6</ele><time>2017-06-15T09:51:03Z</time></trkpt>
<trkpt lat="46.14148" lon="7.03119"><ele>459.8</ele><time>2017-06-15T09:51:05Z</time></trkpt>
<trkpt lat="46.14137" lon="7.03124"><ele>459.8</ele><time>2017-06-15T09:51:07Z</time></trkpt>
<trkpt lat="46.14128" lon="7.03134"><ele>459.8</ele><time>2017-06-15T09:51:09Z</time></trkpt>
<trkpt lat="46.14123" lon="7.03137"><ele>460</ele><time>2017-06-15T09:51:10Z</time></trkpt>
<trkpt lat="46.1412" lon="7.03143"><ele>460</ele><time>2017-06-15T09:51:11Z</time></trkpt>
<trkpt lat="46.14114" lon="7.03154"><ele>460</ele><time>2017-06-15T09:51:13Z</time></trkpt>
<trkpt lat="46.14104" lon="7.03161"><ele>460.2</ele><time>2017-06-15T09:51:15Z</time></trkpt>
<trkpt lat="46.14094" lon="7.03167"><ele>460.2</ele><time>2017-06-15T09:51:17Z</time></trkpt>
<trkpt lat="46.14084" lon="7.03174"><ele>460.2</ele><time>2017-06-15T09:51:19Z</time></trkpt>
<trkpt lat="46.1408" lon="7.03176"><ele>460.2</ele><time>2017-06-15T09:51:20Z</time></trkpt>
<trkpt lat="46.14078" lon="7.03176"><ele>460.4</ele><time>2017-06-15T09:51:21Z</time></trkpt>
<trkpt lat="46.14075" lon="7.03177"><ele>460.4</ele><time>2017-06-15T09:51:22Z</time></trkpt>
<trkpt lat="46.14073" lon="7.03181"><ele>460.4</ele><time>2017-06-15T09:51:23Z</time></trkpt>
<trkpt lat="46.14068" lon="7.03188"><ele>460.4</ele><time>2017-06-15T09:51:25Z</time></trkpt>
<trkpt lat="46.14064" lon="7.03195"><ele>460.6</ele><time>2017-06-15T09:51:27Z</time></trkpt>
<trkpt lat="46.14061" lon="7.03199"><ele>460.6</ele><time>2017-06-15T09:51:28Z</time></trkpt>
<trkpt lat="46.14059" lon="7.032"><ele>460.6</ele><time>2017-06-15T09:51:29Z</time></trkpt>
<trkpt lat="46.14054" lon="7.03204"><ele>460.6</ele><time>2017-06-15T09:51:31Z</time></trkpt>
<trkpt lat="46.14049" lon="7.03208"><ele>460.8</ele><time>2017-06-15T09:51:33Z</time></trkpt>
<trkpt lat="46.14047" lon="7.0321"><ele>460.8</ele><time>2017-06-15T09:51:34Z</time></trkpt>
<trkpt lat="46.14045" lon="7.03212"><ele>460.8</ele><time>2017-06-15T09:51:35Z</time></trkpt>
<trkpt lat="46.1404" lon="7.03216"><ele>460.6</ele><time>2017-06-15T09:51:37Z</time></trkpt>
<trkpt lat="46.14035" lon="7.0322"><ele>460.4</ele><time>2017-06-15T09:51:39Z</time></trkpt>
<trkpt lat="46.14032" lon="7.03223"><ele>460.4</ele><time>2017-06-15T09:51:40Z</time></trkpt>
<trkpt lat="46.14028" lon="7.0323"><ele>460.4</ele><time>2017-06-15T09:51:41Z</time></trkpt>
<trkpt lat="46.14021" lon="7.03243"><ele>460.2</ele><time>2017-06-15T09:51:43Z</time></trkpt>
<trkpt lat="46.14017" lon="7.03249"><ele>460.2</ele><time>2017-06-15T09:51:44Z</time></trkpt>
<trkpt lat="46.14013" lon="7.03254"><ele>460.2</ele><time>2017-06-15T09:51:45Z</time></trkpt>
<trkpt lat="46.14009" lon="7.03259"><ele>460</ele><time>2017-06-15T09:51:46Z</time></trkpt>
<trkpt lat="46.14004" lon="7.03264"><ele>459.8</ele><time>2017-06-15T09:51:47Z</time></trkpt>
<trkpt lat="46.14" lon="7.03268"><ele>459.6</ele><time>2017-06-15T09:51:48Z</time></trkpt>
<trkpt lat="46.13994" lon="7.03272"><ele>459.4</ele><time>2017-06-15T09:51:49Z</time></trkpt>
<trkpt lat="46.13984" lon="7.0328"><ele>459</ele><time>2017-06-15T09:51:51Z</time></trkpt>
<trkpt lat="46.1398" lon="7.03285"><ele>458.8</ele><time>2017-06-15T09:51:52Z</time></trkpt>
<trkpt lat="46.13976" lon="7.03286"><ele>458.6</ele><time>2017-06-15T09:51:53Z</time></trkpt>
<trkpt lat="46.13968" lon="7.03287"><ele>458.2</ele><time>2017-06-15T09:51:55Z</time></trkpt>
<trkpt lat="46.1396" lon="7.03289"><ele>457.8</ele><time>2017-06-15T09:51:57Z</time></trkpt>
<trkpt lat="46.13956" lon="7.0329"><ele>457.8</ele><time>2017-06-15T09:51:58Z</time></trkpt>
<trkpt lat="46.13953" lon="7.03289"><ele>457.8</ele><time>2017-06-15T09:51:59Z</time></trkpt>
<trkpt lat="46.13952" lon="7.03287"><ele>458</ele><time>2017-06-15T09:52:00Z</time></trkpt>
<trkpt lat="46.13949" lon="7.03287"><ele>458</ele><time>2017-06-15T09:52:01Z</time></trkpt>
<trkpt lat="46.13945" lon="7.03288"><ele>458.2</ele><time>2017-06-15T09:52:02Z</time></trkpt>
<trkpt lat="46.13941" lon="7.0329"><ele>458.2</ele><time>2017-06-15T09:52:03Z</time></trkpt>
<trkpt lat="46.13933" lon="7.03292"><ele>458.4</ele><time>2017-06-15T09:52:05Z</time></trkpt>
<trkpt lat="46.13924" lon="7.03295"><ele>458.6</ele><time>2017-06-15T09:52:07Z</time></trkpt>
<trkpt lat="46.13916" lon="7.03298"><ele>458.8</ele><time>2017-06-15T09:52:09Z</time></trkpt>
<trkpt lat="46.13912" lon="7.03299"><ele>458.8</ele><time>2017-06-15T09:52:10Z</time></trkpt>
<trkpt lat="46.13908" lon="7.03301"><ele>458.8</ele><time>2017-06-15T09:52:11Z</time></trkpt>
<trkpt lat="46.13899" lon="7.03302"><ele>458.8</ele><time>2017-06-15T09:52:13Z</time></trkpt>
<trkpt lat="46.1389" lon="7.03297"><ele>459</ele><time>2017-06-15T09:52:15Z</time></trkpt>
<trkpt lat="46.13881" lon="7.03296"><ele>459</ele><time>2017-06-15T09:52:17Z</time></trkpt>
<trkpt lat="46.13873" lon="7.03296"><ele>459</ele><time>2017-06-15T09:52:19Z</time></trkpt>
<trkpt lat="46.13864" lon="7.03296"><ele>459</ele><time>2017-06-15T09:52:21Z</time></trkpt>
<trkpt lat="46.13855" lon="7.03301"><ele>459</ele><time>2017-06-15T09:52:23Z</time></trkpt>
<trkpt lat="46.13851" lon="7.03303"><ele>459</ele><time>2017-06-15T09:52:24Z</time></trkpt>
<trkpt lat="46.13847" lon="7.03302"><ele>459</ele><time>2017-06-15T09:52:25Z</time></trkpt>
<trkpt lat="46.1384" lon="7.03302"><ele>459</ele><time>2017-06-15T09:52:27Z</time></trkpt>
<trkpt lat="46.13833" lon="7.03301"><ele>459.2</ele><time>2017-06-15T09:52:29Z</time></trkpt>
<trkpt lat="46.13826" lon="7.033"><ele>459.2</ele><time>2017-06-15T09:52:31Z</time></trkpt>
<trkpt lat="46.13823" lon="7.03302"><ele>459.2</ele><time>2017-06-15T09:52:32Z</time></trkpt>
<trkpt lat="46.13824" lon="7.03308"><ele>459.2</ele><time>2017-06-15T09:52:33Z</time></trkpt>
<trkpt lat="46.13825" lon="7.03321"><ele>459.2</ele><time>2017-06-15T09:52:35Z</time></trkpt>
<trkpt lat="46.13826" lon="7.03334"><ele>459.2</ele><time>2017-06-15T09:52:37Z</time></trkpt>
<trkpt lat="46.13827" lon="7.03347"><ele>459.2</ele><time>2017-06-15T09:52:39Z</time></trkpt>
<trkpt lat="46.13827" lon="7.03359"><ele>459.2</ele><time>2017-06-15T09:52:41Z</time></trkpt>
<trkpt lat="46.13828" lon="7.03372"><ele>459.2</ele><time>2017-06-15T09:52:43Z</time></trkpt>
<trkpt lat="46.13829" lon="7.03382"><ele>459.4</ele><time>2017-06-15T09:52:45Z</time></trkpt>
<trkpt lat="46.13828" lon="7.03389"><ele>459.4</ele><time>2017-06-15T09:52:46Z</time></trkpt>
<trkpt lat="46.13826" lon="7.03397"><ele>459.4</ele><time>2017-06-15T09:52:47Z</time></trkpt>
<trkpt lat="46.13822" lon="7.034"><ele>459.4</ele><time>2017-06-15T09:52:49Z</time></trkpt>
<trkpt lat="46.13812" lon="7.03405"><ele>459.4</ele><time>2017-06-15T09:52:51Z</time></trkpt>
<trkpt lat="46.13803" lon="7.03409"><ele>459.4</ele><time>2017-06-15T09:52:53Z</time></trkpt>
<trkpt lat="46.13793" lon="7.03414"><ele>459.4</ele><time>2017-06-15T09:52:55Z</time></trkpt>
<trkpt lat="46.13783" lon="7.03418"><ele>459.4</ele><time>2017-06-15T09:52:57Z</time></trkpt>
<trkpt lat="46.13779" lon="7.0342"><ele>459.6</ele><time>2017-06-15T09:52:58Z</time></trkpt>
<trkpt lat="46.13774" lon="7.03423"><ele>459.6</ele><time>2017-06-15T09:52:59Z</time></trkpt>
<trkpt lat="46.13764" lon="7.03428"><ele>459.6</ele><time>2017-06-15T09:53:01Z</time></trkpt>
<trkpt lat="46.13755" lon="7.03433"><ele>459.6</ele><time>2017-06-15T09:53:03Z</time></trkpt>
<trkpt lat="46.13745" lon="7.03438"><ele>459.6</ele><time>2017-06-15T09:53:05Z</time></trkpt>
<trkpt lat="46.13736" lon="7.03443"><ele>459.6</ele><time>2017-06-15T09:53:07Z</time></trkpt>
<trkpt lat="46.13725" lon="7.03449"><ele>459.6</ele><time>2017-06-15T09:53:09Z</time></trkpt>
<trkpt lat="46.13715" lon="7.03455"><ele>459.6</ele><time>2017-06-15T09:53:11Z</time></trkpt>
<trkpt lat="46.13705" lon="7.03461"><ele>459.8</ele><time>2017-06-15T09:53:13Z</time></trkpt>
<trkpt lat="46.13695" lon="7.03467"><ele>459.8</ele><time>2017-06-15T09:53:15Z</time></trkpt>
<trkpt lat="46.1369" lon="7.0347"><ele>459.8</ele><time>2017-06-15T09:53:16Z</time></trkpt>
<trkpt lat="46.13685" lon="7.03473"><ele>459.8</ele><time>2017-06-15T09:53:17Z</time></trkpt>
<trkpt lat="46.13675" lon="7.0348"><ele>459.8</ele><time>2017-06-15T09:53:19Z</time></trkpt>
<trkpt lat="46.13666" lon="7.03486"><ele>459.8</ele><time>2017-06-15T09:53:21Z</time></trkpt>
<trkpt lat="46.13656" lon="7.03492"><ele>459.8</ele><time>2017-06-15T09:53:23Z</time></trkpt>
<trkpt lat="46.13646" lon="7.03498"><ele>459.8</ele><time>2017-06-15T09:53:25Z</time></trkpt>
<trkpt lat="46.13636" lon="7.03503"><ele>460</ele><time>2017-06-15T09:53:27Z</time></trkpt>
<trkpt lat="46.13627" lon="7.03509"><ele>460</ele><time>2017-06-15T09:53:29Z</time></trkpt>
<trkpt lat="46.13617" lon="7.03515"><ele>460</ele><time>2017-06-15T09:53:31Z</time></trkpt>
<trkpt lat="46.13612" lon="7.03517"><ele>460</ele><time>2017-06-15T09:53:32Z</time></trkpt>
<trkpt lat="46.13609" lon="7.0352"><ele>460</ele><time>2017-06-15T09:53:33Z</time></trkpt>
<trkpt lat="46.13601" lon="7.03525"><ele>460</ele><time>2017-06-15T09:53:35Z</time></trkpt>
<trkpt lat="46.13594" lon="7.03531"><ele>460</ele><time>2017-06-15T09:53:37Z</time></trkpt>
<trkpt lat="46.13586" lon="7.03536"><ele>460</ele><time>2017-06-15T09:53:39Z</time></trkpt>
<trkpt lat="46.13579" lon="7.03541"><ele>460</ele><time>2017-06-15T09:53:41Z</time></trkpt>
<trkpt lat="46.13571" lon="7.03546"><ele>460.2</ele><time>2017-06-15T09:53:43Z</time></trkpt>
<trkpt lat="46.13568" lon="7.03549"><ele>460.2</ele><time>2017-06-15T09:53:44Z</time></trkpt>
<trkpt lat="46.13563" lon="7.03552"><ele>460.2</ele><time>2017-06-15T09:53:45Z</time></trkpt>
<trkpt lat="46.13555" lon="7.03559"><ele>460.2</ele><time>2017-06-15T09:53:47Z</time></trkpt>
<trkpt lat="46.13547" lon="7.03565"><ele>460.2</ele><time>2017-06-15T09:53:49Z</time></trkpt>
<trkpt lat="46.13543" lon="7.03567"><ele>460.2</ele><time>2017-06-15T09:53:50Z</time></trkpt>
<trkpt lat="46.13538" lon="7.03569"><ele>460.2</ele><time>2017-06-15T09:53:51Z</time></trkpt>
<trkpt lat="46.13533" lon="7.0357"><ele>460.2</ele><time>2017-06-15T09:53:52Z</time></trkpt>
<trkpt lat="46.13529" lon="7.03572"><ele>460.2</ele><time>2017-06-15T09:53:53Z</time></trkpt>
<trkpt lat="46.1352" lon="7.03576"><ele>460.2</ele><time>2017-06-15T09:53:55Z</time></trkpt>
<trkpt lat="46.13511" lon="7.0358"><ele>460.4</ele><time>2017-06-15T09:53:57Z</time></trkpt>
<trkpt lat="46.13502" lon="7.03584"><ele>460.4</ele><time>2017-06-15T09:53:59Z</time></trkpt>
<trkpt lat="46.13493" lon="7.03588"><ele>460.4</ele><time>2017-06-15T09:54:01Z</time></trkpt>
<trkpt lat="46.13489" lon="7.0359"><ele>460.4</ele><time>2017-06-15T09:54:02Z</time></trkpt>
<trkpt lat="46.13485" lon="7.03591"><ele>460.4</ele><time>2017-06-15T09:54:03Z</time></trkpt>
<trkpt lat="46.13477" lon="7.03592"><ele>460.4</ele><time>2017-06-15T09:54:05Z</time></trkpt>
<trkpt lat="46.13469" lon="7.03593"><ele>460.4</ele><time>2017-06-15T09:54:07Z</time></trkpt>
<trkpt lat="46.13466" lon="7.03592"><ele>460.4</ele><time>2017-06-15T09:54:08Z</time></trkpt>
<trkpt lat="46.13462" lon="7.03589"><ele>460.4</ele><time>2017-06-15T09:54:09Z</time></trkpt>
<trkpt lat="46.13455" lon="7.03583"><ele>460.6</ele><time>2017-06-15T09:54:11Z</time></trkpt>
<trkpt lat="46.13448" lon="7.03577"><ele>460.6</ele><time>2017-06-15T09:54:13Z</time></trkpt>
<trkpt lat="46.13442" lon="7.03571"><ele>460.6</ele><time>2017-06-15T09:54:15Z</time></trkpt>
<trkpt lat="46.13435" lon="7.03565"><ele>460.6</ele><time>2017-06-15T09:54:17Z</time></trkpt>
<trkpt lat="46.13428" lon="7.03559"><ele>460.6</ele><time>2017-06-15T09:54:19Z</time></trkpt>
<trkpt lat="46.13419" lon="7.03555"><ele>460.6</ele><time>2017-06-15T09:54:21Z</time></trkpt>
<trkpt lat="46.13411" lon="7.0355"><ele>460.6</ele><time>2017-06-15T09:54:23Z</time></trkpt>
<trkpt lat="46.13403" lon="7.03546"><ele>460.6</ele><time>2017-06-15T09:54:25Z</time></trkpt>
<trkpt lat="46.13394" lon="7.03541"><ele>460.8</ele><time>2017-06-15T09:54:27Z</time></trkpt>
<trkpt lat="46.13391" lon="7.03539"><ele>460.8</ele><time>2017-06-15T09:54:28Z</time></trkpt>
<trkpt lat="46.13391" lon="7.03537"><ele>460.8</ele><time>2017-06-15T09:54:29Z</time></trkpt>
<trkpt lat="46.13389" lon="7.03532"><ele>460.8</ele><time>2017-06-15T09:54:31Z</time></trkpt>
<trkpt lat="46.13388" lon="7.03528"><ele>460.8</ele><time>2017-06-15T09:54:33Z</time></trkpt>
<trkpt lat="46.13386" lon="7.03524"><ele>460.8</ele><time>2017-06-15T09:54:35Z</time></trkpt>
<trkpt lat="46.13385" lon="7.03519"><ele>460.8</ele><time>2017-06-15T09:54:37Z</time></trkpt>
<trkpt lat="46.13383" lon="7.03515"><ele>460.8</ele><time>2017-06-15T09:54:39Z</time></trkpt>
<trkpt lat="46.13383" lon="7.0351"><ele>461</ele><time>2017-06-15T09:54:41Z</time></trkpt>
<trkpt lat="46.13384" lon="7.03508"><ele>461</ele><time>2017-06-15T09:54:42Z</time></trkpt>
<trkpt lat="46.13384" lon="7.03506"><ele>461.2</ele><time>2017-06-15T09:54:43Z</time></trkpt>
<trkpt lat="46.13384" lon="7.03501"><ele>461.6</ele><time>2017-06-15T09:54:45Z</time></trkpt>
<trkpt lat="46.13384" lon="7.03497"><ele>462</ele><time>2017-06-15T09:54:47Z</time></trkpt>
<trkpt lat="46.13384" lon="7.03492"><ele>462.4</ele><time>2017-06-15T09:54:49Z</time></trkpt>
<trkpt lat="46.13384" lon="7.03488"><ele>463</ele><time>2017-06-15T09:54:51Z</time></trkpt>
<trkpt lat="46.13384" lon="7.03484"><ele>463.4</ele><time>2017-06-15T09:54:53Z</time></trkpt>
<trkpt lat="46.13384" lon="7.03479"><ele>463.8</ele><time>2017-06-15T09:54:55Z</time></trkpt>
<trkpt lat="46.13384" lon="7.03475"><ele>464.2</ele><time>2017-06-15T09:54:57Z</time></trkpt>
<trkpt lat="46.13384" lon="7.03472"><ele>464.4</ele><time>2017-06-15T09:54:58Z</time></trkpt>
<trkpt lat="46.13384" lon="7.0347"><ele>464.6</ele><time>2017-06-15T09:54:59Z</time></trkpt>
<trkpt lat="46.13384" lon="7.03466"><ele>465</ele><time>2017-06-15T09:55:01Z</time></trkpt>
<trkpt lat="46.13385" lon="7.03461"><ele>465.4</ele><time>2017-06-15T09:55:03Z</time></trkpt>
<trkpt lat="46.13385" lon="7.03457"><ele>465.8</ele><time>2017-06-15T09:55:05Z</time></trkpt>
<trkpt lat="46.13385" lon="7.03452"><ele>466.2</ele><time>2017-06-15T09:55:07Z</time></trkpt>
<trkpt lat="46.13385" lon="7.03451"><ele>466.2</ele><time>2017-06-15T09:55:08Z</time></trkpt>
<trkpt lat="46.13385" lon="7.0345"><ele>466.4</ele><time>2017-06-15T09:55:09Z</time></trkpt>
<trkpt lat="46.13385" lon="7.0345"><ele>466.8</ele><time>2017-06-15T09:55:11Z</time></trkpt>
<trkpt lat="46.13385" lon="7.03449"><ele>467.2</ele><time>2017-06-15T09:55:13Z</time></trkpt>
<trkpt lat="46.13385" lon="7.03449"><ele>467.4</ele><time>2017-06-15T09:55:14Z</time></trkpt>
<trkpt lat="46.13385" lon="7.03448"><ele>467.6</ele><time>2017-06-15T09:55:15Z</time></trkpt>
<trkpt lat="46.13385" lon="7.03447"><ele>467.8</ele><time>2017-06-15T09:55:17Z</time></trkpt>
<trkpt lat="46.134" lon="7.03411"><ele>471</ele><time>2017-06-15T09:55:19Z</time></trkpt>
<trkpt lat="46.134" lon="7.03411"><ele>471</ele><time>2017-06-15T09:58:46Z</time></trkpt>
<trkpt lat="46.13415" lon="7.03376"><ele>474</ele><time>2017-06-15T09:58:47Z</time></trkpt>
<trkpt lat="46.13415" lon="7.03374"><ele>474</ele><time>2017-06-15T09:58:49Z</time></trkpt>
<trkpt lat="46.13416" lon="7.03373"><ele>474</ele><time>2017-06-15T09:58:51Z</time></trkpt>
<trkpt lat="46.13417" lon="7.03372"><ele>474.4</ele><time>2017-06-15T09:58:53Z</time></trkpt>
<trkpt lat="46.13418" lon="7.03371"><ele>474.8</ele><time>2017-06-15T09:58:55Z</time></trkpt>
<trkpt lat="46.13419" lon="7.0337"><ele>475.2</ele><time>2017-06-15T09:58:57Z</time></trkpt>
<trkpt lat="46.13419" lon="7.03368"><ele>475.4</ele><time>2017-06-15T09:58:59Z</time></trkpt>
<trkpt lat="46.1342" lon="7.03367"><ele>475.8</ele><time>2017-06-15T09:59:01Z</time></trkpt>
<trkpt lat="46.13421" lon="7.03366"><ele>476</ele><time>2017-06-15T09:59:03Z</time></trkpt>
<trkpt lat="46.13422" lon="7.03365"><ele>476.4</ele><time>2017-06-15T09:59:05Z</time></trkpt>
<trkpt lat="46.13422" lon="7.03364"><ele>476.6</ele><time>2017-06-15T09:59:06Z</time></trkpt>
<trkpt lat="46.13423" lon="7.03363"><ele>476.6</ele><time>2017-06-15T09:59:07Z</time></trkpt>
<trkpt lat="46.13424" lon="7.03361"><ele>477</ele><time>2017-06-15T09:59:09Z</time></trkpt>
<trkpt lat="46.13414" lon="7.03362"><ele>479.8</ele><time>2017-06-15T09:59:12Z</time></trkpt>
<trkpt lat="46.13414" lon="7.03362"><ele>479.8</ele><time>2017-06-15T10:00:34Z</time></trkpt>
<trkpt lat="46.13403" lon="7.03364"><ele>482.4</ele><time>2017-06-15T10:00:35Z</time></trkpt>
<trkpt lat="46.13402" lon="7.03365"><ele>482.6</ele><time>2017-06-15T10:00:37Z</time></trkpt>
<trkpt lat="46.13401" lon="7.03365"><ele>482.6</ele><time>2017-06-15T10:00:39Z</time></trkpt>
<trkpt lat="46.134" lon="7.03366"><ele>482.8</ele><time>2017-06-15T10:00:41Z</time></trkpt>
<trkpt lat="46.13398" lon="7.03367"><ele>482.8</ele><time>2017-06-15T10:00:43Z</time></trkpt>
<trkpt lat="46.13397" lon="7.03367"><ele>483</ele><time>2017-06-15T10:00:45Z</time></trkpt>
<trkpt lat="46.13396" lon="7.03368"><ele>483</ele><time>2017-06-15T10:00:47Z</time></trkpt>
<trkpt lat="46.13395" lon="7.03369"><ele>483.4</ele><time>2017-06-15T10:00:49Z</time></trkpt>
<trkpt lat="46.13394" lon="7.03369"><ele>483.8</ele><time>2017-06-15T10:00:51Z</time></trkpt>
<trkpt lat="46.13393" lon="7.0337"><ele>484</ele><time>2017-06-15T10:00:52Z</time></trkpt>
<trkpt lat="46.13392" lon="7.0337"><ele>484</ele><time>2017-06-15T10:00:53Z</time></trkpt>
<trkpt lat="46.13391" lon="7.03371"><ele>484.4</ele><time>2017-06-15T10:00:55Z</time></trkpt>
<trkpt lat="46.1339" lon="7.03371"><ele>484.8</ele><time>2017-06-15T10:00:57Z</time></trkpt>
<trkpt lat="46.13389" lon="7.03372"><ele>485</ele><time>2017-06-15T10:00:59Z</time></trkpt>
<trkpt lat="46.13388" lon="7.03373"><ele>485.2</ele><time>2017-06-15T10:01:00Z</time></trkpt>
<trkpt lat="46.13387" lon="7.03374"><ele>485.4</ele><time>2017-06-15T10:01:01Z</time></trkpt>
<trkpt lat="46.13385" lon="7.03376"><ele>485.8</ele><time>2017-06-15T10:01:03Z</time></trkpt>
<trkpt lat="46.13382" lon="7.03378"><ele>486</ele><time>2017-06-15T10:01:05Z</time></trkpt>
<trkpt lat="46.1338" lon="7.0338"><ele>486.4</ele><time>2017-06-15T10:01:07Z</time></trkpt>
<trkpt lat="46.13377" lon="7.03382"><ele>486.8</ele><time>2017-06-15T10:01:09Z</time></trkpt>
<trkpt lat="46.13375" lon="7.03384"><ele>487</ele><time>2017-06-15T10:01:11Z</time></trkpt>
<trkpt lat="46.13373" lon="7.03386"><ele>487.4</ele><time>2017-06-15T10:01:13Z</time></trkpt>
<trkpt lat="46.1337" lon="7.03388"><ele>487.8</ele><time>2017-06-15T10:01:15Z</time></trkpt>
<trkpt lat="46.13368" lon="7.0339"><ele>488.2</ele><time>2017-06-15T10:01:17Z</time></trkpt>
<trkpt lat="46.13366" lon="7.03392"><ele>488.6</ele><time>2017-06-15T10:01:19Z</time></trkpt>
<trkpt lat="46.13363" lon="7.03394"><ele>489</ele><time>2017-06-15T10:01:21Z</time></trkpt>
<trkpt lat="46.13361" lon="7.03396"><ele>489.2</ele><time>2017-06-15T10:01:23Z</time></trkpt>
<trkpt lat="46.13358" lon="7.03398"><ele>489.6</ele><time>2017-06-15T10:01:25Z</time></trkpt>
<trkpt lat="46.13356" lon="7.034"><ele>490</ele><time>2017-06-15T10:01:27Z</time></trkpt>
<trkpt lat="46.13354" lon="7.03402"><ele>490.4</ele><time>2017-06-15T10:01:29Z</time></trkpt>
<trkpt lat="46.13351" lon="7.03404"><ele>490.8</ele><time>2017-06-15T10:01:31Z</time></trkpt>
<trkpt lat="46.1335" lon="7.03405"><ele>491</ele><time>2017-06-15T10:01:32Z</time></trkpt>
<trkpt lat="46.13349" lon="7.03405"><ele>491.2</ele><time>2017-06-15T10:01:33Z</time></trkpt>
<trkpt lat="46.13348" lon="7.03404"><ele>491.6</ele><time>2017-06-15T10:01:35Z</time></trkpt>
<trkpt lat="46.13347" lon="7.03403"><ele>491.8</ele><time>2017-06-15T10:01:37Z</time></trkpt>
<trkpt lat="46.13346" lon="7.03402"><ele>492.2</ele><time>2017-06-15T10:01:39Z</time></trkpt>
<trkpt lat="46.13348" lon="7.034"><ele>492.6</ele><time>2017-06-15T10:01:41Z</time></trkpt>
<trkpt lat="46.13349" lon="7.03397"><ele>492.8</ele><time>2017-06-15T10:01:43Z</time></trkpt>
<trkpt lat="46.13351" lon="7.03395"><ele>493.2</ele><time>2017-06-15T10:01:45Z</time></trkpt>
<trkpt lat="46.13353" lon="7.03392"><ele>493.6</ele><time>2017-06-15T10:01:47Z</time></trkpt>
<trkpt lat="46.13355" lon="7.0339"><ele>493.8</ele><time>2017-06-15T10:01:49Z</time></trkpt>
<trkpt lat="46.13357" lon="7.03387"><ele>494.2</ele><time>2017-06-15T10:01:51Z</time></trkpt>
<trkpt lat="46.13358" lon="7.03385"><ele>494.6</ele><time>2017-06-15T10:01:53Z</time></trkpt>
<trkpt lat="46.1336" lon="7.03382"><ele>494.8</ele><time>2017-06-15T10:01:55Z</time></trkpt>
<trkpt lat="46.13362" lon="7.0338"><ele>495.2</ele><time>2017-06-15T10:01:57Z</time></trkpt>
<trkpt lat="46.13364" lon="7.03377"><ele>495.6</ele><time>2017-06-15T10:01:59Z</time></trkpt>
<trkpt lat="46.13366" lon="7.03375"><ele>495.8</ele><time>2017-06-15T10:02:01Z</time></trkpt>
<trkpt lat="46.13367" lon="7.03372"><ele>496.2</ele><time>2017-06-15T10:02:03Z</time></trkpt>
<trkpt lat="46.13369" lon="7.0337"><ele>496.4</ele><time>2017-06-15T10:02:05Z</time></trkpt>
<trkpt lat="46.13371" lon="7.03368"><ele>496.8</ele><time>2017-06-15T10:02:07Z</time></trkpt>
<trkpt lat="46.13373" lon="7.03365"><ele>497.2</ele><time>2017-06-15T10:02:09Z</time></trkpt>
<trkpt lat="46.13375" lon="7.03363"><ele>497.4</ele><time>2017-06-15T10:02:11Z</time></trkpt>
<trkpt lat="46.13376" lon="7.0336"><ele>497.8</ele><time>2017-06-15T10:02:13Z</time></trkpt>
<trkpt lat="46.13378" lon="7.03358"><ele>498.2</ele><time>2017-06-15T10:02:15Z</time></trkpt>
<trkpt lat="46.13379" lon="7.03357"><ele>498.2</ele><time>2017-06-15T10:02:16Z</time></trkpt>
<trkpt lat="46.1338" lon="7.03356"><ele>498.4</ele><time>2017-06-15T10:02:17Z</time></trkpt>
<trkpt lat="46.13382" lon="7.03354"><ele>498.8</ele><time>2017-06-15T10:02:19Z</time></trkpt>
<trkpt lat="46.13384" lon="7.03352"><ele>499.2</ele><time>2017-06-15T10:02:21Z</time></trkpt>
<trkpt lat="46.13387" lon="7.03349"><ele>499.4</ele><time>2017-06-15T10:02:23Z</time></trkpt>
<trkpt lat="46.13389" lon="7.03347"><ele>499.8</ele><time>2017-06-15T10:02:25Z</time></trkpt>
<trkpt lat="46.13391" lon="7.03345"><ele>500.2</ele><time>2017-06-15T10:02:27Z</time></trkpt>
<trkpt lat="46.13393" lon="7.03343"><ele>500.6</ele><time>2017-06-15T10:02:29Z</time></trkpt>
<trkpt lat="46.13395" lon="7.03341"><ele>500.8</ele><time>2017-06-15T10:02:31Z</time></trkpt>
<trkpt lat="46.13397" lon="7.03339"><ele>501.2</ele><time>2017-06-15T10:02:33Z</time></trkpt>
<trkpt lat="46.134" lon="7.03337"><ele>501.6</ele><time>2017-06-15T10:02:35Z</time></trkpt>
<trkpt lat="46.13402" lon="7.03335"><ele>502</ele><time>2017-06-15T10:02:37Z</time></trkpt>
<trkpt lat="46.13404" lon="7.03333"><ele>502.2</ele><time>2017-06-15T10:02:39Z</time></trkpt>
<trkpt lat="46.13405" lon="7.03332"><ele>502.4</ele><time>2017-06-15T10:02:40Z</time></trkpt>
<trkpt lat="46.13406" lon="7.03331"><ele>502.6</ele><time>2017-06-15T10:02:41Z</time></trkpt>
<trkpt lat="46.13408" lon="7.03329"><ele>503</ele><time>2017-06-15T10:02:43Z</time></trkpt>
<trkpt lat="46.1341" lon="7.03327"><ele>503.2</ele><time>2017-06-15T10:02:45Z</time></trkpt>
<trkpt lat="46.13413" lon="7.03325"><ele>503.6</ele><time>2017-06-15T10:02:47Z</time></trkpt>
<trkpt lat="46.13415" lon="7.03323"><ele>504</ele><time>2017-06-15T10:02:49Z</time></trkpt>
<trkpt lat="46.13416" lon="7.03321"><ele>504.2</ele><time>2017-06-15T10:02:51Z</time></trkpt>
<trkpt lat="46.13416" lon="7.03319"><ele>504.6</ele><time>2017-06-15T10:02:53Z</time></trkpt>
<trkpt lat="46.13415" lon="7.03316"><ele>505</ele><time>2017-06-15T10:02:55Z</time></trkpt>
<trkpt lat="46.13414" lon="7.03314"><ele>505.4</ele><time>2017-06-15T10:02:57Z</time></trkpt>
<trkpt lat="46.13411" lon="7.03316"><ele>505.6</ele><time>2017-06-15T10:02:59Z</time></trkpt>
<trkpt lat="46.13409" lon="7.03318"><ele>506</ele><time>2017-06-15T10:03:01Z</time></trkpt>
<trkpt lat="46.13407" lon="7.03319"><ele>506.2</ele><time>2017-06-15T10:03:02Z</time></trkpt>
<trkpt lat="46.13406" lon="7.0332"><ele>506.4</ele><time>2017-06-15T10:03:03Z</time></trkpt>
<trkpt lat="46.13404" lon="7.03321"><ele>506.6</ele><time>2017-06-15T10:03:05Z</time></trkpt>
<trkpt lat="46.13401" lon="7.03323"><ele>507</ele><time>2017-06-15T10:03:07Z</time></trkpt>
<trkpt lat="46.13398" lon="7.03325"><ele>507.2</ele><time>2017-06-15T10:03:09Z</time></trkpt>
<trkpt lat="46.13396" lon="7.03326"><ele>507.6</ele><time>2017-06-15T10:03:11Z</time></trkpt>
<trkpt lat="46.13393" lon="7.03328"><ele>508</ele><time>2017-06-15T10:03:13Z</time></trkpt>
<trkpt lat="46.13391" lon="7.0333"><ele>508.2</ele><time>2017-06-15T10:03:15Z</time></trkpt>
<trkpt lat="46.13388" lon="7.03331"><ele>508.6</ele><time>2017-06-15T10:03:17Z</time></trkpt>
<trkpt lat="46.13386" lon="7.03333"><ele>509</ele><time>2017-06-15T10:03:19Z</time></trkpt>
<trkpt lat="46.13383" lon="7.03335"><ele>509.2</ele><time>2017-06-15T10:03:21Z</time></trkpt>
<trkpt lat="46.1338" lon="7.03337"><ele>509.6</ele><time>2017-06-15T10:03:23Z</time></trkpt>
<trkpt lat="46.13378" lon="7.03338"><ele>509.8</ele><time>2017-06-15T10:03:25Z</time></trkpt>
<trkpt lat="46.13375" lon="7.0334"><ele>510.2</ele><time>2017-06-15T10:03:27Z</time></trkpt>
<trkpt lat="46.13373" lon="7.03342"><ele>510.4</ele><time>2017-06-15T10:03:29Z</time></trkpt>
<trkpt lat="46.1337" lon="7.03343"><ele>510.8</ele><time>2017-06-15T10:03:31Z</time></trkpt>
<trkpt lat="46.13368" lon="7.03345"><ele>511</ele><time>2017-06-15T10:03:33Z</time></trkpt>
<trkpt lat="46.13366" lon="7.03347"><ele>511.2</ele><time>2017-06-15T10:03:35Z</time></trkpt>
<trkpt lat="46.13363" lon="7.03348"><ele>511.6</ele><time>2017-06-15T10:03:37Z</time></trkpt>
<trkpt lat="46.13361" lon="7.0335"><ele>511.8</ele><time>2017-06-15T10:03:39Z</time></trkpt>
<trkpt lat="46.13358" lon="7.03351"><ele>512.2</ele><time>2017-06-15T10:03:41Z</time></trkpt>
<trkpt lat="46.13356" lon="7.03353"><ele>512.4</ele><time>2017-06-15T10:03:43Z</time></trkpt>
<trkpt lat="46.13354" lon="7.03355"><ele>512.6</ele><time>2017-06-15T10:03:45Z</time></trkpt>
<trkpt lat="46.13351" lon="7.03356"><ele>513</ele><time>2017-06-15T10:03:47Z</time></trkpt>
<trkpt lat="46.13349" lon="7.03358"><ele>513.4</ele><time>2017-06-15T10:03:49Z</time></trkpt>
<trkpt lat="46.13346" lon="7.03359"><ele>513.6</ele><time>2017-06-15T10:03:51Z</time></trkpt>
<trkpt lat="46.13344" lon="7.03361"><ele>514</ele><time>2017-06-15T10:03:53Z</time></trkpt>
<trkpt lat="46.13342" lon="7.03363"><ele>514.4</ele><time>2017-06-15T10:03:55Z</time></trkpt>
<trkpt lat="46.13339" lon="7.03364"><ele>514.8</ele><time>2017-06-15T10:03:57Z</time></trkpt>
<trkpt lat="46.13337" lon="7.03366"><ele>515.2</ele><time>2017-06-15T10:03:59Z</time></trkpt>
<trkpt lat="46.13334" lon="7.03368"><ele>515.4</ele><time>2017-06-15T10:04:01Z</time></trkpt>
<trkpt lat="46.13332" lon="7.03369"><ele>515.8</ele><time>2017-06-15T10:04:03Z</time></trkpt>
<trkpt lat="46.13332" lon="7.03369"><ele>516</ele><time>2017-06-15T10:04:04Z</time></trkpt>
<trkpt lat="46.13332" lon="7.03369"><ele>516.2</ele><time>2017-06-15T10:04:05Z</time></trkpt>
<trkpt lat="46.13331" lon="7.03369"><ele>516.4</ele><time>2017-06-15T10:04:07Z</time></trkpt>
<trkpt lat="46.13331" lon="7.03369"><ele>516.8</ele><time>2017-06-15T10:04:09Z</time></trkpt>
<trkpt lat="46.1333" lon="7.03369"><ele>517</ele><time>2017-06-15T10:04:11Z</time></trkpt>
<trkpt lat="46.1333" lon="7.03369"><ele>517.4</ele><time>2017-06-15T10:04:13Z</time></trkpt>
<trkpt lat="46.13329" lon="7.03369"><ele>517.6</ele><time>2017-06-15T10:04:15Z</time></trkpt>
<trkpt lat="46.13329" lon="7.03369"><ele>518</ele><time>2017-06-15T10:04:17Z</time></trkpt>
<trkpt lat="46.13328" lon="7.03369"><ele>518.4</ele><time>2017-06-15T10:04:19Z</time></trkpt>
<trkpt lat="46.13328" lon="7.03369"><ele>518.6</ele><time>2017-06-15T10:04:21Z</time></trkpt>
<trkpt lat="46.13328" lon="7.03368"><ele>519</ele><time>2017-06-15T10:04:23Z</time></trkpt>
<trkpt lat="46.13327" lon="7.03368"><ele>519.2</ele><time>2017-06-15T10:04:25Z</time></trkpt>
<trkpt lat="46.13327" lon="7.03368"><ele>519.6</ele><time>2017-06-15T10:04:27Z</time></trkpt>
<trkpt lat="46.13326" lon="7.03368"><ele>520</ele><time>2017-06-15T10:04:29Z</time></trkpt>
<trkpt lat="46.13326" lon="7.03368"><ele>520.2</ele><time>2017-06-15T10:04:31Z</time></trkpt>
<trkpt lat="46.13325" lon="7.03368"><ele>520.6</ele><time>2017-06-15T10:04:33Z</time></trkpt>
<trkpt lat="46.13325" lon="7.03368"><ele>521</ele><time>2017-06-15T10:04:35Z</time></trkpt>
<trkpt lat="46.13324" lon="7.03368"><ele>521.4</ele><time>2017-06-15T10:04:37Z</time></trkpt>
<trkpt lat="46.13324" lon="7.03368"><ele>521.8</ele><time>2017-06-15T10:04:39Z</time></trkpt>
<trkpt lat="46.13323" lon="7.03368"><ele>522</ele><time>2017-06-15T10:04:41Z</time></trkpt>
<trkpt lat="46.13323" lon="7.03368"><ele>522.4</ele><time>2017-06-15T10:04:43Z</time></trkpt>
<trkpt lat="46.13322" lon="7.03368"><ele>522.8</ele><time>2017-06-15T10:04:45Z</time></trkpt>
<trkpt lat="46.13322" lon="7.03368"><ele>523.2</ele><time>2017-06-15T10:04:47Z</time></trkpt>
<trkpt lat="46.13322" lon="7.03368"><ele>523.4</ele><time>2017-06-15T10:04:48Z</time></trkpt>
<trkpt lat="46.13321" lon="7.03368"><ele>523.6</ele><time>2017-06-15T10:04:49Z</time></trkpt>
<trkpt lat="46.13321" lon="7.03368"><ele>523.8</ele><time>2017-06-15T10:04:51Z</time></trkpt>
<trkpt lat="46.1332" lon="7.03368"><ele>524.2</ele><time>2017-06-15T10:04:53Z</time></trkpt>
<trkpt lat="46.1332" lon="7.03368"><ele>524.4</ele><time>2017-06-15T10:04:55Z</time></trkpt>
<trkpt lat="46.13319" lon="7.03368"><ele>524.8</ele><time>2017-06-15T10:04:57Z</time></trkpt>
<trkpt lat="46.13319" lon="7.03368"><ele>525.2</ele><time>2017-06-15T10:04:59Z</time></trkpt>
<trkpt lat="46.13318" lon="7.03368"><ele>525.4</ele><time>2017-06-15T10:05:01Z</time></trkpt>
<trkpt lat="46.13318" lon="7.03368"><ele>525.8</ele><time>2017-06-15T10:05:03Z</time></trkpt>
<trkpt lat="46.13317" lon="7.03368"><ele>526</ele><time>2017-06-15T10:05:05Z</time></trkpt>
<trkpt lat="46.13318" lon="7.03367"><ele>526.2</ele><time>2017-06-15T10:05:06Z</time></trkpt>
<trkpt lat="46.13318" lon="7.03366"><ele>526.4</ele><time>2017-06-15T10:05:07Z</time></trkpt>
<trkpt lat="46.13319" lon="7.03363"><ele>526.8</ele><time>2017-06-15T10:05:09Z</time></trkpt>
<trkpt lat="46.1332" lon="7.0336"><ele>527</ele><time>2017-06-15T10:05:11Z</time></trkpt>
<trkpt lat="46.13321" lon="7.03357"><ele>527.4</ele><time>2017-06-15T10:05:13Z</time></trkpt>
<trkpt lat="46.13322" lon="7.03354"><ele>527.6</ele><time>2017-06-15T10:05:15Z</time></trkpt>
<trkpt lat="46.13323" lon="7.03352"><ele>528</ele><time>2017-06-15T10:05:17Z</time></trkpt>
<trkpt lat="46.13321" lon="7.03353"><ele>528.4</ele><time>2017-06-15T10:05:19Z</time></trkpt>
<trkpt lat="46.13319" lon="7.03354"><ele>528.6</ele><time>2017-06-15T10:05:21Z</time></trkpt>
<trkpt lat="46.13317" lon="7.03356"><ele>529</ele><time>2017-06-15T10:05:23Z</time></trkpt>
<trkpt lat="46.13315" lon="7.03357"><ele>529.2</ele><time>2017-06-15T10:05:25Z</time></trkpt>
<trkpt lat="46.13313" lon="7.03358"><ele>529.6</ele><time>2017-06-15T10:05:27Z</time></trkpt>
<trkpt lat="46.13312" lon="7.0336"><ele>530</ele><time>2017-06-15T10:05:29Z</time></trkpt>
<trkpt lat="46.1331" lon="7.03361"><ele>530.2</ele><time>2017-06-15T10:05:31Z</time></trkpt>
<trkpt lat="46.13308" lon="7.03362"><ele>530.6</ele><time>2017-06-15T10:05:33Z</time></trkpt>
<trkpt lat="46.13306" lon="7.03364"><ele>530.8</ele><time>2017-06-15T10:05:35Z</time></trkpt>
<trkpt lat="46.13304" lon="7.03365"><ele>531.2</ele><time>2017-06-15T10:05:37Z</time></trkpt>
<trkpt lat="46.13302" lon="7.03366"><ele>531.6</ele><time>2017-06-15T10:05:39Z</time></trkpt>
<trkpt lat="46.13301" lon="7.03367"><ele>531.8</ele><time>2017-06-15T10:05:41Z</time></trkpt>
<trkpt lat="46.13292" lon="7.0337"><ele>535.2</ele><time>2017-06-15T10:05:43Z</time></trkpt>
<trkpt lat="46.13292" lon="7.0337"><ele>535.2</ele><time>2017-06-15T10:06:18Z</time></trkpt>
<trkpt lat="46.13285" lon="7.03371"><ele>538.2</ele><time>2017-06-15T10:06:19Z</time></trkpt>
<trkpt lat="46.13285" lon="7.0337"><ele>538.6</ele><time>2017-06-15T10:06:21Z</time></trkpt>
<trkpt lat="46.13286" lon="7.03369"><ele>539</ele><time>2017-06-15T10:06:23Z</time></trkpt>
<trkpt lat="46.13286" lon="7.03368"><ele>539.2</ele><time>2017-06-15T10:06:25Z</time></trkpt>
<trkpt lat="46.13286" lon="7.03367"><ele>539.6</ele><time>2017-06-15T10:06:27Z</time></trkpt>
<trkpt lat="46.13286" lon="7.03366"><ele>540</ele><time>2017-06-15T10:06:29Z</time></trkpt>
<trkpt lat="46.13287" lon="7.03365"><ele>540.2</ele><time>2017-06-15T10:06:31Z</time></trkpt>
<trkpt lat="46.13287" lon="7.03364"><ele>540.6</ele><time>2017-06-15T10:06:33Z</time></trkpt>
<trkpt lat="46.13287" lon="7.03363"><ele>541</ele><time>2017-06-15T10:06:35Z</time></trkpt>
<trkpt lat="46.13287" lon="7.03362"><ele>541.2</ele><time>2017-06-15T10:06:37Z</time></trkpt>
<trkpt lat="46.13288" lon="7.03361"><ele>541.6</ele><time>2017-06-15T10:06:39Z</time></trkpt>
<trkpt lat="46.13288" lon="7.03361"><ele>541.8</ele><time>2017-06-15T10:06:40Z</time></trkpt>
<trkpt lat="46.13288" lon="7.0336"><ele>542</ele><time>2017-06-15T10:06:41Z</time></trkpt>
<trkpt lat="46.13288" lon="7.03359"><ele>542.2</ele><time>2017-06-15T10:06:43Z</time></trkpt>
<trkpt lat="46.13288" lon="7.03358"><ele>542.4</ele><time>2017-06-15T10:06:45Z</time></trkpt>
<trkpt lat="46.13289" lon="7.03357"><ele>542.8</ele><time>2017-06-15T10:06:47Z</time></trkpt>
<trkpt lat="46.13289" lon="7.03356"><ele>543</ele><time>2017-06-15T10:06:49Z</time></trkpt>
<trkpt lat="46.13289" lon="7.03355"><ele>543.2</ele><time>2017-06-15T10:06:51Z</time></trkpt>
<trkpt lat="46.13289" lon="7.03354"><ele>543.6</ele><time>2017-06-15T10:06:53Z</time></trkpt>
<trkpt lat="46.1329" lon="7.03353"><ele>543.8</ele><time>2017-06-15T10:06:55Z</time></trkpt>
<trkpt lat="46.1329" lon="7.03352"><ele>544.2</ele><time>2017-06-15T10:06:57Z</time></trkpt>
<trkpt lat="46.1329" lon="7.03351"><ele>544.4</ele><time>2017-06-15T10:06:59Z</time></trkpt>
<trkpt lat="46.13291" lon="7.0335"><ele>544.6</ele><time>2017-06-15T10:07:01Z</time></trkpt>
<trkpt lat="46.13291" lon="7.0335"><ele>544.8</ele><time>2017-06-15T10:07:02Z</time></trkpt>
<trkpt lat="46.13291" lon="7.03349"><ele>545</ele><time>2017-06-15T10:07:03Z</time></trkpt>
<trkpt lat="46.13291" lon="7.03348"><ele>545.2</ele><time>2017-06-15T10:07:05Z</time></trkpt>
<trkpt lat="46.1329" lon="7.0335"><ele>545.6</ele><time>2017-06-15T10:07:07Z</time></trkpt>
<trkpt lat="46.13288" lon="7.03351"><ele>546</ele><time>2017-06-15T10:07:09Z</time></trkpt>
<trkpt lat="46.13286" lon="7.03353"><ele>546.2</ele><time>2017-06-15T10:07:11Z</time></trkpt>
<trkpt lat="46.13285" lon="7.03355"><ele>546.6</ele><time>2017-06-15T10:07:13Z</time></trkpt>
<trkpt lat="46.13283" lon="7.03356"><ele>546.8</ele><time>2017-06-15T10:07:15Z</time></trkpt>
<trkpt lat="46.13282" lon="7.03358"><ele>547.2</ele><time>2017-06-15T10:07:17Z</time></trkpt>
<trkpt lat="46.1328" lon="7.03359"><ele>547.4</ele><time>2017-06-15T10:07:19Z</time></trkpt>
<trkpt lat="46.13279" lon="7.03361"><ele>547.8</ele><time>2017-06-15T10:07:21Z</time></trkpt>
<trkpt lat="46.13277" lon="7.03362"><ele>548</ele><time>2017-06-15T10:07:23Z</time></trkpt>
<trkpt lat="46.13277" lon="7.03363"><ele>548.2</ele><time>2017-06-15T10:07:24Z</time></trkpt>
<trkpt lat="46.13276" lon="7.03364"><ele>548.4</ele><time>2017-06-15T10:07:25Z</time></trkpt>
<trkpt lat="46.13274" lon="7.03366"><ele>548.8</ele><time>2017-06-15T10:07:27Z</time></trkpt>
<trkpt lat="46.13273" lon="7.03367"><ele>549.2</ele><time>2017-06-15T10:07:29Z</time></trkpt>
<trkpt lat="46.13271" lon="7.03369"><ele>549.4</ele><time>2017-06-15T10:07:31Z</time></trkpt>
<trkpt lat="46.1327" lon="7.0337"><ele>549.8</ele><time>2017-06-15T10:07:33Z</time></trkpt>
<trkpt lat="46.13268" lon="7.03372"><ele>550.2</ele><time>2017-06-15T10:07:35Z</time></trkpt>
<trkpt lat="46.13268" lon="7.03373"><ele>550.4</ele><time>2017-06-15T10:07:36Z</time></trkpt>
<trkpt lat="46.13268" lon="7.03375"><ele>550.6</ele><time>2017-06-15T10:07:37Z</time></trkpt>
<trkpt lat="46.13269" lon="7.03378"><ele>551</ele><time>2017-06-15T10:07:39Z</time></trkpt>
<trkpt lat="46.13271" lon="7.03382"><ele>551.2</ele><time>2017-06-15T10:07:41Z</time></trkpt>
<trkpt lat="46.13272" lon="7.03385"><ele>551.6</ele><time>2017-06-15T10:07:43Z</time></trkpt>
<trkpt lat="46.13273" lon="7.03389"><ele>552</ele><time>2017-06-15T10:07:45Z</time></trkpt>
<trkpt lat="46.13273" lon="7.0339"><ele>552.2</ele><time>2017-06-15T10:07:46Z</time></trkpt>
<trkpt lat="46.13274" lon="7.03392"><ele>552.4</ele><time>2017-06-15T10:07:47Z</time></trkpt>
<trkpt lat="46.13275" lon="7.03395"><ele>552.6</ele><time>2017-06-15T10:07:49Z</time></trkpt>
<trkpt lat="46.13276" lon="7.03399"><ele>553</ele><time>2017-06-15T10:07:51Z</time></trkpt>
<trkpt lat="46.13277" lon="7.03402"><ele>553.2</ele><time>2017-06-15T10:07:53Z</time></trkpt>
<trkpt lat="46.13275" lon="7.034"><ele>553.6</ele><time>2017-06-15T10:07:55Z</time></trkpt>
<trkpt lat="46.13274" lon="7.03399"><ele>554</ele><time>2017-06-15T10:07:57Z</time></trkpt>
<trkpt lat="46.13273" lon="7.03398"><ele>554.2</ele><time>2017-06-15T10:07:59Z</time></trkpt>
<trkpt lat="46.13271" lon="7.03397"><ele>554.6</ele><time>2017-06-15T10:08:01Z</time></trkpt>
<trkpt lat="46.1327" lon="7.03395"><ele>555</ele><time>2017-06-15T10:08:03Z</time></trkpt>
<trkpt lat="46.13268" lon="7.03394"><ele>555.2</ele><time>2017-06-15T10:08:05Z</time></trkpt>
<trkpt lat="46.13268" lon="7.03393"><ele>555.4</ele><time>2017-06-15T10:08:06Z</time></trkpt>
<trkpt lat="46.13268" lon="7.03392"><ele>555.6</ele><time>2017-06-15T10:08:07Z</time></trkpt>
<trkpt lat="46.13269" lon="7.0339"><ele>555.8</ele><time>2017-06-15T10:08:08Z</time></trkpt>
<trkpt lat="46.13269" lon="7.03389"><ele>555.8</ele><time>2017-06-15T10:08:09Z</time></trkpt>
<trkpt lat="46.13269" lon="7.03386"><ele>556.2</ele><time>2017-06-15T10:08:11Z</time></trkpt>
<trkpt lat="46.1327" lon="7.03383"><ele>556.6</ele><time>2017-06-15T10:08:13Z</time></trkpt>
<trkpt lat="46.1327" lon="7.0338"><ele>556.8</ele><time>2017-06-15T10:08:15Z</time></trkpt>
<trkpt lat="46.13271" lon="7.03377"><ele>557.2</ele><time>2017-06-15T10:08:17Z</time></trkpt>
<trkpt lat="46.13271" lon="7.03375"><ele>557.4</ele><time>2017-06-15T10:08:19Z</time></trkpt>
<trkpt lat="46.13271" lon="7.03372"><ele>557.8</ele><time>2017-06-15T10:08:21Z</time></trkpt>
<trkpt lat="46.13272" lon="7.03369"><ele>558</ele><time>2017-06-15T10:08:23Z</time></trkpt>
<trkpt lat="46.13272" lon="7.03366"><ele>558.4</ele><time>2017-06-15T10:08:25Z</time></trkpt>
<trkpt lat="46.13273" lon="7.03363"><ele>558.8</ele><time>2017-06-15T10:08:27Z</time></trkpt>
<trkpt lat="46.13273" lon="7.0336"><ele>559</ele><time>2017-06-15T10:08:29Z</time></trkpt>
<trkpt lat="46.13274" lon="7.03357"><ele>559.4</ele><time>2017-06-15T10:08:31Z</time></trkpt>
<trkpt lat="46.13274" lon="7.03354"><ele>559.6</ele><time>2017-06-15T10:08:33Z</time></trkpt>
<trkpt lat="46.13275" lon="7.03351"><ele>560</ele><time>2017-06-15T10:08:35Z</time></trkpt>
<trkpt lat="46.13275" lon="7.03349"><ele>560.2</ele><time>2017-06-15T10:08:37Z</time></trkpt>
<trkpt lat="46.13276" lon="7.03346"><ele>560.6</ele><time>2017-06-15T10:08:39Z</time></trkpt>
<trkpt lat="46.13276" lon="7.03343"><ele>560.8</ele><time>2017-06-15T10:08:41Z</time></trkpt>
<trkpt lat="46.13277" lon="7.0334"><ele>561.2</ele><time>2017-06-15T10:08:43Z</time></trkpt>
<trkpt lat="46.13278" lon="7.03339"><ele>561.6</ele><time>2017-06-15T10:08:45Z</time></trkpt>
<trkpt lat="46.13279" lon="7.03338"><ele>561.8</ele><time>2017-06-15T10:08:47Z</time></trkpt>
<trkpt lat="46.13281" lon="7.03337"><ele>562.2</ele><time>2017-06-15T10:08:49Z</time></trkpt>
<trkpt lat="46.13282" lon="7.03336"><ele>562.2</ele><time>2017-06-15T10:08:50Z</time></trkpt>
<trkpt lat="46.13282" lon="7.03336"><ele>562.4</ele><time>2017-06-15T10:08:51Z</time></trkpt>
<trkpt lat="46.13284" lon="7.03335"><ele>562.8</ele><time>2017-06-15T10:08:53Z</time></trkpt>
<trkpt lat="46.13285" lon="7.03333"><ele>563</ele><time>2017-06-15T10:08:55Z</time></trkpt>
<trkpt lat="46.13287" lon="7.03332"><ele>563.4</ele><time>2017-06-15T10:08:57Z</time></trkpt>
<trkpt lat="46.13288" lon="7.03331"><ele>563.8</ele><time>2017-06-15T10:08:59Z</time></trkpt>
<trkpt lat="46.13289" lon="7.0333"><ele>564</ele><time>2017-06-15T10:09:01Z</time></trkpt>
<trkpt lat="46.13291" lon="7.03329"><ele>564.4</ele><time>2017-06-15T10:09:03Z</time></trkpt>
<trkpt lat="46.13292" lon="7.03328"><ele>564.6</ele><time>2017-06-15T10:09:05Z</time></trkpt>
<trkpt lat="46.13294" lon="7.03327"><ele>565</ele><time>2017-06-15T10:09:07Z</time></trkpt>
<trkpt lat="46.13295" lon="7.03325"><ele>565.4</ele><time>2017-06-15T10:09:09Z</time></trkpt>
<trkpt lat="46.13296" lon="7.03324"><ele>565.6</ele><time>2017-06-15T10:09:11Z</time></trkpt>
<trkpt lat="46.13297" lon="7.03324"><ele>565.8</ele><time>2017-06-15T10:09:12Z</time></trkpt>
<trkpt lat="46.13298" lon="7.03323"><ele>566</ele><time>2017-06-15T10:09:13Z</time></trkpt>
<trkpt lat="46.13299" lon="7.03322"><ele>566.4</ele><time>2017-06-15T10:09:15Z</time></trkpt>
<trkpt lat="46.13301" lon="7.03321"><ele>566.6</ele><time>2017-06-15T10:09:17Z</time></trkpt>
<trkpt lat="46.13302" lon="7.0332"><ele>567</ele><time>2017-06-15T10:09:19Z</time></trkpt>
<trkpt lat="46.13304" lon="7.03319"><ele>567.4</ele><time>2017-06-15T10:09:21Z</time></trkpt>
<trkpt lat="46.13306" lon="7.03318"><ele>567.8</ele><time>2017-06-15T10:09:23Z</time></trkpt>
<trkpt lat="46.13308" lon="7.03317"><ele>568.2</ele><time>2017-06-15T10:09:25Z</time></trkpt>
<trkpt lat="46.13309" lon="7.03317"><ele>568.4</ele><time>2017-06-15T10:09:27Z</time></trkpt>
<trkpt lat="46.13311" lon="7.03316"><ele>568.8</ele><time>2017-06-15T10:09:29Z</time></trkpt>
<trkpt lat="46.13313" lon="7.03315"><ele>569.2</ele><time>2017-06-15T10:09:31Z</time></trkpt>
<trkpt lat="46.13315" lon="7.03314"><ele>569.6</ele><time>2017-06-15T10:09:33Z</time></trkpt>
<trkpt lat="46.13315" lon="7.03313"><ele>569.6</ele><time>2017-06-15T10:09:34Z</time></trkpt>
<trkpt lat="46.13314" lon="7.03311"><ele>569.8</ele><time>2017-06-15T10:09:35Z</time></trkpt>
<trkpt lat="46.13312" lon="7.03308"><ele>570.2</ele><time>2017-06-15T10:09:37Z</time></trkpt>
<trkpt lat="46.13311" lon="7.03305"><ele>570.4</ele><time>2017-06-15T10:09:39Z</time></trkpt>
<trkpt lat="46.13308" lon="7.03304"><ele>570.8</ele><time>2017-06-15T10:09:41Z</time></trkpt>
<trkpt lat="46.13306" lon="7.03304"><ele>571.2</ele><time>2017-06-15T10:09:43Z</time></trkpt>
<trkpt lat="46.13303" lon="7.03303"><ele>571.4</ele><time>2017-06-15T10:09:45Z</time></trkpt>
<trkpt lat="46.13301" lon="7.03303"><ele>571.8</ele><time>2017-06-15T10:09:47Z</time></trkpt>
<trkpt lat="46.13299" lon="7.03302"><ele>572</ele><time>2017-06-15T10:09:49Z</time></trkpt>
<trkpt lat="46.13296" lon="7.03302"><ele>572.4</ele><time>2017-06-15T10:09:51Z</time></trkpt>
<trkpt lat="46.13294" lon="7.03301"><ele>572.8</ele><time>2017-06-15T10:09:53Z</time></trkpt>
<trkpt lat="46.13291" lon="7.03301"><ele>573</ele><time>2017-06-15T10:09:55Z</time></trkpt>
<trkpt lat="46.13289" lon="7.033"><ele>573.4</ele><time>2017-06-15T10:09:57Z</time></trkpt>
<trkpt lat="46.13287" lon="7.033"><ele>573.6</ele><time>2017-06-15T10:09:59Z</time></trkpt>
<trkpt lat="46.13284" lon="7.03299"><ele>574</ele><time>2017-06-15T10:10:01Z</time></trkpt>
<trkpt lat="46.13282" lon="7.03299"><ele>574.2</ele><time>2017-06-15T10:10:03Z</time></trkpt>
<trkpt lat="46.13279" lon="7.03298"><ele>574.6</ele><time>2017-06-15T10:10:05Z</time></trkpt>
<trkpt lat="46.13277" lon="7.03298"><ele>574.8</ele><time>2017-06-15T10:10:07Z</time></trkpt>
<trkpt lat="46.13275" lon="7.03297"><ele>575</ele><time>2017-06-15T10:10:09Z</time></trkpt>
<trkpt lat="46.13272" lon="7.03297"><ele>575.4</ele><time>2017-06-15T10:10:11Z</time></trkpt>
<trkpt lat="46.1327" lon="7.03297"><ele>575.6</ele><time>2017-06-15T10:10:13Z</time></trkpt>
<trkpt lat="46.13267" lon="7.03296"><ele>576</ele><time>2017-06-15T10:10:15Z</time></trkpt>
<trkpt lat="46.13265" lon="7.03296"><ele>576.2</ele><time>2017-06-15T10:10:17Z</time></trkpt>
<trkpt lat="46.13265" lon="7.03295"><ele>576.6</ele><time>2017-06-15T10:10:19Z</time></trkpt>
<trkpt lat="46.13265" lon="7.03295"><ele>576.8</ele><time>2017-06-15T10:10:21Z</time></trkpt>
<trkpt lat="46.13265" lon="7.03295"><ele>577.2</ele><time>2017-06-15T10:10:23Z</time></trkpt>
<trkpt lat="46.13265" lon="7.03295"><ele>577.6</ele><time>2017-06-15T10:10:25Z</time></trkpt>
<trkpt lat="46.13265" lon="7.03294"><ele>577.8</ele><time>2017-06-15T10:10:27Z</time></trkpt>
<trkpt lat="46.13265" lon="7.03294"><ele>578.2</ele><time>2017-06-15T10:10:29Z</time></trkpt>
<trkpt lat="46.13265" lon="7.03294"><ele>578.4</ele><time>2017-06-15T10:10:31Z</time></trkpt>
<trkpt lat="46.13265" lon="7.03294"><ele>578.8</ele><time>2017-06-15T10:10:33Z</time></trkpt>
<trkpt lat="46.13265" lon="7.03294"><ele>579.2</ele><time>2017-06-15T10:10:35Z</time></trkpt>
<trkpt lat="46.13265" lon="7.03293"><ele>579.4</ele><time>2017-06-15T10:10:37Z</time></trkpt>
<trkpt lat="46.13264" lon="7.03293"><ele>579.8</ele><time>2017-06-15T10:10:39Z</time></trkpt>
<trkpt lat="46.13264" lon="7.03293"><ele>580</ele><time>2017-06-15T10:10:41Z</time></trkpt>
<trkpt lat="46.13264" lon="7.03293"><ele>580.4</ele><time>2017-06-15T10:10:43Z</time></trkpt>
<trkpt lat="46.13264" lon="7.03293"><ele>580.8</ele><time>2017-06-15T10:10:45Z</time></trkpt>
<trkpt lat="46.13264" lon="7.03292"><ele>581</ele><time>2017-06-15T10:10:47Z</time></trkpt>
<trkpt lat="46.13264" lon="7.03292"><ele>581.4</ele><time>2017-06-15T10:10:49Z</time></trkpt>
<trkpt lat="46.13264" lon="7.03292"><ele>581.8</ele><time>2017-06-15T10:10:51Z</time></trkpt>
<trkpt lat="46.13264" lon="7.03292"><ele>582</ele><time>2017-06-15T10:10:53Z</time></trkpt>
<trkpt lat="46.13264" lon="7.03291"><ele>582.4</ele><time>2017-06-15T10:10:55Z</time></trkpt>
<trkpt lat="46.13264" lon="7.03291"><ele>582.8</ele><time>2017-06-15T10:10:57Z</time></trkpt>
<trkpt lat="46.13264" lon="7.03291"><ele>583</ele><time>2017-06-15T10:10:59Z</time></trkpt>
<trkpt lat="46.13264" lon="7.03291"><ele>583.4</ele><time>2017-06-15T10:11:01Z</time></trkpt>
<trkpt lat="46.13263" lon="7.03291"><ele>583.8</ele><time>2017-06-15T10:11:03Z</time></trkpt>
<trkpt lat="46.13263" lon="7.0329"><ele>584</ele><time>2017-06-15T10:11:05Z</time></trkpt>
<trkpt lat="46.13263" lon="7.0329"><ele>584.2</ele><time>2017-06-15T10:11:07Z</time></trkpt>
<trkpt lat="46.13263" lon="7.0329"><ele>584.6</ele><time>2017-06-15T10:11:09Z</time></trkpt>
<trkpt lat="46.13263" lon="7.0329"><ele>584.8</ele><time>2017-06-15T10:11:11Z</time></trkpt>
<trkpt lat="46.13263" lon="7.03289"><ele>585.2</ele><time>2017-06-15T10:11:13Z</time></trkpt>
<trkpt lat="46.13263" lon="7.03289"><ele>585.4</ele><time>2017-06-15T10:11:15Z</time></trkpt>
<trkpt lat="46.13263" lon="7.03289"><ele>585.8</ele><time>2017-06-15T10:11:17Z</time></trkpt>
<trkpt lat="46.13263" lon="7.03289"><ele>586</ele><time>2017-06-15T10:11:19Z</time></trkpt>
<trkpt lat="46.13263" lon="7.03289"><ele>586.2</ele><time>2017-06-15T10:11:21Z</time></trkpt>
<trkpt lat="46.13263" lon="7.03288"><ele>586.6</ele><time>2017-06-15T10:11:23Z</time></trkpt>
<trkpt lat="46.13262" lon="7.03288"><ele>586.8</ele><time>2017-06-15T10:11:25Z</time></trkpt>
<trkpt lat="46.13262" lon="7.03288"><ele>587</ele><time>2017-06-15T10:11:26Z</time></trkpt>
<trkpt lat="46.13262" lon="7.03288"><ele>587.2</ele><time>2017-06-15T10:11:27Z</time></trkpt>
<trkpt lat="46.13262" lon="7.03288"><ele>587.6</ele><time>2017-06-15T10:11:29Z</time></trkpt>
<trkpt lat="46.13262" lon="7.03287"><ele>587.8</ele><time>2017-06-15T10:11:31Z</time></trkpt>
<trkpt lat="46.13262" lon="7.03287"><ele>588.2</ele><time>2017-06-15T10:11:33Z</time></trkpt>
<trkpt lat="46.13262" lon="7.03287"><ele>588.4</ele><time>2017-06-15T10:11:35Z</time></trkpt>
<trkpt lat="46.13262" lon="7.03286"><ele>588.8</ele><time>2017-06-15T10:11:37Z</time></trkpt>
<trkpt lat="46.13263" lon="7.03283"><ele>589.2</ele><time>2017-06-15T10:11:39Z</time></trkpt>
<trkpt lat="46.13264" lon="7.03281"><ele>589.4</ele><time>2017-06-15T10:11:41Z</time></trkpt>
<trkpt lat="46.13265" lon="7.03278"><ele>589.8</ele><time>2017-06-15T10:11:43Z</time></trkpt>
<trkpt lat="46.13263" lon="7.0328"><ele>590</ele><time>2017-06-15T10:11:45Z</time></trkpt>
<trkpt lat="46.13261" lon="7.03282"><ele>590.4</ele><time>2017-06-15T10:11:47Z</time></trkpt>
<trkpt lat="46.1326" lon="7.03283"><ele>590.6</ele><time>2017-06-15T10:11:48Z</time></trkpt>
<trkpt lat="46.13258" lon="7.03284"><ele>590.8</ele><time>2017-06-15T10:11:49Z</time></trkpt>
<trkpt lat="46.13256" lon="7.03286"><ele>591</ele><time>2017-06-15T10:11:51Z</time></trkpt>
<trkpt lat="46.13254" lon="7.03287"><ele>591.4</ele><time>2017-06-15T10:11:53Z</time></trkpt>
<trkpt lat="46.13252" lon="7.03289"><ele>591.8</ele><time>2017-06-15T10:11:55Z</time></trkpt>
<trkpt lat="46.1325" lon="7.03291"><ele>592.2</ele><time>2017-06-15T10:11:57Z</time></trkpt>
<trkpt lat="46.13248" lon="7.03293"><ele>592.4</ele><time>2017-06-15T10:11:59Z</time></trkpt>
<trkpt lat="46.13246" lon="7.03294"><ele>592.8</ele><time>2017-06-15T10:12:01Z</time></trkpt>
<trkpt lat="46.13244" lon="7.03296"><ele>593.2</ele><time>2017-06-15T10:12:03Z</time></trkpt>
<trkpt lat="46.13242" lon="7.03298"><ele>593.4</ele><time>2017-06-15T10:12:05Z</time></trkpt>
<trkpt lat="46.1324" lon="7.033"><ele>593.8</ele><time>2017-06-15T10:12:07Z</time></trkpt>
<trkpt lat="46.13238" lon="7.03302"><ele>594.2</ele><time>2017-06-15T10:12:09Z</time></trkpt>
<trkpt lat="46.13235" lon="7.03303"><ele>594.6</ele><time>2017-06-15T10:12:11Z</time></trkpt>
<trkpt lat="46.13233" lon="7.03305"><ele>594.8</ele><time>2017-06-15T10:12:13Z</time></trkpt>
<trkpt lat="46.13231" lon="7.03307"><ele>595.2</ele><time>2017-06-15T10:12:15Z</time></trkpt>
<trkpt lat="46.13229" lon="7.03309"><ele>595.6</ele><time>2017-06-15T10:12:17Z</time></trkpt>
<trkpt lat="46.13227" lon="7.03311"><ele>595.8</ele><time>2017-06-15T10:12:19Z</time></trkpt>
<trkpt lat="46.13226" lon="7.03311"><ele>596</ele><time>2017-06-15T10:12:20Z</time></trkpt>
<trkpt lat="46.13227" lon="7.0331"><ele>596.2</ele><time>2017-06-15T10:12:21Z</time></trkpt>
<trkpt lat="46.13227" lon="7.03309"><ele>596.6</ele><time>2017-06-15T10:12:23Z</time></trkpt>
<trkpt lat="46.13227" lon="7.03307"><ele>597</ele><time>2017-06-15T10:12:25Z</time></trkpt>
<trkpt lat="46.13228" lon="7.03306"><ele>597.2</ele><time>2017-06-15T10:12:27Z</time></trkpt>
<trkpt lat="46.13228" lon="7.03304"><ele>597.6</ele><time>2017-06-15T10:12:29Z</time></trkpt>
<trkpt lat="46.13229" lon="7.03303"><ele>598</ele><time>2017-06-15T10:12:31Z</time></trkpt>
<trkpt lat="46.13229" lon="7.03301"><ele>598.2</ele><time>2017-06-15T10:12:33Z</time></trkpt>
<trkpt lat="46.13229" lon="7.033"><ele>598.6</ele><time>2017-06-15T10:12:35Z</time></trkpt>
<trkpt lat="46.1323" lon="7.03298"><ele>599</ele><time>2017-06-15T10:12:37Z</time></trkpt>
<trkpt lat="46.1323" lon="7.03296"><ele>599.2</ele><time>2017-06-15T10:12:39Z</time></trkpt>
<trkpt lat="46.13231" lon="7.03295"><ele>599.6</ele><time>2017-06-15T10:12:41Z</time></trkpt>
<trkpt lat="46.13231" lon="7.03293"><ele>600</ele><time>2017-06-15T10:12:43Z</time></trkpt>
<trkpt lat="46.13231" lon="7.03292"><ele>600.2</ele><time>2017-06-15T10:12:45Z</time></trkpt>
<trkpt lat="46.13232" lon="7.0329"><ele>600.6</ele><time>2017-06-15T10:12:47Z</time></trkpt>
<trkpt lat="46.13232" lon="7.03289"><ele>601</ele><time>2017-06-15T10:12:49Z</time></trkpt>
<trkpt lat="46.13232" lon="7.03287"><ele>601.2</ele><time>2017-06-15T10:12:51Z</time></trkpt>
<trkpt lat="46.13233" lon="7.03286"><ele>601.6</ele><time>2017-06-15T10:12:53Z</time></trkpt>
<trkpt lat="46.13233" lon="7.03284"><ele>601.8</ele><time>2017-06-15T10:12:55Z</time></trkpt>
<trkpt lat="46.13234" lon="7.03283"><ele>602.2</ele><time>2017-06-15T10:12:57Z</time></trkpt>
<trkpt lat="46.13234" lon="7.03281"><ele>602.6</ele><time>2017-06-15T10:12:59Z</time></trkpt>
<trkpt lat="46.13234" lon="7.0328"><ele>602.8</ele><time>2017-06-15T10:13:01Z</time></trkpt>
<trkpt lat="46.13235" lon="7.03278"><ele>603.2</ele><time>2017-06-15T10:13:03Z</time></trkpt>
<trkpt lat="46.13235" lon="7.03277"><ele>603.6</ele><time>2017-06-15T10:13:05Z</time></trkpt>
<trkpt lat="46.13236" lon="7.03275"><ele>603.8</ele><time>2017-06-15T10:13:07Z</time></trkpt>
<trkpt lat="46.13236" lon="7.03274"><ele>604.2</ele><time>2017-06-15T10:13:09Z</time></trkpt>
<trkpt lat="46.13236" lon="7.03272"><ele>604.6</ele><time>2017-06-15T10:13:11Z</time></trkpt>
<trkpt lat="46.13237" lon="7.03271"><ele>604.8</ele><time>2017-06-15T10:13:13Z</time></trkpt>
<trkpt lat="46.13237" lon="7.03269"><ele>605.2</ele><time>2017-06-15T10:13:15Z</time></trkpt>
<trkpt lat="46.13238" lon="7.03268"><ele>605.4</ele><time>2017-06-15T10:13:17Z</time></trkpt>
<trkpt lat="46.13238" lon="7.03267"><ele>605.6</ele><time>2017-06-15T10:13:18Z</time></trkpt>
<trkpt lat="46.13238" lon="7.03266"><ele>605.8</ele><time>2017-06-15T10:13:19Z</time></trkpt>
<trkpt lat="46.13238" lon="7.03265"><ele>606.2</ele><time>2017-06-15T10:13:21Z</time></trkpt>
<trkpt lat="46.13239" lon="7.03263"><ele>606.4</ele><time>2017-06-15T10:13:23Z</time></trkpt>
<trkpt lat="46.13239" lon="7.03262"><ele>606.8</ele><time>2017-06-15T10:13:25Z</time></trkpt>
<trkpt lat="46.13239" lon="7.0326"><ele>607.2</ele><time>2017-06-15T10:13:27Z</time></trkpt>
<trkpt lat="46.1324" lon="7.03258"><ele>607.4</ele><time>2017-06-15T10:13:29Z</time></trkpt>
<trkpt lat="46.1324" lon="7.03257"><ele>607.8</ele><time>2017-06-15T10:13:31Z</time></trkpt>
<trkpt lat="46.13238" lon="7.03259"><ele>608.2</ele><time>2017-06-15T10:13:33Z</time></trkpt>
<trkpt lat="46.13235" lon="7.0326"><ele>608.4</ele><time>2017-06-15T10:13:35Z</time></trkpt>
<trkpt lat="46.13233" lon="7.03262"><ele>608.8</ele><time>2017-06-15T10:13:37Z</time></trkpt>
<trkpt lat="46.13231" lon="7.03263"><ele>609.2</ele><time>2017-06-15T10:13:39Z</time></trkpt>
<trkpt lat="46.1323" lon="7.03264"><ele>609.4</ele><time>2017-06-15T10:13:40Z</time></trkpt>
<trkpt lat="46.13229" lon="7.03265"><ele>609.4</ele><time>2017-06-15T10:13:41Z</time></trkpt>
<trkpt lat="46.13226" lon="7.03266"><ele>609.6</ele><time>2017-06-15T10:13:43Z</time></trkpt>
<trkpt lat="46.13224" lon="7.03268"><ele>609.8</ele><time>2017-06-15T10:13:45Z</time></trkpt>
<trkpt lat="46.13222" lon="7.03269"><ele>610.2</ele><time>2017-06-15T10:13:47Z</time></trkpt>
<trkpt lat="46.1322" lon="7.03271"><ele>610.4</ele><time>2017-06-15T10:13:49Z</time></trkpt>
<trkpt lat="46.13217" lon="7.03272"><ele>610.6</ele><time>2017-06-15T10:13:51Z</time></trkpt>
<trkpt lat="46.13215" lon="7.03274"><ele>610.8</ele><time>2017-06-15T10:13:53Z</time></trkpt>
<trkpt lat="46.13213" lon="7.03275"><ele>611</ele><time>2017-06-15T10:13:55Z</time></trkpt>
<trkpt lat="46.13211" lon="7.03276"><ele>611.4</ele><time>2017-06-15T10:13:57Z</time></trkpt>
<trkpt lat="46.13211" lon="7.03275"><ele>611.6</ele><time>2017-06-15T10:13:59Z</time></trkpt>
<trkpt lat="46.13211" lon="7.03275"><ele>611.8</ele><time>2017-06-15T10:14:01Z</time></trkpt>
<trkpt lat="46.13211" lon="7.03274"><ele>612</ele><time>2017-06-15T10:14:02Z</time></trkpt>
<trkpt lat="46.13211" lon="7.03274"><ele>612</ele><time>2017-06-15T10:14:03Z</time></trkpt>
<trkpt lat="46.13212" lon="7.03273"><ele>612.4</ele><time>2017-06-15T10:14:05Z</time></trkpt>
<trkpt lat="46.13212" lon="7.03272"><ele>612.6</ele><time>2017-06-15T10:14:07Z</time></trkpt>
<trkpt lat="46.13212" lon="7.03272"><ele>612.8</ele><time>2017-06-15T10:14:09Z</time></trkpt>
<trkpt lat="46.13212" lon="7.03271"><ele>613.2</ele><time>2017-06-15T10:14:11Z</time></trkpt>
<trkpt lat="46.13213" lon="7.0327"><ele>613.4</ele><time>2017-06-15T10:14:13Z</time></trkpt>
<trkpt lat="46.13213" lon="7.03269"><ele>613.6</ele><time>2017-06-15T10:14:15Z</time></trkpt>
<trkpt lat="46.13213" lon="7.03269"><ele>614</ele><time>2017-06-15T10:14:17Z</time></trkpt>
<trkpt lat="46.13213" lon="7.03268"><ele>614.2</ele><time>2017-06-15T10:14:19Z</time></trkpt>
<trkpt lat="46.13213" lon="7.03267"><ele>614.4</ele><time>2017-06-15T10:14:21Z</time></trkpt>
<trkpt lat="46.13214" lon="7.03266"><ele>614.8</ele><time>2017-06-15T10:14:23Z</time></trkpt>
<trkpt lat="46.13214" lon="7.03265"><ele>615</ele><time>2017-06-15T10:14:25Z</time></trkpt>
<trkpt lat="46.13214" lon="7.03265"><ele>615.4</ele><time>2017-06-15T10:14:27Z</time></trkpt>
<trkpt lat="46.13214" lon="7.03264"><ele>615.8</ele><time>2017-06-15T10:14:29Z</time></trkpt>
<trkpt lat="46.13214" lon="7.03263"><ele>616</ele><time>2017-06-15T10:14:31Z</time></trkpt>
<trkpt lat="46.13215" lon="7.03262"><ele>616.4</ele><time>2017-06-15T10:14:33Z</time></trkpt>
<trkpt lat="46.13215" lon="7.03262"><ele>616.8</ele><time>2017-06-15T10:14:35Z</time></trkpt>
<trkpt lat="46.13215" lon="7.03261"><ele>617</ele><time>2017-06-15T10:14:37Z</time></trkpt>
<trkpt lat="46.13215" lon="7.0326"><ele>617.4</ele><time>2017-06-15T10:14:39Z</time></trkpt>
<trkpt lat="46.13215" lon="7.03259"><ele>617.8</ele><time>2017-06-15T10:14:41Z</time></trkpt>
<trkpt lat="46.13216" lon="7.03259"><ele>618</ele><time>2017-06-15T10:14:43Z</time></trkpt>
<trkpt lat="46.13216" lon="7.03258"><ele>618.4</ele><time>2017-06-15T10:14:45Z</time></trkpt>
<trkpt lat="46.13216" lon="7.03257"><ele>618.8</ele><time>2017-06-15T10:14:47Z</time></trkpt>
<trkpt lat="46.13216" lon="7.03256"><ele>619</ele><time>2017-06-15T10:14:49Z</time></trkpt>
<trkpt lat="46.13217" lon="7.03256"><ele>619.4</ele><time>2017-06-15T10:14:51Z</time></trkpt>
<trkpt lat="46.13217" lon="7.03255"><ele>619.8</ele><time>2017-06-15T10:14:53Z</time></trkpt>
<trkpt lat="46.13217" lon="7.03254"><ele>620.2</ele><time>2017-06-15T10:14:55Z</time></trkpt>
<trkpt lat="46.13217" lon="7.03253"><ele>620.6</ele><time>2017-06-15T10:14:57Z</time></trkpt>
<trkpt lat="46.13217" lon="7.03252"><ele>620.8</ele><time>2017-06-15T10:14:59Z</time></trkpt>
<trkpt lat="46.13218" lon="7.03252"><ele>621.2</ele><time>2017-06-15T10:15:01Z</time></trkpt>
<trkpt lat="46.13218" lon="7.03251"><ele>621.6</ele><time>2017-06-15T10:15:03Z</time></trkpt>
<trkpt lat="46.13218" lon="7.0325"><ele>622</ele><time>2017-06-15T10:15:05Z</time></trkpt>
<trkpt lat="46.13218" lon="7.03249"><ele>622.4</ele><time>2017-06-15T10:15:07Z</time></trkpt>
<trkpt lat="46.13218" lon="7.03249"><ele>622.6</ele><time>2017-06-15T10:15:09Z</time></trkpt>
<trkpt lat="46.13219" lon="7.03248"><ele>623</ele><time>2017-06-15T10:15:11Z</time></trkpt>
<trkpt lat="46.13219" lon="7.03247"><ele>623.2</ele><time>2017-06-15T10:15:13Z</time></trkpt>
<trkpt lat="46.13219" lon="7.03246"><ele>623.6</ele><time>2017-06-15T10:15:15Z</time></trkpt>
<trkpt lat="46.13219" lon="7.03246"><ele>623.8</ele><time>2017-06-15T10:15:17Z</time></trkpt>
<trkpt lat="46.13222" lon="7.03255"><ele>626.4</ele><time>2017-06-15T10:15:20Z</time></trkpt>
<trkpt lat="46.13222" lon="7.03255"><ele>626.4</ele><time>2017-06-15T10:18:00Z</time></trkpt>
<trkpt lat="46.1322" lon="7.03269"><ele>629.4</ele><time>2017-06-15T10:18:01Z</time></trkpt>
<trkpt lat="46.1322" lon="7.03269"><ele>629.4</ele><time>2017-06-15T10:19:17Z</time></trkpt>
<trkpt lat="46.13215" lon="7.03272"><ele>630</ele><time>2017-06-15T10:19:19Z</time></trkpt>
<trkpt lat="46.13213" lon="7.03274"><ele>630</ele><time>2017-06-15T10:19:21Z</time></trkpt>
<trkpt lat="46.13211" lon="7.03276"><ele>630.2</ele><time>2017-06-15T10:19:23Z</time></trkpt>
<trkpt lat="46.1321" lon="7.03278"><ele>630.2</ele><time>2017-06-15T10:19:25Z</time></trkpt>
<trkpt lat="46.13208" lon="7.0328"><ele>630.2</ele><time>2017-06-15T10:19:27Z</time></trkpt>
<trkpt lat="46.13206" lon="7.0328"><ele>630.2</ele><time>2017-06-15T10:19:29Z</time></trkpt>
<trkpt lat="46.13204" lon="7.0328"><ele>630.2</ele><time>2017-06-15T10:19:30Z</time></trkpt>
<trkpt lat="46.13203" lon="7.0328"><ele>630.4</ele><time>2017-06-15T10:19:31Z</time></trkpt>
<trkpt lat="46.13201" lon="7.0328"><ele>630.8</ele><time>2017-06-15T10:19:33Z</time></trkpt>
<trkpt lat="46.13199" lon="7.0328"><ele>631</ele><time>2017-06-15T10:19:35Z</time></trkpt>
<trkpt lat="46.13197" lon="7.0328"><ele>631.4</ele><time>2017-06-15T10:19:37Z</time></trkpt>
<trkpt lat="46.13195" lon="7.0328"><ele>631.8</ele><time>2017-06-15T10:19:39Z</time></trkpt>
<trkpt lat="46.13193" lon="7.0328"><ele>632.2</ele><time>2017-06-15T10:19:41Z</time></trkpt>
<trkpt lat="46.13191" lon="7.0328"><ele>632.4</ele><time>2017-06-15T10:19:43Z</time></trkpt>
<trkpt lat="46.13189" lon="7.0328"><ele>632.8</ele><time>2017-06-15T10:19:45Z</time></trkpt>
<trkpt lat="46.13187" lon="7.0328"><ele>633.2</ele><time>2017-06-15T10:19:47Z</time></trkpt>
<trkpt lat="46.13185" lon="7.0328"><ele>633.4</ele><time>2017-06-15T10:19:49Z</time></trkpt>
<trkpt lat="46.13184" lon="7.0328"><ele>633.6</ele><time>2017-06-15T10:19:50Z</time></trkpt>
<trkpt lat="46.13184" lon="7.0328"><ele>633.8</ele><time>2017-06-15T10:19:51Z</time></trkpt>
<trkpt lat="46.13184" lon="7.0328"><ele>634.2</ele><time>2017-06-15T10:19:53Z</time></trkpt>
<trkpt lat="46.13184" lon="7.03281"><ele>634.4</ele><time>2017-06-15T10:19:55Z</time></trkpt>
<trkpt lat="46.13184" lon="7.03281"><ele>634.8</ele><time>2017-06-15T10:19:57Z</time></trkpt>
<trkpt lat="46.13183" lon="7.03281"><ele>635.2</ele><time>2017-06-15T10:19:59Z</time></trkpt>
<trkpt lat="46.13183" lon="7.03281"><ele>635.6</ele><time>2017-06-15T10:20:01Z</time></trkpt>
<trkpt lat="46.13183" lon="7.03281"><ele>635.8</ele><time>2017-06-15T10:20:03Z</time></trkpt>
<trkpt lat="46.13183" lon="7.03281"><ele>636.2</ele><time>2017-06-15T10:20:05Z</time></trkpt>
<trkpt lat="46.13182" lon="7.03282"><ele>636.6</ele><time>2017-06-15T10:20:07Z</time></trkpt>
<trkpt lat="46.13182" lon="7.03282"><ele>637</ele><time>2017-06-15T10:20:09Z</time></trkpt>
<trkpt lat="46.13182" lon="7.03282"><ele>637.2</ele><time>2017-06-15T10:20:11Z</time></trkpt>
<trkpt lat="46.13182" lon="7.03282"><ele>637.4</ele><time>2017-06-15T10:20:12Z</time></trkpt>
<trkpt lat="46.13182" lon="7.03282"><ele>637.6</ele><time>2017-06-15T10:20:13Z</time></trkpt>
<trkpt lat="46.13181" lon="7.03282"><ele>638</ele><time>2017-06-15T10:20:15Z</time></trkpt>
<trkpt lat="46.13181" lon="7.03282"><ele>638.2</ele><time>2017-06-15T10:20:17Z</time></trkpt>
<trkpt lat="46.13181" lon="7.03283"><ele>638.6</ele><time>2017-06-15T10:20:19Z</time></trkpt>
<trkpt lat="46.13181" lon="7.03283"><ele>639</ele><time>2017-06-15T10:20:21Z</time></trkpt>
<trkpt lat="46.13181" lon="7.03283"><ele>639.2</ele><time>2017-06-15T10:20:23Z</time></trkpt>
<trkpt lat="46.1318" lon="7.03283"><ele>639.6</ele><time>2017-06-15T10:20:25Z</time></trkpt>
<trkpt lat="46.1318" lon="7.03283"><ele>639.8</ele><time>2017-06-15T10:20:27Z</time></trkpt>
<trkpt lat="46.1318" lon="7.03283"><ele>640</ele><time>2017-06-15T10:20:28Z</time></trkpt>
<trkpt lat="46.1318" lon="7.03282"><ele>640.2</ele><time>2017-06-15T10:20:29Z</time></trkpt>
<trkpt lat="46.1318" lon="7.0328"><ele>640.6</ele><time>2017-06-15T10:20:31Z</time></trkpt>
<trkpt lat="46.1318" lon="7.03279"><ele>640.8</ele><time>2017-06-15T10:20:33Z</time></trkpt>
<trkpt lat="46.13181" lon="7.03278"><ele>641</ele><time>2017-06-15T10:20:34Z</time></trkpt>
<trkpt lat="46.13181" lon="7.03277"><ele>641.2</ele><time>2017-06-15T10:20:35Z</time></trkpt>
<trkpt lat="46.13181" lon="7.03275"><ele>641.6</ele><time>2017-06-15T10:20:37Z</time></trkpt>
<trkpt lat="46.13181" lon="7.03273"><ele>641.8</ele><time>2017-06-15T10:20:39Z</time></trkpt>
<trkpt lat="46.13181" lon="7.03271"><ele>642.2</ele><time>2017-06-15T10:20:41Z</time></trkpt>
<trkpt lat="46.13181" lon="7.0327"><ele>642.6</ele><time>2017-06-15T10:20:43Z</time></trkpt>
<trkpt lat="46.13181" lon="7.03268"><ele>643</ele><time>2017-06-15T10:20:45Z</time></trkpt>
<trkpt lat="46.13181" lon="7.03266"><ele>643.2</ele><time>2017-06-15T10:20:47Z</time></trkpt>
<trkpt lat="46.13182" lon="7.03264"><ele>643.6</ele><time>2017-06-15T10:20:49Z</time></trkpt>
<trkpt lat="46.13182" lon="7.03262"><ele>644</ele><time>2017-06-15T10:20:51Z</time></trkpt>
<trkpt lat="46.13182" lon="7.03261"><ele>644.2</ele><time>2017-06-15T10:20:53Z</time></trkpt>
<trkpt lat="46.13182" lon="7.03259"><ele>644.6</ele><time>2017-06-15T10:20:55Z</time></trkpt>
<trkpt lat="46.13182" lon="7.03257"><ele>645</ele><time>2017-06-15T10:20:57Z</time></trkpt>
<trkpt lat="46.13182" lon="7.03255"><ele>645.4</ele><time>2017-06-15T10:20:59Z</time></trkpt>
<trkpt lat="46.13183" lon="7.03253"><ele>645.6</ele><time>2017-06-15T10:21:01Z</time></trkpt>
<trkpt lat="46.13183" lon="7.03252"><ele>646</ele><time>2017-06-15T10:21:03Z</time></trkpt>
<trkpt lat="46.13183" lon="7.0325"><ele>646.4</ele><time>2017-06-15T10:21:05Z</time></trkpt>
<trkpt lat="46.13183" lon="7.03248"><ele>646.8</ele><time>2017-06-15T10:21:07Z</time></trkpt>
<trkpt lat="46.13183" lon="7.03246"><ele>647.2</ele><time>2017-06-15T10:21:09Z</time></trkpt>
<trkpt lat="46.13183" lon="7.03244"><ele>647.4</ele><time>2017-06-15T10:21:11Z</time></trkpt>
<trkpt lat="46.13183" lon="7.03243"><ele>647.8</ele><time>2017-06-15T10:21:13Z</time></trkpt>
<trkpt lat="46.13184" lon="7.03242"><ele>648</ele><time>2017-06-15T10:21:14Z</time></trkpt>
<trkpt lat="46.13184" lon="7.03241"><ele>648</ele><time>2017-06-15T10:21:15Z</time></trkpt>
<trkpt lat="46.13176" lon="7.03244"><ele>650.4</ele><time>2017-06-15T10:21:18Z</time></trkpt>
<trkpt lat="46.13176" lon="7.03244"><ele>650.4</ele><time>2017-06-15T10:22:30Z</time></trkpt>
<trkpt lat="46.13168" lon="7.03249"><ele>652.4</ele><time>2017-06-15T10:22:31Z</time></trkpt>
<trkpt lat="46.13168" lon="7.0325"><ele>652.4</ele><time>2017-06-15T10:22:33Z</time></trkpt>
<trkpt lat="46.13168" lon="7.0325"><ele>652.6</ele><time>2017-06-15T10:22:34Z</time></trkpt>
<trkpt lat="46.13168" lon="7.0325"><ele>652.6</ele><time>2017-06-15T10:22:35Z</time></trkpt>
<trkpt lat="46.13168" lon="7.03251"><ele>652.6</ele><time>2017-06-15T10:22:37Z</time></trkpt>
<trkpt lat="46.13167" lon="7.03252"><ele>652.8</ele><time>2017-06-15T10:22:39Z</time></trkpt>
<trkpt lat="46.13167" lon="7.03252"><ele>652.8</ele><time>2017-06-15T10:22:41Z</time></trkpt>
<trkpt lat="46.13167" lon="7.03253"><ele>653</ele><time>2017-06-15T10:22:43Z</time></trkpt>
<trkpt lat="46.13167" lon="7.03254"><ele>653</ele><time>2017-06-15T10:22:45Z</time></trkpt>
<trkpt lat="46.13167" lon="7.03254"><ele>653.2</ele><time>2017-06-15T10:22:47Z</time></trkpt>
<trkpt lat="46.13167" lon="7.03255"><ele>653.2</ele><time>2017-06-15T10:22:49Z</time></trkpt>
<trkpt lat="46.13167" lon="7.03255"><ele>653.2</ele><time>2017-06-15T10:22:50Z</time></trkpt>
<trkpt lat="46.13167" lon="7.03256"><ele>653.4</ele><time>2017-06-15T10:22:51Z</time></trkpt>
<trkpt lat="46.13167" lon="7.03256"><ele>653.6</ele><time>2017-06-15T10:22:53Z</time></trkpt>
<trkpt lat="46.13167" lon="7.03257"><ele>653.8</ele><time>2017-06-15T10:22:55Z</time></trkpt>
<trkpt lat="46.13167" lon="7.03258"><ele>654</ele><time>2017-06-15T10:22:57Z</time></trkpt>
<trkpt lat="46.13167" lon="7.03258"><ele>654</ele><time>2017-06-15T10:22:58Z</time></trkpt>
<trkpt lat="46.13167" lon="7.03257"><ele>654.2</ele><time>2017-06-15T10:22:59Z</time></trkpt>
<trkpt lat="46.13168" lon="7.03255"><ele>654.4</ele><time>2017-06-15T10:23:01Z</time></trkpt>
<trkpt lat="46.13169" lon="7.03253"><ele>654.6</ele><time>2017-06-15T10:23:03Z</time></trkpt>
<trkpt lat="46.13171" lon="7.03251"><ele>654.8</ele><time>2017-06-15T10:23:05Z</time></trkpt>
<trkpt lat="46.13172" lon="7.03249"><ele>655</ele><time>2017-06-15T10:23:07Z</time></trkpt>
<trkpt lat="46.13173" lon="7.03247"><ele>655.2</ele><time>2017-06-15T10:23:09Z</time></trkpt>
<trkpt lat="46.13174" lon="7.03245"><ele>655.4</ele><time>2017-06-15T10:23:11Z</time></trkpt>
<trkpt lat="46.13175" lon="7.03243"><ele>655.4</ele><time>2017-06-15T10:23:13Z</time></trkpt>
<trkpt lat="46.13176" lon="7.03241"><ele>655.6</ele><time>2017-06-15T10:23:15Z</time></trkpt>
<trkpt lat="46.13177" lon="7.03239"><ele>655.8</ele><time>2017-06-15T10:23:17Z</time></trkpt>
<trkpt lat="46.13178" lon="7.03237"><ele>656</ele><time>2017-06-15T10:23:19Z</time></trkpt>
<trkpt lat="46.13179" lon="7.03235"><ele>656.2</ele><time>2017-06-15T10:23:21Z</time></trkpt>
<trkpt lat="46.13181" lon="7.03233"><ele>656.4</ele><time>2017-06-15T10:23:23Z</time></trkpt>
<trkpt lat="46.13182" lon="7.03231"><ele>656.6</ele><time>2017-06-15T10:23:25Z</time></trkpt>
<trkpt lat="46.13183" lon="7.03229"><ele>656.8</ele><time>2017-06-15T10:23:27Z</time></trkpt>
<trkpt lat="46.13184" lon="7.03227"><ele>657</ele><time>2017-06-15T10:23:29Z</time></trkpt>
<trkpt lat="46.13185" lon="7.03225"><ele>657.4</ele><time>2017-06-15T10:23:31Z</time></trkpt>
<trkpt lat="46.13186" lon="7.03223"><ele>657.6</ele><time>2017-06-15T10:23:33Z</time></trkpt>
<trkpt lat="46.13187" lon="7.03221"><ele>658</ele><time>2017-06-15T10:23:35Z</time></trkpt>
<trkpt lat="46.13188" lon="7.03219"><ele>658.4</ele><time>2017-06-15T10:23:37Z</time></trkpt>
<trkpt lat="46.13189" lon="7.03217"><ele>658.6</ele><time>2017-06-15T10:23:39Z</time></trkpt>
<trkpt lat="46.13191" lon="7.03215"><ele>659</ele><time>2017-06-15T10:23:41Z</time></trkpt>
<trkpt lat="46.13191" lon="7.03213"><ele>659.4</ele><time>2017-06-15T10:23:43Z</time></trkpt>
<trkpt lat="46.13189" lon="7.03213"><ele>659.6</ele><time>2017-06-15T10:23:45Z</time></trkpt>
<trkpt lat="46.13186" lon="7.03213"><ele>660</ele><time>2017-06-15T10:23:47Z</time></trkpt>
<trkpt lat="46.13184" lon="7.03212"><ele>660.4</ele><time>2017-06-15T10:23:49Z</time></trkpt>
<trkpt lat="46.13181" lon="7.03212"><ele>660.6</ele><time>2017-06-15T10:23:51Z</time></trkpt>
<trkpt lat="46.13179" lon="7.03212"><ele>661</ele><time>2017-06-15T10:23:53Z</time></trkpt>
<trkpt lat="46.13178" lon="7.03213"><ele>661.2</ele><time>2017-06-15T10:23:54Z</time></trkpt>
<trkpt lat="46.13177" lon="7.03214"><ele>661.4</ele><time>2017-06-15T10:23:55Z</time></trkpt>
<trkpt lat="46.13175" lon="7.03216"><ele>661.6</ele><time>2017-06-15T10:23:57Z</time></trkpt>
<trkpt lat="46.13173" lon="7.03219"><ele>662</ele><time>2017-06-15T10:23:59Z</time></trkpt>
<trkpt lat="46.13171" lon="7.03221"><ele>662.2</ele><time>2017-06-15T10:24:01Z</time></trkpt>
<trkpt lat="46.1317" lon="7.03224"><ele>662.6</ele><time>2017-06-15T10:24:03Z</time></trkpt>
<trkpt lat="46.13168" lon="7.03226"><ele>663</ele><time>2017-06-15T10:24:05Z</time></trkpt>
<trkpt lat="46.13166" lon="7.03229"><ele>663.2</ele><time>2017-06-15T10:24:07Z</time></trkpt>
<trkpt lat="46.13164" lon="7.03232"><ele>663.6</ele><time>2017-06-15T10:24:09Z</time></trkpt>
<trkpt lat="46.13162" lon="7.03234"><ele>663.8</ele><time>2017-06-15T10:24:11Z</time></trkpt>
<trkpt lat="46.13161" lon="7.03237"><ele>664.2</ele><time>2017-06-15T10:24:13Z</time></trkpt>
<trkpt lat="46.1316" lon="7.03238"><ele>664.4</ele><time>2017-06-15T10:24:14Z</time></trkpt>
<trkpt lat="46.13159" lon="7.03239"><ele>664.6</ele><time>2017-06-15T10:24:15Z</time></trkpt>
<trkpt lat="46.13157" lon="7.03242"><ele>665</ele><time>2017-06-15T10:24:17Z</time></trkpt>
<trkpt lat="46.13155" lon="7.03244"><ele>665.4</ele><time>2017-06-15T10:24:19Z</time></trkpt>
<trkpt lat="46.13153" lon="7.03247"><ele>665.8</ele><time>2017-06-15T10:24:21Z</time></trkpt>
<trkpt lat="46.13152" lon="7.03249"><ele>666.2</ele><time>2017-06-15T10:24:23Z</time></trkpt>
<trkpt lat="46.13151" lon="7.0325"><ele>666.4</ele><time>2017-06-15T10:24:24Z</time></trkpt>
<trkpt lat="46.13151" lon="7.0325"><ele>666.6</ele><time>2017-06-15T10:24:25Z</time></trkpt>
<trkpt lat="46.13151" lon="7.03249"><ele>667</ele><time>2017-06-15T10:24:27Z</time></trkpt>
<trkpt lat="46.13151" lon="7.03249"><ele>667.4</ele><time>2017-06-15T10:24:29Z</time></trkpt>
<trkpt lat="46.1315" lon="7.03248"><ele>667.6</ele><time>2017-06-15T10:24:30Z</time></trkpt>
<trkpt lat="46.1315" lon="7.03248"><ele>667.8</ele><time>2017-06-15T10:24:31Z</time></trkpt>
<trkpt lat="46.1315" lon="7.03247"><ele>668.2</ele><time>2017-06-15T10:24:33Z</time></trkpt>
<trkpt lat="46.1315" lon="7.03247"><ele>668.4</ele><time>2017-06-15T10:24:35Z</time></trkpt>
<trkpt lat="46.1315" lon="7.03246"><ele>668.6</ele><time>2017-06-15T10:24:37Z</time></trkpt>
<trkpt lat="46.1315" lon="7.03245"><ele>669</ele><time>2017-06-15T10:24:39Z</time></trkpt>
<trkpt lat="46.1315" lon="7.03245"><ele>669.2</ele><time>2017-06-15T10:24:41Z</time></trkpt>
<trkpt lat="46.13149" lon="7.03244"><ele>669.6</ele><time>2017-06-15T10:24:43Z</time></trkpt>
<trkpt lat="46.13149" lon="7.03244"><ele>669.8</ele><time>2017-06-15T10:24:45Z</time></trkpt>
<trkpt lat="46.13149" lon="7.03243"><ele>670.2</ele><time>2017-06-15T10:24:47Z</time></trkpt>
<trkpt lat="46.13149" lon="7.03242"><ele>670.4</ele><time>2017-06-15T10:24:49Z</time></trkpt>
<trkpt lat="46.13149" lon="7.03242"><ele>670.8</ele><time>2017-06-15T10:24:51Z</time></trkpt>
<trkpt lat="46.13149" lon="7.03242"><ele>670.8</ele><time>2017-06-15T10:24:52Z</time></trkpt>
<trkpt lat="46.13149" lon="7.03241"><ele>671</ele><time>2017-06-15T10:24:53Z</time></trkpt>
<trkpt lat="46.13148" lon="7.03241"><ele>671.4</ele><time>2017-06-15T10:24:55Z</time></trkpt>
<trkpt lat="46.13148" lon="7.0324"><ele>671.8</ele><time>2017-06-15T10:24:57Z</time></trkpt>
<trkpt lat="46.13148" lon="7.03239"><ele>672</ele><time>2017-06-15T10:24:59Z</time></trkpt>
<trkpt lat="46.13148" lon="7.03239"><ele>672.4</ele><time>2017-06-15T10:25:01Z</time></trkpt>
<trkpt lat="46.13148" lon="7.03238"><ele>672.8</ele><time>2017-06-15T10:25:03Z</time></trkpt>
<trkpt lat="46.13148" lon="7.03238"><ele>673</ele><time>2017-06-15T10:25:05Z</time></trkpt>
<trkpt lat="46.13147" lon="7.03237"><ele>673.4</ele><time>2017-06-15T10:25:07Z</time></trkpt>
<trkpt lat="46.13147" lon="7.03236"><ele>673.8</ele><time>2017-06-15T10:25:09Z</time></trkpt>
<trkpt lat="46.13147" lon="7.03236"><ele>674</ele><time>2017-06-15T10:25:11Z</time></trkpt>
<trkpt lat="46.13147" lon="7.03235"><ele>674.4</ele><time>2017-06-15T10:25:13Z</time></trkpt>
<trkpt lat="46.13147" lon="7.03235"><ele>674.6</ele><time>2017-06-15T10:25:15Z</time></trkpt>
<trkpt lat="46.13147" lon="7.03234"><ele>675</ele><time>2017-06-15T10:25:17Z</time></trkpt>
<trkpt lat="46.13146" lon="7.03233"><ele>675.2</ele><time>2017-06-15T10:25:19Z</time></trkpt>
<trkpt lat="46.13146" lon="7.03233"><ele>675.6</ele><time>2017-06-15T10:25:21Z</time></trkpt>
<trkpt lat="46.13146" lon="7.03232"><ele>675.8</ele><time>2017-06-15T10:25:23Z</time></trkpt>
<trkpt lat="46.13146" lon="7.03231"><ele>676.2</ele><time>2017-06-15T10:25:25Z</time></trkpt>
<trkpt lat="46.13146" lon="7.03231"><ele>676.4</ele><time>2017-06-15T10:25:27Z</time></trkpt>
<trkpt lat="46.13146" lon="7.0323"><ele>676.8</ele><time>2017-06-15T10:25:29Z</time></trkpt>
<trkpt lat="46.13145" lon="7.0323"><ele>677</ele><time>2017-06-15T10:25:31Z</time></trkpt>
<trkpt lat="46.13145" lon="7.03229"><ele>677.4</ele><time>2017-06-15T10:25:33Z</time></trkpt>
<trkpt lat="46.13145" lon="7.03229"><ele>677.6</ele><time>2017-06-15T10:25:35Z</time></trkpt>
<trkpt lat="46.13145" lon="7.03233"><ele>678</ele><time>2017-06-15T10:25:37Z</time></trkpt>
<trkpt lat="46.13145" lon="7.03234"><ele>678.2</ele><time>2017-06-15T10:25:38Z</time></trkpt>
<trkpt lat="46.13145" lon="7.03236"><ele>678.4</ele><time>2017-06-15T10:25:39Z</time></trkpt>
<trkpt lat="46.13145" lon="7.03239"><ele>678.6</ele><time>2017-06-15T10:25:41Z</time></trkpt>
<trkpt lat="46.13145" lon="7.03243"><ele>679</ele><time>2017-06-15T10:25:43Z</time></trkpt>
<trkpt lat="46.13145" lon="7.03246"><ele>679.4</ele><time>2017-06-15T10:25:45Z</time></trkpt>
<trkpt lat="46.13145" lon="7.0325"><ele>679.8</ele><time>2017-06-15T10:25:47Z</time></trkpt>
<trkpt lat="46.13145" lon="7.03253"><ele>680</ele><time>2017-06-15T10:25:49Z</time></trkpt>
<trkpt lat="46.13145" lon="7.03257"><ele>680.4</ele><time>2017-06-15T10:25:51Z</time></trkpt>
<trkpt lat="46.13145" lon="7.0326"><ele>680.8</ele><time>2017-06-15T10:25:53Z</time></trkpt>
<trkpt lat="46.13144" lon="7.03263"><ele>681.2</ele><time>2017-06-15T10:25:55Z</time></trkpt>
<trkpt lat="46.13144" lon="7.03267"><ele>681.6</ele><time>2017-06-15T10:25:57Z</time></trkpt>
<trkpt lat="46.13144" lon="7.0327"><ele>681.8</ele><time>2017-06-15T10:25:59Z</time></trkpt>
<trkpt lat="46.13144" lon="7.03272"><ele>682</ele><time>2017-06-15T10:26:00Z</time></trkpt>
<trkpt lat="46.13144" lon="7.03274"><ele>682.2</ele><time>2017-06-15T10:26:01Z</time></trkpt>
<trkpt lat="46.13144" lon="7.03277"><ele>682.6</ele><time>2017-06-15T10:26:03Z</time></trkpt>
<trkpt lat="46.13144" lon="7.0328"><ele>683</ele><time>2017-06-15T10:26:05Z</time></trkpt>
<trkpt lat="46.13144" lon="7.03284"><ele>683.2</ele><time>2017-06-15T10:26:07Z</time></trkpt>
<trkpt lat="46.13144" lon="7.03287"><ele>683.6</ele><time>2017-06-15T10:26:09Z</time></trkpt>
<trkpt lat="46.13144" lon="7.03291"><ele>684</ele><time>2017-06-15T10:26:11Z</time></trkpt>
<trkpt lat="46.13144" lon="7.03293"><ele>684.4</ele><time>2017-06-15T10:26:13Z</time></trkpt>
<trkpt lat="46.13141" lon="7.03291"><ele>684.6</ele><time>2017-06-15T10:26:15Z</time></trkpt>
<trkpt lat="46.13139" lon="7.03288"><ele>685</ele><time>2017-06-15T10:26:17Z</time></trkpt>
<trkpt lat="46.13137" lon="7.03286"><ele>685.4</ele><time>2017-06-15T10:26:19Z</time></trkpt>
<trkpt lat="46.13135" lon="7.03284"><ele>685.8</ele><time>2017-06-15T10:26:21Z</time></trkpt>
<trkpt lat="46.13134" lon="7.03281"><ele>686.2</ele><time>2017-06-15T10:26:23Z</time></trkpt>
<trkpt lat="46.13134" lon="7.03278"><ele>686.6</ele><time>2017-06-15T10:26:25Z</time></trkpt>
<trkpt lat="46.13133" lon="7.03274"><ele>687.2</ele><time>2017-06-15T10:26:27Z</time></trkpt>
<trkpt lat="46.13132" lon="7.03271"><ele>687.6</ele><time>2017-06-15T10:26:29Z</time></trkpt>
<trkpt lat="46.13131" lon="7.03268"><ele>688</ele><time>2017-06-15T10:26:31Z</time></trkpt>
<trkpt lat="46.1313" lon="7.03265"><ele>688.4</ele><time>2017-06-15T10:26:33Z</time></trkpt>
<trkpt lat="46.13129" lon="7.03262"><ele>688.8</ele><time>2017-06-15T10:26:35Z</time></trkpt>
<trkpt lat="46.13129" lon="7.03259"><ele>689</ele><time>2017-06-15T10:26:37Z</time></trkpt>
<trkpt lat="46.13128" lon="7.03256"><ele>689.4</ele><time>2017-06-15T10:26:39Z</time></trkpt>
<trkpt lat="46.13127" lon="7.03253"><ele>689.8</ele><time>2017-06-15T10:26:41Z</time></trkpt>
<trkpt lat="46.13126" lon="7.0325"><ele>690.2</ele><time>2017-06-15T10:26:43Z</time></trkpt>
<trkpt lat="46.13125" lon="7.03247"><ele>690.6</ele><time>2017-06-15T10:26:45Z</time></trkpt>
<trkpt lat="46.13125" lon="7.03244"><ele>691</ele><time>2017-06-15T10:26:47Z</time></trkpt>
<trkpt lat="46.13124" lon="7.03241"><ele>691.4</ele><time>2017-06-15T10:26:49Z</time></trkpt>
<trkpt lat="46.13123" lon="7.03239"><ele>691.6</ele><time>2017-06-15T10:26:50Z</time></trkpt>
<trkpt lat="46.13123" lon="7.03238"><ele>691.6</ele><time>2017-06-15T10:26:51Z</time></trkpt>
<trkpt lat="46.13122" lon="7.03234"><ele>692</ele><time>2017-06-15T10:26:53Z</time></trkpt>
<trkpt lat="46.13121" lon="7.03231"><ele>692.4</ele><time>2017-06-15T10:26:55Z</time></trkpt>
<trkpt lat="46.1312" lon="7.03228"><ele>692.6</ele><time>2017-06-15T10:26:57Z</time></trkpt>
<trkpt lat="46.1312" lon="7.03225"><ele>693</ele><time>2017-06-15T10:26:59Z</time></trkpt>
<trkpt lat="46.13119" lon="7.03222"><ele>693.2</ele><time>2017-06-15T10:27:01Z</time></trkpt>
<trkpt lat="46.13117" lon="7.03218"><ele>693.6</ele><time>2017-06-15T10:27:03Z</time></trkpt>
<trkpt lat="46.13115" lon="7.03215"><ele>693.8</ele><time>2017-06-15T10:27:05Z</time></trkpt>
<trkpt lat="46.13113" lon="7.03211"><ele>694.2</ele><time>2017-06-15T10:27:07Z</time></trkpt>
<trkpt lat="46.13111" lon="7.03208"><ele>694.6</ele><time>2017-06-15T10:27:09Z</time></trkpt>
<trkpt lat="46.13111" lon="7.03207"><ele>694.6</ele><time>2017-06-15T10:27:10Z</time></trkpt>
<trkpt lat="46.13111" lon="7.03206"><ele>694.8</ele><time>2017-06-15T10:27:11Z</time></trkpt>
<trkpt lat="46.13112" lon="7.03206"><ele>695</ele><time>2017-06-15T10:27:12Z</time></trkpt>
<trkpt lat="46.13112" lon="7.03205"><ele>695.2</ele><time>2017-06-15T10:27:13Z</time></trkpt>
<trkpt lat="46.13113" lon="7.03205"><ele>695.6</ele><time>2017-06-15T10:27:15Z</time></trkpt>
<trkpt lat="46.13114" lon="7.03204"><ele>696</ele><time>2017-06-15T10:27:17Z</time></trkpt>
<trkpt lat="46.13114" lon="7.03203"><ele>696.4</ele><time>2017-06-15T10:27:19Z</time></trkpt>
<trkpt lat="46.13115" lon="7.03203"><ele>696.8</ele><time>2017-06-15T10:27:21Z</time></trkpt>
<trkpt lat="46.13116" lon="7.03202"><ele>697.2</ele><time>2017-06-15T10:27:23Z</time></trkpt>
<trkpt lat="46.13117" lon="7.03201"><ele>697.6</ele><time>2017-06-15T10:27:25Z</time></trkpt>
<trkpt lat="46.13125" lon="7.03195"><ele>701.2</ele><time>2017-06-15T10:27:27Z</time></trkpt>
<trkpt lat="46.13125" lon="7.03195"><ele>701.2</ele><time>2017-06-15T10:28:00Z</time></trkpt>
<trkpt lat="46.13132" lon="7.03189"><ele>704.6</ele><time>2017-06-15T10:28:01Z</time></trkpt>
<trkpt lat="46.13133" lon="7.03188"><ele>704.8</ele><time>2017-06-15T10:28:03Z</time></trkpt>
<trkpt lat="46.13134" lon="7.03187"><ele>705.2</ele><time>2017-06-15T10:28:05Z</time></trkpt>
<trkpt lat="46.13134" lon="7.03187"><ele>705.4</ele><time>2017-06-15T10:28:06Z</time></trkpt>
<trkpt lat="46.13133" lon="7.03187"><ele>705.6</ele><time>2017-06-15T10:28:07Z</time></trkpt>
<trkpt lat="46.13131" lon="7.03186"><ele>705.8</ele><time>2017-06-15T10:28:09Z</time></trkpt>
<trkpt lat="46.13128" lon="7.03186"><ele>706.2</ele><time>2017-06-15T10:28:11Z</time></trkpt>
<trkpt lat="46.13126" lon="7.03186"><ele>706.4</ele><time>2017-06-15T10:28:13Z</time></trkpt>
<trkpt lat="46.13124" lon="7.03186"><ele>706.8</ele><time>2017-06-15T10:28:15Z</time></trkpt>
<trkpt lat="46.13122" lon="7.03185"><ele>707</ele><time>2017-06-15T10:28:17Z</time></trkpt>
<trkpt lat="46.1312" lon="7.03185"><ele>707.4</ele><time>2017-06-15T10:28:19Z</time></trkpt>
<trkpt lat="46.13118" lon="7.03185"><ele>707.8</ele><time>2017-06-15T10:28:21Z</time></trkpt>
<trkpt lat="46.13116" lon="7.03185"><ele>708</ele><time>2017-06-15T10:28:23Z</time></trkpt>
<trkpt lat="46.13114" lon="7.03184"><ele>708.4</ele><time>2017-06-15T10:28:25Z</time></trkpt>
<trkpt lat="46.13112" lon="7.03184"><ele>708.6</ele><time>2017-06-15T10:28:27Z</time></trkpt>
<trkpt lat="46.13111" lon="7.03184"><ele>708.8</ele><time>2017-06-15T10:28:28Z</time></trkpt>
<trkpt lat="46.1311" lon="7.03184"><ele>709</ele><time>2017-06-15T10:28:29Z</time></trkpt>
<trkpt lat="46.13108" lon="7.03183"><ele>709.4</ele><time>2017-06-15T10:28:31Z</time></trkpt>
<trkpt lat="46.13106" lon="7.03183"><ele>709.6</ele><time>2017-06-15T10:28:33Z</time></trkpt>
<trkpt lat="46.13104" lon="7.03183"><ele>710</ele><time>2017-06-15T10:28:35Z</time></trkpt>
<trkpt lat="46.13102" lon="7.03183"><ele>710.4</ele><time>2017-06-15T10:28:37Z</time></trkpt>
<trkpt lat="46.131" lon="7.03182"><ele>710.6</ele><time>2017-06-15T10:28:39Z</time></trkpt>
<trkpt lat="46.13098" lon="7.03182"><ele>711</ele><time>2017-06-15T10:28:41Z</time></trkpt>
<trkpt lat="46.13095" lon="7.03182"><ele>711.4</ele><time>2017-06-15T10:28:43Z</time></trkpt>
<trkpt lat="46.13093" lon="7.03182"><ele>711.6</ele><time>2017-06-15T10:28:45Z</time></trkpt>
<trkpt lat="46.13091" lon="7.03181"><ele>712</ele><time>2017-06-15T10:28:47Z</time></trkpt>
<trkpt lat="46.13089" lon="7.03181"><ele>712.4</ele><time>2017-06-15T10:28:49Z</time></trkpt>
<trkpt lat="46.13088" lon="7.03181"><ele>712.4</ele><time>2017-06-15T10:28:50Z</time></trkpt>
<trkpt lat="46.13087" lon="7.03181"><ele>712.6</ele><time>2017-06-15T10:28:51Z</time></trkpt>
<trkpt lat="46.13085" lon="7.0318"><ele>713</ele><time>2017-06-15T10:28:53Z</time></trkpt>
<trkpt lat="46.13082" lon="7.0318"><ele>713.4</ele><time>2017-06-15T10:28:55Z</time></trkpt>
<trkpt lat="46.1308" lon="7.03179"><ele>713.8</ele><time>2017-06-15T10:28:57Z</time></trkpt>
<trkpt lat="46.13078" lon="7.03179"><ele>714.2</ele><time>2017-06-15T10:28:59Z</time></trkpt>
<trkpt lat="46.13076" lon="7.03178"><ele>714.6</ele><time>2017-06-15T10:29:01Z</time></trkpt>
<trkpt lat="46.13073" lon="7.03178"><ele>714.8</ele><time>2017-06-15T10:29:03Z</time></trkpt>
<trkpt lat="46.13071" lon="7.03177"><ele>715.2</ele><time>2017-06-15T10:29:05Z</time></trkpt>
<trkpt lat="46.13071" lon="7.03177"><ele>715.4</ele><time>2017-06-15T10:29:06Z</time></trkpt>
<trkpt lat="46.13072" lon="7.03176"><ele>715.6</ele><time>2017-06-15T10:29:07Z</time></trkpt>
<trkpt lat="46.13074" lon="7.03175"><ele>716</ele><time>2017-06-15T10:29:09Z</time></trkpt>
<trkpt lat="46.13075" lon="7.03174"><ele>716.4</ele><time>2017-06-15T10:29:11Z</time></trkpt>
<trkpt lat="46.13076" lon="7.03173"><ele>716.6</ele><time>2017-06-15T10:29:12Z</time></trkpt>
<trkpt lat="46.13077" lon="7.03172"><ele>716.6</ele><time>2017-06-15T10:29:13Z</time></trkpt>
<trkpt lat="46.13079" lon="7.03171"><ele>717</ele><time>2017-06-15T10:29:15Z</time></trkpt>
<trkpt lat="46.13081" lon="7.0317"><ele>717.2</ele><time>2017-06-15T10:29:17Z</time></trkpt>
<trkpt lat="46.13083" lon="7.03169"><ele>717.6</ele><time>2017-06-15T10:29:19Z</time></trkpt>
<trkpt lat="46.13085" lon="7.03168"><ele>717.8</ele><time>2017-06-15T10:29:21Z</time></trkpt>
<trkpt lat="46.13087" lon="7.03166"><ele>718.2</ele><time>2017-06-15T10:29:23Z</time></trkpt>
<trkpt lat="46.13089" lon="7.03165"><ele>718.4</ele><time>2017-06-15T10:29:25Z</time></trkpt>
<trkpt lat="46.13091" lon="7.03164"><ele>718.8</ele><time>2017-06-15T10:29:27Z</time></trkpt>
<trkpt lat="46.13093" lon="7.03163"><ele>719</ele><time>2017-06-15T10:29:29Z</time></trkpt>
<trkpt lat="46.13095" lon="7.03161"><ele>719.4</ele><time>2017-06-15T10:29:31Z</time></trkpt>
<trkpt lat="46.13097" lon="7.0316"><ele>719.6</ele><time>2017-06-15T10:29:33Z</time></trkpt>
<trkpt lat="46.13098" lon="7.0316"><ele>719.8</ele><time>2017-06-15T10:29:34Z</time></trkpt>
<trkpt lat="46.13099" lon="7.03159"><ele>719.8</ele><time>2017-06-15T10:29:35Z</time></trkpt>
<trkpt lat="46.13101" lon="7.03158"><ele>720.2</ele><time>2017-06-15T10:29:37Z</time></trkpt>
<trkpt lat="46.13103" lon="7.03156"><ele>720.4</ele><time>2017-06-15T10:29:39Z</time></trkpt>
<trkpt lat="46.13105" lon="7.03155"><ele>720.8</ele><time>2017-06-15T10:29:41Z</time></trkpt>
<trkpt lat="46.13107" lon="7.03154"><ele>721</ele><time>2017-06-15T10:29:43Z</time></trkpt>
<trkpt lat="46.13109" lon="7.03153"><ele>721.4</ele><time>2017-06-15T10:29:45Z</time></trkpt>
<trkpt lat="46.13109" lon="7.03152"><ele>721.4</ele><time>2017-06-15T10:29:46Z</time></trkpt>
<trkpt lat="46.13108" lon="7.03152"><ele>721.6</ele><time>2017-06-15T10:29:47Z</time></trkpt>
<trkpt lat="46.13106" lon="7.03152"><ele>721.8</ele><time>2017-06-15T10:29:49Z</time></trkpt>
<trkpt lat="46.13104" lon="7.03152"><ele>722.2</ele><time>2017-06-15T10:29:51Z</time></trkpt>
<trkpt lat="46.13102" lon="7.03152"><ele>722.4</ele><time>2017-06-15T10:29:53Z</time></trkpt>
<trkpt lat="46.13099" lon="7.03151"><ele>722.8</ele><time>2017-06-15T10:29:55Z</time></trkpt>
<trkpt lat="46.13097" lon="7.03151"><ele>723</ele><time>2017-06-15T10:29:57Z</time></trkpt>
<trkpt lat="46.13095" lon="7.03151"><ele>723.4</ele><time>2017-06-15T10:29:59Z</time></trkpt>
<trkpt lat="46.13093" lon="7.03151"><ele>723.8</ele><time>2017-06-15T10:30:01Z</time></trkpt>
<trkpt lat="46.13091" lon="7.0315"><ele>724.2</ele><time>2017-06-15T10:30:03Z</time></trkpt>
<trkpt lat="46.13088" lon="7.0315"><ele>724.6</ele><time>2017-06-15T10:30:05Z</time></trkpt>
<trkpt lat="46.13086" lon="7.0315"><ele>725</ele><time>2017-06-15T10:30:07Z</time></trkpt>
<trkpt lat="46.13084" lon="7.0315"><ele>725.4</ele><time>2017-06-15T10:30:09Z</time></trkpt>
<trkpt lat="46.13082" lon="7.0315"><ele>725.8</ele><time>2017-06-15T10:30:11Z</time></trkpt>
<trkpt lat="46.1308" lon="7.03149"><ele>726.2</ele><time>2017-06-15T10:30:13Z</time></trkpt>
<trkpt lat="46.13077" lon="7.03149"><ele>726.6</ele><time>2017-06-15T10:30:15Z</time></trkpt>
<trkpt lat="46.13075" lon="7.03149"><ele>726.8</ele><time>2017-06-15T10:30:17Z</time></trkpt>
<trkpt lat="46.13073" lon="7.03149"><ele>727.2</ele><time>2017-06-15T10:30:19Z</time></trkpt>
<trkpt lat="46.13071" lon="7.03148"><ele>727.4</ele><time>2017-06-15T10:30:21Z</time></trkpt>
<trkpt lat="46.13069" lon="7.03148"><ele>727.8</ele><time>2017-06-15T10:30:23Z</time></trkpt>
<trkpt lat="46.13067" lon="7.03148"><ele>728</ele><time>2017-06-15T10:30:25Z</time></trkpt>
<trkpt lat="46.13064" lon="7.03148"><ele>728.4</ele><time>2017-06-15T10:30:27Z</time></trkpt>
<trkpt lat="46.13063" lon="7.03148"><ele>728.6</ele><time>2017-06-15T10:30:28Z</time></trkpt>
<trkpt lat="46.13062" lon="7.03148"><ele>728.6</ele><time>2017-06-15T10:30:29Z</time></trkpt>
<trkpt lat="46.13061" lon="7.03148"><ele>729</ele><time>2017-06-15T10:30:31Z</time></trkpt>
<trkpt lat="46.13059" lon="7.03148"><ele>729.2</ele><time>2017-06-15T10:30:33Z</time></trkpt>
<trkpt lat="46.13058" lon="7.03148"><ele>729.4</ele><time>2017-06-15T10:30:34Z</time></trkpt>
<trkpt lat="46.13057" lon="7.03148"><ele>729.6</ele><time>2017-06-15T10:30:35Z</time></trkpt>
<trkpt lat="46.13055" lon="7.03148"><ele>730</ele><time>2017-06-15T10:30:37Z</time></trkpt>
<trkpt lat="46.13053" lon="7.03147"><ele>730.4</ele><time>2017-06-15T10:30:39Z</time></trkpt>
<trkpt lat="46.13051" lon="7.03147"><ele>730.6</ele><time>2017-06-15T10:30:41Z</time></trkpt>
<trkpt lat="46.13049" lon="7.03147"><ele>731</ele><time>2017-06-15T10:30:43Z</time></trkpt>
<trkpt lat="46.13048" lon="7.03147"><ele>731.4</ele><time>2017-06-15T10:30:45Z</time></trkpt>
<trkpt lat="46.13046" lon="7.03147"><ele>731.8</ele><time>2017-06-15T10:30:47Z</time></trkpt>
<trkpt lat="46.13044" lon="7.03147"><ele>732.2</ele><time>2017-06-15T10:30:49Z</time></trkpt>
<trkpt lat="46.13042" lon="7.03147"><ele>732.4</ele><time>2017-06-15T10:30:51Z</time></trkpt>
<trkpt lat="46.1304" lon="7.03147"><ele>732.8</ele><time>2017-06-15T10:30:53Z</time></trkpt>
<trkpt lat="46.13039" lon="7.03147"><ele>733.2</ele><time>2017-06-15T10:30:55Z</time></trkpt>
<trkpt lat="46.13039" lon="7.03146"><ele>733.4</ele><time>2017-06-15T10:30:56Z</time></trkpt>
<trkpt lat="46.1304" lon="7.03145"><ele>733.6</ele><time>2017-06-15T10:30:57Z</time></trkpt>
<trkpt lat="46.13041" lon="7.03143"><ele>733.8</ele><time>2017-06-15T10:30:59Z</time></trkpt>
<trkpt lat="46.13041" lon="7.03142"><ele>734.2</ele><time>2017-06-15T10:31:01Z</time></trkpt>
<trkpt lat="46.13042" lon="7.0314"><ele>734.4</ele><time>2017-06-15T10:31:03Z</time></trkpt>
<trkpt lat="46.13043" lon="7.03138"><ele>734.6</ele><time>2017-06-15T10:31:05Z</time></trkpt>
<trkpt lat="46.13044" lon="7.03137"><ele>735</ele><time>2017-06-15T10:31:07Z</time></trkpt>
<trkpt lat="46.13045" lon="7.03135"><ele>735.2</ele><time>2017-06-15T10:31:09Z</time></trkpt>
<trkpt lat="46.13046" lon="7.03133"><ele>735.6</ele><time>2017-06-15T10:31:11Z</time></trkpt>
<trkpt lat="46.13046" lon="7.03131"><ele>735.8</ele><time>2017-06-15T10:31:13Z</time></trkpt>
<trkpt lat="46.13047" lon="7.0313"><ele>736.2</ele><time>2017-06-15T10:31:15Z</time></trkpt>
<trkpt lat="46.13048" lon="7.03128"><ele>736.4</ele><time>2017-06-15T10:31:17Z</time></trkpt>
<trkpt lat="46.13049" lon="7.03127"><ele>736.6</ele><time>2017-06-15T10:31:18Z</time></trkpt>
<trkpt lat="46.13049" lon="7.03126"><ele>736.8</ele><time>2017-06-15T10:31:19Z</time></trkpt>
<trkpt lat="46.1305" lon="7.03125"><ele>737</ele><time>2017-06-15T10:31:21Z</time></trkpt>
<trkpt lat="46.13051" lon="7.03123"><ele>737.4</ele><time>2017-06-15T10:31:23Z</time></trkpt>
<trkpt lat="46.13051" lon="7.03123"><ele>737.6</ele><time>2017-06-15T10:31:25Z</time></trkpt>
<trkpt lat="46.13051" lon="7.03122"><ele>738</ele><time>2017-06-15T10:31:27Z</time></trkpt>
<trkpt lat="46.13051" lon="7.03122"><ele>738.2</ele><time>2017-06-15T10:31:29Z</time></trkpt>
<trkpt lat="46.13051" lon="7.03121"><ele>738.6</ele><time>2017-06-15T10:31:31Z</time></trkpt>
<trkpt lat="46.13051" lon="7.03121"><ele>738.8</ele><time>2017-06-15T10:31:33Z</time></trkpt>
<trkpt lat="46.13051" lon="7.03121"><ele>739.2</ele><time>2017-06-15T10:31:35Z</time></trkpt>
<trkpt lat="46.13051" lon="7.0312"><ele>739.4</ele><time>2017-06-15T10:31:37Z</time></trkpt>
<trkpt lat="46.13051" lon="7.0312"><ele>739.8</ele><time>2017-06-15T10:31:39Z</time></trkpt>
<trkpt lat="46.13051" lon="7.0312"><ele>739.8</ele><time>2017-06-15T10:31:40Z</time></trkpt>
<trkpt lat="46.13052" lon="7.03119"><ele>740</ele><time>2017-06-15T10:31:41Z</time></trkpt>
<trkpt lat="46.13052" lon="7.03119"><ele>740.4</ele><time>2017-06-15T10:31:43Z</time></trkpt>
<trkpt lat="46.13052" lon="7.03119"><ele>740.6</ele><time>2017-06-15T10:31:45Z</time></trkpt>
<trkpt lat="46.13052" lon="7.03118"><ele>741</ele><time>2017-06-15T10:31:47Z</time></trkpt>
<trkpt lat="46.13052" lon="7.03118"><ele>741.2</ele><time>2017-06-15T10:31:49Z</time></trkpt>
<trkpt lat="46.13052" lon="7.03117"><ele>741.6</ele><time>2017-06-15T10:31:51Z</time></trkpt>
<trkpt lat="46.13052" lon="7.03117"><ele>741.8</ele><time>2017-06-15T10:31:53Z</time></trkpt>
<trkpt lat="46.13052" lon="7.03117"><ele>742.2</ele><time>2017-06-15T10:31:55Z</time></trkpt>
<trkpt lat="46.13052" lon="7.03116"><ele>742.6</ele><time>2017-06-15T10:31:57Z</time></trkpt>
<trkpt lat="46.13052" lon="7.03116"><ele>742.8</ele><time>2017-06-15T10:31:59Z</time></trkpt>
<trkpt lat="46.13053" lon="7.03116"><ele>743.2</ele><time>2017-06-15T10:32:01Z</time></trkpt>
<trkpt lat="46.13052" lon="7.03115"><ele>743.4</ele><time>2017-06-15T10:32:03Z</time></trkpt>
<trkpt lat="46.13051" lon="7.03113"><ele>743.8</ele><time>2017-06-15T10:32:05Z</time></trkpt>
<trkpt lat="46.13049" lon="7.03112"><ele>744</ele><time>2017-06-15T10:32:07Z</time></trkpt>
<trkpt lat="46.13047" lon="7.0311"><ele>744.4</ele><time>2017-06-15T10:32:09Z</time></trkpt>
<trkpt lat="46.13045" lon="7.03109"><ele>744.6</ele><time>2017-06-15T10:32:11Z</time></trkpt>
<trkpt lat="46.13044" lon="7.03107"><ele>745</ele><time>2017-06-15T10:32:13Z</time></trkpt>
<trkpt lat="46.13042" lon="7.03106"><ele>745.2</ele><time>2017-06-15T10:32:15Z</time></trkpt>
<trkpt lat="46.1304" lon="7.03104"><ele>745.6</ele><time>2017-06-15T10:32:17Z</time></trkpt>
<trkpt lat="46.13038" lon="7.03103"><ele>745.8</ele><time>2017-06-15T10:32:19Z</time></trkpt>
<trkpt lat="46.13037" lon="7.03101"><ele>746.2</ele><time>2017-06-15T10:32:21Z</time></trkpt>
<trkpt lat="46.13035" lon="7.031"><ele>746.4</ele><time>2017-06-15T10:32:23Z</time></trkpt>
<trkpt lat="46.13033" lon="7.03098"><ele>746.8</ele><time>2017-06-15T10:32:25Z</time></trkpt>
<trkpt lat="46.13031" lon="7.03097"><ele>747</ele><time>2017-06-15T10:32:27Z</time></trkpt>
<trkpt lat="46.1303" lon="7.03095"><ele>747.4</ele><time>2017-06-15T10:32:29Z</time></trkpt>
<trkpt lat="46.13028" lon="7.03094"><ele>747.6</ele><time>2017-06-15T10:32:31Z</time></trkpt>
<trkpt lat="46.13026" lon="7.03092"><ele>748</ele><time>2017-06-15T10:32:33Z</time></trkpt>
<trkpt lat="46.13024" lon="7.03091"><ele>748.4</ele><time>2017-06-15T10:32:35Z</time></trkpt>
<trkpt lat="46.13023" lon="7.03089"><ele>748.6</ele><time>2017-06-15T10:32:37Z</time></trkpt>
<trkpt lat="46.13021" lon="7.03088"><ele>749</ele><time>2017-06-15T10:32:39Z</time></trkpt>
<trkpt lat="46.13019" lon="7.03086"><ele>749.4</ele><time>2017-06-15T10:32:41Z</time></trkpt>
<trkpt lat="46.13017" lon="7.03085"><ele>749.6</ele><time>2017-06-15T10:32:43Z</time></trkpt>
<trkpt lat="46.13016" lon="7.03083"><ele>750</ele><time>2017-06-15T10:32:45Z</time></trkpt>
<trkpt lat="46.13014" lon="7.03082"><ele>750.4</ele><time>2017-06-15T10:32:47Z</time></trkpt>
<trkpt lat="46.13013" lon="7.0308"><ele>750.6</ele><time>2017-06-15T10:32:48Z</time></trkpt>
<trkpt lat="46.13013" lon="7.03078"><ele>750.8</ele><time>2017-06-15T10:32:49Z</time></trkpt>
<trkpt lat="46.13013" lon="7.03074"><ele>751</ele><time>2017-06-15T10:32:51Z</time></trkpt>
<trkpt lat="46.13013" lon="7.03072"><ele>751.2</ele><time>2017-06-15T10:32:52Z</time></trkpt>
<trkpt lat="46.13013" lon="7.03072"><ele>751.4</ele><time>2017-06-15T10:32:53Z</time></trkpt>
<trkpt lat="46.13012" lon="7.03071"><ele>751.6</ele><time>2017-06-15T10:32:55Z</time></trkpt>
<trkpt lat="46.13011" lon="7.0307"><ele>752</ele><time>2017-06-15T10:32:57Z</time></trkpt>
<trkpt lat="46.1301" lon="7.0307"><ele>752.4</ele><time>2017-06-15T10:32:59Z</time></trkpt>
<trkpt lat="46.13009" lon="7.03069"><ele>752.6</ele><time>2017-06-15T10:33:01Z</time></trkpt>
<trkpt lat="46.13008" lon="7.03068"><ele>753</ele><time>2017-06-15T10:33:03Z</time></trkpt>
<trkpt lat="46.13008" lon="7.03067"><ele>753.4</ele><time>2017-06-15T10:33:05Z</time></trkpt>
<trkpt lat="46.13007" lon="7.03066"><ele>753.6</ele><time>2017-06-15T10:33:07Z</time></trkpt>
<trkpt lat="46.13006" lon="7.03065"><ele>754</ele><time>2017-06-15T10:33:09Z</time></trkpt>
<trkpt lat="46.13005" lon="7.03064"><ele>754.2</ele><time>2017-06-15T10:33:11Z</time></trkpt>
<trkpt lat="46.13004" lon="7.03064"><ele>754.6</ele><time>2017-06-15T10:33:13Z</time></trkpt>
<trkpt lat="46.13004" lon="7.03063"><ele>754.8</ele><time>2017-06-15T10:33:14Z</time></trkpt>
<trkpt lat="46.13003" lon="7.03063"><ele>755</ele><time>2017-06-15T10:33:15Z</time></trkpt>
<trkpt lat="46.13002" lon="7.03062"><ele>755.2</ele><time>2017-06-15T10:33:17Z</time></trkpt>
<trkpt lat="46.13001" lon="7.03061"><ele>755.6</ele><time>2017-06-15T10:33:19Z</time></trkpt>
<trkpt lat="46.13001" lon="7.0306"><ele>755.8</ele><time>2017-06-15T10:33:21Z</time></trkpt>
<trkpt lat="46.13" lon="7.03059"><ele>756.2</ele><time>2017-06-15T10:33:23Z</time></trkpt>
<trkpt lat="46.12999" lon="7.03059"><ele>756.4</ele><time>2017-06-15T10:33:25Z</time></trkpt>
<trkpt lat="46.12998" lon="7.03058"><ele>756.8</ele><time>2017-06-15T10:33:27Z</time></trkpt>
<trkpt lat="46.12997" lon="7.03057"><ele>757</ele><time>2017-06-15T10:33:29Z</time></trkpt>
<trkpt lat="46.12996" lon="7.03056"><ele>757.4</ele><time>2017-06-15T10:33:31Z</time></trkpt>
<trkpt lat="46.12995" lon="7.03055"><ele>757.6</ele><time>2017-06-15T10:33:33Z</time></trkpt>
<trkpt lat="46.12995" lon="7.03054"><ele>758</ele><time>2017-06-15T10:33:35Z</time></trkpt>
<trkpt lat="46.12994" lon="7.03054"><ele>758</ele><time>2017-06-15T10:33:36Z</time></trkpt>
<trkpt lat="46.12994" lon="7.03053"><ele>758.2</ele><time>2017-06-15T10:33:37Z</time></trkpt>
<trkpt lat="46.12993" lon="7.03053"><ele>758.6</ele><time>2017-06-15T10:33:39Z</time></trkpt>
<trkpt lat="46.12992" lon="7.03052"><ele>759</ele><time>2017-06-15T10:33:41Z</time></trkpt>
<trkpt lat="46.12991" lon="7.03051"><ele>759.2</ele><time>2017-06-15T10:33:43Z</time></trkpt>
<trkpt lat="46.1299" lon="7.0305"><ele>759.6</ele><time>2017-06-15T10:33:45Z</time></trkpt>
<trkpt lat="46.1299" lon="7.03049"><ele>759.8</ele><time>2017-06-15T10:33:47Z</time></trkpt>
<trkpt lat="46.1299" lon="7.03048"><ele>760.2</ele><time>2017-06-15T10:33:49Z</time></trkpt>
<trkpt lat="46.1299" lon="7.03048"><ele>760.6</ele><time>2017-06-15T10:33:51Z</time></trkpt>
<trkpt lat="46.12991" lon="7.03047"><ele>760.8</ele><time>2017-06-15T10:33:53Z</time></trkpt>
<trkpt lat="46.12991" lon="7.03046"><ele>761.2</ele><time>2017-06-15T10:33:55Z</time></trkpt>
<trkpt lat="46.12992" lon="7.03046"><ele>761.6</ele><time>2017-06-15T10:33:57Z</time></trkpt>
<trkpt lat="46.12992" lon="7.03045"><ele>761.8</ele><time>2017-06-15T10:33:59Z</time></trkpt>
<trkpt lat="46.12992" lon="7.03044"><ele>762.2</ele><time>2017-06-15T10:34:01Z</time></trkpt>
<trkpt lat="46.12993" lon="7.03043"><ele>762.6</ele><time>2017-06-15T10:34:03Z</time></trkpt>
<trkpt lat="46.12993" lon="7.03043"><ele>762.8</ele><time>2017-06-15T10:34:05Z</time></trkpt>
<trkpt lat="46.12994" lon="7.03042"><ele>763.2</ele><time>2017-06-15T10:34:07Z</time></trkpt>
<trkpt lat="46.12994" lon="7.03041"><ele>763.6</ele><time>2017-06-15T10:34:09Z</time></trkpt>
<trkpt lat="46.12994" lon="7.03041"><ele>763.8</ele><time>2017-06-15T10:34:11Z</time></trkpt>
<trkpt lat="46.12995" lon="7.0304"><ele>764.2</ele><time>2017-06-15T10:34:13Z</time></trkpt>
<trkpt lat="46.12995" lon="7.03039"><ele>764.6</ele><time>2017-06-15T10:34:15Z</time></trkpt>
<trkpt lat="46.12996" lon="7.03038"><ele>765</ele><time>2017-06-15T10:34:17Z</time></trkpt>
<trkpt lat="46.12996" lon="7.03038"><ele>765.2</ele><time>2017-06-15T10:34:19Z</time></trkpt>
<trkpt lat="46.12996" lon="7.03037"><ele>765.4</ele><time>2017-06-15T10:34:20Z</time></trkpt>
<trkpt lat="46.12996" lon="7.03037"><ele>765.6</ele><time>2017-06-15T10:34:21Z</time></trkpt>
<trkpt lat="46.12996" lon="7.03037"><ele>765.8</ele><time>2017-06-15T10:34:22Z</time></trkpt>
<trkpt lat="46.12996" lon="7.03036"><ele>766</ele><time>2017-06-15T10:34:23Z</time></trkpt>
<trkpt lat="46.12994" lon="7.03036"><ele>766.2</ele><time>2017-06-15T10:34:25Z</time></trkpt>
<trkpt lat="46.12993" lon="7.03036"><ele>766.6</ele><time>2017-06-15T10:34:27Z</time></trkpt>
<trkpt lat="46.12992" lon="7.03035"><ele>767</ele><time>2017-06-15T10:34:29Z</time></trkpt>
<trkpt lat="46.12991" lon="7.03035"><ele>767.2</ele><time>2017-06-15T10:34:31Z</time></trkpt>
<trkpt lat="46.12989" lon="7.03034"><ele>767.6</ele><time>2017-06-15T10:34:33Z</time></trkpt>
<trkpt lat="46.12988" lon="7.03034"><ele>768</ele><time>2017-06-15T10:34:35Z</time></trkpt>
<trkpt lat="46.12987" lon="7.03034"><ele>768.2</ele><time>2017-06-15T10:34:37Z</time></trkpt>
<trkpt lat="46.12985" lon="7.03033"><ele>768.6</ele><time>2017-06-15T10:34:39Z</time></trkpt>
<trkpt lat="46.12984" lon="7.03033"><ele>769</ele><time>2017-06-15T10:34:41Z</time></trkpt>
<trkpt lat="46.12984" lon="7.03032"><ele>769</ele><time>2017-06-15T10:34:42Z</time></trkpt>
<trkpt lat="46.12983" lon="7.03032"><ele>769.2</ele><time>2017-06-15T10:34:43Z</time></trkpt>
<trkpt lat="46.12982" lon="7.03032"><ele>769.6</ele><time>2017-06-15T10:34:45Z</time></trkpt>
<trkpt lat="46.1298" lon="7.03031"><ele>769.8</ele><time>2017-06-15T10:34:47Z</time></trkpt>
<trkpt lat="46.12979" lon="7.03031"><ele>770.2</ele><time>2017-06-15T10:34:49Z</time></trkpt>
<trkpt lat="46.12978" lon="7.03031"><ele>770.4</ele><time>2017-06-15T10:34:51Z</time></trkpt>
<trkpt lat="46.12976" lon="7.0303"><ele>770.8</ele><time>2017-06-15T10:34:53Z</time></trkpt>
<trkpt lat="46.12975" lon="7.0303"><ele>771</ele><time>2017-06-15T10:34:55Z</time></trkpt>
<trkpt lat="46.12974" lon="7.03029"><ele>771.2</ele><time>2017-06-15T10:34:57Z</time></trkpt>
<trkpt lat="46.12973" lon="7.03029"><ele>771.6</ele><time>2017-06-15T10:34:59Z</time></trkpt>
<trkpt lat="46.12971" lon="7.03029"><ele>771.8</ele><time>2017-06-15T10:35:01Z</time></trkpt>
<trkpt lat="46.1297" lon="7.03028"><ele>772.2</ele><time>2017-06-15T10:35:03Z</time></trkpt>
<trkpt lat="46.1297" lon="7.03028"><ele>772.4</ele><time>2017-06-15T10:35:04Z</time></trkpt>
<trkpt lat="46.12971" lon="7.03028"><ele>772.4</ele><time>2017-06-15T10:35:05Z</time></trkpt>
<trkpt lat="46.12973" lon="7.03027"><ele>772.8</ele><time>2017-06-15T10:35:07Z</time></trkpt>
<trkpt lat="46.12975" lon="7.03026"><ele>773.2</ele><time>2017-06-15T10:35:09Z</time></trkpt>
<trkpt lat="46.12977" lon="7.03025"><ele>773.4</ele><time>2017-06-15T10:35:11Z</time></trkpt>
<trkpt lat="46.1298" lon="7.03025"><ele>773.8</ele><time>2017-06-15T10:35:13Z</time></trkpt>
<trkpt lat="46.12982" lon="7.03024"><ele>774</ele><time>2017-06-15T10:35:15Z</time></trkpt>
<trkpt lat="46.12984" lon="7.03023"><ele>774.4</ele><time>2017-06-15T10:35:17Z</time></trkpt>
<trkpt lat="46.12986" lon="7.03023"><ele>774.6</ele><time>2017-06-15T10:35:19Z</time></trkpt>
<trkpt lat="46.12988" lon="7.03022"><ele>775</ele><time>2017-06-15T10:35:21Z</time></trkpt>
<trkpt lat="46.1299" lon="7.03021"><ele>775.2</ele><time>2017-06-15T10:35:23Z</time></trkpt>
<trkpt lat="46.12993" lon="7.0302"><ele>775.6</ele><time>2017-06-15T10:35:25Z</time></trkpt>
<trkpt lat="46.12995" lon="7.0302"><ele>776</ele><time>2017-06-15T10:35:27Z</time></trkpt>
<trkpt lat="46.12997" lon="7.03019"><ele>776.2</ele><time>2017-06-15T10:35:29Z</time></trkpt>
<trkpt lat="46.12999" lon="7.03018"><ele>776.6</ele><time>2017-06-15T10:35:31Z</time></trkpt>
<trkpt lat="46.13001" lon="7.03018"><ele>777</ele><time>2017-06-15T10:35:33Z</time></trkpt>
<trkpt lat="46.13002" lon="7.03017"><ele>777</ele><time>2017-06-15T10:35:34Z</time></trkpt>
<trkpt lat="46.13001" lon="7.03016"><ele>777.2</ele><time>2017-06-15T10:35:35Z</time></trkpt>
<trkpt lat="46.13001" lon="7.03013"><ele>777.6</ele><time>2017-06-15T10:35:37Z</time></trkpt>
<trkpt lat="46.13" lon="7.03011"><ele>777.8</ele><time>2017-06-15T10:35:39Z</time></trkpt>
<trkpt lat="46.12998" lon="7.03011"><ele>778.2</ele><time>2017-06-15T10:35:41Z</time></trkpt>
<trkpt lat="46.12996" lon="7.03011"><ele>778.6</ele><time>2017-06-15T10:35:43Z</time></trkpt>
<trkpt lat="46.12994" lon="7.03011"><ele>778.8</ele><time>2017-06-15T10:35:45Z</time></trkpt>
<trkpt lat="46.12992" lon="7.03011"><ele>779.2</ele><time>2017-06-15T10:35:47Z</time></trkpt>
<trkpt lat="46.1299" lon="7.03011"><ele>779.6</ele><time>2017-06-15T10:35:49Z</time></trkpt>
<trkpt lat="46.12988" lon="7.03012"><ele>779.8</ele><time>2017-06-15T10:35:51Z</time></trkpt>
<trkpt lat="46.12987" lon="7.03012"><ele>780</ele><time>2017-06-15T10:35:53Z</time></trkpt>
<trkpt lat="46.12985" lon="7.03012"><ele>780.4</ele><time>2017-06-15T10:35:55Z</time></trkpt>
<trkpt lat="46.12983" lon="7.03012"><ele>780.6</ele><time>2017-06-15T10:35:57Z</time></trkpt>
<trkpt lat="46.12981" lon="7.03012"><ele>781</ele><time>2017-06-15T10:35:59Z</time></trkpt>
<trkpt lat="46.12979" lon="7.03012"><ele>781.2</ele><time>2017-06-15T10:36:01Z</time></trkpt>
<trkpt lat="46.12977" lon="7.03012"><ele>781.6</ele><time>2017-06-15T10:36:03Z</time></trkpt>
<trkpt lat="46.12975" lon="7.03012"><ele>781.8</ele><time>2017-06-15T10:36:05Z</time></trkpt>
<trkpt lat="46.12973" lon="7.03013"><ele>782.2</ele><time>2017-06-15T10:36:07Z</time></trkpt>
<trkpt lat="46.12972" lon="7.03013"><ele>782.4</ele><time>2017-06-15T10:36:09Z</time></trkpt>
<trkpt lat="46.1297" lon="7.03013"><ele>782.6</ele><time>2017-06-15T10:36:11Z</time></trkpt>
<trkpt lat="46.12969" lon="7.03013"><ele>782.8</ele><time>2017-06-15T10:36:12Z</time></trkpt>
<trkpt lat="46.12968" lon="7.03013"><ele>783</ele><time>2017-06-15T10:36:13Z</time></trkpt>
<trkpt lat="46.12966" lon="7.03013"><ele>783.4</ele><time>2017-06-15T10:36:15Z</time></trkpt>
<trkpt lat="46.12964" lon="7.03013"><ele>783.8</ele><time>2017-06-15T10:36:17Z</time></trkpt>
<trkpt lat="46.12962" lon="7.03013"><ele>784.2</ele><time>2017-06-15T10:36:19Z</time></trkpt>
<trkpt lat="46.1296" lon="7.03013"><ele>784.6</ele><time>2017-06-15T10:36:21Z</time></trkpt>
<trkpt lat="46.12959" lon="7.03013"><ele>785</ele><time>2017-06-15T10:36:23Z</time></trkpt>
<trkpt lat="46.12957" lon="7.03014"><ele>785.2</ele><time>2017-06-15T10:36:25Z</time></trkpt>
<trkpt lat="46.12955" lon="7.03014"><ele>785.6</ele><time>2017-06-15T10:36:27Z</time></trkpt>
<trkpt lat="46.12954" lon="7.03014"><ele>785.8</ele><time>2017-06-15T10:36:28Z</time></trkpt>
<trkpt lat="46.12953" lon="7.03014"><ele>786</ele><time>2017-06-15T10:36:29Z</time></trkpt>
<trkpt lat="46.12951" lon="7.03014"><ele>786.4</ele><time>2017-06-15T10:36:31Z</time></trkpt>
<trkpt lat="46.1295" lon="7.03014"><ele>786.6</ele><time>2017-06-15T10:36:33Z</time></trkpt>
<trkpt lat="46.12948" lon="7.03014"><ele>787</ele><time>2017-06-15T10:36:35Z</time></trkpt>
<trkpt lat="46.12947" lon="7.03014"><ele>787.2</ele><time>2017-06-15T10:36:37Z</time></trkpt>
<trkpt lat="46.12945" lon="7.03014"><ele>787.6</ele><time>2017-06-15T10:36:39Z</time></trkpt>
<trkpt lat="46.12943" lon="7.03014"><ele>787.8</ele><time>2017-06-15T10:36:41Z</time></trkpt>
<trkpt lat="46.12943" lon="7.03014"><ele>788</ele><time>2017-06-15T10:36:42Z</time></trkpt>
<trkpt lat="46.12943" lon="7.03013"><ele>788</ele><time>2017-06-15T10:36:43Z</time></trkpt>
<trkpt lat="46.12944" lon="7.03011"><ele>788.4</ele><time>2017-06-15T10:36:45Z</time></trkpt>
<trkpt lat="46.12945" lon="7.0301"><ele>788.6</ele><time>2017-06-15T10:36:47Z</time></trkpt>
<trkpt lat="46.12945" lon="7.03008"><ele>789</ele><time>2017-06-15T10:36:49Z</time></trkpt>
<trkpt lat="46.12946" lon="7.03007"><ele>789.2</ele><time>2017-06-15T10:36:51Z</time></trkpt>
<trkpt lat="46.12946" lon="7.03006"><ele>789.4</ele><time>2017-06-15T10:36:52Z</time></trkpt>
<trkpt lat="46.12947" lon="7.03005"><ele>789.6</ele><time>2017-06-15T10:36:53Z</time></trkpt>
<trkpt lat="46.12947" lon="7.03003"><ele>790</ele><time>2017-06-15T10:36:55Z</time></trkpt>
<trkpt lat="46.12948" lon="7.03002"><ele>790.2</ele><time>2017-06-15T10:36:57Z</time></trkpt>
<trkpt lat="46.12949" lon="7.03"><ele>790.6</ele><time>2017-06-15T10:36:59Z</time></trkpt>
<trkpt lat="46.12949" lon="7.02998"><ele>790.8</ele><time>2017-06-15T10:37:01Z</time></trkpt>
<trkpt lat="46.1295" lon="7.02997"><ele>791.2</ele><time>2017-06-15T10:37:03Z</time></trkpt>
<trkpt lat="46.12951" lon="7.02995"><ele>791.4</ele><time>2017-06-15T10:37:05Z</time></trkpt>
<trkpt lat="46.12948" lon="7.03006"><ele>794.2</ele><time>2017-06-15T10:37:07Z</time></trkpt>
<trkpt lat="46.12948" lon="7.03006"><ele>794.2</ele><time>2017-06-15T10:40:35Z</time></trkpt>
<trkpt lat="46.12945" lon="7.03018"><ele>796.6</ele><time>2017-06-15T10:40:37Z</time></trkpt>
<trkpt lat="46.12944" lon="7.03019"><ele>796.6</ele><time>2017-06-15T10:40:39Z</time></trkpt>
<trkpt lat="46.12942" lon="7.0302"><ele>796.6</ele><time>2017-06-15T10:40:41Z</time></trkpt>
<trkpt lat="46.12942" lon="7.0302"><ele>796.8</ele><time>2017-06-15T10:40:42Z</time></trkpt>
<trkpt lat="46.12941" lon="7.03021"><ele>797</ele><time>2017-06-15T10:40:43Z</time></trkpt>
<trkpt lat="46.12939" lon="7.03021"><ele>797.4</ele><time>2017-06-15T10:40:45Z</time></trkpt>
<trkpt lat="46.12937" lon="7.03018"><ele>797.8</ele><time>2017-06-15T10:40:47Z</time></trkpt>
<trkpt lat="46.12936" lon="7.03017"><ele>798</ele><time>2017-06-15T10:40:48Z</time></trkpt>
<trkpt lat="46.12935" lon="7.03016"><ele>798.2</ele><time>2017-06-15T10:40:49Z</time></trkpt>
<trkpt lat="46.12933" lon="7.03013"><ele>798.6</ele><time>2017-06-15T10:40:51Z</time></trkpt>
<trkpt lat="46.1293" lon="7.03011"><ele>798.8</ele><time>2017-06-15T10:40:53Z</time></trkpt>
<trkpt lat="46.12928" lon="7.03008"><ele>799.2</ele><time>2017-06-15T10:40:55Z</time></trkpt>
<trkpt lat="46.12926" lon="7.03006"><ele>799.6</ele><time>2017-06-15T10:40:57Z</time></trkpt>
<trkpt lat="46.12924" lon="7.03003"><ele>800</ele><time>2017-06-15T10:40:59Z</time></trkpt>
<trkpt lat="46.12922" lon="7.03"><ele>800.4</ele><time>2017-06-15T10:41:01Z</time></trkpt>
<trkpt lat="46.12919" lon="7.02998"><ele>800.8</ele><time>2017-06-15T10:41:03Z</time></trkpt>
<trkpt lat="46.12918" lon="7.02997"><ele>801</ele><time>2017-06-15T10:41:04Z</time></trkpt>
<trkpt lat="46.12917" lon="7.02995"><ele>801.2</ele><time>2017-06-15T10:41:05Z</time></trkpt>
<trkpt lat="46.12915" lon="7.02993"><ele>801.4</ele><time>2017-06-15T10:41:07Z</time></trkpt>
<trkpt lat="46.12913" lon="7.0299"><ele>801.8</ele><time>2017-06-15T10:41:09Z</time></trkpt>
<trkpt lat="46.1291" lon="7.02988"><ele>802</ele><time>2017-06-15T10:41:11Z</time></trkpt>
<trkpt lat="46.12908" lon="7.02985"><ele>802.4</ele><time>2017-06-15T10:41:13Z</time></trkpt>
<trkpt lat="46.12906" lon="7.02983"><ele>802.6</ele><time>2017-06-15T10:41:15Z</time></trkpt>
<trkpt lat="46.12904" lon="7.0298"><ele>803</ele><time>2017-06-15T10:41:17Z</time></trkpt>
<trkpt lat="46.12902" lon="7.02979"><ele>803.2</ele><time>2017-06-15T10:41:19Z</time></trkpt>
<trkpt lat="46.129" lon="7.02977"><ele>803.6</ele><time>2017-06-15T10:41:21Z</time></trkpt>
<trkpt lat="46.12898" lon="7.02975"><ele>804</ele><time>2017-06-15T10:41:23Z</time></trkpt>
<trkpt lat="46.12896" lon="7.02974"><ele>804.2</ele><time>2017-06-15T10:41:25Z</time></trkpt>
<trkpt lat="46.12895" lon="7.02973"><ele>804.4</ele><time>2017-06-15T10:41:26Z</time></trkpt>
<trkpt lat="46.12894" lon="7.02972"><ele>804.6</ele><time>2017-06-15T10:41:27Z</time></trkpt>
<trkpt lat="46.12892" lon="7.0297"><ele>804.8</ele><time>2017-06-15T10:41:29Z</time></trkpt>
<trkpt lat="46.12891" lon="7.02969"><ele>805.2</ele><time>2017-06-15T10:41:31Z</time></trkpt>
<trkpt lat="46.12889" lon="7.02967"><ele>805.4</ele><time>2017-06-15T10:41:33Z</time></trkpt>
<trkpt lat="46.12887" lon="7.02965"><ele>805.8</ele><time>2017-06-15T10:41:35Z</time></trkpt>
<trkpt lat="46.12885" lon="7.02964"><ele>806</ele><time>2017-06-15T10:41:37Z</time></trkpt>
<trkpt lat="46.12883" lon="7.02962"><ele>806.4</ele><time>2017-06-15T10:41:39Z</time></trkpt>
<trkpt lat="46.12881" lon="7.02961"><ele>806.6</ele><time>2017-06-15T10:41:41Z</time></trkpt>
<trkpt lat="46.12879" lon="7.02959"><ele>807</ele><time>2017-06-15T10:41:43Z</time></trkpt>
<trkpt lat="46.12877" lon="7.02957"><ele>807.2</ele><time>2017-06-15T10:41:45Z</time></trkpt>
<trkpt lat="46.12875" lon="7.02956"><ele>807.6</ele><time>2017-06-15T10:41:47Z</time></trkpt>
<trkpt lat="46.12874" lon="7.02955"><ele>807.8</ele><time>2017-06-15T10:41:48Z</time></trkpt>
<trkpt lat="46.12874" lon="7.02954"><ele>807.8</ele><time>2017-06-15T10:41:49Z</time></trkpt>
<trkpt lat="46.12875" lon="7.02952"><ele>808.2</ele><time>2017-06-15T10:41:51Z</time></trkpt>
<trkpt lat="46.12876" lon="7.02949"><ele>808.4</ele><time>2017-06-15T10:41:53Z</time></trkpt>
<trkpt lat="46.12877" lon="7.02947"><ele>808.8</ele><time>2017-06-15T10:41:55Z</time></trkpt>
<trkpt lat="46.12879" lon="7.02945"><ele>809</ele><time>2017-06-15T10:41:57Z</time></trkpt>
<trkpt lat="46.1288" lon="7.02943"><ele>809.4</ele><time>2017-06-15T10:41:59Z</time></trkpt>
<trkpt lat="46.12881" lon="7.02941"><ele>809.6</ele><time>2017-06-15T10:42:01Z</time></trkpt>
<trkpt lat="46.12882" lon="7.02938"><ele>810</ele><time>2017-06-15T10:42:03Z</time></trkpt>
<trkpt lat="46.12883" lon="7.02938"><ele>810</ele><time>2017-06-15T10:42:04Z</time></trkpt>
<trkpt lat="46.12884" lon="7.02938"><ele>810.2</ele><time>2017-06-15T10:42:05Z</time></trkpt>
<trkpt lat="46.12886" lon="7.02939"><ele>810.6</ele><time>2017-06-15T10:42:07Z</time></trkpt>
<trkpt lat="46.12888" lon="7.0294"><ele>810.8</ele><time>2017-06-15T10:42:09Z</time></trkpt>
<trkpt lat="46.12889" lon="7.0294"><ele>811</ele><time>2017-06-15T10:42:10Z</time></trkpt>
<trkpt lat="46.1289" lon="7.0294"><ele>811.2</ele><time>2017-06-15T10:42:11Z</time></trkpt>
<trkpt lat="46.12892" lon="7.02941"><ele>811.4</ele><time>2017-06-15T10:42:13Z</time></trkpt>
<trkpt lat="46.12894" lon="7.02942"><ele>811.8</ele><time>2017-06-15T10:42:15Z</time></trkpt>
<trkpt lat="46.12896" lon="7.02943"><ele>812</ele><time>2017-06-15T10:42:17Z</time></trkpt>
<trkpt lat="46.12898" lon="7.02944"><ele>812.4</ele><time>2017-06-15T10:42:19Z</time></trkpt>
<trkpt lat="46.12901" lon="7.02944"><ele>812.6</ele><time>2017-06-15T10:42:21Z</time></trkpt>
<trkpt lat="46.12903" lon="7.02945"><ele>813</ele><time>2017-06-15T10:42:23Z</time></trkpt>
<trkpt lat="46.12905" lon="7.02946"><ele>813.4</ele><time>2017-06-15T10:42:25Z</time></trkpt>
<trkpt lat="46.12907" lon="7.02947"><ele>813.6</ele><time>2017-06-15T10:42:27Z</time></trkpt>
<trkpt lat="46.12909" lon="7.02947"><ele>814</ele><time>2017-06-15T10:42:29Z</time></trkpt>
<trkpt lat="46.12911" lon="7.02948"><ele>814.2</ele><time>2017-06-15T10:42:31Z</time></trkpt>
<trkpt lat="46.12912" lon="7.02949"><ele>814.4</ele><time>2017-06-15T10:42:32Z</time></trkpt>
<trkpt lat="46.12905" lon="7.02937"><ele>817.8</ele><time>2017-06-15T10:42:34Z</time></trkpt>
<trkpt lat="46.12905" lon="7.02937"><ele>817.8</ele><time>2017-06-15T10:44:07Z</time></trkpt>
<trkpt lat="46.12897" lon="7.02925"><ele>820.8</ele><time>2017-06-15T10:44:09Z</time></trkpt>
<trkpt lat="46.12896" lon="7.02925"><ele>821</ele><time>2017-06-15T10:44:11Z</time></trkpt>
<trkpt lat="46.12896" lon="7.02924"><ele>821</ele><time>2017-06-15T10:44:13Z</time></trkpt>
<trkpt lat="46.12895" lon="7.02923"><ele>821.2</ele><time>2017-06-15T10:44:15Z</time></trkpt>
<trkpt lat="46.12894" lon="7.02923"><ele>821.2</ele><time>2017-06-15T10:44:17Z</time></trkpt>
<trkpt lat="46.12894" lon="7.02922"><ele>821.4</ele><time>2017-06-15T10:44:19Z</time></trkpt>
<trkpt lat="46.12893" lon="7.02921"><ele>821.4</ele><time>2017-06-15T10:44:21Z</time></trkpt>
<trkpt lat="46.12892" lon="7.0292"><ele>821.6</ele><time>2017-06-15T10:44:23Z</time></trkpt>
<trkpt lat="46.12891" lon="7.0292"><ele>821.8</ele><time>2017-06-15T10:44:25Z</time></trkpt>
<trkpt lat="46.12891" lon="7.02919"><ele>822</ele><time>2017-06-15T10:44:27Z</time></trkpt>
<trkpt lat="46.1289" lon="7.02918"><ele>822.4</ele><time>2017-06-15T10:44:29Z</time></trkpt>
<trkpt lat="46.12889" lon="7.02918"><ele>822.8</ele><time>2017-06-15T10:44:31Z</time></trkpt>
<trkpt lat="46.12889" lon="7.02917"><ele>823</ele><time>2017-06-15T10:44:32Z</time></trkpt>
<trkpt lat="46.12888" lon="7.02916"><ele>823.2</ele><time>2017-06-15T10:44:33Z</time></trkpt>
<trkpt lat="46.12887" lon="7.02915"><ele>823.6</ele><time>2017-06-15T10:44:35Z</time></trkpt>
<trkpt lat="46.12886" lon="7.02913"><ele>824</ele><time>2017-06-15T10:44:37Z</time></trkpt>
<trkpt lat="46.12884" lon="7.02911"><ele>824.4</ele><time>2017-06-15T10:44:39Z</time></trkpt>
<trkpt lat="46.12883" lon="7.02909"><ele>824.8</ele><time>2017-06-15T10:44:41Z</time></trkpt>
<trkpt lat="46.12882" lon="7.02909"><ele>825</ele><time>2017-06-15T10:44:42Z</time></trkpt>
<trkpt lat="46.12882" lon="7.02908"><ele>825.2</ele><time>2017-06-15T10:44:43Z</time></trkpt>
<trkpt lat="46.1288" lon="7.02906"><ele>825.6</ele><time>2017-06-15T10:44:45Z</time></trkpt>
<trkpt lat="46.12879" lon="7.02904"><ele>825.8</ele><time>2017-06-15T10:44:47Z</time></trkpt>
<trkpt lat="46.12878" lon="7.02903"><ele>826.2</ele><time>2017-06-15T10:44:49Z</time></trkpt>
<trkpt lat="46.12876" lon="7.02901"><ele>826.4</ele><time>2017-06-15T10:44:51Z</time></trkpt>
<trkpt lat="46.12875" lon="7.02899"><ele>826.8</ele><time>2017-06-15T10:44:53Z</time></trkpt>
<trkpt lat="46.12874" lon="7.02897"><ele>827.2</ele><time>2017-06-15T10:44:55Z</time></trkpt>
<trkpt lat="46.12872" lon="7.02896"><ele>827.4</ele><time>2017-06-15T10:44:57Z</time></trkpt>
<trkpt lat="46.12871" lon="7.02894"><ele>827.8</ele><time>2017-06-15T10:44:59Z</time></trkpt>
<trkpt lat="46.1287" lon="7.02892"><ele>828.2</ele><time>2017-06-15T10:45:01Z</time></trkpt>
<trkpt lat="46.12868" lon="7.0289"><ele>828.4</ele><time>2017-06-15T10:45:03Z</time></trkpt>
<trkpt lat="46.12867" lon="7.02889"><ele>828.8</ele><time>2017-06-15T10:45:05Z</time></trkpt>
<trkpt lat="46.12866" lon="7.02888"><ele>829</ele><time>2017-06-15T10:45:06Z</time></trkpt>
<trkpt lat="46.12866" lon="7.02887"><ele>829.2</ele><time>2017-06-15T10:45:07Z</time></trkpt>
<trkpt lat="46.12864" lon="7.02885"><ele>829.4</ele><time>2017-06-15T10:45:09Z</time></trkpt>
<trkpt lat="46.12863" lon="7.02884"><ele>829.6</ele><time>2017-06-15T10:45:11Z</time></trkpt>
<trkpt lat="46.12862" lon="7.02882"><ele>830</ele><time>2017-06-15T10:45:13Z</time></trkpt>
<trkpt lat="46.1286" lon="7.0288"><ele>830.2</ele><time>2017-06-15T10:45:15Z</time></trkpt>
<trkpt lat="46.12859" lon="7.02878"><ele>830.6</ele><time>2017-06-15T10:45:17Z</time></trkpt>
<trkpt lat="46.12858" lon="7.02877"><ele>830.8</ele><time>2017-06-15T10:45:19Z</time></trkpt>
<trkpt lat="46.12857" lon="7.02875"><ele>831.2</ele><time>2017-06-15T10:45:21Z</time></trkpt>
<trkpt lat="46.12855" lon="7.02873"><ele>831.4</ele><time>2017-06-15T10:45:23Z</time></trkpt>
<trkpt lat="46.12854" lon="7.02872"><ele>831.6</ele><time>2017-06-15T10:45:24Z</time></trkpt>
<trkpt lat="46.12854" lon="7.02872"><ele>831.8</ele><time>2017-06-15T10:45:25Z</time></trkpt>
<trkpt lat="46.12852" lon="7.0287"><ele>832</ele><time>2017-06-15T10:45:27Z</time></trkpt>
<trkpt lat="46.12851" lon="7.02868"><ele>832.4</ele><time>2017-06-15T10:45:29Z</time></trkpt>
<trkpt lat="46.12849" lon="7.02867"><ele>832.6</ele><time>2017-06-15T10:45:31Z</time></trkpt>
<trkpt lat="46.12848" lon="7.02865"><ele>832.8</ele><time>2017-06-15T10:45:33Z</time></trkpt>
<trkpt lat="46.12846" lon="7.02863"><ele>833</ele><time>2017-06-15T10:45:35Z</time></trkpt>
<trkpt lat="46.12845" lon="7.02862"><ele>833.4</ele><time>2017-06-15T10:45:37Z</time></trkpt>
<trkpt lat="46.12843" lon="7.0286"><ele>833.6</ele><time>2017-06-15T10:45:39Z</time></trkpt>
<trkpt lat="46.12841" lon="7.02858"><ele>833.8</ele><time>2017-06-15T10:45:41Z</time></trkpt>
<trkpt lat="46.1284" lon="7.02857"><ele>834</ele><time>2017-06-15T10:45:43Z</time></trkpt>
<trkpt lat="46.12838" lon="7.02855"><ele>834.4</ele><time>2017-06-15T10:45:45Z</time></trkpt>
<trkpt lat="46.12837" lon="7.02853"><ele>834.6</ele><time>2017-06-15T10:45:47Z</time></trkpt>
<trkpt lat="46.12835" lon="7.02852"><ele>834.8</ele><time>2017-06-15T10:45:49Z</time></trkpt>
<trkpt lat="46.12834" lon="7.0285"><ele>835.2</ele><time>2017-06-15T10:45:51Z</time></trkpt>
<trkpt lat="46.12832" lon="7.02848"><ele>835.4</ele><time>2017-06-15T10:45:53Z</time></trkpt>
<trkpt lat="46.12832" lon="7.02847"><ele>835.6</ele><time>2017-06-15T10:45:54Z</time></trkpt>
<trkpt lat="46.12831" lon="7.02847"><ele>835.6</ele><time>2017-06-15T10:45:55Z</time></trkpt>
<trkpt lat="46.12829" lon="7.02845"><ele>836</ele><time>2017-06-15T10:45:57Z</time></trkpt>
<trkpt lat="46.12828" lon="7.02843"><ele>836.4</ele><time>2017-06-15T10:45:59Z</time></trkpt>
<trkpt lat="46.12827" lon="7.02842"><ele>836.6</ele><time>2017-06-15T10:46:00Z</time></trkpt>
<trkpt lat="46.12826" lon="7.02842"><ele>836.8</ele><time>2017-06-15T10:46:01Z</time></trkpt>
<trkpt lat="46.12825" lon="7.0284"><ele>837</ele><time>2017-06-15T10:46:03Z</time></trkpt>
<trkpt lat="46.12823" lon="7.02838"><ele>837.4</ele><time>2017-06-15T10:46:05Z</time></trkpt>
<trkpt lat="46.12822" lon="7.02837"><ele>837.6</ele><time>2017-06-15T10:46:07Z</time></trkpt>
<trkpt lat="46.1282" lon="7.02835"><ele>838</ele><time>2017-06-15T10:46:09Z</time></trkpt>
<trkpt lat="46.12819" lon="7.02833"><ele>838.2</ele><time>2017-06-15T10:46:11Z</time></trkpt>
<trkpt lat="46.12818" lon="7.02833"><ele>838.4</ele><time>2017-06-15T10:46:12Z</time></trkpt>
<trkpt lat="46.12817" lon="7.02832"><ele>838.6</ele><time>2017-06-15T10:46:13Z</time></trkpt>
<trkpt lat="46.12816" lon="7.02831"><ele>839</ele><time>2017-06-15T10:46:15Z</time></trkpt>
<trkpt lat="46.12814" lon="7.02829"><ele>839.2</ele><time>2017-06-15T10:46:17Z</time></trkpt>
<trkpt lat="46.12813" lon="7.02828"><ele>839.6</ele><time>2017-06-15T10:46:19Z</time></trkpt>
<trkpt lat="46.12812" lon="7.02827"><ele>839.8</ele><time>2017-06-15T10:46:21Z</time></trkpt>
<trkpt lat="46.1281" lon="7.02826"><ele>840.2</ele><time>2017-06-15T10:46:23Z</time></trkpt>
<trkpt lat="46.12809" lon="7.02824"><ele>840.4</ele><time>2017-06-15T10:46:25Z</time></trkpt>
<trkpt lat="46.12808" lon="7.02823"><ele>840.6</ele><time>2017-06-15T10:46:27Z</time></trkpt>
<trkpt lat="46.12806" lon="7.02822"><ele>841</ele><time>2017-06-15T10:46:29Z</time></trkpt>
<trkpt lat="46.12805" lon="7.02821"><ele>841.2</ele><time>2017-06-15T10:46:31Z</time></trkpt>
<trkpt lat="46.12804" lon="7.02819"><ele>841.4</ele><time>2017-06-15T10:46:33Z</time></trkpt>
<trkpt lat="46.12802" lon="7.02818"><ele>841.6</ele><time>2017-06-15T10:46:35Z</time></trkpt>
<trkpt lat="46.12801" lon="7.02817"><ele>842</ele><time>2017-06-15T10:46:37Z</time></trkpt>
<trkpt lat="46.128" lon="7.02816"><ele>842.2</ele><time>2017-06-15T10:46:39Z</time></trkpt>
<trkpt lat="46.12798" lon="7.02815"><ele>842.4</ele><time>2017-06-15T10:46:41Z</time></trkpt>
<trkpt lat="46.12797" lon="7.02813"><ele>842.8</ele><time>2017-06-15T10:46:43Z</time></trkpt>
<trkpt lat="46.12796" lon="7.02812"><ele>843.2</ele><time>2017-06-15T10:46:45Z</time></trkpt>
<trkpt lat="46.12795" lon="7.02811"><ele>843.2</ele><time>2017-06-15T10:46:46Z</time></trkpt>
<trkpt lat="46.12794" lon="7.02811"><ele>843.4</ele><time>2017-06-15T10:46:47Z</time></trkpt>
<trkpt lat="46.12793" lon="7.0281"><ele>843.8</ele><time>2017-06-15T10:46:49Z</time></trkpt>
<trkpt lat="46.12792" lon="7.02808"><ele>844</ele><time>2017-06-15T10:46:51Z</time></trkpt>
<trkpt lat="46.1279" lon="7.02807"><ele>844.2</ele><time>2017-06-15T10:46:53Z</time></trkpt>
<trkpt lat="46.12789" lon="7.02806"><ele>844.6</ele><time>2017-06-15T10:46:55Z</time></trkpt>
<trkpt lat="46.12788" lon="7.02805"><ele>844.8</ele><time>2017-06-15T10:46:57Z</time></trkpt>
<trkpt lat="46.12786" lon="7.02803"><ele>845.2</ele><time>2017-06-15T10:46:59Z</time></trkpt>
<trkpt lat="46.12785" lon="7.02802"><ele>845.4</ele><time>2017-06-15T10:47:01Z</time></trkpt>
<trkpt lat="46.12784" lon="7.02801"><ele>845.6</ele><time>2017-06-15T10:47:03Z</time></trkpt>
<trkpt lat="46.12782" lon="7.028"><ele>846</ele><time>2017-06-15T10:47:05Z</time></trkpt>
<trkpt lat="46.12781" lon="7.02798"><ele>846.2</ele><time>2017-06-15T10:47:07Z</time></trkpt>
<trkpt lat="46.1278" lon="7.02797"><ele>846.6</ele><time>2017-06-15T10:47:09Z</time></trkpt>
<trkpt lat="46.12779" lon="7.02796"><ele>846.6</ele><time>2017-06-15T10:47:10Z</time></trkpt>
<trkpt lat="46.12778" lon="7.02794"><ele>846.8</ele><time>2017-06-15T10:47:11Z</time></trkpt>
<trkpt lat="46.12777" lon="7.02792"><ele>847.2</ele><time>2017-06-15T10:47:13Z</time></trkpt>
<trkpt lat="46.12776" lon="7.02789"><ele>847.4</ele><time>2017-06-15T10:47:15Z</time></trkpt>
<trkpt lat="46.12774" lon="7.02786"><ele>847.8</ele><time>2017-06-15T10:47:17Z</time></trkpt>
<trkpt lat="46.12773" lon="7.02784"><ele>848.2</ele><time>2017-06-15T10:47:19Z</time></trkpt>
<trkpt lat="46.12772" lon="7.02781"><ele>848.4</ele><time>2017-06-15T10:47:21Z</time></trkpt>
<trkpt lat="46.1277" lon="7.02778"><ele>848.8</ele><time>2017-06-15T10:47:23Z</time></trkpt>
<trkpt lat="46.12769" lon="7.02776"><ele>849.2</ele><time>2017-06-15T10:47:25Z</time></trkpt>
<trkpt lat="46.12768" lon="7.02773"><ele>849.4</ele><time>2017-06-15T10:47:27Z</time></trkpt>
<trkpt lat="46.12766" lon="7.0277"><ele>849.8</ele><time>2017-06-15T10:47:29Z</time></trkpt>
<trkpt lat="46.12765" lon="7.02768"><ele>850</ele><time>2017-06-15T10:47:31Z</time></trkpt>
<trkpt lat="46.12764" lon="7.02765"><ele>850.4</ele><time>2017-06-15T10:47:33Z</time></trkpt>
<trkpt lat="46.12762" lon="7.02762"><ele>850.6</ele><time>2017-06-15T10:47:35Z</time></trkpt>
<trkpt lat="46.12761" lon="7.0276"><ele>851</ele><time>2017-06-15T10:47:37Z</time></trkpt>
<trkpt lat="46.1276" lon="7.02757"><ele>851.4</ele><time>2017-06-15T10:47:39Z</time></trkpt>
<trkpt lat="46.12758" lon="7.02754"><ele>851.6</ele><time>2017-06-15T10:47:41Z</time></trkpt>
<trkpt lat="46.12757" lon="7.02752"><ele>852</ele><time>2017-06-15T10:47:43Z</time></trkpt>
<trkpt lat="46.12756" lon="7.02749"><ele>852.2</ele><time>2017-06-15T10:47:45Z</time></trkpt>
<trkpt lat="46.12755" lon="7.02746"><ele>852.6</ele><time>2017-06-15T10:47:47Z</time></trkpt>
<trkpt lat="46.12753" lon="7.02744"><ele>852.8</ele><time>2017-06-15T10:47:49Z</time></trkpt>
<trkpt lat="46.12751" lon="7.02743"><ele>853.2</ele><time>2017-06-15T10:47:51Z</time></trkpt>
<trkpt lat="46.12749" lon="7.02741"><ele>853.4</ele><time>2017-06-15T10:47:53Z</time></trkpt>
<trkpt lat="46.12747" lon="7.0274"><ele>853.8</ele><time>2017-06-15T10:47:55Z</time></trkpt>
<trkpt lat="46.12746" lon="7.02739"><ele>853.8</ele><time>2017-06-15T10:47:56Z</time></trkpt>
<trkpt lat="46.12745" lon="7.02739"><ele>854</ele><time>2017-06-15T10:47:57Z</time></trkpt>
<trkpt lat="46.12743" lon="7.02738"><ele>854.4</ele><time>2017-06-15T10:47:59Z</time></trkpt>
<trkpt lat="46.12741" lon="7.02736"><ele>854.6</ele><time>2017-06-15T10:48:01Z</time></trkpt>
<trkpt lat="46.12739" lon="7.02735"><ele>855</ele><time>2017-06-15T10:48:03Z</time></trkpt>
<trkpt lat="46.12737" lon="7.02734"><ele>855.2</ele><time>2017-06-15T10:48:05Z</time></trkpt>
<trkpt lat="46.12735" lon="7.02733"><ele>855.4</ele><time>2017-06-15T10:48:07Z</time></trkpt>
<trkpt lat="46.12733" lon="7.02731"><ele>855.8</ele><time>2017-06-15T10:48:09Z</time></trkpt>
<trkpt lat="46.12731" lon="7.0273"><ele>856</ele><time>2017-06-15T10:48:11Z</time></trkpt>
<trkpt lat="46.12729" lon="7.02729"><ele>856.4</ele><time>2017-06-15T10:48:13Z</time></trkpt>
<trkpt lat="46.12727" lon="7.02728"><ele>856.6</ele><time>2017-06-15T10:48:15Z</time></trkpt>
<trkpt lat="46.12725" lon="7.02726"><ele>857</ele><time>2017-06-15T10:48:17Z</time></trkpt>
<trkpt lat="46.12723" lon="7.02725"><ele>857.2</ele><time>2017-06-15T10:48:19Z</time></trkpt>
<trkpt lat="46.12721" lon="7.02724"><ele>857.6</ele><time>2017-06-15T10:48:21Z</time></trkpt>
<trkpt lat="46.12719" lon="7.02723"><ele>857.8</ele><time>2017-06-15T10:48:23Z</time></trkpt>
<trkpt lat="46.12717" lon="7.02721"><ele>858.2</ele><time>2017-06-15T10:48:25Z</time></trkpt>
<trkpt lat="46.12715" lon="7.0272"><ele>858.4</ele><time>2017-06-15T10:48:27Z</time></trkpt>
<trkpt lat="46.12713" lon="7.02719"><ele>858.8</ele><time>2017-06-15T10:48:29Z</time></trkpt>
<trkpt lat="46.12711" lon="7.02718"><ele>859</ele><time>2017-06-15T10:48:31Z</time></trkpt>
<trkpt lat="46.12709" lon="7.02717"><ele>859.4</ele><time>2017-06-15T10:48:33Z</time></trkpt>
<trkpt lat="46.12707" lon="7.02716"><ele>859.6</ele><time>2017-06-15T10:48:35Z</time></trkpt>
<trkpt lat="46.12705" lon="7.02715"><ele>859.8</ele><time>2017-06-15T10:48:37Z</time></trkpt>
<trkpt lat="46.12703" lon="7.02715"><ele>860.2</ele><time>2017-06-15T10:48:39Z</time></trkpt>
<trkpt lat="46.12701" lon="7.02714"><ele>860.4</ele><time>2017-06-15T10:48:41Z</time></trkpt>
<trkpt lat="46.12699" lon="7.02713"><ele>860.8</ele><time>2017-06-15T10:48:43Z</time></trkpt>
<trkpt lat="46.12697" lon="7.02712"><ele>861</ele><time>2017-06-15T10:48:45Z</time></trkpt>
<trkpt lat="46.12695" lon="7.02712"><ele>861.4</ele><time>2017-06-15T10:48:47Z</time></trkpt>
<trkpt lat="46.12694" lon="7.02711"><ele>861.8</ele><time>2017-06-15T10:48:49Z</time></trkpt>
<trkpt lat="46.12692" lon="7.0271"><ele>862</ele><time>2017-06-15T10:48:51Z</time></trkpt>
<trkpt lat="46.1269" lon="7.02709"><ele>862.4</ele><time>2017-06-15T10:48:53Z</time></trkpt>
<trkpt lat="46.12688" lon="7.02708"><ele>862.6</ele><time>2017-06-15T10:48:55Z</time></trkpt>
<trkpt lat="46.12686" lon="7.02708"><ele>863</ele><time>2017-06-15T10:48:57Z</time></trkpt>
<trkpt lat="46.12684" lon="7.02707"><ele>863.2</ele><time>2017-06-15T10:48:59Z</time></trkpt>
<trkpt lat="46.12682" lon="7.02706"><ele>863.6</ele><time>2017-06-15T10:49:01Z</time></trkpt>
<trkpt lat="46.1268" lon="7.02705"><ele>863.8</ele><time>2017-06-15T10:49:03Z</time></trkpt>
<trkpt lat="46.12679" lon="7.02705"><ele>864</ele><time>2017-06-15T10:49:04Z</time></trkpt>
<trkpt lat="46.12678" lon="7.02705"><ele>864.2</ele><time>2017-06-15T10:49:05Z</time></trkpt>
<trkpt lat="46.12676" lon="7.02704"><ele>864.6</ele><time>2017-06-15T10:49:07Z</time></trkpt>
<trkpt lat="46.12674" lon="7.02703"><ele>864.8</ele><time>2017-06-15T10:49:09Z</time></trkpt>
<trkpt lat="46.12672" lon="7.02702"><ele>865.2</ele><time>2017-06-15T10:49:11Z</time></trkpt>
<trkpt lat="46.12671" lon="7.02702"><ele>865.6</ele><time>2017-06-15T10:49:13Z</time></trkpt>
<trkpt lat="46.12669" lon="7.02701"><ele>865.8</ele><time>2017-06-15T10:49:15Z</time></trkpt>
<trkpt lat="46.12667" lon="7.027"><ele>866.2</ele><time>2017-06-15T10:49:17Z</time></trkpt>
<trkpt lat="46.12665" lon="7.02698"><ele>866.6</ele><time>2017-06-15T10:49:19Z</time></trkpt>
<trkpt lat="46.12663" lon="7.02696"><ele>867</ele><time>2017-06-15T10:49:21Z</time></trkpt>
<trkpt lat="46.12661" lon="7.02694"><ele>867.2</ele><time>2017-06-15T10:49:23Z</time></trkpt>
<trkpt lat="46.12659" lon="7.02692"><ele>867.6</ele><time>2017-06-15T10:49:25Z</time></trkpt>
<trkpt lat="46.12657" lon="7.02689"><ele>868</ele><time>2017-06-15T10:49:27Z</time></trkpt>
<trkpt lat="46.12655" lon="7.02687"><ele>868.2</ele><time>2017-06-15T10:49:29Z</time></trkpt>
<trkpt lat="46.12653" lon="7.02685"><ele>868.4</ele><time>2017-06-15T10:49:31Z</time></trkpt>
<trkpt lat="46.12651" lon="7.02683"><ele>868.6</ele><time>2017-06-15T10:49:33Z</time></trkpt>
<trkpt lat="46.12649" lon="7.02681"><ele>868.8</ele><time>2017-06-15T10:49:35Z</time></trkpt>
<trkpt lat="46.12647" lon="7.02679"><ele>869</ele><time>2017-06-15T10:49:37Z</time></trkpt>
<trkpt lat="46.12646" lon="7.02677"><ele>869.2</ele><time>2017-06-15T10:49:39Z</time></trkpt>
<trkpt lat="46.12644" lon="7.02675"><ele>869.6</ele><time>2017-06-15T10:49:41Z</time></trkpt>
<trkpt lat="46.12642" lon="7.02673"><ele>869.8</ele><time>2017-06-15T10:49:43Z</time></trkpt>
<trkpt lat="46.1264" lon="7.02671"><ele>870</ele><time>2017-06-15T10:49:45Z</time></trkpt>
<trkpt lat="46.12638" lon="7.02668"><ele>870.2</ele><time>2017-06-15T10:49:47Z</time></trkpt>
<trkpt lat="46.12636" lon="7.02666"><ele>870.4</ele><time>2017-06-15T10:49:49Z</time></trkpt>
<trkpt lat="46.12634" lon="7.02664"><ele>870.6</ele><time>2017-06-15T10:49:51Z</time></trkpt>
<trkpt lat="46.12632" lon="7.02662"><ele>871</ele><time>2017-06-15T10:49:53Z</time></trkpt>
<trkpt lat="46.1263" lon="7.0266"><ele>871.2</ele><time>2017-06-15T10:49:55Z</time></trkpt>
<trkpt lat="46.12628" lon="7.02658"><ele>871.4</ele><time>2017-06-15T10:49:57Z</time></trkpt>
<trkpt lat="46.12626" lon="7.02656"><ele>871.8</ele><time>2017-06-15T10:49:59Z</time></trkpt>
<trkpt lat="46.12624" lon="7.02655"><ele>872</ele><time>2017-06-15T10:50:01Z</time></trkpt>
<trkpt lat="46.12622" lon="7.02653"><ele>872.2</ele><time>2017-06-15T10:50:03Z</time></trkpt>
<trkpt lat="46.1262" lon="7.02651"><ele>872.4</ele><time>2017-06-15T10:50:05Z</time></trkpt>
<trkpt lat="46.12618" lon="7.02649"><ele>872.8</ele><time>2017-06-15T10:50:07Z</time></trkpt>
<trkpt lat="46.12616" lon="7.02647"><ele>873</ele><time>2017-06-15T10:50:09Z</time></trkpt>
<trkpt lat="46.12614" lon="7.02645"><ele>873.2</ele><time>2017-06-15T10:50:11Z</time></trkpt>
<trkpt lat="46.12613" lon="7.02644"><ele>873.6</ele><time>2017-06-15T10:50:13Z</time></trkpt>
<trkpt lat="46.12611" lon="7.02642"><ele>873.8</ele><time>2017-06-15T10:50:15Z</time></trkpt>
<trkpt lat="46.1261" lon="7.02641"><ele>873.8</ele><time>2017-06-15T10:50:16Z</time></trkpt>
<trkpt lat="46.12609" lon="7.0264"><ele>874</ele><time>2017-06-15T10:50:17Z</time></trkpt>
<trkpt lat="46.12607" lon="7.02638"><ele>874.2</ele><time>2017-06-15T10:50:19Z</time></trkpt>
<trkpt lat="46.12605" lon="7.02636"><ele>874.4</ele><time>2017-06-15T10:50:21Z</time></trkpt>
<trkpt lat="46.12603" lon="7.02634"><ele>874.6</ele><time>2017-06-15T10:50:23Z</time></trkpt>
<trkpt lat="46.12601" lon="7.02632"><ele>875</ele><time>2017-06-15T10:50:25Z</time></trkpt>
<trkpt lat="46.12599" lon="7.02631"><ele>875.2</ele><time>2017-06-15T10:50:27Z</time></trkpt>
<trkpt lat="46.12597" lon="7.02629"><ele>875.4</ele><time>2017-06-15T10:50:29Z</time></trkpt>
<trkpt lat="46.12595" lon="7.02627"><ele>875.6</ele><time>2017-06-15T10:50:31Z</time></trkpt>
<trkpt lat="46.12593" lon="7.02625"><ele>875.8</ele><time>2017-06-15T10:50:33Z</time></trkpt>
<trkpt lat="46.12592" lon="7.02624"><ele>876</ele><time>2017-06-15T10:50:34Z</time></trkpt>
<trkpt lat="46.12591" lon="7.02623"><ele>876.2</ele><time>2017-06-15T10:50:35Z</time></trkpt>
<trkpt lat="46.12588" lon="7.02621"><ele>876.4</ele><time>2017-06-15T10:50:37Z</time></trkpt>
<trkpt lat="46.12586" lon="7.02618"><ele>876.6</ele><time>2017-06-15T10:50:39Z</time></trkpt>
<trkpt lat="46.12583" lon="7.02616"><ele>876.8</ele><time>2017-06-15T10:50:41Z</time></trkpt>
<trkpt lat="46.12581" lon="7.02614"><ele>877</ele><time>2017-06-15T10:50:43Z</time></trkpt>
<trkpt lat="46.12579" lon="7.02611"><ele>877.4</ele><time>2017-06-15T10:50:45Z</time></trkpt>
<trkpt lat="46.12576" lon="7.02609"><ele>877.6</ele><time>2017-06-15T10:50:47Z</time></trkpt>
<trkpt lat="46.12574" lon="7.02607"><ele>877.8</ele><time>2017-06-15T10:50:49Z</time></trkpt>
<trkpt lat="46.12571" lon="7.02604"><ele>878</ele><time>2017-06-15T10:50:51Z</time></trkpt>
<trkpt lat="46.12569" lon="7.02602"><ele>878.2</ele><time>2017-06-15T10:50:53Z</time></trkpt>
<trkpt lat="46.12566" lon="7.026"><ele>878.6</ele><time>2017-06-15T10:50:55Z</time></trkpt>
<trkpt lat="46.12564" lon="7.02597"><ele>878.8</ele><time>2017-06-15T10:50:57Z</time></trkpt>
<trkpt lat="46.12562" lon="7.02595"><ele>879</ele><time>2017-06-15T10:50:59Z</time></trkpt>
<trkpt lat="46.12559" lon="7.02593"><ele>879.4</ele><time>2017-06-15T10:51:01Z</time></trkpt>
<trkpt lat="46.12557" lon="7.0259"><ele>879.6</ele><time>2017-06-15T10:51:03Z</time></trkpt>
<trkpt lat="46.12554" lon="7.02588"><ele>879.8</ele><time>2017-06-15T10:51:05Z</time></trkpt>
<trkpt lat="46.12552" lon="7.02586"><ele>880.2</ele><time>2017-06-15T10:51:07Z</time></trkpt>
<trkpt lat="46.1255" lon="7.02584"><ele>880.4</ele><time>2017-06-15T10:51:09Z</time></trkpt>
<trkpt lat="46.12547" lon="7.02582"><ele>880.6</ele><time>2017-06-15T10:51:11Z</time></trkpt>
<trkpt lat="46.12545" lon="7.0258"><ele>881</ele><time>2017-06-15T10:51:13Z</time></trkpt>
<trkpt lat="46.12543" lon="7.02578"><ele>881.2</ele><time>2017-06-15T10:51:15Z</time></trkpt>
<trkpt lat="46.1254" lon="7.02576"><ele>881.6</ele><time>2017-06-15T10:51:17Z</time></trkpt>
<trkpt lat="46.12538" lon="7.02574"><ele>881.8</ele><time>2017-06-15T10:51:19Z</time></trkpt>
<trkpt lat="46.12535" lon="7.02572"><ele>882.2</ele><time>2017-06-15T10:51:21Z</time></trkpt>
<trkpt lat="46.12533" lon="7.0257"><ele>882.4</ele><time>2017-06-15T10:51:23Z</time></trkpt>
<trkpt lat="46.12531" lon="7.02568"><ele>882.8</ele><time>2017-06-15T10:51:25Z</time></trkpt>
<trkpt lat="46.12528" lon="7.02566"><ele>883</ele><time>2017-06-15T10:51:27Z</time></trkpt>
<trkpt lat="46.12526" lon="7.02563"><ele>883.2</ele><time>2017-06-15T10:51:29Z</time></trkpt>
<trkpt lat="46.12524" lon="7.02561"><ele>883.6</ele><time>2017-06-15T10:51:31Z</time></trkpt>
<trkpt lat="46.12521" lon="7.02559"><ele>883.8</ele><time>2017-06-15T10:51:33Z</time></trkpt>
<trkpt lat="46.1252" lon="7.02558"><ele>884</ele><time>2017-06-15T10:51:34Z</time></trkpt>
<trkpt lat="46.12519" lon="7.02557"><ele>884.2</ele><time>2017-06-15T10:51:35Z</time></trkpt>
<trkpt lat="46.12516" lon="7.02555"><ele>884.4</ele><time>2017-06-15T10:51:37Z</time></trkpt>
<trkpt lat="46.12515" lon="7.02554"><ele>884.6</ele><time>2017-06-15T10:51:38Z</time></trkpt>
<trkpt lat="46.12514" lon="7.02553"><ele>884.8</ele><time>2017-06-15T10:51:39Z</time></trkpt>
<trkpt lat="46.12512" lon="7.02551"><ele>885</ele><time>2017-06-15T10:51:41Z</time></trkpt>
<trkpt lat="46.1251" lon="7.02549"><ele>885.2</ele><time>2017-06-15T10:51:43Z</time></trkpt>
<trkpt lat="46.12508" lon="7.02547"><ele>885.6</ele><time>2017-06-15T10:51:45Z</time></trkpt>
<trkpt lat="46.12506" lon="7.02545"><ele>885.8</ele><time>2017-06-15T10:51:47Z</time></trkpt>
<trkpt lat="46.12504" lon="7.02543"><ele>886</ele><time>2017-06-15T10:51:49Z</time></trkpt>
<trkpt lat="46.12502" lon="7.02541"><ele>886.4</ele><time>2017-06-15T10:51:51Z</time></trkpt>
<trkpt lat="46.125" lon="7.02539"><ele>886.6</ele><time>2017-06-15T10:51:53Z</time></trkpt>
<trkpt lat="46.12498" lon="7.02537"><ele>887</ele><time>2017-06-15T10:51:55Z</time></trkpt>
<trkpt lat="46.12497" lon="7.02536"><ele>887</ele><time>2017-06-15T10:51:56Z</time></trkpt>
<trkpt lat="46.12496" lon="7.02536"><ele>887.2</ele><time>2017-06-15T10:51:57Z</time></trkpt>
<trkpt lat="46.12494" lon="7.02534"><ele>887.6</ele><time>2017-06-15T10:51:59Z</time></trkpt>
<trkpt lat="46.12492" lon="7.02532"><ele>887.8</ele><time>2017-06-15T10:52:01Z</time></trkpt>
<trkpt lat="46.1249" lon="7.0253"><ele>888.2</ele><time>2017-06-15T10:52:03Z</time></trkpt>
<trkpt lat="46.12488" lon="7.02528"><ele>888.4</ele><time>2017-06-15T10:52:05Z</time></trkpt>
<trkpt lat="46.12486" lon="7.02526"><ele>888.8</ele><time>2017-06-15T10:52:07Z</time></trkpt>
<trkpt lat="46.12484" lon="7.02524"><ele>889</ele><time>2017-06-15T10:52:09Z</time></trkpt>
<trkpt lat="46.12481" lon="7.02522"><ele>889.4</ele><time>2017-06-15T10:52:11Z</time></trkpt>
<trkpt lat="46.12479" lon="7.0252"><ele>889.6</ele><time>2017-06-15T10:52:13Z</time></trkpt>
<trkpt lat="46.12477" lon="7.02518"><ele>890</ele><time>2017-06-15T10:52:15Z</time></trkpt>
<trkpt lat="46.12475" lon="7.02516"><ele>890.2</ele><time>2017-06-15T10:52:17Z</time></trkpt>
<trkpt lat="46.12473" lon="7.02514"><ele>890.6</ele><time>2017-06-15T10:52:19Z</time></trkpt>
<trkpt lat="46.12471" lon="7.02512"><ele>891</ele><time>2017-06-15T10:52:21Z</time></trkpt>
<trkpt lat="46.12469" lon="7.0251"><ele>891.4</ele><time>2017-06-15T10:52:23Z</time></trkpt>
<trkpt lat="46.12466" lon="7.02509"><ele>891.8</ele><time>2017-06-15T10:52:25Z</time></trkpt>
<trkpt lat="46.12464" lon="7.02507"><ele>892</ele><time>2017-06-15T10:52:27Z</time></trkpt>
<trkpt lat="46.12462" lon="7.02505"><ele>892.4</ele><time>2017-06-15T10:52:29Z</time></trkpt>
<trkpt lat="46.1246" lon="7.02503"><ele>892.8</ele><time>2017-06-15T10:52:31Z</time></trkpt>
<trkpt lat="46.12458" lon="7.02501"><ele>893.2</ele><time>2017-06-15T10:52:33Z</time></trkpt>
<trkpt lat="46.12455" lon="7.02499"><ele>893.6</ele><time>2017-06-15T10:52:35Z</time></trkpt>
<trkpt lat="46.12453" lon="7.02498"><ele>894</ele><time>2017-06-15T10:52:37Z</time></trkpt>
<trkpt lat="46.12451" lon="7.02496"><ele>894.2</ele><time>2017-06-15T10:52:39Z</time></trkpt>
<trkpt lat="46.12449" lon="7.02494"><ele>894.4</ele><time>2017-06-15T10:52:41Z</time></trkpt>
<trkpt lat="46.12447" lon="7.02492"><ele>894.8</ele><time>2017-06-15T10:52:43Z</time></trkpt>
<trkpt lat="46.12445" lon="7.0249"><ele>895</ele><time>2017-06-15T10:52:45Z</time></trkpt>
<trkpt lat="46.12442" lon="7.02488"><ele>895.2</ele><time>2017-06-15T10:52:47Z</time></trkpt>
<trkpt lat="46.1244" lon="7.02487"><ele>895.6</ele><time>2017-06-15T10:52:49Z</time></trkpt>
<trkpt lat="46.12438" lon="7.02485"><ele>895.8</ele><time>2017-06-15T10:52:51Z</time></trkpt>
<trkpt lat="46.12435" lon="7.02483"><ele>896</ele><time>2017-06-15T10:52:53Z</time></trkpt>
<trkpt lat="46.12433" lon="7.02482"><ele>896.2</ele><time>2017-06-15T10:52:55Z</time></trkpt>
<trkpt lat="46.1243" lon="7.0248"><ele>896.6</ele><time>2017-06-15T10:52:57Z</time></trkpt>
<trkpt lat="46.12428" lon="7.02478"><ele>896.8</ele><time>2017-06-15T10:52:59Z</time></trkpt>
<trkpt lat="46.12427" lon="7.02477"><ele>897</ele><time>2017-06-15T10:53:00Z</time></trkpt>
<trkpt lat="46.12425" lon="7.02477"><ele>897</ele><time>2017-06-15T10:53:01Z</time></trkpt>
<trkpt lat="46.12423" lon="7.02475"><ele>897.2</ele><time>2017-06-15T10:53:03Z</time></trkpt>
<trkpt lat="46.1242" lon="7.02473"><ele>897.4</ele><time>2017-06-15T10:53:05Z</time></trkpt>
<trkpt lat="46.12418" lon="7.02472"><ele>897.6</ele><time>2017-06-15T10:53:07Z</time></trkpt>
<trkpt lat="46.12415" lon="7.0247"><ele>898</ele><time>2017-06-15T10:53:09Z</time></trkpt>
<trkpt lat="46.12413" lon="7.02469"><ele>898.2</ele><time>2017-06-15T10:53:11Z</time></trkpt>
<trkpt lat="46.1241" lon="7.02467"><ele>898.4</ele><time>2017-06-15T10:53:13Z</time></trkpt>
<trkpt lat="46.12408" lon="7.02465"><ele>898.6</ele><time>2017-06-15T10:53:15Z</time></trkpt>
<trkpt lat="46.12405" lon="7.02464"><ele>898.8</ele><time>2017-06-15T10:53:17Z</time></trkpt>
<trkpt lat="46.12403" lon="7.02462"><ele>899</ele><time>2017-06-15T10:53:19Z</time></trkpt>
<trkpt lat="46.124" lon="7.0246"><ele>899.2</ele><time>2017-06-15T10:53:21Z</time></trkpt>
<trkpt lat="46.12398" lon="7.02459"><ele>899.4</ele><time>2017-06-15T10:53:23Z</time></trkpt>
<trkpt lat="46.12397" lon="7.02458"><ele>899.6</ele><time>2017-06-15T10:53:24Z</time></trkpt>
<trkpt lat="46.12396" lon="7.02456"><ele>899.6</ele><time>2017-06-15T10:53:25Z</time></trkpt>
<trkpt lat="46.12394" lon="7.02454"><ele>899.8</ele><time>2017-06-15T10:53:27Z</time></trkpt>
<trkpt lat="46.12393" lon="7.02451"><ele>900.2</ele><time>2017-06-15T10:53:29Z</time></trkpt>
<trkpt lat="46.12391" lon="7.02448"><ele>900.4</ele><time>2017-06-15T10:53:31Z</time></trkpt>
<trkpt lat="46.1239" lon="7.02447"><ele>900.4</ele><time>2017-06-15T10:53:32Z</time></trkpt>
<trkpt lat="46.12389" lon="7.02445"><ele>900.6</ele><time>2017-06-15T10:53:33Z</time></trkpt>
<trkpt lat="46.12388" lon="7.02442"><ele>900.8</ele><time>2017-06-15T10:53:35Z</time></trkpt>
<trkpt lat="46.12386" lon="7.0244"><ele>901.2</ele><time>2017-06-15T10:53:37Z</time></trkpt>
<trkpt lat="46.12385" lon="7.02437"><ele>901.4</ele><time>2017-06-15T10:53:39Z</time></trkpt>
<trkpt lat="46.12383" lon="7.02434"><ele>901.6</ele><time>2017-06-15T10:53:41Z</time></trkpt>
<trkpt lat="46.12382" lon="7.02433"><ele>901.8</ele><time>2017-06-15T10:53:42Z</time></trkpt>
<trkpt lat="46.12381" lon="7.02431"><ele>902</ele><time>2017-06-15T10:53:43Z</time></trkpt>
<trkpt lat="46.1238" lon="7.02429"><ele>902.2</ele><time>2017-06-15T10:53:45Z</time></trkpt>
<trkpt lat="46.12378" lon="7.02426"><ele>902.4</ele><time>2017-06-15T10:53:47Z</time></trkpt>
<trkpt lat="46.12376" lon="7.02423"><ele>902.6</ele><time>2017-06-15T10:53:49Z</time></trkpt>
<trkpt lat="46.12375" lon="7.0242"><ele>903</ele><time>2017-06-15T10:53:51Z</time></trkpt>
<trkpt lat="46.12373" lon="7.02417"><ele>903.2</ele><time>2017-06-15T10:53:53Z</time></trkpt>
<trkpt lat="46.12372" lon="7.02415"><ele>903.4</ele><time>2017-06-15T10:53:55Z</time></trkpt>
<trkpt lat="46.1237" lon="7.02412"><ele>903.8</ele><time>2017-06-15T10:53:57Z</time></trkpt>
<trkpt lat="46.12368" lon="7.02409"><ele>904</ele><time>2017-06-15T10:53:59Z</time></trkpt>
<trkpt lat="46.12368" lon="7.02408"><ele>904.2</ele><time>2017-06-15T10:54:00Z</time></trkpt>
<trkpt lat="46.12367" lon="7.02406"><ele>904.2</ele><time>2017-06-15T10:54:01Z</time></trkpt>
<trkpt lat="46.12365" lon="7.02404"><ele>904.6</ele><time>2017-06-15T10:54:03Z</time></trkpt>
<trkpt lat="46.12364" lon="7.02401"><ele>904.8</ele><time>2017-06-15T10:54:05Z</time></trkpt>
<trkpt lat="46.12362" lon="7.02398"><ele>905</ele><time>2017-06-15T10:54:07Z</time></trkpt>
<trkpt lat="46.12361" lon="7.02396"><ele>905.4</ele><time>2017-06-15T10:54:09Z</time></trkpt>
<trkpt lat="46.12359" lon="7.02393"><ele>905.6</ele><time>2017-06-15T10:54:11Z</time></trkpt>
<trkpt lat="46.12358" lon="7.0239"><ele>906</ele><time>2017-06-15T10:54:13Z</time></trkpt>
<trkpt lat="46.12356" lon="7.02387"><ele>906.4</ele><time>2017-06-15T10:54:15Z</time></trkpt>
<trkpt lat="46.12355" lon="7.02385"><ele>906.6</ele><time>2017-06-15T10:54:17Z</time></trkpt>
<trkpt lat="46.12353" lon="7.02382"><ele>907</ele><time>2017-06-15T10:54:19Z</time></trkpt>
<trkpt lat="46.12352" lon="7.02379"><ele>907.2</ele><time>2017-06-15T10:54:21Z</time></trkpt>
<trkpt lat="46.1235" lon="7.02376"><ele>907.6</ele><time>2017-06-15T10:54:23Z</time></trkpt>
<trkpt lat="46.12349" lon="7.02374"><ele>907.8</ele><time>2017-06-15T10:54:25Z</time></trkpt>
<trkpt lat="46.12347" lon="7.02371"><ele>908.2</ele><time>2017-06-15T10:54:27Z</time></trkpt>
<trkpt lat="46.12347" lon="7.0237"><ele>908.2</ele><time>2017-06-15T10:54:28Z</time></trkpt>
<trkpt lat="46.12346" lon="7.02368"><ele>908.4</ele><time>2017-06-15T10:54:29Z</time></trkpt>
<trkpt lat="46.12344" lon="7.02366"><ele>908.8</ele><time>2017-06-15T10:54:31Z</time></trkpt>
<trkpt lat="46.12343" lon="7.02363"><ele>909</ele><time>2017-06-15T10:54:33Z</time></trkpt>
<trkpt lat="46.12341" lon="7.0236"><ele>909.2</ele><time>2017-06-15T10:54:35Z</time></trkpt>
<trkpt lat="46.1234" lon="7.02357"><ele>909.6</ele><time>2017-06-15T10:54:37Z</time></trkpt>
<trkpt lat="46.12339" lon="7.02356"><ele>909.6</ele><time>2017-06-15T10:54:38Z</time></trkpt>
<trkpt lat="46.12338" lon="7.02356"><ele>909.8</ele><time>2017-06-15T10:54:39Z</time></trkpt>
<trkpt lat="46.12336" lon="7.02354"><ele>910</ele><time>2017-06-15T10:54:41Z</time></trkpt>
<trkpt lat="46.12335" lon="7.02353"><ele>910.4</ele><time>2017-06-15T10:54:43Z</time></trkpt>
<trkpt lat="46.12333" lon="7.02351"><ele>910.6</ele><time>2017-06-15T10:54:45Z</time></trkpt>
<trkpt lat="46.12331" lon="7.0235"><ele>911</ele><time>2017-06-15T10:54:47Z</time></trkpt>
<trkpt lat="46.12329" lon="7.02348"><ele>911.2</ele><time>2017-06-15T10:54:49Z</time></trkpt>
<trkpt lat="46.12327" lon="7.02347"><ele>911.4</ele><time>2017-06-15T10:54:51Z</time></trkpt>
<trkpt lat="46.12326" lon="7.02345"><ele>911.8</ele><time>2017-06-15T10:54:53Z</time></trkpt>
<trkpt lat="46.12324" lon="7.02344"><ele>912</ele><time>2017-06-15T10:54:55Z</time></trkpt>
<trkpt lat="46.12322" lon="7.02342"><ele>912.4</ele><time>2017-06-15T10:54:57Z</time></trkpt>
<trkpt lat="46.1232" lon="7.02341"><ele>912.6</ele><time>2017-06-15T10:54:59Z</time></trkpt>
<trkpt lat="46.12319" lon="7.0234"><ele>913</ele><time>2017-06-15T10:55:01Z</time></trkpt>
<trkpt lat="46.12317" lon="7.02338"><ele>913.2</ele><time>2017-06-15T10:55:03Z</time></trkpt>
<trkpt lat="46.12315" lon="7.02337"><ele>913.4</ele><time>2017-06-15T10:55:05Z</time></trkpt>
<trkpt lat="46.12313" lon="7.02335"><ele>913.8</ele><time>2017-06-15T10:55:07Z</time></trkpt>
<trkpt lat="46.12311" lon="7.02334"><ele>914</ele><time>2017-06-15T10:55:09Z</time></trkpt>
<trkpt lat="46.1231" lon="7.02332"><ele>914.4</ele><time>2017-06-15T10:55:11Z</time></trkpt>
<trkpt lat="46.12308" lon="7.02331"><ele>914.6</ele><time>2017-06-15T10:55:13Z</time></trkpt>
<trkpt lat="46.12306" lon="7.02329"><ele>915</ele><time>2017-06-15T10:55:15Z</time></trkpt>
<trkpt lat="46.12304" lon="7.02328"><ele>915.2</ele><time>2017-06-15T10:55:17Z</time></trkpt>
<trkpt lat="46.12302" lon="7.02327"><ele>915.4</ele><time>2017-06-15T10:55:19Z</time></trkpt>
<trkpt lat="46.12301" lon="7.02325"><ele>915.8</ele><time>2017-06-15T10:55:21Z</time></trkpt>
<trkpt lat="46.123" lon="7.02324"><ele>916</ele><time>2017-06-15T10:55:22Z</time></trkpt>
<trkpt lat="46.12298" lon="7.02323"><ele>916</ele><time>2017-06-15T10:55:23Z</time></trkpt>
<trkpt lat="46.12296" lon="7.02319"><ele>916.4</ele><time>2017-06-15T10:55:25Z</time></trkpt>
<trkpt lat="46.12293" lon="7.02316"><ele>916.6</ele><time>2017-06-15T10:55:27Z</time></trkpt>
<trkpt lat="46.1229" lon="7.02313"><ele>916.8</ele><time>2017-06-15T10:55:29Z</time></trkpt>
<trkpt lat="46.12288" lon="7.0231"><ele>917.2</ele><time>2017-06-15T10:55:31Z</time></trkpt>
<trkpt lat="46.12285" lon="7.02307"><ele>917.4</ele><time>2017-06-15T10:55:33Z</time></trkpt>
<trkpt lat="46.12283" lon="7.02304"><ele>917.8</ele><time>2017-06-15T10:55:35Z</time></trkpt>
<trkpt lat="46.1228" lon="7.02301"><ele>918</ele><time>2017-06-15T10:55:37Z</time></trkpt>
<trkpt lat="46.12277" lon="7.02298"><ele>918.2</ele><time>2017-06-15T10:55:39Z</time></trkpt>
<trkpt lat="46.12275" lon="7.02295"><ele>918.4</ele><time>2017-06-15T10:55:41Z</time></trkpt>
<trkpt lat="46.12272" lon="7.02292"><ele>918.8</ele><time>2017-06-15T10:55:43Z</time></trkpt>
<trkpt lat="46.12269" lon="7.02289"><ele>919</ele><time>2017-06-15T10:55:45Z</time></trkpt>
<trkpt lat="46.12267" lon="7.02286"><ele>919.2</ele><time>2017-06-15T10:55:47Z</time></trkpt>
<trkpt lat="46.12265" lon="7.02283"><ele>919.4</ele><time>2017-06-15T10:55:49Z</time></trkpt>
<trkpt lat="46.12265" lon="7.02283"><ele>919.8</ele><time>2017-06-15T10:55:51Z</time></trkpt>
<trkpt lat="46.12265" lon="7.02282"><ele>920</ele><time>2017-06-15T10:55:53Z</time></trkpt>
<trkpt lat="46.12265" lon="7.02281"><ele>920.2</ele><time>2017-06-15T10:55:55Z</time></trkpt>
<trkpt lat="46.12265" lon="7.02281"><ele>920.4</ele><time>2017-06-15T10:55:57Z</time></trkpt>
<trkpt lat="46.12265" lon="7.0228"><ele>920.6</ele><time>2017-06-15T10:55:59Z</time></trkpt>
<trkpt lat="46.12265" lon="7.0228"><ele>920.8</ele><time>2017-06-15T10:56:01Z</time></trkpt>
<trkpt lat="46.12265" lon="7.02279"><ele>921</ele><time>2017-06-15T10:56:03Z</time></trkpt>
<trkpt lat="46.12265" lon="7.02279"><ele>921.2</ele><time>2017-06-15T10:56:05Z</time></trkpt>
<trkpt lat="46.12265" lon="7.02278"><ele>921.4</ele><time>2017-06-15T10:56:07Z</time></trkpt>
<trkpt lat="46.12265" lon="7.02277"><ele>921.6</ele><time>2017-06-15T10:56:09Z</time></trkpt>
<trkpt lat="46.12265" lon="7.02277"><ele>921.8</ele><time>2017-06-15T10:56:11Z</time></trkpt>
<trkpt lat="46.12265" lon="7.02276"><ele>922</ele><time>2017-06-15T10:56:13Z</time></trkpt>
<trkpt lat="46.12265" lon="7.02276"><ele>922.2</ele><time>2017-06-15T10:56:15Z</time></trkpt>
<trkpt lat="46.12265" lon="7.02275"><ele>922.2</ele><time>2017-06-15T10:56:17Z</time></trkpt>
<trkpt lat="46.12265" lon="7.02275"><ele>922.4</ele><time>2017-06-15T10:56:19Z</time></trkpt>
<trkpt lat="46.12268" lon="7.02276"><ele>922.6</ele><time>2017-06-15T10:56:21Z</time></trkpt>
<trkpt lat="46.1227" lon="7.02278"><ele>922.8</ele><time>2017-06-15T10:56:23Z</time></trkpt>
<trkpt lat="46.12272" lon="7.02279"><ele>923</ele><time>2017-06-15T10:56:25Z</time></trkpt>
<trkpt lat="46.12274" lon="7.02281"><ele>923.2</ele><time>2017-06-15T10:56:27Z</time></trkpt>
<trkpt lat="46.12276" lon="7.02282"><ele>923.4</ele><time>2017-06-15T10:56:29Z</time></trkpt>
<trkpt lat="46.12278" lon="7.02283"><ele>923.4</ele><time>2017-06-15T10:56:30Z</time></trkpt>
<trkpt lat="46.12279" lon="7.02283"><ele>923.6</ele><time>2017-06-15T10:56:31Z</time></trkpt>
<trkpt lat="46.12281" lon="7.02285"><ele>924</ele><time>2017-06-15T10:56:33Z</time></trkpt>
<trkpt lat="46.12283" lon="7.02286"><ele>924.2</ele><time>2017-06-15T10:56:35Z</time></trkpt>
<trkpt lat="46.12285" lon="7.02288"><ele>924.6</ele><time>2017-06-15T10:56:37Z</time></trkpt>
<trkpt lat="46.12288" lon="7.02289"><ele>924.8</ele><time>2017-06-15T10:56:39Z</time></trkpt>
<trkpt lat="46.1229" lon="7.0229"><ele>925.2</ele><time>2017-06-15T10:56:41Z</time></trkpt>
<trkpt lat="46.12292" lon="7.02292"><ele>925.6</ele><time>2017-06-15T10:56:43Z</time></trkpt>
<trkpt lat="46.12294" lon="7.02293"><ele>925.8</ele><time>2017-06-15T10:56:45Z</time></trkpt>
<trkpt lat="46.12296" lon="7.02295"><ele>926.2</ele><time>2017-06-15T10:56:47Z</time></trkpt>
<trkpt lat="46.12299" lon="7.02296"><ele>926.4</ele><time>2017-06-15T10:56:49Z</time></trkpt>
<trkpt lat="46.12301" lon="7.02298"><ele>926.8</ele><time>2017-06-15T10:56:51Z</time></trkpt>
<trkpt lat="46.12303" lon="7.02299"><ele>927</ele><time>2017-06-15T10:56:53Z</time></trkpt>
<trkpt lat="46.12305" lon="7.023"><ele>927.4</ele><time>2017-06-15T10:56:55Z</time></trkpt>
<trkpt lat="46.12306" lon="7.02301"><ele>927.6</ele><time>2017-06-15T10:56:56Z</time></trkpt>
<trkpt lat="46.12307" lon="7.02302"><ele>927.6</ele><time>2017-06-15T10:56:57Z</time></trkpt>
<trkpt lat="46.1231" lon="7.02303"><ele>928</ele><time>2017-06-15T10:56:59Z</time></trkpt>
<trkpt lat="46.12312" lon="7.02303"><ele>928.2</ele><time>2017-06-15T10:57:01Z</time></trkpt>
<trkpt lat="46.12315" lon="7.02304"><ele>928.4</ele><time>2017-06-15T10:57:03Z</time></trkpt>
<trkpt lat="46.12317" lon="7.02305"><ele>928.8</ele><time>2017-06-15T10:57:05Z</time></trkpt>
<trkpt lat="46.1232" lon="7.02306"><ele>929</ele><time>2017-06-15T10:57:07Z</time></trkpt>
<trkpt lat="46.12322" lon="7.02307"><ele>929.2</ele><time>2017-06-15T10:57:09Z</time></trkpt>
<trkpt lat="46.12325" lon="7.02307"><ele>929.6</ele><time>2017-06-15T10:57:11Z</time></trkpt>
<trkpt lat="46.12327" lon="7.02308"><ele>929.8</ele><time>2017-06-15T10:57:13Z</time></trkpt>
<trkpt lat="46.1233" lon="7.02309"><ele>930.2</ele><time>2017-06-15T10:57:15Z</time></trkpt>
<trkpt lat="46.12332" lon="7.0231"><ele>930.4</ele><time>2017-06-15T10:57:17Z</time></trkpt>
<trkpt lat="46.12335" lon="7.02311"><ele>930.6</ele><time>2017-06-15T10:57:19Z</time></trkpt>
<trkpt lat="46.12337" lon="7.02312"><ele>931</ele><time>2017-06-15T10:57:21Z</time></trkpt>
<trkpt lat="46.1234" lon="7.02312"><ele>931.2</ele><time>2017-06-15T10:57:23Z</time></trkpt>
<trkpt lat="46.12342" lon="7.02313"><ele>931.6</ele><time>2017-06-15T10:57:25Z</time></trkpt>
<trkpt lat="46.12344" lon="7.02314"><ele>931.8</ele><time>2017-06-15T10:57:27Z</time></trkpt>
<trkpt lat="46.12347" lon="7.02315"><ele>932</ele><time>2017-06-15T10:57:29Z</time></trkpt>
<trkpt lat="46.12349" lon="7.02316"><ele>932.4</ele><time>2017-06-15T10:57:31Z</time></trkpt>
<trkpt lat="46.12352" lon="7.02316"><ele>932.6</ele><time>2017-06-15T10:57:33Z</time></trkpt>
<trkpt lat="46.12355" lon="7.02317"><ele>933</ele><time>2017-06-15T10:57:35Z</time></trkpt>
<trkpt lat="46.12357" lon="7.02318"><ele>933.2</ele><time>2017-06-15T10:57:37Z</time></trkpt>
<trkpt lat="46.1236" lon="7.02319"><ele>933.4</ele><time>2017-06-15T10:57:39Z</time></trkpt>
<trkpt lat="46.12363" lon="7.0232"><ele>933.8</ele><time>2017-06-15T10:57:41Z</time></trkpt>
<trkpt lat="46.12366" lon="7.02321"><ele>934</ele><time>2017-06-15T10:57:43Z</time></trkpt>
<trkpt lat="46.12368" lon="7.02322"><ele>934.4</ele><time>2017-06-15T10:57:45Z</time></trkpt>
<trkpt lat="46.1237" lon="7.02322"><ele>934.4</ele><time>2017-06-15T10:57:46Z</time></trkpt>
<trkpt lat="46.12371" lon="7.02323"><ele>934.6</ele><time>2017-06-15T10:57:47Z</time></trkpt>
<trkpt lat="46.12374" lon="7.02324"><ele>935</ele><time>2017-06-15T10:57:49Z</time></trkpt>
<trkpt lat="46.12376" lon="7.02324"><ele>935.2</ele><time>2017-06-15T10:57:51Z</time></trkpt>
<trkpt lat="46.12379" lon="7.02325"><ele>935.6</ele><time>2017-06-15T10:57:53Z</time></trkpt>
<trkpt lat="46.12382" lon="7.02326"><ele>935.8</ele><time>2017-06-15T10:57:55Z</time></trkpt>
<trkpt lat="46.12385" lon="7.02327"><ele>936.2</ele><time>2017-06-15T10:57:57Z</time></trkpt>
<trkpt lat="46.12387" lon="7.02328"><ele>936.4</ele><time>2017-06-15T10:57:59Z</time></trkpt>
<trkpt lat="46.1239" lon="7.02329"><ele>936.8</ele><time>2017-06-15T10:58:01Z</time></trkpt>
<trkpt lat="46.12393" lon="7.0233"><ele>937</ele><time>2017-06-15T10:58:03Z</time></trkpt>
<trkpt lat="46.12396" lon="7.02331"><ele>937.4</ele><time>2017-06-15T10:58:05Z</time></trkpt>
<trkpt lat="46.12397" lon="7.02331"><ele>937.6</ele><time>2017-06-15T10:58:06Z</time></trkpt>
<trkpt lat="46.12398" lon="7.02331"><ele>937.8</ele><time>2017-06-15T10:58:07Z</time></trkpt>
<trkpt lat="46.12401" lon="7.02332"><ele>938</ele><time>2017-06-15T10:58:09Z</time></trkpt>
<trkpt lat="46.12403" lon="7.02333"><ele>938.2</ele><time>2017-06-15T10:58:11Z</time></trkpt>
<trkpt lat="46.12406" lon="7.02334"><ele>938.6</ele><time>2017-06-15T10:58:13Z</time></trkpt>
<trkpt lat="46.12408" lon="7.02334"><ele>938.8</ele><time>2017-06-15T10:58:15Z</time></trkpt>
<trkpt lat="46.12411" lon="7.02335"><ele>939</ele><time>2017-06-15T10:58:17Z</time></trkpt>
<trkpt lat="46.12414" lon="7.02336"><ele>939.2</ele><time>2017-06-15T10:58:19Z</time></trkpt>
<trkpt lat="46.12416" lon="7.02336"><ele>939.6</ele><time>2017-06-15T10:58:21Z</time></trkpt>
<trkpt lat="46.12419" lon="7.02337"><ele>939.8</ele><time>2017-06-15T10:58:23Z</time></trkpt>
<trkpt lat="46.12421" lon="7.02338"><ele>940</ele><time>2017-06-15T10:58:25Z</time></trkpt>
<trkpt lat="46.12424" lon="7.02338"><ele>940.2</ele><time>2017-06-15T10:58:27Z</time></trkpt>
<trkpt lat="46.12426" lon="7.02339"><ele>940.6</ele><time>2017-06-15T10:58:29Z</time></trkpt>
<trkpt lat="46.12429" lon="7.0234"><ele>940.8</ele><time>2017-06-15T10:58:31Z</time></trkpt>
<trkpt lat="46.12431" lon="7.02341"><ele>941</ele><time>2017-06-15T10:58:33Z</time></trkpt>
<trkpt lat="46.12434" lon="7.02341"><ele>941.2</ele><time>2017-06-15T10:58:35Z</time></trkpt>
<trkpt lat="46.12437" lon="7.02342"><ele>941.6</ele><time>2017-06-15T10:58:37Z</time></trkpt>
<trkpt lat="46.12439" lon="7.02343"><ele>941.8</ele><time>2017-06-15T10:58:39Z</time></trkpt>
<trkpt lat="46.12442" lon="7.02344"><ele>942.2</ele><time>2017-06-15T10:58:41Z</time></trkpt>
<trkpt lat="46.12444" lon="7.02346"><ele>942.4</ele><time>2017-06-15T10:58:43Z</time></trkpt>
<trkpt lat="46.12446" lon="7.02348"><ele>942.8</ele><time>2017-06-15T10:58:45Z</time></trkpt>
<trkpt lat="46.12448" lon="7.0235"><ele>943</ele><time>2017-06-15T10:58:47Z</time></trkpt>
<trkpt lat="46.1245" lon="7.02352"><ele>943.4</ele><time>2017-06-15T10:58:49Z</time></trkpt>
<trkpt lat="46.12452" lon="7.02354"><ele>943.6</ele><time>2017-06-15T10:58:51Z</time></trkpt>
<trkpt lat="46.12454" lon="7.02356"><ele>944</ele><time>2017-06-15T10:58:53Z</time></trkpt>
<trkpt lat="46.12455" lon="7.02357"><ele>944.2</ele><time>2017-06-15T10:58:54Z</time></trkpt>
<trkpt lat="46.12456" lon="7.02358"><ele>944.2</ele><time>2017-06-15T10:58:55Z</time></trkpt>
<trkpt lat="46.12458" lon="7.0236"><ele>944.6</ele><time>2017-06-15T10:58:57Z</time></trkpt>
<trkpt lat="46.1246" lon="7.02362"><ele>944.8</ele><time>2017-06-15T10:58:59Z</time></trkpt>
<trkpt lat="46.12462" lon="7.02364"><ele>945</ele><time>2017-06-15T10:59:01Z</time></trkpt>
<trkpt lat="46.12464" lon="7.02366"><ele>945.4</ele><time>2017-06-15T10:59:03Z</time></trkpt>
<trkpt lat="46.12466" lon="7.02368"><ele>945.6</ele><time>2017-06-15T10:59:05Z</time></trkpt>
<trkpt lat="46.12468" lon="7.0237"><ele>946</ele><time>2017-06-15T10:59:07Z</time></trkpt>
<trkpt lat="46.1247" lon="7.02372"><ele>946.2</ele><time>2017-06-15T10:59:09Z</time></trkpt>
<trkpt lat="46.12472" lon="7.02374"><ele>946.4</ele><time>2017-06-15T10:59:11Z</time></trkpt>
<trkpt lat="46.12474" lon="7.02376"><ele>946.8</ele><time>2017-06-15T10:59:13Z</time></trkpt>
<trkpt lat="46.12476" lon="7.02378"><ele>947</ele><time>2017-06-15T10:59:15Z</time></trkpt>
<trkpt lat="46.12478" lon="7.0238"><ele>947.2</ele><time>2017-06-15T10:59:17Z</time></trkpt>
<trkpt lat="46.12479" lon="7.0238"><ele>947.4</ele><time>2017-06-15T10:59:18Z</time></trkpt>
<trkpt lat="46.12481" lon="7.02381"><ele>947.6</ele><time>2017-06-15T10:59:19Z</time></trkpt>
<trkpt lat="46.12483" lon="7.02382"><ele>947.8</ele><time>2017-06-15T10:59:21Z</time></trkpt>
<trkpt lat="46.12484" lon="7.02382"><ele>948</ele><time>2017-06-15T10:59:22Z</time></trkpt>
<trkpt lat="46.12485" lon="7.02383"><ele>948.2</ele><time>2017-06-15T10:59:23Z</time></trkpt>
<trkpt lat="46.12488" lon="7.02384"><ele>948.4</ele><time>2017-06-15T10:59:25Z</time></trkpt>
<trkpt lat="46.1249" lon="7.02385"><ele>948.8</ele><time>2017-06-15T10:59:27Z</time></trkpt>
<trkpt lat="46.12492" lon="7.02386"><ele>949</ele><time>2017-06-15T10:59:29Z</time></trkpt>
<trkpt lat="46.12495" lon="7.02387"><ele>949.2</ele><time>2017-06-15T10:59:31Z</time></trkpt>
<trkpt lat="46.12497" lon="7.02388"><ele>949.6</ele><time>2017-06-15T10:59:33Z</time></trkpt>
<trkpt lat="46.12499" lon="7.02389"><ele>949.8</ele><time>2017-06-15T10:59:35Z</time></trkpt>
<trkpt lat="46.12502" lon="7.0239"><ele>950.2</ele><time>2017-06-15T10:59:37Z</time></trkpt>
<trkpt lat="46.12504" lon="7.02391"><ele>950.4</ele><time>2017-06-15T10:59:39Z</time></trkpt>
<trkpt lat="46.12506" lon="7.02392"><ele>950.8</ele><time>2017-06-15T10:59:41Z</time></trkpt>
<trkpt lat="46.12509" lon="7.02393"><ele>951</ele><time>2017-06-15T10:59:43Z</time></trkpt>
<trkpt lat="46.1251" lon="7.02393"><ele>951.2</ele><time>2017-06-15T10:59:44Z</time></trkpt>
<trkpt lat="46.12511" lon="7.02393"><ele>951.4</ele><time>2017-06-15T10:59:45Z</time></trkpt>
<trkpt lat="46.12513" lon="7.02394"><ele>951.8</ele><time>2017-06-15T10:59:47Z</time></trkpt>
<trkpt lat="46.12516" lon="7.02395"><ele>952.2</ele><time>2017-06-15T10:59:49Z</time></trkpt>
<trkpt lat="46.12518" lon="7.02396"><ele>952.6</ele><time>2017-06-15T10:59:51Z</time></trkpt>
<trkpt lat="46.1252" lon="7.02397"><ele>953</ele><time>2017-06-15T10:59:53Z</time></trkpt>
<trkpt lat="46.12523" lon="7.02398"><ele>953.4</ele><time>2017-06-15T10:59:55Z</time></trkpt>
<trkpt lat="46.12524" lon="7.02399"><ele>953.6</ele><time>2017-06-15T10:59:56Z</time></trkpt>
<trkpt lat="46.12525" lon="7.02398"><ele>953.8</ele><time>2017-06-15T10:59:57Z</time></trkpt>
<trkpt lat="46.12528" lon="7.02398"><ele>954.2</ele><time>2017-06-15T10:59:59Z</time></trkpt>
<trkpt lat="46.12529" lon="7.02398"><ele>954.4</ele><time>2017-06-15T11:00:00Z</time></trkpt>
<trkpt lat="46.1253" lon="7.02398"><ele>954.4</ele><time>2017-06-15T11:00:01Z</time></trkpt>
<trkpt lat="46.12533" lon="7.02397"><ele>954.8</ele><time>2017-06-15T11:00:03Z</time></trkpt>
<trkpt lat="46.12535" lon="7.02397"><ele>955</ele><time>2017-06-15T11:00:05Z</time></trkpt>
<trkpt lat="46.12538" lon="7.02397"><ele>955.2</ele><time>2017-06-15T11:00:07Z</time></trkpt>
<trkpt lat="46.1254" lon="7.02396"><ele>955.6</ele><time>2017-06-15T11:00:09Z</time></trkpt>
<trkpt lat="46.12543" lon="7.02396"><ele>955.8</ele><time>2017-06-15T11:00:11Z</time></trkpt>
<trkpt lat="46.12545" lon="7.02395"><ele>956.2</ele><time>2017-06-15T11:00:13Z</time></trkpt>
<trkpt lat="46.12548" lon="7.02395"><ele>956.4</ele><time>2017-06-15T11:00:15Z</time></trkpt>
<trkpt lat="46.1255" lon="7.02395"><ele>956.6</ele><time>2017-06-15T11:00:17Z</time></trkpt>
<trkpt lat="46.12553" lon="7.02394"><ele>957</ele><time>2017-06-15T11:00:19Z</time></trkpt>
<trkpt lat="46.12555" lon="7.02394"><ele>957.2</ele><time>2017-06-15T11:00:21Z</time></trkpt>
<trkpt lat="46.12558" lon="7.02394"><ele>957.4</ele><time>2017-06-15T11:00:23Z</time></trkpt>
<trkpt lat="46.12561" lon="7.02393"><ele>957.6</ele><time>2017-06-15T11:00:25Z</time></trkpt>
<trkpt lat="46.12563" lon="7.02393"><ele>957.8</ele><time>2017-06-15T11:00:27Z</time></trkpt>
<trkpt lat="46.12564" lon="7.02393"><ele>958</ele><time>2017-06-15T11:00:28Z</time></trkpt>
<trkpt lat="46.12566" lon="7.02393"><ele>958</ele><time>2017-06-15T11:00:29Z</time></trkpt>
<trkpt lat="46.12568" lon="7.02392"><ele>958.4</ele><time>2017-06-15T11:00:31Z</time></trkpt>
<trkpt lat="46.12569" lon="7.02392"><ele>958.6</ele><time>2017-06-15T11:00:32Z</time></trkpt>
<trkpt lat="46.12571" lon="7.02391"><ele>958.6</ele><time>2017-06-15T11:00:33Z</time></trkpt>
<trkpt lat="46.12573" lon="7.0239"><ele>959</ele><time>2017-06-15T11:00:35Z</time></trkpt>
<trkpt lat="46.12575" lon="7.02389"><ele>959.2</ele><time>2017-06-15T11:00:37Z</time></trkpt>
<trkpt lat="46.12577" lon="7.02387"><ele>959.6</ele><time>2017-06-15T11:00:39Z</time></trkpt>
<trkpt lat="46.1258" lon="7.02386"><ele>959.8</ele><time>2017-06-15T11:00:41Z</time></trkpt>
<trkpt lat="46.12582" lon="7.02385"><ele>960.2</ele><time>2017-06-15T11:00:43Z</time></trkpt>
<trkpt lat="46.12584" lon="7.02384"><ele>960.4</ele><time>2017-06-15T11:00:45Z</time></trkpt>
<trkpt lat="46.12586" lon="7.02382"><ele>960.8</ele><time>2017-06-15T11:00:47Z</time></trkpt>
<trkpt lat="46.12589" lon="7.02381"><ele>961.2</ele><time>2017-06-15T11:00:49Z</time></trkpt>
<trkpt lat="46.1259" lon="7.0238"><ele>961.4</ele><time>2017-06-15T11:00:50Z</time></trkpt>
<trkpt lat="46.12591" lon="7.0238"><ele>961.4</ele><time>2017-06-15T11:00:51Z</time></trkpt>
<trkpt lat="46.12593" lon="7.02379"><ele>961.8</ele><time>2017-06-15T11:00:53Z</time></trkpt>
<trkpt lat="46.12595" lon="7.02377"><ele>962.2</ele><time>2017-06-15T11:00:55Z</time></trkpt>
<trkpt lat="46.12598" lon="7.02376"><ele>962.6</ele><time>2017-06-15T11:00:57Z</time></trkpt>
<trkpt lat="46.126" lon="7.02375"><ele>963</ele><time>2017-06-15T11:00:59Z</time></trkpt>
<trkpt lat="46.12602" lon="7.02373"><ele>963.4</ele><time>2017-06-15T11:01:01Z</time></trkpt>
<trkpt lat="46.12603" lon="7.02373"><ele>963.4</ele><time>2017-06-15T11:01:02Z</time></trkpt>
<trkpt lat="46.12604" lon="7.02372"><ele>963.6</ele><time>2017-06-15T11:01:03Z</time></trkpt>
<trkpt lat="46.12607" lon="7.02371"><ele>964</ele><time>2017-06-15T11:01:05Z</time></trkpt>
<trkpt lat="46.12609" lon="7.0237"><ele>964.2</ele><time>2017-06-15T11:01:07Z</time></trkpt>
<trkpt lat="46.12611" lon="7.02368"><ele>964.4</ele><time>2017-06-15T11:01:09Z</time></trkpt>
<trkpt lat="46.12612" lon="7.02368"><ele>964.6</ele><time>2017-06-15T11:01:10Z</time></trkpt>
<trkpt lat="46.12614" lon="7.02368"><ele>964.8</ele><time>2017-06-15T11:01:11Z</time></trkpt>
<trkpt lat="46.12616" lon="7.02367"><ele>965</ele><time>2017-06-15T11:01:13Z</time></trkpt>
<trkpt lat="46.12619" lon="7.02367"><ele>965.2</ele><time>2017-06-15T11:01:15Z</time></trkpt>
<trkpt lat="46.12621" lon="7.02366"><ele>965.6</ele><time>2017-06-15T11:01:17Z</time></trkpt>
<trkpt lat="46.12624" lon="7.02366"><ele>965.8</ele><time>2017-06-15T11:01:19Z</time></trkpt>
<trkpt lat="46.12626" lon="7.02366"><ele>966.2</ele><time>2017-06-15T11:01:21Z</time></trkpt>
<trkpt lat="46.12629" lon="7.02365"><ele>966.4</ele><time>2017-06-15T11:01:23Z</time></trkpt>
<trkpt lat="46.12631" lon="7.02365"><ele>966.6</ele><time>2017-06-15T11:01:25Z</time></trkpt>
<trkpt lat="46.12633" lon="7.02365"><ele>966.8</ele><time>2017-06-15T11:01:26Z</time></trkpt>
<trkpt lat="46.12634" lon="7.02364"><ele>967</ele><time>2017-06-15T11:01:27Z</time></trkpt>
<trkpt lat="46.12636" lon="7.02364"><ele>967.4</ele><time>2017-06-15T11:01:29Z</time></trkpt>
<trkpt lat="46.12639" lon="7.02364"><ele>967.6</ele><time>2017-06-15T11:01:31Z</time></trkpt>
<trkpt lat="46.12641" lon="7.02363"><ele>968</ele><time>2017-06-15T11:01:33Z</time></trkpt>
<trkpt lat="46.12644" lon="7.02363"><ele>968.4</ele><time>2017-06-15T11:01:35Z</time></trkpt>
<trkpt lat="46.12646" lon="7.02362"><ele>968.6</ele><time>2017-06-15T11:01:37Z</time></trkpt>
<trkpt lat="46.12649" lon="7.02362"><ele>969</ele><time>2017-06-15T11:01:39Z</time></trkpt>
<trkpt lat="46.12652" lon="7.02362"><ele>969.4</ele><time>2017-06-15T11:01:41Z</time></trkpt>
<trkpt lat="46.12654" lon="7.02361"><ele>969.6</ele><time>2017-06-15T11:01:43Z</time></trkpt>
<trkpt lat="46.12657" lon="7.02361"><ele>970</ele><time>2017-06-15T11:01:45Z</time></trkpt>
<trkpt lat="46.12658" lon="7.02361"><ele>970.2</ele><time>2017-06-15T11:01:46Z</time></trkpt>
<trkpt lat="46.12659" lon="7.02361"><ele>970.4</ele><time>2017-06-15T11:01:47Z</time></trkpt>
<trkpt lat="46.12661" lon="7.02362"><ele>970.6</ele><time>2017-06-15T11:01:49Z</time></trkpt>
<trkpt lat="46.12664" lon="7.02363"><ele>970.8</ele><time>2017-06-15T11:01:51Z</time></trkpt>
<trkpt lat="46.12666" lon="7.02364"><ele>971.2</ele><time>2017-06-15T11:01:53Z</time></trkpt>
<trkpt lat="46.12668" lon="7.02365"><ele>971.4</ele><time>2017-06-15T11:01:55Z</time></trkpt>
<trkpt lat="46.12671" lon="7.02366"><ele>971.8</ele><time>2017-06-15T11:01:57Z</time></trkpt>
<trkpt lat="46.12673" lon="7.02367"><ele>972</ele><time>2017-06-15T11:01:59Z</time></trkpt>
<trkpt lat="46.12675" lon="7.02368"><ele>972.2</ele><time>2017-06-15T11:02:01Z</time></trkpt>
<trkpt lat="46.12678" lon="7.02369"><ele>972.6</ele><time>2017-06-15T11:02:03Z</time></trkpt>
<trkpt lat="46.1268" lon="7.0237"><ele>972.8</ele><time>2017-06-15T11:02:05Z</time></trkpt>
<trkpt lat="46.12682" lon="7.02371"><ele>973.2</ele><time>2017-06-15T11:02:07Z</time></trkpt>
<trkpt lat="46.12684" lon="7.02372"><ele>973.4</ele><time>2017-06-15T11:02:09Z</time></trkpt>
<trkpt lat="46.12686" lon="7.02373"><ele>973.6</ele><time>2017-06-15T11:02:10Z</time></trkpt>
<trkpt lat="46.12687" lon="7.02373"><ele>973.6</ele><time>2017-06-15T11:02:11Z</time></trkpt>
<trkpt lat="46.12689" lon="7.02375"><ele>974</ele><time>2017-06-15T11:02:13Z</time></trkpt>
<trkpt lat="46.12691" lon="7.02376"><ele>974.2</ele><time>2017-06-15T11:02:15Z</time></trkpt>
<trkpt lat="46.12694" lon="7.02377"><ele>974.6</ele><time>2017-06-15T11:02:17Z</time></trkpt>
<trkpt lat="46.12696" lon="7.02378"><ele>974.8</ele><time>2017-06-15T11:02:19Z</time></trkpt>
<trkpt lat="46.12698" lon="7.02379"><ele>975.2</ele><time>2017-06-15T11:02:21Z</time></trkpt>
<trkpt lat="46.12701" lon="7.0238"><ele>975.4</ele><time>2017-06-15T11:02:23Z</time></trkpt>
<trkpt lat="46.12702" lon="7.0238"><ele>975.6</ele><time>2017-06-15T11:02:24Z</time></trkpt>
<trkpt lat="46.12703" lon="7.02381"><ele>975.8</ele><time>2017-06-15T11:02:25Z</time></trkpt>
<trkpt lat="46.12705" lon="7.02383"><ele>976</ele><time>2017-06-15T11:02:27Z</time></trkpt>
<trkpt lat="46.12707" lon="7.02385"><ele>976.2</ele><time>2017-06-15T11:02:29Z</time></trkpt>
<trkpt lat="46.12709" lon="7.02387"><ele>976.6</ele><time>2017-06-15T11:02:31Z</time></trkpt>
<trkpt lat="46.1271" lon="7.02388"><ele>976.8</ele><time>2017-06-15T11:02:32Z</time></trkpt>
<trkpt lat="46.12711" lon="7.02388"><ele>976.8</ele><time>2017-06-15T11:02:33Z</time></trkpt>
<trkpt lat="46.12713" lon="7.0239"><ele>977.2</ele><time>2017-06-15T11:02:35Z</time></trkpt>
<trkpt lat="46.12715" lon="7.02392"><ele>977.4</ele><time>2017-06-15T11:02:37Z</time></trkpt>
<trkpt lat="46.12717" lon="7.02394"><ele>977.8</ele><time>2017-06-15T11:02:39Z</time></trkpt>
<trkpt lat="46.12719" lon="7.02396"><ele>978</ele><time>2017-06-15T11:02:41Z</time></trkpt>
<trkpt lat="46.12722" lon="7.02397"><ele>978.4</ele><time>2017-06-15T11:02:43Z</time></trkpt>
<trkpt lat="46.12724" lon="7.02399"><ele>978.6</ele><time>2017-06-15T11:02:45Z</time></trkpt>
<trkpt lat="46.12726" lon="7.02401"><ele>979</ele><time>2017-06-15T11:02:47Z</time></trkpt>
<trkpt lat="46.12728" lon="7.02403"><ele>979.2</ele><time>2017-06-15T11:02:49Z</time></trkpt>
<trkpt lat="46.1273" lon="7.02405"><ele>979.6</ele><time>2017-06-15T11:02:51Z</time></trkpt>
<trkpt lat="46.12732" lon="7.02407"><ele>979.8</ele><time>2017-06-15T11:02:53Z</time></trkpt>
<trkpt lat="46.12734" lon="7.02408"><ele>980.2</ele><time>2017-06-15T11:02:55Z</time></trkpt>
<trkpt lat="46.12736" lon="7.0241"><ele>980.4</ele><time>2017-06-15T11:02:57Z</time></trkpt>
<trkpt lat="46.12738" lon="7.02412"><ele>980.8</ele><time>2017-06-15T11:02:59Z</time></trkpt>
<trkpt lat="46.1274" lon="7.02414"><ele>981</ele><time>2017-06-15T11:03:01Z</time></trkpt>
<trkpt lat="46.12742" lon="7.02417"><ele>981.4</ele><time>2017-06-15T11:03:03Z</time></trkpt>
<trkpt lat="46.12744" lon="7.02419"><ele>981.6</ele><time>2017-06-15T11:03:05Z</time></trkpt>
<trkpt lat="46.12746" lon="7.02422"><ele>981.8</ele><time>2017-06-15T11:03:07Z</time></trkpt>
<trkpt lat="46.12747" lon="7.02425"><ele>982.2</ele><time>2017-06-15T11:03:09Z</time></trkpt>
<trkpt lat="46.12749" lon="7.02428"><ele>982.4</ele><time>2017-06-15T11:03:11Z</time></trkpt>
<trkpt lat="46.12751" lon="7.0243"><ele>982.6</ele><time>2017-06-15T11:03:13Z</time></trkpt>
<trkpt lat="46.12753" lon="7.02433"><ele>983</ele><time>2017-06-15T11:03:15Z</time></trkpt>
<trkpt lat="46.12754" lon="7.02436"><ele>983.2</ele><time>2017-06-15T11:03:17Z</time></trkpt>
<trkpt lat="46.12756" lon="7.02439"><ele>983.4</ele><time>2017-06-15T11:03:19Z</time></trkpt>
<trkpt lat="46.12758" lon="7.02441"><ele>983.8</ele><time>2017-06-15T11:03:21Z</time></trkpt>
<trkpt lat="46.1276" lon="7.02444"><ele>984</ele><time>2017-06-15T11:03:23Z</time></trkpt>
<trkpt lat="46.12761" lon="7.02447"><ele>984.2</ele><time>2017-06-15T11:03:25Z</time></trkpt>
<trkpt lat="46.12763" lon="7.0245"><ele>984.4</ele><time>2017-06-15T11:03:27Z</time></trkpt>
<trkpt lat="46.12764" lon="7.0245"><ele>984.6</ele><time>2017-06-15T11:03:28Z</time></trkpt>
<trkpt lat="46.12765" lon="7.02449"><ele>984.6</ele><time>2017-06-15T11:03:29Z</time></trkpt>
<trkpt lat="46.12766" lon="7.02446"><ele>985</ele><time>2017-06-15T11:03:31Z</time></trkpt>
<trkpt lat="46.12767" lon="7.02443"><ele>985.2</ele><time>2017-06-15T11:03:33Z</time></trkpt>
<trkpt lat="46.12767" lon="7.02441"><ele>985.4</ele><time>2017-06-15T11:03:34Z</time></trkpt>
<trkpt lat="46.12766" lon="7.02439"><ele>985.4</ele><time>2017-06-15T11:03:35Z</time></trkpt>
<trkpt lat="46.12764" lon="7.02434"><ele>985.6</ele><time>2017-06-15T11:03:37Z</time></trkpt>
<trkpt lat="46.12762" lon="7.0243"><ele>986</ele><time>2017-06-15T11:03:39Z</time></trkpt>
<trkpt lat="46.1276" lon="7.02425"><ele>986.2</ele><time>2017-06-15T11:03:41Z</time></trkpt>
<trkpt lat="46.12759" lon="7.02421"><ele>986.4</ele><time>2017-06-15T11:03:43Z</time></trkpt>
<trkpt lat="46.12757" lon="7.02416"><ele>986.8</ele><time>2017-06-15T11:03:45Z</time></trkpt>
<trkpt lat="46.12755" lon="7.02412"><ele>987</ele><time>2017-06-15T11:03:47Z</time></trkpt>
<trkpt lat="46.12753" lon="7.02407"><ele>987.2</ele><time>2017-06-15T11:03:49Z</time></trkpt>
<trkpt lat="46.12751" lon="7.02403"><ele>987.4</ele><time>2017-06-15T11:03:51Z</time></trkpt>
<trkpt lat="46.12749" lon="7.02398"><ele>987.8</ele><time>2017-06-15T11:03:53Z</time></trkpt>
<trkpt lat="46.12747" lon="7.02394"><ele>988</ele><time>2017-06-15T11:03:55Z</time></trkpt>
<trkpt lat="46.12746" lon="7.02391"><ele>988.2</ele><time>2017-06-15T11:03:56Z</time></trkpt>
<trkpt lat="46.12745" lon="7.02389"><ele>988.2</ele><time>2017-06-15T11:03:57Z</time></trkpt>
<trkpt lat="46.12743" lon="7.02385"><ele>988.6</ele><time>2017-06-15T11:03:59Z</time></trkpt>
<trkpt lat="46.12741" lon="7.02381"><ele>988.8</ele><time>2017-06-15T11:04:01Z</time></trkpt>
<trkpt lat="46.12739" lon="7.02377"><ele>989.2</ele><time>2017-06-15T11:04:03Z</time></trkpt>
<trkpt lat="46.12738" lon="7.02373"><ele>989.6</ele><time>2017-06-15T11:04:05Z</time></trkpt>
<trkpt lat="46.12736" lon="7.02369"><ele>989.8</ele><time>2017-06-15T11:04:07Z</time></trkpt>
<trkpt lat="46.12734" lon="7.02365"><ele>990.2</ele><time>2017-06-15T11:04:09Z</time></trkpt>
<trkpt lat="46.12732" lon="7.02361"><ele>990.4</ele><time>2017-06-15T11:04:11Z</time></trkpt>
<trkpt lat="46.1273" lon="7.02357"><ele>990.8</ele><time>2017-06-15T11:04:13Z</time></trkpt>
<trkpt lat="46.12729" lon="7.02353"><ele>991</ele><time>2017-06-15T11:04:15Z</time></trkpt>
<trkpt lat="46.12727" lon="7.02349"><ele>991.4</ele><time>2017-06-15T11:04:17Z</time></trkpt>
<trkpt lat="46.12725" lon="7.02346"><ele>991.6</ele><time>2017-06-15T11:04:19Z</time></trkpt>
<trkpt lat="46.12723" lon="7.02342"><ele>992</ele><time>2017-06-15T11:04:21Z</time></trkpt>
<trkpt lat="46.12721" lon="7.02338"><ele>992.4</ele><time>2017-06-15T11:04:23Z</time></trkpt>
<trkpt lat="46.12719" lon="7.02334"><ele>992.6</ele><time>2017-06-15T11:04:25Z</time></trkpt>
<trkpt lat="46.12719" lon="7.02332"><ele>992.8</ele><time>2017-06-15T11:04:26Z</time></trkpt>
<trkpt lat="46.12717" lon="7.0233"><ele>993</ele><time>2017-06-15T11:04:27Z</time></trkpt>
<trkpt lat="46.12714" lon="7.02327"><ele>993.4</ele><time>2017-06-15T11:04:29Z</time></trkpt>
<trkpt lat="46.12711" lon="7.02325"><ele>993.8</ele><time>2017-06-15T11:04:31Z</time></trkpt>
<trkpt lat="46.12709" lon="7.02322"><ele>994</ele><time>2017-06-15T11:04:33Z</time></trkpt>
<trkpt lat="46.12706" lon="7.02319"><ele>994.4</ele><time>2017-06-15T11:04:35Z</time></trkpt>
<trkpt lat="46.12703" lon="7.02316"><ele>994.8</ele><time>2017-06-15T11:04:37Z</time></trkpt>
<trkpt lat="46.127" lon="7.02313"><ele>995</ele><time>2017-06-15T11:04:39Z</time></trkpt>
<trkpt lat="46.12697" lon="7.0231"><ele>995.4</ele><time>2017-06-15T11:04:41Z</time></trkpt>
<trkpt lat="46.12696" lon="7.02309"><ele>995.6</ele><time>2017-06-15T11:04:42Z</time></trkpt>
<trkpt lat="46.12694" lon="7.02307"><ele>995.8</ele><time>2017-06-15T11:04:43Z</time></trkpt>
<trkpt lat="46.12691" lon="7.02305"><ele>996</ele><time>2017-06-15T11:04:45Z</time></trkpt>
<trkpt lat="46.12688" lon="7.02302"><ele>996.4</ele><time>2017-06-15T11:04:47Z</time></trkpt>
<trkpt lat="46.12686" lon="7.02299"><ele>996.8</ele><time>2017-06-15T11:04:49Z</time></trkpt>
<trkpt lat="46.12683" lon="7.02296"><ele>997.2</ele><time>2017-06-15T11:04:51Z</time></trkpt>
<trkpt lat="46.1268" lon="7.02293"><ele>997.4</ele><time>2017-06-15T11:04:53Z</time></trkpt>
<trkpt lat="46.12677" lon="7.0229"><ele>997.8</ele><time>2017-06-15T11:04:55Z</time></trkpt>
<trkpt lat="46.12674" lon="7.02287"><ele>998.2</ele><time>2017-06-15T11:04:57Z</time></trkpt>
<trkpt lat="46.12671" lon="7.02284"><ele>998.6</ele><time>2017-06-15T11:04:59Z</time></trkpt>
<trkpt lat="46.12668" lon="7.02281"><ele>998.8</ele><time>2017-06-15T11:05:01Z</time></trkpt>
<trkpt lat="46.12665" lon="7.02278"><ele>999.2</ele><time>2017-06-15T11:05:03Z</time></trkpt>
<trkpt lat="46.12662" lon="7.02275"><ele>999.6</ele><time>2017-06-15T11:05:05Z</time></trkpt>
<trkpt lat="46.12659" lon="7.02272"><ele>1000</ele><time>2017-06-15T11:05:07Z</time></trkpt>
<trkpt lat="46.12656" lon="7.02269"><ele>1000.2</ele><time>2017-06-15T11:05:09Z</time></trkpt>
<trkpt lat="46.12653" lon="7.02266"><ele>1000.6</ele><time>2017-06-15T11:05:11Z</time></trkpt>
<trkpt lat="46.1265" lon="7.02263"><ele>1001</ele><time>2017-06-15T11:05:13Z</time></trkpt>
<trkpt lat="46.12647" lon="7.0226"><ele>1001.4</ele><time>2017-06-15T11:05:15Z</time></trkpt>
<trkpt lat="46.12644" lon="7.02257"><ele>1001.8</ele><time>2017-06-15T11:05:17Z</time></trkpt>
<trkpt lat="46.12642" lon="7.02256"><ele>1001.8</ele><time>2017-06-15T11:05:18Z</time></trkpt>
<trkpt lat="46.12641" lon="7.02256"><ele>1002</ele><time>2017-06-15T11:05:19Z</time></trkpt>
<trkpt lat="46.12637" lon="7.02256"><ele>1002.4</ele><time>2017-06-15T11:05:21Z</time></trkpt>
<trkpt lat="46.12634" lon="7.02256"><ele>1002.8</ele><time>2017-06-15T11:05:23Z</time></trkpt>
<trkpt lat="46.12631" lon="7.02256"><ele>1003</ele><time>2017-06-15T11:05:25Z</time></trkpt>
<trkpt lat="46.12627" lon="7.02256"><ele>1003.4</ele><time>2017-06-15T11:05:27Z</time></trkpt>
<trkpt lat="46.12624" lon="7.02257"><ele>1003.8</ele><time>2017-06-15T11:05:29Z</time></trkpt>
<trkpt lat="46.12621" lon="7.02257"><ele>1004</ele><time>2017-06-15T11:05:31Z</time></trkpt>
<trkpt lat="46.12617" lon="7.02257"><ele>1004.4</ele><time>2017-06-15T11:05:33Z</time></trkpt>
<trkpt lat="46.12614" lon="7.02257"><ele>1004.6</ele><time>2017-06-15T11:05:35Z</time></trkpt>
<trkpt lat="46.12611" lon="7.02257"><ele>1005</ele><time>2017-06-15T11:05:37Z</time></trkpt>
<trkpt lat="46.12607" lon="7.02257"><ele>1005.4</ele><time>2017-06-15T11:05:39Z</time></trkpt>
<trkpt lat="46.12604" lon="7.02257"><ele>1005.6</ele><time>2017-06-15T11:05:41Z</time></trkpt>
<trkpt lat="46.12601" lon="7.02257"><ele>1006</ele><time>2017-06-15T11:05:43Z</time></trkpt>
<trkpt lat="46.12597" lon="7.02257"><ele>1006.2</ele><time>2017-06-15T11:05:45Z</time></trkpt>
<trkpt lat="46.12594" lon="7.02257"><ele>1006.6</ele><time>2017-06-15T11:05:47Z</time></trkpt>
<trkpt lat="46.12591" lon="7.02256"><ele>1007.2</ele><time>2017-06-15T11:05:49Z</time></trkpt>
<trkpt lat="46.12587" lon="7.02256"><ele>1007.6</ele><time>2017-06-15T11:05:51Z</time></trkpt>
<trkpt lat="46.12584" lon="7.02255"><ele>1008</ele><time>2017-06-15T11:05:53Z</time></trkpt>
<trkpt lat="46.1258" lon="7.02255"><ele>1008.4</ele><time>2017-06-15T11:05:55Z</time></trkpt>
<trkpt lat="46.12577" lon="7.02254"><ele>1008.8</ele><time>2017-06-15T11:05:57Z</time></trkpt>
<trkpt lat="46.12561" lon="7.02224"><ele>1011.4</ele><time>2017-06-15T11:06:00Z</time></trkpt>
<trkpt lat="46.12561" lon="7.02224"><ele>1011.4</ele><time>2017-06-15T11:16:12Z</time></trkpt>
<trkpt lat="46.12549" lon="7.02194"><ele>1013.4</ele><time>2017-06-15T11:16:13Z</time></trkpt>
<trkpt lat="46.12549" lon="7.02194"><ele>1013.4</ele><time>2017-06-15T11:16:15Z</time></trkpt>
<trkpt lat="46.12549" lon="7.02194"><ele>1013.4</ele><time>2017-06-15T11:16:17Z</time></trkpt>
<trkpt lat="46.12549" lon="7.02193"><ele>1013.4</ele><time>2017-06-15T11:16:19Z</time></trkpt>
<trkpt lat="46.12549" lon="7.02193"><ele>1013.4</ele><time>2017-06-15T11:16:21Z</time></trkpt>
<trkpt lat="46.12548" lon="7.02193"><ele>1013.4</ele><time>2017-06-15T11:16:23Z</time></trkpt>
<trkpt lat="46.12548" lon="7.02193"><ele>1013.4</ele><time>2017-06-15T11:16:25Z</time></trkpt>
<trkpt lat="46.12548" lon="7.02193"><ele>1013.4</ele><time>2017-06-15T11:16:27Z</time></trkpt>
<trkpt lat="46.12548" lon="7.02192"><ele>1013.6</ele><time>2017-06-15T11:16:29Z</time></trkpt>
<trkpt lat="46.12548" lon="7.02192"><ele>1014</ele><time>2017-06-15T11:16:31Z</time></trkpt>
<trkpt lat="46.12548" lon="7.02192"><ele>1014</ele><time>2017-06-15T11:16:32Z</time></trkpt>
<trkpt lat="46.12546" lon="7.02191"><ele>1014.2</ele><time>2017-06-15T11:16:33Z</time></trkpt>
<trkpt lat="46.12544" lon="7.02188"><ele>1014.6</ele><time>2017-06-15T11:16:35Z</time></trkpt>
<trkpt lat="46.12541" lon="7.02185"><ele>1015</ele><time>2017-06-15T11:16:37Z</time></trkpt>
<trkpt lat="46.12538" lon="7.02183"><ele>1015.4</ele><time>2017-06-15T11:16:39Z</time></trkpt>
<trkpt lat="46.12535" lon="7.0218"><ele>1015.6</ele><time>2017-06-15T11:16:41Z</time></trkpt>
<trkpt lat="46.12532" lon="7.02178"><ele>1016</ele><time>2017-06-15T11:16:43Z</time></trkpt>
<trkpt lat="46.1253" lon="7.02175"><ele>1016.4</ele><time>2017-06-15T11:16:45Z</time></trkpt>
<trkpt lat="46.12528" lon="7.02174"><ele>1016.6</ele><time>2017-06-15T11:16:46Z</time></trkpt>
<trkpt lat="46.12527" lon="7.02173"><ele>1016.8</ele><time>2017-06-15T11:16:47Z</time></trkpt>
<trkpt lat="46.12524" lon="7.0217"><ele>1017</ele><time>2017-06-15T11:16:49Z</time></trkpt>
<trkpt lat="46.12521" lon="7.02168"><ele>1017.4</ele><time>2017-06-15T11:16:51Z</time></trkpt>
<trkpt lat="46.12518" lon="7.02165"><ele>1017.8</ele><time>2017-06-15T11:16:53Z</time></trkpt>
<trkpt lat="46.12516" lon="7.02163"><ele>1018.2</ele><time>2017-06-15T11:16:55Z</time></trkpt>
<trkpt lat="46.12513" lon="7.0216"><ele>1018.4</ele><time>2017-06-15T11:16:57Z</time></trkpt>
<trkpt lat="46.1251" lon="7.02158"><ele>1018.8</ele><time>2017-06-15T11:16:59Z</time></trkpt>
<trkpt lat="46.12508" lon="7.02157"><ele>1019</ele><time>2017-06-15T11:17:00Z</time></trkpt>
<trkpt lat="46.12507" lon="7.02156"><ele>1019.2</ele><time>2017-06-15T11:17:01Z</time></trkpt>
<trkpt lat="46.12504" lon="7.02153"><ele>1019.4</ele><time>2017-06-15T11:17:03Z</time></trkpt>
<trkpt lat="46.12502" lon="7.02152"><ele>1019.6</ele><time>2017-06-15T11:17:04Z</time></trkpt>
<trkpt lat="46.12501" lon="7.02151"><ele>1019.8</ele><time>2017-06-15T11:17:05Z</time></trkpt>
<trkpt lat="46.12498" lon="7.02149"><ele>1020.2</ele><time>2017-06-15T11:17:07Z</time></trkpt>
<trkpt lat="46.12495" lon="7.02147"><ele>1020.6</ele><time>2017-06-15T11:17:09Z</time></trkpt>
<trkpt lat="46.12491" lon="7.02145"><ele>1021</ele><time>2017-06-15T11:17:11Z</time></trkpt>
<trkpt lat="46.12488" lon="7.02143"><ele>1021.4</ele><time>2017-06-15T11:17:13Z</time></trkpt>
<trkpt lat="46.12485" lon="7.02141"><ele>1021.8</ele><time>2017-06-15T11:17:15Z</time></trkpt>
<trkpt lat="46.12482" lon="7.02139"><ele>1022.2</ele><time>2017-06-15T11:17:17Z</time></trkpt>
<trkpt lat="46.12479" lon="7.02137"><ele>1022.6</ele><time>2017-06-15T11:17:19Z</time></trkpt>
<trkpt lat="46.12478" lon="7.02136"><ele>1022.8</ele><time>2017-06-15T11:17:20Z</time></trkpt>
<trkpt lat="46.12476" lon="7.02134"><ele>1023</ele><time>2017-06-15T11:17:21Z</time></trkpt>
<trkpt lat="46.12473" lon="7.02132"><ele>1023.2</ele><time>2017-06-15T11:17:23Z</time></trkpt>
<trkpt lat="46.1247" lon="7.0213"><ele>1023.6</ele><time>2017-06-15T11:17:25Z</time></trkpt>
<trkpt lat="46.12467" lon="7.02128"><ele>1023.8</ele><time>2017-06-15T11:17:27Z</time></trkpt>
<trkpt lat="46.12464" lon="7.02125"><ele>1024.2</ele><time>2017-06-15T11:17:29Z</time></trkpt>
<trkpt lat="46.12462" lon="7.02122"><ele>1024.6</ele><time>2017-06-15T11:17:31Z</time></trkpt>
<trkpt lat="46.12459" lon="7.0212"><ele>1024.8</ele><time>2017-06-15T11:17:33Z</time></trkpt>
<trkpt lat="46.12457" lon="7.02117"><ele>1025.2</ele><time>2017-06-15T11:17:35Z</time></trkpt>
<trkpt lat="46.12454" lon="7.02114"><ele>1025.4</ele><time>2017-06-15T11:17:37Z</time></trkpt>
<trkpt lat="46.12452" lon="7.02111"><ele>1025.8</ele><time>2017-06-15T11:17:39Z</time></trkpt>
<trkpt lat="46.12449" lon="7.02108"><ele>1026.2</ele><time>2017-06-15T11:17:41Z</time></trkpt>
<trkpt lat="46.12447" lon="7.02106"><ele>1026.4</ele><time>2017-06-15T11:17:43Z</time></trkpt>
<trkpt lat="46.12444" lon="7.02103"><ele>1026.8</ele><time>2017-06-15T11:17:45Z</time></trkpt>
<trkpt lat="46.12442" lon="7.021"><ele>1027</ele><time>2017-06-15T11:17:47Z</time></trkpt>
<trkpt lat="46.12439" lon="7.02097"><ele>1027.4</ele><time>2017-06-15T11:17:49Z</time></trkpt>
<trkpt lat="46.12437" lon="7.02094"><ele>1027.6</ele><time>2017-06-15T11:17:51Z</time></trkpt>
<trkpt lat="46.12434" lon="7.02092"><ele>1028</ele><time>2017-06-15T11:17:53Z</time></trkpt>
<trkpt lat="46.12432" lon="7.02089"><ele>1028.2</ele><time>2017-06-15T11:17:55Z</time></trkpt>
<trkpt lat="46.12431" lon="7.02087"><ele>1028.4</ele><time>2017-06-15T11:17:56Z</time></trkpt>
<trkpt lat="46.12429" lon="7.02086"><ele>1028.6</ele><time>2017-06-15T11:17:57Z</time></trkpt>
<trkpt lat="46.12426" lon="7.02083"><ele>1028.8</ele><time>2017-06-15T11:17:59Z</time></trkpt>
<trkpt lat="46.12424" lon="7.0208"><ele>1029.2</ele><time>2017-06-15T11:18:01Z</time></trkpt>
<trkpt lat="46.12421" lon="7.02077"><ele>1029.4</ele><time>2017-06-15T11:18:03Z</time></trkpt>
<trkpt lat="46.12418" lon="7.02074"><ele>1029.8</ele><time>2017-06-15T11:18:05Z</time></trkpt>
<trkpt lat="46.12415" lon="7.0207"><ele>1030</ele><time>2017-06-15T11:18:07Z</time></trkpt>
<trkpt lat="46.12412" lon="7.02067"><ele>1030.4</ele><time>2017-06-15T11:18:09Z</time></trkpt>
<trkpt lat="46.1241" lon="7.02064"><ele>1030.6</ele><time>2017-06-15T11:18:11Z</time></trkpt>
<trkpt lat="46.12407" lon="7.02061"><ele>1031</ele><time>2017-06-15T11:18:13Z</time></trkpt>
<trkpt lat="46.12404" lon="7.02058"><ele>1031.4</ele><time>2017-06-15T11:18:15Z</time></trkpt>
<trkpt lat="46.12401" lon="7.02055"><ele>1031.6</ele><time>2017-06-15T11:18:17Z</time></trkpt>
<trkpt lat="46.12398" lon="7.02052"><ele>1032</ele><time>2017-06-15T11:18:19Z</time></trkpt>
<trkpt lat="46.12395" lon="7.02049"><ele>1032.2</ele><time>2017-06-15T11:18:21Z</time></trkpt>
<trkpt lat="46.12394" lon="7.02047"><ele>1032.4</ele><time>2017-06-15T11:18:22Z</time></trkpt>
<trkpt lat="46.12393" lon="7.02045"><ele>1032.6</ele><time>2017-06-15T11:18:23Z</time></trkpt>
<trkpt lat="46.1239" lon="7.02042"><ele>1032.8</ele><time>2017-06-15T11:18:25Z</time></trkpt>
<trkpt lat="46.12389" lon="7.0204"><ele>1033</ele><time>2017-06-15T11:18:26Z</time></trkpt>
<trkpt lat="46.12388" lon="7.02038"><ele>1033.2</ele><time>2017-06-15T11:18:27Z</time></trkpt>
<trkpt lat="46.12386" lon="7.02035"><ele>1033.6</ele><time>2017-06-15T11:18:29Z</time></trkpt>
<trkpt lat="46.12383" lon="7.02031"><ele>1033.8</ele><time>2017-06-15T11:18:31Z</time></trkpt>
<trkpt lat="46.12381" lon="7.02028"><ele>1034.2</ele><time>2017-06-15T11:18:33Z</time></trkpt>
<trkpt lat="46.12378" lon="7.02024"><ele>1034.4</ele><time>2017-06-15T11:18:35Z</time></trkpt>
<trkpt lat="46.12376" lon="7.02021"><ele>1034.8</ele><time>2017-06-15T11:18:37Z</time></trkpt>
<trkpt lat="46.12374" lon="7.02017"><ele>1035.2</ele><time>2017-06-15T11:18:39Z</time></trkpt>
<trkpt lat="46.12371" lon="7.02014"><ele>1035.4</ele><time>2017-06-15T11:18:41Z</time></trkpt>
<trkpt lat="46.12369" lon="7.0201"><ele>1035.8</ele><time>2017-06-15T11:18:43Z</time></trkpt>
<trkpt lat="46.12366" lon="7.02006"><ele>1036.2</ele><time>2017-06-15T11:18:45Z</time></trkpt>
<trkpt lat="46.12365" lon="7.02005"><ele>1036.2</ele><time>2017-06-15T11:18:46Z</time></trkpt>
<trkpt lat="46.12364" lon="7.02003"><ele>1036.4</ele><time>2017-06-15T11:18:47Z</time></trkpt>
<trkpt lat="46.12361" lon="7.01999"><ele>1036.8</ele><time>2017-06-15T11:18:49Z</time></trkpt>
<trkpt lat="46.12359" lon="7.01995"><ele>1037.2</ele><time>2017-06-15T11:18:51Z</time></trkpt>
<trkpt lat="46.12357" lon="7.01991"><ele>1037.4</ele><time>2017-06-15T11:18:53Z</time></trkpt>
<trkpt lat="46.12355" lon="7.01987"><ele>1037.8</ele><time>2017-06-15T11:18:55Z</time></trkpt>
<trkpt lat="46.12353" lon="7.01983"><ele>1038.2</ele><time>2017-06-15T11:18:57Z</time></trkpt>
<trkpt lat="46.12351" lon="7.01979"><ele>1038.4</ele><time>2017-06-15T11:18:59Z</time></trkpt>
<trkpt lat="46.12349" lon="7.01976"><ele>1038.8</ele><time>2017-06-15T11:19:01Z</time></trkpt>
<trkpt lat="46.12347" lon="7.01972"><ele>1039.2</ele><time>2017-06-15T11:19:03Z</time></trkpt>
<trkpt lat="46.12345" lon="7.01968"><ele>1039.4</ele><time>2017-06-15T11:19:05Z</time></trkpt>
<trkpt lat="46.12343" lon="7.01964"><ele>1039.8</ele><time>2017-06-15T11:19:07Z</time></trkpt>
<trkpt lat="46.12342" lon="7.01962"><ele>1040</ele><time>2017-06-15T11:19:08Z</time></trkpt>
<trkpt lat="46.12341" lon="7.0196"><ele>1040.2</ele><time>2017-06-15T11:19:09Z</time></trkpt>
<trkpt lat="46.12339" lon="7.01956"><ele>1040.4</ele><time>2017-06-15T11:19:11Z</time></trkpt>
<trkpt lat="46.12337" lon="7.01952"><ele>1040.8</ele><time>2017-06-15T11:19:13Z</time></trkpt>
<trkpt lat="46.12335" lon="7.01948"><ele>1041.2</ele><time>2017-06-15T11:19:15Z</time></trkpt>
<trkpt lat="46.12334" lon="7.01946"><ele>1041.2</ele><time>2017-06-15T11:19:16Z</time></trkpt>
<trkpt lat="46.12333" lon="7.01943"><ele>1041.4</ele><time>2017-06-15T11:19:17Z</time></trkpt>
<trkpt lat="46.12331" lon="7.01939"><ele>1041.8</ele><time>2017-06-15T11:19:19Z</time></trkpt>
<trkpt lat="46.12329" lon="7.01935"><ele>1042</ele><time>2017-06-15T11:19:21Z</time></trkpt>
<trkpt lat="46.12327" lon="7.0193"><ele>1042.4</ele><time>2017-06-15T11:19:23Z</time></trkpt>
<trkpt lat="46.12325" lon="7.01926"><ele>1042.8</ele><time>2017-06-15T11:19:25Z</time></trkpt>
<trkpt lat="46.12323" lon="7.01921"><ele>1043</ele><time>2017-06-15T11:19:27Z</time></trkpt>
<trkpt lat="46.12321" lon="7.01917"><ele>1043.4</ele><time>2017-06-15T11:19:29Z</time></trkpt>
<trkpt lat="46.1232" lon="7.01915"><ele>1043.6</ele><time>2017-06-15T11:19:30Z</time></trkpt>
<trkpt lat="46.12319" lon="7.01913"><ele>1043.8</ele><time>2017-06-15T11:19:31Z</time></trkpt>
<trkpt lat="46.12317" lon="7.01908"><ele>1044.2</ele><time>2017-06-15T11:19:33Z</time></trkpt>
<trkpt lat="46.12315" lon="7.01904"><ele>1044.6</ele><time>2017-06-15T11:19:35Z</time></trkpt>
<trkpt lat="46.12313" lon="7.01899"><ele>1045</ele><time>2017-06-15T11:19:37Z</time></trkpt>
<trkpt lat="46.12311" lon="7.01895"><ele>1045.4</ele><time>2017-06-15T11:19:39Z</time></trkpt>
<trkpt lat="46.12309" lon="7.01891"><ele>1045.6</ele><time>2017-06-15T11:19:41Z</time></trkpt>
<trkpt lat="46.12308" lon="7.01886"><ele>1046</ele><time>2017-06-15T11:19:43Z</time></trkpt>
<trkpt lat="46.12306" lon="7.01881"><ele>1046.4</ele><time>2017-06-15T11:19:45Z</time></trkpt>
<trkpt lat="46.12304" lon="7.01877"><ele>1046.8</ele><time>2017-06-15T11:19:47Z</time></trkpt>
<trkpt lat="46.12303" lon="7.01872"><ele>1047.2</ele><time>2017-06-15T11:19:49Z</time></trkpt>
<trkpt lat="46.12301" lon="7.01867"><ele>1047.6</ele><time>2017-06-15T11:19:51Z</time></trkpt>
<trkpt lat="46.12299" lon="7.01863"><ele>1048</ele><time>2017-06-15T11:19:53Z</time></trkpt>
<trkpt lat="46.12298" lon="7.01858"><ele>1048.4</ele><time>2017-06-15T11:19:55Z</time></trkpt>
<trkpt lat="46.12296" lon="7.01853"><ele>1048.8</ele><time>2017-06-15T11:19:57Z</time></trkpt>
<trkpt lat="46.12294" lon="7.01849"><ele>1049.2</ele><time>2017-06-15T11:19:59Z</time></trkpt>
<trkpt lat="46.12293" lon="7.01844"><ele>1049.6</ele><time>2017-06-15T11:20:01Z</time></trkpt>
<trkpt lat="46.12291" lon="7.01839"><ele>1050</ele><time>2017-06-15T11:20:03Z</time></trkpt>
<trkpt lat="46.1229" lon="7.01837"><ele>1050.2</ele><time>2017-06-15T11:20:04Z</time></trkpt>
<trkpt lat="46.1229" lon="7.01835"><ele>1050.4</ele><time>2017-06-15T11:20:05Z</time></trkpt>
<trkpt lat="46.12289" lon="7.01832"><ele>1050.6</ele><time>2017-06-15T11:20:06Z</time></trkpt>
<trkpt lat="46.12288" lon="7.0183"><ele>1050.8</ele><time>2017-06-15T11:20:07Z</time></trkpt>
<trkpt lat="46.12287" lon="7.01826"><ele>1051</ele><time>2017-06-15T11:20:09Z</time></trkpt>
<trkpt lat="46.12286" lon="7.01822"><ele>1051.4</ele><time>2017-06-15T11:20:11Z</time></trkpt>
<trkpt lat="46.12285" lon="7.01817"><ele>1051.8</ele><time>2017-06-15T11:20:13Z</time></trkpt>
<trkpt lat="46.12284" lon="7.01813"><ele>1052</ele><time>2017-06-15T11:20:15Z</time></trkpt>
<trkpt lat="46.12283" lon="7.01809"><ele>1052.4</ele><time>2017-06-15T11:20:17Z</time></trkpt>
<trkpt lat="46.12281" lon="7.01804"><ele>1052.8</ele><time>2017-06-15T11:20:19Z</time></trkpt>
<trkpt lat="46.1228" lon="7.018"><ele>1053</ele><time>2017-06-15T11:20:21Z</time></trkpt>
<trkpt lat="46.12279" lon="7.01796"><ele>1053.4</ele><time>2017-06-15T11:20:23Z</time></trkpt>
<trkpt lat="46.12278" lon="7.01791"><ele>1053.8</ele><time>2017-06-15T11:20:25Z</time></trkpt>
<trkpt lat="46.12277" lon="7.01789"><ele>1053.8</ele><time>2017-06-15T11:20:26Z</time></trkpt>
<trkpt lat="46.12275" lon="7.01787"><ele>1054</ele><time>2017-06-15T11:20:27Z</time></trkpt>
<trkpt lat="46.12271" lon="7.01784"><ele>1054.2</ele><time>2017-06-15T11:20:29Z</time></trkpt>
<trkpt lat="46.12267" lon="7.0178"><ele>1054.4</ele><time>2017-06-15T11:20:31Z</time></trkpt>
<trkpt lat="46.12264" lon="7.01776"><ele>1054.6</ele><time>2017-06-15T11:20:33Z</time></trkpt>
<trkpt lat="46.1226" lon="7.01772"><ele>1054.8</ele><time>2017-06-15T11:20:35Z</time></trkpt>
<trkpt lat="46.12256" lon="7.01768"><ele>1055.2</ele><time>2017-06-15T11:20:37Z</time></trkpt>
<trkpt lat="46.12252" lon="7.01764"><ele>1055.4</ele><time>2017-06-15T11:20:39Z</time></trkpt>
<trkpt lat="46.12248" lon="7.0176"><ele>1055.6</ele><time>2017-06-15T11:20:41Z</time></trkpt>
<trkpt lat="46.12244" lon="7.01757"><ele>1055.8</ele><time>2017-06-15T11:20:43Z</time></trkpt>
<trkpt lat="46.12241" lon="7.01753"><ele>1056</ele><time>2017-06-15T11:20:45Z</time></trkpt>
<trkpt lat="46.12238" lon="7.01751"><ele>1056.2</ele><time>2017-06-15T11:20:47Z</time></trkpt>
<trkpt lat="46.12235" lon="7.0175"><ele>1056.4</ele><time>2017-06-15T11:20:49Z</time></trkpt>
<trkpt lat="46.12233" lon="7.01749"><ele>1056.4</ele><time>2017-06-15T11:20:51Z</time></trkpt>
<trkpt lat="46.1223" lon="7.01747"><ele>1056.6</ele><time>2017-06-15T11:20:53Z</time></trkpt>
<trkpt lat="46.12228" lon="7.01746"><ele>1056.6</ele><time>2017-06-15T11:20:55Z</time></trkpt>
<trkpt lat="46.12225" lon="7.01745"><ele>1056.6</ele><time>2017-06-15T11:20:57Z</time></trkpt>
<trkpt lat="46.12222" lon="7.01743"><ele>1056.8</ele><time>2017-06-15T11:20:59Z</time></trkpt>
<trkpt lat="46.1222" lon="7.01742"><ele>1056.8</ele><time>2017-06-15T11:21:01Z</time></trkpt>
<trkpt lat="46.12217" lon="7.0174"><ele>1057</ele><time>2017-06-15T11:21:03Z</time></trkpt>
<trkpt lat="46.12215" lon="7.01739"><ele>1057</ele><time>2017-06-15T11:21:05Z</time></trkpt>
<trkpt lat="46.12212" lon="7.01738"><ele>1057</ele><time>2017-06-15T11:21:07Z</time></trkpt>
<trkpt lat="46.12209" lon="7.01736"><ele>1057.2</ele><time>2017-06-15T11:21:09Z</time></trkpt>
<trkpt lat="46.12207" lon="7.01735"><ele>1057.2</ele><time>2017-06-15T11:21:11Z</time></trkpt>
<trkpt lat="46.12204" lon="7.01734"><ele>1057.4</ele><time>2017-06-15T11:21:13Z</time></trkpt>
<trkpt lat="46.12202" lon="7.01732"><ele>1057.4</ele><time>2017-06-15T11:21:15Z</time></trkpt>
<trkpt lat="46.12199" lon="7.01731"><ele>1057.4</ele><time>2017-06-15T11:21:17Z</time></trkpt>
<trkpt lat="46.12196" lon="7.01729"><ele>1057.6</ele><time>2017-06-15T11:21:19Z</time></trkpt>
<trkpt lat="46.12189" lon="7.01723"><ele>1057.6</ele><time>2017-06-15T11:21:21Z</time></trkpt>
<trkpt lat="46.12183" lon="7.01716"><ele>1057.8</ele><time>2017-06-15T11:21:23Z</time></trkpt>
<trkpt lat="46.12177" lon="7.0171"><ele>1057.8</ele><time>2017-06-15T11:21:25Z</time></trkpt>
<trkpt lat="46.1217" lon="7.01704"><ele>1058</ele><time>2017-06-15T11:21:27Z</time></trkpt>
<trkpt lat="46.12164" lon="7.01698"><ele>1058</ele><time>2017-06-15T11:21:29Z</time></trkpt>
<trkpt lat="46.12157" lon="7.01691"><ele>1058</ele><time>2017-06-15T11:21:31Z</time></trkpt>
<trkpt lat="46.12149" lon="7.01683"><ele>1058.2</ele><time>2017-06-15T11:21:33Z</time></trkpt>
<trkpt lat="46.12141" lon="7.01675"><ele>1058.2</ele><time>2017-06-15T11:21:35Z</time></trkpt>
<trkpt lat="46.12133" lon="7.01667"><ele>1058.4</ele><time>2017-06-15T11:21:37Z</time></trkpt>
<trkpt lat="46.12125" lon="7.01659"><ele>1058.4</ele><time>2017-06-15T11:21:39Z</time></trkpt>
<trkpt lat="46.12116" lon="7.01651"><ele>1058.4</ele><time>2017-06-15T11:21:41Z</time></trkpt>
<trkpt lat="46.12106" lon="7.01644"><ele>1058.6</ele><time>2017-06-15T11:21:43Z</time></trkpt>
<trkpt lat="46.12095" lon="7.01637"><ele>1058.6</ele><time>2017-06-15T11:21:45Z</time></trkpt>
<trkpt lat="46.12085" lon="7.0163"><ele>1058.8</ele><time>2017-06-15T11:21:47Z</time></trkpt>
<trkpt lat="46.12075" lon="7.01623"><ele>1058.8</ele><time>2017-06-15T11:21:49Z</time></trkpt>
<trkpt lat="46.1207" lon="7.01619"><ele>1058.8</ele><time>2017-06-15T11:21:50Z</time></trkpt>
<trkpt lat="46.12064" lon="7.01614"><ele>1059</ele><time>2017-06-15T11:21:51Z</time></trkpt>
<trkpt lat="46.12054" lon="7.01605"><ele>1059</ele><time>2017-06-15T11:21:53Z</time></trkpt>
<trkpt lat="46.12044" lon="7.01597"><ele>1059</ele><time>2017-06-15T11:21:55Z</time></trkpt>
<trkpt lat="46.12033" lon="7.01588"><ele>1059.2</ele><time>2017-06-15T11:21:57Z</time></trkpt>
<trkpt lat="46.12028" lon="7.01584"><ele>1059.2</ele><time>2017-06-15T11:21:58Z</time></trkpt>
<trkpt lat="46.12023" lon="7.01583"><ele>1059.2</ele><time>2017-06-15T11:21:59Z</time></trkpt>
<trkpt lat="46.12014" lon="7.0158"><ele>1059.4</ele><time>2017-06-15T11:22:01Z</time></trkpt>
<trkpt lat="46.12004" lon="7.01577"><ele>1059.4</ele><time>2017-06-15T11:22:03Z</time></trkpt>
<trkpt lat="46.11994" lon="7.01575"><ele>1059.4</ele><time>2017-06-15T11:22:05Z</time></trkpt>
<trkpt lat="46.11989" lon="7.01572"><ele>1059.2</ele><time>2017-06-15T11:22:06Z</time></trkpt>
<trkpt lat="46.11984" lon="7.01569"><ele>1059</ele><time>2017-06-15T11:22:07Z</time></trkpt>
<trkpt lat="46.1198" lon="7.01564"><ele>1058.8</ele><time>2017-06-15T11:22:08Z</time></trkpt>
<trkpt lat="46.11975" lon="7.01557"><ele>1058.6</ele><time>2017-06-15T11:22:09Z</time></trkpt>
<trkpt lat="46.11967" lon="7.01543"><ele>1058</ele><time>2017-06-15T11:22:11Z</time></trkpt>
<trkpt lat="46.11958" lon="7.01529"><ele>1057.6</ele><time>2017-06-15T11:22:13Z</time></trkpt>
<trkpt lat="46.11952" lon="7.01522"><ele>1057.2</ele><time>2017-06-15T11:22:14Z</time></trkpt>
<trkpt lat="46.11943" lon="7.01515"><ele>1057</ele><time>2017-06-15T11:22:15Z</time></trkpt>
<trkpt lat="46.11925" lon="7.01501"><ele>1056.6</ele><time>2017-06-15T11:22:17Z</time></trkpt>
<trkpt lat="46.11907" lon="7.01487"><ele>1056</ele><time>2017-06-15T11:22:19Z</time></trkpt>
<trkpt lat="46.11887" lon="7.01472"><ele>1055.6</ele><time>2017-06-15T11:22:21Z</time></trkpt>
<trkpt lat="46.11877" lon="7.01465"><ele>1055.2</ele><time>2017-06-15T11:22:22Z</time></trkpt>
<trkpt lat="46.11867" lon="7.01458"><ele>1054.8</ele><time>2017-06-15T11:22:23Z</time></trkpt>
<trkpt lat="46.11857" lon="7.01451"><ele>1054.2</ele><time>2017-06-15T11:22:24Z</time></trkpt>
<trkpt lat="46.11847" lon="7.01442"><ele>1053.6</ele><time>2017-06-15T11:22:25Z</time></trkpt>
<trkpt lat="46.11827" lon="7.01425"><ele>1052.6</ele><time>2017-06-15T11:22:27Z</time></trkpt>
<trkpt lat="46.11818" lon="7.01417"><ele>1052.4</ele><time>2017-06-15T11:22:28Z</time></trkpt>
<trkpt lat="46.1181" lon="7.01407"><ele>1052.2</ele><time>2017-06-15T11:22:29Z</time></trkpt>
<trkpt lat="46.11794" lon="7.01389"><ele>1051.6</ele><time>2017-06-15T11:22:31Z</time></trkpt>
<trkpt lat="46.11779" lon="7.0137"><ele>1051.2</ele><time>2017-06-15T11:22:33Z</time></trkpt>
<trkpt lat="46.11764" lon="7.0135"><ele>1050.6</ele><time>2017-06-15T11:22:35Z</time></trkpt>
<trkpt lat="46.11749" lon="7.0133"><ele>1050.2</ele><time>2017-06-15T11:22:37Z</time></trkpt>
<trkpt lat="46.11741" lon="7.01321"><ele>1050</ele><time>2017-06-15T11:22:38Z</time></trkpt>
<trkpt lat="46.11732" lon="7.01312"><ele>1049.6</ele><time>2017-06-15T11:22:39Z</time></trkpt>
<trkpt lat="46.11714" lon="7.01296"><ele>1049.2</ele><time>2017-06-15T11:22:41Z</time></trkpt>
<trkpt lat="46.11697" lon="7.01284"><ele>1048.8</ele><time>2017-06-15T11:22:43Z</time></trkpt>
<trkpt lat="46.11689" lon="7.01279"><ele>1048.4</ele><time>2017-06-15T11:22:44Z</time></trkpt>
<trkpt lat="46.11681" lon="7.01273"><ele>1048.2</ele><time>2017-06-15T11:22:45Z</time></trkpt>
<trkpt lat="46.11662" lon="7.01265"><ele>1047.6</ele><time>2017-06-15T11:22:47Z</time></trkpt>
<trkpt lat="46.11642" lon="7.01257"><ele>1047</ele><time>2017-06-15T11:22:49Z</time></trkpt>
<trkpt lat="46.11633" lon="7.01253"><ele>1046.6</ele><time>2017-06-15T11:22:50Z</time></trkpt>
<trkpt lat="46.11624" lon="7.0125"><ele>1046.4</ele><time>2017-06-15T11:22:51Z</time></trkpt>
<trkpt lat="46.11615" lon="7.01247"><ele>1046</ele><time>2017-06-15T11:22:52Z</time></trkpt>
<trkpt lat="46.11606" lon="7.01245"><ele>1045.8</ele><time>2017-06-15T11:22:53Z</time></trkpt>
<trkpt lat="46.11589" lon="7.01241"><ele>1045.2</ele><time>2017-06-15T11:22:55Z</time></trkpt>
<trkpt lat="46.1158" lon="7.01239"><ele>1044.8</ele><time>2017-06-15T11:22:56Z</time></trkpt>
<trkpt lat="46.11571" lon="7.01238"><ele>1044.2</ele><time>2017-06-15T11:22:57Z</time></trkpt>
<trkpt lat="46.11549" lon="7.01242"><ele>1043</ele><time>2017-06-15T11:22:59Z</time></trkpt>
<trkpt lat="46.11528" lon="7.01243"><ele>1041.8</ele><time>2017-06-15T11:23:01Z</time></trkpt>
<trkpt lat="46.11518" lon="7.01239"><ele>1041.2</ele><time>2017-06-15T11:23:02Z</time></trkpt>
<trkpt lat="46.11507" lon="7.01235"><ele>1040.2</ele><time>2017-06-15T11:23:03Z</time></trkpt>
<trkpt lat="46.11486" lon="7.01227"><ele>1038.6</ele><time>2017-06-15T11:23:05Z</time></trkpt>
<trkpt lat="46.11459" lon="7.01234"><ele>1037</ele><time>2017-06-15T11:23:07Z</time></trkpt>
<trkpt lat="46.11445" lon="7.01238"><ele>1036.2</ele><time>2017-06-15T11:23:08Z</time></trkpt>
<trkpt lat="46.11432" lon="7.01242"><ele>1035.4</ele><time>2017-06-15T11:23:09Z</time></trkpt>
<trkpt lat="46.1141" lon="7.01246"><ele>1034</ele><time>2017-06-15T11:23:11Z</time></trkpt>
<trkpt lat="46.1139" lon="7.01243"><ele>1032.4</ele><time>2017-06-15T11:23:13Z</time></trkpt>
<trkpt lat="46.1138" lon="7.01241"><ele>1031.4</ele><time>2017-06-15T11:23:14Z</time></trkpt>
<trkpt lat="46.1137" lon="7.01239"><ele>1030.2</ele><time>2017-06-15T11:23:15Z</time></trkpt>
<trkpt lat="46.11361" lon="7.01237"><ele>1028.8</ele><time>2017-06-15T11:23:16Z</time></trkpt>
<trkpt lat="46.11352" lon="7.01236"><ele>1027.6</ele><time>2017-06-15T11:23:17Z</time></trkpt>
<trkpt lat="46.11334" lon="7.01232"><ele>1025</ele><time>2017-06-15T11:23:19Z</time></trkpt>
<trkpt lat="46.11325" lon="7.0123"><ele>1023.8</ele><time>2017-06-15T11:23:20Z</time></trkpt>
<trkpt lat="46.11317" lon="7.0123"><ele>1022.8</ele><time>2017-06-15T11:23:21Z</time></trkpt>
<trkpt lat="46.11301" lon="7.01232"><ele>1021</ele><time>2017-06-15T11:23:23Z</time></trkpt>
<trkpt lat="46.11293" lon="7.01234"><ele>1020</ele><time>2017-06-15T11:23:24Z</time></trkpt>
<trkpt lat="46.11287" lon="7.01236"><ele>1019.2</ele><time>2017-06-15T11:23:25Z</time></trkpt>
<trkpt lat="46.1128" lon="7.01238"><ele>1018.6</ele><time>2017-06-15T11:23:26Z</time></trkpt>
<trkpt lat="46.11273" lon="7.01241"><ele>1019</ele><time>2017-06-15T11:23:27Z</time></trkpt>
<trkpt lat="46.11268" lon="7.01242"><ele>1019.2</ele><time>2017-06-15T11:23:28Z</time></trkpt>
<trkpt lat="46.11264" lon="7.01241"><ele>1019.6</ele><time>2017-06-15T11:23:29Z</time></trkpt>
<trkpt lat="46.11258" lon="7.0124"><ele>1020.2</ele><time>2017-06-15T11:23:31Z</time></trkpt>
<trkpt lat="46.11251" lon="7.01239"><ele>1021</ele><time>2017-06-15T11:23:33Z</time></trkpt>
<trkpt lat="46.11245" lon="7.01238"><ele>1021.6</ele><time>2017-06-15T11:23:35Z</time></trkpt>
<trkpt lat="46.11241" lon="7.01236"><ele>1022</ele><time>2017-06-15T11:23:36Z</time></trkpt>
<trkpt lat="46.11238" lon="7.01233"><ele>1022.2</ele><time>2017-06-15T11:23:37Z</time></trkpt>
<trkpt lat="46.11232" lon="7.01227"><ele>1022.6</ele><time>2017-06-15T11:23:39Z</time></trkpt>
<trkpt lat="46.11226" lon="7.01221"><ele>1023</ele><time>2017-06-15T11:23:41Z</time></trkpt>
<trkpt lat="46.11223" lon="7.01216"><ele>1023</ele><time>2017-06-15T11:23:42Z</time></trkpt>
<trkpt lat="46.1122" lon="7.01209"><ele>1023</ele><time>2017-06-15T11:23:43Z</time></trkpt>
<trkpt lat="46.11212" lon="7.01202"><ele>1023</ele><time>2017-06-15T11:23:45Z</time></trkpt>
<trkpt lat="46.11205" lon="7.01196"><ele>1023</ele><time>2017-06-15T11:23:47Z</time></trkpt>
<trkpt lat="46.11198" lon="7.01189"><ele>1023.2</ele><time>2017-06-15T11:23:49Z</time></trkpt>
<trkpt lat="46.11189" lon="7.01184"><ele>1023.4</ele><time>2017-06-15T11:23:51Z</time></trkpt>
<trkpt lat="46.11186" lon="7.01182"><ele>1023.6</ele><time>2017-06-15T11:23:52Z</time></trkpt>
<trkpt lat="46.11184" lon="7.0118"><ele>1023.6</ele><time>2017-06-15T11:23:53Z</time></trkpt>
<trkpt lat="46.11179" lon="7.01177"><ele>1023.8</ele><time>2017-06-15T11:23:55Z</time></trkpt>
<trkpt lat="46.11175" lon="7.01173"><ele>1024</ele><time>2017-06-15T11:23:57Z</time></trkpt>
<trkpt lat="46.11171" lon="7.0117"><ele>1024.2</ele><time>2017-06-15T11:23:59Z</time></trkpt>
<trkpt lat="46.11167" lon="7.01167"><ele>1024.6</ele><time>2017-06-15T11:24:01Z</time></trkpt>
<trkpt lat="46.11162" lon="7.01164"><ele>1025</ele><time>2017-06-15T11:24:03Z</time></trkpt>
<trkpt lat="46.11158" lon="7.0116"><ele>1025.4</ele><time>2017-06-15T11:24:05Z</time></trkpt>
<trkpt lat="46.11154" lon="7.01157"><ele>1025.8</ele><time>2017-06-15T11:24:07Z</time></trkpt>
<trkpt lat="46.11149" lon="7.01154"><ele>1026.2</ele><time>2017-06-15T11:24:09Z</time></trkpt>
<trkpt lat="46.11147" lon="7.01152"><ele>1026.4</ele><time>2017-06-15T11:24:10Z</time></trkpt>
<trkpt lat="46.11146" lon="7.0115"><ele>1026.6</ele><time>2017-06-15T11:24:11Z</time></trkpt>
<trkpt lat="46.11145" lon="7.01144"><ele>1027.2</ele><time>2017-06-15T11:24:13Z</time></trkpt>
<trkpt lat="46.11144" lon="7.01139"><ele>1027.6</ele><time>2017-06-15T11:24:15Z</time></trkpt>
<trkpt lat="46.11143" lon="7.01133"><ele>1028.2</ele><time>2017-06-15T11:24:17Z</time></trkpt>
<trkpt lat="46.11142" lon="7.01127"><ele>1028.8</ele><time>2017-06-15T11:24:19Z</time></trkpt>
<trkpt lat="46.11141" lon="7.01121"><ele>1029.2</ele><time>2017-06-15T11:24:21Z</time></trkpt>
<trkpt lat="46.1114" lon="7.01116"><ele>1029.8</ele><time>2017-06-15T11:24:23Z</time></trkpt>
<trkpt lat="46.11139" lon="7.0111"><ele>1030.4</ele><time>2017-06-15T11:24:25Z</time></trkpt>
<trkpt lat="46.11138" lon="7.01107"><ele>1030.6</ele><time>2017-06-15T11:24:26Z</time></trkpt>
<trkpt lat="46.11137" lon="7.01104"><ele>1030.6</ele><time>2017-06-15T11:24:27Z</time></trkpt>
<trkpt lat="46.11136" lon="7.01099"><ele>1031</ele><time>2017-06-15T11:24:29Z</time></trkpt>
<trkpt lat="46.11132" lon="7.01095"><ele>1031.2</ele><time>2017-06-15T11:24:31Z</time></trkpt>
<trkpt lat="46.11127" lon="7.01091"><ele>1031.4</ele><time>2017-06-15T11:24:33Z</time></trkpt>
<trkpt lat="46.11123" lon="7.01087"><ele>1031.8</ele><time>2017-06-15T11:24:35Z</time></trkpt>
<trkpt lat="46.11118" lon="7.01083"><ele>1032</ele><time>2017-06-15T11:24:37Z</time></trkpt>
<trkpt lat="46.11114" lon="7.01079"><ele>1032.4</ele><time>2017-06-15T11:24:39Z</time></trkpt>
<trkpt lat="46.1111" lon="7.01075"><ele>1032.6</ele><time>2017-06-15T11:24:41Z</time></trkpt>
<trkpt lat="46.11105" lon="7.01071"><ele>1032.8</ele><time>2017-06-15T11:24:43Z</time></trkpt>
<trkpt lat="46.11101" lon="7.01067"><ele>1033.2</ele><time>2017-06-15T11:24:45Z</time></trkpt>
<trkpt lat="46.11096" lon="7.01063"><ele>1033.4</ele><time>2017-06-15T11:24:47Z</time></trkpt>
<trkpt lat="46.11092" lon="7.01059"><ele>1033.6</ele><time>2017-06-15T11:24:49Z</time></trkpt>
<trkpt lat="46.11089" lon="7.01055"><ele>1034</ele><time>2017-06-15T11:24:51Z</time></trkpt>
<trkpt lat="46.11085" lon="7.0105"><ele>1034.2</ele><time>2017-06-15T11:24:53Z</time></trkpt>
<trkpt lat="46.11081" lon="7.01046"><ele>1034.6</ele><time>2017-06-15T11:24:55Z</time></trkpt>
<trkpt lat="46.11077" lon="7.01042"><ele>1035</ele><time>2017-06-15T11:24:57Z</time></trkpt>
<trkpt lat="46.11073" lon="7.01038"><ele>1035.4</ele><time>2017-06-15T11:24:59Z</time></trkpt>
<trkpt lat="46.11069" lon="7.01033"><ele>1035.8</ele><time>2017-06-15T11:25:01Z</time></trkpt>
<trkpt lat="46.11065" lon="7.01029"><ele>1036.2</ele><time>2017-06-15T11:25:03Z</time></trkpt>
<trkpt lat="46.11061" lon="7.01025"><ele>1036.6</ele><time>2017-06-15T11:25:05Z</time></trkpt>
<trkpt lat="46.11058" lon="7.01019"><ele>1037</ele><time>2017-06-15T11:25:07Z</time></trkpt>
<trkpt lat="46.11054" lon="7.01014"><ele>1037.4</ele><time>2017-06-15T11:25:09Z</time></trkpt>
<trkpt lat="46.11051" lon="7.01009"><ele>1037.4</ele><time>2017-06-15T11:25:11Z</time></trkpt>
<trkpt lat="46.11048" lon="7.01003"><ele>1037.6</ele><time>2017-06-15T11:25:13Z</time></trkpt>
<trkpt lat="46.11045" lon="7.00998"><ele>1037.8</ele><time>2017-06-15T11:25:15Z</time></trkpt>
<trkpt lat="46.11041" lon="7.00993"><ele>1038</ele><time>2017-06-15T11:25:17Z</time></trkpt>
<trkpt lat="46.11038" lon="7.00987"><ele>1038</ele><time>2017-06-15T11:25:19Z</time></trkpt>
<trkpt lat="46.11035" lon="7.00982"><ele>1038.2</ele><time>2017-06-15T11:25:21Z</time></trkpt>
<trkpt lat="46.11031" lon="7.00981"><ele>1038.4</ele><time>2017-06-15T11:25:23Z</time></trkpt>
<trkpt lat="46.11028" lon="7.00981"><ele>1038.4</ele><time>2017-06-15T11:25:25Z</time></trkpt>
<trkpt lat="46.11027" lon="7.0098"><ele>1038.6</ele><time>2017-06-15T11:25:26Z</time></trkpt>
<trkpt lat="46.11025" lon="7.0098"><ele>1038.8</ele><time>2017-06-15T11:25:27Z</time></trkpt>
<trkpt lat="46.11022" lon="7.00979"><ele>1039.2</ele><time>2017-06-15T11:25:29Z</time></trkpt>
<trkpt lat="46.11019" lon="7.00978"><ele>1039.6</ele><time>2017-06-15T11:25:31Z</time></trkpt>
<trkpt lat="46.11015" lon="7.00977"><ele>1040</ele><time>2017-06-15T11:25:33Z</time></trkpt>
<trkpt lat="46.11012" lon="7.00976"><ele>1040.4</ele><time>2017-06-15T11:25:35Z</time></trkpt>
<trkpt lat="46.11009" lon="7.00975"><ele>1040.8</ele><time>2017-06-15T11:25:37Z</time></trkpt>
<trkpt lat="46.11006" lon="7.00974"><ele>1041.2</ele><time>2017-06-15T11:25:39Z</time></trkpt>
<trkpt lat="46.11003" lon="7.00973"><ele>1041.6</ele><time>2017-06-15T11:25:41Z</time></trkpt>
<trkpt lat="46.10999" lon="7.00972"><ele>1042</ele><time>2017-06-15T11:25:43Z</time></trkpt>
<trkpt lat="46.10996" lon="7.00971"><ele>1042.2</ele><time>2017-06-15T11:25:45Z</time></trkpt>
<trkpt lat="46.10993" lon="7.0097"><ele>1042.2</ele><time>2017-06-15T11:25:47Z</time></trkpt>
<trkpt lat="46.10998" lon="7.00971"><ele>1041.2</ele><time>2017-06-15T11:25:49Z</time></trkpt>
<trkpt lat="46.10998" lon="7.00971"><ele>1041.2</ele><time>2017-06-15T11:27:35Z</time></trkpt>
<trkpt lat="46.11006" lon="7.00973"><ele>1040</ele><time>2017-06-15T11:27:37Z</time></trkpt>
<trkpt lat="46.11008" lon="7.00975"><ele>1039.8</ele><time>2017-06-15T11:27:39Z</time></trkpt>
<trkpt lat="46.11011" lon="7.00976"><ele>1039.8</ele><time>2017-06-15T11:27:41Z</time></trkpt>
<trkpt lat="46.11013" lon="7.00978"><ele>1039.8</ele><time>2017-06-15T11:27:43Z</time></trkpt>
<trkpt lat="46.11016" lon="7.00979"><ele>1039.8</ele><time>2017-06-15T11:27:45Z</time></trkpt>
<trkpt lat="46.11018" lon="7.00981"><ele>1039.6</ele><time>2017-06-15T11:27:47Z</time></trkpt>
<trkpt lat="46.1102" lon="7.00982"><ele>1039.6</ele><time>2017-06-15T11:27:48Z</time></trkpt>
<trkpt lat="46.11021" lon="7.00983"><ele>1039.6</ele><time>2017-06-15T11:27:49Z</time></trkpt>
<trkpt lat="46.11022" lon="7.00982"><ele>1039.6</ele><time>2017-06-15T11:27:50Z</time></trkpt>
<trkpt lat="46.11023" lon="7.0098"><ele>1039.6</ele><time>2017-06-15T11:27:51Z</time></trkpt>
<trkpt lat="46.11024" lon="7.00974"><ele>1039.4</ele><time>2017-06-15T11:27:53Z</time></trkpt>
<trkpt lat="46.11019" lon="7.00969"><ele>1039.4</ele><time>2017-06-15T11:27:55Z</time></trkpt>
<trkpt lat="46.11014" lon="7.00963"><ele>1039.4</ele><time>2017-06-15T11:27:57Z</time></trkpt>
<trkpt lat="46.11009" lon="7.00958"><ele>1039.2</ele><time>2017-06-15T11:27:59Z</time></trkpt>
<trkpt lat="46.11004" lon="7.00952"><ele>1039.2</ele><time>2017-06-15T11:28:01Z</time></trkpt>
<trkpt lat="46.10998" lon="7.00946"><ele>1039.2</ele><time>2017-06-15T11:28:03Z</time></trkpt>
<trkpt lat="46.10993" lon="7.00941"><ele>1039</ele><time>2017-06-15T11:28:05Z</time></trkpt>
<trkpt lat="46.10988" lon="7.00935"><ele>1039</ele><time>2017-06-15T11:28:07Z</time></trkpt>
<trkpt lat="46.10985" lon="7.00933"><ele>1039</ele><time>2017-06-15T11:28:08Z</time></trkpt>
<trkpt lat="46.10982" lon="7.0093"><ele>1039</ele><time>2017-06-15T11:28:09Z</time></trkpt>
<trkpt lat="46.10979" lon="7.00927"><ele>1039</ele><time>2017-06-15T11:28:10Z</time></trkpt>
<trkpt lat="46.10976" lon="7.00924"><ele>1039.2</ele><time>2017-06-15T11:28:11Z</time></trkpt>
<trkpt lat="46.1097" lon="7.00918"><ele>1039.4</ele><time>2017-06-15T11:28:13Z</time></trkpt>
<trkpt lat="46.10963" lon="7.00912"><ele>1039.8</ele><time>2017-06-15T11:28:15Z</time></trkpt>
<trkpt lat="46.10957" lon="7.00906"><ele>1040.2</ele><time>2017-06-15T11:28:17Z</time></trkpt>
<trkpt lat="46.10951" lon="7.009"><ele>1040.6</ele><time>2017-06-15T11:28:19Z</time></trkpt>
<trkpt lat="46.10948" lon="7.00897"><ele>1040.6</ele><time>2017-06-15T11:28:20Z</time></trkpt>
<trkpt lat="46.10945" lon="7.00894"><ele>1040.8</ele><time>2017-06-15T11:28:21Z</time></trkpt>
<trkpt lat="46.10942" lon="7.00891"><ele>1041</ele><time>2017-06-15T11:28:22Z</time></trkpt>
<trkpt lat="46.10939" lon="7.00888"><ele>1041.2</ele><time>2017-06-15T11:28:23Z</time></trkpt>
<trkpt lat="46.10933" lon="7.00882"><ele>1041.8</ele><time>2017-06-15T11:28:25Z</time></trkpt>
<trkpt lat="46.10927" lon="7.00876"><ele>1042.2</ele><time>2017-06-15T11:28:27Z</time></trkpt>
<trkpt lat="46.10921" lon="7.0087"><ele>1042.6</ele><time>2017-06-15T11:28:29Z</time></trkpt>
<trkpt lat="46.10916" lon="7.00864"><ele>1043.2</ele><time>2017-06-15T11:28:31Z</time></trkpt>
<trkpt lat="46.1091" lon="7.00858"><ele>1043.6</ele><time>2017-06-15T11:28:33Z</time></trkpt>
<trkpt lat="46.10904" lon="7.00855"><ele>1044.2</ele><time>2017-06-15T11:28:35Z</time></trkpt>
<trkpt lat="46.10898" lon="7.00852"><ele>1044.6</ele><time>2017-06-15T11:28:37Z</time></trkpt>
<trkpt lat="46.10893" lon="7.00849"><ele>1045</ele><time>2017-06-15T11:28:39Z</time></trkpt>
<trkpt lat="46.10887" lon="7.00846"><ele>1045</ele><time>2017-06-15T11:28:41Z</time></trkpt>
<trkpt lat="46.10881" lon="7.00843"><ele>1045</ele><time>2017-06-15T11:28:43Z</time></trkpt>
<trkpt lat="46.10875" lon="7.0084"><ele>1045</ele><time>2017-06-15T11:28:45Z</time></trkpt>
<trkpt lat="46.1087" lon="7.00837"><ele>1045</ele><time>2017-06-15T11:28:47Z</time></trkpt>
<trkpt lat="46.10867" lon="7.00835"><ele>1045</ele><time>2017-06-15T11:28:48Z</time></trkpt>
<trkpt lat="46.10865" lon="7.00833"><ele>1045</ele><time>2017-06-15T11:28:49Z</time></trkpt>
<trkpt lat="46.1086" lon="7.00829"><ele>1044.8</ele><time>2017-06-15T11:28:51Z</time></trkpt>
<trkpt lat="46.10856" lon="7.00825"><ele>1044.8</ele><time>2017-06-15T11:28:53Z</time></trkpt>
<trkpt lat="46.10852" lon="7.00821"><ele>1044.8</ele><time>2017-06-15T11:28:55Z</time></trkpt>
<trkpt lat="46.1085" lon="7.00818"><ele>1044.8</ele><time>2017-06-15T11:28:56Z</time></trkpt>
<trkpt lat="46.10847" lon="7.00816"><ele>1044.6</ele><time>2017-06-15T11:28:57Z</time></trkpt>
<trkpt lat="46.10843" lon="7.00812"><ele>1044</ele><time>2017-06-15T11:28:59Z</time></trkpt>
<trkpt lat="46.10834" lon="7.00786"><ele>1041.2</ele><time>2017-06-15T11:29:02Z</time></trkpt>
<trkpt lat="46.10834" lon="7.00786"><ele>1041.2</ele><time>2017-06-15T11:29:52Z</time></trkpt>
<trkpt lat="46.10827" lon="7.00768"><ele>1038.8</ele><time>2017-06-15T11:29:53Z</time></trkpt>
<trkpt lat="46.1082" lon="7.00757"><ele>1038.6</ele><time>2017-06-15T11:29:55Z</time></trkpt>
<trkpt lat="46.1081" lon="7.00742"><ele>1038.4</ele><time>2017-06-15T11:29:57Z</time></trkpt>
<trkpt lat="46.10799" lon="7.00727"><ele>1038.2</ele><time>2017-06-15T11:29:59Z</time></trkpt>
<trkpt lat="46.10794" lon="7.00719"><ele>1038.2</ele><time>2017-06-15T11:30:00Z</time></trkpt>
<trkpt lat="46.10791" lon="7.00709"><ele>1038</ele><time>2017-06-15T11:30:01Z</time></trkpt>
<trkpt lat="46.10785" lon="7.00688"><ele>1037.8</ele><time>2017-06-15T11:30:03Z</time></trkpt>
<trkpt lat="46.10781" lon="7.00679"><ele>1037.8</ele><time>2017-06-15T11:30:04Z</time></trkpt>
<trkpt lat="46.10776" lon="7.00672"><ele>1037.6</ele><time>2017-06-15T11:30:05Z</time></trkpt>
<trkpt lat="46.10764" lon="7.00657"><ele>1037</ele><time>2017-06-15T11:30:07Z</time></trkpt>
<trkpt lat="46.1075" lon="7.00643"><ele>1036.6</ele><time>2017-06-15T11:30:09Z</time></trkpt>
<trkpt lat="46.10744" lon="7.00636"><ele>1036.4</ele><time>2017-06-15T11:30:10Z</time></trkpt>
<trkpt lat="46.10738" lon="7.00627"><ele>1036.2</ele><time>2017-06-15T11:30:11Z</time></trkpt>
<trkpt lat="46.10727" lon="7.00609"><ele>1035.8</ele><time>2017-06-15T11:30:13Z</time></trkpt>
<trkpt lat="46.10716" lon="7.00592"><ele>1035.2</ele><time>2017-06-15T11:30:15Z</time></trkpt>
<trkpt lat="46.10702" lon="7.00577"><ele>1034.8</ele><time>2017-06-15T11:30:17Z</time></trkpt>
<trkpt lat="46.10688" lon="7.00563"><ele>1034.4</ele><time>2017-06-15T11:30:19Z</time></trkpt>
<trkpt lat="46.10675" lon="7.00548"><ele>1034</ele><time>2017-06-15T11:30:21Z</time></trkpt>
<trkpt lat="46.10665" lon="7.00529"><ele>1033.6</ele><time>2017-06-15T11:30:23Z</time></trkpt>
<trkpt lat="46.10654" lon="7.0051"><ele>1033.2</ele><time>2017-06-15T11:30:25Z</time></trkpt>
<trkpt lat="46.10645" lon="7.00491"><ele>1032.8</ele><time>2017-06-15T11:30:27Z</time></trkpt>
<trkpt lat="46.10641" lon="7.00467"><ele>1032.2</ele><time>2017-06-15T11:30:29Z</time></trkpt>
<trkpt lat="46.10637" lon="7.00443"><ele>1031.8</ele><time>2017-06-15T11:30:31Z</time></trkpt>
<trkpt lat="46.10633" lon="7.0042"><ele>1031.4</ele><time>2017-06-15T11:30:33Z</time></trkpt>
<trkpt lat="46.10629" lon="7.00397"><ele>1031</ele><time>2017-06-15T11:30:35Z</time></trkpt>
<trkpt lat="46.10626" lon="7.00386"><ele>1030.8</ele><time>2017-06-15T11:30:36Z</time></trkpt>
<trkpt lat="46.10621" lon="7.00376"><ele>1030.6</ele><time>2017-06-15T11:30:37Z</time></trkpt>
<trkpt lat="46.10612" lon="7.00355"><ele>1030</ele><time>2017-06-15T11:30:39Z</time></trkpt>
<trkpt lat="46.10599" lon="7.00336"><ele>1029.2</ele><time>2017-06-15T11:30:41Z</time></trkpt>
<trkpt lat="46.10586" lon="7.00317"><ele>1028.6</ele><time>2017-06-15T11:30:43Z</time></trkpt>
<trkpt lat="46.10579" lon="7.00308"><ele>1028.2</ele><time>2017-06-15T11:30:44Z</time></trkpt>
<trkpt lat="46.10572" lon="7.00299"><ele>1027.8</ele><time>2017-06-15T11:30:45Z</time></trkpt>
<trkpt lat="46.10558" lon="7.00281"><ele>1027.2</ele><time>2017-06-15T11:30:47Z</time></trkpt>
<trkpt lat="46.1055" lon="7.00275"><ele>1026.8</ele><time>2017-06-15T11:30:48Z</time></trkpt>
<trkpt lat="46.10541" lon="7.00268"><ele>1026.4</ele><time>2017-06-15T11:30:49Z</time></trkpt>
<trkpt lat="46.10525" lon="7.00254"><ele>1025.4</ele><time>2017-06-15T11:30:51Z</time></trkpt>
<trkpt lat="46.10517" lon="7.00248"><ele>1025</ele><time>2017-06-15T11:30:52Z</time></trkpt>
<trkpt lat="46.10508" lon="7.00243"><ele>1024.6</ele><time>2017-06-15T11:30:53Z</time></trkpt>
<trkpt lat="46.1049" lon="7.00232"><ele>1023.8</ele><time>2017-06-15T11:30:55Z</time></trkpt>
<trkpt lat="46.10472" lon="7.00221"><ele>1023</ele><time>2017-06-15T11:30:57Z</time></trkpt>
<trkpt lat="46.10463" lon="7.00217"><ele>1022.6</ele><time>2017-06-15T11:30:58Z</time></trkpt>
<trkpt lat="46.10454" lon="7.00212"><ele>1022.2</ele><time>2017-06-15T11:30:59Z</time></trkpt>
<trkpt lat="46.10445" lon="7.00207"><ele>1021.8</ele><time>2017-06-15T11:31:00Z</time></trkpt>
<trkpt lat="46.10438" lon="7.002"><ele>1021.2</ele><time>2017-06-15T11:31:01Z</time></trkpt>
<trkpt lat="46.10423" lon="7.00188"><ele>1020.4</ele><time>2017-06-15T11:31:03Z</time></trkpt>
<trkpt lat="46.10409" lon="7.00175"><ele>1019.6</ele><time>2017-06-15T11:31:05Z</time></trkpt>
<trkpt lat="46.10394" lon="7.00164"><ele>1018.8</ele><time>2017-06-15T11:31:07Z</time></trkpt>
<trkpt lat="46.1038" lon="7.00152"><ele>1018</ele><time>2017-06-15T11:31:09Z</time></trkpt>
<trkpt lat="46.10373" lon="7.00136"><ele>1017.4</ele><time>2017-06-15T11:31:11Z</time></trkpt>
<trkpt lat="46.10368" lon="7.00119"><ele>1016.6</ele><time>2017-06-15T11:31:13Z</time></trkpt>
<trkpt lat="46.10367" lon="7.001"><ele>1016</ele><time>2017-06-15T11:31:15Z</time></trkpt>
<trkpt lat="46.10372" lon="7.00081"><ele>1015.4</ele><time>2017-06-15T11:31:17Z</time></trkpt>
<trkpt lat="46.10378" lon="7.00061"><ele>1014.6</ele><time>2017-06-15T11:31:19Z</time></trkpt>
<trkpt lat="46.10383" lon="7.00041"><ele>1014</ele><time>2017-06-15T11:31:21Z</time></trkpt>
<trkpt lat="46.10386" lon="7.00031"><ele>1014</ele><time>2017-06-15T11:31:22Z</time></trkpt>
<trkpt lat="46.10391" lon="7.00022"><ele>1014</ele><time>2017-06-15T11:31:23Z</time></trkpt>
<trkpt lat="46.10397" lon="7.00014"><ele>1013.8</ele><time>2017-06-15T11:31:24Z</time></trkpt>
<trkpt lat="46.10403" lon="7.00012"><ele>1013.8</ele><time>2017-06-15T11:31:25Z</time></trkpt>
<trkpt lat="46.10412" lon="6.99996"><ele>1013.6</ele><time>2017-06-15T11:31:27Z</time></trkpt>
<trkpt lat="46.10419" lon="6.99979"><ele>1013.4</ele><time>2017-06-15T11:31:29Z</time></trkpt>
<trkpt lat="46.10421" lon="6.99967"><ele>1013.4</ele><time>2017-06-15T11:31:30Z</time></trkpt>
<trkpt lat="46.10425" lon="6.99958"><ele>1013.4</ele><time>2017-06-15T11:31:31Z</time></trkpt>
<trkpt lat="46.10424" lon="6.99949"><ele>1013.2</ele><time>2017-06-15T11:31:32Z</time></trkpt>
<trkpt lat="46.10421" lon="6.99939"><ele>1013.2</ele><time>2017-06-15T11:31:33Z</time></trkpt>
<trkpt lat="46.10412" lon="6.99916"><ele>1013</ele><time>2017-06-15T11:31:35Z</time></trkpt>
<trkpt lat="46.10406" lon="6.99895"><ele>1012.8</ele><time>2017-06-15T11:31:37Z</time></trkpt>
<trkpt lat="46.10395" lon="6.99875"><ele>1012.6</ele><time>2017-06-15T11:31:39Z</time></trkpt>
<trkpt lat="46.1039" lon="6.9986"><ele>1012.4</ele><time>2017-06-15T11:31:41Z</time></trkpt>
<trkpt lat="46.10387" lon="6.99853"><ele>1012.4</ele><time>2017-06-15T11:31:42Z</time></trkpt>
<trkpt lat="46.10383" lon="6.99848"><ele>1012.2</ele><time>2017-06-15T11:31:43Z</time></trkpt>
<trkpt lat="46.10379" lon="6.99844"><ele>1012.2</ele><time>2017-06-15T11:31:44Z</time></trkpt>
<trkpt lat="46.10376" lon="6.99841"><ele>1012.4</ele><time>2017-06-15T11:31:45Z</time></trkpt>
<trkpt lat="46.10372" lon="6.99841"><ele>1012.4</ele><time>2017-06-15T11:31:46Z</time></trkpt>
<trkpt lat="46.10369" lon="6.99845"><ele>1012.4</ele><time>2017-06-15T11:31:47Z</time></trkpt>
<trkpt lat="46.10361" lon="6.99851"><ele>1012.4</ele><time>2017-06-15T11:31:49Z</time></trkpt>
<trkpt lat="46.10354" lon="6.99857"><ele>1012.4</ele><time>2017-06-15T11:31:51Z</time></trkpt>
<trkpt lat="46.1035" lon="6.99861"><ele>1012.4</ele><time>2017-06-15T11:31:52Z</time></trkpt>
<trkpt lat="46.10346" lon="6.99867"><ele>1012.4</ele><time>2017-06-15T11:31:53Z</time></trkpt>
<trkpt lat="46.10338" lon="6.99879"><ele>1012.6</ele><time>2017-06-15T11:31:55Z</time></trkpt>
<trkpt lat="46.10334" lon="6.99885"><ele>1012.6</ele><time>2017-06-15T11:31:56Z</time></trkpt>
<trkpt lat="46.10329" lon="6.99888"><ele>1012.6</ele><time>2017-06-15T11:31:57Z</time></trkpt>
<trkpt lat="46.10319" lon="6.99896"><ele>1012.6</ele><time>2017-06-15T11:31:59Z</time></trkpt>
<trkpt lat="46.1031" lon="6.99904"><ele>1012.6</ele><time>2017-06-15T11:32:01Z</time></trkpt>
<trkpt lat="46.10304" lon="6.99917"><ele>1012.6</ele><time>2017-06-15T11:32:03Z</time></trkpt>
<trkpt lat="46.10299" lon="6.99929"><ele>1012.6</ele><time>2017-06-15T11:32:05Z</time></trkpt>
<trkpt lat="46.10287" lon="6.99937"><ele>1012.8</ele><time>2017-06-15T11:32:07Z</time></trkpt>
<trkpt lat="46.10275" lon="6.99938"><ele>1012.8</ele><time>2017-06-15T11:32:09Z</time></trkpt>
<trkpt lat="46.10264" lon="6.99939"><ele>1012.8</ele><time>2017-06-15T11:32:11Z</time></trkpt>
<trkpt lat="46.10258" lon="6.99937"><ele>1012.8</ele><time>2017-06-15T11:32:12Z</time></trkpt>
<trkpt lat="46.10253" lon="6.99934"><ele>1012.8</ele><time>2017-06-15T11:32:13Z</time></trkpt>
<trkpt lat="46.1024" lon="6.9993"><ele>1012.8</ele><time>2017-06-15T11:32:15Z</time></trkpt>
<trkpt lat="46.10235" lon="6.99926"><ele>1012.8</ele><time>2017-06-15T11:32:16Z</time></trkpt>
<trkpt lat="46.10231" lon="6.9992"><ele>1013</ele><time>2017-06-15T11:32:17Z</time></trkpt>
<trkpt lat="46.10223" lon="6.99909"><ele>1013</ele><time>2017-06-15T11:32:19Z</time></trkpt>
<trkpt lat="46.10214" lon="6.99897"><ele>1013</ele><time>2017-06-15T11:32:21Z</time></trkpt>
<trkpt lat="46.10206" lon="6.99885"><ele>1013</ele><time>2017-06-15T11:32:23Z</time></trkpt>
<trkpt lat="46.10203" lon="6.99879"><ele>1013</ele><time>2017-06-15T11:32:24Z</time></trkpt>
<trkpt lat="46.10201" lon="6.99872"><ele>1013</ele><time>2017-06-15T11:32:25Z</time></trkpt>
<trkpt lat="46.102" lon="6.99865"><ele>1013</ele><time>2017-06-15T11:32:26Z</time></trkpt>
<trkpt lat="46.10201" lon="6.99857"><ele>1013.2</ele><time>2017-06-15T11:32:27Z</time></trkpt>
<trkpt lat="46.10203" lon="6.99843"><ele>1013.2</ele><time>2017-06-15T11:32:29Z</time></trkpt>
<trkpt lat="46.10203" lon="6.99836"><ele>1013.2</ele><time>2017-06-15T11:32:30Z</time></trkpt>
<trkpt lat="46.102" lon="6.99831"><ele>1013.2</ele><time>2017-06-15T11:32:31Z</time></trkpt>
<trkpt lat="46.10194" lon="6.99821"><ele>1013.2</ele><time>2017-06-15T11:32:33Z</time></trkpt>
<trkpt lat="46.10188" lon="6.99812"><ele>1013.2</ele><time>2017-06-15T11:32:35Z</time></trkpt>
<trkpt lat="46.1018" lon="6.99806"><ele>1013.2</ele><time>2017-06-15T11:32:37Z</time></trkpt>
<trkpt lat="46.10173" lon="6.998"><ele>1013.4</ele><time>2017-06-15T11:32:39Z</time></trkpt>
<trkpt lat="46.10165" lon="6.99794"><ele>1013.4</ele><time>2017-06-15T11:32:41Z</time></trkpt>
<trkpt lat="46.10158" lon="6.99788"><ele>1013.4</ele><time>2017-06-15T11:32:43Z</time></trkpt>
<trkpt lat="46.10151" lon="6.99782"><ele>1013.4</ele><time>2017-06-15T11:32:45Z</time></trkpt>
<trkpt lat="46.10147" lon="6.99779"><ele>1013.6</ele><time>2017-06-15T11:32:46Z</time></trkpt>
<trkpt lat="46.10145" lon="6.99777"><ele>1013.8</ele><time>2017-06-15T11:32:47Z</time></trkpt>
<trkpt lat="46.1014" lon="6.99772"><ele>1014.2</ele><time>2017-06-15T11:32:49Z</time></trkpt>
<trkpt lat="46.10135" lon="6.99768"><ele>1014.4</ele><time>2017-06-15T11:32:51Z</time></trkpt>
<trkpt lat="46.1013" lon="6.99763"><ele>1014.8</ele><time>2017-06-15T11:32:53Z</time></trkpt>
<trkpt lat="46.10125" lon="6.99759"><ele>1015.2</ele><time>2017-06-15T11:32:55Z</time></trkpt>
<trkpt lat="46.1012" lon="6.99754"><ele>1015.6</ele><time>2017-06-15T11:32:57Z</time></trkpt>
<trkpt lat="46.10115" lon="6.9975"><ele>1016</ele><time>2017-06-15T11:32:59Z</time></trkpt>
<trkpt lat="46.1011" lon="6.99745"><ele>1016.4</ele><time>2017-06-15T11:33:01Z</time></trkpt>
<trkpt lat="46.10107" lon="6.99743"><ele>1016.6</ele><time>2017-06-15T11:33:02Z</time></trkpt>
<trkpt lat="46.10105" lon="6.9974"><ele>1016.8</ele><time>2017-06-15T11:33:03Z</time></trkpt>
<trkpt lat="46.10101" lon="6.99734"><ele>1017</ele><time>2017-06-15T11:33:05Z</time></trkpt>
<trkpt lat="46.10096" lon="6.99728"><ele>1017.4</ele><time>2017-06-15T11:33:07Z</time></trkpt>
<trkpt lat="46.10092" lon="6.99722"><ele>1017.6</ele><time>2017-06-15T11:33:09Z</time></trkpt>
<trkpt lat="46.10087" lon="6.99716"><ele>1017.8</ele><time>2017-06-15T11:33:11Z</time></trkpt>
<trkpt lat="46.10083" lon="6.99711"><ele>1018.2</ele><time>2017-06-15T11:33:13Z</time></trkpt>
<trkpt lat="46.10078" lon="6.99705"><ele>1018.4</ele><time>2017-06-15T11:33:15Z</time></trkpt>
<trkpt lat="46.10074" lon="6.99699"><ele>1018.8</ele><time>2017-06-15T11:33:17Z</time></trkpt>
<trkpt lat="46.10069" lon="6.99694"><ele>1019</ele><time>2017-06-15T11:33:19Z</time></trkpt>
<trkpt lat="46.10065" lon="6.99689"><ele>1019.2</ele><time>2017-06-15T11:33:21Z</time></trkpt>
<trkpt lat="46.10061" lon="6.99684"><ele>1019.6</ele><time>2017-06-15T11:33:23Z</time></trkpt>
<trkpt lat="46.10057" lon="6.99679"><ele>1019.8</ele><time>2017-06-15T11:33:25Z</time></trkpt>
<trkpt lat="46.10052" lon="6.99674"><ele>1020.2</ele><time>2017-06-15T11:33:27Z</time></trkpt>
<trkpt lat="46.10048" lon="6.99669"><ele>1020.4</ele><time>2017-06-15T11:33:29Z</time></trkpt>
<trkpt lat="46.10044" lon="6.99664"><ele>1020.8</ele><time>2017-06-15T11:33:31Z</time></trkpt>
<trkpt lat="46.1004" lon="6.99659"><ele>1021</ele><time>2017-06-15T11:33:33Z</time></trkpt>
<trkpt lat="46.10038" lon="6.99657"><ele>1021.2</ele><time>2017-06-15T11:33:34Z</time></trkpt>
<trkpt lat="46.10035" lon="6.99654"><ele>1021.4</ele><time>2017-06-15T11:33:35Z</time></trkpt>
<trkpt lat="46.10031" lon="6.99649"><ele>1021.6</ele><time>2017-06-15T11:33:37Z</time></trkpt>
<trkpt lat="46.10027" lon="6.99643"><ele>1021.8</ele><time>2017-06-15T11:33:39Z</time></trkpt>
<trkpt lat="46.10023" lon="6.99638"><ele>1022.2</ele><time>2017-06-15T11:33:41Z</time></trkpt>
<trkpt lat="46.10018" lon="6.99633"><ele>1022.4</ele><time>2017-06-15T11:33:43Z</time></trkpt>
<trkpt lat="46.10014" lon="6.99627"><ele>1022.8</ele><time>2017-06-15T11:33:45Z</time></trkpt>
<trkpt lat="46.1001" lon="6.99622"><ele>1023</ele><time>2017-06-15T11:33:47Z</time></trkpt>
<trkpt lat="46.10006" lon="6.99617"><ele>1023.4</ele><time>2017-06-15T11:33:49Z</time></trkpt>
<trkpt lat="46.10003" lon="6.99615"><ele>1023.4</ele><time>2017-06-15T11:33:50Z</time></trkpt>
<trkpt lat="46.1" lon="6.99614"><ele>1023.6</ele><time>2017-06-15T11:33:51Z</time></trkpt>
<trkpt lat="46.09994" lon="6.99612"><ele>1023.8</ele><time>2017-06-15T11:33:53Z</time></trkpt>
<trkpt lat="46.09989" lon="6.99611"><ele>1024</ele><time>2017-06-15T11:33:55Z</time></trkpt>
<trkpt lat="46.09983" lon="6.99609"><ele>1024.2</ele><time>2017-06-15T11:33:57Z</time></trkpt>
<trkpt lat="46.09977" lon="6.99607"><ele>1024.4</ele><time>2017-06-15T11:33:59Z</time></trkpt>
<trkpt lat="46.09972" lon="6.99605"><ele>1024.8</ele><time>2017-06-15T11:34:01Z</time></trkpt>
<trkpt lat="46.09968" lon="6.99599"><ele>1025</ele><time>2017-06-15T11:34:03Z</time></trkpt>
<trkpt lat="46.09965" lon="6.99592"><ele>1025.2</ele><time>2017-06-15T11:34:05Z</time></trkpt>
<trkpt lat="46.09962" lon="6.99586"><ele>1025.4</ele><time>2017-06-15T11:34:07Z</time></trkpt>
<trkpt lat="46.09959" lon="6.9958"><ele>1025.8</ele><time>2017-06-15T11:34:09Z</time></trkpt>
<trkpt lat="46.09956" lon="6.99574"><ele>1026</ele><time>2017-06-15T11:34:11Z</time></trkpt>
<trkpt lat="46.09953" lon="6.99567"><ele>1026.2</ele><time>2017-06-15T11:34:13Z</time></trkpt>
<trkpt lat="46.0995" lon="6.99561"><ele>1026.6</ele><time>2017-06-15T11:34:15Z</time></trkpt>
<trkpt lat="46.09947" lon="6.99555"><ele>1026.8</ele><time>2017-06-15T11:34:17Z</time></trkpt>
<trkpt lat="46.09945" lon="6.99552"><ele>1026.8</ele><time>2017-06-15T11:34:18Z</time></trkpt>
<trkpt lat="46.09944" lon="6.9955"><ele>1027</ele><time>2017-06-15T11:34:19Z</time></trkpt>
<trkpt lat="46.0994" lon="6.99546"><ele>1027.2</ele><time>2017-06-15T11:34:21Z</time></trkpt>
<trkpt lat="46.09937" lon="6.99543"><ele>1027.4</ele><time>2017-06-15T11:34:23Z</time></trkpt>
<trkpt lat="46.09933" lon="6.99539"><ele>1027.8</ele><time>2017-06-15T11:34:25Z</time></trkpt>
<trkpt lat="46.0993" lon="6.99535"><ele>1028</ele><time>2017-06-15T11:34:27Z</time></trkpt>
<trkpt lat="46.09926" lon="6.99532"><ele>1028.2</ele><time>2017-06-15T11:34:29Z</time></trkpt>
<trkpt lat="46.09923" lon="6.99528"><ele>1028.4</ele><time>2017-06-15T11:34:31Z</time></trkpt>
<trkpt lat="46.09919" lon="6.99524"><ele>1028.6</ele><time>2017-06-15T11:34:33Z</time></trkpt>
<trkpt lat="46.09915" lon="6.99521"><ele>1029</ele><time>2017-06-15T11:34:35Z</time></trkpt>
<trkpt lat="46.09912" lon="6.99517"><ele>1029.2</ele><time>2017-06-15T11:34:37Z</time></trkpt>
<trkpt lat="46.09908" lon="6.99513"><ele>1029.4</ele><time>2017-06-15T11:34:39Z</time></trkpt>
<trkpt lat="46.09905" lon="6.9951"><ele>1029.8</ele><time>2017-06-15T11:34:41Z</time></trkpt>
<trkpt lat="46.09901" lon="6.99506"><ele>1030.2</ele><time>2017-06-15T11:34:43Z</time></trkpt>
<trkpt lat="46.09897" lon="6.99502"><ele>1030.4</ele><time>2017-06-15T11:34:45Z</time></trkpt>
<trkpt lat="46.09893" lon="6.99499"><ele>1030.8</ele><time>2017-06-15T11:34:47Z</time></trkpt>
<trkpt lat="46.09889" lon="6.99495"><ele>1031.2</ele><time>2017-06-15T11:34:49Z</time></trkpt>
<trkpt lat="46.09887" lon="6.99493"><ele>1031.4</ele><time>2017-06-15T11:34:50Z</time></trkpt>
<trkpt lat="46.09885" lon="6.99491"><ele>1031.4</ele><time>2017-06-15T11:34:51Z</time></trkpt>
<trkpt lat="46.09881" lon="6.99488"><ele>1031.8</ele><time>2017-06-15T11:34:53Z</time></trkpt>
<trkpt lat="46.09878" lon="6.99484"><ele>1032</ele><time>2017-06-15T11:34:55Z</time></trkpt>
<trkpt lat="46.09874" lon="6.9948"><ele>1032.4</ele><time>2017-06-15T11:34:57Z</time></trkpt>
<trkpt lat="46.0987" lon="6.99477"><ele>1032.6</ele><time>2017-06-15T11:34:59Z</time></trkpt>
<trkpt lat="46.09867" lon="6.99473"><ele>1032.8</ele><time>2017-06-15T11:35:01Z</time></trkpt>
<trkpt lat="46.09864" lon="6.9947"><ele>1033.2</ele><time>2017-06-15T11:35:03Z</time></trkpt>
<trkpt lat="46.0986" lon="6.99466"><ele>1033.4</ele><time>2017-06-15T11:35:05Z</time></trkpt>
<trkpt lat="46.09857" lon="6.99463"><ele>1033.8</ele><time>2017-06-15T11:35:07Z</time></trkpt>
<trkpt lat="46.09854" lon="6.99459"><ele>1034</ele><time>2017-06-15T11:35:09Z</time></trkpt>
<trkpt lat="46.09851" lon="6.99456"><ele>1034.2</ele><time>2017-06-15T11:35:11Z</time></trkpt>
<trkpt lat="46.09848" lon="6.99452"><ele>1034.6</ele><time>2017-06-15T11:35:13Z</time></trkpt>
<trkpt lat="46.09845" lon="6.99449"><ele>1034.8</ele><time>2017-06-15T11:35:15Z</time></trkpt>
<trkpt lat="46.09843" lon="6.99447"><ele>1035</ele><time>2017-06-15T11:35:16Z</time></trkpt>
<trkpt lat="46.09841" lon="6.99445"><ele>1035.2</ele><time>2017-06-15T11:35:17Z</time></trkpt>
<trkpt lat="46.09838" lon="6.99441"><ele>1035.4</ele><time>2017-06-15T11:35:19Z</time></trkpt>
<trkpt lat="46.09835" lon="6.99438"><ele>1035.6</ele><time>2017-06-15T11:35:21Z</time></trkpt>
<trkpt lat="46.09833" lon="6.99436"><ele>1035.8</ele><time>2017-06-15T11:35:22Z</time></trkpt>
<trkpt lat="46.09832" lon="6.99435"><ele>1036</ele><time>2017-06-15T11:35:23Z</time></trkpt>
<trkpt lat="46.09829" lon="6.99432"><ele>1036.2</ele><time>2017-06-15T11:35:25Z</time></trkpt>
<trkpt lat="46.09826" lon="6.99428"><ele>1036.4</ele><time>2017-06-15T11:35:27Z</time></trkpt>
<trkpt lat="46.09823" lon="6.99425"><ele>1036.8</ele><time>2017-06-15T11:35:29Z</time></trkpt>
<trkpt lat="46.0982" lon="6.99422"><ele>1037</ele><time>2017-06-15T11:35:31Z</time></trkpt>
<trkpt lat="46.09817" lon="6.99419"><ele>1037.2</ele><time>2017-06-15T11:35:33Z</time></trkpt>
<trkpt lat="46.09814" lon="6.99416"><ele>1037.4</ele><time>2017-06-15T11:35:35Z</time></trkpt>
<trkpt lat="46.09811" lon="6.99413"><ele>1037.8</ele><time>2017-06-15T11:35:37Z</time></trkpt>
<trkpt lat="46.09808" lon="6.9941"><ele>1038</ele><time>2017-06-15T11:35:39Z</time></trkpt>
<trkpt lat="46.09805" lon="6.99407"><ele>1038.2</ele><time>2017-06-15T11:35:41Z</time></trkpt>
<trkpt lat="46.09802" lon="6.99404"><ele>1038.4</ele><time>2017-06-15T11:35:43Z</time></trkpt>
<trkpt lat="46.09799" lon="6.99401"><ele>1038.6</ele><time>2017-06-15T11:35:45Z</time></trkpt>
<trkpt lat="46.09796" lon="6.99397"><ele>1038.8</ele><time>2017-06-15T11:35:47Z</time></trkpt>
<trkpt lat="46.09793" lon="6.99394"><ele>1039</ele><time>2017-06-15T11:35:49Z</time></trkpt>
<trkpt lat="46.0979" lon="6.99391"><ele>1039.4</ele><time>2017-06-15T11:35:51Z</time></trkpt>
<trkpt lat="46.09787" lon="6.99388"><ele>1039.6</ele><time>2017-06-15T11:35:53Z</time></trkpt>
<trkpt lat="46.09784" lon="6.99385"><ele>1039.8</ele><time>2017-06-15T11:35:55Z</time></trkpt>
<trkpt lat="46.09781" lon="6.99382"><ele>1040</ele><time>2017-06-15T11:35:57Z</time></trkpt>
<trkpt lat="46.09778" lon="6.99379"><ele>1040.4</ele><time>2017-06-15T11:35:59Z</time></trkpt>
<trkpt lat="46.09775" lon="6.99376"><ele>1040.6</ele><time>2017-06-15T11:36:01Z</time></trkpt>
<trkpt lat="46.09772" lon="6.99373"><ele>1040.8</ele><time>2017-06-15T11:36:03Z</time></trkpt>
<trkpt lat="46.09769" lon="6.9937"><ele>1041.2</ele><time>2017-06-15T11:36:05Z</time></trkpt>
<trkpt lat="46.09766" lon="6.99367"><ele>1041.4</ele><time>2017-06-15T11:36:07Z</time></trkpt>
<trkpt lat="46.09763" lon="6.99363"><ele>1041.6</ele><time>2017-06-15T11:36:09Z</time></trkpt>
<trkpt lat="46.09759" lon="6.99361"><ele>1041.8</ele><time>2017-06-15T11:36:11Z</time></trkpt>
<trkpt lat="46.09756" lon="6.99358"><ele>1042.2</ele><time>2017-06-15T11:36:13Z</time></trkpt>
<trkpt lat="46.09753" lon="6.99356"><ele>1042.4</ele><time>2017-06-15T11:36:15Z</time></trkpt>
<trkpt lat="46.09749" lon="6.99354"><ele>1042.6</ele><time>2017-06-15T11:36:17Z</time></trkpt>
<trkpt lat="46.09746" lon="6.99352"><ele>1042.8</ele><time>2017-06-15T11:36:19Z</time></trkpt>
<trkpt lat="46.09743" lon="6.9935"><ele>1043.2</ele><time>2017-06-15T11:36:21Z</time></trkpt>
<trkpt lat="46.0974" lon="6.99348"><ele>1043.4</ele><time>2017-06-15T11:36:23Z</time></trkpt>
<trkpt lat="46.09736" lon="6.99346"><ele>1043.6</ele><time>2017-06-15T11:36:25Z</time></trkpt>
<trkpt lat="46.09733" lon="6.99343"><ele>1044</ele><time>2017-06-15T11:36:27Z</time></trkpt>
<trkpt lat="46.0973" lon="6.99341"><ele>1044.2</ele><time>2017-06-15T11:36:29Z</time></trkpt>
<trkpt lat="46.09726" lon="6.99339"><ele>1044.4</ele><time>2017-06-15T11:36:31Z</time></trkpt>
<trkpt lat="46.09723" lon="6.99337"><ele>1044.6</ele><time>2017-06-15T11:36:33Z</time></trkpt>
<trkpt lat="46.0972" lon="6.99335"><ele>1045</ele><time>2017-06-15T11:36:35Z</time></trkpt>
<trkpt lat="46.09718" lon="6.99334"><ele>1045</ele><time>2017-06-15T11:36:36Z</time></trkpt>
<trkpt lat="46.09716" lon="6.99333"><ele>1045.2</ele><time>2017-06-15T11:36:37Z</time></trkpt>
<trkpt lat="46.09713" lon="6.9933"><ele>1045.4</ele><time>2017-06-15T11:36:39Z</time></trkpt>
<trkpt lat="46.0971" lon="6.99328"><ele>1045.8</ele><time>2017-06-15T11:36:41Z</time></trkpt>
<trkpt lat="46.09707" lon="6.99326"><ele>1046</ele><time>2017-06-15T11:36:43Z</time></trkpt>
<trkpt lat="46.09704" lon="6.99324"><ele>1046.4</ele><time>2017-06-15T11:36:45Z</time></trkpt>
<trkpt lat="46.09701" lon="6.99321"><ele>1046.8</ele><time>2017-06-15T11:36:47Z</time></trkpt>
<trkpt lat="46.09698" lon="6.99319"><ele>1047</ele><time>2017-06-15T11:36:49Z</time></trkpt>
<trkpt lat="46.09694" lon="6.99317"><ele>1047.4</ele><time>2017-06-15T11:36:51Z</time></trkpt>
<trkpt lat="46.09691" lon="6.99315"><ele>1047.8</ele><time>2017-06-15T11:36:53Z</time></trkpt>
<trkpt lat="46.09688" lon="6.99313"><ele>1048</ele><time>2017-06-15T11:36:55Z</time></trkpt>
<trkpt lat="46.09685" lon="6.9931"><ele>1048.4</ele><time>2017-06-15T11:36:57Z</time></trkpt>
<trkpt lat="46.09682" lon="6.99308"><ele>1048.6</ele><time>2017-06-15T11:36:59Z</time></trkpt>
<trkpt lat="46.09679" lon="6.99306"><ele>1049</ele><time>2017-06-15T11:37:01Z</time></trkpt>
<trkpt lat="46.09677" lon="6.99305"><ele>1049.2</ele><time>2017-06-15T11:37:02Z</time></trkpt>
<trkpt lat="46.09676" lon="6.99304"><ele>1049.4</ele><time>2017-06-15T11:37:03Z</time></trkpt>
<trkpt lat="46.09674" lon="6.99303"><ele>1049.6</ele><time>2017-06-15T11:37:05Z</time></trkpt>
<trkpt lat="46.09671" lon="6.99302"><ele>1049.8</ele><time>2017-06-15T11:37:07Z</time></trkpt>
<trkpt lat="46.09669" lon="6.99301"><ele>1050.2</ele><time>2017-06-15T11:37:09Z</time></trkpt>
<trkpt lat="46.09666" lon="6.993"><ele>1050.4</ele><time>2017-06-15T11:37:11Z</time></trkpt>
<trkpt lat="46.09664" lon="6.99299"><ele>1050.6</ele><time>2017-06-15T11:37:13Z</time></trkpt>
<trkpt lat="46.09661" lon="6.99297"><ele>1051</ele><time>2017-06-15T11:37:15Z</time></trkpt>
<trkpt lat="46.09658" lon="6.99296"><ele>1051.2</ele><time>2017-06-15T11:37:17Z</time></trkpt>
<trkpt lat="46.09656" lon="6.99295"><ele>1051.4</ele><time>2017-06-15T11:37:19Z</time></trkpt>
<trkpt lat="46.09653" lon="6.99294"><ele>1051.8</ele><time>2017-06-15T11:37:21Z</time></trkpt>
<trkpt lat="46.09651" lon="6.99293"><ele>1052</ele><time>2017-06-15T11:37:23Z</time></trkpt>
<trkpt lat="46.09648" lon="6.99292"><ele>1052.4</ele><time>2017-06-15T11:37:25Z</time></trkpt>
<trkpt lat="46.09646" lon="6.99291"><ele>1052.6</ele><time>2017-06-15T11:37:27Z</time></trkpt>
<trkpt lat="46.09643" lon="6.99289"><ele>1052.8</ele><time>2017-06-15T11:37:29Z</time></trkpt>
<trkpt lat="46.09641" lon="6.99288"><ele>1053.2</ele><time>2017-06-15T11:37:31Z</time></trkpt>
<trkpt lat="46.09638" lon="6.99287"><ele>1053.4</ele><time>2017-06-15T11:37:33Z</time></trkpt>
<trkpt lat="46.09636" lon="6.99286"><ele>1053.8</ele><time>2017-06-15T11:37:35Z</time></trkpt>
<trkpt lat="46.09633" lon="6.99285"><ele>1054</ele><time>2017-06-15T11:37:37Z</time></trkpt>
<trkpt lat="46.09631" lon="6.99285"><ele>1054.2</ele><time>2017-06-15T11:37:39Z</time></trkpt>
<trkpt lat="46.09629" lon="6.99284"><ele>1054.6</ele><time>2017-06-15T11:37:41Z</time></trkpt>
<trkpt lat="46.09626" lon="6.99284"><ele>1054.8</ele><time>2017-06-15T11:37:43Z</time></trkpt>
<trkpt lat="46.09624" lon="6.99283"><ele>1055.2</ele><time>2017-06-15T11:37:45Z</time></trkpt>
<trkpt lat="46.09622" lon="6.99283"><ele>1055.4</ele><time>2017-06-15T11:37:47Z</time></trkpt>
<trkpt lat="46.09621" lon="6.99283"><ele>1055.6</ele><time>2017-06-15T11:37:48Z</time></trkpt>
<trkpt lat="46.0962" lon="6.99283"><ele>1055.6</ele><time>2017-06-15T11:37:49Z</time></trkpt>
<trkpt lat="46.09617" lon="6.99282"><ele>1056</ele><time>2017-06-15T11:37:51Z</time></trkpt>
<trkpt lat="46.09615" lon="6.99282"><ele>1056.2</ele><time>2017-06-15T11:37:53Z</time></trkpt>
<trkpt lat="46.09613" lon="6.99281"><ele>1056.6</ele><time>2017-06-15T11:37:55Z</time></trkpt>
<trkpt lat="46.09611" lon="6.99281"><ele>1056.8</ele><time>2017-06-15T11:37:57Z</time></trkpt>
<trkpt lat="46.09608" lon="6.99281"><ele>1057.2</ele><time>2017-06-15T11:37:59Z</time></trkpt>
<trkpt lat="46.09606" lon="6.9928"><ele>1057.4</ele><time>2017-06-15T11:38:01Z</time></trkpt>
<trkpt lat="46.09604" lon="6.9928"><ele>1057.6</ele><time>2017-06-15T11:38:03Z</time></trkpt>
<trkpt lat="46.09601" lon="6.99279"><ele>1058</ele><time>2017-06-15T11:38:05Z</time></trkpt>
<trkpt lat="46.09599" lon="6.99279"><ele>1058.2</ele><time>2017-06-15T11:38:07Z</time></trkpt>
<trkpt lat="46.09597" lon="6.99279"><ele>1058.6</ele><time>2017-06-15T11:38:09Z</time></trkpt>
<trkpt lat="46.09596" lon="6.99278"><ele>1058.6</ele><time>2017-06-15T11:38:10Z</time></trkpt>
<trkpt lat="46.09595" lon="6.99278"><ele>1058.8</ele><time>2017-06-15T11:38:11Z</time></trkpt>
<trkpt lat="46.09592" lon="6.99278"><ele>1059.2</ele><time>2017-06-15T11:38:13Z</time></trkpt>
<trkpt lat="46.0959" lon="6.99277"><ele>1059.4</ele><time>2017-06-15T11:38:15Z</time></trkpt>
<trkpt lat="46.09588" lon="6.99277"><ele>1059.6</ele><time>2017-06-15T11:38:17Z</time></trkpt>
<trkpt lat="46.09585" lon="6.99278"><ele>1060</ele><time>2017-06-15T11:38:19Z</time></trkpt>
<trkpt lat="46.09582" lon="6.99278"><ele>1060.2</ele><time>2017-06-15T11:38:21Z</time></trkpt>
<trkpt lat="46.09579" lon="6.99279"><ele>1060.6</ele><time>2017-06-15T11:38:23Z</time></trkpt>
<trkpt lat="46.09576" lon="6.9928"><ele>1060.8</ele><time>2017-06-15T11:38:25Z</time></trkpt>
<trkpt lat="46.09573" lon="6.9928"><ele>1061.2</ele><time>2017-06-15T11:38:27Z</time></trkpt>
<trkpt lat="46.0957" lon="6.99281"><ele>1061.4</ele><time>2017-06-15T11:38:29Z</time></trkpt>
<trkpt lat="46.09567" lon="6.99282"><ele>1061.8</ele><time>2017-06-15T11:38:31Z</time></trkpt>
<trkpt lat="46.09565" lon="6.99282"><ele>1062</ele><time>2017-06-15T11:38:33Z</time></trkpt>
<trkpt lat="46.09562" lon="6.99283"><ele>1062.2</ele><time>2017-06-15T11:38:35Z</time></trkpt>
<trkpt lat="46.09559" lon="6.99283"><ele>1062.6</ele><time>2017-06-15T11:38:37Z</time></trkpt>
<trkpt lat="46.09556" lon="6.99284"><ele>1062.8</ele><time>2017-06-15T11:38:39Z</time></trkpt>
<trkpt lat="46.09553" lon="6.99285"><ele>1063.2</ele><time>2017-06-15T11:38:41Z</time></trkpt>
<trkpt lat="46.0955" lon="6.99285"><ele>1063.4</ele><time>2017-06-15T11:38:43Z</time></trkpt>
<trkpt lat="46.09547" lon="6.99286"><ele>1063.6</ele><time>2017-06-15T11:38:45Z</time></trkpt>
<trkpt lat="46.09544" lon="6.99287"><ele>1064</ele><time>2017-06-15T11:38:47Z</time></trkpt>
<trkpt lat="46.09542" lon="6.99287"><ele>1064.2</ele><time>2017-06-15T11:38:49Z</time></trkpt>
<trkpt lat="46.09539" lon="6.99287"><ele>1064.6</ele><time>2017-06-15T11:38:51Z</time></trkpt>
<trkpt lat="46.09537" lon="6.99287"><ele>1064.8</ele><time>2017-06-15T11:38:53Z</time></trkpt>
<trkpt lat="46.09534" lon="6.99287"><ele>1065.2</ele><time>2017-06-15T11:38:55Z</time></trkpt>
<trkpt lat="46.09532" lon="6.99287"><ele>1065.4</ele><time>2017-06-15T11:38:57Z</time></trkpt>
<trkpt lat="46.09529" lon="6.99287"><ele>1065.8</ele><time>2017-06-15T11:38:59Z</time></trkpt>
<trkpt lat="46.09527" lon="6.99287"><ele>1066</ele><time>2017-06-15T11:39:01Z</time></trkpt>
<trkpt lat="46.09524" lon="6.99288"><ele>1066.2</ele><time>2017-06-15T11:39:03Z</time></trkpt>
<trkpt lat="46.09522" lon="6.99288"><ele>1066.6</ele><time>2017-06-15T11:39:05Z</time></trkpt>
<trkpt lat="46.09519" lon="6.99288"><ele>1066.8</ele><time>2017-06-15T11:39:07Z</time></trkpt>
<trkpt lat="46.09517" lon="6.99288"><ele>1067.2</ele><time>2017-06-15T11:39:09Z</time></trkpt>
<trkpt lat="46.09514" lon="6.99288"><ele>1067.4</ele><time>2017-06-15T11:39:11Z</time></trkpt>
<trkpt lat="46.09512" lon="6.99288"><ele>1067.8</ele><time>2017-06-15T11:39:13Z</time></trkpt>
<trkpt lat="46.09509" lon="6.99288"><ele>1068</ele><time>2017-06-15T11:39:15Z</time></trkpt>
<trkpt lat="46.09507" lon="6.99288"><ele>1068.4</ele><time>2017-06-15T11:39:17Z</time></trkpt>
<trkpt lat="46.09506" lon="6.99288"><ele>1068.6</ele><time>2017-06-15T11:39:18Z</time></trkpt>
<trkpt lat="46.09505" lon="6.99288"><ele>1068.6</ele><time>2017-06-15T11:39:19Z</time></trkpt>
<trkpt lat="46.09502" lon="6.99288"><ele>1069</ele><time>2017-06-15T11:39:21Z</time></trkpt>
<trkpt lat="46.095" lon="6.99288"><ele>1069.2</ele><time>2017-06-15T11:39:23Z</time></trkpt>
<trkpt lat="46.09497" lon="6.99288"><ele>1069.4</ele><time>2017-06-15T11:39:25Z</time></trkpt>
<trkpt lat="46.09495" lon="6.99288"><ele>1069.6</ele><time>2017-06-15T11:39:27Z</time></trkpt>
<trkpt lat="46.09492" lon="6.99287"><ele>1070</ele><time>2017-06-15T11:39:29Z</time></trkpt>
<trkpt lat="46.09489" lon="6.99287"><ele>1070.2</ele><time>2017-06-15T11:39:31Z</time></trkpt>
<trkpt lat="46.09486" lon="6.99286"><ele>1070.4</ele><time>2017-06-15T11:39:33Z</time></trkpt>
<trkpt lat="46.09482" lon="6.99285"><ele>1070.8</ele><time>2017-06-15T11:39:35Z</time></trkpt>
<trkpt lat="46.09479" lon="6.99285"><ele>1071</ele><time>2017-06-15T11:39:37Z</time></trkpt>
<trkpt lat="46.09476" lon="6.99284"><ele>1071.2</ele><time>2017-06-15T11:39:39Z</time></trkpt>
<trkpt lat="46.09475" lon="6.99284"><ele>1071.4</ele><time>2017-06-15T11:39:40Z</time></trkpt>
<trkpt lat="46.09475" lon="6.99285"><ele>1071.4</ele><time>2017-06-15T11:39:41Z</time></trkpt>
<trkpt lat="46.09474" lon="6.99286"><ele>1071.8</ele><time>2017-06-15T11:39:43Z</time></trkpt>
<trkpt lat="46.09473" lon="6.99287"><ele>1071.8</ele><time>2017-06-15T11:39:44Z</time></trkpt>
<trkpt lat="46.09449" lon="6.99294"><ele>1075.6</ele><time>2017-06-15T11:39:46Z</time></trkpt>
<trkpt lat="46.09449" lon="6.99294"><ele>1075.6</ele><time>2017-06-15T11:42:48Z</time></trkpt>
<trkpt lat="46.09426" lon="6.99301"><ele>1079</ele><time>2017-06-15T11:42:49Z</time></trkpt>
<trkpt lat="46.09425" lon="6.99301"><ele>1079</ele><time>2017-06-15T11:42:51Z</time></trkpt>
<trkpt lat="46.09425" lon="6.993"><ele>1079</ele><time>2017-06-15T11:42:53Z</time></trkpt>
<trkpt lat="46.09424" lon="6.993"><ele>1079.2</ele><time>2017-06-15T11:42:55Z</time></trkpt>
<trkpt lat="46.09424" lon="6.993"><ele>1079.2</ele><time>2017-06-15T11:42:57Z</time></trkpt>
<trkpt lat="46.09423" lon="6.993"><ele>1079.2</ele><time>2017-06-15T11:42:58Z</time></trkpt>
<trkpt lat="46.09423" lon="6.993"><ele>1079.4</ele><time>2017-06-15T11:42:59Z</time></trkpt>
<trkpt lat="46.09423" lon="6.993"><ele>1079.8</ele><time>2017-06-15T11:43:01Z</time></trkpt>
<trkpt lat="46.09422" lon="6.993"><ele>1080.2</ele><time>2017-06-15T11:43:03Z</time></trkpt>
<trkpt lat="46.09422" lon="6.993"><ele>1080.6</ele><time>2017-06-15T11:43:05Z</time></trkpt>
<trkpt lat="46.09421" lon="6.993"><ele>1081</ele><time>2017-06-15T11:43:07Z</time></trkpt>
<trkpt lat="46.09421" lon="6.993"><ele>1081.4</ele><time>2017-06-15T11:43:09Z</time></trkpt>
<trkpt lat="46.0942" lon="6.993"><ele>1081.6</ele><time>2017-06-15T11:43:11Z</time></trkpt>
<trkpt lat="46.0942" lon="6.993"><ele>1082</ele><time>2017-06-15T11:43:13Z</time></trkpt>
<trkpt lat="46.0942" lon="6.993"><ele>1082.4</ele><time>2017-06-15T11:43:15Z</time></trkpt>
<trkpt lat="46.09419" lon="6.993"><ele>1082.8</ele><time>2017-06-15T11:43:17Z</time></trkpt>
<trkpt lat="46.09419" lon="6.993"><ele>1083</ele><time>2017-06-15T11:43:18Z</time></trkpt>
<trkpt lat="46.09418" lon="6.99301"><ele>1083</ele><time>2017-06-15T11:43:19Z</time></trkpt>
<trkpt lat="46.09415" lon="6.99301"><ele>1083.4</ele><time>2017-06-15T11:43:21Z</time></trkpt>
<trkpt lat="46.09413" lon="6.99302"><ele>1083.8</ele><time>2017-06-15T11:43:23Z</time></trkpt>
<trkpt lat="46.09411" lon="6.99302"><ele>1084.2</ele><time>2017-06-15T11:43:25Z</time></trkpt>
<trkpt lat="46.09409" lon="6.99302"><ele>1084.4</ele><time>2017-06-15T11:43:27Z</time></trkpt>
<trkpt lat="46.09407" lon="6.99303"><ele>1084.8</ele><time>2017-06-15T11:43:29Z</time></trkpt>
<trkpt lat="46.09405" lon="6.99303"><ele>1085.2</ele><time>2017-06-15T11:43:31Z</time></trkpt>
<trkpt lat="46.09403" lon="6.99304"><ele>1085.4</ele><time>2017-06-15T11:43:33Z</time></trkpt>
<trkpt lat="46.09401" lon="6.99304"><ele>1085.8</ele><time>2017-06-15T11:43:35Z</time></trkpt>
<trkpt lat="46.09399" lon="6.99305"><ele>1086.2</ele><time>2017-06-15T11:43:37Z</time></trkpt>
<trkpt lat="46.09397" lon="6.99305"><ele>1086.4</ele><time>2017-06-15T11:43:39Z</time></trkpt>
<trkpt lat="46.09395" lon="6.99305"><ele>1086.6</ele><time>2017-06-15T11:43:41Z</time></trkpt>
<trkpt lat="46.09393" lon="6.99306"><ele>1086.8</ele><time>2017-06-15T11:43:43Z</time></trkpt>
<trkpt lat="46.0939" lon="6.99306"><ele>1087</ele><time>2017-06-15T11:43:45Z</time></trkpt>
<trkpt lat="46.09388" lon="6.99307"><ele>1087.2</ele><time>2017-06-15T11:43:47Z</time></trkpt>
<trkpt lat="46.09386" lon="6.99307"><ele>1087.4</ele><time>2017-06-15T11:43:49Z</time></trkpt>
<trkpt lat="46.09384" lon="6.99308"><ele>1087.6</ele><time>2017-06-15T11:43:51Z</time></trkpt>
<trkpt lat="46.09382" lon="6.99308"><ele>1087.8</ele><time>2017-06-15T11:43:53Z</time></trkpt>
<trkpt lat="46.0938" lon="6.99309"><ele>1088.2</ele><time>2017-06-15T11:43:55Z</time></trkpt>
<trkpt lat="46.09378" lon="6.99309"><ele>1088.4</ele><time>2017-06-15T11:43:57Z</time></trkpt>
<trkpt lat="46.09377" lon="6.99309"><ele>1088.8</ele><time>2017-06-15T11:43:59Z</time></trkpt>
<trkpt lat="46.09379" lon="6.99307"><ele>1089</ele><time>2017-06-15T11:44:01Z</time></trkpt>
<trkpt lat="46.09381" lon="6.99305"><ele>1089.4</ele><time>2017-06-15T11:44:03Z</time></trkpt>
<trkpt lat="46.09383" lon="6.99303"><ele>1089.6</ele><time>2017-06-15T11:44:05Z</time></trkpt>
<trkpt lat="46.09386" lon="6.99301"><ele>1090</ele><time>2017-06-15T11:44:07Z</time></trkpt>
<trkpt lat="46.09388" lon="6.99298"><ele>1090.2</ele><time>2017-06-15T11:44:09Z</time></trkpt>
<trkpt lat="46.09389" lon="6.99297"><ele>1090.4</ele><time>2017-06-15T11:44:10Z</time></trkpt>
<trkpt lat="46.0939" lon="6.99296"><ele>1090.6</ele><time>2017-06-15T11:44:11Z</time></trkpt>
<trkpt lat="46.09392" lon="6.99294"><ele>1090.8</ele><time>2017-06-15T11:44:13Z</time></trkpt>
<trkpt lat="46.09394" lon="6.99292"><ele>1091.2</ele><time>2017-06-15T11:44:15Z</time></trkpt>
<trkpt lat="46.09397" lon="6.9929"><ele>1091.4</ele><time>2017-06-15T11:44:17Z</time></trkpt>
<trkpt lat="46.09399" lon="6.99288"><ele>1091.6</ele><time>2017-06-15T11:44:19Z</time></trkpt>
<trkpt lat="46.09401" lon="6.99286"><ele>1092</ele><time>2017-06-15T11:44:21Z</time></trkpt>
<trkpt lat="46.09403" lon="6.99284"><ele>1092.2</ele><time>2017-06-15T11:44:23Z</time></trkpt>
<trkpt lat="46.09406" lon="6.99282"><ele>1092.6</ele><time>2017-06-15T11:44:25Z</time></trkpt>
<trkpt lat="46.09408" lon="6.9928"><ele>1092.8</ele><time>2017-06-15T11:44:27Z</time></trkpt>
<trkpt lat="46.0941" lon="6.99279"><ele>1093</ele><time>2017-06-15T11:44:29Z</time></trkpt>
<trkpt lat="46.09412" lon="6.99279"><ele>1093.4</ele><time>2017-06-15T11:44:31Z</time></trkpt>
<trkpt lat="46.09413" lon="6.99278"><ele>1093.6</ele><time>2017-06-15T11:44:33Z</time></trkpt>
<trkpt lat="46.09415" lon="6.99277"><ele>1094</ele><time>2017-06-15T11:44:35Z</time></trkpt>
<trkpt lat="46.09417" lon="6.99277"><ele>1094.2</ele><time>2017-06-15T11:44:37Z</time></trkpt>
<trkpt lat="46.09419" lon="6.99276"><ele>1094.4</ele><time>2017-06-15T11:44:39Z</time></trkpt>
<trkpt lat="46.09421" lon="6.99276"><ele>1094.8</ele><time>2017-06-15T11:44:41Z</time></trkpt>
<trkpt lat="46.09423" lon="6.99275"><ele>1095</ele><time>2017-06-15T11:44:43Z</time></trkpt>
<trkpt lat="46.09425" lon="6.99275"><ele>1095.2</ele><time>2017-06-15T11:44:45Z</time></trkpt>
<trkpt lat="46.09427" lon="6.99274"><ele>1095.6</ele><time>2017-06-15T11:44:47Z</time></trkpt>
<trkpt lat="46.09429" lon="6.99273"><ele>1095.8</ele><time>2017-06-15T11:44:49Z</time></trkpt>
<trkpt lat="46.0943" lon="6.99273"><ele>1096.2</ele><time>2017-06-15T11:44:51Z</time></trkpt>
<trkpt lat="46.09432" lon="6.99272"><ele>1096.4</ele><time>2017-06-15T11:44:53Z</time></trkpt>
<trkpt lat="46.09434" lon="6.99272"><ele>1096.6</ele><time>2017-06-15T11:44:55Z</time></trkpt>
<trkpt lat="46.09436" lon="6.99271"><ele>1097</ele><time>2017-06-15T11:44:57Z</time></trkpt>
<trkpt lat="46.09438" lon="6.99271"><ele>1097.2</ele><time>2017-06-15T11:44:59Z</time></trkpt>
<trkpt lat="46.0944" lon="6.9927"><ele>1097.6</ele><time>2017-06-15T11:45:01Z</time></trkpt>
<trkpt lat="46.09442" lon="6.9927"><ele>1097.8</ele><time>2017-06-15T11:45:03Z</time></trkpt>
<trkpt lat="46.09444" lon="6.99269"><ele>1098</ele><time>2017-06-15T11:45:05Z</time></trkpt>
<trkpt lat="46.09446" lon="6.99268"><ele>1098.4</ele><time>2017-06-15T11:45:07Z</time></trkpt>
<trkpt lat="46.09447" lon="6.99268"><ele>1098.6</ele><time>2017-06-15T11:45:09Z</time></trkpt>
<trkpt lat="46.09449" lon="6.99267"><ele>1098.8</ele><time>2017-06-15T11:45:11Z</time></trkpt>
<trkpt lat="46.09451" lon="6.99267"><ele>1099.2</ele><time>2017-06-15T11:45:13Z</time></trkpt>
<trkpt lat="46.09453" lon="6.99266"><ele>1099.4</ele><time>2017-06-15T11:45:15Z</time></trkpt>
<trkpt lat="46.09454" lon="6.99263"><ele>1099.8</ele><time>2017-06-15T11:45:17Z</time></trkpt>
<trkpt lat="46.09455" lon="6.9926"><ele>1100</ele><time>2017-06-15T11:45:19Z</time></trkpt>
<trkpt lat="46.09456" lon="6.99258"><ele>1100.2</ele><time>2017-06-15T11:45:21Z</time></trkpt>
<trkpt lat="46.09457" lon="6.99257"><ele>1100.4</ele><time>2017-06-15T11:45:22Z</time></trkpt>
<trkpt lat="46.09456" lon="6.99257"><ele>1100.4</ele><time>2017-06-15T11:45:23Z</time></trkpt>
<trkpt lat="46.09454" lon="6.99257"><ele>1100.6</ele><time>2017-06-15T11:45:25Z</time></trkpt>
<trkpt lat="46.09452" lon="6.99257"><ele>1101</ele><time>2017-06-15T11:45:27Z</time></trkpt>
<trkpt lat="46.09451" lon="6.99258"><ele>1101.2</ele><time>2017-06-15T11:45:29Z</time></trkpt>
<trkpt lat="46.09449" lon="6.99258"><ele>1101.4</ele><time>2017-06-15T11:45:31Z</time></trkpt>
<trkpt lat="46.09447" lon="6.99258"><ele>1101.6</ele><time>2017-06-15T11:45:33Z</time></trkpt>
<trkpt lat="46.09445" lon="6.99259"><ele>1102</ele><time>2017-06-15T11:45:35Z</time></trkpt>
<trkpt lat="46.09444" lon="6.99259"><ele>1102.2</ele><time>2017-06-15T11:45:37Z</time></trkpt>
<trkpt lat="46.09442" lon="6.99259"><ele>1102.4</ele><time>2017-06-15T11:45:39Z</time></trkpt>
<trkpt lat="46.0944" lon="6.99259"><ele>1102.8</ele><time>2017-06-15T11:45:41Z</time></trkpt>
<trkpt lat="46.09439" lon="6.9926"><ele>1103</ele><time>2017-06-15T11:45:43Z</time></trkpt>
<trkpt lat="46.09437" lon="6.9926"><ele>1103.4</ele><time>2017-06-15T11:45:45Z</time></trkpt>
<trkpt lat="46.09435" lon="6.9926"><ele>1103.6</ele><time>2017-06-15T11:45:47Z</time></trkpt>
<trkpt lat="46.09433" lon="6.99261"><ele>1104</ele><time>2017-06-15T11:45:49Z</time></trkpt>
<trkpt lat="46.09433" lon="6.99261"><ele>1104</ele><time>2017-06-15T11:45:50Z</time></trkpt>
<trkpt lat="46.09432" lon="6.99261"><ele>1104.2</ele><time>2017-06-15T11:45:51Z</time></trkpt>
<trkpt lat="46.0943" lon="6.99261"><ele>1104.2</ele><time>2017-06-15T11:45:53Z</time></trkpt>
<trkpt lat="46.09428" lon="6.99261"><ele>1104.4</ele><time>2017-06-15T11:45:55Z</time></trkpt>
<trkpt lat="46.09426" lon="6.99262"><ele>1104.6</ele><time>2017-06-15T11:45:57Z</time></trkpt>
<trkpt lat="46.09425" lon="6.99262"><ele>1104.6</ele><time>2017-06-15T11:45:59Z</time></trkpt>
<trkpt lat="46.09423" lon="6.99262"><ele>1104.8</ele><time>2017-06-15T11:46:01Z</time></trkpt>
<trkpt lat="46.09422" lon="6.99262"><ele>1104.8</ele><time>2017-06-15T11:46:02Z</time></trkpt>
<trkpt lat="46.09421" lon="6.99263"><ele>1105</ele><time>2017-06-15T11:46:03Z</time></trkpt>
<trkpt lat="46.0942" lon="6.99263"><ele>1105.2</ele><time>2017-06-15T11:46:05Z</time></trkpt>
<trkpt lat="46.09418" lon="6.99263"><ele>1105.4</ele><time>2017-06-15T11:46:07Z</time></trkpt>
<trkpt lat="46.09416" lon="6.99263"><ele>1105.6</ele><time>2017-06-15T11:46:09Z</time></trkpt>
<trkpt lat="46.09414" lon="6.99264"><ele>1105.8</ele><time>2017-06-15T11:46:11Z</time></trkpt>
<trkpt lat="46.09413" lon="6.99264"><ele>1106</ele><time>2017-06-15T11:46:13Z</time></trkpt>
<trkpt lat="46.09412" lon="6.99264"><ele>1106.2</ele><time>2017-06-15T11:46:14Z</time></trkpt>
<trkpt lat="46.09411" lon="6.99264"><ele>1106.4</ele><time>2017-06-15T11:46:15Z</time></trkpt>
<trkpt lat="46.09409" lon="6.99265"><ele>1106.6</ele><time>2017-06-15T11:46:17Z</time></trkpt>
<trkpt lat="46.09407" lon="6.99265"><ele>1106.8</ele><time>2017-06-15T11:46:19Z</time></trkpt>
<trkpt lat="46.09405" lon="6.99266"><ele>1107</ele><time>2017-06-15T11:46:21Z</time></trkpt>
<trkpt lat="46.09403" lon="6.99266"><ele>1107.2</ele><time>2017-06-15T11:46:23Z</time></trkpt>
<trkpt lat="46.09401" lon="6.99267"><ele>1107.4</ele><time>2017-06-15T11:46:25Z</time></trkpt>
<trkpt lat="46.09399" lon="6.99267"><ele>1107.6</ele><time>2017-06-15T11:46:27Z</time></trkpt>
<trkpt lat="46.09397" lon="6.99268"><ele>1107.8</ele><time>2017-06-15T11:46:29Z</time></trkpt>
<trkpt lat="46.09395" lon="6.99268"><ele>1108.2</ele><time>2017-06-15T11:46:31Z</time></trkpt>
<trkpt lat="46.0937" lon="6.99275"><ele>1111.4</ele><time>2017-06-15T11:46:33Z</time></trkpt>
<trkpt lat="46.0937" lon="6.99275"><ele>1111.4</ele><time>2017-06-15T11:48:13Z</time></trkpt>
<trkpt lat="46.09346" lon="6.99281"><ele>1114.4</ele><time>2017-06-15T11:48:15Z</time></trkpt>
<trkpt lat="46.09345" lon="6.99281"><ele>1114.6</ele><time>2017-06-15T11:48:17Z</time></trkpt>
<trkpt lat="46.09345" lon="6.99282"><ele>1114.6</ele><time>2017-06-15T11:48:19Z</time></trkpt>
<trkpt lat="46.09344" lon="6.99282"><ele>1114.6</ele><time>2017-06-15T11:48:21Z</time></trkpt>
<trkpt lat="46.09343" lon="6.99282"><ele>1114.8</ele><time>2017-06-15T11:48:23Z</time></trkpt>
<trkpt lat="46.09342" lon="6.99282"><ele>1114.8</ele><time>2017-06-15T11:48:25Z</time></trkpt>
<trkpt lat="46.09342" lon="6.99282"><ele>1115</ele><time>2017-06-15T11:48:26Z</time></trkpt>
<trkpt lat="46.09342" lon="6.99282"><ele>1115.2</ele><time>2017-06-15T11:48:27Z</time></trkpt>
<trkpt lat="46.09341" lon="6.99283"><ele>1115.6</ele><time>2017-06-15T11:48:29Z</time></trkpt>
<trkpt lat="46.0934" lon="6.99283"><ele>1116</ele><time>2017-06-15T11:48:31Z</time></trkpt>
<trkpt lat="46.09339" lon="6.99283"><ele>1116.4</ele><time>2017-06-15T11:48:33Z</time></trkpt>
<trkpt lat="46.09338" lon="6.99283"><ele>1117</ele><time>2017-06-15T11:48:35Z</time></trkpt>
<trkpt lat="46.09338" lon="6.99283"><ele>1117.4</ele><time>2017-06-15T11:48:37Z</time></trkpt>
<trkpt lat="46.09337" lon="6.99284"><ele>1117.8</ele><time>2017-06-15T11:48:39Z</time></trkpt>
<trkpt lat="46.09336" lon="6.99284"><ele>1118.2</ele><time>2017-06-15T11:48:41Z</time></trkpt>
<trkpt lat="46.09334" lon="6.99284"><ele>1118.6</ele><time>2017-06-15T11:48:43Z</time></trkpt>
<trkpt lat="46.09332" lon="6.99285"><ele>1119</ele><time>2017-06-15T11:48:45Z</time></trkpt>
<trkpt lat="46.0933" lon="6.99285"><ele>1119.4</ele><time>2017-06-15T11:48:47Z</time></trkpt>
<trkpt lat="46.09328" lon="6.99285"><ele>1119.8</ele><time>2017-06-15T11:48:49Z</time></trkpt>
<trkpt lat="46.09326" lon="6.99286"><ele>1120.2</ele><time>2017-06-15T11:48:51Z</time></trkpt>
<trkpt lat="46.09324" lon="6.99286"><ele>1120.6</ele><time>2017-06-15T11:48:53Z</time></trkpt>
<trkpt lat="46.09322" lon="6.99287"><ele>1121</ele><time>2017-06-15T11:48:55Z</time></trkpt>
<trkpt lat="46.09319" lon="6.99287"><ele>1121.4</ele><time>2017-06-15T11:48:57Z</time></trkpt>
<trkpt lat="46.09317" lon="6.99287"><ele>1121.8</ele><time>2017-06-15T11:48:59Z</time></trkpt>
<trkpt lat="46.09316" lon="6.99288"><ele>1122</ele><time>2017-06-15T11:49:00Z</time></trkpt>
<trkpt lat="46.09315" lon="6.99288"><ele>1122.2</ele><time>2017-06-15T11:49:01Z</time></trkpt>
<trkpt lat="46.09313" lon="6.99288"><ele>1122.6</ele><time>2017-06-15T11:49:03Z</time></trkpt>
<trkpt lat="46.09311" lon="6.99289"><ele>1123</ele><time>2017-06-15T11:49:05Z</time></trkpt>
<trkpt lat="46.09309" lon="6.99289"><ele>1123.4</ele><time>2017-06-15T11:49:07Z</time></trkpt>
<trkpt lat="46.09307" lon="6.99289"><ele>1123.8</ele><time>2017-06-15T11:49:09Z</time></trkpt>
<trkpt lat="46.09305" lon="6.9929"><ele>1124.2</ele><time>2017-06-15T11:49:11Z</time></trkpt>
<trkpt lat="46.09304" lon="6.9929"><ele>1124.6</ele><time>2017-06-15T11:49:13Z</time></trkpt>
<trkpt lat="46.09305" lon="6.99288"><ele>1125</ele><time>2017-06-15T11:49:15Z</time></trkpt>
<trkpt lat="46.09307" lon="6.99286"><ele>1125.4</ele><time>2017-06-15T11:49:17Z</time></trkpt>
<trkpt lat="46.09308" lon="6.99285"><ele>1125.6</ele><time>2017-06-15T11:49:19Z</time></trkpt>
<trkpt lat="46.0931" lon="6.99283"><ele>1126</ele><time>2017-06-15T11:49:21Z</time></trkpt>
<trkpt lat="46.09311" lon="6.99281"><ele>1126.2</ele><time>2017-06-15T11:49:23Z</time></trkpt>
<trkpt lat="46.09313" lon="6.9928"><ele>1126.6</ele><time>2017-06-15T11:49:25Z</time></trkpt>
<trkpt lat="46.09314" lon="6.99278"><ele>1126.8</ele><time>2017-06-15T11:49:27Z</time></trkpt>
<trkpt lat="46.09316" lon="6.99276"><ele>1127.2</ele><time>2017-06-15T11:49:29Z</time></trkpt>
<trkpt lat="46.09317" lon="6.99275"><ele>1127.4</ele><time>2017-06-15T11:49:31Z</time></trkpt>
<trkpt lat="46.09319" lon="6.99273"><ele>1127.8</ele><time>2017-06-15T11:49:33Z</time></trkpt>
<trkpt lat="46.09321" lon="6.99271"><ele>1128</ele><time>2017-06-15T11:49:35Z</time></trkpt>
<trkpt lat="46.09322" lon="6.99269"><ele>1128.4</ele><time>2017-06-15T11:49:37Z</time></trkpt>
<trkpt lat="46.09324" lon="6.99268"><ele>1128.6</ele><time>2017-06-15T11:49:39Z</time></trkpt>
<trkpt lat="46.09325" lon="6.99266"><ele>1129</ele><time>2017-06-15T11:49:41Z</time></trkpt>
<trkpt lat="46.09327" lon="6.99264"><ele>1129.2</ele><time>2017-06-15T11:49:43Z</time></trkpt>
<trkpt lat="46.09328" lon="6.99263"><ele>1129.6</ele><time>2017-06-15T11:49:45Z</time></trkpt>
<trkpt lat="46.0933" lon="6.99261"><ele>1129.8</ele><time>2017-06-15T11:49:47Z</time></trkpt>
<trkpt lat="46.09331" lon="6.99259"><ele>1130.2</ele><time>2017-06-15T11:49:49Z</time></trkpt>
<trkpt lat="46.09333" lon="6.99258"><ele>1130.4</ele><time>2017-06-15T11:49:51Z</time></trkpt>
<trkpt lat="46.09334" lon="6.99256"><ele>1130.6</ele><time>2017-06-15T11:49:53Z</time></trkpt>
<trkpt lat="46.09336" lon="6.99254"><ele>1131</ele><time>2017-06-15T11:49:55Z</time></trkpt>
<trkpt lat="46.09337" lon="6.99253"><ele>1131.2</ele><time>2017-06-15T11:49:57Z</time></trkpt>
<trkpt lat="46.09339" lon="6.99251"><ele>1131.6</ele><time>2017-06-15T11:49:59Z</time></trkpt>
<trkpt lat="46.0934" lon="6.9925"><ele>1131.6</ele><time>2017-06-15T11:50:00Z</time></trkpt>
<trkpt lat="46.09341" lon="6.99249"><ele>1131.8</ele><time>2017-06-15T11:50:01Z</time></trkpt>
<trkpt lat="46.09342" lon="6.99248"><ele>1132.2</ele><time>2017-06-15T11:50:03Z</time></trkpt>
<trkpt lat="46.09344" lon="6.99247"><ele>1132.4</ele><time>2017-06-15T11:50:05Z</time></trkpt>
<trkpt lat="46.09346" lon="6.99245"><ele>1132.8</ele><time>2017-06-15T11:50:07Z</time></trkpt>
<trkpt lat="46.09347" lon="6.99244"><ele>1133</ele><time>2017-06-15T11:50:09Z</time></trkpt>
<trkpt lat="46.09349" lon="6.99243"><ele>1133.4</ele><time>2017-06-15T11:50:11Z</time></trkpt>
<trkpt lat="46.09351" lon="6.99241"><ele>1133.6</ele><time>2017-06-15T11:50:13Z</time></trkpt>
<trkpt lat="46.09352" lon="6.9924"><ele>1133.8</ele><time>2017-06-15T11:50:15Z</time></trkpt>
<trkpt lat="46.09354" lon="6.99238"><ele>1134.2</ele><time>2017-06-15T11:50:17Z</time></trkpt>
<trkpt lat="46.09356" lon="6.99237"><ele>1134.4</ele><time>2017-06-15T11:50:19Z</time></trkpt>
<trkpt lat="46.09357" lon="6.99236"><ele>1134.8</ele><time>2017-06-15T11:50:21Z</time></trkpt>
<trkpt lat="46.09359" lon="6.99234"><ele>1135</ele><time>2017-06-15T11:50:23Z</time></trkpt>
<trkpt lat="46.09361" lon="6.99233"><ele>1135.4</ele><time>2017-06-15T11:50:25Z</time></trkpt>
<trkpt lat="46.09362" lon="6.99232"><ele>1135.6</ele><time>2017-06-15T11:50:27Z</time></trkpt>
<trkpt lat="46.09364" lon="6.9923"><ele>1136</ele><time>2017-06-15T11:50:29Z</time></trkpt>
<trkpt lat="46.09366" lon="6.99229"><ele>1136.4</ele><time>2017-06-15T11:50:31Z</time></trkpt>
<trkpt lat="46.09367" lon="6.99227"><ele>1136.6</ele><time>2017-06-15T11:50:33Z</time></trkpt>
<trkpt lat="46.09369" lon="6.99226"><ele>1137</ele><time>2017-06-15T11:50:35Z</time></trkpt>
<trkpt lat="46.09371" lon="6.99225"><ele>1137.4</ele><time>2017-06-15T11:50:37Z</time></trkpt>
<trkpt lat="46.09372" lon="6.99223"><ele>1137.6</ele><time>2017-06-15T11:50:39Z</time></trkpt>
<trkpt lat="46.09374" lon="6.99222"><ele>1138</ele><time>2017-06-15T11:50:41Z</time></trkpt>
<trkpt lat="46.09376" lon="6.99221"><ele>1138.2</ele><time>2017-06-15T11:50:43Z</time></trkpt>
<trkpt lat="46.09377" lon="6.99219"><ele>1138.6</ele><time>2017-06-15T11:50:45Z</time></trkpt>
<trkpt lat="46.09378" lon="6.99219"><ele>1138.8</ele><time>2017-06-15T11:50:46Z</time></trkpt>
<trkpt lat="46.09377" lon="6.99219"><ele>1139</ele><time>2017-06-15T11:50:47Z</time></trkpt>
<trkpt lat="46.09376" lon="6.99219"><ele>1139.2</ele><time>2017-06-15T11:50:49Z</time></trkpt>
<trkpt lat="46.09375" lon="6.99219"><ele>1139.6</ele><time>2017-06-15T11:50:51Z</time></trkpt>
<trkpt lat="46.09374" lon="6.9922"><ele>1139.8</ele><time>2017-06-15T11:50:53Z</time></trkpt>
<trkpt lat="46.09373" lon="6.9922"><ele>1140.2</ele><time>2017-06-15T11:50:55Z</time></trkpt>
<trkpt lat="46.09372" lon="6.9922"><ele>1140.6</ele><time>2017-06-15T11:50:57Z</time></trkpt>
<trkpt lat="46.0937" lon="6.9922"><ele>1140.8</ele><time>2017-06-15T11:50:59Z</time></trkpt>
<trkpt lat="46.09369" lon="6.9922"><ele>1141.2</ele><time>2017-06-15T11:51:01Z</time></trkpt>
<trkpt lat="46.09368" lon="6.9922"><ele>1141.6</ele><time>2017-06-15T11:51:03Z</time></trkpt>
<trkpt lat="46.09367" lon="6.99221"><ele>1141.8</ele><time>2017-06-15T11:51:05Z</time></trkpt>
<trkpt lat="46.09366" lon="6.99221"><ele>1142.2</ele><time>2017-06-15T11:51:07Z</time></trkpt>
<trkpt lat="46.09365" lon="6.99221"><ele>1142.4</ele><time>2017-06-15T11:51:08Z</time></trkpt>
<trkpt lat="46.09365" lon="6.99221"><ele>1142.4</ele><time>2017-06-15T11:51:09Z</time></trkpt>
<trkpt lat="46.09364" lon="6.99221"><ele>1142.8</ele><time>2017-06-15T11:51:11Z</time></trkpt>
<trkpt lat="46.09363" lon="6.99221"><ele>1143</ele><time>2017-06-15T11:51:13Z</time></trkpt>
<trkpt lat="46.09362" lon="6.99222"><ele>1143.4</ele><time>2017-06-15T11:51:15Z</time></trkpt>
<trkpt lat="46.0936" lon="6.99222"><ele>1143.6</ele><time>2017-06-15T11:51:17Z</time></trkpt>
<trkpt lat="46.09359" lon="6.99222"><ele>1144</ele><time>2017-06-15T11:51:19Z</time></trkpt>
<trkpt lat="46.09358" lon="6.99222"><ele>1144.2</ele><time>2017-06-15T11:51:21Z</time></trkpt>
<trkpt lat="46.09344" lon="6.99223"><ele>1147</ele><time>2017-06-15T11:51:23Z</time></trkpt>
<trkpt lat="46.09344" lon="6.99223"><ele>1147</ele><time>2017-06-15T11:52:17Z</time></trkpt>
<trkpt lat="46.0933" lon="6.99224"><ele>1149.4</ele><time>2017-06-15T11:52:19Z</time></trkpt>
<trkpt lat="46.0933" lon="6.99223"><ele>1149.6</ele><time>2017-06-15T11:52:21Z</time></trkpt>
<trkpt lat="46.0933" lon="6.99223"><ele>1149.6</ele><time>2017-06-15T11:52:23Z</time></trkpt>
<trkpt lat="46.09329" lon="6.99222"><ele>1149.8</ele><time>2017-06-15T11:52:25Z</time></trkpt>
<trkpt lat="46.09329" lon="6.99221"><ele>1150</ele><time>2017-06-15T11:52:27Z</time></trkpt>
<trkpt lat="46.09329" lon="6.99221"><ele>1150.2</ele><time>2017-06-15T11:52:29Z</time></trkpt>
<trkpt lat="46.09328" lon="6.9922"><ele>1150.2</ele><time>2017-06-15T11:52:31Z</time></trkpt>
<trkpt lat="46.09328" lon="6.9922"><ele>1150.4</ele><time>2017-06-15T11:52:32Z</time></trkpt>
<trkpt lat="46.09328" lon="6.9922"><ele>1150.6</ele><time>2017-06-15T11:52:33Z</time></trkpt>
<trkpt lat="46.09328" lon="6.99219"><ele>1150.8</ele><time>2017-06-15T11:52:35Z</time></trkpt>
<trkpt lat="46.09327" lon="6.99219"><ele>1151.2</ele><time>2017-06-15T11:52:37Z</time></trkpt>
<trkpt lat="46.09327" lon="6.99218"><ele>1151.6</ele><time>2017-06-15T11:52:39Z</time></trkpt>
<trkpt lat="46.09327" lon="6.99218"><ele>1151.8</ele><time>2017-06-15T11:52:41Z</time></trkpt>
<trkpt lat="46.09326" lon="6.99217"><ele>1152.2</ele><time>2017-06-15T11:52:43Z</time></trkpt>
<trkpt lat="46.09326" lon="6.99217"><ele>1152.6</ele><time>2017-06-15T11:52:45Z</time></trkpt>
<trkpt lat="46.09326" lon="6.99216"><ele>1152.8</ele><time>2017-06-15T11:52:47Z</time></trkpt>
<trkpt lat="46.09325" lon="6.99215"><ele>1153.2</ele><time>2017-06-15T11:52:49Z</time></trkpt>
<trkpt lat="46.09325" lon="6.99215"><ele>1153.6</ele><time>2017-06-15T11:52:51Z</time></trkpt>
<trkpt lat="46.09325" lon="6.99214"><ele>1153.8</ele><time>2017-06-15T11:52:53Z</time></trkpt>
<trkpt lat="46.09324" lon="6.99214"><ele>1154.2</ele><time>2017-06-15T11:52:55Z</time></trkpt>
<trkpt lat="46.09324" lon="6.99213"><ele>1154.6</ele><time>2017-06-15T11:52:57Z</time></trkpt>
<trkpt lat="46.09324" lon="6.99212"><ele>1155</ele><time>2017-06-15T11:52:59Z</time></trkpt>
<trkpt lat="46.09324" lon="6.99211"><ele>1155.4</ele><time>2017-06-15T11:53:01Z</time></trkpt>
<trkpt lat="46.09324" lon="6.9921"><ele>1156</ele><time>2017-06-15T11:53:03Z</time></trkpt>
<trkpt lat="46.09325" lon="6.99209"><ele>1156.4</ele><time>2017-06-15T11:53:05Z</time></trkpt>
<trkpt lat="46.09325" lon="6.99208"><ele>1156.8</ele><time>2017-06-15T11:53:07Z</time></trkpt>
<trkpt lat="46.09325" lon="6.99207"><ele>1157.2</ele><time>2017-06-15T11:53:09Z</time></trkpt>
<trkpt lat="46.09325" lon="6.99206"><ele>1157.6</ele><time>2017-06-15T11:53:11Z</time></trkpt>
<trkpt lat="46.09325" lon="6.99205"><ele>1157.8</ele><time>2017-06-15T11:53:13Z</time></trkpt>
<trkpt lat="46.09325" lon="6.99204"><ele>1158.2</ele><time>2017-06-15T11:53:15Z</time></trkpt>
<trkpt lat="46.09325" lon="6.99203"><ele>1158.4</ele><time>2017-06-15T11:53:17Z</time></trkpt>
<trkpt lat="46.09325" lon="6.99202"><ele>1158.8</ele><time>2017-06-15T11:53:19Z</time></trkpt>
<trkpt lat="46.09325" lon="6.99201"><ele>1159</ele><time>2017-06-15T11:53:21Z</time></trkpt>
<trkpt lat="46.09325" lon="6.99201"><ele>1159.2</ele><time>2017-06-15T11:53:22Z</time></trkpt>
<trkpt lat="46.09324" lon="6.99201"><ele>1159.4</ele><time>2017-06-15T11:53:23Z</time></trkpt>
<trkpt lat="46.09322" lon="6.99201"><ele>1159.6</ele><time>2017-06-15T11:53:25Z</time></trkpt>
<trkpt lat="46.0932" lon="6.99201"><ele>1160</ele><time>2017-06-15T11:53:27Z</time></trkpt>
<trkpt lat="46.09319" lon="6.99201"><ele>1160.4</ele><time>2017-06-15T11:53:29Z</time></trkpt>
<trkpt lat="46.09317" lon="6.99201"><ele>1160.6</ele><time>2017-06-15T11:53:31Z</time></trkpt>
<trkpt lat="46.09315" lon="6.992"><ele>1161</ele><time>2017-06-15T11:53:33Z</time></trkpt>
<trkpt lat="46.09313" lon="6.992"><ele>1161.2</ele><time>2017-06-15T11:53:35Z</time></trkpt>
<trkpt lat="46.09311" lon="6.992"><ele>1161.4</ele><time>2017-06-15T11:53:37Z</time></trkpt>
<trkpt lat="46.09309" lon="6.992"><ele>1161.8</ele><time>2017-06-15T11:53:39Z</time></trkpt>
<trkpt lat="46.09308" lon="6.992"><ele>1162</ele><time>2017-06-15T11:53:41Z</time></trkpt>
<trkpt lat="46.09306" lon="6.992"><ele>1162.4</ele><time>2017-06-15T11:53:43Z</time></trkpt>
<trkpt lat="46.09304" lon="6.992"><ele>1162.6</ele><time>2017-06-15T11:53:45Z</time></trkpt>
<trkpt lat="46.09302" lon="6.992"><ele>1163</ele><time>2017-06-15T11:53:47Z</time></trkpt>
<trkpt lat="46.093" lon="6.992"><ele>1163.2</ele><time>2017-06-15T11:53:49Z</time></trkpt>
<trkpt lat="46.09298" lon="6.992"><ele>1163.6</ele><time>2017-06-15T11:53:51Z</time></trkpt>
<trkpt lat="46.09297" lon="6.992"><ele>1163.8</ele><time>2017-06-15T11:53:53Z</time></trkpt>
<trkpt lat="46.09295" lon="6.99199"><ele>1164.2</ele><time>2017-06-15T11:53:55Z</time></trkpt>
<trkpt lat="46.09293" lon="6.99199"><ele>1164.4</ele><time>2017-06-15T11:53:57Z</time></trkpt>
<trkpt lat="46.09291" lon="6.99199"><ele>1164.6</ele><time>2017-06-15T11:53:59Z</time></trkpt>
<trkpt lat="46.09289" lon="6.99199"><ele>1165</ele><time>2017-06-15T11:54:01Z</time></trkpt>
<trkpt lat="46.09287" lon="6.99199"><ele>1165.2</ele><time>2017-06-15T11:54:03Z</time></trkpt>
<trkpt lat="46.09286" lon="6.99199"><ele>1165.6</ele><time>2017-06-15T11:54:05Z</time></trkpt>
<trkpt lat="46.09284" lon="6.99199"><ele>1165.8</ele><time>2017-06-15T11:54:07Z</time></trkpt>
<trkpt lat="46.09282" lon="6.99199"><ele>1166</ele><time>2017-06-15T11:54:09Z</time></trkpt>
<trkpt lat="46.0928" lon="6.99199"><ele>1166.4</ele><time>2017-06-15T11:54:11Z</time></trkpt>
<trkpt lat="46.0928" lon="6.99199"><ele>1166.6</ele><time>2017-06-15T11:54:13Z</time></trkpt>
<trkpt lat="46.0928" lon="6.99198"><ele>1167</ele><time>2017-06-15T11:54:15Z</time></trkpt>
<trkpt lat="46.09279" lon="6.99198"><ele>1167.2</ele><time>2017-06-15T11:54:17Z</time></trkpt>
<trkpt lat="46.09279" lon="6.99198"><ele>1167.4</ele><time>2017-06-15T11:54:18Z</time></trkpt>
<trkpt lat="46.09279" lon="6.99198"><ele>1167.4</ele><time>2017-06-15T11:54:19Z</time></trkpt>
<trkpt lat="46.09278" lon="6.99198"><ele>1167.8</ele><time>2017-06-15T11:54:21Z</time></trkpt>
<trkpt lat="46.09278" lon="6.99198"><ele>1168</ele><time>2017-06-15T11:54:23Z</time></trkpt>
<trkpt lat="46.09278" lon="6.99198"><ele>1168.2</ele><time>2017-06-15T11:54:25Z</time></trkpt>
<trkpt lat="46.09277" lon="6.99198"><ele>1168.6</ele><time>2017-06-15T11:54:27Z</time></trkpt>
<trkpt lat="46.09277" lon="6.99198"><ele>1168.8</ele><time>2017-06-15T11:54:29Z</time></trkpt>
<trkpt lat="46.09277" lon="6.99197"><ele>1169</ele><time>2017-06-15T11:54:31Z</time></trkpt>
<trkpt lat="46.09276" lon="6.99197"><ele>1169.4</ele><time>2017-06-15T11:54:33Z</time></trkpt>
<trkpt lat="46.09276" lon="6.99197"><ele>1169.6</ele><time>2017-06-15T11:54:35Z</time></trkpt>
<trkpt lat="46.09276" lon="6.99197"><ele>1169.8</ele><time>2017-06-15T11:54:37Z</time></trkpt>
<trkpt lat="46.09275" lon="6.99197"><ele>1170.2</ele><time>2017-06-15T11:54:39Z</time></trkpt>
<trkpt lat="46.09275" lon="6.99197"><ele>1170.4</ele><time>2017-06-15T11:54:41Z</time></trkpt>
<trkpt lat="46.09275" lon="6.99197"><ele>1170.8</ele><time>2017-06-15T11:54:43Z</time></trkpt>
<trkpt lat="46.09274" lon="6.99196"><ele>1171.2</ele><time>2017-06-15T11:54:45Z</time></trkpt>
<trkpt lat="46.09274" lon="6.99196"><ele>1171.4</ele><time>2017-06-15T11:54:47Z</time></trkpt>
<trkpt lat="46.09275" lon="6.99196"><ele>1171.8</ele><time>2017-06-15T11:54:49Z</time></trkpt>
<trkpt lat="46.09275" lon="6.99195"><ele>1172</ele><time>2017-06-15T11:54:51Z</time></trkpt>
<trkpt lat="46.09275" lon="6.99195"><ele>1172.4</ele><time>2017-06-15T11:54:53Z</time></trkpt>
<trkpt lat="46.09275" lon="6.99194"><ele>1172.8</ele><time>2017-06-15T11:54:55Z</time></trkpt>
<trkpt lat="46.09275" lon="6.99194"><ele>1173</ele><time>2017-06-15T11:54:57Z</time></trkpt>
<trkpt lat="46.09275" lon="6.99193"><ele>1173.4</ele><time>2017-06-15T11:54:59Z</time></trkpt>
<trkpt lat="46.09276" lon="6.99193"><ele>1173.8</ele><time>2017-06-15T11:55:01Z</time></trkpt>
<trkpt lat="46.09276" lon="6.99193"><ele>1174</ele><time>2017-06-15T11:55:02Z</time></trkpt>
<trkpt lat="46.09276" lon="6.99192"><ele>1174</ele><time>2017-06-15T11:55:03Z</time></trkpt>
<trkpt lat="46.09276" lon="6.99192"><ele>1174.4</ele><time>2017-06-15T11:55:05Z</time></trkpt>
<trkpt lat="46.09276" lon="6.99192"><ele>1174.8</ele><time>2017-06-15T11:55:07Z</time></trkpt>
<trkpt lat="46.09276" lon="6.99191"><ele>1175</ele><time>2017-06-15T11:55:09Z</time></trkpt>
<trkpt lat="46.09276" lon="6.99191"><ele>1175.4</ele><time>2017-06-15T11:55:11Z</time></trkpt>
<trkpt lat="46.09277" lon="6.9919"><ele>1175.8</ele><time>2017-06-15T11:55:13Z</time></trkpt>
<trkpt lat="46.09277" lon="6.9919"><ele>1176</ele><time>2017-06-15T11:55:15Z</time></trkpt>
<trkpt lat="46.09277" lon="6.99189"><ele>1176.4</ele><time>2017-06-15T11:55:17Z</time></trkpt>
<trkpt lat="46.09277" lon="6.99189"><ele>1176.6</ele><time>2017-06-15T11:55:19Z</time></trkpt>
<trkpt lat="46.09277" lon="6.99189"><ele>1177</ele><time>2017-06-15T11:55:21Z</time></trkpt>
<trkpt lat="46.09277" lon="6.99188"><ele>1177.2</ele><time>2017-06-15T11:55:22Z</time></trkpt>
<trkpt lat="46.09277" lon="6.99188"><ele>1177.4</ele><time>2017-06-15T11:55:23Z</time></trkpt>
<trkpt lat="46.09278" lon="6.99188"><ele>1177.6</ele><time>2017-06-15T11:55:25Z</time></trkpt>
<trkpt lat="46.09278" lon="6.99187"><ele>1178</ele><time>2017-06-15T11:55:27Z</time></trkpt>
<trkpt lat="46.09278" lon="6.99187"><ele>1178.2</ele><time>2017-06-15T11:55:29Z</time></trkpt>
<trkpt lat="46.09278" lon="6.99186"><ele>1178.6</ele><time>2017-06-15T11:55:31Z</time></trkpt>
<trkpt lat="46.09278" lon="6.99186"><ele>1178.8</ele><time>2017-06-15T11:55:33Z</time></trkpt>
<trkpt lat="46.09267" lon="6.99188"><ele>1182</ele><time>2017-06-15T11:55:36Z</time></trkpt>
<trkpt lat="46.09267" lon="6.99188"><ele>1182</ele><time>2017-06-15T11:56:35Z</time></trkpt>
<trkpt lat="46.09255" lon="6.99191"><ele>1184.8</ele><time>2017-06-15T11:56:37Z</time></trkpt>
<trkpt lat="46.09255" lon="6.99191"><ele>1184.8</ele><time>2017-06-15T11:56:39Z</time></trkpt>
<trkpt lat="46.09254" lon="6.99192"><ele>1185</ele><time>2017-06-15T11:56:41Z</time></trkpt>
<trkpt lat="46.09253" lon="6.99192"><ele>1185.2</ele><time>2017-06-15T11:56:43Z</time></trkpt>
<trkpt lat="46.09252" lon="6.99192"><ele>1185.4</ele><time>2017-06-15T11:56:45Z</time></trkpt>
<trkpt lat="46.09251" lon="6.99193"><ele>1185.6</ele><time>2017-06-15T11:56:47Z</time></trkpt>
<trkpt lat="46.0925" lon="6.99193"><ele>1185.6</ele><time>2017-06-15T11:56:48Z</time></trkpt>
<trkpt lat="46.0925" lon="6.99193"><ele>1185.6</ele><time>2017-06-15T11:56:49Z</time></trkpt>
<trkpt lat="46.09249" lon="6.99193"><ele>1185.8</ele><time>2017-06-15T11:56:51Z</time></trkpt>
<trkpt lat="46.09248" lon="6.99194"><ele>1186</ele><time>2017-06-15T11:56:53Z</time></trkpt>
<trkpt lat="46.09247" lon="6.99194"><ele>1186.2</ele><time>2017-06-15T11:56:55Z</time></trkpt>
<trkpt lat="46.09246" lon="6.99194"><ele>1186.4</ele><time>2017-06-15T11:56:57Z</time></trkpt>
<trkpt lat="46.09245" lon="6.99195"><ele>1186.6</ele><time>2017-06-15T11:56:59Z</time></trkpt>
<trkpt lat="46.09244" lon="6.99195"><ele>1186.8</ele><time>2017-06-15T11:57:01Z</time></trkpt>
<trkpt lat="46.09243" lon="6.99195"><ele>1187</ele><time>2017-06-15T11:57:03Z</time></trkpt>
<trkpt lat="46.09242" lon="6.99195"><ele>1187.2</ele><time>2017-06-15T11:57:05Z</time></trkpt>
<trkpt lat="46.09241" lon="6.99196"><ele>1187.4</ele><time>2017-06-15T11:57:07Z</time></trkpt>
<trkpt lat="46.0924" lon="6.99196"><ele>1187.6</ele><time>2017-06-15T11:57:09Z</time></trkpt>
<trkpt lat="46.09239" lon="6.99196"><ele>1187.8</ele><time>2017-06-15T11:57:11Z</time></trkpt>
<trkpt lat="46.09238" lon="6.99197"><ele>1188.2</ele><time>2017-06-15T11:57:13Z</time></trkpt>
<trkpt lat="46.09237" lon="6.99197"><ele>1188.6</ele><time>2017-06-15T11:57:15Z</time></trkpt>
<trkpt lat="46.09236" lon="6.99197"><ele>1188.8</ele><time>2017-06-15T11:57:17Z</time></trkpt>
<trkpt lat="46.09235" lon="6.99198"><ele>1189.2</ele><time>2017-06-15T11:57:19Z</time></trkpt>
<trkpt lat="46.09234" lon="6.99198"><ele>1189.6</ele><time>2017-06-15T11:57:21Z</time></trkpt>
<trkpt lat="46.09232" lon="6.99198"><ele>1190</ele><time>2017-06-15T11:57:23Z</time></trkpt>
<trkpt lat="46.0923" lon="6.99197"><ele>1190.4</ele><time>2017-06-15T11:57:25Z</time></trkpt>
<trkpt lat="46.09227" lon="6.99197"><ele>1190.6</ele><time>2017-06-15T11:57:27Z</time></trkpt>
<trkpt lat="46.09225" lon="6.99197"><ele>1191</ele><time>2017-06-15T11:57:29Z</time></trkpt>
<trkpt lat="46.09223" lon="6.99197"><ele>1191.4</ele><time>2017-06-15T11:57:31Z</time></trkpt>
<trkpt lat="46.09221" lon="6.99196"><ele>1191.6</ele><time>2017-06-15T11:57:32Z</time></trkpt>
<trkpt lat="46.0922" lon="6.99196"><ele>1191.8</ele><time>2017-06-15T11:57:33Z</time></trkpt>
<trkpt lat="46.09218" lon="6.99196"><ele>1192.2</ele><time>2017-06-15T11:57:35Z</time></trkpt>
<trkpt lat="46.09216" lon="6.99196"><ele>1192.6</ele><time>2017-06-15T11:57:37Z</time></trkpt>
<trkpt lat="46.09213" lon="6.99196"><ele>1193.2</ele><time>2017-06-15T11:57:39Z</time></trkpt>
<trkpt lat="46.09211" lon="6.99195"><ele>1193.6</ele><time>2017-06-15T11:57:41Z</time></trkpt>
<trkpt lat="46.09209" lon="6.99195"><ele>1194</ele><time>2017-06-15T11:57:43Z</time></trkpt>
<trkpt lat="46.09206" lon="6.99195"><ele>1194.4</ele><time>2017-06-15T11:57:45Z</time></trkpt>
<trkpt lat="46.09204" lon="6.99194"><ele>1194.8</ele><time>2017-06-15T11:57:47Z</time></trkpt>
<trkpt lat="46.09202" lon="6.99194"><ele>1195.2</ele><time>2017-06-15T11:57:49Z</time></trkpt>
<trkpt lat="46.09199" lon="6.99194"><ele>1195.6</ele><time>2017-06-15T11:57:51Z</time></trkpt>
<trkpt lat="46.09197" lon="6.99194"><ele>1195.8</ele><time>2017-06-15T11:57:53Z</time></trkpt>
<trkpt lat="46.09195" lon="6.99193"><ele>1196</ele><time>2017-06-15T11:57:55Z</time></trkpt>
<trkpt lat="46.09192" lon="6.99193"><ele>1196.4</ele><time>2017-06-15T11:57:57Z</time></trkpt>
<trkpt lat="46.0919" lon="6.99193"><ele>1196.6</ele><time>2017-06-15T11:57:59Z</time></trkpt>
<trkpt lat="46.09189" lon="6.99193"><ele>1196.8</ele><time>2017-06-15T11:58:00Z</time></trkpt>
<trkpt lat="46.09187" lon="6.99193"><ele>1196.8</ele><time>2017-06-15T11:58:01Z</time></trkpt>
<trkpt lat="46.09185" lon="6.99193"><ele>1197.2</ele><time>2017-06-15T11:58:03Z</time></trkpt>
<trkpt lat="46.09182" lon="6.99193"><ele>1197.4</ele><time>2017-06-15T11:58:05Z</time></trkpt>
<trkpt lat="46.0918" lon="6.99193"><ele>1197.8</ele><time>2017-06-15T11:58:07Z</time></trkpt>
<trkpt lat="46.09177" lon="6.99193"><ele>1198</ele><time>2017-06-15T11:58:09Z</time></trkpt>
<trkpt lat="46.09175" lon="6.99194"><ele>1198.2</ele><time>2017-06-15T11:58:11Z</time></trkpt>
<trkpt lat="46.09172" lon="6.99194"><ele>1198.6</ele><time>2017-06-15T11:58:13Z</time></trkpt>
<trkpt lat="46.0917" lon="6.99194"><ele>1198.8</ele><time>2017-06-15T11:58:15Z</time></trkpt>
<trkpt lat="46.09167" lon="6.99194"><ele>1199</ele><time>2017-06-15T11:58:17Z</time></trkpt>
<trkpt lat="46.09165" lon="6.99194"><ele>1199.4</ele><time>2017-06-15T11:58:19Z</time></trkpt>
<trkpt lat="46.09162" lon="6.99194"><ele>1199.6</ele><time>2017-06-15T11:58:21Z</time></trkpt>
<trkpt lat="46.0916" lon="6.99194"><ele>1200</ele><time>2017-06-15T11:58:23Z</time></trkpt>
<trkpt lat="46.09157" lon="6.99195"><ele>1200.2</ele><time>2017-06-15T11:58:25Z</time></trkpt>
<trkpt lat="46.09154" lon="6.99195"><ele>1200.6</ele><time>2017-06-15T11:58:27Z</time></trkpt>
<trkpt lat="46.09152" lon="6.99195"><ele>1200.8</ele><time>2017-06-15T11:58:29Z</time></trkpt>
<trkpt lat="46.09149" lon="6.99195"><ele>1201.2</ele><time>2017-06-15T11:58:31Z</time></trkpt>
<trkpt lat="46.09147" lon="6.99195"><ele>1201.4</ele><time>2017-06-15T11:58:33Z</time></trkpt>
<trkpt lat="46.09144" lon="6.99195"><ele>1201.8</ele><time>2017-06-15T11:58:35Z</time></trkpt>
<trkpt lat="46.09143" lon="6.99195"><ele>1201.8</ele><time>2017-06-15T11:58:36Z</time></trkpt>
<trkpt lat="46.09142" lon="6.99195"><ele>1202</ele><time>2017-06-15T11:58:37Z</time></trkpt>
<trkpt lat="46.09141" lon="6.99195"><ele>1202.2</ele><time>2017-06-15T11:58:38Z</time></trkpt>
<trkpt lat="46.09139" lon="6.99195"><ele>1202.4</ele><time>2017-06-15T11:58:39Z</time></trkpt>
<trkpt lat="46.09137" lon="6.99194"><ele>1202.6</ele><time>2017-06-15T11:58:41Z</time></trkpt>
<trkpt lat="46.09134" lon="6.99194"><ele>1203</ele><time>2017-06-15T11:58:43Z</time></trkpt>
<trkpt lat="46.09132" lon="6.99193"><ele>1203.2</ele><time>2017-06-15T11:58:45Z</time></trkpt>
<trkpt lat="46.09129" lon="6.99193"><ele>1203.4</ele><time>2017-06-15T11:58:47Z</time></trkpt>
<trkpt lat="46.09127" lon="6.99192"><ele>1203.8</ele><time>2017-06-15T11:58:49Z</time></trkpt>
<trkpt lat="46.09124" lon="6.99192"><ele>1204</ele><time>2017-06-15T11:58:51Z</time></trkpt>
<trkpt lat="46.09122" lon="6.99191"><ele>1204.4</ele><time>2017-06-15T11:58:53Z</time></trkpt>
<trkpt lat="46.09119" lon="6.99191"><ele>1204.6</ele><time>2017-06-15T11:58:55Z</time></trkpt>
<trkpt lat="46.09117" lon="6.9919"><ele>1205</ele><time>2017-06-15T11:58:57Z</time></trkpt>
<trkpt lat="46.09114" lon="6.9919"><ele>1205.2</ele><time>2017-06-15T11:58:59Z</time></trkpt>
<trkpt lat="46.09113" lon="6.99189"><ele>1205.4</ele><time>2017-06-15T11:59:00Z</time></trkpt>
<trkpt lat="46.09111" lon="6.99189"><ele>1205.6</ele><time>2017-06-15T11:59:01Z</time></trkpt>
<trkpt lat="46.09109" lon="6.99189"><ele>1205.8</ele><time>2017-06-15T11:59:03Z</time></trkpt>
<trkpt lat="46.09106" lon="6.99188"><ele>1206</ele><time>2017-06-15T11:59:05Z</time></trkpt>
<trkpt lat="46.09104" lon="6.99188"><ele>1206.2</ele><time>2017-06-15T11:59:07Z</time></trkpt>
<trkpt lat="46.09101" lon="6.99187"><ele>1206.6</ele><time>2017-06-15T11:59:09Z</time></trkpt>
<trkpt lat="46.09099" lon="6.99187"><ele>1206.8</ele><time>2017-06-15T11:59:11Z</time></trkpt>
<trkpt lat="46.09098" lon="6.99186"><ele>1206.8</ele><time>2017-06-15T11:59:12Z</time></trkpt>
<trkpt lat="46.09097" lon="6.99186"><ele>1207</ele><time>2017-06-15T11:59:13Z</time></trkpt>
<trkpt lat="46.09096" lon="6.99184"><ele>1207.2</ele><time>2017-06-15T11:59:15Z</time></trkpt>
<trkpt lat="46.09095" lon="6.99182"><ele>1207.6</ele><time>2017-06-15T11:59:17Z</time></trkpt>
<trkpt lat="46.09094" lon="6.99181"><ele>1207.8</ele><time>2017-06-15T11:59:19Z</time></trkpt>
<trkpt lat="46.09093" lon="6.99179"><ele>1208</ele><time>2017-06-15T11:59:21Z</time></trkpt>
<trkpt lat="46.09092" lon="6.99178"><ele>1208.2</ele><time>2017-06-15T11:59:23Z</time></trkpt>
<trkpt lat="46.09095" lon="6.99176"><ele>1208.6</ele><time>2017-06-15T11:59:25Z</time></trkpt>
<trkpt lat="46.09098" lon="6.99175"><ele>1208.8</ele><time>2017-06-15T11:59:27Z</time></trkpt>
<trkpt lat="46.09101" lon="6.99174"><ele>1209</ele><time>2017-06-15T11:59:29Z</time></trkpt>
<trkpt lat="46.09103" lon="6.99173"><ele>1209.4</ele><time>2017-06-15T11:59:31Z</time></trkpt>
<trkpt lat="46.09106" lon="6.99172"><ele>1209.6</ele><time>2017-06-15T11:59:33Z</time></trkpt>
<trkpt lat="46.09109" lon="6.99171"><ele>1209.8</ele><time>2017-06-15T11:59:35Z</time></trkpt>
<trkpt lat="46.09112" lon="6.9917"><ele>1210.2</ele><time>2017-06-15T11:59:37Z</time></trkpt>
<trkpt lat="46.09114" lon="6.99169"><ele>1210.4</ele><time>2017-06-15T11:59:39Z</time></trkpt>
<trkpt lat="46.09117" lon="6.99168"><ele>1210.6</ele><time>2017-06-15T11:59:41Z</time></trkpt>
<trkpt lat="46.0912" lon="6.99166"><ele>1211</ele><time>2017-06-15T11:59:43Z</time></trkpt>
<trkpt lat="46.09123" lon="6.99165"><ele>1211.2</ele><time>2017-06-15T11:59:45Z</time></trkpt>
<trkpt lat="46.09125" lon="6.99164"><ele>1211.4</ele><time>2017-06-15T11:59:47Z</time></trkpt>
<trkpt lat="46.09128" lon="6.99163"><ele>1211.8</ele><time>2017-06-15T11:59:49Z</time></trkpt>
<trkpt lat="46.09131" lon="6.99162"><ele>1212</ele><time>2017-06-15T11:59:51Z</time></trkpt>
<trkpt lat="46.09133" lon="6.99161"><ele>1212.2</ele><time>2017-06-15T11:59:53Z</time></trkpt>
<trkpt lat="46.09135" lon="6.9916"><ele>1212.6</ele><time>2017-06-15T11:59:55Z</time></trkpt>
<trkpt lat="46.09133" lon="6.9916"><ele>1212.8</ele><time>2017-06-15T11:59:57Z</time></trkpt>
<trkpt lat="46.0913" lon="6.99159"><ele>1213.2</ele><time>2017-06-15T11:59:59Z</time></trkpt>
<trkpt lat="46.09128" lon="6.99159"><ele>1213.4</ele><time>2017-06-15T12:00:01Z</time></trkpt>
<trkpt lat="46.09126" lon="6.99159"><ele>1213.6</ele><time>2017-06-15T12:00:03Z</time></trkpt>
<trkpt lat="46.09123" lon="6.99158"><ele>1214</ele><time>2017-06-15T12:00:05Z</time></trkpt>
<trkpt lat="46.09121" lon="6.99158"><ele>1214.2</ele><time>2017-06-15T12:00:07Z</time></trkpt>
<trkpt lat="46.09118" lon="6.99158"><ele>1214.4</ele><time>2017-06-15T12:00:09Z</time></trkpt>
<trkpt lat="46.09116" lon="6.99158"><ele>1214.8</ele><time>2017-06-15T12:00:11Z</time></trkpt>
<trkpt lat="46.09114" lon="6.99157"><ele>1215</ele><time>2017-06-15T12:00:12Z</time></trkpt>
<trkpt lat="46.09113" lon="6.99157"><ele>1215</ele><time>2017-06-15T12:00:13Z</time></trkpt>
<trkpt lat="46.09111" lon="6.99157"><ele>1215.4</ele><time>2017-06-15T12:00:15Z</time></trkpt>
<trkpt lat="46.09108" lon="6.99157"><ele>1215.6</ele><time>2017-06-15T12:00:17Z</time></trkpt>
<trkpt lat="46.09106" lon="6.99156"><ele>1216</ele><time>2017-06-15T12:00:19Z</time></trkpt>
<trkpt lat="46.09103" lon="6.99156"><ele>1216.2</ele><time>2017-06-15T12:00:21Z</time></trkpt>
<trkpt lat="46.09101" lon="6.99156"><ele>1216.6</ele><time>2017-06-15T12:00:23Z</time></trkpt>
<trkpt lat="46.09098" lon="6.99155"><ele>1216.8</ele><time>2017-06-15T12:00:25Z</time></trkpt>
<trkpt lat="46.09096" lon="6.99155"><ele>1217.2</ele><time>2017-06-15T12:00:27Z</time></trkpt>
<trkpt lat="46.09094" lon="6.99155"><ele>1217.4</ele><time>2017-06-15T12:00:29Z</time></trkpt>
<trkpt lat="46.09091" lon="6.99155"><ele>1217.6</ele><time>2017-06-15T12:00:31Z</time></trkpt>
<trkpt lat="46.0909" lon="6.99154"><ele>1217.8</ele><time>2017-06-15T12:00:32Z</time></trkpt>
<trkpt lat="46.09088" lon="6.99154"><ele>1218</ele><time>2017-06-15T12:00:33Z</time></trkpt>
<trkpt lat="46.09085" lon="6.99154"><ele>1218.2</ele><time>2017-06-15T12:00:35Z</time></trkpt>
<trkpt lat="46.09083" lon="6.99154"><ele>1218.6</ele><time>2017-06-15T12:00:37Z</time></trkpt>
<trkpt lat="46.0908" lon="6.99154"><ele>1218.8</ele><time>2017-06-15T12:00:39Z</time></trkpt>
<trkpt lat="46.09077" lon="6.99154"><ele>1219.2</ele><time>2017-06-15T12:00:41Z</time></trkpt>
<trkpt lat="46.09074" lon="6.99153"><ele>1219.4</ele><time>2017-06-15T12:00:43Z</time></trkpt>
<trkpt lat="46.09071" lon="6.99153"><ele>1219.8</ele><time>2017-06-15T12:00:45Z</time></trkpt>
<trkpt lat="46.09068" lon="6.99153"><ele>1220</ele><time>2017-06-15T12:00:47Z</time></trkpt>
<trkpt lat="46.09065" lon="6.99153"><ele>1220.4</ele><time>2017-06-15T12:00:49Z</time></trkpt>
<trkpt lat="46.09062" lon="6.99153"><ele>1220.6</ele><time>2017-06-15T12:00:51Z</time></trkpt>
<trkpt lat="46.09059" lon="6.99153"><ele>1220.8</ele><time>2017-06-15T12:00:53Z</time></trkpt>
<trkpt lat="46.09056" lon="6.99152"><ele>1221.2</ele><time>2017-06-15T12:00:55Z</time></trkpt>
<trkpt lat="46.09054" lon="6.99152"><ele>1221.4</ele><time>2017-06-15T12:00:57Z</time></trkpt>
<trkpt lat="46.09052" lon="6.99152"><ele>1221.6</ele><time>2017-06-15T12:00:58Z</time></trkpt>
<trkpt lat="46.09051" lon="6.99152"><ele>1221.8</ele><time>2017-06-15T12:00:59Z</time></trkpt>
<trkpt lat="46.09048" lon="6.99152"><ele>1222</ele><time>2017-06-15T12:01:01Z</time></trkpt>
<trkpt lat="46.09046" lon="6.99151"><ele>1222.2</ele><time>2017-06-15T12:01:03Z</time></trkpt>
<trkpt lat="46.09048" lon="6.9915"><ele>1222.4</ele><time>2017-06-15T12:01:05Z</time></trkpt>
<trkpt lat="46.09051" lon="6.99148"><ele>1222.8</ele><time>2017-06-15T12:01:07Z</time></trkpt>
<trkpt lat="46.09054" lon="6.99147"><ele>1223</ele><time>2017-06-15T12:01:09Z</time></trkpt>
<trkpt lat="46.09056" lon="6.99145"><ele>1223.2</ele><time>2017-06-15T12:01:11Z</time></trkpt>
<trkpt lat="46.09059" lon="6.99143"><ele>1223.4</ele><time>2017-06-15T12:01:13Z</time></trkpt>
<trkpt lat="46.09061" lon="6.99142"><ele>1223.6</ele><time>2017-06-15T12:01:15Z</time></trkpt>
<trkpt lat="46.09064" lon="6.9914"><ele>1224</ele><time>2017-06-15T12:01:17Z</time></trkpt>
<trkpt lat="46.09067" lon="6.99139"><ele>1224.2</ele><time>2017-06-15T12:01:19Z</time></trkpt>
<trkpt lat="46.09069" lon="6.99137"><ele>1224.4</ele><time>2017-06-15T12:01:21Z</time></trkpt>
<trkpt lat="46.09072" lon="6.99135"><ele>1224.8</ele><time>2017-06-15T12:01:23Z</time></trkpt>
<trkpt lat="46.09074" lon="6.99134"><ele>1225</ele><time>2017-06-15T12:01:25Z</time></trkpt>
<trkpt lat="46.09077" lon="6.99132"><ele>1225.2</ele><time>2017-06-15T12:01:27Z</time></trkpt>
<trkpt lat="46.09079" lon="6.99131"><ele>1225.6</ele><time>2017-06-15T12:01:29Z</time></trkpt>
<trkpt lat="46.09082" lon="6.99129"><ele>1225.8</ele><time>2017-06-15T12:01:31Z</time></trkpt>
<trkpt lat="46.09085" lon="6.99127"><ele>1226.2</ele><time>2017-06-15T12:01:33Z</time></trkpt>
<trkpt lat="46.09087" lon="6.99126"><ele>1226.4</ele><time>2017-06-15T12:01:35Z</time></trkpt>
<trkpt lat="46.0909" lon="6.99126"><ele>1226.6</ele><time>2017-06-15T12:01:37Z</time></trkpt>
<trkpt lat="46.09092" lon="6.99125"><ele>1227</ele><time>2017-06-15T12:01:39Z</time></trkpt>
<trkpt lat="46.09094" lon="6.99125"><ele>1227.2</ele><time>2017-06-15T12:01:41Z</time></trkpt>
<trkpt lat="46.09096" lon="6.99125"><ele>1227.6</ele><time>2017-06-15T12:01:43Z</time></trkpt>
<trkpt lat="46.09099" lon="6.99124"><ele>1227.8</ele><time>2017-06-15T12:01:45Z</time></trkpt>
<trkpt lat="46.09101" lon="6.99124"><ele>1228.2</ele><time>2017-06-15T12:01:47Z</time></trkpt>
<trkpt lat="46.09103" lon="6.99124"><ele>1228.4</ele><time>2017-06-15T12:01:49Z</time></trkpt>
<trkpt lat="46.09106" lon="6.99123"><ele>1228.8</ele><time>2017-06-15T12:01:51Z</time></trkpt>
<trkpt lat="46.09108" lon="6.99123"><ele>1229</ele><time>2017-06-15T12:01:53Z</time></trkpt>
<trkpt lat="46.0911" lon="6.99123"><ele>1229.4</ele><time>2017-06-15T12:01:55Z</time></trkpt>
<trkpt lat="46.09112" lon="6.99122"><ele>1229.6</ele><time>2017-06-15T12:01:57Z</time></trkpt>
<trkpt lat="46.09114" lon="6.99122"><ele>1229.8</ele><time>2017-06-15T12:01:58Z</time></trkpt>
<trkpt lat="46.09115" lon="6.99122"><ele>1229.8</ele><time>2017-06-15T12:01:59Z</time></trkpt>
<trkpt lat="46.09117" lon="6.99122"><ele>1230.2</ele><time>2017-06-15T12:02:01Z</time></trkpt>
<trkpt lat="46.09119" lon="6.99122"><ele>1230.4</ele><time>2017-06-15T12:02:03Z</time></trkpt>
<trkpt lat="46.09122" lon="6.99121"><ele>1230.8</ele><time>2017-06-15T12:02:05Z</time></trkpt>
<trkpt lat="46.09124" lon="6.99121"><ele>1231</ele><time>2017-06-15T12:02:07Z</time></trkpt>
<trkpt lat="46.09126" lon="6.99121"><ele>1231.2</ele><time>2017-06-15T12:02:09Z</time></trkpt>
<trkpt lat="46.09129" lon="6.9912"><ele>1231.6</ele><time>2017-06-15T12:02:11Z</time></trkpt>
<trkpt lat="46.09131" lon="6.9912"><ele>1231.8</ele><time>2017-06-15T12:02:13Z</time></trkpt>
<trkpt lat="46.09132" lon="6.99119"><ele>1232.2</ele><time>2017-06-15T12:02:15Z</time></trkpt>
<trkpt lat="46.0913" lon="6.99119"><ele>1232.4</ele><time>2017-06-15T12:02:17Z</time></trkpt>
<trkpt lat="46.09128" lon="6.99118"><ele>1232.6</ele><time>2017-06-15T12:02:19Z</time></trkpt>
<trkpt lat="46.09126" lon="6.99117"><ele>1233</ele><time>2017-06-15T12:02:21Z</time></trkpt>
<trkpt lat="46.09124" lon="6.99116"><ele>1233.2</ele><time>2017-06-15T12:02:23Z</time></trkpt>
<trkpt lat="46.09123" lon="6.99115"><ele>1233.4</ele><time>2017-06-15T12:02:24Z</time></trkpt>
<trkpt lat="46.09122" lon="6.99115"><ele>1233.6</ele><time>2017-06-15T12:02:25Z</time></trkpt>
<trkpt lat="46.0912" lon="6.99114"><ele>1233.8</ele><time>2017-06-15T12:02:27Z</time></trkpt>
<trkpt lat="46.09118" lon="6.99113"><ele>1234</ele><time>2017-06-15T12:02:29Z</time></trkpt>
<trkpt lat="46.09116" lon="6.99112"><ele>1234.4</ele><time>2017-06-15T12:02:31Z</time></trkpt>
<trkpt lat="46.09114" lon="6.99111"><ele>1234.6</ele><time>2017-06-15T12:02:33Z</time></trkpt>
<trkpt lat="46.09112" lon="6.9911"><ele>1234.8</ele><time>2017-06-15T12:02:35Z</time></trkpt>
<trkpt lat="46.0911" lon="6.99109"><ele>1235.2</ele><time>2017-06-15T12:02:37Z</time></trkpt>
<trkpt lat="46.09108" lon="6.99109"><ele>1235.4</ele><time>2017-06-15T12:02:39Z</time></trkpt>
<trkpt lat="46.09106" lon="6.99108"><ele>1235.8</ele><time>2017-06-15T12:02:41Z</time></trkpt>
<trkpt lat="46.09103" lon="6.99107"><ele>1236</ele><time>2017-06-15T12:02:43Z</time></trkpt>
<trkpt lat="46.09101" lon="6.99106"><ele>1236.2</ele><time>2017-06-15T12:02:45Z</time></trkpt>
<trkpt lat="46.09099" lon="6.99105"><ele>1236.6</ele><time>2017-06-15T12:02:47Z</time></trkpt>
<trkpt lat="46.09097" lon="6.99104"><ele>1236.8</ele><time>2017-06-15T12:02:49Z</time></trkpt>
<trkpt lat="46.09096" lon="6.99104"><ele>1237</ele><time>2017-06-15T12:02:50Z</time></trkpt>
<trkpt lat="46.09095" lon="6.99103"><ele>1237</ele><time>2017-06-15T12:02:51Z</time></trkpt>
<trkpt lat="46.09093" lon="6.99102"><ele>1237.4</ele><time>2017-06-15T12:02:53Z</time></trkpt>
<trkpt lat="46.09091" lon="6.99101"><ele>1237.6</ele><time>2017-06-15T12:02:55Z</time></trkpt>
<trkpt lat="46.09089" lon="6.99101"><ele>1238</ele><time>2017-06-15T12:02:57Z</time></trkpt>
<trkpt lat="46.09088" lon="6.99101"><ele>1238.2</ele><time>2017-06-15T12:02:59Z</time></trkpt>
<trkpt lat="46.09087" lon="6.99101"><ele>1238.6</ele><time>2017-06-15T12:03:01Z</time></trkpt>
<trkpt lat="46.09086" lon="6.99101"><ele>1238.8</ele><time>2017-06-15T12:03:03Z</time></trkpt>
<trkpt lat="46.09085" lon="6.99101"><ele>1239.2</ele><time>2017-06-15T12:03:05Z</time></trkpt>
<trkpt lat="46.09084" lon="6.99101"><ele>1239.6</ele><time>2017-06-15T12:03:07Z</time></trkpt>
<trkpt lat="46.09083" lon="6.99102"><ele>1239.8</ele><time>2017-06-15T12:03:09Z</time></trkpt>
<trkpt lat="46.09082" lon="6.99102"><ele>1240.2</ele><time>2017-06-15T12:03:11Z</time></trkpt>
<trkpt lat="46.09082" lon="6.99102"><ele>1240.2</ele><time>2017-06-15T12:03:12Z</time></trkpt>
<trkpt lat="46.09061" lon="6.99105"><ele>1242.4</ele><time>2017-06-15T12:03:14Z</time></trkpt>
<trkpt lat="46.09061" lon="6.99105"><ele>1242.4</ele><time>2017-06-15T12:04:27Z</time></trkpt>
<trkpt lat="46.09041" lon="6.99107"><ele>1244.4</ele><time>2017-06-15T12:04:29Z</time></trkpt>
<trkpt lat="46.09038" lon="6.99105"><ele>1244.4</ele><time>2017-06-15T12:04:31Z</time></trkpt>
<trkpt lat="46.09034" lon="6.99104"><ele>1244.6</ele><time>2017-06-15T12:04:33Z</time></trkpt>
<trkpt lat="46.09031" lon="6.99102"><ele>1244.6</ele><time>2017-06-15T12:04:35Z</time></trkpt>
<trkpt lat="46.09029" lon="6.99101"><ele>1244.6</ele><time>2017-06-15T12:04:36Z</time></trkpt>
<trkpt lat="46.09028" lon="6.991"><ele>1244.8</ele><time>2017-06-15T12:04:37Z</time></trkpt>
<trkpt lat="46.09025" lon="6.99099"><ele>1245</ele><time>2017-06-15T12:04:39Z</time></trkpt>
<trkpt lat="46.09024" lon="6.99098"><ele>1245.2</ele><time>2017-06-15T12:04:40Z</time></trkpt>
<trkpt lat="46.09025" lon="6.99096"><ele>1245.2</ele><time>2017-06-15T12:04:41Z</time></trkpt>
<trkpt lat="46.09028" lon="6.99092"><ele>1245.4</ele><time>2017-06-15T12:04:43Z</time></trkpt>
<trkpt lat="46.0903" lon="6.99088"><ele>1245.6</ele><time>2017-06-15T12:04:45Z</time></trkpt>
<trkpt lat="46.09033" lon="6.99084"><ele>1245.8</ele><time>2017-06-15T12:04:47Z</time></trkpt>
<trkpt lat="46.09034" lon="6.99083"><ele>1246</ele><time>2017-06-15T12:04:48Z</time></trkpt>
<trkpt lat="46.09036" lon="6.99083"><ele>1246.2</ele><time>2017-06-15T12:04:49Z</time></trkpt>
<trkpt lat="46.09039" lon="6.99083"><ele>1246.4</ele><time>2017-06-15T12:04:51Z</time></trkpt>
<trkpt lat="46.0904" lon="6.99083"><ele>1246.4</ele><time>2017-06-15T12:04:52Z</time></trkpt>
<trkpt lat="46.09041" lon="6.99083"><ele>1246.6</ele><time>2017-06-15T12:04:53Z</time></trkpt>
<trkpt lat="46.09044" lon="6.99083"><ele>1247</ele><time>2017-06-15T12:04:55Z</time></trkpt>
<trkpt lat="46.09047" lon="6.99082"><ele>1247.4</ele><time>2017-06-15T12:04:57Z</time></trkpt>
<trkpt lat="46.0905" lon="6.99082"><ele>1247.6</ele><time>2017-06-15T12:04:59Z</time></trkpt>
<trkpt lat="46.09052" lon="6.99082"><ele>1248</ele><time>2017-06-15T12:05:01Z</time></trkpt>
<trkpt lat="46.09055" lon="6.99082"><ele>1248.4</ele><time>2017-06-15T12:05:03Z</time></trkpt>
<trkpt lat="46.09058" lon="6.99082"><ele>1248.6</ele><time>2017-06-15T12:05:05Z</time></trkpt>
<trkpt lat="46.09061" lon="6.99082"><ele>1248.8</ele><time>2017-06-15T12:05:07Z</time></trkpt>
<trkpt lat="46.09064" lon="6.99082"><ele>1249.2</ele><time>2017-06-15T12:05:09Z</time></trkpt>
<trkpt lat="46.09066" lon="6.99082"><ele>1249.4</ele><time>2017-06-15T12:05:11Z</time></trkpt>
<trkpt lat="46.09069" lon="6.99082"><ele>1249.6</ele><time>2017-06-15T12:05:13Z</time></trkpt>
<trkpt lat="46.09072" lon="6.99082"><ele>1250</ele><time>2017-06-15T12:05:15Z</time></trkpt>
<trkpt lat="46.09075" lon="6.99082"><ele>1250.2</ele><time>2017-06-15T12:05:17Z</time></trkpt>
<trkpt lat="46.09075" lon="6.99082"><ele>1250.4</ele><time>2017-06-15T12:05:18Z</time></trkpt>
<trkpt lat="46.09074" lon="6.99081"><ele>1250.4</ele><time>2017-06-15T12:05:19Z</time></trkpt>
<trkpt lat="46.09072" lon="6.9908"><ele>1250.8</ele><time>2017-06-15T12:05:21Z</time></trkpt>
<trkpt lat="46.0907" lon="6.99079"><ele>1251</ele><time>2017-06-15T12:05:23Z</time></trkpt>
<trkpt lat="46.09067" lon="6.99077"><ele>1251.4</ele><time>2017-06-15T12:05:25Z</time></trkpt>
<trkpt lat="46.09065" lon="6.99076"><ele>1251.6</ele><time>2017-06-15T12:05:27Z</time></trkpt>
<trkpt lat="46.09063" lon="6.99074"><ele>1251.8</ele><time>2017-06-15T12:05:29Z</time></trkpt>
<trkpt lat="46.09062" lon="6.99074"><ele>1252</ele><time>2017-06-15T12:05:30Z</time></trkpt>
<trkpt lat="46.09061" lon="6.99073"><ele>1252.2</ele><time>2017-06-15T12:05:31Z</time></trkpt>
<trkpt lat="46.09058" lon="6.99071"><ele>1252.4</ele><time>2017-06-15T12:05:33Z</time></trkpt>
<trkpt lat="46.09056" lon="6.9907"><ele>1252.6</ele><time>2017-06-15T12:05:35Z</time></trkpt>
<trkpt lat="46.09054" lon="6.99069"><ele>1253</ele><time>2017-06-15T12:05:37Z</time></trkpt>
<trkpt lat="46.09052" lon="6.99067"><ele>1253.2</ele><time>2017-06-15T12:05:39Z</time></trkpt>
<trkpt lat="46.09049" lon="6.99066"><ele>1253.6</ele><time>2017-06-15T12:05:41Z</time></trkpt>
<trkpt lat="46.09047" lon="6.99064"><ele>1253.8</ele><time>2017-06-15T12:05:43Z</time></trkpt>
<trkpt lat="46.09045" lon="6.99063"><ele>1254</ele><time>2017-06-15T12:05:45Z</time></trkpt>
<trkpt lat="46.09043" lon="6.99061"><ele>1254.4</ele><time>2017-06-15T12:05:47Z</time></trkpt>
<trkpt lat="46.09041" lon="6.9906"><ele>1254.6</ele><time>2017-06-15T12:05:49Z</time></trkpt>
<trkpt lat="46.09038" lon="6.99058"><ele>1255</ele><time>2017-06-15T12:05:51Z</time></trkpt>
<trkpt lat="46.09036" lon="6.99057"><ele>1255.2</ele><time>2017-06-15T12:05:53Z</time></trkpt>
<trkpt lat="46.09034" lon="6.99056"><ele>1255.4</ele><time>2017-06-15T12:05:55Z</time></trkpt>
<trkpt lat="46.09033" lon="6.99055"><ele>1255.6</ele><time>2017-06-15T12:05:56Z</time></trkpt>
<trkpt lat="46.09031" lon="6.99055"><ele>1255.8</ele><time>2017-06-15T12:05:57Z</time></trkpt>
<trkpt lat="46.09029" lon="6.99056"><ele>1256</ele><time>2017-06-15T12:05:59Z</time></trkpt>
<trkpt lat="46.09026" lon="6.99056"><ele>1256.4</ele><time>2017-06-15T12:06:01Z</time></trkpt>
<trkpt lat="46.09023" lon="6.99057"><ele>1256.6</ele><time>2017-06-15T12:06:03Z</time></trkpt>
<trkpt lat="46.09021" lon="6.99057"><ele>1257</ele><time>2017-06-15T12:06:05Z</time></trkpt>
<trkpt lat="46.09018" lon="6.99057"><ele>1257.2</ele><time>2017-06-15T12:06:07Z</time></trkpt>
<trkpt lat="46.09015" lon="6.99058"><ele>1257.6</ele><time>2017-06-15T12:06:09Z</time></trkpt>
<trkpt lat="46.09013" lon="6.99058"><ele>1257.8</ele><time>2017-06-15T12:06:11Z</time></trkpt>
<trkpt lat="46.0901" lon="6.99059"><ele>1258.2</ele><time>2017-06-15T12:06:13Z</time></trkpt>
<trkpt lat="46.09007" lon="6.99059"><ele>1258.6</ele><time>2017-06-15T12:06:15Z</time></trkpt>
<trkpt lat="46.09005" lon="6.99059"><ele>1258.8</ele><time>2017-06-15T12:06:17Z</time></trkpt>
<trkpt lat="46.09003" lon="6.9906"><ele>1259</ele><time>2017-06-15T12:06:18Z</time></trkpt>
<trkpt lat="46.09002" lon="6.9906"><ele>1259.2</ele><time>2017-06-15T12:06:19Z</time></trkpt>
<trkpt lat="46.08999" lon="6.9906"><ele>1259.4</ele><time>2017-06-15T12:06:21Z</time></trkpt>
<trkpt lat="46.08997" lon="6.99061"><ele>1259.8</ele><time>2017-06-15T12:06:23Z</time></trkpt>
<trkpt lat="46.08994" lon="6.99061"><ele>1260</ele><time>2017-06-15T12:06:25Z</time></trkpt>
<trkpt lat="46.08991" lon="6.99061"><ele>1260.2</ele><time>2017-06-15T12:06:27Z</time></trkpt>
<trkpt lat="46.08989" lon="6.99062"><ele>1260.6</ele><time>2017-06-15T12:06:29Z</time></trkpt>
<trkpt lat="46.08987" lon="6.99062"><ele>1260.8</ele><time>2017-06-15T12:06:30Z</time></trkpt>
<trkpt lat="46.08986" lon="6.99063"><ele>1260.8</ele><time>2017-06-15T12:06:31Z</time></trkpt>
<trkpt lat="46.08983" lon="6.99065"><ele>1261.2</ele><time>2017-06-15T12:06:33Z</time></trkpt>
<trkpt lat="46.0898" lon="6.99066"><ele>1261.4</ele><time>2017-06-15T12:06:35Z</time></trkpt>
<trkpt lat="46.08977" lon="6.99068"><ele>1261.8</ele><time>2017-06-15T12:06:37Z</time></trkpt>
<trkpt lat="46.08974" lon="6.99069"><ele>1262</ele><time>2017-06-15T12:06:39Z</time></trkpt>
<trkpt lat="46.08973" lon="6.9907"><ele>1262.2</ele><time>2017-06-15T12:06:40Z</time></trkpt>
<trkpt lat="46.08971" lon="6.99071"><ele>1262.4</ele><time>2017-06-15T12:06:41Z</time></trkpt>
<trkpt lat="46.08969" lon="6.99072"><ele>1262.6</ele><time>2017-06-15T12:06:43Z</time></trkpt>
<trkpt lat="46.08966" lon="6.99074"><ele>1263</ele><time>2017-06-15T12:06:45Z</time></trkpt>
<trkpt lat="46.08963" lon="6.99075"><ele>1263.2</ele><time>2017-06-15T12:06:47Z</time></trkpt>
<trkpt lat="46.0896" lon="6.99077"><ele>1263.6</ele><time>2017-06-15T12:06:49Z</time></trkpt>
<trkpt lat="46.08957" lon="6.99078"><ele>1263.8</ele><time>2017-06-15T12:06:51Z</time></trkpt>
<trkpt lat="46.08954" lon="6.9908"><ele>1264.2</ele><time>2017-06-15T12:06:53Z</time></trkpt>
<trkpt lat="46.08951" lon="6.99081"><ele>1264.4</ele><time>2017-06-15T12:06:55Z</time></trkpt>
<trkpt lat="46.08948" lon="6.99083"><ele>1264.8</ele><time>2017-06-15T12:06:57Z</time></trkpt>
<trkpt lat="46.08946" lon="6.99084"><ele>1265</ele><time>2017-06-15T12:06:59Z</time></trkpt>
<trkpt lat="46.08944" lon="6.99085"><ele>1265.2</ele><time>2017-06-15T12:07:00Z</time></trkpt>
<trkpt lat="46.08942" lon="6.99084"><ele>1265.4</ele><time>2017-06-15T12:07:01Z</time></trkpt>
<trkpt lat="46.08939" lon="6.99083"><ele>1265.6</ele><time>2017-06-15T12:07:03Z</time></trkpt>
<trkpt lat="46.08935" lon="6.99081"><ele>1265.8</ele><time>2017-06-15T12:07:05Z</time></trkpt>
<trkpt lat="46.08932" lon="6.9908"><ele>1266.2</ele><time>2017-06-15T12:07:07Z</time></trkpt>
<trkpt lat="46.08928" lon="6.99079"><ele>1266.4</ele><time>2017-06-15T12:07:09Z</time></trkpt>
<trkpt lat="46.08925" lon="6.99078"><ele>1266.6</ele><time>2017-06-15T12:07:11Z</time></trkpt>
<trkpt lat="46.08922" lon="6.99076"><ele>1266.8</ele><time>2017-06-15T12:07:13Z</time></trkpt>
<trkpt lat="46.08918" lon="6.99075"><ele>1267</ele><time>2017-06-15T12:07:15Z</time></trkpt>
<trkpt lat="46.08915" lon="6.99074"><ele>1267.4</ele><time>2017-06-15T12:07:17Z</time></trkpt>
<trkpt lat="46.08913" lon="6.99073"><ele>1267.4</ele><time>2017-06-15T12:07:18Z</time></trkpt>
<trkpt lat="46.08911" lon="6.99072"><ele>1267.6</ele><time>2017-06-15T12:07:19Z</time></trkpt>
<trkpt lat="46.08908" lon="6.99071"><ele>1267.8</ele><time>2017-06-15T12:07:21Z</time></trkpt>
<trkpt lat="46.08904" lon="6.9907"><ele>1268</ele><time>2017-06-15T12:07:23Z</time></trkpt>
<trkpt lat="46.08901" lon="6.99068"><ele>1268.4</ele><time>2017-06-15T12:07:25Z</time></trkpt>
<trkpt lat="46.08899" lon="6.99068"><ele>1268.4</ele><time>2017-06-15T12:07:26Z</time></trkpt>
<trkpt lat="46.08898" lon="6.99067"><ele>1268.6</ele><time>2017-06-15T12:07:27Z</time></trkpt>
<trkpt lat="46.08894" lon="6.99065"><ele>1268.8</ele><time>2017-06-15T12:07:29Z</time></trkpt>
<trkpt lat="46.08891" lon="6.99064"><ele>1269</ele><time>2017-06-15T12:07:31Z</time></trkpt>
<trkpt lat="46.08888" lon="6.99062"><ele>1269.2</ele><time>2017-06-15T12:07:33Z</time></trkpt>
<trkpt lat="46.08885" lon="6.9906"><ele>1269.4</ele><time>2017-06-15T12:07:35Z</time></trkpt>
<trkpt lat="46.08882" lon="6.99059"><ele>1269.8</ele><time>2017-06-15T12:07:37Z</time></trkpt>
<trkpt lat="46.08879" lon="6.99057"><ele>1270</ele><time>2017-06-15T12:07:39Z</time></trkpt>
<trkpt lat="46.08875" lon="6.99056"><ele>1270.2</ele><time>2017-06-15T12:07:41Z</time></trkpt>
<trkpt lat="46.08872" lon="6.99054"><ele>1270.4</ele><time>2017-06-15T12:07:43Z</time></trkpt>
<trkpt lat="46.08869" lon="6.99052"><ele>1270.6</ele><time>2017-06-15T12:07:45Z</time></trkpt>
<trkpt lat="46.08866" lon="6.99051"><ele>1271</ele><time>2017-06-15T12:07:47Z</time></trkpt>
<trkpt lat="46.08863" lon="6.99049"><ele>1271.2</ele><time>2017-06-15T12:07:49Z</time></trkpt>
<trkpt lat="46.08859" lon="6.99048"><ele>1271.4</ele><time>2017-06-15T12:07:51Z</time></trkpt>
<trkpt lat="46.08856" lon="6.99046"><ele>1271.6</ele><time>2017-06-15T12:07:53Z</time></trkpt>
<trkpt lat="46.08853" lon="6.99043"><ele>1271.8</ele><time>2017-06-15T12:07:55Z</time></trkpt>
<trkpt lat="46.0885" lon="6.99041"><ele>1272.2</ele><time>2017-06-15T12:07:57Z</time></trkpt>
<trkpt lat="46.08848" lon="6.99039"><ele>1272.2</ele><time>2017-06-15T12:07:58Z</time></trkpt>
<trkpt lat="46.08846" lon="6.99038"><ele>1272.4</ele><time>2017-06-15T12:07:59Z</time></trkpt>
<trkpt lat="46.08843" lon="6.99035"><ele>1272.6</ele><time>2017-06-15T12:08:01Z</time></trkpt>
<trkpt lat="46.0884" lon="6.99033"><ele>1272.8</ele><time>2017-06-15T12:08:03Z</time></trkpt>
<trkpt lat="46.08837" lon="6.9903"><ele>1273.2</ele><time>2017-06-15T12:08:05Z</time></trkpt>
<trkpt lat="46.08833" lon="6.99028"><ele>1273.4</ele><time>2017-06-15T12:08:07Z</time></trkpt>
<trkpt lat="46.0883" lon="6.99025"><ele>1273.6</ele><time>2017-06-15T12:08:09Z</time></trkpt>
<trkpt lat="46.08827" lon="6.99022"><ele>1274</ele><time>2017-06-15T12:08:11Z</time></trkpt>
<trkpt lat="46.08824" lon="6.9902"><ele>1274.2</ele><time>2017-06-15T12:08:13Z</time></trkpt>
<trkpt lat="46.0882" lon="6.99018"><ele>1274.4</ele><time>2017-06-15T12:08:15Z</time></trkpt>
<trkpt lat="46.08817" lon="6.99017"><ele>1274.6</ele><time>2017-06-15T12:08:17Z</time></trkpt>
<trkpt lat="46.08813" lon="6.99017"><ele>1275</ele><time>2017-06-15T12:08:19Z</time></trkpt>
<trkpt lat="46.08811" lon="6.99016"><ele>1275</ele><time>2017-06-15T12:08:20Z</time></trkpt>
<trkpt lat="46.08809" lon="6.99016"><ele>1275.2</ele><time>2017-06-15T12:08:21Z</time></trkpt>
<trkpt lat="46.08805" lon="6.99016"><ele>1275.6</ele><time>2017-06-15T12:08:23Z</time></trkpt>
<trkpt lat="46.08801" lon="6.99015"><ele>1275.8</ele><time>2017-06-15T12:08:25Z</time></trkpt>
<trkpt lat="46.08798" lon="6.99015"><ele>1276.2</ele><time>2017-06-15T12:08:27Z</time></trkpt>
<trkpt lat="46.08794" lon="6.99014"><ele>1276.4</ele><time>2017-06-15T12:08:29Z</time></trkpt>
<trkpt lat="46.0879" lon="6.99014"><ele>1276.8</ele><time>2017-06-15T12:08:31Z</time></trkpt>
<trkpt lat="46.08786" lon="6.99013"><ele>1277</ele><time>2017-06-15T12:08:33Z</time></trkpt>
<trkpt lat="46.08783" lon="6.99013"><ele>1277.2</ele><time>2017-06-15T12:08:35Z</time></trkpt>
<trkpt lat="46.08779" lon="6.99012"><ele>1277.6</ele><time>2017-06-15T12:08:37Z</time></trkpt>
<trkpt lat="46.08775" lon="6.99012"><ele>1277.8</ele><time>2017-06-15T12:08:39Z</time></trkpt>
<trkpt lat="46.08771" lon="6.99011"><ele>1278.2</ele><time>2017-06-15T12:08:41Z</time></trkpt>
<trkpt lat="46.08767" lon="6.9901"><ele>1278.4</ele><time>2017-06-15T12:08:43Z</time></trkpt>
<trkpt lat="46.08764" lon="6.99009"><ele>1278.8</ele><time>2017-06-15T12:08:45Z</time></trkpt>
<trkpt lat="46.0876" lon="6.99008"><ele>1279.2</ele><time>2017-06-15T12:08:47Z</time></trkpt>
<trkpt lat="46.08756" lon="6.99007"><ele>1279.6</ele><time>2017-06-15T12:08:49Z</time></trkpt>
<trkpt lat="46.08752" lon="6.99005"><ele>1279.8</ele><time>2017-06-15T12:08:51Z</time></trkpt>
<trkpt lat="46.08749" lon="6.99004"><ele>1280.2</ele><time>2017-06-15T12:08:53Z</time></trkpt>
<trkpt lat="46.08745" lon="6.99003"><ele>1280.6</ele><time>2017-06-15T12:08:55Z</time></trkpt>
<trkpt lat="46.08741" lon="6.99002"><ele>1281</ele><time>2017-06-15T12:08:57Z</time></trkpt>
<trkpt lat="46.08737" lon="6.99001"><ele>1281.2</ele><time>2017-06-15T12:08:59Z</time></trkpt>
<trkpt lat="46.08734" lon="6.99"><ele>1281.6</ele><time>2017-06-15T12:09:01Z</time></trkpt>
<trkpt lat="46.0873" lon="6.98999"><ele>1282</ele><time>2017-06-15T12:09:03Z</time></trkpt>
<trkpt lat="46.08728" lon="6.98999"><ele>1282.2</ele><time>2017-06-15T12:09:04Z</time></trkpt>
<trkpt lat="46.08727" lon="6.98998"><ele>1282.2</ele><time>2017-06-15T12:09:05Z</time></trkpt>
<trkpt lat="46.08723" lon="6.98996"><ele>1282.4</ele><time>2017-06-15T12:09:07Z</time></trkpt>
<trkpt lat="46.0872" lon="6.98995"><ele>1282.6</ele><time>2017-06-15T12:09:09Z</time></trkpt>
<trkpt lat="46.08717" lon="6.98994"><ele>1282.8</ele><time>2017-06-15T12:09:11Z</time></trkpt>
<trkpt lat="46.08713" lon="6.98992"><ele>1283</ele><time>2017-06-15T12:09:13Z</time></trkpt>
<trkpt lat="46.0871" lon="6.98991"><ele>1283.2</ele><time>2017-06-15T12:09:15Z</time></trkpt>
<trkpt lat="46.08707" lon="6.98989"><ele>1283.4</ele><time>2017-06-15T12:09:17Z</time></trkpt>
<trkpt lat="46.08704" lon="6.98988"><ele>1283.6</ele><time>2017-06-15T12:09:19Z</time></trkpt>
<trkpt lat="46.087" lon="6.98987"><ele>1283.8</ele><time>2017-06-15T12:09:21Z</time></trkpt>
<trkpt lat="46.08699" lon="6.98985"><ele>1283.8</ele><time>2017-06-15T12:09:22Z</time></trkpt>
<trkpt lat="46.08699" lon="6.98981"><ele>1283.8</ele><time>2017-06-15T12:09:23Z</time></trkpt>
<trkpt lat="46.08698" lon="6.98974"><ele>1283.8</ele><time>2017-06-15T12:09:25Z</time></trkpt>
<trkpt lat="46.08697" lon="6.98966"><ele>1283.6</ele><time>2017-06-15T12:09:27Z</time></trkpt>
<trkpt lat="46.08697" lon="6.98959"><ele>1283.6</ele><time>2017-06-15T12:09:29Z</time></trkpt>
<trkpt lat="46.08696" lon="6.98951"><ele>1283.4</ele><time>2017-06-15T12:09:31Z</time></trkpt>
<trkpt lat="46.08695" lon="6.98944"><ele>1283.4</ele><time>2017-06-15T12:09:33Z</time></trkpt>
<trkpt lat="46.08694" lon="6.98936"><ele>1283.2</ele><time>2017-06-15T12:09:35Z</time></trkpt>
<trkpt lat="46.08694" lon="6.98929"><ele>1283.2</ele><time>2017-06-15T12:09:37Z</time></trkpt>
<trkpt lat="46.08693" lon="6.98921"><ele>1283.2</ele><time>2017-06-15T12:09:39Z</time></trkpt>
<trkpt lat="46.08692" lon="6.98918"><ele>1283</ele><time>2017-06-15T12:09:40Z</time></trkpt>
<trkpt lat="46.0869" lon="6.98915"><ele>1283</ele><time>2017-06-15T12:09:41Z</time></trkpt>
<trkpt lat="46.08685" lon="6.98909"><ele>1283</ele><time>2017-06-15T12:09:43Z</time></trkpt>
<trkpt lat="46.08681" lon="6.98903"><ele>1282.8</ele><time>2017-06-15T12:09:45Z</time></trkpt>
<trkpt lat="46.08676" lon="6.98897"><ele>1282.8</ele><time>2017-06-15T12:09:47Z</time></trkpt>
<trkpt lat="46.08672" lon="6.98891"><ele>1282.6</ele><time>2017-06-15T12:09:49Z</time></trkpt>
<trkpt lat="46.08667" lon="6.98885"><ele>1282.6</ele><time>2017-06-15T12:09:51Z</time></trkpt>
<trkpt lat="46.08662" lon="6.98879"><ele>1282.6</ele><time>2017-06-15T12:09:53Z</time></trkpt>
<trkpt lat="46.08657" lon="6.98874"><ele>1282.4</ele><time>2017-06-15T12:09:55Z</time></trkpt>
<trkpt lat="46.08652" lon="6.98868"><ele>1282.4</ele><time>2017-06-15T12:09:57Z</time></trkpt>
<trkpt lat="46.08647" lon="6.98863"><ele>1282.2</ele><time>2017-06-15T12:09:59Z</time></trkpt>
<trkpt lat="46.08641" lon="6.98857"><ele>1282.2</ele><time>2017-06-15T12:10:01Z</time></trkpt>
<trkpt lat="46.08636" lon="6.98851"><ele>1282</ele><time>2017-06-15T12:10:03Z</time></trkpt>
<trkpt lat="46.08631" lon="6.98846"><ele>1282</ele><time>2017-06-15T12:10:05Z</time></trkpt>
<trkpt lat="46.08629" lon="6.98838"><ele>1281.8</ele><time>2017-06-15T12:10:07Z</time></trkpt>
<trkpt lat="46.08626" lon="6.98831"><ele>1281.8</ele><time>2017-06-15T12:10:09Z</time></trkpt>
<trkpt lat="46.08623" lon="6.98823"><ele>1281.8</ele><time>2017-06-15T12:10:11Z</time></trkpt>
<trkpt lat="46.08621" lon="6.98816"><ele>1281.6</ele><time>2017-06-15T12:10:13Z</time></trkpt>
<trkpt lat="46.08618" lon="6.98808"><ele>1281.6</ele><time>2017-06-15T12:10:15Z</time></trkpt>
<trkpt lat="46.08617" lon="6.988"><ele>1281.4</ele><time>2017-06-15T12:10:17Z</time></trkpt>
<trkpt lat="46.0862" lon="6.9879"><ele>1281.4</ele><time>2017-06-15T12:10:19Z</time></trkpt>
<trkpt lat="46.08623" lon="6.98779"><ele>1281.2</ele><time>2017-06-15T12:10:21Z</time></trkpt>
<trkpt lat="46.08627" lon="6.98769"><ele>1281.2</ele><time>2017-06-15T12:10:23Z</time></trkpt>
<trkpt lat="46.0863" lon="6.98758"><ele>1281.2</ele><time>2017-06-15T12:10:25Z</time></trkpt>
<trkpt lat="46.08633" lon="6.98748"><ele>1281</ele><time>2017-06-15T12:10:27Z</time></trkpt>
<trkpt lat="46.08637" lon="6.98736"><ele>1281</ele><time>2017-06-15T12:10:29Z</time></trkpt>
<trkpt lat="46.0864" lon="6.98722"><ele>1280.8</ele><time>2017-06-15T12:10:31Z</time></trkpt>
<trkpt lat="46.08643" lon="6.98707"><ele>1280.8</ele><time>2017-06-15T12:10:33Z</time></trkpt>
<trkpt lat="46.08646" lon="6.98692"><ele>1280.6</ele><time>2017-06-15T12:10:35Z</time></trkpt>
<trkpt lat="46.08648" lon="6.98677"><ele>1280.6</ele><time>2017-06-15T12:10:37Z</time></trkpt>
<trkpt lat="46.08647" lon="6.98661"><ele>1280.6</ele><time>2017-06-15T12:10:39Z</time></trkpt>
<trkpt lat="46.0864" lon="6.9865"><ele>1280.6</ele><time>2017-06-15T12:10:41Z</time></trkpt>
<trkpt lat="46.08634" lon="6.98639"><ele>1280.6</ele><time>2017-06-15T12:10:43Z</time></trkpt>
<trkpt lat="46.08627" lon="6.98629"><ele>1280.8</ele><time>2017-06-15T12:10:45Z</time></trkpt>
<trkpt lat="46.08622" lon="6.98617"><ele>1280.8</ele><time>2017-06-15T12:10:47Z</time></trkpt>
<trkpt lat="46.0862" lon="6.98604"><ele>1281</ele><time>2017-06-15T12:10:49Z</time></trkpt>
<trkpt lat="46.08619" lon="6.98591"><ele>1281</ele><time>2017-06-15T12:10:51Z</time></trkpt>
<trkpt lat="46.08618" lon="6.98578"><ele>1281</ele><time>2017-06-15T12:10:53Z</time></trkpt>
<trkpt lat="46.08617" lon="6.98564"><ele>1281.2</ele><time>2017-06-15T12:10:55Z</time></trkpt>
<trkpt lat="46.08616" lon="6.98558"><ele>1281.2</ele><time>2017-06-15T12:10:56Z</time></trkpt>
<trkpt lat="46.08615" lon="6.98553"><ele>1281.2</ele><time>2017-06-15T12:10:57Z</time></trkpt>
<trkpt lat="46.08612" lon="6.98543"><ele>1281.2</ele><time>2017-06-15T12:10:59Z</time></trkpt>
<trkpt lat="46.08611" lon="6.98533"><ele>1281.4</ele><time>2017-06-15T12:11:01Z</time></trkpt>
<trkpt lat="46.08613" lon="6.98522"><ele>1281.4</ele><time>2017-06-15T12:11:03Z</time></trkpt>
<trkpt lat="46.08614" lon="6.98511"><ele>1281.6</ele><time>2017-06-15T12:11:05Z</time></trkpt>
<trkpt lat="46.08616" lon="6.98499"><ele>1281.6</ele><time>2017-06-15T12:11:07Z</time></trkpt>
<trkpt lat="46.08618" lon="6.98488"><ele>1281.6</ele><time>2017-06-15T12:11:09Z</time></trkpt>
<trkpt lat="46.0862" lon="6.98477"><ele>1281.8</ele><time>2017-06-15T12:11:11Z</time></trkpt>
<trkpt lat="46.08621" lon="6.98466"><ele>1281.8</ele><time>2017-06-15T12:11:13Z</time></trkpt>
<trkpt lat="46.08625" lon="6.98454"><ele>1281.8</ele><time>2017-06-15T12:11:15Z</time></trkpt>
<trkpt lat="46.08628" lon="6.98447"><ele>1282</ele><time>2017-06-15T12:11:16Z</time></trkpt>
<trkpt lat="46.08627" lon="6.98442"><ele>1282</ele><time>2017-06-15T12:11:17Z</time></trkpt>
<trkpt lat="46.08625" lon="6.98431"><ele>1282</ele><time>2017-06-15T12:11:19Z</time></trkpt>
<trkpt lat="46.08623" lon="6.98419"><ele>1282.2</ele><time>2017-06-15T12:11:21Z</time></trkpt>
<trkpt lat="46.08621" lon="6.98408"><ele>1282.2</ele><time>2017-06-15T12:11:23Z</time></trkpt>
<trkpt lat="46.0862" lon="6.98397"><ele>1282.2</ele><time>2017-06-15T12:11:25Z</time></trkpt>
<trkpt lat="46.08618" lon="6.98386"><ele>1282.4</ele><time>2017-06-15T12:11:27Z</time></trkpt>
<trkpt lat="46.08617" lon="6.98381"><ele>1282.4</ele><time>2017-06-15T12:11:28Z</time></trkpt>
<trkpt lat="46.08614" lon="6.98376"><ele>1282.4</ele><time>2017-06-15T12:11:29Z</time></trkpt>
<trkpt lat="46.0861" lon="6.98367"><ele>1282.4</ele><time>2017-06-15T12:11:31Z</time></trkpt>
<trkpt lat="46.08605" lon="6.98358"><ele>1282.6</ele><time>2017-06-15T12:11:33Z</time></trkpt>
<trkpt lat="46.086" lon="6.98349"><ele>1282.6</ele><time>2017-06-15T12:11:35Z</time></trkpt>
<trkpt lat="46.08595" lon="6.9834"><ele>1282.6</ele><time>2017-06-15T12:11:37Z</time></trkpt>
<trkpt lat="46.08591" lon="6.98331"><ele>1282.8</ele><time>2017-06-15T12:11:39Z</time></trkpt>
<trkpt lat="46.08589" lon="6.98326"><ele>1282.8</ele><time>2017-06-15T12:11:40Z</time></trkpt>
<trkpt lat="46.08588" lon="6.98322"><ele>1282.8</ele><time>2017-06-15T12:11:41Z</time></trkpt>
<trkpt lat="46.08585" lon="6.98314"><ele>1283</ele><time>2017-06-15T12:11:43Z</time></trkpt>
<trkpt lat="46.08583" lon="6.98306"><ele>1283</ele><time>2017-06-15T12:11:45Z</time></trkpt>
<trkpt lat="46.08581" lon="6.98298"><ele>1283</ele><time>2017-06-15T12:11:47Z</time></trkpt>
<trkpt lat="46.08578" lon="6.98289"><ele>1283.2</ele><time>2017-06-15T12:11:49Z</time></trkpt>
<trkpt lat="46.08576" lon="6.98281"><ele>1283.2</ele><time>2017-06-15T12:11:51Z</time></trkpt>
<trkpt lat="46.08574" lon="6.98273"><ele>1283.2</ele><time>2017-06-15T12:11:53Z</time></trkpt>
<trkpt lat="46.08572" lon="6.98265"><ele>1283.4</ele><time>2017-06-15T12:11:55Z</time></trkpt>
<trkpt lat="46.0857" lon="6.98256"><ele>1283.4</ele><time>2017-06-15T12:11:57Z</time></trkpt>
<trkpt lat="46.08568" lon="6.98248"><ele>1283.6</ele><time>2017-06-15T12:11:59Z</time></trkpt>
<trkpt lat="46.08567" lon="6.9824"><ele>1283.6</ele><time>2017-06-15T12:12:01Z</time></trkpt>
<trkpt lat="46.08565" lon="6.98231"><ele>1283.6</ele><time>2017-06-15T12:12:03Z</time></trkpt>
<trkpt lat="46.08564" lon="6.98223"><ele>1283.8</ele><time>2017-06-15T12:12:05Z</time></trkpt>
<trkpt lat="46.08562" lon="6.98215"><ele>1283.8</ele><time>2017-06-15T12:12:07Z</time></trkpt>
<trkpt lat="46.0856" lon="6.98206"><ele>1283.8</ele><time>2017-06-15T12:12:09Z</time></trkpt>
<trkpt lat="46.0856" lon="6.98203"><ele>1284</ele><time>2017-06-15T12:12:10Z</time></trkpt>
<trkpt lat="46.0856" lon="6.982"><ele>1284</ele><time>2017-06-15T12:12:11Z</time></trkpt>
<trkpt lat="46.0856" lon="6.98194"><ele>1284</ele><time>2017-06-15T12:12:13Z</time></trkpt>
<trkpt lat="46.0856" lon="6.98189"><ele>1284.2</ele><time>2017-06-15T12:12:15Z</time></trkpt>
<trkpt lat="46.0856" lon="6.98183"><ele>1284.2</ele><time>2017-06-15T12:12:17Z</time></trkpt>
<trkpt lat="46.0856" lon="6.98177"><ele>1284.2</ele><time>2017-06-15T12:12:19Z</time></trkpt>
<trkpt lat="46.0856" lon="6.98172"><ele>1284.4</ele><time>2017-06-15T12:12:21Z</time></trkpt>
<trkpt lat="46.0856" lon="6.98166"><ele>1284.4</ele><time>2017-06-15T12:12:23Z</time></trkpt>
<trkpt lat="46.0856" lon="6.98163"><ele>1284.4</ele><time>2017-06-15T12:12:24Z</time></trkpt>
<trkpt lat="46.08555" lon="6.98123"><ele>1286.8</ele><time>2017-06-15T12:12:26Z</time></trkpt>
<trkpt lat="46.08555" lon="6.98123"><ele>1286.8</ele><time>2017-06-15T12:13:48Z</time></trkpt>
<trkpt lat="46.08549" lon="6.98086"><ele>1288.8</ele><time>2017-06-15T12:13:49Z</time></trkpt>
<trkpt lat="46.08548" lon="6.98084"><ele>1289</ele><time>2017-06-15T12:13:51Z</time></trkpt>
<trkpt lat="46.08548" lon="6.98083"><ele>1289</ele><time>2017-06-15T12:13:53Z</time></trkpt>
<trkpt lat="46.08548" lon="6.98081"><ele>1289</ele><time>2017-06-15T12:13:55Z</time></trkpt>
<trkpt lat="46.08547" lon="6.9808"><ele>1289.2</ele><time>2017-06-15T12:13:57Z</time></trkpt>
<trkpt lat="46.08547" lon="6.98079"><ele>1289.2</ele><time>2017-06-15T12:13:59Z</time></trkpt>
<trkpt lat="46.08547" lon="6.98077"><ele>1289.4</ele><time>2017-06-15T12:14:01Z</time></trkpt>
<trkpt lat="46.08547" lon="6.98076"><ele>1289.4</ele><time>2017-06-15T12:14:03Z</time></trkpt>
<trkpt lat="46.08546" lon="6.98075"><ele>1289.4</ele><time>2017-06-15T12:14:04Z</time></trkpt>
<trkpt lat="46.08541" lon="6.98052"><ele>1291.4</ele><time>2017-06-15T12:14:06Z</time></trkpt>
<trkpt lat="46.08541" lon="6.98052"><ele>1291.4</ele><time>2017-06-15T12:17:49Z</time></trkpt>
<trkpt lat="46.08536" lon="6.98031"><ele>1293.4</ele><time>2017-06-15T12:17:51Z</time></trkpt>
<trkpt lat="46.08536" lon="6.98024"><ele>1293.4</ele><time>2017-06-15T12:17:53Z</time></trkpt>
<trkpt lat="46.08536" lon="6.98018"><ele>1293.4</ele><time>2017-06-15T12:17:55Z</time></trkpt>
<trkpt lat="46.08536" lon="6.98012"><ele>1293.4</ele><time>2017-06-15T12:17:57Z</time></trkpt>
<trkpt lat="46.08536" lon="6.98006"><ele>1293.4</ele><time>2017-06-15T12:17:59Z</time></trkpt>
<trkpt lat="46.08536" lon="6.97999"><ele>1293.4</ele><time>2017-06-15T12:18:01Z</time></trkpt>
<trkpt lat="46.08536" lon="6.97993"><ele>1293.4</ele><time>2017-06-15T12:18:03Z</time></trkpt>
<trkpt lat="46.08536" lon="6.9799"><ele>1293.4</ele><time>2017-06-15T12:18:04Z</time></trkpt>
<trkpt lat="46.08535" lon="6.97986"><ele>1293.4</ele><time>2017-06-15T12:18:05Z</time></trkpt>
<trkpt lat="46.08534" lon="6.9798"><ele>1293.6</ele><time>2017-06-15T12:18:07Z</time></trkpt>
<trkpt lat="46.08533" lon="6.97973"><ele>1293.6</ele><time>2017-06-15T12:18:09Z</time></trkpt>
<trkpt lat="46.08532" lon="6.97966"><ele>1293.6</ele><time>2017-06-15T12:18:11Z</time></trkpt>
<trkpt lat="46.08531" lon="6.9796"><ele>1293.6</ele><time>2017-06-15T12:18:13Z</time></trkpt>
<trkpt lat="46.08531" lon="6.97953"><ele>1293.6</ele><time>2017-06-15T12:18:15Z</time></trkpt>
<trkpt lat="46.0853" lon="6.97946"><ele>1293.6</ele><time>2017-06-15T12:18:17Z</time></trkpt>
<trkpt lat="46.08529" lon="6.9794"><ele>1293.6</ele><time>2017-06-15T12:18:19Z</time></trkpt>
<trkpt lat="46.08528" lon="6.97933"><ele>1293.8</ele><time>2017-06-15T12:18:21Z</time></trkpt>
<trkpt lat="46.08527" lon="6.97926"><ele>1293.8</ele><time>2017-06-15T12:18:23Z</time></trkpt>
<trkpt lat="46.08526" lon="6.97923"><ele>1293.8</ele><time>2017-06-15T12:18:24Z</time></trkpt>
<trkpt lat="46.08525" lon="6.9792"><ele>1293.8</ele><time>2017-06-15T12:18:25Z</time></trkpt>
<trkpt lat="46.08523" lon="6.97913"><ele>1294</ele><time>2017-06-15T12:18:27Z</time></trkpt>
<trkpt lat="46.08521" lon="6.97907"><ele>1294.2</ele><time>2017-06-15T12:18:29Z</time></trkpt>
<trkpt lat="46.08519" lon="6.979"><ele>1294.4</ele><time>2017-06-15T12:18:31Z</time></trkpt>
<trkpt lat="46.08517" lon="6.97894"><ele>1294.6</ele><time>2017-06-15T12:18:33Z</time></trkpt>
<trkpt lat="46.08515" lon="6.97887"><ele>1294.8</ele><time>2017-06-15T12:18:35Z</time></trkpt>
<trkpt lat="46.08513" lon="6.9788"><ele>1295</ele><time>2017-06-15T12:18:37Z</time></trkpt>
<trkpt lat="46.08511" lon="6.97874"><ele>1295.2</ele><time>2017-06-15T12:18:39Z</time></trkpt>
<trkpt lat="46.08509" lon="6.97867"><ele>1295.4</ele><time>2017-06-15T12:18:41Z</time></trkpt>
<trkpt lat="46.08508" lon="6.97864"><ele>1295.4</ele><time>2017-06-15T12:18:42Z</time></trkpt>
<trkpt lat="46.08508" lon="6.97861"><ele>1295.6</ele><time>2017-06-15T12:18:43Z</time></trkpt>
<trkpt lat="46.08507" lon="6.97854"><ele>1295.8</ele><time>2017-06-15T12:18:45Z</time></trkpt>
<trkpt lat="46.08507" lon="6.97847"><ele>1296</ele><time>2017-06-15T12:18:47Z</time></trkpt>
<trkpt lat="46.08506" lon="6.97841"><ele>1296.2</ele><time>2017-06-15T12:18:49Z</time></trkpt>
<trkpt lat="46.08506" lon="6.97834"><ele>1296.4</ele><time>2017-06-15T12:18:51Z</time></trkpt>
<trkpt lat="46.08505" lon="6.97827"><ele>1296.6</ele><time>2017-06-15T12:18:53Z</time></trkpt>
<trkpt lat="46.08505" lon="6.9782"><ele>1296.8</ele><time>2017-06-15T12:18:55Z</time></trkpt>
<trkpt lat="46.08504" lon="6.97814"><ele>1297</ele><time>2017-06-15T12:18:57Z</time></trkpt>
<trkpt lat="46.08504" lon="6.97807"><ele>1297.2</ele><time>2017-06-15T12:18:59Z</time></trkpt>
<trkpt lat="46.08503" lon="6.978"><ele>1297.4</ele><time>2017-06-15T12:19:01Z</time></trkpt>
<trkpt lat="46.08504" lon="6.97797"><ele>1297.6</ele><time>2017-06-15T12:19:02Z</time></trkpt>
<trkpt lat="46.08506" lon="6.97795"><ele>1297.6</ele><time>2017-06-15T12:19:03Z</time></trkpt>
<trkpt lat="46.08509" lon="6.9779"><ele>1298</ele><time>2017-06-15T12:19:05Z</time></trkpt>
<trkpt lat="46.08513" lon="6.97785"><ele>1298.2</ele><time>2017-06-15T12:19:07Z</time></trkpt>
<trkpt lat="46.08516" lon="6.9778"><ele>1298.6</ele><time>2017-06-15T12:19:09Z</time></trkpt>
<trkpt lat="46.08518" lon="6.97777"><ele>1298.6</ele><time>2017-06-15T12:19:10Z</time></trkpt>
<trkpt lat="46.0852" lon="6.97775"><ele>1298.8</ele><time>2017-06-15T12:19:11Z</time></trkpt>
<trkpt lat="46.08524" lon="6.9777"><ele>1299.2</ele><time>2017-06-15T12:19:13Z</time></trkpt>
<trkpt lat="46.08527" lon="6.97765"><ele>1299.4</ele><time>2017-06-15T12:19:15Z</time></trkpt>
<trkpt lat="46.08531" lon="6.9776"><ele>1299.6</ele><time>2017-06-15T12:19:17Z</time></trkpt>
<trkpt lat="46.08535" lon="6.97755"><ele>1300</ele><time>2017-06-15T12:19:19Z</time></trkpt>
<trkpt lat="46.08536" lon="6.97753"><ele>1300.2</ele><time>2017-06-15T12:19:20Z</time></trkpt>
<trkpt lat="46.08538" lon="6.97751"><ele>1300.2</ele><time>2017-06-15T12:19:21Z</time></trkpt>
<trkpt lat="46.08542" lon="6.97747"><ele>1300.6</ele><time>2017-06-15T12:19:23Z</time></trkpt>
<trkpt lat="46.08545" lon="6.97743"><ele>1300.8</ele><time>2017-06-15T12:19:25Z</time></trkpt>
<trkpt lat="46.08549" lon="6.97739"><ele>1301.2</ele><time>2017-06-15T12:19:27Z</time></trkpt>
<trkpt lat="46.08552" lon="6.97735"><ele>1301.4</ele><time>2017-06-15T12:19:29Z</time></trkpt>
<trkpt lat="46.08556" lon="6.97731"><ele>1301.8</ele><time>2017-06-15T12:19:31Z</time></trkpt>
<trkpt lat="46.08559" lon="6.97728"><ele>1302</ele><time>2017-06-15T12:19:33Z</time></trkpt>
<trkpt lat="46.08563" lon="6.97724"><ele>1302.4</ele><time>2017-06-15T12:19:35Z</time></trkpt>
<trkpt lat="46.08566" lon="6.9772"><ele>1302.6</ele><time>2017-06-15T12:19:37Z</time></trkpt>
<trkpt lat="46.08568" lon="6.97718"><ele>1302.8</ele><time>2017-06-15T12:19:38Z</time></trkpt>
<trkpt lat="46.0857" lon="6.97716"><ele>1303</ele><time>2017-06-15T12:19:39Z</time></trkpt>
<trkpt lat="46.08573" lon="6.97712"><ele>1303.2</ele><time>2017-06-15T12:19:41Z</time></trkpt>
<trkpt lat="46.08574" lon="6.97707"><ele>1303.4</ele><time>2017-06-15T12:19:43Z</time></trkpt>
<trkpt lat="46.08575" lon="6.97703"><ele>1303.8</ele><time>2017-06-15T12:19:45Z</time></trkpt>
<trkpt lat="46.08576" lon="6.97698"><ele>1304</ele><time>2017-06-15T12:19:47Z</time></trkpt>
<trkpt lat="46.08577" lon="6.97694"><ele>1304.4</ele><time>2017-06-15T12:19:49Z</time></trkpt>
<trkpt lat="46.08578" lon="6.97689"><ele>1304.6</ele><time>2017-06-15T12:19:51Z</time></trkpt>
<trkpt lat="46.08579" lon="6.97684"><ele>1304.8</ele><time>2017-06-15T12:19:53Z</time></trkpt>
<trkpt lat="46.0858" lon="6.9768"><ele>1305.2</ele><time>2017-06-15T12:19:55Z</time></trkpt>
<trkpt lat="46.08581" lon="6.97675"><ele>1305.4</ele><time>2017-06-15T12:19:57Z</time></trkpt>
<trkpt lat="46.08583" lon="6.9767"><ele>1305.8</ele><time>2017-06-15T12:19:59Z</time></trkpt>
<trkpt lat="46.08583" lon="6.97668"><ele>1305.8</ele><time>2017-06-15T12:20:00Z</time></trkpt>
<trkpt lat="46.08584" lon="6.97666"><ele>1306</ele><time>2017-06-15T12:20:01Z</time></trkpt>
<trkpt lat="46.08585" lon="6.97661"><ele>1306.4</ele><time>2017-06-15T12:20:03Z</time></trkpt>
<trkpt lat="46.08586" lon="6.97656"><ele>1306.8</ele><time>2017-06-15T12:20:05Z</time></trkpt>
<trkpt lat="46.08587" lon="6.97652"><ele>1307</ele><time>2017-06-15T12:20:07Z</time></trkpt>
<trkpt lat="46.08587" lon="6.97649"><ele>1307.2</ele><time>2017-06-15T12:20:08Z</time></trkpt>
<trkpt lat="46.08586" lon="6.97647"><ele>1307.4</ele><time>2017-06-15T12:20:09Z</time></trkpt>
<trkpt lat="46.08585" lon="6.97643"><ele>1307.6</ele><time>2017-06-15T12:20:11Z</time></trkpt>
<trkpt lat="46.08583" lon="6.97638"><ele>1308</ele><time>2017-06-15T12:20:13Z</time></trkpt>
<trkpt lat="46.08582" lon="6.97634"><ele>1308.4</ele><time>2017-06-15T12:20:15Z</time></trkpt>
<trkpt lat="46.0858" lon="6.9763"><ele>1308.6</ele><time>2017-06-15T12:20:17Z</time></trkpt>
<trkpt lat="46.08579" lon="6.97625"><ele>1309</ele><time>2017-06-15T12:20:19Z</time></trkpt>
<trkpt lat="46.08577" lon="6.97621"><ele>1309.4</ele><time>2017-06-15T12:20:21Z</time></trkpt>
<trkpt lat="46.08576" lon="6.97619"><ele>1309.4</ele><time>2017-06-15T12:20:22Z</time></trkpt>
<trkpt lat="46.08575" lon="6.97617"><ele>1309.6</ele><time>2017-06-15T12:20:23Z</time></trkpt>
<trkpt lat="46.08574" lon="6.97612"><ele>1310</ele><time>2017-06-15T12:20:25Z</time></trkpt>
<trkpt lat="46.08572" lon="6.97608"><ele>1310.2</ele><time>2017-06-15T12:20:27Z</time></trkpt>
<trkpt lat="46.08571" lon="6.97604"><ele>1310.6</ele><time>2017-06-15T12:20:29Z</time></trkpt>
<trkpt lat="46.08569" lon="6.97599"><ele>1310.8</ele><time>2017-06-15T12:20:31Z</time></trkpt>
<trkpt lat="46.08568" lon="6.97595"><ele>1311.2</ele><time>2017-06-15T12:20:33Z</time></trkpt>
<trkpt lat="46.08566" lon="6.97591"><ele>1311.4</ele><time>2017-06-15T12:20:35Z</time></trkpt>
<trkpt lat="46.08564" lon="6.97588"><ele>1311.6</ele><time>2017-06-15T12:20:37Z</time></trkpt>
<trkpt lat="46.08563" lon="6.97585"><ele>1312</ele><time>2017-06-15T12:20:39Z</time></trkpt>
<trkpt lat="46.08561" lon="6.97581"><ele>1312.2</ele><time>2017-06-15T12:20:41Z</time></trkpt>
<trkpt lat="46.08559" lon="6.97578"><ele>1312.6</ele><time>2017-06-15T12:20:43Z</time></trkpt>
<trkpt lat="46.08557" lon="6.97575"><ele>1312.8</ele><time>2017-06-15T12:20:45Z</time></trkpt>
<trkpt lat="46.08555" lon="6.97572"><ele>1313.2</ele><time>2017-06-15T12:20:47Z</time></trkpt>
<trkpt lat="46.08554" lon="6.97569"><ele>1313.4</ele><time>2017-06-15T12:20:49Z</time></trkpt>
<trkpt lat="46.08552" lon="6.97566"><ele>1313.8</ele><time>2017-06-15T12:20:51Z</time></trkpt>
<trkpt lat="46.0855" lon="6.97563"><ele>1314</ele><time>2017-06-15T12:20:53Z</time></trkpt>
<trkpt lat="46.08548" lon="6.9756"><ele>1314.4</ele><time>2017-06-15T12:20:55Z</time></trkpt>
<trkpt lat="46.08547" lon="6.97557"><ele>1314.6</ele><time>2017-06-15T12:20:57Z</time></trkpt>
<trkpt lat="46.08545" lon="6.97554"><ele>1315</ele><time>2017-06-15T12:20:59Z</time></trkpt>
<trkpt lat="46.08543" lon="6.97551"><ele>1315.2</ele><time>2017-06-15T12:21:01Z</time></trkpt>
<trkpt lat="46.08541" lon="6.97548"><ele>1315.6</ele><time>2017-06-15T12:21:03Z</time></trkpt>
<trkpt lat="46.08539" lon="6.97545"><ele>1315.8</ele><time>2017-06-15T12:21:05Z</time></trkpt>
<trkpt lat="46.08538" lon="6.97541"><ele>1316.2</ele><time>2017-06-15T12:21:07Z</time></trkpt>
<trkpt lat="46.08537" lon="6.9754"><ele>1316.4</ele><time>2017-06-15T12:21:08Z</time></trkpt>
<trkpt lat="46.08536" lon="6.97538"><ele>1316.4</ele><time>2017-06-15T12:21:09Z</time></trkpt>
<trkpt lat="46.08534" lon="6.97535"><ele>1316.8</ele><time>2017-06-15T12:21:11Z</time></trkpt>
<trkpt lat="46.08533" lon="6.97532"><ele>1317.2</ele><time>2017-06-15T12:21:13Z</time></trkpt>
<trkpt lat="46.08531" lon="6.97528"><ele>1317.4</ele><time>2017-06-15T12:21:15Z</time></trkpt>
<trkpt lat="46.08529" lon="6.97525"><ele>1317.8</ele><time>2017-06-15T12:21:17Z</time></trkpt>
<trkpt lat="46.08528" lon="6.97522"><ele>1318.2</ele><time>2017-06-15T12:21:19Z</time></trkpt>
<trkpt lat="46.08526" lon="6.97519"><ele>1318.4</ele><time>2017-06-15T12:21:21Z</time></trkpt>
<trkpt lat="46.08524" lon="6.97515"><ele>1318.8</ele><time>2017-06-15T12:21:23Z</time></trkpt>
<trkpt lat="46.08523" lon="6.97512"><ele>1319</ele><time>2017-06-15T12:21:25Z</time></trkpt>
<trkpt lat="46.08521" lon="6.97509"><ele>1319.4</ele><time>2017-06-15T12:21:27Z</time></trkpt>
<trkpt lat="46.08519" lon="6.97505"><ele>1319.8</ele><time>2017-06-15T12:21:29Z</time></trkpt>
<trkpt lat="46.08519" lon="6.97504"><ele>1319.8</ele><time>2017-06-15T12:21:30Z</time></trkpt>
<trkpt lat="46.08518" lon="6.97502"><ele>1320</ele><time>2017-06-15T12:21:31Z</time></trkpt>
<trkpt lat="46.08516" lon="6.97499"><ele>1320.4</ele><time>2017-06-15T12:21:33Z</time></trkpt>
<trkpt lat="46.08514" lon="6.97495"><ele>1320.6</ele><time>2017-06-15T12:21:35Z</time></trkpt>
<trkpt lat="46.08513" lon="6.97492"><ele>1321</ele><time>2017-06-15T12:21:37Z</time></trkpt>
<trkpt lat="46.08511" lon="6.97489"><ele>1321.2</ele><time>2017-06-15T12:21:39Z</time></trkpt>
<trkpt lat="46.0851" lon="6.97487"><ele>1321.4</ele><time>2017-06-15T12:21:40Z</time></trkpt>
<trkpt lat="46.08509" lon="6.97486"><ele>1321.6</ele><time>2017-06-15T12:21:41Z</time></trkpt>
<trkpt lat="46.08507" lon="6.97482"><ele>1321.8</ele><time>2017-06-15T12:21:43Z</time></trkpt>
<trkpt lat="46.08506" lon="6.97479"><ele>1322.2</ele><time>2017-06-15T12:21:45Z</time></trkpt>
<trkpt lat="46.08504" lon="6.97476"><ele>1322.4</ele><time>2017-06-15T12:21:47Z</time></trkpt>
<trkpt lat="46.08502" lon="6.97472"><ele>1322.8</ele><time>2017-06-15T12:21:49Z</time></trkpt>
<trkpt lat="46.085" lon="6.97469"><ele>1323</ele><time>2017-06-15T12:21:51Z</time></trkpt>
<trkpt lat="46.08499" lon="6.97465"><ele>1323.4</ele><time>2017-06-15T12:21:53Z</time></trkpt>
<trkpt lat="46.08497" lon="6.97462"><ele>1323.6</ele><time>2017-06-15T12:21:55Z</time></trkpt>
<trkpt lat="46.08495" lon="6.97459"><ele>1324</ele><time>2017-06-15T12:21:57Z</time></trkpt>
<trkpt lat="46.08493" lon="6.97455"><ele>1324.2</ele><time>2017-06-15T12:21:59Z</time></trkpt>
<trkpt lat="46.08491" lon="6.97452"><ele>1324.6</ele><time>2017-06-15T12:22:01Z</time></trkpt>
<trkpt lat="46.0849" lon="6.97449"><ele>1324.8</ele><time>2017-06-15T12:22:03Z</time></trkpt>
<trkpt lat="46.08488" lon="6.97445"><ele>1325.2</ele><time>2017-06-15T12:22:05Z</time></trkpt>
<trkpt lat="46.08486" lon="6.97442"><ele>1325.6</ele><time>2017-06-15T12:22:07Z</time></trkpt>
<trkpt lat="46.08484" lon="6.97439"><ele>1325.8</ele><time>2017-06-15T12:22:09Z</time></trkpt>
<trkpt lat="46.08482" lon="6.97436"><ele>1326.2</ele><time>2017-06-15T12:22:11Z</time></trkpt>
<trkpt lat="46.0848" lon="6.97433"><ele>1326.4</ele><time>2017-06-15T12:22:13Z</time></trkpt>
<trkpt lat="46.08478" lon="6.9743"><ele>1326.8</ele><time>2017-06-15T12:22:15Z</time></trkpt>
<trkpt lat="46.08476" lon="6.97428"><ele>1327</ele><time>2017-06-15T12:22:17Z</time></trkpt>
<trkpt lat="46.08474" lon="6.97425"><ele>1327.4</ele><time>2017-06-15T12:22:19Z</time></trkpt>
<trkpt lat="46.08471" lon="6.97423"><ele>1327.6</ele><time>2017-06-15T12:22:21Z</time></trkpt>
<trkpt lat="46.08469" lon="6.9742"><ele>1328</ele><time>2017-06-15T12:22:23Z</time></trkpt>
<trkpt lat="46.08467" lon="6.97417"><ele>1328.4</ele><time>2017-06-15T12:22:25Z</time></trkpt>
<trkpt lat="46.08465" lon="6.97415"><ele>1328.6</ele><time>2017-06-15T12:22:27Z</time></trkpt>
<trkpt lat="46.08463" lon="6.97412"><ele>1329</ele><time>2017-06-15T12:22:29Z</time></trkpt>
<trkpt lat="46.0846" lon="6.9741"><ele>1329.2</ele><time>2017-06-15T12:22:31Z</time></trkpt>
<trkpt lat="46.08458" lon="6.97407"><ele>1329.6</ele><time>2017-06-15T12:22:33Z</time></trkpt>
<trkpt lat="46.08456" lon="6.97405"><ele>1329.8</ele><time>2017-06-15T12:22:35Z</time></trkpt>
<trkpt lat="46.08454" lon="6.97402"><ele>1330.2</ele><time>2017-06-15T12:22:37Z</time></trkpt>
<trkpt lat="46.08452" lon="6.97399"><ele>1330.4</ele><time>2017-06-15T12:22:39Z</time></trkpt>
<trkpt lat="46.0845" lon="6.97397"><ele>1330.8</ele><time>2017-06-15T12:22:41Z</time></trkpt>
<trkpt lat="46.08447" lon="6.97394"><ele>1331</ele><time>2017-06-15T12:22:43Z</time></trkpt>
<trkpt lat="46.08446" lon="6.97391"><ele>1331.4</ele><time>2017-06-15T12:22:45Z</time></trkpt>
<trkpt lat="46.08444" lon="6.97388"><ele>1331.6</ele><time>2017-06-15T12:22:47Z</time></trkpt>
<trkpt lat="46.08442" lon="6.97385"><ele>1331.8</ele><time>2017-06-15T12:22:49Z</time></trkpt>
<trkpt lat="46.0844" lon="6.97382"><ele>1332.2</ele><time>2017-06-15T12:22:51Z</time></trkpt>
<trkpt lat="46.08439" lon="6.97379"><ele>1332.4</ele><time>2017-06-15T12:22:53Z</time></trkpt>
<trkpt lat="46.08437" lon="6.97376"><ele>1332.8</ele><time>2017-06-15T12:22:55Z</time></trkpt>
<trkpt lat="46.08435" lon="6.97373"><ele>1333</ele><time>2017-06-15T12:22:57Z</time></trkpt>
<trkpt lat="46.08433" lon="6.9737"><ele>1333.2</ele><time>2017-06-15T12:22:59Z</time></trkpt>
<trkpt lat="46.08432" lon="6.97369"><ele>1333.4</ele><time>2017-06-15T12:23:00Z</time></trkpt>
<trkpt lat="46.08431" lon="6.97367"><ele>1333.6</ele><time>2017-06-15T12:23:01Z</time></trkpt>
<trkpt lat="46.0843" lon="6.97364"><ele>1333.8</ele><time>2017-06-15T12:23:03Z</time></trkpt>
<trkpt lat="46.08428" lon="6.97361"><ele>1334.2</ele><time>2017-06-15T12:23:05Z</time></trkpt>
<trkpt lat="46.08426" lon="6.97358"><ele>1334.6</ele><time>2017-06-15T12:23:07Z</time></trkpt>
<trkpt lat="46.08424" lon="6.97355"><ele>1334.8</ele><time>2017-06-15T12:23:09Z</time></trkpt>
<trkpt lat="46.08423" lon="6.97352"><ele>1335.2</ele><time>2017-06-15T12:23:11Z</time></trkpt>
<trkpt lat="46.08421" lon="6.97349"><ele>1335.4</ele><time>2017-06-15T12:23:13Z</time></trkpt>
<trkpt lat="46.08419" lon="6.97346"><ele>1335.8</ele><time>2017-06-15T12:23:15Z</time></trkpt>
<trkpt lat="46.08418" lon="6.97344"><ele>1336</ele><time>2017-06-15T12:23:16Z</time></trkpt>
<trkpt lat="46.08418" lon="6.97343"><ele>1336</ele><time>2017-06-15T12:23:17Z</time></trkpt>
<trkpt lat="46.08417" lon="6.97339"><ele>1336.4</ele><time>2017-06-15T12:23:19Z</time></trkpt>
<trkpt lat="46.08416" lon="6.97335"><ele>1336.8</ele><time>2017-06-15T12:23:21Z</time></trkpt>
<trkpt lat="46.08416" lon="6.97333"><ele>1336.8</ele><time>2017-06-15T12:23:22Z</time></trkpt>
<trkpt lat="46.08415" lon="6.97331"><ele>1337</ele><time>2017-06-15T12:23:23Z</time></trkpt>
<trkpt lat="46.08414" lon="6.97327"><ele>1337.2</ele><time>2017-06-15T12:23:25Z</time></trkpt>
<trkpt lat="46.08413" lon="6.97323"><ele>1337.6</ele><time>2017-06-15T12:23:27Z</time></trkpt>
<trkpt lat="46.08412" lon="6.97319"><ele>1337.8</ele><time>2017-06-15T12:23:29Z</time></trkpt>
<trkpt lat="46.08412" lon="6.97316"><ele>1338.2</ele><time>2017-06-15T12:23:31Z</time></trkpt>
<trkpt lat="46.08411" lon="6.97312"><ele>1338.4</ele><time>2017-06-15T12:23:33Z</time></trkpt>
<trkpt lat="46.0841" lon="6.97308"><ele>1338.8</ele><time>2017-06-15T12:23:35Z</time></trkpt>
<trkpt lat="46.08409" lon="6.97304"><ele>1339</ele><time>2017-06-15T12:23:37Z</time></trkpt>
<trkpt lat="46.08408" lon="6.973"><ele>1339.4</ele><time>2017-06-15T12:23:39Z</time></trkpt>
<trkpt lat="46.08407" lon="6.97296"><ele>1339.6</ele><time>2017-06-15T12:23:41Z</time></trkpt>
<trkpt lat="46.08406" lon="6.97292"><ele>1340</ele><time>2017-06-15T12:23:43Z</time></trkpt>
<trkpt lat="46.08405" lon="6.97288"><ele>1340.2</ele><time>2017-06-15T12:23:45Z</time></trkpt>
<trkpt lat="46.08404" lon="6.97285"><ele>1340.6</ele><time>2017-06-15T12:23:47Z</time></trkpt>
<trkpt lat="46.08404" lon="6.97283"><ele>1340.6</ele><time>2017-06-15T12:23:48Z</time></trkpt>
<trkpt lat="46.08404" lon="6.97281"><ele>1340.8</ele><time>2017-06-15T12:23:49Z</time></trkpt>
<trkpt lat="46.08404" lon="6.97276"><ele>1341.2</ele><time>2017-06-15T12:23:51Z</time></trkpt>
<trkpt lat="46.08403" lon="6.97272"><ele>1341.4</ele><time>2017-06-15T12:23:53Z</time></trkpt>
<trkpt lat="46.08403" lon="6.97268"><ele>1341.8</ele><time>2017-06-15T12:23:55Z</time></trkpt>
<trkpt lat="46.08403" lon="6.97264"><ele>1342</ele><time>2017-06-15T12:23:57Z</time></trkpt>
<trkpt lat="46.08403" lon="6.9726"><ele>1342.4</ele><time>2017-06-15T12:23:59Z</time></trkpt>
<trkpt lat="46.08402" lon="6.97256"><ele>1342.8</ele><time>2017-06-15T12:24:01Z</time></trkpt>
<trkpt lat="46.08402" lon="6.97252"><ele>1343</ele><time>2017-06-15T12:24:03Z</time></trkpt>
<trkpt lat="46.08402" lon="6.97248"><ele>1343.4</ele><time>2017-06-15T12:24:05Z</time></trkpt>
<trkpt lat="46.08402" lon="6.97244"><ele>1343.6</ele><time>2017-06-15T12:24:07Z</time></trkpt>
<trkpt lat="46.08402" lon="6.97241"><ele>1343.8</ele><time>2017-06-15T12:24:08Z</time></trkpt>
<trkpt lat="46.08401" lon="6.97239"><ele>1344</ele><time>2017-06-15T12:24:09Z</time></trkpt>
<trkpt lat="46.08401" lon="6.97235"><ele>1344.2</ele><time>2017-06-15T12:24:11Z</time></trkpt>
<trkpt lat="46.08401" lon="6.97231"><ele>1344.6</ele><time>2017-06-15T12:24:13Z</time></trkpt>
<trkpt lat="46.08401" lon="6.97227"><ele>1345</ele><time>2017-06-15T12:24:15Z</time></trkpt>
<trkpt lat="46.08401" lon="6.97223"><ele>1345.2</ele><time>2017-06-15T12:24:17Z</time></trkpt>
<trkpt lat="46.084" lon="6.97219"><ele>1345.6</ele><time>2017-06-15T12:24:19Z</time></trkpt>
<trkpt lat="46.084" lon="6.97217"><ele>1345.8</ele><time>2017-06-15T12:24:20Z</time></trkpt>
<trkpt lat="46.084" lon="6.97215"><ele>1345.8</ele><time>2017-06-15T12:24:21Z</time></trkpt>
<trkpt lat="46.08398" lon="6.97212"><ele>1346.2</ele><time>2017-06-15T12:24:23Z</time></trkpt>
<trkpt lat="46.08397" lon="6.97208"><ele>1346.6</ele><time>2017-06-15T12:24:25Z</time></trkpt>
<trkpt lat="46.08396" lon="6.97205"><ele>1346.8</ele><time>2017-06-15T12:24:27Z</time></trkpt>
<trkpt lat="46.08395" lon="6.97202"><ele>1347.2</ele><time>2017-06-15T12:24:29Z</time></trkpt>
<trkpt lat="46.08395" lon="6.972"><ele>1347.4</ele><time>2017-06-15T12:24:30Z</time></trkpt>
<trkpt lat="46.08394" lon="6.97198"><ele>1347.4</ele><time>2017-06-15T12:24:31Z</time></trkpt>
<trkpt lat="46.08393" lon="6.97195"><ele>1347.8</ele><time>2017-06-15T12:24:33Z</time></trkpt>
<trkpt lat="46.08392" lon="6.97192"><ele>1348.2</ele><time>2017-06-15T12:24:35Z</time></trkpt>
<trkpt lat="46.08391" lon="6.97188"><ele>1348.4</ele><time>2017-06-15T12:24:37Z</time></trkpt>
<trkpt lat="46.0839" lon="6.97185"><ele>1348.8</ele><time>2017-06-15T12:24:39Z</time></trkpt>
<trkpt lat="46.08389" lon="6.97181"><ele>1349</ele><time>2017-06-15T12:24:41Z</time></trkpt>
<trkpt lat="46.08387" lon="6.97178"><ele>1349.4</ele><time>2017-06-15T12:24:43Z</time></trkpt>
<trkpt lat="46.08386" lon="6.97175"><ele>1349.8</ele><time>2017-06-15T12:24:45Z</time></trkpt>
<trkpt lat="46.08385" lon="6.97171"><ele>1350</ele><time>2017-06-15T12:24:47Z</time></trkpt>
<trkpt lat="46.08384" lon="6.97168"><ele>1350.4</ele><time>2017-06-15T12:24:49Z</time></trkpt>
<trkpt lat="46.08383" lon="6.97164"><ele>1350.8</ele><time>2017-06-15T12:24:51Z</time></trkpt>
<trkpt lat="46.08382" lon="6.97163"><ele>1350.8</ele><time>2017-06-15T12:24:52Z</time></trkpt>
<trkpt lat="46.08382" lon="6.97161"><ele>1351</ele><time>2017-06-15T12:24:53Z</time></trkpt>
<trkpt lat="46.08381" lon="6.97158"><ele>1351.4</ele><time>2017-06-15T12:24:55Z</time></trkpt>
<trkpt lat="46.0838" lon="6.97154"><ele>1351.6</ele><time>2017-06-15T12:24:57Z</time></trkpt>
<trkpt lat="46.08379" lon="6.9715"><ele>1351.8</ele><time>2017-06-15T12:24:59Z</time></trkpt>
<trkpt lat="46.08378" lon="6.97146"><ele>1352.2</ele><time>2017-06-15T12:25:01Z</time></trkpt>
<trkpt lat="46.08377" lon="6.97142"><ele>1352.4</ele><time>2017-06-15T12:25:03Z</time></trkpt>
<trkpt lat="46.08376" lon="6.97138"><ele>1352.8</ele><time>2017-06-15T12:25:05Z</time></trkpt>
<trkpt lat="46.08375" lon="6.97134"><ele>1353</ele><time>2017-06-15T12:25:07Z</time></trkpt>
<trkpt lat="46.08374" lon="6.9713"><ele>1353.2</ele><time>2017-06-15T12:25:09Z</time></trkpt>
<trkpt lat="46.08373" lon="6.97127"><ele>1353.6</ele><time>2017-06-15T12:25:11Z</time></trkpt>
<trkpt lat="46.08373" lon="6.97123"><ele>1353.8</ele><time>2017-06-15T12:25:13Z</time></trkpt>
<trkpt lat="46.08372" lon="6.97121"><ele>1354</ele><time>2017-06-15T12:25:14Z</time></trkpt>
<trkpt lat="46.08372" lon="6.97119"><ele>1354.2</ele><time>2017-06-15T12:25:15Z</time></trkpt>
<trkpt lat="46.08371" lon="6.97115"><ele>1354.4</ele><time>2017-06-15T12:25:17Z</time></trkpt>
<trkpt lat="46.0837" lon="6.97111"><ele>1354.6</ele><time>2017-06-15T12:25:19Z</time></trkpt>
<trkpt lat="46.08369" lon="6.97107"><ele>1355</ele><time>2017-06-15T12:25:21Z</time></trkpt>
<trkpt lat="46.08368" lon="6.97103"><ele>1355.2</ele><time>2017-06-15T12:25:23Z</time></trkpt>
<trkpt lat="46.08367" lon="6.971"><ele>1355.4</ele><time>2017-06-15T12:25:25Z</time></trkpt>
<trkpt lat="46.08366" lon="6.97096"><ele>1355.8</ele><time>2017-06-15T12:25:27Z</time></trkpt>
<trkpt lat="46.08366" lon="6.97094"><ele>1356</ele><time>2017-06-15T12:25:29Z</time></trkpt>
<trkpt lat="46.08366" lon="6.97093"><ele>1356.4</ele><time>2017-06-15T12:25:31Z</time></trkpt>
<trkpt lat="46.08366" lon="6.97091"><ele>1356.6</ele><time>2017-06-15T12:25:33Z</time></trkpt>
<trkpt lat="46.08366" lon="6.97089"><ele>1356.8</ele><time>2017-06-15T12:25:35Z</time></trkpt>
<trkpt lat="46.08366" lon="6.97088"><ele>1357</ele><time>2017-06-15T12:25:36Z</time></trkpt>
<trkpt lat="46.08366" lon="6.97087"><ele>1357.2</ele><time>2017-06-15T12:25:37Z</time></trkpt>
<trkpt lat="46.08366" lon="6.97086"><ele>1357.4</ele><time>2017-06-15T12:25:39Z</time></trkpt>
<trkpt lat="46.08366" lon="6.97084"><ele>1357.6</ele><time>2017-06-15T12:25:41Z</time></trkpt>
<trkpt lat="46.08366" lon="6.97082"><ele>1357.8</ele><time>2017-06-15T12:25:43Z</time></trkpt>
<trkpt lat="46.08362" lon="6.97052"><ele>1360.2</ele><time>2017-06-15T12:25:46Z</time></trkpt>
<trkpt lat="46.08362" lon="6.97052"><ele>1360.2</ele><time>2017-06-15T12:26:46Z</time></trkpt>
<trkpt lat="46.08359" lon="6.97024"><ele>1362.2</ele><time>2017-06-15T12:26:47Z</time></trkpt>
<trkpt lat="46.08357" lon="6.9702"><ele>1362.4</ele><time>2017-06-15T12:26:49Z</time></trkpt>
<trkpt lat="46.08355" lon="6.97017"><ele>1362.4</ele><time>2017-06-15T12:26:51Z</time></trkpt>
<trkpt lat="46.08353" lon="6.97014"><ele>1362.6</ele><time>2017-06-15T12:26:53Z</time></trkpt>
<trkpt lat="46.0835" lon="6.9701"><ele>1362.6</ele><time>2017-06-15T12:26:55Z</time></trkpt>
<trkpt lat="46.08348" lon="6.97007"><ele>1362.8</ele><time>2017-06-15T12:26:57Z</time></trkpt>
<trkpt lat="46.08346" lon="6.97004"><ele>1362.8</ele><time>2017-06-15T12:26:59Z</time></trkpt>
<trkpt lat="46.08344" lon="6.97"><ele>1363</ele><time>2017-06-15T12:27:01Z</time></trkpt>
<trkpt lat="46.08342" lon="6.96997"><ele>1363</ele><time>2017-06-15T12:27:03Z</time></trkpt>
<trkpt lat="46.0834" lon="6.96993"><ele>1363.2</ele><time>2017-06-15T12:27:05Z</time></trkpt>
<trkpt lat="46.08338" lon="6.9699"><ele>1363.4</ele><time>2017-06-15T12:27:07Z</time></trkpt>
<trkpt lat="46.08336" lon="6.96987"><ele>1363.8</ele><time>2017-06-15T12:27:09Z</time></trkpt>
<trkpt lat="46.08334" lon="6.96983"><ele>1364</ele><time>2017-06-15T12:27:11Z</time></trkpt>
<trkpt lat="46.08333" lon="6.9698"><ele>1364.2</ele><time>2017-06-15T12:27:13Z</time></trkpt>
<trkpt lat="46.08333" lon="6.96975"><ele>1364.6</ele><time>2017-06-15T12:27:15Z</time></trkpt>
<trkpt lat="46.08333" lon="6.96973"><ele>1364.6</ele><time>2017-06-15T12:27:16Z</time></trkpt>
<trkpt lat="46.08333" lon="6.96971"><ele>1364.8</ele><time>2017-06-15T12:27:17Z</time></trkpt>
<trkpt lat="46.08334" lon="6.96966"><ele>1365.2</ele><time>2017-06-15T12:27:19Z</time></trkpt>
<trkpt lat="46.08334" lon="6.96962"><ele>1365.4</ele><time>2017-06-15T12:27:21Z</time></trkpt>
<trkpt lat="46.08334" lon="6.96957"><ele>1365.8</ele><time>2017-06-15T12:27:23Z</time></trkpt>
<trkpt lat="46.08335" lon="6.96953"><ele>1366</ele><time>2017-06-15T12:27:25Z</time></trkpt>
<trkpt lat="46.08335" lon="6.96949"><ele>1366.4</ele><time>2017-06-15T12:27:27Z</time></trkpt>
<trkpt lat="46.08335" lon="6.96944"><ele>1366.8</ele><time>2017-06-15T12:27:29Z</time></trkpt>
<trkpt lat="46.08336" lon="6.9694"><ele>1367</ele><time>2017-06-15T12:27:31Z</time></trkpt>
<trkpt lat="46.08336" lon="6.96935"><ele>1367.4</ele><time>2017-06-15T12:27:33Z</time></trkpt>
<trkpt lat="46.08336" lon="6.96931"><ele>1367.6</ele><time>2017-06-15T12:27:35Z</time></trkpt>
<trkpt lat="46.08337" lon="6.96926"><ele>1368</ele><time>2017-06-15T12:27:37Z</time></trkpt>
<trkpt lat="46.08337" lon="6.96922"><ele>1368.4</ele><time>2017-06-15T12:27:39Z</time></trkpt>
<trkpt lat="46.08337" lon="6.9692"><ele>1368.4</ele><time>2017-06-15T12:27:40Z</time></trkpt>
<trkpt lat="46.08337" lon="6.96917"><ele>1368.6</ele><time>2017-06-15T12:27:41Z</time></trkpt>
<trkpt lat="46.08337" lon="6.96915"><ele>1368.8</ele><time>2017-06-15T12:27:42Z</time></trkpt>
<trkpt lat="46.08337" lon="6.96913"><ele>1368.8</ele><time>2017-06-15T12:27:43Z</time></trkpt>
<trkpt lat="46.08335" lon="6.96909"><ele>1369.2</ele><time>2017-06-15T12:27:45Z</time></trkpt>
<trkpt lat="46.08334" lon="6.96905"><ele>1369.4</ele><time>2017-06-15T12:27:47Z</time></trkpt>
<trkpt lat="46.08333" lon="6.96901"><ele>1369.8</ele><time>2017-06-15T12:27:49Z</time></trkpt>
<trkpt lat="46.08332" lon="6.96897"><ele>1370</ele><time>2017-06-15T12:27:51Z</time></trkpt>
<trkpt lat="46.08331" lon="6.96893"><ele>1370.4</ele><time>2017-06-15T12:27:53Z</time></trkpt>
<trkpt lat="46.0833" lon="6.96889"><ele>1370.6</ele><time>2017-06-15T12:27:55Z</time></trkpt>
<trkpt lat="46.08328" lon="6.96884"><ele>1370.8</ele><time>2017-06-15T12:27:57Z</time></trkpt>
<trkpt lat="46.08327" lon="6.9688"><ele>1371.2</ele><time>2017-06-15T12:27:59Z</time></trkpt>
<trkpt lat="46.08326" lon="6.96876"><ele>1371.4</ele><time>2017-06-15T12:28:01Z</time></trkpt>
<trkpt lat="46.08325" lon="6.96872"><ele>1371.8</ele><time>2017-06-15T12:28:03Z</time></trkpt>
<trkpt lat="46.08324" lon="6.96868"><ele>1372</ele><time>2017-06-15T12:28:05Z</time></trkpt>
<trkpt lat="46.08323" lon="6.96864"><ele>1372.2</ele><time>2017-06-15T12:28:07Z</time></trkpt>
<trkpt lat="46.08321" lon="6.9686"><ele>1372.6</ele><time>2017-06-15T12:28:09Z</time></trkpt>
<trkpt lat="46.0832" lon="6.96856"><ele>1372.8</ele><time>2017-06-15T12:28:11Z</time></trkpt>
<trkpt lat="46.08319" lon="6.96854"><ele>1372.8</ele><time>2017-06-15T12:28:12Z</time></trkpt>
<trkpt lat="46.08318" lon="6.96852"><ele>1373</ele><time>2017-06-15T12:28:13Z</time></trkpt>
<trkpt lat="46.08316" lon="6.96849"><ele>1373.2</ele><time>2017-06-15T12:28:15Z</time></trkpt>
<trkpt lat="46.08314" lon="6.96845"><ele>1373.6</ele><time>2017-06-15T12:28:17Z</time></trkpt>
<trkpt lat="46.08312" lon="6.96842"><ele>1373.8</ele><time>2017-06-15T12:28:19Z</time></trkpt>
<trkpt lat="46.0831" lon="6.96839"><ele>1374</ele><time>2017-06-15T12:28:21Z</time></trkpt>
<trkpt lat="46.08308" lon="6.96835"><ele>1374.2</ele><time>2017-06-15T12:28:23Z</time></trkpt>
<trkpt lat="46.08306" lon="6.96832"><ele>1374.6</ele><time>2017-06-15T12:28:25Z</time></trkpt>
<trkpt lat="46.08304" lon="6.96828"><ele>1374.8</ele><time>2017-06-15T12:28:27Z</time></trkpt>
<trkpt lat="46.08302" lon="6.96825"><ele>1375.2</ele><time>2017-06-15T12:28:29Z</time></trkpt>
<trkpt lat="46.083" lon="6.96822"><ele>1375.4</ele><time>2017-06-15T12:28:31Z</time></trkpt>
<trkpt lat="46.08298" lon="6.96818"><ele>1375.8</ele><time>2017-06-15T12:28:33Z</time></trkpt>
<trkpt lat="46.08296" lon="6.96815"><ele>1376</ele><time>2017-06-15T12:28:35Z</time></trkpt>
<trkpt lat="46.08294" lon="6.96812"><ele>1376.4</ele><time>2017-06-15T12:28:37Z</time></trkpt>
<trkpt lat="46.08292" lon="6.96808"><ele>1376.6</ele><time>2017-06-15T12:28:39Z</time></trkpt>
<trkpt lat="46.0829" lon="6.96805"><ele>1377</ele><time>2017-06-15T12:28:41Z</time></trkpt>
<trkpt lat="46.0829" lon="6.96803"><ele>1377.2</ele><time>2017-06-15T12:28:42Z</time></trkpt>
<trkpt lat="46.08289" lon="6.96801"><ele>1377.4</ele><time>2017-06-15T12:28:43Z</time></trkpt>
<trkpt lat="46.08288" lon="6.96798"><ele>1377.6</ele><time>2017-06-15T12:28:45Z</time></trkpt>
<trkpt lat="46.08286" lon="6.96794"><ele>1378</ele><time>2017-06-15T12:28:47Z</time></trkpt>
<trkpt lat="46.08286" lon="6.96792"><ele>1378</ele><time>2017-06-15T12:28:48Z</time></trkpt>
<trkpt lat="46.08285" lon="6.9679"><ele>1378.2</ele><time>2017-06-15T12:28:49Z</time></trkpt>
<trkpt lat="46.08284" lon="6.96786"><ele>1378.4</ele><time>2017-06-15T12:28:51Z</time></trkpt>
<trkpt lat="46.08283" lon="6.96783"><ele>1378.8</ele><time>2017-06-15T12:28:53Z</time></trkpt>
<trkpt lat="46.08282" lon="6.96779"><ele>1379</ele><time>2017-06-15T12:28:55Z</time></trkpt>
<trkpt lat="46.0828" lon="6.96775"><ele>1379.2</ele><time>2017-06-15T12:28:57Z</time></trkpt>
<trkpt lat="46.08279" lon="6.96772"><ele>1379.6</ele><time>2017-06-15T12:28:59Z</time></trkpt>
<trkpt lat="46.08278" lon="6.96768"><ele>1379.8</ele><time>2017-06-15T12:29:01Z</time></trkpt>
<trkpt lat="46.08277" lon="6.96764"><ele>1380</ele><time>2017-06-15T12:29:03Z</time></trkpt>
<trkpt lat="46.08275" lon="6.96761"><ele>1380.4</ele><time>2017-06-15T12:29:05Z</time></trkpt>
<trkpt lat="46.08274" lon="6.96757"><ele>1380.6</ele><time>2017-06-15T12:29:07Z</time></trkpt>
<trkpt lat="46.08273" lon="6.96753"><ele>1380.8</ele><time>2017-06-15T12:29:09Z</time></trkpt>
<trkpt lat="46.08272" lon="6.9675"><ele>1381</ele><time>2017-06-15T12:29:11Z</time></trkpt>
<trkpt lat="46.08271" lon="6.96746"><ele>1381.4</ele><time>2017-06-15T12:29:13Z</time></trkpt>
<trkpt lat="46.0827" lon="6.96744"><ele>1381.4</ele><time>2017-06-15T12:29:14Z</time></trkpt>
<trkpt lat="46.08269" lon="6.96742"><ele>1381.6</ele><time>2017-06-15T12:29:15Z</time></trkpt>
<trkpt lat="46.08269" lon="6.9674"><ele>1381.8</ele><time>2017-06-15T12:29:16Z</time></trkpt>
<trkpt lat="46.08268" lon="6.96738"><ele>1381.8</ele><time>2017-06-15T12:29:17Z</time></trkpt>
<trkpt lat="46.08267" lon="6.96734"><ele>1382.2</ele><time>2017-06-15T12:29:19Z</time></trkpt>
<trkpt lat="46.08265" lon="6.9673"><ele>1382.4</ele><time>2017-06-15T12:29:21Z</time></trkpt>
<trkpt lat="46.08264" lon="6.96725"><ele>1382.8</ele><time>2017-06-15T12:29:23Z</time></trkpt>
<trkpt lat="46.08263" lon="6.96721"><ele>1383</ele><time>2017-06-15T12:29:25Z</time></trkpt>
<trkpt lat="46.08261" lon="6.96717"><ele>1383.4</ele><time>2017-06-15T12:29:27Z</time></trkpt>
<trkpt lat="46.0826" lon="6.96713"><ele>1383.6</ele><time>2017-06-15T12:29:29Z</time></trkpt>
<trkpt lat="46.08259" lon="6.96709"><ele>1384</ele><time>2017-06-15T12:29:31Z</time></trkpt>
<trkpt lat="46.08257" lon="6.96705"><ele>1384.2</ele><time>2017-06-15T12:29:33Z</time></trkpt>
<trkpt lat="46.08256" lon="6.96701"><ele>1384.6</ele><time>2017-06-15T12:29:35Z</time></trkpt>
<trkpt lat="46.08255" lon="6.96697"><ele>1384.8</ele><time>2017-06-15T12:29:37Z</time></trkpt>
<trkpt lat="46.08253" lon="6.96693"><ele>1385.2</ele><time>2017-06-15T12:29:39Z</time></trkpt>
<trkpt lat="46.08252" lon="6.96689"><ele>1385.4</ele><time>2017-06-15T12:29:41Z</time></trkpt>
<trkpt lat="46.0825" lon="6.96685"><ele>1385.6</ele><time>2017-06-15T12:29:43Z</time></trkpt>
<trkpt lat="46.08248" lon="6.96685"><ele>1385.8</ele><time>2017-06-15T12:29:45Z</time></trkpt>
<trkpt lat="46.08245" lon="6.96685"><ele>1386</ele><time>2017-06-15T12:29:47Z</time></trkpt>
<trkpt lat="46.08242" lon="6.96684"><ele>1386.2</ele><time>2017-06-15T12:29:49Z</time></trkpt>
<trkpt lat="46.0824" lon="6.96684"><ele>1386.4</ele><time>2017-06-15T12:29:51Z</time></trkpt>
<trkpt lat="46.08237" lon="6.96684"><ele>1386.6</ele><time>2017-06-15T12:29:53Z</time></trkpt>
<trkpt lat="46.08234" lon="6.96684"><ele>1386.8</ele><time>2017-06-15T12:29:55Z</time></trkpt>
<trkpt lat="46.08233" lon="6.96684"><ele>1386.8</ele><time>2017-06-15T12:29:56Z</time></trkpt>
<trkpt lat="46.08231" lon="6.96684"><ele>1387</ele><time>2017-06-15T12:29:57Z</time></trkpt>
<trkpt lat="46.08229" lon="6.96684"><ele>1387.4</ele><time>2017-06-15T12:29:59Z</time></trkpt>
<trkpt lat="46.08226" lon="6.96683"><ele>1387.6</ele><time>2017-06-15T12:30:01Z</time></trkpt>
<trkpt lat="46.08223" lon="6.96683"><ele>1388</ele><time>2017-06-15T12:30:03Z</time></trkpt>
<trkpt lat="46.08221" lon="6.96683"><ele>1388.2</ele><time>2017-06-15T12:30:05Z</time></trkpt>
<trkpt lat="46.08218" lon="6.96683"><ele>1388.6</ele><time>2017-06-15T12:30:07Z</time></trkpt>
<trkpt lat="46.08215" lon="6.96683"><ele>1388.8</ele><time>2017-06-15T12:30:09Z</time></trkpt>
<trkpt lat="46.08213" lon="6.96682"><ele>1389.2</ele><time>2017-06-15T12:30:11Z</time></trkpt>
<trkpt lat="46.0821" lon="6.96682"><ele>1389.4</ele><time>2017-06-15T12:30:13Z</time></trkpt>
<trkpt lat="46.08207" lon="6.96682"><ele>1389.8</ele><time>2017-06-15T12:30:15Z</time></trkpt>
<trkpt lat="46.08205" lon="6.96681"><ele>1390</ele><time>2017-06-15T12:30:17Z</time></trkpt>
<trkpt lat="46.08202" lon="6.96679"><ele>1390.4</ele><time>2017-06-15T12:30:19Z</time></trkpt>
<trkpt lat="46.082" lon="6.96677"><ele>1390.6</ele><time>2017-06-15T12:30:21Z</time></trkpt>
<trkpt lat="46.08198" lon="6.96675"><ele>1391</ele><time>2017-06-15T12:30:23Z</time></trkpt>
<trkpt lat="46.08196" lon="6.96673"><ele>1391.2</ele><time>2017-06-15T12:30:25Z</time></trkpt>
<trkpt lat="46.08194" lon="6.96671"><ele>1391.6</ele><time>2017-06-15T12:30:27Z</time></trkpt>
<trkpt lat="46.08192" lon="6.96669"><ele>1391.8</ele><time>2017-06-15T12:30:29Z</time></trkpt>
<trkpt lat="46.08189" lon="6.96667"><ele>1392.2</ele><time>2017-06-15T12:30:31Z</time></trkpt>
<trkpt lat="46.08187" lon="6.96665"><ele>1392.4</ele><time>2017-06-15T12:30:33Z</time></trkpt>
<trkpt lat="46.08185" lon="6.96663"><ele>1392.8</ele><time>2017-06-15T12:30:35Z</time></trkpt>
<trkpt lat="46.08183" lon="6.96661"><ele>1393</ele><time>2017-06-15T12:30:37Z</time></trkpt>
<trkpt lat="46.08181" lon="6.96659"><ele>1393.2</ele><time>2017-06-15T12:30:39Z</time></trkpt>
<trkpt lat="46.08179" lon="6.96657"><ele>1393.6</ele><time>2017-06-15T12:30:41Z</time></trkpt>
<trkpt lat="46.08176" lon="6.96655"><ele>1393.8</ele><time>2017-06-15T12:30:43Z</time></trkpt>
<trkpt lat="46.08174" lon="6.96653"><ele>1394</ele><time>2017-06-15T12:30:45Z</time></trkpt>
<trkpt lat="46.08172" lon="6.96651"><ele>1394.4</ele><time>2017-06-15T12:30:47Z</time></trkpt>
<trkpt lat="46.0817" lon="6.96649"><ele>1394.6</ele><time>2017-06-15T12:30:49Z</time></trkpt>
<trkpt lat="46.08168" lon="6.96647"><ele>1394.8</ele><time>2017-06-15T12:30:51Z</time></trkpt>
<trkpt lat="46.08167" lon="6.96646"><ele>1395</ele><time>2017-06-15T12:30:52Z</time></trkpt>
<trkpt lat="46.08166" lon="6.96644"><ele>1395.2</ele><time>2017-06-15T12:30:53Z</time></trkpt>
<trkpt lat="46.08164" lon="6.96641"><ele>1395.4</ele><time>2017-06-15T12:30:55Z</time></trkpt>
<trkpt lat="46.08163" lon="6.96639"><ele>1395.6</ele><time>2017-06-15T12:30:56Z</time></trkpt>
<trkpt lat="46.08162" lon="6.96638"><ele>1395.8</ele><time>2017-06-15T12:30:57Z</time></trkpt>
<trkpt lat="46.0816" lon="6.96635"><ele>1396</ele><time>2017-06-15T12:30:59Z</time></trkpt>
<trkpt lat="46.08158" lon="6.96632"><ele>1396.2</ele><time>2017-06-15T12:31:01Z</time></trkpt>
<trkpt lat="46.08157" lon="6.96628"><ele>1396.6</ele><time>2017-06-15T12:31:03Z</time></trkpt>
<trkpt lat="46.08155" lon="6.96625"><ele>1396.8</ele><time>2017-06-15T12:31:05Z</time></trkpt>
<trkpt lat="46.08153" lon="6.96622"><ele>1397.2</ele><time>2017-06-15T12:31:07Z</time></trkpt>
<trkpt lat="46.08151" lon="6.96619"><ele>1397.4</ele><time>2017-06-15T12:31:09Z</time></trkpt>
<trkpt lat="46.08149" lon="6.96616"><ele>1397.6</ele><time>2017-06-15T12:31:11Z</time></trkpt>
<trkpt lat="46.08147" lon="6.96613"><ele>1398</ele><time>2017-06-15T12:31:13Z</time></trkpt>
<trkpt lat="46.08145" lon="6.9661"><ele>1398.2</ele><time>2017-06-15T12:31:15Z</time></trkpt>
<trkpt lat="46.08144" lon="6.96607"><ele>1398.6</ele><time>2017-06-15T12:31:17Z</time></trkpt>
<trkpt lat="46.08143" lon="6.96605"><ele>1398.6</ele><time>2017-06-15T12:31:18Z</time></trkpt>
<trkpt lat="46.08142" lon="6.96603"><ele>1398.8</ele><time>2017-06-15T12:31:19Z</time></trkpt>
<trkpt lat="46.0814" lon="6.966"><ele>1399</ele><time>2017-06-15T12:31:21Z</time></trkpt>
<trkpt lat="46.08138" lon="6.96597"><ele>1399.2</ele><time>2017-06-15T12:31:23Z</time></trkpt>
<trkpt lat="46.08137" lon="6.96596"><ele>1399.4</ele><time>2017-06-15T12:31:24Z</time></trkpt>
<trkpt lat="46.08136" lon="6.96594"><ele>1399.6</ele><time>2017-06-15T12:31:25Z</time></trkpt>
<trkpt lat="46.08135" lon="6.9659"><ele>1399.8</ele><time>2017-06-15T12:31:27Z</time></trkpt>
<trkpt lat="46.08134" lon="6.96586"><ele>1400</ele><time>2017-06-15T12:31:29Z</time></trkpt>
<trkpt lat="46.08132" lon="6.96583"><ele>1400.2</ele><time>2017-06-15T12:31:31Z</time></trkpt>
<trkpt lat="46.08131" lon="6.96579"><ele>1400.6</ele><time>2017-06-15T12:31:33Z</time></trkpt>
<trkpt lat="46.08129" lon="6.96576"><ele>1400.8</ele><time>2017-06-15T12:31:35Z</time></trkpt>
<trkpt lat="46.08128" lon="6.96572"><ele>1401</ele><time>2017-06-15T12:31:37Z</time></trkpt>
<trkpt lat="46.08127" lon="6.96568"><ele>1401.4</ele><time>2017-06-15T12:31:39Z</time></trkpt>
<trkpt lat="46.08126" lon="6.96566"><ele>1401.4</ele><time>2017-06-15T12:31:40Z</time></trkpt>
<trkpt lat="46.08125" lon="6.96565"><ele>1401.6</ele><time>2017-06-15T12:31:41Z</time></trkpt>
<trkpt lat="46.08124" lon="6.96561"><ele>1401.8</ele><time>2017-06-15T12:31:43Z</time></trkpt>
<trkpt lat="46.08122" lon="6.96557"><ele>1402.2</ele><time>2017-06-15T12:31:45Z</time></trkpt>
<trkpt lat="46.08122" lon="6.96556"><ele>1402.2</ele><time>2017-06-15T12:31:46Z</time></trkpt>
<trkpt lat="46.08121" lon="6.96554"><ele>1402.4</ele><time>2017-06-15T12:31:47Z</time></trkpt>
<trkpt lat="46.0812" lon="6.9655"><ele>1402.8</ele><time>2017-06-15T12:31:49Z</time></trkpt>
<trkpt lat="46.08118" lon="6.96546"><ele>1403</ele><time>2017-06-15T12:31:51Z</time></trkpt>
<trkpt lat="46.08117" lon="6.96543"><ele>1403.4</ele><time>2017-06-15T12:31:53Z</time></trkpt>
<trkpt lat="46.08115" lon="6.96539"><ele>1403.8</ele><time>2017-06-15T12:31:55Z</time></trkpt>
<trkpt lat="46.08115" lon="6.96538"><ele>1403.8</ele><time>2017-06-15T12:31:56Z</time></trkpt>
<trkpt lat="46.08114" lon="6.96536"><ele>1404</ele><time>2017-06-15T12:31:57Z</time></trkpt>
<trkpt lat="46.08111" lon="6.96533"><ele>1404.4</ele><time>2017-06-15T12:31:59Z</time></trkpt>
<trkpt lat="46.08109" lon="6.9653"><ele>1404.6</ele><time>2017-06-15T12:32:01Z</time></trkpt>
<trkpt lat="46.08107" lon="6.96527"><ele>1405</ele><time>2017-06-15T12:32:03Z</time></trkpt>
<trkpt lat="46.08105" lon="6.96524"><ele>1405.4</ele><time>2017-06-15T12:32:05Z</time></trkpt>
<trkpt lat="46.08103" lon="6.96521"><ele>1405.6</ele><time>2017-06-15T12:32:07Z</time></trkpt>
<trkpt lat="46.08101" lon="6.96518"><ele>1406</ele><time>2017-06-15T12:32:09Z</time></trkpt>
<trkpt lat="46.08099" lon="6.96516"><ele>1406.2</ele><time>2017-06-15T12:32:11Z</time></trkpt>
<trkpt lat="46.08097" lon="6.96513"><ele>1406.6</ele><time>2017-06-15T12:32:13Z</time></trkpt>
<trkpt lat="46.08095" lon="6.9651"><ele>1407</ele><time>2017-06-15T12:32:15Z</time></trkpt>
<trkpt lat="46.08093" lon="6.96507"><ele>1407.2</ele><time>2017-06-15T12:32:17Z</time></trkpt>
<trkpt lat="46.08091" lon="6.96504"><ele>1407.6</ele><time>2017-06-15T12:32:19Z</time></trkpt>
<trkpt lat="46.08089" lon="6.96501"><ele>1407.8</ele><time>2017-06-15T12:32:21Z</time></trkpt>
<trkpt lat="46.08087" lon="6.96498"><ele>1408.2</ele><time>2017-06-15T12:32:23Z</time></trkpt>
<trkpt lat="46.08085" lon="6.96495"><ele>1408.4</ele><time>2017-06-15T12:32:25Z</time></trkpt>
<trkpt lat="46.08083" lon="6.96492"><ele>1408.8</ele><time>2017-06-15T12:32:27Z</time></trkpt>
<trkpt lat="46.08082" lon="6.96491"><ele>1409</ele><time>2017-06-15T12:32:28Z</time></trkpt>
<trkpt lat="46.0808" lon="6.96491"><ele>1409.2</ele><time>2017-06-15T12:32:29Z</time></trkpt>
<trkpt lat="46.08077" lon="6.9649"><ele>1409.4</ele><time>2017-06-15T12:32:31Z</time></trkpt>
<trkpt lat="46.08074" lon="6.9649"><ele>1409.6</ele><time>2017-06-15T12:32:33Z</time></trkpt>
<trkpt lat="46.08072" lon="6.96489"><ele>1409.8</ele><time>2017-06-15T12:32:35Z</time></trkpt>
<trkpt lat="46.08069" lon="6.96489"><ele>1410</ele><time>2017-06-15T12:32:37Z</time></trkpt>
<trkpt lat="46.08066" lon="6.96488"><ele>1410.2</ele><time>2017-06-15T12:32:39Z</time></trkpt>
<trkpt lat="46.08063" lon="6.96488"><ele>1410.4</ele><time>2017-06-15T12:32:41Z</time></trkpt>
<trkpt lat="46.0806" lon="6.96487"><ele>1410.8</ele><time>2017-06-15T12:32:43Z</time></trkpt>
<trkpt lat="46.08057" lon="6.96487"><ele>1411</ele><time>2017-06-15T12:32:45Z</time></trkpt>
<trkpt lat="46.08054" lon="6.96486"><ele>1411.2</ele><time>2017-06-15T12:32:47Z</time></trkpt>
<trkpt lat="46.08051" lon="6.96486"><ele>1411.4</ele><time>2017-06-15T12:32:49Z</time></trkpt>
<trkpt lat="46.08048" lon="6.96485"><ele>1411.6</ele><time>2017-06-15T12:32:51Z</time></trkpt>
<trkpt lat="46.08045" lon="6.96485"><ele>1411.8</ele><time>2017-06-15T12:32:53Z</time></trkpt>
<trkpt lat="46.08042" lon="6.96484"><ele>1411.8</ele><time>2017-06-15T12:32:55Z</time></trkpt>
<trkpt lat="46.0804" lon="6.96484"><ele>1412</ele><time>2017-06-15T12:32:57Z</time></trkpt>
<trkpt lat="46.08037" lon="6.96483"><ele>1412</ele><time>2017-06-15T12:32:59Z</time></trkpt>
<trkpt lat="46.08036" lon="6.96483"><ele>1412</ele><time>2017-06-15T12:33:01Z</time></trkpt>
<trkpt lat="46.08016" lon="6.96473"><ele>1413.6</ele><time>2017-06-15T12:33:03Z</time></trkpt>
<trkpt lat="46.08016" lon="6.96473"><ele>1413.6</ele><time>2017-06-15T12:34:26Z</time></trkpt>
<trkpt lat="46.07998" lon="6.96464"><ele>1415</ele><time>2017-06-15T12:34:27Z</time></trkpt>
<trkpt lat="46.07997" lon="6.96464"><ele>1415.4</ele><time>2017-06-15T12:34:29Z</time></trkpt>
<trkpt lat="46.07996" lon="6.96463"><ele>1415.6</ele><time>2017-06-15T12:34:31Z</time></trkpt>
<trkpt lat="46.07995" lon="6.96463"><ele>1416</ele><time>2017-06-15T12:34:33Z</time></trkpt>
<trkpt lat="46.07994" lon="6.96462"><ele>1416.4</ele><time>2017-06-15T12:34:35Z</time></trkpt>
<trkpt lat="46.07993" lon="6.96462"><ele>1416.4</ele><time>2017-06-15T12:34:36Z</time></trkpt>
<trkpt lat="46.07992" lon="6.96461"><ele>1416.6</ele><time>2017-06-15T12:34:37Z</time></trkpt>
<trkpt lat="46.07989" lon="6.96459"><ele>1417</ele><time>2017-06-15T12:34:39Z</time></trkpt>
<trkpt lat="46.07986" lon="6.96457"><ele>1417.2</ele><time>2017-06-15T12:34:41Z</time></trkpt>
<trkpt lat="46.07984" lon="6.96455"><ele>1417.6</ele><time>2017-06-15T12:34:43Z</time></trkpt>
<trkpt lat="46.07981" lon="6.96454"><ele>1418</ele><time>2017-06-15T12:34:45Z</time></trkpt>
<trkpt lat="46.07978" lon="6.96452"><ele>1418.2</ele><time>2017-06-15T12:34:47Z</time></trkpt>
<trkpt lat="46.07975" lon="6.9645"><ele>1418.6</ele><time>2017-06-15T12:34:49Z</time></trkpt>
<trkpt lat="46.07972" lon="6.96448"><ele>1418.8</ele><time>2017-06-15T12:34:51Z</time></trkpt>
<trkpt lat="46.0797" lon="6.96446"><ele>1419.2</ele><time>2017-06-15T12:34:53Z</time></trkpt>
<trkpt lat="46.07967" lon="6.96444"><ele>1419.4</ele><time>2017-06-15T12:34:55Z</time></trkpt>
<trkpt lat="46.07964" lon="6.96442"><ele>1419.8</ele><time>2017-06-15T12:34:57Z</time></trkpt>
<trkpt lat="46.07961" lon="6.9644"><ele>1420</ele><time>2017-06-15T12:34:59Z</time></trkpt>
<trkpt lat="46.07958" lon="6.96439"><ele>1420.4</ele><time>2017-06-15T12:35:01Z</time></trkpt>
<trkpt lat="46.07955" lon="6.96437"><ele>1420.6</ele><time>2017-06-15T12:35:03Z</time></trkpt>
<trkpt lat="46.07953" lon="6.96435"><ele>1421</ele><time>2017-06-15T12:35:05Z</time></trkpt>
<trkpt lat="46.0795" lon="6.96433"><ele>1421.2</ele><time>2017-06-15T12:35:07Z</time></trkpt>
<trkpt lat="46.07948" lon="6.96431"><ele>1421.6</ele><time>2017-06-15T12:35:09Z</time></trkpt>
<trkpt lat="46.07945" lon="6.96428"><ele>1421.8</ele><time>2017-06-15T12:35:11Z</time></trkpt>
<trkpt lat="46.07943" lon="6.96426"><ele>1422.2</ele><time>2017-06-15T12:35:13Z</time></trkpt>
<trkpt lat="46.0794" lon="6.96424"><ele>1422.4</ele><time>2017-06-15T12:35:15Z</time></trkpt>
<trkpt lat="46.07938" lon="6.96422"><ele>1422.6</ele><time>2017-06-15T12:35:17Z</time></trkpt>
<trkpt lat="46.07935" lon="6.9642"><ele>1423</ele><time>2017-06-15T12:35:19Z</time></trkpt>
<trkpt lat="46.07933" lon="6.96418"><ele>1423.2</ele><time>2017-06-15T12:35:21Z</time></trkpt>
<trkpt lat="46.0793" lon="6.96415"><ele>1423.6</ele><time>2017-06-15T12:35:23Z</time></trkpt>
<trkpt lat="46.07928" lon="6.96413"><ele>1423.8</ele><time>2017-06-15T12:35:25Z</time></trkpt>
<trkpt lat="46.07925" lon="6.96411"><ele>1424</ele><time>2017-06-15T12:35:27Z</time></trkpt>
<trkpt lat="46.07922" lon="6.96409"><ele>1424.4</ele><time>2017-06-15T12:35:29Z</time></trkpt>
<trkpt lat="46.0792" lon="6.96407"><ele>1424.6</ele><time>2017-06-15T12:35:31Z</time></trkpt>
<trkpt lat="46.07917" lon="6.96405"><ele>1425</ele><time>2017-06-15T12:35:33Z</time></trkpt>
<trkpt lat="46.07915" lon="6.96402"><ele>1425.2</ele><time>2017-06-15T12:35:35Z</time></trkpt>
<trkpt lat="46.07912" lon="6.964"><ele>1425.6</ele><time>2017-06-15T12:35:37Z</time></trkpt>
<trkpt lat="46.0791" lon="6.96398"><ele>1425.8</ele><time>2017-06-15T12:35:39Z</time></trkpt>
<trkpt lat="46.07908" lon="6.96395"><ele>1426.2</ele><time>2017-06-15T12:35:41Z</time></trkpt>
<trkpt lat="46.07906" lon="6.96393"><ele>1426.4</ele><time>2017-06-15T12:35:43Z</time></trkpt>
<trkpt lat="46.07904" lon="6.9639"><ele>1426.8</ele><time>2017-06-15T12:35:45Z</time></trkpt>
<trkpt lat="46.07902" lon="6.96388"><ele>1427</ele><time>2017-06-15T12:35:47Z</time></trkpt>
<trkpt lat="46.079" lon="6.96387"><ele>1427.2</ele><time>2017-06-15T12:35:48Z</time></trkpt>
<trkpt lat="46.07899" lon="6.96385"><ele>1427.4</ele><time>2017-06-15T12:35:49Z</time></trkpt>
<trkpt lat="46.07897" lon="6.96383"><ele>1427.6</ele><time>2017-06-15T12:35:51Z</time></trkpt>
<trkpt lat="46.07895" lon="6.9638"><ele>1428</ele><time>2017-06-15T12:35:53Z</time></trkpt>
<trkpt lat="46.07893" lon="6.96378"><ele>1428.2</ele><time>2017-06-15T12:35:55Z</time></trkpt>
<trkpt lat="46.07891" lon="6.96375"><ele>1428.4</ele><time>2017-06-15T12:35:57Z</time></trkpt>
<trkpt lat="46.07888" lon="6.96373"><ele>1428.8</ele><time>2017-06-15T12:35:59Z</time></trkpt>
<trkpt lat="46.07886" lon="6.96371"><ele>1429</ele><time>2017-06-15T12:36:01Z</time></trkpt>
<trkpt lat="46.07884" lon="6.96368"><ele>1429.4</ele><time>2017-06-15T12:36:03Z</time></trkpt>
<trkpt lat="46.07882" lon="6.96366"><ele>1429.6</ele><time>2017-06-15T12:36:05Z</time></trkpt>
<trkpt lat="46.0788" lon="6.96363"><ele>1429.8</ele><time>2017-06-15T12:36:07Z</time></trkpt>
<trkpt lat="46.07878" lon="6.96361"><ele>1430.2</ele><time>2017-06-15T12:36:09Z</time></trkpt>
<trkpt lat="46.07877" lon="6.96359"><ele>1430.2</ele><time>2017-06-15T12:36:10Z</time></trkpt>
<trkpt lat="46.07876" lon="6.96358"><ele>1430.4</ele><time>2017-06-15T12:36:11Z</time></trkpt>
<trkpt lat="46.07874" lon="6.96356"><ele>1430.6</ele><time>2017-06-15T12:36:13Z</time></trkpt>
<trkpt lat="46.07872" lon="6.96353"><ele>1431</ele><time>2017-06-15T12:36:15Z</time></trkpt>
<trkpt lat="46.07871" lon="6.96351"><ele>1431.2</ele><time>2017-06-15T12:36:17Z</time></trkpt>
<trkpt lat="46.07869" lon="6.96348"><ele>1431.4</ele><time>2017-06-15T12:36:19Z</time></trkpt>
<trkpt lat="46.07867" lon="6.96346"><ele>1431.6</ele><time>2017-06-15T12:36:21Z</time></trkpt>
<trkpt lat="46.07866" lon="6.96343"><ele>1432</ele><time>2017-06-15T12:36:23Z</time></trkpt>
<trkpt lat="46.07864" lon="6.96341"><ele>1432.2</ele><time>2017-06-15T12:36:25Z</time></trkpt>
<trkpt lat="46.07862" lon="6.96338"><ele>1432.4</ele><time>2017-06-15T12:36:27Z</time></trkpt>
<trkpt lat="46.07861" lon="6.96336"><ele>1432.8</ele><time>2017-06-15T12:36:29Z</time></trkpt>
<trkpt lat="46.07859" lon="6.96334"><ele>1433</ele><time>2017-06-15T12:36:31Z</time></trkpt>
<trkpt lat="46.07857" lon="6.96331"><ele>1433.2</ele><time>2017-06-15T12:36:33Z</time></trkpt>
<trkpt lat="46.07856" lon="6.96329"><ele>1433.4</ele><time>2017-06-15T12:36:35Z</time></trkpt>
<trkpt lat="46.07854" lon="6.96326"><ele>1433.8</ele><time>2017-06-15T12:36:37Z</time></trkpt>
<trkpt lat="46.07853" lon="6.96325"><ele>1433.8</ele><time>2017-06-15T12:36:38Z</time></trkpt>
<trkpt lat="46.07852" lon="6.96324"><ele>1434</ele><time>2017-06-15T12:36:39Z</time></trkpt>
<trkpt lat="46.07851" lon="6.96321"><ele>1434.4</ele><time>2017-06-15T12:36:41Z</time></trkpt>
<trkpt lat="46.07849" lon="6.96319"><ele>1434.6</ele><time>2017-06-15T12:36:43Z</time></trkpt>
<trkpt lat="46.07848" lon="6.96318"><ele>1434.8</ele><time>2017-06-15T12:36:44Z</time></trkpt>
<trkpt lat="46.07847" lon="6.96316"><ele>1434.8</ele><time>2017-06-15T12:36:45Z</time></trkpt>
<trkpt lat="46.07846" lon="6.96314"><ele>1435</ele><time>2017-06-15T12:36:47Z</time></trkpt>
<trkpt lat="46.07845" lon="6.96313"><ele>1435.2</ele><time>2017-06-15T12:36:48Z</time></trkpt>
<trkpt lat="46.07844" lon="6.96311"><ele>1435.2</ele><time>2017-06-15T12:36:49Z</time></trkpt>
<trkpt lat="46.07843" lon="6.9631"><ele>1435.4</ele><time>2017-06-15T12:36:50Z</time></trkpt>
<trkpt lat="46.07842" lon="6.96308"><ele>1435.6</ele><time>2017-06-15T12:36:51Z</time></trkpt>
<trkpt lat="46.0784" lon="6.96305"><ele>1435.8</ele><time>2017-06-15T12:36:53Z</time></trkpt>
<trkpt lat="46.07838" lon="6.96302"><ele>1436</ele><time>2017-06-15T12:36:55Z</time></trkpt>
<trkpt lat="46.07836" lon="6.96299"><ele>1436.4</ele><time>2017-06-15T12:36:57Z</time></trkpt>
<trkpt lat="46.07834" lon="6.96296"><ele>1436.8</ele><time>2017-06-15T12:36:59Z</time></trkpt>
<trkpt lat="46.07832" lon="6.96293"><ele>1437</ele><time>2017-06-15T12:37:01Z</time></trkpt>
<trkpt lat="46.0783" lon="6.9629"><ele>1437.4</ele><time>2017-06-15T12:37:03Z</time></trkpt>
<trkpt lat="46.07829" lon="6.96287"><ele>1437.6</ele><time>2017-06-15T12:37:05Z</time></trkpt>
<trkpt lat="46.07827" lon="6.96284"><ele>1438</ele><time>2017-06-15T12:37:07Z</time></trkpt>
<trkpt lat="46.07825" lon="6.96281"><ele>1438.2</ele><time>2017-06-15T12:37:09Z</time></trkpt>
<trkpt lat="46.07823" lon="6.96278"><ele>1438.6</ele><time>2017-06-15T12:37:11Z</time></trkpt>
<trkpt lat="46.07821" lon="6.96275"><ele>1438.8</ele><time>2017-06-15T12:37:13Z</time></trkpt>
<trkpt lat="46.07819" lon="6.96272"><ele>1439.2</ele><time>2017-06-15T12:37:15Z</time></trkpt>
<trkpt lat="46.07817" lon="6.96269"><ele>1439.6</ele><time>2017-06-15T12:37:17Z</time></trkpt>
<trkpt lat="46.07815" lon="6.96266"><ele>1439.8</ele><time>2017-06-15T12:37:19Z</time></trkpt>
<trkpt lat="46.07814" lon="6.96265"><ele>1440</ele><time>2017-06-15T12:37:20Z</time></trkpt>
<trkpt lat="46.07813" lon="6.96264"><ele>1440</ele><time>2017-06-15T12:37:21Z</time></trkpt>
<trkpt lat="46.07811" lon="6.96261"><ele>1440.4</ele><time>2017-06-15T12:37:23Z</time></trkpt>
<trkpt lat="46.07809" lon="6.96258"><ele>1440.6</ele><time>2017-06-15T12:37:25Z</time></trkpt>
<trkpt lat="46.07808" lon="6.96256"><ele>1440.8</ele><time>2017-06-15T12:37:27Z</time></trkpt>
<trkpt lat="46.07806" lon="6.96253"><ele>1441</ele><time>2017-06-15T12:37:29Z</time></trkpt>
<trkpt lat="46.07804" lon="6.9625"><ele>1441.4</ele><time>2017-06-15T12:37:31Z</time></trkpt>
<trkpt lat="46.07802" lon="6.96248"><ele>1441.6</ele><time>2017-06-15T12:37:33Z</time></trkpt>
<trkpt lat="46.078" lon="6.96245"><ele>1441.8</ele><time>2017-06-15T12:37:35Z</time></trkpt>
<trkpt lat="46.07798" lon="6.96242"><ele>1442.2</ele><time>2017-06-15T12:37:37Z</time></trkpt>
<trkpt lat="46.07796" lon="6.9624"><ele>1442.4</ele><time>2017-06-15T12:37:39Z</time></trkpt>
<trkpt lat="46.07795" lon="6.96237"><ele>1442.6</ele><time>2017-06-15T12:37:41Z</time></trkpt>
<trkpt lat="46.07793" lon="6.96234"><ele>1443</ele><time>2017-06-15T12:37:43Z</time></trkpt>
<trkpt lat="46.07792" lon="6.96233"><ele>1443</ele><time>2017-06-15T12:37:44Z</time></trkpt>
<trkpt lat="46.07791" lon="6.96232"><ele>1443.2</ele><time>2017-06-15T12:37:45Z</time></trkpt>
<trkpt lat="46.07789" lon="6.96229"><ele>1443.4</ele><time>2017-06-15T12:37:47Z</time></trkpt>
<trkpt lat="46.07787" lon="6.96226"><ele>1443.8</ele><time>2017-06-15T12:37:49Z</time></trkpt>
<trkpt lat="46.07785" lon="6.96224"><ele>1444</ele><time>2017-06-15T12:37:51Z</time></trkpt>
<trkpt lat="46.07783" lon="6.96221"><ele>1444.2</ele><time>2017-06-15T12:37:53Z</time></trkpt>
<trkpt lat="46.07781" lon="6.96219"><ele>1444.4</ele><time>2017-06-15T12:37:55Z</time></trkpt>
<trkpt lat="46.07779" lon="6.96216"><ele>1444.8</ele><time>2017-06-15T12:37:57Z</time></trkpt>
<trkpt lat="46.07777" lon="6.96214"><ele>1445</ele><time>2017-06-15T12:37:59Z</time></trkpt>
<trkpt lat="46.07775" lon="6.96211"><ele>1445.4</ele><time>2017-06-15T12:38:01Z</time></trkpt>
<trkpt lat="46.07773" lon="6.96209"><ele>1445.6</ele><time>2017-06-15T12:38:03Z</time></trkpt>
<trkpt lat="46.07771" lon="6.96206"><ele>1445.8</ele><time>2017-06-15T12:38:05Z</time></trkpt>
<trkpt lat="46.07769" lon="6.96204"><ele>1446.2</ele><time>2017-06-15T12:38:07Z</time></trkpt>
<trkpt lat="46.07767" lon="6.96201"><ele>1446.4</ele><time>2017-06-15T12:38:09Z</time></trkpt>
<trkpt lat="46.07765" lon="6.96199"><ele>1446.8</ele><time>2017-06-15T12:38:11Z</time></trkpt>
<trkpt lat="46.07763" lon="6.96196"><ele>1447</ele><time>2017-06-15T12:38:13Z</time></trkpt>
<trkpt lat="46.07761" lon="6.96194"><ele>1447.4</ele><time>2017-06-15T12:38:15Z</time></trkpt>
<trkpt lat="46.07759" lon="6.96191"><ele>1447.6</ele><time>2017-06-15T12:38:17Z</time></trkpt>
<trkpt lat="46.07756" lon="6.96189"><ele>1447.8</ele><time>2017-06-15T12:38:19Z</time></trkpt>
<trkpt lat="46.07754" lon="6.96186"><ele>1448.2</ele><time>2017-06-15T12:38:21Z</time></trkpt>
<trkpt lat="46.07753" lon="6.96185"><ele>1448.2</ele><time>2017-06-15T12:38:22Z</time></trkpt>
<trkpt lat="46.07752" lon="6.96184"><ele>1448.4</ele><time>2017-06-15T12:38:23Z</time></trkpt>
<trkpt lat="46.0775" lon="6.96181"><ele>1448.6</ele><time>2017-06-15T12:38:25Z</time></trkpt>
<trkpt lat="46.07748" lon="6.96179"><ele>1449</ele><time>2017-06-15T12:38:27Z</time></trkpt>
<trkpt lat="46.07746" lon="6.96176"><ele>1449.2</ele><time>2017-06-15T12:38:29Z</time></trkpt>
<trkpt lat="46.07744" lon="6.96173"><ele>1449.6</ele><time>2017-06-15T12:38:31Z</time></trkpt>
<trkpt lat="46.07743" lon="6.96171"><ele>1449.8</ele><time>2017-06-15T12:38:33Z</time></trkpt>
<trkpt lat="46.07741" lon="6.96168"><ele>1450</ele><time>2017-06-15T12:38:35Z</time></trkpt>
<trkpt lat="46.07739" lon="6.96165"><ele>1450.4</ele><time>2017-06-15T12:38:37Z</time></trkpt>
<trkpt lat="46.07737" lon="6.96163"><ele>1450.6</ele><time>2017-06-15T12:38:39Z</time></trkpt>
<trkpt lat="46.07736" lon="6.9616"><ele>1450.8</ele><time>2017-06-15T12:38:41Z</time></trkpt>
<trkpt lat="46.07734" lon="6.96157"><ele>1451.2</ele><time>2017-06-15T12:38:43Z</time></trkpt>
<trkpt lat="46.07732" lon="6.96155"><ele>1451.4</ele><time>2017-06-15T12:38:45Z</time></trkpt>
<trkpt lat="46.0773" lon="6.96152"><ele>1451.6</ele><time>2017-06-15T12:38:47Z</time></trkpt>
<trkpt lat="46.07729" lon="6.9615"><ele>1452</ele><time>2017-06-15T12:38:49Z</time></trkpt>
<trkpt lat="46.07727" lon="6.96147"><ele>1452.2</ele><time>2017-06-15T12:38:51Z</time></trkpt>
<trkpt lat="46.07725" lon="6.96144"><ele>1452.4</ele><time>2017-06-15T12:38:53Z</time></trkpt>
<trkpt lat="46.07723" lon="6.96142"><ele>1452.8</ele><time>2017-06-15T12:38:55Z</time></trkpt>
<trkpt lat="46.07722" lon="6.96139"><ele>1453</ele><time>2017-06-15T12:38:57Z</time></trkpt>
<trkpt lat="46.0772" lon="6.96136"><ele>1453.2</ele><time>2017-06-15T12:38:59Z</time></trkpt>
<trkpt lat="46.07718" lon="6.96134"><ele>1453.6</ele><time>2017-06-15T12:39:01Z</time></trkpt>
<trkpt lat="46.07716" lon="6.96131"><ele>1453.8</ele><time>2017-06-15T12:39:03Z</time></trkpt>
<trkpt lat="46.07715" lon="6.96128"><ele>1454.2</ele><time>2017-06-15T12:39:05Z</time></trkpt>
<trkpt lat="46.07712" lon="6.96127"><ele>1454.4</ele><time>2017-06-15T12:39:07Z</time></trkpt>
<trkpt lat="46.07711" lon="6.96127"><ele>1454.6</ele><time>2017-06-15T12:39:08Z</time></trkpt>
<trkpt lat="46.0771" lon="6.96126"><ele>1454.6</ele><time>2017-06-15T12:39:09Z</time></trkpt>
<trkpt lat="46.07708" lon="6.96125"><ele>1455</ele><time>2017-06-15T12:39:11Z</time></trkpt>
<trkpt lat="46.07705" lon="6.96124"><ele>1455.2</ele><time>2017-06-15T12:39:13Z</time></trkpt>
<trkpt lat="46.07703" lon="6.96123"><ele>1455.6</ele><time>2017-06-15T12:39:15Z</time></trkpt>
<trkpt lat="46.077" lon="6.96122"><ele>1455.8</ele><time>2017-06-15T12:39:17Z</time></trkpt>
<trkpt lat="46.07698" lon="6.96121"><ele>1456.2</ele><time>2017-06-15T12:39:19Z</time></trkpt>
<trkpt lat="46.07696" lon="6.9612"><ele>1456.4</ele><time>2017-06-15T12:39:21Z</time></trkpt>
<trkpt lat="46.07693" lon="6.96119"><ele>1456.8</ele><time>2017-06-15T12:39:23Z</time></trkpt>
<trkpt lat="46.07691" lon="6.96118"><ele>1457</ele><time>2017-06-15T12:39:25Z</time></trkpt>
<trkpt lat="46.07688" lon="6.96117"><ele>1457.4</ele><time>2017-06-15T12:39:27Z</time></trkpt>
<trkpt lat="46.07686" lon="6.96115"><ele>1457.6</ele><time>2017-06-15T12:39:29Z</time></trkpt>
<trkpt lat="46.07684" lon="6.96114"><ele>1457.8</ele><time>2017-06-15T12:39:31Z</time></trkpt>
<trkpt lat="46.07681" lon="6.96113"><ele>1458</ele><time>2017-06-15T12:39:33Z</time></trkpt>
<trkpt lat="46.07679" lon="6.96112"><ele>1458.2</ele><time>2017-06-15T12:39:35Z</time></trkpt>
<trkpt lat="46.07663" lon="6.96098"><ele>1460.8</ele><time>2017-06-15T12:39:37Z</time></trkpt>
<trkpt lat="46.07663" lon="6.96098"><ele>1460.8</ele><time>2017-06-15T12:41:52Z</time></trkpt>
<trkpt lat="46.07649" lon="6.96084"><ele>1463</ele><time>2017-06-15T12:41:53Z</time></trkpt>
<trkpt lat="46.07647" lon="6.96082"><ele>1463.2</ele><time>2017-06-15T12:41:55Z</time></trkpt>
<trkpt lat="46.07646" lon="6.9608"><ele>1463.2</ele><time>2017-06-15T12:41:57Z</time></trkpt>
<trkpt lat="46.07645" lon="6.96079"><ele>1463.2</ele><time>2017-06-15T12:41:59Z</time></trkpt>
<trkpt lat="46.07644" lon="6.96077"><ele>1463.2</ele><time>2017-06-15T12:42:01Z</time></trkpt>
<trkpt lat="46.07643" lon="6.96075"><ele>1463.4</ele><time>2017-06-15T12:42:03Z</time></trkpt>
<trkpt lat="46.07642" lon="6.96073"><ele>1463.4</ele><time>2017-06-15T12:42:05Z</time></trkpt>
<trkpt lat="46.0764" lon="6.96071"><ele>1463.4</ele><time>2017-06-15T12:42:07Z</time></trkpt>
<trkpt lat="46.07639" lon="6.9607"><ele>1463.4</ele><time>2017-06-15T12:42:09Z</time></trkpt>
<trkpt lat="46.07639" lon="6.96069"><ele>1463.6</ele><time>2017-06-15T12:42:10Z</time></trkpt>
<trkpt lat="46.07638" lon="6.96068"><ele>1463.6</ele><time>2017-06-15T12:42:11Z</time></trkpt>
<trkpt lat="46.07637" lon="6.96066"><ele>1464</ele><time>2017-06-15T12:42:13Z</time></trkpt>
<trkpt lat="46.07636" lon="6.96064"><ele>1464.2</ele><time>2017-06-15T12:42:15Z</time></trkpt>
<trkpt lat="46.07634" lon="6.96062"><ele>1464.6</ele><time>2017-06-15T12:42:17Z</time></trkpt>
<trkpt lat="46.07632" lon="6.96059"><ele>1464.8</ele><time>2017-06-15T12:42:19Z</time></trkpt>
<trkpt lat="46.07631" lon="6.96057"><ele>1465</ele><time>2017-06-15T12:42:21Z</time></trkpt>
<trkpt lat="46.07629" lon="6.96054"><ele>1465.4</ele><time>2017-06-15T12:42:23Z</time></trkpt>
<trkpt lat="46.07627" lon="6.96051"><ele>1465.6</ele><time>2017-06-15T12:42:25Z</time></trkpt>
<trkpt lat="46.07625" lon="6.96048"><ele>1466</ele><time>2017-06-15T12:42:27Z</time></trkpt>
<trkpt lat="46.07623" lon="6.96045"><ele>1466.2</ele><time>2017-06-15T12:42:29Z</time></trkpt>
<trkpt lat="46.07621" lon="6.96043"><ele>1466.4</ele><time>2017-06-15T12:42:31Z</time></trkpt>
<trkpt lat="46.07619" lon="6.9604"><ele>1466.8</ele><time>2017-06-15T12:42:33Z</time></trkpt>
<trkpt lat="46.07617" lon="6.96037"><ele>1467</ele><time>2017-06-15T12:42:35Z</time></trkpt>
<trkpt lat="46.07615" lon="6.96034"><ele>1467.4</ele><time>2017-06-15T12:42:37Z</time></trkpt>
<trkpt lat="46.07614" lon="6.96033"><ele>1467.4</ele><time>2017-06-15T12:42:38Z</time></trkpt>
<trkpt lat="46.07613" lon="6.96031"><ele>1467.6</ele><time>2017-06-15T12:42:39Z</time></trkpt>
<trkpt lat="46.07611" lon="6.96029"><ele>1467.8</ele><time>2017-06-15T12:42:41Z</time></trkpt>
<trkpt lat="46.07609" lon="6.96026"><ele>1468</ele><time>2017-06-15T12:42:43Z</time></trkpt>
<trkpt lat="46.07607" lon="6.96023"><ele>1468.2</ele><time>2017-06-15T12:42:45Z</time></trkpt>
<trkpt lat="46.07605" lon="6.9602"><ele>1468.6</ele><time>2017-06-15T12:42:47Z</time></trkpt>
<trkpt lat="46.07603" lon="6.96017"><ele>1468.8</ele><time>2017-06-15T12:42:49Z</time></trkpt>
<trkpt lat="46.07602" lon="6.96016"><ele>1468.8</ele><time>2017-06-15T12:42:50Z</time></trkpt>
<trkpt lat="46.07601" lon="6.96015"><ele>1469</ele><time>2017-06-15T12:42:51Z</time></trkpt>
<trkpt lat="46.07599" lon="6.96012"><ele>1469.2</ele><time>2017-06-15T12:42:53Z</time></trkpt>
<trkpt lat="46.07597" lon="6.9601"><ele>1469.6</ele><time>2017-06-15T12:42:55Z</time></trkpt>
<trkpt lat="46.07596" lon="6.96009"><ele>1469.6</ele><time>2017-06-15T12:42:56Z</time></trkpt>
<trkpt lat="46.07595" lon="6.96008"><ele>1469.8</ele><time>2017-06-15T12:42:57Z</time></trkpt>
<trkpt lat="46.07593" lon="6.96005"><ele>1470.2</ele><time>2017-06-15T12:42:59Z</time></trkpt>
<trkpt lat="46.07592" lon="6.96003"><ele>1470.4</ele><time>2017-06-15T12:43:01Z</time></trkpt>
<trkpt lat="46.07591" lon="6.96002"><ele>1470.6</ele><time>2017-06-15T12:43:02Z</time></trkpt>
<trkpt lat="46.0759" lon="6.96"><ele>1470.8</ele><time>2017-06-15T12:43:03Z</time></trkpt>
<trkpt lat="46.07588" lon="6.95998"><ele>1471</ele><time>2017-06-15T12:43:05Z</time></trkpt>
<trkpt lat="46.07586" lon="6.95995"><ele>1471.4</ele><time>2017-06-15T12:43:07Z</time></trkpt>
<trkpt lat="46.07584" lon="6.95993"><ele>1471.6</ele><time>2017-06-15T12:43:09Z</time></trkpt>
<trkpt lat="46.07582" lon="6.95991"><ele>1471.8</ele><time>2017-06-15T12:43:11Z</time></trkpt>
<trkpt lat="46.0758" lon="6.95988"><ele>1472.2</ele><time>2017-06-15T12:43:13Z</time></trkpt>
<trkpt lat="46.07578" lon="6.95986"><ele>1472.4</ele><time>2017-06-15T12:43:15Z</time></trkpt>
<trkpt lat="46.07576" lon="6.95983"><ele>1472.8</ele><time>2017-06-15T12:43:17Z</time></trkpt>
<trkpt lat="46.07574" lon="6.95981"><ele>1473</ele><time>2017-06-15T12:43:19Z</time></trkpt>
<trkpt lat="46.07572" lon="6.95978"><ele>1473.2</ele><time>2017-06-15T12:43:21Z</time></trkpt>
<trkpt lat="46.0757" lon="6.95976"><ele>1473.6</ele><time>2017-06-15T12:43:23Z</time></trkpt>
<trkpt lat="46.07568" lon="6.95974"><ele>1473.8</ele><time>2017-06-15T12:43:25Z</time></trkpt>
<trkpt lat="46.07567" lon="6.95971"><ele>1474.2</ele><time>2017-06-15T12:43:27Z</time></trkpt>
<trkpt lat="46.07565" lon="6.95968"><ele>1474.4</ele><time>2017-06-15T12:43:29Z</time></trkpt>
<trkpt lat="46.07563" lon="6.95965"><ele>1474.6</ele><time>2017-06-15T12:43:31Z</time></trkpt>
<trkpt lat="46.07561" lon="6.95962"><ele>1475</ele><time>2017-06-15T12:43:33Z</time></trkpt>
<trkpt lat="46.07559" lon="6.95959"><ele>1475.2</ele><time>2017-06-15T12:43:35Z</time></trkpt>
<trkpt lat="46.07558" lon="6.95956"><ele>1475.4</ele><time>2017-06-15T12:43:37Z</time></trkpt>
<trkpt lat="46.07556" lon="6.95954"><ele>1475.6</ele><time>2017-06-15T12:43:39Z</time></trkpt>
<trkpt lat="46.07554" lon="6.95951"><ele>1476</ele><time>2017-06-15T12:43:41Z</time></trkpt>
<trkpt lat="46.07552" lon="6.95948"><ele>1476.2</ele><time>2017-06-15T12:43:43Z</time></trkpt>
<trkpt lat="46.0755" lon="6.95945"><ele>1476.4</ele><time>2017-06-15T12:43:45Z</time></trkpt>
<trkpt lat="46.07549" lon="6.95942"><ele>1476.8</ele><time>2017-06-15T12:43:47Z</time></trkpt>
<trkpt lat="46.07547" lon="6.95939"><ele>1477</ele><time>2017-06-15T12:43:49Z</time></trkpt>
<trkpt lat="46.07545" lon="6.95937"><ele>1477.2</ele><time>2017-06-15T12:43:51Z</time></trkpt>
<trkpt lat="46.07543" lon="6.95934"><ele>1477.6</ele><time>2017-06-15T12:43:53Z</time></trkpt>
<trkpt lat="46.07541" lon="6.95931"><ele>1477.8</ele><time>2017-06-15T12:43:55Z</time></trkpt>
<trkpt lat="46.0754" lon="6.95928"><ele>1478</ele><time>2017-06-15T12:43:57Z</time></trkpt>
<trkpt lat="46.07538" lon="6.95925"><ele>1478.4</ele><time>2017-06-15T12:43:59Z</time></trkpt>
<trkpt lat="46.07536" lon="6.95923"><ele>1478.6</ele><time>2017-06-15T12:44:01Z</time></trkpt>
<trkpt lat="46.07534" lon="6.9592"><ele>1479</ele><time>2017-06-15T12:44:03Z</time></trkpt>
<trkpt lat="46.07532" lon="6.95917"><ele>1479.2</ele><time>2017-06-15T12:44:05Z</time></trkpt>
<trkpt lat="46.0753" lon="6.95914"><ele>1479.6</ele><time>2017-06-15T12:44:07Z</time></trkpt>
<trkpt lat="46.07529" lon="6.95912"><ele>1479.8</ele><time>2017-06-15T12:44:09Z</time></trkpt>
<trkpt lat="46.07527" lon="6.95909"><ele>1480</ele><time>2017-06-15T12:44:11Z</time></trkpt>
<trkpt lat="46.07525" lon="6.95906"><ele>1480.4</ele><time>2017-06-15T12:44:13Z</time></trkpt>
<trkpt lat="46.07523" lon="6.95903"><ele>1480.6</ele><time>2017-06-15T12:44:15Z</time></trkpt>
<trkpt lat="46.07521" lon="6.95901"><ele>1481</ele><time>2017-06-15T12:44:17Z</time></trkpt>
<trkpt lat="46.07519" lon="6.95898"><ele>1481.2</ele><time>2017-06-15T12:44:19Z</time></trkpt>
<trkpt lat="46.07519" lon="6.95896"><ele>1481.4</ele><time>2017-06-15T12:44:20Z</time></trkpt>
<trkpt lat="46.07518" lon="6.95895"><ele>1481.6</ele><time>2017-06-15T12:44:21Z</time></trkpt>
<trkpt lat="46.07516" lon="6.95892"><ele>1481.8</ele><time>2017-06-15T12:44:23Z</time></trkpt>
<trkpt lat="46.07514" lon="6.9589"><ele>1482.2</ele><time>2017-06-15T12:44:25Z</time></trkpt>
<trkpt lat="46.07512" lon="6.95887"><ele>1482.4</ele><time>2017-06-15T12:44:27Z</time></trkpt>
<trkpt lat="46.0751" lon="6.95884"><ele>1482.6</ele><time>2017-06-15T12:44:29Z</time></trkpt>
<trkpt lat="46.07508" lon="6.95881"><ele>1483</ele><time>2017-06-15T12:44:31Z</time></trkpt>
<trkpt lat="46.07507" lon="6.95879"><ele>1483.2</ele><time>2017-06-15T12:44:33Z</time></trkpt>
<trkpt lat="46.07505" lon="6.95876"><ele>1483.6</ele><time>2017-06-15T12:44:35Z</time></trkpt>
<trkpt lat="46.07503" lon="6.95873"><ele>1483.8</ele><time>2017-06-15T12:44:37Z</time></trkpt>
<trkpt lat="46.07502" lon="6.9587"><ele>1484.2</ele><time>2017-06-15T12:44:39Z</time></trkpt>
<trkpt lat="46.075" lon="6.95867"><ele>1484.4</ele><time>2017-06-15T12:44:41Z</time></trkpt>
<trkpt lat="46.07498" lon="6.95865"><ele>1484.8</ele><time>2017-06-15T12:44:43Z</time></trkpt>
<trkpt lat="46.07497" lon="6.95862"><ele>1485</ele><time>2017-06-15T12:44:45Z</time></trkpt>
<trkpt lat="46.07495" lon="6.95859"><ele>1485.4</ele><time>2017-06-15T12:44:47Z</time></trkpt>
<trkpt lat="46.07494" lon="6.95856"><ele>1485.6</ele><time>2017-06-15T12:44:49Z</time></trkpt>
<trkpt lat="46.07492" lon="6.95853"><ele>1485.8</ele><time>2017-06-15T12:44:51Z</time></trkpt>
<trkpt lat="46.0749" lon="6.9585"><ele>1486.2</ele><time>2017-06-15T12:44:53Z</time></trkpt>
<trkpt lat="46.07489" lon="6.95848"><ele>1486.4</ele><time>2017-06-15T12:44:55Z</time></trkpt>
<trkpt lat="46.07487" lon="6.95845"><ele>1486.8</ele><time>2017-06-15T12:44:57Z</time></trkpt>
<trkpt lat="46.07485" lon="6.95842"><ele>1487</ele><time>2017-06-15T12:44:59Z</time></trkpt>
<trkpt lat="46.07484" lon="6.95839"><ele>1487.2</ele><time>2017-06-15T12:45:01Z</time></trkpt>
<trkpt lat="46.07482" lon="6.95836"><ele>1487.6</ele><time>2017-06-15T12:45:03Z</time></trkpt>
<trkpt lat="46.07481" lon="6.95834"><ele>1487.8</ele><time>2017-06-15T12:45:05Z</time></trkpt>
<trkpt lat="46.07479" lon="6.95831"><ele>1488.2</ele><time>2017-06-15T12:45:07Z</time></trkpt>
<trkpt lat="46.07477" lon="6.95828"><ele>1488.4</ele><time>2017-06-15T12:45:09Z</time></trkpt>
<trkpt lat="46.07475" lon="6.95826"><ele>1488.8</ele><time>2017-06-15T12:45:11Z</time></trkpt>
<trkpt lat="46.07473" lon="6.95823"><ele>1489</ele><time>2017-06-15T12:45:13Z</time></trkpt>
<trkpt lat="46.07471" lon="6.95821"><ele>1489.2</ele><time>2017-06-15T12:45:15Z</time></trkpt>
<trkpt lat="46.07469" lon="6.95819"><ele>1489.6</ele><time>2017-06-15T12:45:17Z</time></trkpt>
<trkpt lat="46.07467" lon="6.95816"><ele>1489.8</ele><time>2017-06-15T12:45:19Z</time></trkpt>
<trkpt lat="46.07464" lon="6.95814"><ele>1490.2</ele><time>2017-06-15T12:45:21Z</time></trkpt>
<trkpt lat="46.07462" lon="6.95812"><ele>1490.4</ele><time>2017-06-15T12:45:23Z</time></trkpt>
<trkpt lat="46.0746" lon="6.95809"><ele>1490.8</ele><time>2017-06-15T12:45:25Z</time></trkpt>
<trkpt lat="46.07458" lon="6.95807"><ele>1491</ele><time>2017-06-15T12:45:27Z</time></trkpt>
<trkpt lat="46.07456" lon="6.95805"><ele>1491.2</ele><time>2017-06-15T12:45:29Z</time></trkpt>
<trkpt lat="46.07454" lon="6.95802"><ele>1491.6</ele><time>2017-06-15T12:45:31Z</time></trkpt>
<trkpt lat="46.07452" lon="6.958"><ele>1491.8</ele><time>2017-06-15T12:45:33Z</time></trkpt>
<trkpt lat="46.07449" lon="6.95798"><ele>1492</ele><time>2017-06-15T12:45:35Z</time></trkpt>
<trkpt lat="46.07447" lon="6.95795"><ele>1492.2</ele><time>2017-06-15T12:45:37Z</time></trkpt>
<trkpt lat="46.07445" lon="6.95793"><ele>1492.4</ele><time>2017-06-15T12:45:39Z</time></trkpt>
<trkpt lat="46.07443" lon="6.95791"><ele>1492.8</ele><time>2017-06-15T12:45:41Z</time></trkpt>
<trkpt lat="46.07441" lon="6.95788"><ele>1493</ele><time>2017-06-15T12:45:43Z</time></trkpt>
<trkpt lat="46.07438" lon="6.95786"><ele>1493.2</ele><time>2017-06-15T12:45:45Z</time></trkpt>
<trkpt lat="46.07435" lon="6.95784"><ele>1493.4</ele><time>2017-06-15T12:45:47Z</time></trkpt>
<trkpt lat="46.07433" lon="6.95782"><ele>1493.8</ele><time>2017-06-15T12:45:49Z</time></trkpt>
<trkpt lat="46.0743" lon="6.95779"><ele>1494</ele><time>2017-06-15T12:45:51Z</time></trkpt>
<trkpt lat="46.07428" lon="6.95777"><ele>1494.2</ele><time>2017-06-15T12:45:53Z</time></trkpt>
<trkpt lat="46.07425" lon="6.95775"><ele>1494.4</ele><time>2017-06-15T12:45:55Z</time></trkpt>
<trkpt lat="46.07422" lon="6.95773"><ele>1494.6</ele><time>2017-06-15T12:45:57Z</time></trkpt>
<trkpt lat="46.0742" lon="6.95771"><ele>1495</ele><time>2017-06-15T12:45:59Z</time></trkpt>
<trkpt lat="46.07417" lon="6.95768"><ele>1495.2</ele><time>2017-06-15T12:46:01Z</time></trkpt>
<trkpt lat="46.07414" lon="6.95766"><ele>1495.4</ele><time>2017-06-15T12:46:03Z</time></trkpt>
<trkpt lat="46.07412" lon="6.95764"><ele>1495.6</ele><time>2017-06-15T12:46:05Z</time></trkpt>
<trkpt lat="46.07409" lon="6.95762"><ele>1496</ele><time>2017-06-15T12:46:07Z</time></trkpt>
<trkpt lat="46.07406" lon="6.95759"><ele>1496.2</ele><time>2017-06-15T12:46:09Z</time></trkpt>
<trkpt lat="46.07404" lon="6.95757"><ele>1496.4</ele><time>2017-06-15T12:46:11Z</time></trkpt>
<trkpt lat="46.07401" lon="6.95755"><ele>1496.6</ele><time>2017-06-15T12:46:13Z</time></trkpt>
<trkpt lat="46.07399" lon="6.95752"><ele>1496.8</ele><time>2017-06-15T12:46:15Z</time></trkpt>
<trkpt lat="46.07396" lon="6.9575"><ele>1497.2</ele><time>2017-06-15T12:46:17Z</time></trkpt>
<trkpt lat="46.07394" lon="6.95747"><ele>1497.4</ele><time>2017-06-15T12:46:19Z</time></trkpt>
<trkpt lat="46.07392" lon="6.95745"><ele>1497.6</ele><time>2017-06-15T12:46:21Z</time></trkpt>
<trkpt lat="46.0739" lon="6.95742"><ele>1498</ele><time>2017-06-15T12:46:23Z</time></trkpt>
<trkpt lat="46.07387" lon="6.9574"><ele>1498.2</ele><time>2017-06-15T12:46:25Z</time></trkpt>
<trkpt lat="46.07385" lon="6.95737"><ele>1498.4</ele><time>2017-06-15T12:46:27Z</time></trkpt>
<trkpt lat="46.07383" lon="6.95735"><ele>1498.6</ele><time>2017-06-15T12:46:29Z</time></trkpt>
<trkpt lat="46.07381" lon="6.95732"><ele>1498.8</ele><time>2017-06-15T12:46:31Z</time></trkpt>
<trkpt lat="46.07378" lon="6.9573"><ele>1499</ele><time>2017-06-15T12:46:33Z</time></trkpt>
<trkpt lat="46.07376" lon="6.95727"><ele>1499.2</ele><time>2017-06-15T12:46:35Z</time></trkpt>
<trkpt lat="46.07375" lon="6.95726"><ele>1499.4</ele><time>2017-06-15T12:46:36Z</time></trkpt>
<trkpt lat="46.07374" lon="6.95725"><ele>1499.6</ele><time>2017-06-15T12:46:37Z</time></trkpt>
<trkpt lat="46.07372" lon="6.95722"><ele>1500</ele><time>2017-06-15T12:46:39Z</time></trkpt>
<trkpt lat="46.07369" lon="6.9572"><ele>1500.4</ele><time>2017-06-15T12:46:41Z</time></trkpt>
<trkpt lat="46.07367" lon="6.95717"><ele>1500.6</ele><time>2017-06-15T12:46:43Z</time></trkpt>
<trkpt lat="46.07365" lon="6.95715"><ele>1501</ele><time>2017-06-15T12:46:45Z</time></trkpt>
<trkpt lat="46.07362" lon="6.95713"><ele>1501.2</ele><time>2017-06-15T12:46:47Z</time></trkpt>
<trkpt lat="46.0736" lon="6.95712"><ele>1501.6</ele><time>2017-06-15T12:46:49Z</time></trkpt>
<trkpt lat="46.07357" lon="6.9571"><ele>1501.8</ele><time>2017-06-15T12:46:51Z</time></trkpt>
<trkpt lat="46.07354" lon="6.95708"><ele>1502.2</ele><time>2017-06-15T12:46:53Z</time></trkpt>
<trkpt lat="46.07352" lon="6.95706"><ele>1502.4</ele><time>2017-06-15T12:46:55Z</time></trkpt>
<trkpt lat="46.07349" lon="6.95705"><ele>1502.8</ele><time>2017-06-15T12:46:57Z</time></trkpt>
<trkpt lat="46.07346" lon="6.95703"><ele>1503</ele><time>2017-06-15T12:46:59Z</time></trkpt>
<trkpt lat="46.07344" lon="6.95701"><ele>1503.4</ele><time>2017-06-15T12:47:01Z</time></trkpt>
<trkpt lat="46.07341" lon="6.957"><ele>1503.6</ele><time>2017-06-15T12:47:03Z</time></trkpt>
<trkpt lat="46.07339" lon="6.95698"><ele>1503.8</ele><time>2017-06-15T12:47:05Z</time></trkpt>
<trkpt lat="46.07336" lon="6.95696"><ele>1504</ele><time>2017-06-15T12:47:07Z</time></trkpt>
<trkpt lat="46.07333" lon="6.95695"><ele>1504.2</ele><time>2017-06-15T12:47:09Z</time></trkpt>
<trkpt lat="46.07331" lon="6.95693"><ele>1504.4</ele><time>2017-06-15T12:47:11Z</time></trkpt>
<trkpt lat="46.07328" lon="6.95691"><ele>1504.6</ele><time>2017-06-15T12:47:13Z</time></trkpt>
<trkpt lat="46.07327" lon="6.9569"><ele>1504.8</ele><time>2017-06-15T12:47:14Z</time></trkpt>
<trkpt lat="46.07325" lon="6.95689"><ele>1505</ele><time>2017-06-15T12:47:15Z</time></trkpt>
<trkpt lat="46.07323" lon="6.95688"><ele>1505.2</ele><time>2017-06-15T12:47:17Z</time></trkpt>
<trkpt lat="46.07321" lon="6.95685"><ele>1505.6</ele><time>2017-06-15T12:47:19Z</time></trkpt>
<trkpt lat="46.0732" lon="6.95684"><ele>1505.6</ele><time>2017-06-15T12:47:20Z</time></trkpt>
<trkpt lat="46.07319" lon="6.95683"><ele>1505.8</ele><time>2017-06-15T12:47:21Z</time></trkpt>
<trkpt lat="46.07316" lon="6.95681"><ele>1506.2</ele><time>2017-06-15T12:47:23Z</time></trkpt>
<trkpt lat="46.07314" lon="6.95678"><ele>1506.6</ele><time>2017-06-15T12:47:25Z</time></trkpt>
<trkpt lat="46.07312" lon="6.95676"><ele>1506.8</ele><time>2017-06-15T12:47:27Z</time></trkpt>
<trkpt lat="46.0731" lon="6.95674"><ele>1507.2</ele><time>2017-06-15T12:47:29Z</time></trkpt>
<trkpt lat="46.07308" lon="6.95671"><ele>1507.6</ele><time>2017-06-15T12:47:31Z</time></trkpt>
<trkpt lat="46.07306" lon="6.95669"><ele>1507.8</ele><time>2017-06-15T12:47:33Z</time></trkpt>
<trkpt lat="46.07303" lon="6.95667"><ele>1508.2</ele><time>2017-06-15T12:47:35Z</time></trkpt>
<trkpt lat="46.07301" lon="6.95664"><ele>1508.6</ele><time>2017-06-15T12:47:37Z</time></trkpt>
<trkpt lat="46.07299" lon="6.95662"><ele>1508.8</ele><time>2017-06-15T12:47:39Z</time></trkpt>
<trkpt lat="46.07297" lon="6.9566"><ele>1509.2</ele><time>2017-06-15T12:47:41Z</time></trkpt>
<trkpt lat="46.07296" lon="6.95658"><ele>1509.4</ele><time>2017-06-15T12:47:42Z</time></trkpt>
<trkpt lat="46.07295" lon="6.95657"><ele>1509.4</ele><time>2017-06-15T12:47:43Z</time></trkpt>
<trkpt lat="46.07293" lon="6.95655"><ele>1509.8</ele><time>2017-06-15T12:47:45Z</time></trkpt>
<trkpt lat="46.07291" lon="6.95653"><ele>1510</ele><time>2017-06-15T12:47:47Z</time></trkpt>
<trkpt lat="46.07288" lon="6.9565"><ele>1510.2</ele><time>2017-06-15T12:47:49Z</time></trkpt>
<trkpt lat="46.07286" lon="6.95648"><ele>1510.6</ele><time>2017-06-15T12:47:51Z</time></trkpt>
<trkpt lat="46.07284" lon="6.95645"><ele>1510.8</ele><time>2017-06-15T12:47:53Z</time></trkpt>
<trkpt lat="46.07282" lon="6.95642"><ele>1511</ele><time>2017-06-15T12:47:55Z</time></trkpt>
<trkpt lat="46.0728" lon="6.9564"><ele>1511.4</ele><time>2017-06-15T12:47:57Z</time></trkpt>
<trkpt lat="46.07278" lon="6.95637"><ele>1511.6</ele><time>2017-06-15T12:47:59Z</time></trkpt>
<trkpt lat="46.07276" lon="6.95635"><ele>1511.8</ele><time>2017-06-15T12:48:01Z</time></trkpt>
<trkpt lat="46.07273" lon="6.95632"><ele>1512.2</ele><time>2017-06-15T12:48:03Z</time></trkpt>
<trkpt lat="46.07271" lon="6.95629"><ele>1512.4</ele><time>2017-06-15T12:48:05Z</time></trkpt>
<trkpt lat="46.07269" lon="6.95627"><ele>1512.6</ele><time>2017-06-15T12:48:07Z</time></trkpt>
<trkpt lat="46.07267" lon="6.95624"><ele>1513</ele><time>2017-06-15T12:48:09Z</time></trkpt>
<trkpt lat="46.07265" lon="6.95621"><ele>1513.2</ele><time>2017-06-15T12:48:11Z</time></trkpt>
<trkpt lat="46.07263" lon="6.95619"><ele>1513.6</ele><time>2017-06-15T12:48:13Z</time></trkpt>
<trkpt lat="46.07261" lon="6.95616"><ele>1513.8</ele><time>2017-06-15T12:48:15Z</time></trkpt>
<trkpt lat="46.07259" lon="6.95613"><ele>1514</ele><time>2017-06-15T12:48:17Z</time></trkpt>
<trkpt lat="46.07256" lon="6.95611"><ele>1514.4</ele><time>2017-06-15T12:48:19Z</time></trkpt>
<trkpt lat="46.07254" lon="6.95608"><ele>1514.6</ele><time>2017-06-15T12:48:21Z</time></trkpt>
<trkpt lat="46.07252" lon="6.95605"><ele>1515</ele><time>2017-06-15T12:48:23Z</time></trkpt>
<trkpt lat="46.0725" lon="6.95604"><ele>1515.2</ele><time>2017-06-15T12:48:25Z</time></trkpt>
<trkpt lat="46.07247" lon="6.95602"><ele>1515.6</ele><time>2017-06-15T12:48:27Z</time></trkpt>
<trkpt lat="46.07245" lon="6.956"><ele>1515.8</ele><time>2017-06-15T12:48:29Z</time></trkpt>
<trkpt lat="46.07243" lon="6.95598"><ele>1516</ele><time>2017-06-15T12:48:31Z</time></trkpt>
<trkpt lat="46.0724" lon="6.95597"><ele>1516.4</ele><time>2017-06-15T12:48:33Z</time></trkpt>
<trkpt lat="46.07238" lon="6.95595"><ele>1516.6</ele><time>2017-06-15T12:48:35Z</time></trkpt>
<trkpt lat="46.07235" lon="6.95593"><ele>1516.8</ele><time>2017-06-15T12:48:37Z</time></trkpt>
<trkpt lat="46.07233" lon="6.95592"><ele>1517</ele><time>2017-06-15T12:48:39Z</time></trkpt>
<trkpt lat="46.0723" lon="6.9559"><ele>1517.4</ele><time>2017-06-15T12:48:41Z</time></trkpt>
<trkpt lat="46.07228" lon="6.95588"><ele>1517.6</ele><time>2017-06-15T12:48:43Z</time></trkpt>
<trkpt lat="46.07226" lon="6.95586"><ele>1517.8</ele><time>2017-06-15T12:48:45Z</time></trkpt>
<trkpt lat="46.07223" lon="6.95585"><ele>1518</ele><time>2017-06-15T12:48:47Z</time></trkpt>
<trkpt lat="46.07221" lon="6.95583"><ele>1518.4</ele><time>2017-06-15T12:48:49Z</time></trkpt>
<trkpt lat="46.07218" lon="6.95581"><ele>1518.6</ele><time>2017-06-15T12:48:51Z</time></trkpt>
<trkpt lat="46.07216" lon="6.95579"><ele>1518.8</ele><time>2017-06-15T12:48:53Z</time></trkpt>
<trkpt lat="46.07214" lon="6.95578"><ele>1519</ele><time>2017-06-15T12:48:55Z</time></trkpt>
<trkpt lat="46.07211" lon="6.95576"><ele>1519.4</ele><time>2017-06-15T12:48:57Z</time></trkpt>
<trkpt lat="46.07209" lon="6.95575"><ele>1519.6</ele><time>2017-06-15T12:48:59Z</time></trkpt>
<trkpt lat="46.07206" lon="6.95573"><ele>1519.8</ele><time>2017-06-15T12:49:01Z</time></trkpt>
<trkpt lat="46.07204" lon="6.95572"><ele>1520.2</ele><time>2017-06-15T12:49:03Z</time></trkpt>
<trkpt lat="46.07201" lon="6.95571"><ele>1520.4</ele><time>2017-06-15T12:49:05Z</time></trkpt>
<trkpt lat="46.07199" lon="6.95569"><ele>1520.6</ele><time>2017-06-15T12:49:07Z</time></trkpt>
<trkpt lat="46.07196" lon="6.95568"><ele>1520.8</ele><time>2017-06-15T12:49:09Z</time></trkpt>
<trkpt lat="46.07194" lon="6.95567"><ele>1521.2</ele><time>2017-06-15T12:49:11Z</time></trkpt>
<trkpt lat="46.07191" lon="6.95566"><ele>1521.4</ele><time>2017-06-15T12:49:13Z</time></trkpt>
<trkpt lat="46.07189" lon="6.95564"><ele>1521.8</ele><time>2017-06-15T12:49:15Z</time></trkpt>
<trkpt lat="46.07186" lon="6.95563"><ele>1522</ele><time>2017-06-15T12:49:17Z</time></trkpt>
<trkpt lat="46.07184" lon="6.95562"><ele>1522.4</ele><time>2017-06-15T12:49:19Z</time></trkpt>
<trkpt lat="46.07181" lon="6.9556"><ele>1522.6</ele><time>2017-06-15T12:49:21Z</time></trkpt>
<trkpt lat="46.07179" lon="6.95559"><ele>1523</ele><time>2017-06-15T12:49:23Z</time></trkpt>
<trkpt lat="46.07176" lon="6.95558"><ele>1523.2</ele><time>2017-06-15T12:49:25Z</time></trkpt>
<trkpt lat="46.07174" lon="6.95556"><ele>1523.6</ele><time>2017-06-15T12:49:27Z</time></trkpt>
<trkpt lat="46.07171" lon="6.95555"><ele>1523.8</ele><time>2017-06-15T12:49:29Z</time></trkpt>
<trkpt lat="46.07169" lon="6.95554"><ele>1524.2</ele><time>2017-06-15T12:49:31Z</time></trkpt>
<trkpt lat="46.07167" lon="6.95551"><ele>1524.4</ele><time>2017-06-15T12:49:33Z</time></trkpt>
<trkpt lat="46.07165" lon="6.9555"><ele>1524.6</ele><time>2017-06-15T12:49:34Z</time></trkpt>
<trkpt lat="46.07164" lon="6.95549"><ele>1524.8</ele><time>2017-06-15T12:49:35Z</time></trkpt>
<trkpt lat="46.07162" lon="6.95547"><ele>1525</ele><time>2017-06-15T12:49:37Z</time></trkpt>
<trkpt lat="46.0716" lon="6.95545"><ele>1525.4</ele><time>2017-06-15T12:49:39Z</time></trkpt>
<trkpt lat="46.07158" lon="6.95543"><ele>1525.6</ele><time>2017-06-15T12:49:41Z</time></trkpt>
<trkpt lat="46.07155" lon="6.95541"><ele>1526</ele><time>2017-06-15T12:49:43Z</time></trkpt>
<trkpt lat="46.07153" lon="6.95539"><ele>1526.2</ele><time>2017-06-15T12:49:45Z</time></trkpt>
<trkpt lat="46.07151" lon="6.95537"><ele>1526.6</ele><time>2017-06-15T12:49:47Z</time></trkpt>
<trkpt lat="46.07148" lon="6.95535"><ele>1526.8</ele><time>2017-06-15T12:49:49Z</time></trkpt>
<trkpt lat="46.07146" lon="6.95533"><ele>1527.2</ele><time>2017-06-15T12:49:51Z</time></trkpt>
<trkpt lat="46.07144" lon="6.95531"><ele>1527.4</ele><time>2017-06-15T12:49:53Z</time></trkpt>
<trkpt lat="46.07142" lon="6.95529"><ele>1527.8</ele><time>2017-06-15T12:49:55Z</time></trkpt>
<trkpt lat="46.07139" lon="6.95527"><ele>1528</ele><time>2017-06-15T12:49:57Z</time></trkpt>
<trkpt lat="46.07138" lon="6.95526"><ele>1528.2</ele><time>2017-06-15T12:49:58Z</time></trkpt>
<trkpt lat="46.07137" lon="6.95525"><ele>1528.4</ele><time>2017-06-15T12:49:59Z</time></trkpt>
<trkpt lat="46.07135" lon="6.95522"><ele>1528.6</ele><time>2017-06-15T12:50:01Z</time></trkpt>
<trkpt lat="46.07133" lon="6.9552"><ele>1528.8</ele><time>2017-06-15T12:50:03Z</time></trkpt>
<trkpt lat="46.0713" lon="6.95518"><ele>1529.2</ele><time>2017-06-15T12:50:05Z</time></trkpt>
<trkpt lat="46.07128" lon="6.95516"><ele>1529.4</ele><time>2017-06-15T12:50:07Z</time></trkpt>
<trkpt lat="46.07126" lon="6.95513"><ele>1529.8</ele><time>2017-06-15T12:50:09Z</time></trkpt>
<trkpt lat="46.07124" lon="6.95511"><ele>1530</ele><time>2017-06-15T12:50:11Z</time></trkpt>
<trkpt lat="46.07122" lon="6.95508"><ele>1530.2</ele><time>2017-06-15T12:50:13Z</time></trkpt>
<trkpt lat="46.0712" lon="6.95506"><ele>1530.6</ele><time>2017-06-15T12:50:15Z</time></trkpt>
<trkpt lat="46.07118" lon="6.95504"><ele>1530.8</ele><time>2017-06-15T12:50:17Z</time></trkpt>
<trkpt lat="46.07116" lon="6.95501"><ele>1531.2</ele><time>2017-06-15T12:50:19Z</time></trkpt>
<trkpt lat="46.07115" lon="6.955"><ele>1531.2</ele><time>2017-06-15T12:50:20Z</time></trkpt>
<trkpt lat="46.07114" lon="6.95499"><ele>1531.4</ele><time>2017-06-15T12:50:21Z</time></trkpt>
<trkpt lat="46.07112" lon="6.95496"><ele>1531.6</ele><time>2017-06-15T12:50:23Z</time></trkpt>
<trkpt lat="46.0711" lon="6.95494"><ele>1531.8</ele><time>2017-06-15T12:50:25Z</time></trkpt>
<trkpt lat="46.07108" lon="6.95491"><ele>1532</ele><time>2017-06-15T12:50:27Z</time></trkpt>
<trkpt lat="46.07106" lon="6.95489"><ele>1532.4</ele><time>2017-06-15T12:50:29Z</time></trkpt>
<trkpt lat="46.07104" lon="6.95486"><ele>1532.6</ele><time>2017-06-15T12:50:31Z</time></trkpt>
<trkpt lat="46.07103" lon="6.95485"><ele>1532.6</ele><time>2017-06-15T12:50:32Z</time></trkpt>
<trkpt lat="46.07102" lon="6.95484"><ele>1532.8</ele><time>2017-06-15T12:50:33Z</time></trkpt>
<trkpt lat="46.071" lon="6.95482"><ele>1533</ele><time>2017-06-15T12:50:35Z</time></trkpt>
<trkpt lat="46.07098" lon="6.95479"><ele>1533.4</ele><time>2017-06-15T12:50:37Z</time></trkpt>
<trkpt lat="46.07096" lon="6.95477"><ele>1533.6</ele><time>2017-06-15T12:50:39Z</time></trkpt>
<trkpt lat="46.07095" lon="6.95476"><ele>1533.8</ele><time>2017-06-15T12:50:40Z</time></trkpt>
<trkpt lat="46.07094" lon="6.95474"><ele>1534</ele><time>2017-06-15T12:50:41Z</time></trkpt>
<trkpt lat="46.07092" lon="6.95472"><ele>1534.2</ele><time>2017-06-15T12:50:43Z</time></trkpt>
<trkpt lat="46.07091" lon="6.9547"><ele>1534.4</ele><time>2017-06-15T12:50:45Z</time></trkpt>
<trkpt lat="46.07089" lon="6.95467"><ele>1534.8</ele><time>2017-06-15T12:50:47Z</time></trkpt>
<trkpt lat="46.07087" lon="6.95465"><ele>1535</ele><time>2017-06-15T12:50:49Z</time></trkpt>
<trkpt lat="46.07085" lon="6.95463"><ele>1535.2</ele><time>2017-06-15T12:50:51Z</time></trkpt>
<trkpt lat="46.07083" lon="6.9546"><ele>1535.4</ele><time>2017-06-15T12:50:53Z</time></trkpt>
<trkpt lat="46.07082" lon="6.95458"><ele>1535.8</ele><time>2017-06-15T12:50:55Z</time></trkpt>
<trkpt lat="46.0708" lon="6.95456"><ele>1536</ele><time>2017-06-15T12:50:57Z</time></trkpt>
<trkpt lat="46.07078" lon="6.95453"><ele>1536.2</ele><time>2017-06-15T12:50:59Z</time></trkpt>
<trkpt lat="46.07076" lon="6.95451"><ele>1536.6</ele><time>2017-06-15T12:51:01Z</time></trkpt>
<trkpt lat="46.07074" lon="6.95449"><ele>1536.8</ele><time>2017-06-15T12:51:03Z</time></trkpt>
<trkpt lat="46.07073" lon="6.95447"><ele>1537</ele><time>2017-06-15T12:51:05Z</time></trkpt>
<trkpt lat="46.07071" lon="6.95444"><ele>1537.4</ele><time>2017-06-15T12:51:07Z</time></trkpt>
<trkpt lat="46.07069" lon="6.95442"><ele>1537.6</ele><time>2017-06-15T12:51:09Z</time></trkpt>
<trkpt lat="46.07068" lon="6.95441"><ele>1537.8</ele><time>2017-06-15T12:51:10Z</time></trkpt>
<trkpt lat="46.07067" lon="6.9544"><ele>1537.8</ele><time>2017-06-15T12:51:11Z</time></trkpt>
<trkpt lat="46.07065" lon="6.95437"><ele>1538</ele><time>2017-06-15T12:51:13Z</time></trkpt>
<trkpt lat="46.07064" lon="6.95435"><ele>1538.4</ele><time>2017-06-15T12:51:15Z</time></trkpt>
<trkpt lat="46.07062" lon="6.95433"><ele>1538.6</ele><time>2017-06-15T12:51:17Z</time></trkpt>
<trkpt lat="46.07061" lon="6.95431"><ele>1538.8</ele><time>2017-06-15T12:51:18Z</time></trkpt>
<trkpt lat="46.0706" lon="6.9543"><ele>1538.8</ele><time>2017-06-15T12:51:19Z</time></trkpt>
<trkpt lat="46.07059" lon="6.95429"><ele>1539</ele><time>2017-06-15T12:51:20Z</time></trkpt>
<trkpt lat="46.07058" lon="6.95427"><ele>1539</ele><time>2017-06-15T12:51:21Z</time></trkpt>
<trkpt lat="46.07055" lon="6.95425"><ele>1539.4</ele><time>2017-06-15T12:51:23Z</time></trkpt>
<trkpt lat="46.07053" lon="6.95422"><ele>1539.6</ele><time>2017-06-15T12:51:25Z</time></trkpt>
<trkpt lat="46.07052" lon="6.95421"><ele>1539.8</ele><time>2017-06-15T12:51:26Z</time></trkpt>
<trkpt lat="46.07051" lon="6.95419"><ele>1540</ele><time>2017-06-15T12:51:27Z</time></trkpt>
<trkpt lat="46.07049" lon="6.95417"><ele>1540.2</ele><time>2017-06-15T12:51:29Z</time></trkpt>
<trkpt lat="46.07047" lon="6.95414"><ele>1540.4</ele><time>2017-06-15T12:51:31Z</time></trkpt>
<trkpt lat="46.07046" lon="6.95413"><ele>1540.6</ele><time>2017-06-15T12:51:32Z</time></trkpt>
<trkpt lat="46.07045" lon="6.95411"><ele>1540.8</ele><time>2017-06-15T12:51:33Z</time></trkpt>
<trkpt lat="46.07043" lon="6.95409"><ele>1541</ele><time>2017-06-15T12:51:35Z</time></trkpt>
<trkpt lat="46.0704" lon="6.95406"><ele>1541.2</ele><time>2017-06-15T12:51:37Z</time></trkpt>
<trkpt lat="46.07038" lon="6.95403"><ele>1541.4</ele><time>2017-06-15T12:51:39Z</time></trkpt>
<trkpt lat="46.07036" lon="6.95401"><ele>1541.8</ele><time>2017-06-15T12:51:41Z</time></trkpt>
<trkpt lat="46.07034" lon="6.95398"><ele>1542</ele><time>2017-06-15T12:51:43Z</time></trkpt>
<trkpt lat="46.07032" lon="6.95395"><ele>1542.2</ele><time>2017-06-15T12:51:45Z</time></trkpt>
<trkpt lat="46.0703" lon="6.95393"><ele>1542.4</ele><time>2017-06-15T12:51:47Z</time></trkpt>
<trkpt lat="46.07027" lon="6.9539"><ele>1542.8</ele><time>2017-06-15T12:51:49Z</time></trkpt>
<trkpt lat="46.07026" lon="6.95389"><ele>1542.8</ele><time>2017-06-15T12:51:50Z</time></trkpt>
<trkpt lat="46.07025" lon="6.95387"><ele>1543</ele><time>2017-06-15T12:51:51Z</time></trkpt>
<trkpt lat="46.07022" lon="6.95385"><ele>1543.2</ele><time>2017-06-15T12:51:53Z</time></trkpt>
<trkpt lat="46.07019" lon="6.95382"><ele>1543.4</ele><time>2017-06-15T12:51:55Z</time></trkpt>
<trkpt lat="46.07016" lon="6.95379"><ele>1543.8</ele><time>2017-06-15T12:51:57Z</time></trkpt>
<trkpt lat="46.07013" lon="6.95376"><ele>1544</ele><time>2017-06-15T12:51:59Z</time></trkpt>
<trkpt lat="46.0701" lon="6.95374"><ele>1544.2</ele><time>2017-06-15T12:52:01Z</time></trkpt>
<trkpt lat="46.07007" lon="6.95371"><ele>1544.4</ele><time>2017-06-15T12:52:03Z</time></trkpt>
<trkpt lat="46.07005" lon="6.95368"><ele>1544.6</ele><time>2017-06-15T12:52:05Z</time></trkpt>
<trkpt lat="46.07002" lon="6.95365"><ele>1544.8</ele><time>2017-06-15T12:52:07Z</time></trkpt>
<trkpt lat="46.06999" lon="6.95363"><ele>1545.2</ele><time>2017-06-15T12:52:09Z</time></trkpt>
<trkpt lat="46.06996" lon="6.9536"><ele>1545.4</ele><time>2017-06-15T12:52:11Z</time></trkpt>
<trkpt lat="46.06993" lon="6.95357"><ele>1545.6</ele><time>2017-06-15T12:52:13Z</time></trkpt>
<trkpt lat="46.0699" lon="6.95355"><ele>1545.8</ele><time>2017-06-15T12:52:15Z</time></trkpt>
<trkpt lat="46.06989" lon="6.95353"><ele>1546</ele><time>2017-06-15T12:52:16Z</time></trkpt>
<trkpt lat="46.06989" lon="6.9534"><ele>1548.2</ele><time>2017-06-15T12:52:18Z</time></trkpt>
<trkpt lat="46.06989" lon="6.9534"><ele>1548.2</ele><time>2017-06-15T12:55:25Z</time></trkpt>
<trkpt lat="46.06989" lon="6.95329"><ele>1550.2</ele><time>2017-06-15T12:55:26Z</time></trkpt>
<trkpt lat="46.06991" lon="6.9533"><ele>1550.2</ele><time>2017-06-15T12:55:27Z</time></trkpt>
<trkpt lat="46.06994" lon="6.95333"><ele>1550.2</ele><time>2017-06-15T12:55:29Z</time></trkpt>
<trkpt lat="46.06997" lon="6.95337"><ele>1550.2</ele><time>2017-06-15T12:55:31Z</time></trkpt>
<trkpt lat="46.06999" lon="6.9534"><ele>1550.4</ele><time>2017-06-15T12:55:33Z</time></trkpt>
<trkpt lat="46.07002" lon="6.95343"><ele>1550.4</ele><time>2017-06-15T12:55:35Z</time></trkpt>
<trkpt lat="46.07005" lon="6.95347"><ele>1550.4</ele><time>2017-06-15T12:55:37Z</time></trkpt>
<trkpt lat="46.07008" lon="6.9535"><ele>1550.4</ele><time>2017-06-15T12:55:39Z</time></trkpt>
<trkpt lat="46.07011" lon="6.95353"><ele>1550.4</ele><time>2017-06-15T12:55:41Z</time></trkpt>
<trkpt lat="46.07014" lon="6.95356"><ele>1550.4</ele><time>2017-06-15T12:55:43Z</time></trkpt>
<trkpt lat="46.07016" lon="6.9536"><ele>1550.6</ele><time>2017-06-15T12:55:45Z</time></trkpt>
<trkpt lat="46.07019" lon="6.95363"><ele>1550.6</ele><time>2017-06-15T12:55:47Z</time></trkpt>
<trkpt lat="46.07022" lon="6.95366"><ele>1550.8</ele><time>2017-06-15T12:55:49Z</time></trkpt>
<trkpt lat="46.07025" lon="6.95369"><ele>1551.2</ele><time>2017-06-15T12:55:51Z</time></trkpt>
<trkpt lat="46.07028" lon="6.95372"><ele>1551.4</ele><time>2017-06-15T12:55:53Z</time></trkpt>
<trkpt lat="46.07031" lon="6.95374"><ele>1551.6</ele><time>2017-06-15T12:55:55Z</time></trkpt>
<trkpt lat="46.07034" lon="6.95376"><ele>1552</ele><time>2017-06-15T12:55:57Z</time></trkpt>
<trkpt lat="46.07037" lon="6.95378"><ele>1552.2</ele><time>2017-06-15T12:55:59Z</time></trkpt>
<trkpt lat="46.0704" lon="6.9538"><ele>1552.6</ele><time>2017-06-15T12:56:01Z</time></trkpt>
<trkpt lat="46.07043" lon="6.95382"><ele>1552.8</ele><time>2017-06-15T12:56:03Z</time></trkpt>
<trkpt lat="46.07046" lon="6.95385"><ele>1553.2</ele><time>2017-06-15T12:56:05Z</time></trkpt>
<trkpt lat="46.07048" lon="6.95387"><ele>1553.6</ele><time>2017-06-15T12:56:07Z</time></trkpt>
<trkpt lat="46.07051" lon="6.95389"><ele>1553.8</ele><time>2017-06-15T12:56:09Z</time></trkpt>
<trkpt lat="46.07054" lon="6.95391"><ele>1554.2</ele><time>2017-06-15T12:56:11Z</time></trkpt>
<trkpt lat="46.07057" lon="6.95393"><ele>1554.4</ele><time>2017-06-15T12:56:13Z</time></trkpt>
<trkpt lat="46.0706" lon="6.95395"><ele>1554.8</ele><time>2017-06-15T12:56:15Z</time></trkpt>
<trkpt lat="46.07063" lon="6.95398"><ele>1555.2</ele><time>2017-06-15T12:56:17Z</time></trkpt>
<trkpt lat="46.07066" lon="6.95399"><ele>1555.4</ele><time>2017-06-15T12:56:19Z</time></trkpt>
<trkpt lat="46.07069" lon="6.954"><ele>1555.8</ele><time>2017-06-15T12:56:21Z</time></trkpt>
<trkpt lat="46.07072" lon="6.954"><ele>1556</ele><time>2017-06-15T12:56:23Z</time></trkpt>
<trkpt lat="46.07074" lon="6.954"><ele>1556.4</ele><time>2017-06-15T12:56:25Z</time></trkpt>
<trkpt lat="46.07077" lon="6.95401"><ele>1556.8</ele><time>2017-06-15T12:56:27Z</time></trkpt>
<trkpt lat="46.0708" lon="6.95401"><ele>1557</ele><time>2017-06-15T12:56:29Z</time></trkpt>
<trkpt lat="46.07083" lon="6.95402"><ele>1557.4</ele><time>2017-06-15T12:56:31Z</time></trkpt>
<trkpt lat="46.07086" lon="6.95402"><ele>1557.6</ele><time>2017-06-15T12:56:33Z</time></trkpt>
<trkpt lat="46.07088" lon="6.95402"><ele>1558</ele><time>2017-06-15T12:56:35Z</time></trkpt>
<trkpt lat="46.07091" lon="6.95403"><ele>1558.2</ele><time>2017-06-15T12:56:37Z</time></trkpt>
<trkpt lat="46.07094" lon="6.95403"><ele>1558.6</ele><time>2017-06-15T12:56:39Z</time></trkpt>
<trkpt lat="46.07097" lon="6.95403"><ele>1558.8</ele><time>2017-06-15T12:56:41Z</time></trkpt>
<trkpt lat="46.071" lon="6.95404"><ele>1559.2</ele><time>2017-06-15T12:56:43Z</time></trkpt>
<trkpt lat="46.07102" lon="6.95404"><ele>1559.4</ele><time>2017-06-15T12:56:45Z</time></trkpt>
<trkpt lat="46.07105" lon="6.95405"><ele>1559.8</ele><time>2017-06-15T12:56:47Z</time></trkpt>
<trkpt lat="46.07108" lon="6.95405"><ele>1560.2</ele><time>2017-06-15T12:56:49Z</time></trkpt>
<trkpt lat="46.07111" lon="6.95405"><ele>1560.4</ele><time>2017-06-15T12:56:51Z</time></trkpt>
<trkpt lat="46.07112" lon="6.95406"><ele>1560.6</ele><time>2017-06-15T12:56:52Z</time></trkpt>
<trkpt lat="46.07114" lon="6.95406"><ele>1560.8</ele><time>2017-06-15T12:56:53Z</time></trkpt>
<trkpt lat="46.07117" lon="6.95408"><ele>1561</ele><time>2017-06-15T12:56:55Z</time></trkpt>
<trkpt lat="46.07119" lon="6.95409"><ele>1561.4</ele><time>2017-06-15T12:56:57Z</time></trkpt>
<trkpt lat="46.07122" lon="6.95411"><ele>1561.8</ele><time>2017-06-15T12:56:59Z</time></trkpt>
<trkpt lat="46.07125" lon="6.95412"><ele>1562</ele><time>2017-06-15T12:57:01Z</time></trkpt>
<trkpt lat="46.07128" lon="6.95414"><ele>1562.4</ele><time>2017-06-15T12:57:03Z</time></trkpt>
<trkpt lat="46.07131" lon="6.95415"><ele>1562.6</ele><time>2017-06-15T12:57:05Z</time></trkpt>
<trkpt lat="46.07134" lon="6.95417"><ele>1563</ele><time>2017-06-15T12:57:07Z</time></trkpt>
<trkpt lat="46.07137" lon="6.95418"><ele>1563.2</ele><time>2017-06-15T12:57:09Z</time></trkpt>
<trkpt lat="46.07139" lon="6.9542"><ele>1563.6</ele><time>2017-06-15T12:57:11Z</time></trkpt>
<trkpt lat="46.07142" lon="6.95421"><ele>1563.8</ele><time>2017-06-15T12:57:13Z</time></trkpt>
<trkpt lat="46.07145" lon="6.95423"><ele>1564.2</ele><time>2017-06-15T12:57:15Z</time></trkpt>
<trkpt lat="46.07148" lon="6.95424"><ele>1564.4</ele><time>2017-06-15T12:57:17Z</time></trkpt>
<trkpt lat="46.07151" lon="6.95426"><ele>1564.8</ele><time>2017-06-15T12:57:19Z</time></trkpt>
<trkpt lat="46.07154" lon="6.95427"><ele>1565</ele><time>2017-06-15T12:57:21Z</time></trkpt>
<trkpt lat="46.07155" lon="6.95428"><ele>1565.2</ele><time>2017-06-15T12:57:22Z</time></trkpt>
<trkpt lat="46.07156" lon="6.95429"><ele>1565.2</ele><time>2017-06-15T12:57:23Z</time></trkpt>
<trkpt lat="46.07158" lon="6.95432"><ele>1565.6</ele><time>2017-06-15T12:57:25Z</time></trkpt>
<trkpt lat="46.0716" lon="6.95435"><ele>1565.8</ele><time>2017-06-15T12:57:27Z</time></trkpt>
<trkpt lat="46.07162" lon="6.95438"><ele>1566.2</ele><time>2017-06-15T12:57:29Z</time></trkpt>
<trkpt lat="46.07164" lon="6.95441"><ele>1566.4</ele><time>2017-06-15T12:57:31Z</time></trkpt>
<trkpt lat="46.07165" lon="6.95442"><ele>1566.6</ele><time>2017-06-15T12:57:32Z</time></trkpt>
<trkpt lat="46.07166" lon="6.95444"><ele>1566.8</ele><time>2017-06-15T12:57:33Z</time></trkpt>
<trkpt lat="46.07168" lon="6.95446"><ele>1567</ele><time>2017-06-15T12:57:35Z</time></trkpt>
<trkpt lat="46.07171" lon="6.95449"><ele>1567.4</ele><time>2017-06-15T12:57:37Z</time></trkpt>
<trkpt lat="46.07173" lon="6.95452"><ele>1567.6</ele><time>2017-06-15T12:57:39Z</time></trkpt>
<trkpt lat="46.07175" lon="6.95455"><ele>1568</ele><time>2017-06-15T12:57:41Z</time></trkpt>
<trkpt lat="46.07177" lon="6.95458"><ele>1568.2</ele><time>2017-06-15T12:57:43Z</time></trkpt>
<trkpt lat="46.07179" lon="6.95461"><ele>1568.6</ele><time>2017-06-15T12:57:45Z</time></trkpt>
<trkpt lat="46.07181" lon="6.95463"><ele>1569</ele><time>2017-06-15T12:57:47Z</time></trkpt>
<trkpt lat="46.07183" lon="6.95466"><ele>1569.2</ele><time>2017-06-15T12:57:49Z</time></trkpt>
<trkpt lat="46.07185" lon="6.95469"><ele>1569.6</ele><time>2017-06-15T12:57:51Z</time></trkpt>
<trkpt lat="46.07187" lon="6.95472"><ele>1569.8</ele><time>2017-06-15T12:57:53Z</time></trkpt>
<trkpt lat="46.07188" lon="6.95473"><ele>1570</ele><time>2017-06-15T12:57:54Z</time></trkpt>
<trkpt lat="46.07189" lon="6.95473"><ele>1570.2</ele><time>2017-06-15T12:57:55Z</time></trkpt>
<trkpt lat="46.07191" lon="6.95474"><ele>1570.2</ele><time>2017-06-15T12:57:56Z</time></trkpt>
<trkpt lat="46.07192" lon="6.95474"><ele>1570.4</ele><time>2017-06-15T12:57:57Z</time></trkpt>
<trkpt lat="46.07195" lon="6.95475"><ele>1570.8</ele><time>2017-06-15T12:57:59Z</time></trkpt>
<trkpt lat="46.07197" lon="6.95476"><ele>1571.2</ele><time>2017-06-15T12:58:01Z</time></trkpt>
<trkpt lat="46.072" lon="6.95476"><ele>1571.6</ele><time>2017-06-15T12:58:03Z</time></trkpt>
<trkpt lat="46.07202" lon="6.95477"><ele>1572</ele><time>2017-06-15T12:58:05Z</time></trkpt>
<trkpt lat="46.07205" lon="6.95478"><ele>1572.4</ele><time>2017-06-15T12:58:07Z</time></trkpt>
<trkpt lat="46.07207" lon="6.95479"><ele>1572.8</ele><time>2017-06-15T12:58:09Z</time></trkpt>
<trkpt lat="46.0721" lon="6.95479"><ele>1573.2</ele><time>2017-06-15T12:58:11Z</time></trkpt>
<trkpt lat="46.07212" lon="6.9548"><ele>1573.6</ele><time>2017-06-15T12:58:13Z</time></trkpt>
<trkpt lat="46.07215" lon="6.95481"><ele>1574</ele><time>2017-06-15T12:58:15Z</time></trkpt>
<trkpt lat="46.07217" lon="6.95482"><ele>1574.2</ele><time>2017-06-15T12:58:17Z</time></trkpt>
<trkpt lat="46.0722" lon="6.95482"><ele>1574.6</ele><time>2017-06-15T12:58:19Z</time></trkpt>
<trkpt lat="46.07223" lon="6.95483"><ele>1574.8</ele><time>2017-06-15T12:58:21Z</time></trkpt>
<trkpt lat="46.07225" lon="6.95484"><ele>1575.2</ele><time>2017-06-15T12:58:23Z</time></trkpt>
<trkpt lat="46.07228" lon="6.95485"><ele>1575.4</ele><time>2017-06-15T12:58:25Z</time></trkpt>
<trkpt lat="46.0723" lon="6.95486"><ele>1575.8</ele><time>2017-06-15T12:58:27Z</time></trkpt>
<trkpt lat="46.07233" lon="6.95486"><ele>1576.2</ele><time>2017-06-15T12:58:29Z</time></trkpt>
<trkpt lat="46.07236" lon="6.95487"><ele>1576.4</ele><time>2017-06-15T12:58:31Z</time></trkpt>
<trkpt lat="46.07238" lon="6.95487"><ele>1576.8</ele><time>2017-06-15T12:58:33Z</time></trkpt>
<trkpt lat="46.07241" lon="6.95487"><ele>1577</ele><time>2017-06-15T12:58:35Z</time></trkpt>
<trkpt lat="46.07244" lon="6.95488"><ele>1577.2</ele><time>2017-06-15T12:58:37Z</time></trkpt>
<trkpt lat="46.07246" lon="6.95488"><ele>1577.6</ele><time>2017-06-15T12:58:39Z</time></trkpt>
<trkpt lat="46.07249" lon="6.95489"><ele>1577.8</ele><time>2017-06-15T12:58:41Z</time></trkpt>
<trkpt lat="46.07252" lon="6.95489"><ele>1578</ele><time>2017-06-15T12:58:43Z</time></trkpt>
<trkpt lat="46.07255" lon="6.95489"><ele>1578.2</ele><time>2017-06-15T12:58:45Z</time></trkpt>
<trkpt lat="46.07256" lon="6.9549"><ele>1578.4</ele><time>2017-06-15T12:58:46Z</time></trkpt>
<trkpt lat="46.07257" lon="6.9549"><ele>1578.4</ele><time>2017-06-15T12:58:47Z</time></trkpt>
<trkpt lat="46.0726" lon="6.9549"><ele>1578.8</ele><time>2017-06-15T12:58:49Z</time></trkpt>
<trkpt lat="46.07263" lon="6.95491"><ele>1579</ele><time>2017-06-15T12:58:51Z</time></trkpt>
<trkpt lat="46.07266" lon="6.95491"><ele>1579.4</ele><time>2017-06-15T12:58:53Z</time></trkpt>
<trkpt lat="46.07268" lon="6.95491"><ele>1579.6</ele><time>2017-06-15T12:58:55Z</time></trkpt>
<trkpt lat="46.07271" lon="6.95492"><ele>1580</ele><time>2017-06-15T12:58:57Z</time></trkpt>
<trkpt lat="46.07274" lon="6.95492"><ele>1580.2</ele><time>2017-06-15T12:58:59Z</time></trkpt>
<trkpt lat="46.07277" lon="6.95493"><ele>1580.4</ele><time>2017-06-15T12:59:01Z</time></trkpt>
<trkpt lat="46.07278" lon="6.95493"><ele>1580.6</ele><time>2017-06-15T12:59:02Z</time></trkpt>
<trkpt lat="46.07279" lon="6.95494"><ele>1580.8</ele><time>2017-06-15T12:59:03Z</time></trkpt>
<trkpt lat="46.07282" lon="6.95495"><ele>1581</ele><time>2017-06-15T12:59:05Z</time></trkpt>
<trkpt lat="46.07284" lon="6.95497"><ele>1581.2</ele><time>2017-06-15T12:59:07Z</time></trkpt>
<trkpt lat="46.07287" lon="6.95498"><ele>1581.6</ele><time>2017-06-15T12:59:09Z</time></trkpt>
<trkpt lat="46.0729" lon="6.955"><ele>1581.8</ele><time>2017-06-15T12:59:11Z</time></trkpt>
<trkpt lat="46.07292" lon="6.95502"><ele>1582.2</ele><time>2017-06-15T12:59:13Z</time></trkpt>
<trkpt lat="46.07295" lon="6.95503"><ele>1582.4</ele><time>2017-06-15T12:59:15Z</time></trkpt>
<trkpt lat="46.07297" lon="6.95505"><ele>1582.6</ele><time>2017-06-15T12:59:17Z</time></trkpt>
<trkpt lat="46.073" lon="6.95506"><ele>1583</ele><time>2017-06-15T12:59:19Z</time></trkpt>
<trkpt lat="46.07302" lon="6.95508"><ele>1583.2</ele><time>2017-06-15T12:59:21Z</time></trkpt>
<trkpt lat="46.07305" lon="6.9551"><ele>1583.4</ele><time>2017-06-15T12:59:23Z</time></trkpt>
<trkpt lat="46.07306" lon="6.9551"><ele>1583.6</ele><time>2017-06-15T12:59:24Z</time></trkpt>
<trkpt lat="46.07308" lon="6.95511"><ele>1583.8</ele><time>2017-06-15T12:59:25Z</time></trkpt>
<trkpt lat="46.0731" lon="6.95513"><ele>1584</ele><time>2017-06-15T12:59:27Z</time></trkpt>
<trkpt lat="46.07313" lon="6.95514"><ele>1584.4</ele><time>2017-06-15T12:59:29Z</time></trkpt>
<trkpt lat="46.07315" lon="6.95516"><ele>1584.6</ele><time>2017-06-15T12:59:31Z</time></trkpt>
<trkpt lat="46.07318" lon="6.95517"><ele>1585</ele><time>2017-06-15T12:59:33Z</time></trkpt>
<trkpt lat="46.0732" lon="6.95519"><ele>1585.2</ele><time>2017-06-15T12:59:35Z</time></trkpt>
<trkpt lat="46.07323" lon="6.95518"><ele>1585.4</ele><time>2017-06-15T12:59:37Z</time></trkpt>
<trkpt lat="46.07326" lon="6.95518"><ele>1585.8</ele><time>2017-06-15T12:59:39Z</time></trkpt>
<trkpt lat="46.07329" lon="6.95517"><ele>1586</ele><time>2017-06-15T12:59:41Z</time></trkpt>
<trkpt lat="46.07332" lon="6.95517"><ele>1586.4</ele><time>2017-06-15T12:59:43Z</time></trkpt>
<trkpt lat="46.07334" lon="6.95517"><ele>1586.6</ele><time>2017-06-15T12:59:45Z</time></trkpt>
<trkpt lat="46.07337" lon="6.95516"><ele>1586.8</ele><time>2017-06-15T12:59:47Z</time></trkpt>
<trkpt lat="46.0734" lon="6.95516"><ele>1587</ele><time>2017-06-15T12:59:49Z</time></trkpt>
<trkpt lat="46.07343" lon="6.95515"><ele>1587.4</ele><time>2017-06-15T12:59:51Z</time></trkpt>
<trkpt lat="46.07346" lon="6.95515"><ele>1587.6</ele><time>2017-06-15T12:59:53Z</time></trkpt>
<trkpt lat="46.07348" lon="6.95514"><ele>1587.8</ele><time>2017-06-15T12:59:55Z</time></trkpt>
<trkpt lat="46.07351" lon="6.95514"><ele>1588</ele><time>2017-06-15T12:59:57Z</time></trkpt>
<trkpt lat="46.07354" lon="6.95514"><ele>1588.4</ele><time>2017-06-15T12:59:59Z</time></trkpt>
<trkpt lat="46.07357" lon="6.95513"><ele>1588.6</ele><time>2017-06-15T13:00:01Z</time></trkpt>
<trkpt lat="46.0736" lon="6.95513"><ele>1588.8</ele><time>2017-06-15T13:00:03Z</time></trkpt>
<trkpt lat="46.07363" lon="6.95512"><ele>1589.2</ele><time>2017-06-15T13:00:05Z</time></trkpt>
<trkpt lat="46.07365" lon="6.95512"><ele>1589.4</ele><time>2017-06-15T13:00:07Z</time></trkpt>
<trkpt lat="46.07368" lon="6.95513"><ele>1589.8</ele><time>2017-06-15T13:00:09Z</time></trkpt>
<trkpt lat="46.07371" lon="6.95514"><ele>1590</ele><time>2017-06-15T13:00:11Z</time></trkpt>
<trkpt lat="46.07374" lon="6.95515"><ele>1590.4</ele><time>2017-06-15T13:00:13Z</time></trkpt>
<trkpt lat="46.07376" lon="6.95516"><ele>1590.6</ele><time>2017-06-15T13:00:15Z</time></trkpt>
<trkpt lat="46.07379" lon="6.95517"><ele>1591</ele><time>2017-06-15T13:00:17Z</time></trkpt>
<trkpt lat="46.07382" lon="6.95518"><ele>1591.2</ele><time>2017-06-15T13:00:19Z</time></trkpt>
<trkpt lat="46.07385" lon="6.9552"><ele>1591.6</ele><time>2017-06-15T13:00:21Z</time></trkpt>
<trkpt lat="46.07387" lon="6.95521"><ele>1591.8</ele><time>2017-06-15T13:00:23Z</time></trkpt>
<trkpt lat="46.0739" lon="6.95522"><ele>1592.2</ele><time>2017-06-15T13:00:25Z</time></trkpt>
<trkpt lat="46.07393" lon="6.95523"><ele>1592.4</ele><time>2017-06-15T13:00:27Z</time></trkpt>
<trkpt lat="46.07396" lon="6.95524"><ele>1592.8</ele><time>2017-06-15T13:00:29Z</time></trkpt>
<trkpt lat="46.07398" lon="6.95525"><ele>1593</ele><time>2017-06-15T13:00:31Z</time></trkpt>
<trkpt lat="46.07401" lon="6.95526"><ele>1593.2</ele><time>2017-06-15T13:00:33Z</time></trkpt>
<trkpt lat="46.07404" lon="6.95527"><ele>1593.6</ele><time>2017-06-15T13:00:35Z</time></trkpt>
<trkpt lat="46.07407" lon="6.95528"><ele>1594</ele><time>2017-06-15T13:00:37Z</time></trkpt>
<trkpt lat="46.07409" lon="6.95529"><ele>1594.2</ele><time>2017-06-15T13:00:39Z</time></trkpt>
<trkpt lat="46.07412" lon="6.95531"><ele>1594.6</ele><time>2017-06-15T13:00:41Z</time></trkpt>
<trkpt lat="46.07414" lon="6.95532"><ele>1594.8</ele><time>2017-06-15T13:00:43Z</time></trkpt>
<trkpt lat="46.07416" lon="6.95534"><ele>1595.2</ele><time>2017-06-15T13:00:45Z</time></trkpt>
<trkpt lat="46.07419" lon="6.95536"><ele>1595.4</ele><time>2017-06-15T13:00:47Z</time></trkpt>
<trkpt lat="46.07421" lon="6.95537"><ele>1595.8</ele><time>2017-06-15T13:00:49Z</time></trkpt>
<trkpt lat="46.07423" lon="6.95539"><ele>1596.2</ele><time>2017-06-15T13:00:51Z</time></trkpt>
<trkpt lat="46.07425" lon="6.95541"><ele>1596.4</ele><time>2017-06-15T13:00:53Z</time></trkpt>
<trkpt lat="46.07428" lon="6.95542"><ele>1596.8</ele><time>2017-06-15T13:00:55Z</time></trkpt>
<trkpt lat="46.0743" lon="6.95544"><ele>1597</ele><time>2017-06-15T13:00:57Z</time></trkpt>
<trkpt lat="46.07432" lon="6.95546"><ele>1597.4</ele><time>2017-06-15T13:00:59Z</time></trkpt>
<trkpt lat="46.07434" lon="6.95547"><ele>1597.6</ele><time>2017-06-15T13:01:01Z</time></trkpt>
<trkpt lat="46.07437" lon="6.95549"><ele>1597.8</ele><time>2017-06-15T13:01:03Z</time></trkpt>
<trkpt lat="46.07439" lon="6.95551"><ele>1598</ele><time>2017-06-15T13:01:05Z</time></trkpt>
<trkpt lat="46.07441" lon="6.95552"><ele>1598.4</ele><time>2017-06-15T13:01:07Z</time></trkpt>
<trkpt lat="46.07444" lon="6.95554"><ele>1598.6</ele><time>2017-06-15T13:01:09Z</time></trkpt>
<trkpt lat="46.07446" lon="6.95556"><ele>1598.8</ele><time>2017-06-15T13:01:11Z</time></trkpt>
<trkpt lat="46.07448" lon="6.95557"><ele>1599.2</ele><time>2017-06-15T13:01:13Z</time></trkpt>
<trkpt lat="46.0745" lon="6.95559"><ele>1599.4</ele><time>2017-06-15T13:01:15Z</time></trkpt>
<trkpt lat="46.07453" lon="6.95559"><ele>1599.6</ele><time>2017-06-15T13:01:17Z</time></trkpt>
<trkpt lat="46.07456" lon="6.9556"><ele>1599.8</ele><time>2017-06-15T13:01:19Z</time></trkpt>
<trkpt lat="46.07458" lon="6.95561"><ele>1600.2</ele><time>2017-06-15T13:01:21Z</time></trkpt>
<trkpt lat="46.07461" lon="6.95562"><ele>1600.4</ele><time>2017-06-15T13:01:23Z</time></trkpt>
<trkpt lat="46.07463" lon="6.95563"><ele>1600.6</ele><time>2017-06-15T13:01:25Z</time></trkpt>
<trkpt lat="46.07466" lon="6.95563"><ele>1601</ele><time>2017-06-15T13:01:27Z</time></trkpt>
<trkpt lat="46.07469" lon="6.95564"><ele>1601.2</ele><time>2017-06-15T13:01:29Z</time></trkpt>
<trkpt lat="46.0747" lon="6.95564"><ele>1601.2</ele><time>2017-06-15T13:01:30Z</time></trkpt>
<trkpt lat="46.07471" lon="6.95565"><ele>1601.4</ele><time>2017-06-15T13:01:31Z</time></trkpt>
<trkpt lat="46.07474" lon="6.95566"><ele>1601.8</ele><time>2017-06-15T13:01:33Z</time></trkpt>
<trkpt lat="46.07476" lon="6.95566"><ele>1602</ele><time>2017-06-15T13:01:35Z</time></trkpt>
<trkpt lat="46.07478" lon="6.95567"><ele>1602.2</ele><time>2017-06-15T13:01:36Z</time></trkpt>
<trkpt lat="46.07479" lon="6.95567"><ele>1602.4</ele><time>2017-06-15T13:01:37Z</time></trkpt>
<trkpt lat="46.07482" lon="6.95568"><ele>1602.6</ele><time>2017-06-15T13:01:39Z</time></trkpt>
<trkpt lat="46.07484" lon="6.95569"><ele>1602.8</ele><time>2017-06-15T13:01:41Z</time></trkpt>
<trkpt lat="46.07487" lon="6.9557"><ele>1603.2</ele><time>2017-06-15T13:01:43Z</time></trkpt>
<trkpt lat="46.07489" lon="6.9557"><ele>1603.4</ele><time>2017-06-15T13:01:45Z</time></trkpt>
<trkpt lat="46.07492" lon="6.95571"><ele>1603.6</ele><time>2017-06-15T13:01:47Z</time></trkpt>
<trkpt lat="46.07494" lon="6.95572"><ele>1604</ele><time>2017-06-15T13:01:49Z</time></trkpt>
<trkpt lat="46.07497" lon="6.95575"><ele>1604.2</ele><time>2017-06-15T13:01:51Z</time></trkpt>
<trkpt lat="46.07499" lon="6.95578"><ele>1604.4</ele><time>2017-06-15T13:01:53Z</time></trkpt>
<trkpt lat="46.07501" lon="6.95581"><ele>1604.8</ele><time>2017-06-15T13:01:55Z</time></trkpt>
<trkpt lat="46.07504" lon="6.95584"><ele>1605</ele><time>2017-06-15T13:01:57Z</time></trkpt>
<trkpt lat="46.07506" lon="6.95587"><ele>1605.2</ele><time>2017-06-15T13:01:59Z</time></trkpt>
<trkpt lat="46.07508" lon="6.9559"><ele>1605.6</ele><time>2017-06-15T13:02:01Z</time></trkpt>
<trkpt lat="46.07509" lon="6.95591"><ele>1605.6</ele><time>2017-06-15T13:02:02Z</time></trkpt>
<trkpt lat="46.0751" lon="6.95592"><ele>1605.8</ele><time>2017-06-15T13:02:03Z</time></trkpt>
<trkpt lat="46.07513" lon="6.95595"><ele>1606</ele><time>2017-06-15T13:02:05Z</time></trkpt>
<trkpt lat="46.07515" lon="6.95598"><ele>1606.2</ele><time>2017-06-15T13:02:07Z</time></trkpt>
<trkpt lat="46.07517" lon="6.95601"><ele>1606.2</ele><time>2017-06-15T13:02:09Z</time></trkpt>
<trkpt lat="46.0752" lon="6.95604"><ele>1606.4</ele><time>2017-06-15T13:02:11Z</time></trkpt>
<trkpt lat="46.07522" lon="6.95607"><ele>1606.6</ele><time>2017-06-15T13:02:13Z</time></trkpt>
<trkpt lat="46.07524" lon="6.9561"><ele>1606.8</ele><time>2017-06-15T13:02:15Z</time></trkpt>
<trkpt lat="46.07526" lon="6.95613"><ele>1607</ele><time>2017-06-15T13:02:17Z</time></trkpt>
<trkpt lat="46.07529" lon="6.95615"><ele>1607.2</ele><time>2017-06-15T13:02:19Z</time></trkpt>
<trkpt lat="46.07533" lon="6.95615"><ele>1607.2</ele><time>2017-06-15T13:02:21Z</time></trkpt>
<trkpt lat="46.07537" lon="6.95615"><ele>1607.4</ele><time>2017-06-15T13:02:23Z</time></trkpt>
<trkpt lat="46.0754" lon="6.95614"><ele>1607.6</ele><time>2017-06-15T13:02:25Z</time></trkpt>
<trkpt lat="46.07544" lon="6.95614"><ele>1607.8</ele><time>2017-06-15T13:02:27Z</time></trkpt>
<trkpt lat="46.07548" lon="6.95614"><ele>1608</ele><time>2017-06-15T13:02:29Z</time></trkpt>
<trkpt lat="46.07549" lon="6.95613"><ele>1608</ele><time>2017-06-15T13:02:30Z</time></trkpt>
<trkpt lat="46.07549" lon="6.9561"><ele>1608.2</ele><time>2017-06-15T13:02:31Z</time></trkpt>
<trkpt lat="46.07549" lon="6.95605"><ele>1608.2</ele><time>2017-06-15T13:02:33Z</time></trkpt>
<trkpt lat="46.0755" lon="6.95601"><ele>1608.4</ele><time>2017-06-15T13:02:35Z</time></trkpt>
<trkpt lat="46.0755" lon="6.95596"><ele>1608.6</ele><time>2017-06-15T13:02:37Z</time></trkpt>
<trkpt lat="46.07549" lon="6.95593"><ele>1608.8</ele><time>2017-06-15T13:02:38Z</time></trkpt>
<trkpt lat="46.07547" lon="6.95592"><ele>1608.8</ele><time>2017-06-15T13:02:39Z</time></trkpt>
<trkpt lat="46.07544" lon="6.95589"><ele>1609</ele><time>2017-06-15T13:02:41Z</time></trkpt>
<trkpt lat="46.07541" lon="6.95587"><ele>1609.2</ele><time>2017-06-15T13:02:43Z</time></trkpt>
<trkpt lat="46.07538" lon="6.95584"><ele>1609.2</ele><time>2017-06-15T13:02:45Z</time></trkpt>
<trkpt lat="46.07535" lon="6.95581"><ele>1609.4</ele><time>2017-06-15T13:02:47Z</time></trkpt>
<trkpt lat="46.07533" lon="6.9558"><ele>1609.6</ele><time>2017-06-15T13:02:48Z</time></trkpt>
<trkpt lat="46.07531" lon="6.95579"><ele>1609.6</ele><time>2017-06-15T13:02:49Z</time></trkpt>
<trkpt lat="46.07528" lon="6.95576"><ele>1609.8</ele><time>2017-06-15T13:02:51Z</time></trkpt>
<trkpt lat="46.07525" lon="6.95573"><ele>1610</ele><time>2017-06-15T13:02:53Z</time></trkpt>
<trkpt lat="46.07522" lon="6.95571"><ele>1610.2</ele><time>2017-06-15T13:02:55Z</time></trkpt>
<trkpt lat="46.07519" lon="6.95568"><ele>1610.4</ele><time>2017-06-15T13:02:57Z</time></trkpt>
<trkpt lat="46.07516" lon="6.95565"><ele>1610.6</ele><time>2017-06-15T13:02:59Z</time></trkpt>
<trkpt lat="46.07512" lon="6.95563"><ele>1610.6</ele><time>2017-06-15T13:03:01Z</time></trkpt>
<trkpt lat="46.07509" lon="6.9556"><ele>1610.8</ele><time>2017-06-15T13:03:03Z</time></trkpt>
<trkpt lat="46.07506" lon="6.95559"><ele>1611</ele><time>2017-06-15T13:03:05Z</time></trkpt>
<trkpt lat="46.07504" lon="6.95557"><ele>1611.2</ele><time>2017-06-15T13:03:07Z</time></trkpt>
<trkpt lat="46.07501" lon="6.95556"><ele>1611.4</ele><time>2017-06-15T13:03:09Z</time></trkpt>
<trkpt lat="46.07498" lon="6.95555"><ele>1611.6</ele><time>2017-06-15T13:03:11Z</time></trkpt>
<trkpt lat="46.07496" lon="6.95554"><ele>1611.8</ele><time>2017-06-15T13:03:13Z</time></trkpt>
<trkpt lat="46.07493" lon="6.95552"><ele>1612</ele><time>2017-06-15T13:03:15Z</time></trkpt>
<trkpt lat="46.0749" lon="6.95551"><ele>1612.2</ele><time>2017-06-15T13:03:17Z</time></trkpt>
<trkpt lat="46.07487" lon="6.9555"><ele>1612.2</ele><time>2017-06-15T13:03:19Z</time></trkpt>
<trkpt lat="46.07485" lon="6.95548"><ele>1612.4</ele><time>2017-06-15T13:03:21Z</time></trkpt>
<trkpt lat="46.07482" lon="6.95547"><ele>1612.6</ele><time>2017-06-15T13:03:23Z</time></trkpt>
<trkpt lat="46.07479" lon="6.95546"><ele>1612.8</ele><time>2017-06-15T13:03:25Z</time></trkpt>
<trkpt lat="46.07476" lon="6.95544"><ele>1613</ele><time>2017-06-15T13:03:27Z</time></trkpt>
<trkpt lat="46.07475" lon="6.95544"><ele>1613.2</ele><time>2017-06-15T13:03:28Z</time></trkpt>
<trkpt lat="46.07474" lon="6.95543"><ele>1613.2</ele><time>2017-06-15T13:03:29Z</time></trkpt>
<trkpt lat="46.07471" lon="6.95542"><ele>1613.6</ele><time>2017-06-15T13:03:31Z</time></trkpt>
<trkpt lat="46.07468" lon="6.9554"><ele>1614</ele><time>2017-06-15T13:03:33Z</time></trkpt>
<trkpt lat="46.07466" lon="6.95539"><ele>1614.2</ele><time>2017-06-15T13:03:35Z</time></trkpt>
<trkpt lat="46.07464" lon="6.95536"><ele>1614.6</ele><time>2017-06-15T13:03:37Z</time></trkpt>
<trkpt lat="46.07461" lon="6.95533"><ele>1615</ele><time>2017-06-15T13:03:39Z</time></trkpt>
<trkpt lat="46.07459" lon="6.95531"><ele>1615.2</ele><time>2017-06-15T13:03:41Z</time></trkpt>
<trkpt lat="46.07457" lon="6.95528"><ele>1615.6</ele><time>2017-06-15T13:03:43Z</time></trkpt>
<trkpt lat="46.07455" lon="6.95525"><ele>1615.8</ele><time>2017-06-15T13:03:45Z</time></trkpt>
<trkpt lat="46.07453" lon="6.95523"><ele>1616.2</ele><time>2017-06-15T13:03:47Z</time></trkpt>
<trkpt lat="46.07451" lon="6.9552"><ele>1616.4</ele><time>2017-06-15T13:03:49Z</time></trkpt>
<trkpt lat="46.07449" lon="6.95517"><ele>1616.8</ele><time>2017-06-15T13:03:51Z</time></trkpt>
<trkpt lat="46.07447" lon="6.95515"><ele>1617.2</ele><time>2017-06-15T13:03:53Z</time></trkpt>
<trkpt lat="46.07445" lon="6.95512"><ele>1617.4</ele><time>2017-06-15T13:03:55Z</time></trkpt>
<trkpt lat="46.07443" lon="6.95509"><ele>1617.8</ele><time>2017-06-15T13:03:57Z</time></trkpt>
<trkpt lat="46.07441" lon="6.95507"><ele>1618</ele><time>2017-06-15T13:03:59Z</time></trkpt>
<trkpt lat="46.07439" lon="6.95504"><ele>1618.4</ele><time>2017-06-15T13:04:01Z</time></trkpt>
<trkpt lat="46.07437" lon="6.95501"><ele>1618.6</ele><time>2017-06-15T13:04:03Z</time></trkpt>
<trkpt lat="46.07435" lon="6.95499"><ele>1619</ele><time>2017-06-15T13:04:05Z</time></trkpt>
<trkpt lat="46.07433" lon="6.95496"><ele>1619.2</ele><time>2017-06-15T13:04:07Z</time></trkpt>
<trkpt lat="46.07432" lon="6.95494"><ele>1619.4</ele><time>2017-06-15T13:04:08Z</time></trkpt>
<trkpt lat="46.07431" lon="6.95493"><ele>1619.6</ele><time>2017-06-15T13:04:09Z</time></trkpt>
<trkpt lat="46.07429" lon="6.9549"><ele>1619.8</ele><time>2017-06-15T13:04:11Z</time></trkpt>
<trkpt lat="46.07427" lon="6.95486"><ele>1620.2</ele><time>2017-06-15T13:04:13Z</time></trkpt>
<trkpt lat="46.07425" lon="6.95483"><ele>1620.4</ele><time>2017-06-15T13:04:15Z</time></trkpt>
<trkpt lat="46.07423" lon="6.9548"><ele>1620.8</ele><time>2017-06-15T13:04:17Z</time></trkpt>
<trkpt lat="46.07421" lon="6.95477"><ele>1621</ele><time>2017-06-15T13:04:19Z</time></trkpt>
<trkpt lat="46.07419" lon="6.95474"><ele>1621.4</ele><time>2017-06-15T13:04:21Z</time></trkpt>
<trkpt lat="46.07417" lon="6.9547"><ele>1621.6</ele><time>2017-06-15T13:04:23Z</time></trkpt>
<trkpt lat="46.07416" lon="6.95469"><ele>1621.8</ele><time>2017-06-15T13:04:24Z</time></trkpt>
<trkpt lat="46.07415" lon="6.95467"><ele>1622</ele><time>2017-06-15T13:04:25Z</time></trkpt>
<trkpt lat="46.07413" lon="6.95464"><ele>1622.2</ele><time>2017-06-15T13:04:27Z</time></trkpt>
<trkpt lat="46.07411" lon="6.95461"><ele>1622.4</ele><time>2017-06-15T13:04:29Z</time></trkpt>
<trkpt lat="46.07409" lon="6.95458"><ele>1622.8</ele><time>2017-06-15T13:04:31Z</time></trkpt>
<trkpt lat="46.07408" lon="6.95454"><ele>1623</ele><time>2017-06-15T13:04:33Z</time></trkpt>
<trkpt lat="46.07406" lon="6.95451"><ele>1623.4</ele><time>2017-06-15T13:04:35Z</time></trkpt>
<trkpt lat="46.07404" lon="6.95448"><ele>1623.6</ele><time>2017-06-15T13:04:37Z</time></trkpt>
<trkpt lat="46.07402" lon="6.95445"><ele>1624</ele><time>2017-06-15T13:04:39Z</time></trkpt>
<trkpt lat="46.07399" lon="6.95443"><ele>1624.2</ele><time>2017-06-15T13:04:41Z</time></trkpt>
<trkpt lat="46.07396" lon="6.95441"><ele>1624.6</ele><time>2017-06-15T13:04:43Z</time></trkpt>
<trkpt lat="46.07394" lon="6.95439"><ele>1624.8</ele><time>2017-06-15T13:04:45Z</time></trkpt>
<trkpt lat="46.07391" lon="6.95437"><ele>1625.2</ele><time>2017-06-15T13:04:47Z</time></trkpt>
<trkpt lat="46.07388" lon="6.95435"><ele>1625.4</ele><time>2017-06-15T13:04:49Z</time></trkpt>
<trkpt lat="46.07386" lon="6.95432"><ele>1625.8</ele><time>2017-06-15T13:04:51Z</time></trkpt>
<trkpt lat="46.07383" lon="6.9543"><ele>1626</ele><time>2017-06-15T13:04:53Z</time></trkpt>
<trkpt lat="46.07381" lon="6.95428"><ele>1626.4</ele><time>2017-06-15T13:04:55Z</time></trkpt>
<trkpt lat="46.07378" lon="6.95426"><ele>1626.6</ele><time>2017-06-15T13:04:57Z</time></trkpt>
<trkpt lat="46.07375" lon="6.95424"><ele>1627</ele><time>2017-06-15T13:04:59Z</time></trkpt>
<trkpt lat="46.07373" lon="6.95422"><ele>1627.2</ele><time>2017-06-15T13:05:01Z</time></trkpt>
<trkpt lat="46.0737" lon="6.9542"><ele>1627.6</ele><time>2017-06-15T13:05:03Z</time></trkpt>
<trkpt lat="46.07367" lon="6.95418"><ele>1627.8</ele><time>2017-06-15T13:05:05Z</time></trkpt>
<trkpt lat="46.07365" lon="6.95416"><ele>1628.2</ele><time>2017-06-15T13:05:07Z</time></trkpt>
<trkpt lat="46.07362" lon="6.95414"><ele>1628.4</ele><time>2017-06-15T13:05:09Z</time></trkpt>
<trkpt lat="46.07361" lon="6.9541"><ele>1628.8</ele><time>2017-06-15T13:05:11Z</time></trkpt>
<trkpt lat="46.0736" lon="6.95407"><ele>1629</ele><time>2017-06-15T13:05:13Z</time></trkpt>
<trkpt lat="46.07359" lon="6.95403"><ele>1629.4</ele><time>2017-06-15T13:05:15Z</time></trkpt>
<trkpt lat="46.07357" lon="6.954"><ele>1629.6</ele><time>2017-06-15T13:05:17Z</time></trkpt>
<trkpt lat="46.07356" lon="6.95396"><ele>1629.8</ele><time>2017-06-15T13:05:19Z</time></trkpt>
<trkpt lat="46.07355" lon="6.95393"><ele>1630.2</ele><time>2017-06-15T13:05:21Z</time></trkpt>
<trkpt lat="46.07354" lon="6.9539"><ele>1630.4</ele><time>2017-06-15T13:05:23Z</time></trkpt>
<trkpt lat="46.07353" lon="6.95386"><ele>1630.8</ele><time>2017-06-15T13:05:25Z</time></trkpt>
<trkpt lat="46.07351" lon="6.95383"><ele>1631</ele><time>2017-06-15T13:05:27Z</time></trkpt>
<trkpt lat="46.0735" lon="6.95379"><ele>1631.4</ele><time>2017-06-15T13:05:29Z</time></trkpt>
<trkpt lat="46.07349" lon="6.95376"><ele>1631.6</ele><time>2017-06-15T13:05:31Z</time></trkpt>
<trkpt lat="46.07348" lon="6.95373"><ele>1631.8</ele><time>2017-06-15T13:05:33Z</time></trkpt>
<trkpt lat="46.07347" lon="6.95369"><ele>1632.2</ele><time>2017-06-15T13:05:35Z</time></trkpt>
<trkpt lat="46.07345" lon="6.95366"><ele>1632.4</ele><time>2017-06-15T13:05:37Z</time></trkpt>
<trkpt lat="46.07344" lon="6.95362"><ele>1632.8</ele><time>2017-06-15T13:05:39Z</time></trkpt>
<trkpt lat="46.07343" lon="6.95359"><ele>1633</ele><time>2017-06-15T13:05:41Z</time></trkpt>
<trkpt lat="46.07342" lon="6.95355"><ele>1633.4</ele><time>2017-06-15T13:05:43Z</time></trkpt>
<trkpt lat="46.0734" lon="6.95353"><ele>1633.6</ele><time>2017-06-15T13:05:45Z</time></trkpt>
<trkpt lat="46.07338" lon="6.9535"><ele>1634</ele><time>2017-06-15T13:05:47Z</time></trkpt>
<trkpt lat="46.07336" lon="6.95347"><ele>1634.2</ele><time>2017-06-15T13:05:49Z</time></trkpt>
<trkpt lat="46.07333" lon="6.95344"><ele>1634.6</ele><time>2017-06-15T13:05:51Z</time></trkpt>
<trkpt lat="46.07331" lon="6.95341"><ele>1634.8</ele><time>2017-06-15T13:05:53Z</time></trkpt>
<trkpt lat="46.07329" lon="6.95338"><ele>1635.2</ele><time>2017-06-15T13:05:55Z</time></trkpt>
<trkpt lat="46.07327" lon="6.95335"><ele>1635.4</ele><time>2017-06-15T13:05:57Z</time></trkpt>
<trkpt lat="46.07325" lon="6.95332"><ele>1635.8</ele><time>2017-06-15T13:05:59Z</time></trkpt>
<trkpt lat="46.07323" lon="6.95329"><ele>1636</ele><time>2017-06-15T13:06:01Z</time></trkpt>
<trkpt lat="46.07322" lon="6.95327"><ele>1636.2</ele><time>2017-06-15T13:06:02Z</time></trkpt>
<trkpt lat="46.07321" lon="6.95326"><ele>1636.4</ele><time>2017-06-15T13:06:03Z</time></trkpt>
<trkpt lat="46.07319" lon="6.95323"><ele>1636.6</ele><time>2017-06-15T13:06:05Z</time></trkpt>
<trkpt lat="46.07317" lon="6.9532"><ele>1637</ele><time>2017-06-15T13:06:07Z</time></trkpt>
<trkpt lat="46.07315" lon="6.95317"><ele>1637.4</ele><time>2017-06-15T13:06:09Z</time></trkpt>
<trkpt lat="46.07313" lon="6.95314"><ele>1637.6</ele><time>2017-06-15T13:06:11Z</time></trkpt>
<trkpt lat="46.07311" lon="6.95311"><ele>1638</ele><time>2017-06-15T13:06:13Z</time></trkpt>
<trkpt lat="46.07309" lon="6.95309"><ele>1638.2</ele><time>2017-06-15T13:06:15Z</time></trkpt>
<trkpt lat="46.07306" lon="6.95308"><ele>1638.6</ele><time>2017-06-15T13:06:17Z</time></trkpt>
<trkpt lat="46.07304" lon="6.95307"><ele>1638.8</ele><time>2017-06-15T13:06:19Z</time></trkpt>
<trkpt lat="46.07301" lon="6.95306"><ele>1639.2</ele><time>2017-06-15T13:06:21Z</time></trkpt>
<trkpt lat="46.07298" lon="6.95305"><ele>1639.4</ele><time>2017-06-15T13:06:23Z</time></trkpt>
<trkpt lat="46.07296" lon="6.95304"><ele>1639.8</ele><time>2017-06-15T13:06:25Z</time></trkpt>
<trkpt lat="46.07293" lon="6.95303"><ele>1640.2</ele><time>2017-06-15T13:06:27Z</time></trkpt>
<trkpt lat="46.07291" lon="6.95302"><ele>1640.4</ele><time>2017-06-15T13:06:29Z</time></trkpt>
<trkpt lat="46.07288" lon="6.95301"><ele>1640.8</ele><time>2017-06-15T13:06:31Z</time></trkpt>
<trkpt lat="46.07285" lon="6.953"><ele>1641</ele><time>2017-06-15T13:06:33Z</time></trkpt>
<trkpt lat="46.07283" lon="6.95299"><ele>1641.4</ele><time>2017-06-15T13:06:35Z</time></trkpt>
<trkpt lat="46.0728" lon="6.95298"><ele>1641.6</ele><time>2017-06-15T13:06:37Z</time></trkpt>
<trkpt lat="46.07277" lon="6.95297"><ele>1642</ele><time>2017-06-15T13:06:39Z</time></trkpt>
<trkpt lat="46.07275" lon="6.95296"><ele>1642.2</ele><time>2017-06-15T13:06:41Z</time></trkpt>
<trkpt lat="46.07272" lon="6.95295"><ele>1642.6</ele><time>2017-06-15T13:06:43Z</time></trkpt>
<trkpt lat="46.07269" lon="6.95294"><ele>1642.8</ele><time>2017-06-15T13:06:45Z</time></trkpt>
<trkpt lat="46.07267" lon="6.95294"><ele>1643.2</ele><time>2017-06-15T13:06:47Z</time></trkpt>
<trkpt lat="46.07265" lon="6.95293"><ele>1643.4</ele><time>2017-06-15T13:06:48Z</time></trkpt>
<trkpt lat="46.07264" lon="6.95292"><ele>1643.4</ele><time>2017-06-15T13:06:49Z</time></trkpt>
<trkpt lat="46.07262" lon="6.9529"><ele>1643.8</ele><time>2017-06-15T13:06:51Z</time></trkpt>
<trkpt lat="46.0726" lon="6.95289"><ele>1644</ele><time>2017-06-15T13:06:53Z</time></trkpt>
<trkpt lat="46.07258" lon="6.95287"><ele>1644.4</ele><time>2017-06-15T13:06:55Z</time></trkpt>
<trkpt lat="46.07256" lon="6.95285"><ele>1644.6</ele><time>2017-06-15T13:06:57Z</time></trkpt>
<trkpt lat="46.07254" lon="6.95283"><ele>1645</ele><time>2017-06-15T13:06:59Z</time></trkpt>
<trkpt lat="46.07252" lon="6.95282"><ele>1645.2</ele><time>2017-06-15T13:07:01Z</time></trkpt>
<trkpt lat="46.0725" lon="6.9528"><ele>1645.6</ele><time>2017-06-15T13:07:03Z</time></trkpt>
<trkpt lat="46.07248" lon="6.95278"><ele>1645.8</ele><time>2017-06-15T13:07:05Z</time></trkpt>
<trkpt lat="46.07246" lon="6.95277"><ele>1646.2</ele><time>2017-06-15T13:07:07Z</time></trkpt>
<trkpt lat="46.07244" lon="6.95275"><ele>1646.4</ele><time>2017-06-15T13:07:09Z</time></trkpt>
<trkpt lat="46.07242" lon="6.95273"><ele>1646.6</ele><time>2017-06-15T13:07:11Z</time></trkpt>
<trkpt lat="46.07239" lon="6.95271"><ele>1647</ele><time>2017-06-15T13:07:13Z</time></trkpt>
<trkpt lat="46.07237" lon="6.9527"><ele>1647.2</ele><time>2017-06-15T13:07:15Z</time></trkpt>
<trkpt lat="46.07235" lon="6.95268"><ele>1647.6</ele><time>2017-06-15T13:07:17Z</time></trkpt>
<trkpt lat="46.07233" lon="6.95266"><ele>1647.8</ele><time>2017-06-15T13:07:19Z</time></trkpt>
<trkpt lat="46.07231" lon="6.95265"><ele>1648.2</ele><time>2017-06-15T13:07:21Z</time></trkpt>
<trkpt lat="46.07229" lon="6.95263"><ele>1648.4</ele><time>2017-06-15T13:07:23Z</time></trkpt>
<trkpt lat="46.07227" lon="6.95261"><ele>1648.8</ele><time>2017-06-15T13:07:25Z</time></trkpt>
<trkpt lat="46.07226" lon="6.9526"><ele>1648.8</ele><time>2017-06-15T13:07:26Z</time></trkpt>
<trkpt lat="46.07225" lon="6.95259"><ele>1649</ele><time>2017-06-15T13:07:27Z</time></trkpt>
<trkpt lat="46.07223" lon="6.95256"><ele>1649.4</ele><time>2017-06-15T13:07:29Z</time></trkpt>
<trkpt lat="46.07222" lon="6.95253"><ele>1649.6</ele><time>2017-06-15T13:07:31Z</time></trkpt>
<trkpt lat="46.0722" lon="6.9525"><ele>1650</ele><time>2017-06-15T13:07:33Z</time></trkpt>
<trkpt lat="46.07218" lon="6.95248"><ele>1650.2</ele><time>2017-06-15T13:07:35Z</time></trkpt>
<trkpt lat="46.07216" lon="6.95245"><ele>1650.4</ele><time>2017-06-15T13:07:37Z</time></trkpt>
<trkpt lat="46.07215" lon="6.95242"><ele>1650.8</ele><time>2017-06-15T13:07:39Z</time></trkpt>
<trkpt lat="46.07213" lon="6.95239"><ele>1651</ele><time>2017-06-15T13:07:41Z</time></trkpt>
<trkpt lat="46.07211" lon="6.95237"><ele>1651.4</ele><time>2017-06-15T13:07:43Z</time></trkpt>
<trkpt lat="46.07209" lon="6.95234"><ele>1651.6</ele><time>2017-06-15T13:07:45Z</time></trkpt>
<trkpt lat="46.07208" lon="6.95231"><ele>1652</ele><time>2017-06-15T13:07:47Z</time></trkpt>
<trkpt lat="46.07206" lon="6.95228"><ele>1652.2</ele><time>2017-06-15T13:07:49Z</time></trkpt>
<trkpt lat="46.07204" lon="6.95226"><ele>1652.4</ele><time>2017-06-15T13:07:51Z</time></trkpt>
<trkpt lat="46.07203" lon="6.95223"><ele>1652.8</ele><time>2017-06-15T13:07:53Z</time></trkpt>
<trkpt lat="46.07201" lon="6.9522"><ele>1653</ele><time>2017-06-15T13:07:55Z</time></trkpt>
<trkpt lat="46.07199" lon="6.95217"><ele>1653.4</ele><time>2017-06-15T13:07:57Z</time></trkpt>
<trkpt lat="46.07197" lon="6.95215"><ele>1653.6</ele><time>2017-06-15T13:07:59Z</time></trkpt>
<trkpt lat="46.07195" lon="6.95212"><ele>1653.8</ele><time>2017-06-15T13:08:01Z</time></trkpt>
<trkpt lat="46.07193" lon="6.95209"><ele>1654.2</ele><time>2017-06-15T13:08:03Z</time></trkpt>
<trkpt lat="46.07191" lon="6.95207"><ele>1654.4</ele><time>2017-06-15T13:08:05Z</time></trkpt>
<trkpt lat="46.07189" lon="6.95204"><ele>1654.8</ele><time>2017-06-15T13:08:07Z</time></trkpt>
<trkpt lat="46.07187" lon="6.95201"><ele>1655</ele><time>2017-06-15T13:08:09Z</time></trkpt>
<trkpt lat="46.07185" lon="6.95199"><ele>1655.2</ele><time>2017-06-15T13:08:11Z</time></trkpt>
<trkpt lat="46.07183" lon="6.95196"><ele>1655.6</ele><time>2017-06-15T13:08:13Z</time></trkpt>
<trkpt lat="46.07181" lon="6.95194"><ele>1655.8</ele><time>2017-06-15T13:08:15Z</time></trkpt>
<trkpt lat="46.07178" lon="6.95191"><ele>1656</ele><time>2017-06-15T13:08:17Z</time></trkpt>
<trkpt lat="46.07176" lon="6.95189"><ele>1656.4</ele><time>2017-06-15T13:08:19Z</time></trkpt>
<trkpt lat="46.07174" lon="6.95186"><ele>1656.6</ele><time>2017-06-15T13:08:21Z</time></trkpt>
<trkpt lat="46.07172" lon="6.95183"><ele>1656.8</ele><time>2017-06-15T13:08:23Z</time></trkpt>
<trkpt lat="46.07171" lon="6.95182"><ele>1657</ele><time>2017-06-15T13:08:24Z</time></trkpt>
<trkpt lat="46.0717" lon="6.95181"><ele>1657.2</ele><time>2017-06-15T13:08:25Z</time></trkpt>
<trkpt lat="46.07168" lon="6.95178"><ele>1657.4</ele><time>2017-06-15T13:08:27Z</time></trkpt>
<trkpt lat="46.07166" lon="6.95176"><ele>1657.8</ele><time>2017-06-15T13:08:29Z</time></trkpt>
<trkpt lat="46.07164" lon="6.95173"><ele>1658</ele><time>2017-06-15T13:08:31Z</time></trkpt>
<trkpt lat="46.07161" lon="6.9517"><ele>1658.4</ele><time>2017-06-15T13:08:33Z</time></trkpt>
<trkpt lat="46.0716" lon="6.95169"><ele>1658.6</ele><time>2017-06-15T13:08:34Z</time></trkpt>
<trkpt lat="46.07159" lon="6.95168"><ele>1658.8</ele><time>2017-06-15T13:08:35Z</time></trkpt>
<trkpt lat="46.07157" lon="6.95165"><ele>1659</ele><time>2017-06-15T13:08:37Z</time></trkpt>
<trkpt lat="46.07155" lon="6.95162"><ele>1659.4</ele><time>2017-06-15T13:08:39Z</time></trkpt>
<trkpt lat="46.07153" lon="6.95159"><ele>1659.6</ele><time>2017-06-15T13:08:41Z</time></trkpt>
<trkpt lat="46.07151" lon="6.95156"><ele>1660</ele><time>2017-06-15T13:08:43Z</time></trkpt>
<trkpt lat="46.0715" lon="6.95153"><ele>1660.2</ele><time>2017-06-15T13:08:45Z</time></trkpt>
<trkpt lat="46.07148" lon="6.9515"><ele>1660.6</ele><time>2017-06-15T13:08:47Z</time></trkpt>
<trkpt lat="46.07146" lon="6.95147"><ele>1660.8</ele><time>2017-06-15T13:08:49Z</time></trkpt>
<trkpt lat="46.07144" lon="6.95144"><ele>1661.2</ele><time>2017-06-15T13:08:51Z</time></trkpt>
<trkpt lat="46.07142" lon="6.95141"><ele>1661.6</ele><time>2017-06-15T13:08:53Z</time></trkpt>
<trkpt lat="46.0714" lon="6.95138"><ele>1661.8</ele><time>2017-06-15T13:08:55Z</time></trkpt>
<trkpt lat="46.07138" lon="6.95135"><ele>1662.2</ele><time>2017-06-15T13:08:57Z</time></trkpt>
<trkpt lat="46.07136" lon="6.95132"><ele>1662.4</ele><time>2017-06-15T13:08:59Z</time></trkpt>
<trkpt lat="46.07134" lon="6.95129"><ele>1662.8</ele><time>2017-06-15T13:09:01Z</time></trkpt>
<trkpt lat="46.07132" lon="6.95126"><ele>1663</ele><time>2017-06-15T13:09:03Z</time></trkpt>
<trkpt lat="46.0713" lon="6.95123"><ele>1663.4</ele><time>2017-06-15T13:09:05Z</time></trkpt>
<trkpt lat="46.07129" lon="6.95122"><ele>1663.6</ele><time>2017-06-15T13:09:06Z</time></trkpt>
<trkpt lat="46.07128" lon="6.9512"><ele>1663.8</ele><time>2017-06-15T13:09:07Z</time></trkpt>
<trkpt lat="46.07126" lon="6.95117"><ele>1664</ele><time>2017-06-15T13:09:09Z</time></trkpt>
<trkpt lat="46.07125" lon="6.95115"><ele>1664.2</ele><time>2017-06-15T13:09:10Z</time></trkpt>
<trkpt lat="46.07124" lon="6.95114"><ele>1664.4</ele><time>2017-06-15T13:09:11Z</time></trkpt>
<trkpt lat="46.07122" lon="6.9511"><ele>1664.6</ele><time>2017-06-15T13:09:13Z</time></trkpt>
<trkpt lat="46.0712" lon="6.95107"><ele>1665</ele><time>2017-06-15T13:09:15Z</time></trkpt>
<trkpt lat="46.07118" lon="6.95104"><ele>1665.2</ele><time>2017-06-15T13:09:17Z</time></trkpt>
<trkpt lat="46.07116" lon="6.951"><ele>1665.4</ele><time>2017-06-15T13:09:19Z</time></trkpt>
<trkpt lat="46.07114" lon="6.95097"><ele>1665.8</ele><time>2017-06-15T13:09:21Z</time></trkpt>
<trkpt lat="46.07112" lon="6.95094"><ele>1666</ele><time>2017-06-15T13:09:23Z</time></trkpt>
<trkpt lat="46.07111" lon="6.9509"><ele>1666.4</ele><time>2017-06-15T13:09:25Z</time></trkpt>
<trkpt lat="46.07109" lon="6.95087"><ele>1666.6</ele><time>2017-06-15T13:09:27Z</time></trkpt>
<trkpt lat="46.07107" lon="6.95084"><ele>1667</ele><time>2017-06-15T13:09:29Z</time></trkpt>
<trkpt lat="46.07105" lon="6.9508"><ele>1667.2</ele><time>2017-06-15T13:09:31Z</time></trkpt>
<trkpt lat="46.07103" lon="6.95077"><ele>1667.4</ele><time>2017-06-15T13:09:33Z</time></trkpt>
<trkpt lat="46.07101" lon="6.95074"><ele>1667.8</ele><time>2017-06-15T13:09:35Z</time></trkpt>
<trkpt lat="46.071" lon="6.95073"><ele>1667.8</ele><time>2017-06-15T13:09:36Z</time></trkpt>
<trkpt lat="46.071" lon="6.95073"><ele>1668</ele><time>2017-06-15T13:09:37Z</time></trkpt>
<trkpt lat="46.071" lon="6.95073"><ele>1668.2</ele><time>2017-06-15T13:09:39Z</time></trkpt>
<trkpt lat="46.071" lon="6.95072"><ele>1668.4</ele><time>2017-06-15T13:09:41Z</time></trkpt>
<trkpt lat="46.071" lon="6.95072"><ele>1668.8</ele><time>2017-06-15T13:09:43Z</time></trkpt>
<trkpt lat="46.071" lon="6.95072"><ele>1669</ele><time>2017-06-15T13:09:45Z</time></trkpt>
<trkpt lat="46.07101" lon="6.95068"><ele>1670.6</ele><time>2017-06-15T13:09:47Z</time></trkpt>
<trkpt lat="46.07101" lon="6.95068"><ele>1670.6</ele><time>2017-06-15T13:12:10Z</time></trkpt>
<trkpt lat="46.07102" lon="6.95064"><ele>1672</ele><time>2017-06-15T13:12:11Z</time></trkpt>
<trkpt lat="46.07102" lon="6.95064"><ele>1672</ele><time>2017-06-15T13:12:13Z</time></trkpt>
<trkpt lat="46.07102" lon="6.95064"><ele>1672</ele><time>2017-06-15T13:12:15Z</time></trkpt>
<trkpt lat="46.07103" lon="6.95065"><ele>1672</ele><time>2017-06-15T13:12:16Z</time></trkpt>
<trkpt lat="46.07104" lon="6.95066"><ele>1672</ele><time>2017-06-15T13:12:17Z</time></trkpt>
<trkpt lat="46.07106" lon="6.95069"><ele>1672.2</ele><time>2017-06-15T13:12:19Z</time></trkpt>
<trkpt lat="46.07108" lon="6.95072"><ele>1672.2</ele><time>2017-06-15T13:12:21Z</time></trkpt>
<trkpt lat="46.0711" lon="6.95074"><ele>1672.2</ele><time>2017-06-15T13:12:23Z</time></trkpt>
<trkpt lat="46.07113" lon="6.95077"><ele>1672.2</ele><time>2017-06-15T13:12:25Z</time></trkpt>
<trkpt lat="46.07115" lon="6.9508"><ele>1672.2</ele><time>2017-06-15T13:12:27Z</time></trkpt>
<trkpt lat="46.07117" lon="6.95083"><ele>1672.2</ele><time>2017-06-15T13:12:29Z</time></trkpt>
<trkpt lat="46.0712" lon="6.95086"><ele>1672.4</ele><time>2017-06-15T13:12:31Z</time></trkpt>
<trkpt lat="46.07122" lon="6.95089"><ele>1672.4</ele><time>2017-06-15T13:12:33Z</time></trkpt>
<trkpt lat="46.07124" lon="6.95091"><ele>1672.4</ele><time>2017-06-15T13:12:35Z</time></trkpt>
<trkpt lat="46.07126" lon="6.95094"><ele>1672.4</ele><time>2017-06-15T13:12:37Z</time></trkpt>
<trkpt lat="46.07129" lon="6.95097"><ele>1672.4</ele><time>2017-06-15T13:12:39Z</time></trkpt>
<trkpt lat="46.07131" lon="6.951"><ele>1672.4</ele><time>2017-06-15T13:12:41Z</time></trkpt>
<trkpt lat="46.07133" lon="6.95103"><ele>1672.6</ele><time>2017-06-15T13:12:43Z</time></trkpt>
<trkpt lat="46.07135" lon="6.95106"><ele>1672.6</ele><time>2017-06-15T13:12:45Z</time></trkpt>
<trkpt lat="46.07137" lon="6.95107"><ele>1672.6</ele><time>2017-06-15T13:12:46Z</time></trkpt>
<trkpt lat="46.07138" lon="6.95108"><ele>1672.6</ele><time>2017-06-15T13:12:47Z</time></trkpt>
<trkpt lat="46.07141" lon="6.9511"><ele>1672.6</ele><time>2017-06-15T13:12:49Z</time></trkpt>
<trkpt lat="46.07143" lon="6.95111"><ele>1672.6</ele><time>2017-06-15T13:12:51Z</time></trkpt>
<trkpt lat="46.07146" lon="6.95113"><ele>1672.8</ele><time>2017-06-15T13:12:53Z</time></trkpt>
<trkpt lat="46.07149" lon="6.95115"><ele>1672.8</ele><time>2017-06-15T13:12:55Z</time></trkpt>
<trkpt lat="46.07151" lon="6.95117"><ele>1672.8</ele><time>2017-06-15T13:12:57Z</time></trkpt>
<trkpt lat="46.07154" lon="6.95119"><ele>1672.8</ele><time>2017-06-15T13:12:59Z</time></trkpt>
<trkpt lat="46.07157" lon="6.95121"><ele>1672.8</ele><time>2017-06-15T13:13:01Z</time></trkpt>
<trkpt lat="46.07158" lon="6.95122"><ele>1673</ele><time>2017-06-15T13:13:02Z</time></trkpt>
<trkpt lat="46.0716" lon="6.95123"><ele>1673</ele><time>2017-06-15T13:13:03Z</time></trkpt>
<trkpt lat="46.07162" lon="6.95124"><ele>1673.4</ele><time>2017-06-15T13:13:05Z</time></trkpt>
<trkpt lat="46.07165" lon="6.95126"><ele>1673.6</ele><time>2017-06-15T13:13:07Z</time></trkpt>
<trkpt lat="46.07168" lon="6.95128"><ele>1673.8</ele><time>2017-06-15T13:13:09Z</time></trkpt>
<trkpt lat="46.0717" lon="6.9513"><ele>1674.2</ele><time>2017-06-15T13:13:11Z</time></trkpt>
<trkpt lat="46.07173" lon="6.95132"><ele>1674.4</ele><time>2017-06-15T13:13:13Z</time></trkpt>
<trkpt lat="46.07174" lon="6.95133"><ele>1674.6</ele><time>2017-06-15T13:13:14Z</time></trkpt>
<trkpt lat="46.07176" lon="6.95134"><ele>1674.8</ele><time>2017-06-15T13:13:15Z</time></trkpt>
<trkpt lat="46.07178" lon="6.95136"><ele>1675</ele><time>2017-06-15T13:13:17Z</time></trkpt>
<trkpt lat="46.07181" lon="6.95138"><ele>1675.4</ele><time>2017-06-15T13:13:19Z</time></trkpt>
<trkpt lat="46.07184" lon="6.9514"><ele>1675.6</ele><time>2017-06-15T13:13:21Z</time></trkpt>
<trkpt lat="46.07187" lon="6.95142"><ele>1676</ele><time>2017-06-15T13:13:23Z</time></trkpt>
<trkpt lat="46.0719" lon="6.95144"><ele>1676.2</ele><time>2017-06-15T13:13:25Z</time></trkpt>
<trkpt lat="46.07193" lon="6.95146"><ele>1676.6</ele><time>2017-06-15T13:13:27Z</time></trkpt>
<trkpt lat="46.07195" lon="6.95148"><ele>1676.8</ele><time>2017-06-15T13:13:29Z</time></trkpt>
<trkpt lat="46.07198" lon="6.9515"><ele>1677.2</ele><time>2017-06-15T13:13:31Z</time></trkpt>
<trkpt lat="46.07201" lon="6.95152"><ele>1677.4</ele><time>2017-06-15T13:13:33Z</time></trkpt>
<trkpt lat="46.07204" lon="6.95154"><ele>1677.8</ele><time>2017-06-15T13:13:35Z</time></trkpt>
<trkpt lat="46.07207" lon="6.95156"><ele>1678.2</ele><time>2017-06-15T13:13:37Z</time></trkpt>
<trkpt lat="46.0721" lon="6.95159"><ele>1678.4</ele><time>2017-06-15T13:13:39Z</time></trkpt>
<trkpt lat="46.07212" lon="6.95161"><ele>1678.8</ele><time>2017-06-15T13:13:41Z</time></trkpt>
<trkpt lat="46.07215" lon="6.95163"><ele>1679</ele><time>2017-06-15T13:13:43Z</time></trkpt>
<trkpt lat="46.07218" lon="6.95165"><ele>1679.4</ele><time>2017-06-15T13:13:45Z</time></trkpt>
<trkpt lat="46.0722" lon="6.95166"><ele>1679.6</ele><time>2017-06-15T13:13:46Z</time></trkpt>
<trkpt lat="46.07221" lon="6.95166"><ele>1679.6</ele><time>2017-06-15T13:13:47Z</time></trkpt>
<trkpt lat="46.07224" lon="6.95166"><ele>1680</ele><time>2017-06-15T13:13:49Z</time></trkpt>
<trkpt lat="46.07227" lon="6.95167"><ele>1680.4</ele><time>2017-06-15T13:13:51Z</time></trkpt>
<trkpt lat="46.0723" lon="6.95167"><ele>1680.6</ele><time>2017-06-15T13:13:53Z</time></trkpt>
<trkpt lat="46.07233" lon="6.95168"><ele>1681</ele><time>2017-06-15T13:13:55Z</time></trkpt>
<trkpt lat="46.07236" lon="6.95169"><ele>1681.2</ele><time>2017-06-15T13:13:57Z</time></trkpt>
<trkpt lat="46.07239" lon="6.95169"><ele>1681.6</ele><time>2017-06-15T13:13:59Z</time></trkpt>
<trkpt lat="46.07242" lon="6.9517"><ele>1682</ele><time>2017-06-15T13:14:01Z</time></trkpt>
<trkpt lat="46.07245" lon="6.9517"><ele>1682.2</ele><time>2017-06-15T13:14:03Z</time></trkpt>
<trkpt lat="46.07248" lon="6.95171"><ele>1682.6</ele><time>2017-06-15T13:14:05Z</time></trkpt>
<trkpt lat="46.0725" lon="6.95171"><ele>1683</ele><time>2017-06-15T13:14:07Z</time></trkpt>
<trkpt lat="46.07253" lon="6.95172"><ele>1683.2</ele><time>2017-06-15T13:14:09Z</time></trkpt>
<trkpt lat="46.07256" lon="6.95172"><ele>1683.6</ele><time>2017-06-15T13:14:11Z</time></trkpt>
<trkpt lat="46.07259" lon="6.95173"><ele>1684</ele><time>2017-06-15T13:14:13Z</time></trkpt>
<trkpt lat="46.07262" lon="6.95174"><ele>1684.2</ele><time>2017-06-15T13:14:15Z</time></trkpt>
<trkpt lat="46.07265" lon="6.95174"><ele>1684.6</ele><time>2017-06-15T13:14:17Z</time></trkpt>
<trkpt lat="46.07268" lon="6.95174"><ele>1684.8</ele><time>2017-06-15T13:14:19Z</time></trkpt>
<trkpt lat="46.0727" lon="6.95174"><ele>1685.2</ele><time>2017-06-15T13:14:21Z</time></trkpt>
<trkpt lat="46.07273" lon="6.95175"><ele>1685.6</ele><time>2017-06-15T13:14:23Z</time></trkpt>
<trkpt lat="46.07275" lon="6.95175"><ele>1685.8</ele><time>2017-06-15T13:14:25Z</time></trkpt>
<trkpt lat="46.07278" lon="6.95175"><ele>1686.2</ele><time>2017-06-15T13:14:27Z</time></trkpt>
<trkpt lat="46.07281" lon="6.95175"><ele>1686.4</ele><time>2017-06-15T13:14:29Z</time></trkpt>
<trkpt lat="46.07283" lon="6.95176"><ele>1686.6</ele><time>2017-06-15T13:14:31Z</time></trkpt>
<trkpt lat="46.07286" lon="6.95176"><ele>1687</ele><time>2017-06-15T13:14:33Z</time></trkpt>
<trkpt lat="46.07288" lon="6.95176"><ele>1687.2</ele><time>2017-06-15T13:14:35Z</time></trkpt>
<trkpt lat="46.07291" lon="6.95176"><ele>1687.6</ele><time>2017-06-15T13:14:37Z</time></trkpt>
<trkpt lat="46.07294" lon="6.95176"><ele>1687.8</ele><time>2017-06-15T13:14:39Z</time></trkpt>
<trkpt lat="46.07296" lon="6.95177"><ele>1688.2</ele><time>2017-06-15T13:14:41Z</time></trkpt>
<trkpt lat="46.07299" lon="6.95177"><ele>1688.4</ele><time>2017-06-15T13:14:43Z</time></trkpt>
<trkpt lat="46.07301" lon="6.95177"><ele>1688.8</ele><time>2017-06-15T13:14:45Z</time></trkpt>
<trkpt lat="46.07304" lon="6.95177"><ele>1689</ele><time>2017-06-15T13:14:47Z</time></trkpt>
<trkpt lat="46.07305" lon="6.95177"><ele>1689.2</ele><time>2017-06-15T13:14:48Z</time></trkpt>
<trkpt lat="46.07307" lon="6.95178"><ele>1689.4</ele><time>2017-06-15T13:14:49Z</time></trkpt>
<trkpt lat="46.07309" lon="6.95178"><ele>1689.6</ele><time>2017-06-15T13:14:51Z</time></trkpt>
<trkpt lat="46.07311" lon="6.95178"><ele>1689.6</ele><time>2017-06-15T13:14:52Z</time></trkpt>
<trkpt lat="46.07312" lon="6.95178"><ele>1689.8</ele><time>2017-06-15T13:14:53Z</time></trkpt>
<trkpt lat="46.07315" lon="6.95177"><ele>1690</ele><time>2017-06-15T13:14:55Z</time></trkpt>
<trkpt lat="46.07317" lon="6.95177"><ele>1690.4</ele><time>2017-06-15T13:14:57Z</time></trkpt>
<trkpt lat="46.0732" lon="6.95176"><ele>1690.6</ele><time>2017-06-15T13:14:59Z</time></trkpt>
<trkpt lat="46.07323" lon="6.95176"><ele>1690.8</ele><time>2017-06-15T13:15:01Z</time></trkpt>
<trkpt lat="46.07326" lon="6.95175"><ele>1691</ele><time>2017-06-15T13:15:03Z</time></trkpt>
<trkpt lat="46.07328" lon="6.95175"><ele>1691.4</ele><time>2017-06-15T13:15:05Z</time></trkpt>
<trkpt lat="46.07331" lon="6.95174"><ele>1691.6</ele><time>2017-06-15T13:15:07Z</time></trkpt>
<trkpt lat="46.07334" lon="6.95174"><ele>1691.8</ele><time>2017-06-15T13:15:09Z</time></trkpt>
<trkpt lat="46.07335" lon="6.95174"><ele>1692</ele><time>2017-06-15T13:15:10Z</time></trkpt>
<trkpt lat="46.07336" lon="6.95173"><ele>1692.2</ele><time>2017-06-15T13:15:11Z</time></trkpt>
<trkpt lat="46.07339" lon="6.95173"><ele>1692.4</ele><time>2017-06-15T13:15:13Z</time></trkpt>
<trkpt lat="46.07342" lon="6.95172"><ele>1692.8</ele><time>2017-06-15T13:15:15Z</time></trkpt>
<trkpt lat="46.07343" lon="6.95172"><ele>1693</ele><time>2017-06-15T13:15:16Z</time></trkpt>
<trkpt lat="46.07345" lon="6.95172"><ele>1693</ele><time>2017-06-15T13:15:17Z</time></trkpt>
<trkpt lat="46.07347" lon="6.95172"><ele>1693.4</ele><time>2017-06-15T13:15:19Z</time></trkpt>
<trkpt lat="46.0735" lon="6.95171"><ele>1693.6</ele><time>2017-06-15T13:15:21Z</time></trkpt>
<trkpt lat="46.07353" lon="6.95171"><ele>1694</ele><time>2017-06-15T13:15:23Z</time></trkpt>
<trkpt lat="46.07355" lon="6.9517"><ele>1694.2</ele><time>2017-06-15T13:15:25Z</time></trkpt>
<trkpt lat="46.07357" lon="6.95173"><ele>1694.6</ele><time>2017-06-15T13:15:27Z</time></trkpt>
<trkpt lat="46.07359" lon="6.95175"><ele>1694.8</ele><time>2017-06-15T13:15:29Z</time></trkpt>
<trkpt lat="46.07361" lon="6.95178"><ele>1695.2</ele><time>2017-06-15T13:15:31Z</time></trkpt>
<trkpt lat="46.07363" lon="6.9518"><ele>1695.4</ele><time>2017-06-15T13:15:33Z</time></trkpt>
<trkpt lat="46.07365" lon="6.95182"><ele>1695.8</ele><time>2017-06-15T13:15:35Z</time></trkpt>
<trkpt lat="46.07367" lon="6.95185"><ele>1696</ele><time>2017-06-15T13:15:37Z</time></trkpt>
<trkpt lat="46.07368" lon="6.95186"><ele>1696.2</ele><time>2017-06-15T13:15:38Z</time></trkpt>
<trkpt lat="46.07369" lon="6.95187"><ele>1696.4</ele><time>2017-06-15T13:15:39Z</time></trkpt>
<trkpt lat="46.07371" lon="6.95189"><ele>1696.6</ele><time>2017-06-15T13:15:41Z</time></trkpt>
<trkpt lat="46.07373" lon="6.95192"><ele>1697</ele><time>2017-06-15T13:15:43Z</time></trkpt>
<trkpt lat="46.07375" lon="6.95194"><ele>1697.2</ele><time>2017-06-15T13:15:45Z</time></trkpt>
<trkpt lat="46.07376" lon="6.95197"><ele>1697.6</ele><time>2017-06-15T13:15:47Z</time></trkpt>
<trkpt lat="46.07378" lon="6.95199"><ele>1697.8</ele><time>2017-06-15T13:15:49Z</time></trkpt>
<trkpt lat="46.0738" lon="6.95201"><ele>1698.2</ele><time>2017-06-15T13:15:51Z</time></trkpt>
<trkpt lat="46.07382" lon="6.95204"><ele>1698.4</ele><time>2017-06-15T13:15:53Z</time></trkpt>
<trkpt lat="46.07384" lon="6.95206"><ele>1698.8</ele><time>2017-06-15T13:15:55Z</time></trkpt>
<trkpt lat="46.07386" lon="6.95209"><ele>1699</ele><time>2017-06-15T13:15:57Z</time></trkpt>
<trkpt lat="46.07388" lon="6.95211"><ele>1699.4</ele><time>2017-06-15T13:15:59Z</time></trkpt>
<trkpt lat="46.07389" lon="6.95212"><ele>1699.4</ele><time>2017-06-15T13:16:00Z</time></trkpt>
<trkpt lat="46.0739" lon="6.95213"><ele>1699.6</ele><time>2017-06-15T13:16:01Z</time></trkpt>
<trkpt lat="46.07392" lon="6.95216"><ele>1700</ele><time>2017-06-15T13:16:03Z</time></trkpt>
<trkpt lat="46.07394" lon="6.95218"><ele>1700.2</ele><time>2017-06-15T13:16:05Z</time></trkpt>
<trkpt lat="46.07396" lon="6.95221"><ele>1700.6</ele><time>2017-06-15T13:16:07Z</time></trkpt>
<trkpt lat="46.07398" lon="6.95224"><ele>1700.8</ele><time>2017-06-15T13:16:09Z</time></trkpt>
<trkpt lat="46.074" lon="6.95226"><ele>1701.2</ele><time>2017-06-15T13:16:11Z</time></trkpt>
<trkpt lat="46.07402" lon="6.95229"><ele>1701.4</ele><time>2017-06-15T13:16:13Z</time></trkpt>
<trkpt lat="46.07404" lon="6.95231"><ele>1701.8</ele><time>2017-06-15T13:16:15Z</time></trkpt>
<trkpt lat="46.07406" lon="6.95234"><ele>1702</ele><time>2017-06-15T13:16:17Z</time></trkpt>
<trkpt lat="46.07408" lon="6.95237"><ele>1702.4</ele><time>2017-06-15T13:16:19Z</time></trkpt>
<trkpt lat="46.0741" lon="6.95239"><ele>1702.6</ele><time>2017-06-15T13:16:21Z</time></trkpt>
<trkpt lat="46.07412" lon="6.95242"><ele>1703</ele><time>2017-06-15T13:16:23Z</time></trkpt>
<trkpt lat="46.07414" lon="6.95244"><ele>1703.2</ele><time>2017-06-15T13:16:25Z</time></trkpt>
<trkpt lat="46.07416" lon="6.95247"><ele>1703.6</ele><time>2017-06-15T13:16:27Z</time></trkpt>
<trkpt lat="46.07418" lon="6.95249"><ele>1703.8</ele><time>2017-06-15T13:16:29Z</time></trkpt>
<trkpt lat="46.0742" lon="6.95252"><ele>1704.2</ele><time>2017-06-15T13:16:31Z</time></trkpt>
<trkpt lat="46.07422" lon="6.95255"><ele>1704.4</ele><time>2017-06-15T13:16:33Z</time></trkpt>
<trkpt lat="46.07424" lon="6.95257"><ele>1704.8</ele><time>2017-06-15T13:16:35Z</time></trkpt>
<trkpt lat="46.07427" lon="6.95257"><ele>1705</ele><time>2017-06-15T13:16:37Z</time></trkpt>
<trkpt lat="46.0743" lon="6.95258"><ele>1705.4</ele><time>2017-06-15T13:16:39Z</time></trkpt>
<trkpt lat="46.07433" lon="6.95258"><ele>1705.6</ele><time>2017-06-15T13:16:41Z</time></trkpt>
<trkpt lat="46.07434" lon="6.95258"><ele>1705.8</ele><time>2017-06-15T13:16:42Z</time></trkpt>
<trkpt lat="46.07436" lon="6.95258"><ele>1706</ele><time>2017-06-15T13:16:43Z</time></trkpt>
<trkpt lat="46.07439" lon="6.95259"><ele>1706.2</ele><time>2017-06-15T13:16:45Z</time></trkpt>
<trkpt lat="46.07442" lon="6.95259"><ele>1706.6</ele><time>2017-06-15T13:16:47Z</time></trkpt>
<trkpt lat="46.07445" lon="6.9526"><ele>1707</ele><time>2017-06-15T13:16:49Z</time></trkpt>
<trkpt lat="46.07447" lon="6.9526"><ele>1707.2</ele><time>2017-06-15T13:16:51Z</time></trkpt>
<trkpt lat="46.0745" lon="6.95261"><ele>1707.6</ele><time>2017-06-15T13:16:53Z</time></trkpt>
<trkpt lat="46.07453" lon="6.95261"><ele>1708</ele><time>2017-06-15T13:16:55Z</time></trkpt>
<trkpt lat="46.07456" lon="6.95261"><ele>1708.2</ele><time>2017-06-15T13:16:57Z</time></trkpt>
<trkpt lat="46.07459" lon="6.95262"><ele>1708.6</ele><time>2017-06-15T13:16:59Z</time></trkpt>
<trkpt lat="46.07462" lon="6.95262"><ele>1709</ele><time>2017-06-15T13:17:01Z</time></trkpt>
<trkpt lat="46.07465" lon="6.95263"><ele>1709.2</ele><time>2017-06-15T13:17:03Z</time></trkpt>
<trkpt lat="46.07466" lon="6.95263"><ele>1709.4</ele><time>2017-06-15T13:17:04Z</time></trkpt>
<trkpt lat="46.07468" lon="6.95263"><ele>1709.6</ele><time>2017-06-15T13:17:05Z</time></trkpt>
<trkpt lat="46.07469" lon="6.95263"><ele>1709.8</ele><time>2017-06-15T13:17:06Z</time></trkpt>
<trkpt lat="46.07471" lon="6.95264"><ele>1709.8</ele><time>2017-06-15T13:17:07Z</time></trkpt>
<trkpt lat="46.07473" lon="6.95264"><ele>1710.2</ele><time>2017-06-15T13:17:09Z</time></trkpt>
<trkpt lat="46.07476" lon="6.95265"><ele>1710.4</ele><time>2017-06-15T13:17:11Z</time></trkpt>
<trkpt lat="46.07479" lon="6.95266"><ele>1710.8</ele><time>2017-06-15T13:17:13Z</time></trkpt>
<trkpt lat="46.07481" lon="6.95266"><ele>1711.2</ele><time>2017-06-15T13:17:15Z</time></trkpt>
<trkpt lat="46.07484" lon="6.95267"><ele>1711.4</ele><time>2017-06-15T13:17:17Z</time></trkpt>
<trkpt lat="46.07487" lon="6.95268"><ele>1711.8</ele><time>2017-06-15T13:17:19Z</time></trkpt>
<trkpt lat="46.07489" lon="6.95268"><ele>1712</ele><time>2017-06-15T13:17:21Z</time></trkpt>
<trkpt lat="46.07492" lon="6.95269"><ele>1712.4</ele><time>2017-06-15T13:17:23Z</time></trkpt>
<trkpt lat="46.07495" lon="6.9527"><ele>1712.6</ele><time>2017-06-15T13:17:25Z</time></trkpt>
<trkpt lat="46.07496" lon="6.9527"><ele>1712.8</ele><time>2017-06-15T13:17:26Z</time></trkpt>
<trkpt lat="46.07497" lon="6.9527"><ele>1713</ele><time>2017-06-15T13:17:27Z</time></trkpt>
<trkpt lat="46.075" lon="6.95271"><ele>1713.2</ele><time>2017-06-15T13:17:29Z</time></trkpt>
<trkpt lat="46.07503" lon="6.95272"><ele>1713.6</ele><time>2017-06-15T13:17:31Z</time></trkpt>
<trkpt lat="46.07505" lon="6.95272"><ele>1713.8</ele><time>2017-06-15T13:17:33Z</time></trkpt>
<trkpt lat="46.07508" lon="6.95273"><ele>1714.2</ele><time>2017-06-15T13:17:35Z</time></trkpt>
<trkpt lat="46.0751" lon="6.95274"><ele>1714.4</ele><time>2017-06-15T13:17:37Z</time></trkpt>
<trkpt lat="46.07513" lon="6.95274"><ele>1714.6</ele><time>2017-06-15T13:17:39Z</time></trkpt>
<trkpt lat="46.07514" lon="6.95275"><ele>1714.8</ele><time>2017-06-15T13:17:40Z</time></trkpt>
<trkpt lat="46.07516" lon="6.95275"><ele>1715</ele><time>2017-06-15T13:17:41Z</time></trkpt>
<trkpt lat="46.07518" lon="6.95276"><ele>1715.2</ele><time>2017-06-15T13:17:43Z</time></trkpt>
<trkpt lat="46.0752" lon="6.95277"><ele>1715.6</ele><time>2017-06-15T13:17:45Z</time></trkpt>
<trkpt lat="46.07522" lon="6.95278"><ele>1715.8</ele><time>2017-06-15T13:17:47Z</time></trkpt>
<trkpt lat="46.07524" lon="6.95278"><ele>1716</ele><time>2017-06-15T13:17:48Z</time></trkpt>
<trkpt lat="46.07525" lon="6.95279"><ele>1716.2</ele><time>2017-06-15T13:17:49Z</time></trkpt>
<trkpt lat="46.07527" lon="6.9528"><ele>1716.4</ele><time>2017-06-15T13:17:51Z</time></trkpt>
<trkpt lat="46.07529" lon="6.95281"><ele>1716.6</ele><time>2017-06-15T13:17:53Z</time></trkpt>
<trkpt lat="46.07532" lon="6.95282"><ele>1716.8</ele><time>2017-06-15T13:17:55Z</time></trkpt>
<trkpt lat="46.07534" lon="6.95283"><ele>1717.2</ele><time>2017-06-15T13:17:57Z</time></trkpt>
<trkpt lat="46.07536" lon="6.95284"><ele>1717.4</ele><time>2017-06-15T13:17:59Z</time></trkpt>
<trkpt lat="46.07539" lon="6.95284"><ele>1717.6</ele><time>2017-06-15T13:18:01Z</time></trkpt>
<trkpt lat="46.07541" lon="6.95285"><ele>1717.8</ele><time>2017-06-15T13:18:03Z</time></trkpt>
<trkpt lat="46.07543" lon="6.95286"><ele>1718.2</ele><time>2017-06-15T13:18:05Z</time></trkpt>
<trkpt lat="46.07545" lon="6.95287"><ele>1718.4</ele><time>2017-06-15T13:18:07Z</time></trkpt>
<trkpt lat="46.07548" lon="6.95288"><ele>1718.6</ele><time>2017-06-15T13:18:09Z</time></trkpt>
<trkpt lat="46.0755" lon="6.95289"><ele>1718.8</ele><time>2017-06-15T13:18:11Z</time></trkpt>
<trkpt lat="46.07552" lon="6.9529"><ele>1719.2</ele><time>2017-06-15T13:18:13Z</time></trkpt>
<trkpt lat="46.07555" lon="6.95291"><ele>1719.4</ele><time>2017-06-15T13:18:15Z</time></trkpt>
<trkpt lat="46.07557" lon="6.95292"><ele>1719.6</ele><time>2017-06-15T13:18:17Z</time></trkpt>
<trkpt lat="46.07558" lon="6.95293"><ele>1719.8</ele><time>2017-06-15T13:18:18Z</time></trkpt>
<trkpt lat="46.07559" lon="6.95293"><ele>1720</ele><time>2017-06-15T13:18:19Z</time></trkpt>
<trkpt lat="46.07562" lon="6.95295"><ele>1720.2</ele><time>2017-06-15T13:18:21Z</time></trkpt>
<trkpt lat="46.07564" lon="6.95296"><ele>1720.4</ele><time>2017-06-15T13:18:23Z</time></trkpt>
<trkpt lat="46.07567" lon="6.95298"><ele>1720.8</ele><time>2017-06-15T13:18:25Z</time></trkpt>
<trkpt lat="46.07569" lon="6.95299"><ele>1721</ele><time>2017-06-15T13:18:27Z</time></trkpt>
<trkpt lat="46.07572" lon="6.95301"><ele>1721.2</ele><time>2017-06-15T13:18:29Z</time></trkpt>
<trkpt lat="46.07574" lon="6.95302"><ele>1721.6</ele><time>2017-06-15T13:18:31Z</time></trkpt>
<trkpt lat="46.07576" lon="6.95303"><ele>1721.6</ele><time>2017-06-15T13:18:32Z</time></trkpt>
<trkpt lat="46.07577" lon="6.95304"><ele>1721.8</ele><time>2017-06-15T13:18:33Z</time></trkpt>
<trkpt lat="46.07579" lon="6.95305"><ele>1722</ele><time>2017-06-15T13:18:35Z</time></trkpt>
<trkpt lat="46.07582" lon="6.95307"><ele>1722.2</ele><time>2017-06-15T13:18:37Z</time></trkpt>
<trkpt lat="46.07585" lon="6.95308"><ele>1722.4</ele><time>2017-06-15T13:18:39Z</time></trkpt>
<trkpt lat="46.07587" lon="6.95309"><ele>1722.8</ele><time>2017-06-15T13:18:41Z</time></trkpt>
<trkpt lat="46.0759" lon="6.95311"><ele>1723.2</ele><time>2017-06-15T13:18:43Z</time></trkpt>
<trkpt lat="46.07592" lon="6.95312"><ele>1723.4</ele><time>2017-06-15T13:18:45Z</time></trkpt>
<trkpt lat="46.07595" lon="6.95314"><ele>1723.8</ele><time>2017-06-15T13:18:47Z</time></trkpt>
<trkpt lat="46.07596" lon="6.95315"><ele>1723.8</ele><time>2017-06-15T13:18:48Z</time></trkpt>
<trkpt lat="46.0762" lon="6.95329"><ele>1726.4</ele><time>2017-06-15T13:18:50Z</time></trkpt>
<trkpt lat="46.0762" lon="6.95329"><ele>1726.4</ele><time>2017-06-15T13:20:54Z</time></trkpt>
<trkpt lat="46.07643" lon="6.95342"><ele>1729</ele><time>2017-06-15T13:20:55Z</time></trkpt>
<trkpt lat="46.07644" lon="6.95342"><ele>1729</ele><time>2017-06-15T13:20:57Z</time></trkpt>
<trkpt lat="46.07644" lon="6.95342"><ele>1729.2</ele><time>2017-06-15T13:20:59Z</time></trkpt>
<trkpt lat="46.07645" lon="6.95343"><ele>1729.2</ele><time>2017-06-15T13:21:01Z</time></trkpt>
<trkpt lat="46.07646" lon="6.95343"><ele>1729.2</ele><time>2017-06-15T13:21:03Z</time></trkpt>
<trkpt lat="46.07646" lon="6.95343"><ele>1729.2</ele><time>2017-06-15T13:21:05Z</time></trkpt>
<trkpt lat="46.07647" lon="6.95344"><ele>1729.4</ele><time>2017-06-15T13:21:07Z</time></trkpt>
<trkpt lat="46.07648" lon="6.95344"><ele>1729.4</ele><time>2017-06-15T13:21:09Z</time></trkpt>
<trkpt lat="46.07648" lon="6.95344"><ele>1729.4</ele><time>2017-06-15T13:21:11Z</time></trkpt>
<trkpt lat="46.07649" lon="6.95345"><ele>1729.6</ele><time>2017-06-15T13:21:13Z</time></trkpt>
<trkpt lat="46.0765" lon="6.95345"><ele>1729.8</ele><time>2017-06-15T13:21:15Z</time></trkpt>
<trkpt lat="46.0765" lon="6.95345"><ele>1730.2</ele><time>2017-06-15T13:21:17Z</time></trkpt>
<trkpt lat="46.07651" lon="6.95346"><ele>1730.6</ele><time>2017-06-15T13:21:19Z</time></trkpt>
<trkpt lat="46.07653" lon="6.95349"><ele>1730.8</ele><time>2017-06-15T13:21:21Z</time></trkpt>
<trkpt lat="46.07655" lon="6.95352"><ele>1731.2</ele><time>2017-06-15T13:21:23Z</time></trkpt>
<trkpt lat="46.07658" lon="6.95356"><ele>1731.6</ele><time>2017-06-15T13:21:25Z</time></trkpt>
<trkpt lat="46.0766" lon="6.95359"><ele>1731.8</ele><time>2017-06-15T13:21:27Z</time></trkpt>
<trkpt lat="46.07662" lon="6.95362"><ele>1732.2</ele><time>2017-06-15T13:21:29Z</time></trkpt>
<trkpt lat="46.07664" lon="6.95365"><ele>1732.6</ele><time>2017-06-15T13:21:31Z</time></trkpt>
<trkpt lat="46.07666" lon="6.95368"><ele>1732.8</ele><time>2017-06-15T13:21:33Z</time></trkpt>
<trkpt lat="46.07668" lon="6.95371"><ele>1733.2</ele><time>2017-06-15T13:21:35Z</time></trkpt>
<trkpt lat="46.0767" lon="6.95374"><ele>1733.6</ele><time>2017-06-15T13:21:37Z</time></trkpt>
<trkpt lat="46.07672" lon="6.95377"><ele>1733.8</ele><time>2017-06-15T13:21:39Z</time></trkpt>
<trkpt lat="46.07674" lon="6.9538"><ele>1734.2</ele><time>2017-06-15T13:21:41Z</time></trkpt>
<trkpt lat="46.07676" lon="6.95383"><ele>1734.6</ele><time>2017-06-15T13:21:43Z</time></trkpt>
<trkpt lat="46.07678" lon="6.95386"><ele>1735</ele><time>2017-06-15T13:21:45Z</time></trkpt>
<trkpt lat="46.0768" lon="6.95389"><ele>1735.2</ele><time>2017-06-15T13:21:47Z</time></trkpt>
<trkpt lat="46.07682" lon="6.95393"><ele>1735.6</ele><time>2017-06-15T13:21:49Z</time></trkpt>
<trkpt lat="46.07683" lon="6.95394"><ele>1735.8</ele><time>2017-06-15T13:21:50Z</time></trkpt>
<trkpt lat="46.07684" lon="6.95396"><ele>1736</ele><time>2017-06-15T13:21:51Z</time></trkpt>
<trkpt lat="46.07687" lon="6.95399"><ele>1736.2</ele><time>2017-06-15T13:21:53Z</time></trkpt>
<trkpt lat="46.07689" lon="6.95402"><ele>1736.6</ele><time>2017-06-15T13:21:55Z</time></trkpt>
<trkpt lat="46.07691" lon="6.95405"><ele>1737</ele><time>2017-06-15T13:21:57Z</time></trkpt>
<trkpt lat="46.07693" lon="6.95408"><ele>1737.4</ele><time>2017-06-15T13:21:59Z</time></trkpt>
<trkpt lat="46.07696" lon="6.95411"><ele>1737.6</ele><time>2017-06-15T13:22:01Z</time></trkpt>
<trkpt lat="46.07698" lon="6.95414"><ele>1738</ele><time>2017-06-15T13:22:03Z</time></trkpt>
<trkpt lat="46.07699" lon="6.95415"><ele>1738.2</ele><time>2017-06-15T13:22:04Z</time></trkpt>
<trkpt lat="46.077" lon="6.95417"><ele>1738.4</ele><time>2017-06-15T13:22:05Z</time></trkpt>
<trkpt lat="46.07702" lon="6.95419"><ele>1738.6</ele><time>2017-06-15T13:22:07Z</time></trkpt>
<trkpt lat="46.07705" lon="6.95422"><ele>1739</ele><time>2017-06-15T13:22:09Z</time></trkpt>
<trkpt lat="46.07707" lon="6.95425"><ele>1739.2</ele><time>2017-06-15T13:22:11Z</time></trkpt>
<trkpt lat="46.07709" lon="6.95428"><ele>1739.6</ele><time>2017-06-15T13:22:13Z</time></trkpt>
<trkpt lat="46.07711" lon="6.95431"><ele>1739.8</ele><time>2017-06-15T13:22:15Z</time></trkpt>
<trkpt lat="46.07714" lon="6.95434"><ele>1740.2</ele><time>2017-06-15T13:22:17Z</time></trkpt>
<trkpt lat="46.07716" lon="6.95437"><ele>1740.4</ele><time>2017-06-15T13:22:19Z</time></trkpt>
<trkpt lat="46.07717" lon="6.95439"><ele>1740.6</ele><time>2017-06-15T13:22:20Z</time></trkpt>
<trkpt lat="46.07718" lon="6.9544"><ele>1740.8</ele><time>2017-06-15T13:22:21Z</time></trkpt>
<trkpt lat="46.07721" lon="6.95441"><ele>1741</ele><time>2017-06-15T13:22:23Z</time></trkpt>
<trkpt lat="46.07724" lon="6.95443"><ele>1741.4</ele><time>2017-06-15T13:22:25Z</time></trkpt>
<trkpt lat="46.07727" lon="6.95445"><ele>1741.6</ele><time>2017-06-15T13:22:27Z</time></trkpt>
<trkpt lat="46.0773" lon="6.95446"><ele>1741.8</ele><time>2017-06-15T13:22:29Z</time></trkpt>
<trkpt lat="46.07733" lon="6.95448"><ele>1742</ele><time>2017-06-15T13:22:31Z</time></trkpt>
<trkpt lat="46.07735" lon="6.9545"><ele>1742.2</ele><time>2017-06-15T13:22:33Z</time></trkpt>
<trkpt lat="46.07738" lon="6.95451"><ele>1742.4</ele><time>2017-06-15T13:22:35Z</time></trkpt>
<trkpt lat="46.07741" lon="6.95453"><ele>1742.6</ele><time>2017-06-15T13:22:37Z</time></trkpt>
<trkpt lat="46.07742" lon="6.95454"><ele>1742.8</ele><time>2017-06-15T13:22:38Z</time></trkpt>
<trkpt lat="46.07744" lon="6.95455"><ele>1742.8</ele><time>2017-06-15T13:22:39Z</time></trkpt>
<trkpt lat="46.07747" lon="6.95456"><ele>1743</ele><time>2017-06-15T13:22:41Z</time></trkpt>
<trkpt lat="46.07749" lon="6.95458"><ele>1743.2</ele><time>2017-06-15T13:22:43Z</time></trkpt>
<trkpt lat="46.07752" lon="6.9546"><ele>1743.4</ele><time>2017-06-15T13:22:45Z</time></trkpt>
<trkpt lat="46.07755" lon="6.95461"><ele>1743.4</ele><time>2017-06-15T13:22:47Z</time></trkpt>
<trkpt lat="46.07756" lon="6.95461"><ele>1743.6</ele><time>2017-06-15T13:22:48Z</time></trkpt>
<trkpt lat="46.07756" lon="6.95459"><ele>1743.6</ele><time>2017-06-15T13:22:49Z</time></trkpt>
<trkpt lat="46.07756" lon="6.95455"><ele>1743.8</ele><time>2017-06-15T13:22:51Z</time></trkpt>
<trkpt lat="46.07756" lon="6.9545"><ele>1744</ele><time>2017-06-15T13:22:53Z</time></trkpt>
<trkpt lat="46.07756" lon="6.95446"><ele>1744</ele><time>2017-06-15T13:22:55Z</time></trkpt>
<trkpt lat="46.07756" lon="6.95441"><ele>1744.2</ele><time>2017-06-15T13:22:57Z</time></trkpt>
<trkpt lat="46.07755" lon="6.95437"><ele>1744.4</ele><time>2017-06-15T13:22:59Z</time></trkpt>
<trkpt lat="46.07752" lon="6.95434"><ele>1744.6</ele><time>2017-06-15T13:23:01Z</time></trkpt>
<trkpt lat="46.07749" lon="6.95431"><ele>1744.6</ele><time>2017-06-15T13:23:03Z</time></trkpt>
<trkpt lat="46.07746" lon="6.95428"><ele>1744.8</ele><time>2017-06-15T13:23:05Z</time></trkpt>
<trkpt lat="46.07743" lon="6.95425"><ele>1745</ele><time>2017-06-15T13:23:07Z</time></trkpt>
<trkpt lat="46.0774" lon="6.95422"><ele>1745.2</ele><time>2017-06-15T13:23:09Z</time></trkpt>
<trkpt lat="46.07737" lon="6.95419"><ele>1745.2</ele><time>2017-06-15T13:23:11Z</time></trkpt>
<trkpt lat="46.07734" lon="6.95416"><ele>1745.4</ele><time>2017-06-15T13:23:13Z</time></trkpt>
<trkpt lat="46.07731" lon="6.95414"><ele>1745.6</ele><time>2017-06-15T13:23:15Z</time></trkpt>
<trkpt lat="46.07728" lon="6.95411"><ele>1745.8</ele><time>2017-06-15T13:23:17Z</time></trkpt>
<trkpt lat="46.07725" lon="6.95408"><ele>1745.8</ele><time>2017-06-15T13:23:19Z</time></trkpt>
<trkpt lat="46.07722" lon="6.95405"><ele>1746</ele><time>2017-06-15T13:23:21Z</time></trkpt>
<trkpt lat="46.07719" lon="6.95402"><ele>1746.4</ele><time>2017-06-15T13:23:23Z</time></trkpt>
<trkpt lat="46.07718" lon="6.954"><ele>1746.4</ele><time>2017-06-15T13:23:24Z</time></trkpt>
<trkpt lat="46.07717" lon="6.95398"><ele>1746.6</ele><time>2017-06-15T13:23:25Z</time></trkpt>
<trkpt lat="46.07716" lon="6.95395"><ele>1746.8</ele><time>2017-06-15T13:23:27Z</time></trkpt>
<trkpt lat="46.07714" lon="6.95391"><ele>1747</ele><time>2017-06-15T13:23:29Z</time></trkpt>
<trkpt lat="46.07713" lon="6.95388"><ele>1747.4</ele><time>2017-06-15T13:23:31Z</time></trkpt>
<trkpt lat="46.07711" lon="6.95384"><ele>1747.6</ele><time>2017-06-15T13:23:33Z</time></trkpt>
<trkpt lat="46.0771" lon="6.95381"><ele>1747.8</ele><time>2017-06-15T13:23:35Z</time></trkpt>
<trkpt lat="46.07708" lon="6.95377"><ele>1748.2</ele><time>2017-06-15T13:23:37Z</time></trkpt>
<trkpt lat="46.07707" lon="6.95374"><ele>1748.4</ele><time>2017-06-15T13:23:39Z</time></trkpt>
<trkpt lat="46.07705" lon="6.9537"><ele>1748.8</ele><time>2017-06-15T13:23:41Z</time></trkpt>
<trkpt lat="46.07703" lon="6.95366"><ele>1749</ele><time>2017-06-15T13:23:43Z</time></trkpt>
<trkpt lat="46.07702" lon="6.95363"><ele>1749.4</ele><time>2017-06-15T13:23:45Z</time></trkpt>
<trkpt lat="46.077" lon="6.95359"><ele>1749.6</ele><time>2017-06-15T13:23:47Z</time></trkpt>
<trkpt lat="46.07699" lon="6.95356"><ele>1750</ele><time>2017-06-15T13:23:49Z</time></trkpt>
<trkpt lat="46.07697" lon="6.95352"><ele>1750.2</ele><time>2017-06-15T13:23:51Z</time></trkpt>
<trkpt lat="46.07696" lon="6.95349"><ele>1750.6</ele><time>2017-06-15T13:23:53Z</time></trkpt>
<trkpt lat="46.07694" lon="6.95345"><ele>1750.8</ele><time>2017-06-15T13:23:55Z</time></trkpt>
<trkpt lat="46.07694" lon="6.95343"><ele>1751</ele><time>2017-06-15T13:23:56Z</time></trkpt>
<trkpt lat="46.07693" lon="6.95341"><ele>1751.2</ele><time>2017-06-15T13:23:57Z</time></trkpt>
<trkpt lat="46.07692" lon="6.95338"><ele>1751.4</ele><time>2017-06-15T13:23:59Z</time></trkpt>
<trkpt lat="46.07691" lon="6.95336"><ele>1751.6</ele><time>2017-06-15T13:24:00Z</time></trkpt>
<trkpt lat="46.07691" lon="6.95334"><ele>1751.8</ele><time>2017-06-15T13:24:01Z</time></trkpt>
<trkpt lat="46.0769" lon="6.9533"><ele>1752</ele><time>2017-06-15T13:24:03Z</time></trkpt>
<trkpt lat="46.07688" lon="6.95326"><ele>1752.4</ele><time>2017-06-15T13:24:05Z</time></trkpt>
<trkpt lat="46.07687" lon="6.95322"><ele>1752.6</ele><time>2017-06-15T13:24:07Z</time></trkpt>
<trkpt lat="46.07686" lon="6.95318"><ele>1753</ele><time>2017-06-15T13:24:09Z</time></trkpt>
<trkpt lat="46.07685" lon="6.95314"><ele>1753.2</ele><time>2017-06-15T13:24:11Z</time></trkpt>
<trkpt lat="46.07684" lon="6.95311"><ele>1753.6</ele><time>2017-06-15T13:24:13Z</time></trkpt>
<trkpt lat="46.07682" lon="6.95307"><ele>1753.8</ele><time>2017-06-15T13:24:15Z</time></trkpt>
<trkpt lat="46.07681" lon="6.95303"><ele>1754.2</ele><time>2017-06-15T13:24:17Z</time></trkpt>
<trkpt lat="46.0768" lon="6.95299"><ele>1754.4</ele><time>2017-06-15T13:24:19Z</time></trkpt>
<trkpt lat="46.07679" lon="6.95295"><ele>1754.8</ele><time>2017-06-15T13:24:21Z</time></trkpt>
<trkpt lat="46.07678" lon="6.95293"><ele>1754.8</ele><time>2017-06-15T13:24:22Z</time></trkpt>
<trkpt lat="46.07678" lon="6.95291"><ele>1755</ele><time>2017-06-15T13:24:23Z</time></trkpt>
<trkpt lat="46.07677" lon="6.95287"><ele>1755.2</ele><time>2017-06-15T13:24:25Z</time></trkpt>
<trkpt lat="46.07675" lon="6.95284"><ele>1755.6</ele><time>2017-06-15T13:24:27Z</time></trkpt>
<trkpt lat="46.07673" lon="6.95281"><ele>1755.8</ele><time>2017-06-15T13:24:29Z</time></trkpt>
<trkpt lat="46.07671" lon="6.95278"><ele>1756.2</ele><time>2017-06-15T13:24:31Z</time></trkpt>
<trkpt lat="46.07669" lon="6.95275"><ele>1756.4</ele><time>2017-06-15T13:24:33Z</time></trkpt>
<trkpt lat="46.07667" lon="6.95273"><ele>1756.6</ele><time>2017-06-15T13:24:35Z</time></trkpt>
<trkpt lat="46.07664" lon="6.9527"><ele>1757</ele><time>2017-06-15T13:24:37Z</time></trkpt>
<trkpt lat="46.07662" lon="6.95267"><ele>1757.2</ele><time>2017-06-15T13:24:39Z</time></trkpt>
<trkpt lat="46.0766" lon="6.95265"><ele>1757.4</ele><time>2017-06-15T13:24:41Z</time></trkpt>
<trkpt lat="46.07658" lon="6.95262"><ele>1757.8</ele><time>2017-06-15T13:24:43Z</time></trkpt>
<trkpt lat="46.07656" lon="6.95259"><ele>1758</ele><time>2017-06-15T13:24:45Z</time></trkpt>
<trkpt lat="46.07653" lon="6.95256"><ele>1758.2</ele><time>2017-06-15T13:24:47Z</time></trkpt>
<trkpt lat="46.07651" lon="6.95254"><ele>1758.6</ele><time>2017-06-15T13:24:49Z</time></trkpt>
<trkpt lat="46.07649" lon="6.95251"><ele>1758.8</ele><time>2017-06-15T13:24:51Z</time></trkpt>
<trkpt lat="46.07647" lon="6.95248"><ele>1759.2</ele><time>2017-06-15T13:24:53Z</time></trkpt>
<trkpt lat="46.07645" lon="6.95245"><ele>1759.4</ele><time>2017-06-15T13:24:55Z</time></trkpt>
<trkpt lat="46.07642" lon="6.95243"><ele>1759.8</ele><time>2017-06-15T13:24:57Z</time></trkpt>
<trkpt lat="46.0764" lon="6.9524"><ele>1760</ele><time>2017-06-15T13:24:59Z</time></trkpt>
<trkpt lat="46.07638" lon="6.95238"><ele>1760.4</ele><time>2017-06-15T13:25:01Z</time></trkpt>
<trkpt lat="46.07636" lon="6.95235"><ele>1760.6</ele><time>2017-06-15T13:25:03Z</time></trkpt>
<trkpt lat="46.07634" lon="6.95233"><ele>1761</ele><time>2017-06-15T13:25:05Z</time></trkpt>
<trkpt lat="46.07633" lon="6.95231"><ele>1761</ele><time>2017-06-15T13:25:06Z</time></trkpt>
<trkpt lat="46.07632" lon="6.9523"><ele>1761.2</ele><time>2017-06-15T13:25:07Z</time></trkpt>
<trkpt lat="46.0763" lon="6.95228"><ele>1761.6</ele><time>2017-06-15T13:25:09Z</time></trkpt>
<trkpt lat="46.07628" lon="6.95225"><ele>1761.8</ele><time>2017-06-15T13:25:11Z</time></trkpt>
<trkpt lat="46.07626" lon="6.95223"><ele>1762.2</ele><time>2017-06-15T13:25:13Z</time></trkpt>
<trkpt lat="46.07624" lon="6.9522"><ele>1762.4</ele><time>2017-06-15T13:25:15Z</time></trkpt>
<trkpt lat="46.07622" lon="6.95218"><ele>1762.8</ele><time>2017-06-15T13:25:17Z</time></trkpt>
<trkpt lat="46.0762" lon="6.95215"><ele>1763</ele><time>2017-06-15T13:25:19Z</time></trkpt>
<trkpt lat="46.07618" lon="6.95213"><ele>1763.4</ele><time>2017-06-15T13:25:21Z</time></trkpt>
<trkpt lat="46.07616" lon="6.9521"><ele>1763.6</ele><time>2017-06-15T13:25:23Z</time></trkpt>
<trkpt lat="46.07614" lon="6.95208"><ele>1764</ele><time>2017-06-15T13:25:25Z</time></trkpt>
<trkpt lat="46.07612" lon="6.95205"><ele>1764.2</ele><time>2017-06-15T13:25:27Z</time></trkpt>
<trkpt lat="46.07611" lon="6.95204"><ele>1764.4</ele><time>2017-06-15T13:25:28Z</time></trkpt>
<trkpt lat="46.0761" lon="6.95203"><ele>1764.6</ele><time>2017-06-15T13:25:29Z</time></trkpt>
<trkpt lat="46.07608" lon="6.952"><ele>1764.8</ele><time>2017-06-15T13:25:31Z</time></trkpt>
<trkpt lat="46.07606" lon="6.95198"><ele>1765.2</ele><time>2017-06-15T13:25:33Z</time></trkpt>
<trkpt lat="46.07603" lon="6.95196"><ele>1765.4</ele><time>2017-06-15T13:25:35Z</time></trkpt>
<trkpt lat="46.07601" lon="6.95193"><ele>1765.8</ele><time>2017-06-15T13:25:37Z</time></trkpt>
<trkpt lat="46.07599" lon="6.95191"><ele>1766.2</ele><time>2017-06-15T13:25:39Z</time></trkpt>
<trkpt lat="46.07597" lon="6.95188"><ele>1766.4</ele><time>2017-06-15T13:25:41Z</time></trkpt>
<trkpt lat="46.07595" lon="6.95186"><ele>1766.8</ele><time>2017-06-15T13:25:43Z</time></trkpt>
<trkpt lat="46.07593" lon="6.95184"><ele>1767</ele><time>2017-06-15T13:25:45Z</time></trkpt>
<trkpt lat="46.07591" lon="6.95181"><ele>1767.4</ele><time>2017-06-15T13:25:47Z</time></trkpt>
<trkpt lat="46.07589" lon="6.95179"><ele>1767.6</ele><time>2017-06-15T13:25:49Z</time></trkpt>
<trkpt lat="46.07588" lon="6.95178"><ele>1767.8</ele><time>2017-06-15T13:25:50Z</time></trkpt>
<trkpt lat="46.07587" lon="6.95176"><ele>1768</ele><time>2017-06-15T13:25:51Z</time></trkpt>
<trkpt lat="46.07585" lon="6.95174"><ele>1768.2</ele><time>2017-06-15T13:25:53Z</time></trkpt>
<trkpt lat="46.07583" lon="6.95172"><ele>1768.6</ele><time>2017-06-15T13:25:55Z</time></trkpt>
<trkpt lat="46.07581" lon="6.95169"><ele>1768.8</ele><time>2017-06-15T13:25:57Z</time></trkpt>
<trkpt lat="46.07579" lon="6.95167"><ele>1769</ele><time>2017-06-15T13:25:59Z</time></trkpt>
<trkpt lat="46.07577" lon="6.95164"><ele>1769.4</ele><time>2017-06-15T13:26:01Z</time></trkpt>
<trkpt lat="46.07575" lon="6.95162"><ele>1769.6</ele><time>2017-06-15T13:26:03Z</time></trkpt>
<trkpt lat="46.07573" lon="6.9516"><ele>1770</ele><time>2017-06-15T13:26:05Z</time></trkpt>
<trkpt lat="46.07571" lon="6.95157"><ele>1770.2</ele><time>2017-06-15T13:26:07Z</time></trkpt>
<trkpt lat="46.0757" lon="6.95156"><ele>1770.4</ele><time>2017-06-15T13:26:08Z</time></trkpt>
<trkpt lat="46.07569" lon="6.95155"><ele>1770.6</ele><time>2017-06-15T13:26:09Z</time></trkpt>
<trkpt lat="46.07566" lon="6.95154"><ele>1770.8</ele><time>2017-06-15T13:26:11Z</time></trkpt>
<trkpt lat="46.07565" lon="6.95153"><ele>1771</ele><time>2017-06-15T13:26:12Z</time></trkpt>
<trkpt lat="46.07564" lon="6.95152"><ele>1771.2</ele><time>2017-06-15T13:26:13Z</time></trkpt>
<trkpt lat="46.07561" lon="6.9515"><ele>1771.4</ele><time>2017-06-15T13:26:15Z</time></trkpt>
<trkpt lat="46.07559" lon="6.95149"><ele>1771.8</ele><time>2017-06-15T13:26:17Z</time></trkpt>
<trkpt lat="46.07556" lon="6.95147"><ele>1772</ele><time>2017-06-15T13:26:19Z</time></trkpt>
<trkpt lat="46.07554" lon="6.95146"><ele>1772.4</ele><time>2017-06-15T13:26:21Z</time></trkpt>
<trkpt lat="46.07551" lon="6.95144"><ele>1772.6</ele><time>2017-06-15T13:26:23Z</time></trkpt>
<trkpt lat="46.07549" lon="6.95142"><ele>1773</ele><time>2017-06-15T13:26:25Z</time></trkpt>
<trkpt lat="46.07546" lon="6.95141"><ele>1773.2</ele><time>2017-06-15T13:26:27Z</time></trkpt>
<trkpt lat="46.07544" lon="6.95139"><ele>1773.6</ele><time>2017-06-15T13:26:29Z</time></trkpt>
<trkpt lat="46.07541" lon="6.95137"><ele>1773.8</ele><time>2017-06-15T13:26:31Z</time></trkpt>
<trkpt lat="46.07539" lon="6.95136"><ele>1774.2</ele><time>2017-06-15T13:26:33Z</time></trkpt>
<trkpt lat="46.07538" lon="6.95135"><ele>1774.2</ele><time>2017-06-15T13:26:34Z</time></trkpt>
<trkpt lat="46.07536" lon="6.95134"><ele>1774.4</ele><time>2017-06-15T13:26:35Z</time></trkpt>
<trkpt lat="46.07534" lon="6.95132"><ele>1774.6</ele><time>2017-06-15T13:26:37Z</time></trkpt>
<trkpt lat="46.07531" lon="6.95131"><ele>1774.8</ele><time>2017-06-15T13:26:39Z</time></trkpt>
<trkpt lat="46.07529" lon="6.95129"><ele>1775</ele><time>2017-06-15T13:26:41Z</time></trkpt>
<trkpt lat="46.07527" lon="6.95126"><ele>1775.4</ele><time>2017-06-15T13:26:43Z</time></trkpt>
<trkpt lat="46.07525" lon="6.95124"><ele>1775.6</ele><time>2017-06-15T13:26:45Z</time></trkpt>
<trkpt lat="46.07523" lon="6.95121"><ele>1775.8</ele><time>2017-06-15T13:26:47Z</time></trkpt>
<trkpt lat="46.07521" lon="6.95118"><ele>1776</ele><time>2017-06-15T13:26:49Z</time></trkpt>
<trkpt lat="46.0752" lon="6.95117"><ele>1776.2</ele><time>2017-06-15T13:26:50Z</time></trkpt>
<trkpt lat="46.07519" lon="6.95116"><ele>1776.2</ele><time>2017-06-15T13:26:51Z</time></trkpt>
<trkpt lat="46.07517" lon="6.95113"><ele>1776.6</ele><time>2017-06-15T13:26:53Z</time></trkpt>
<trkpt lat="46.07515" lon="6.9511"><ele>1776.8</ele><time>2017-06-15T13:26:55Z</time></trkpt>
<trkpt lat="46.07513" lon="6.95107"><ele>1777</ele><time>2017-06-15T13:26:57Z</time></trkpt>
<trkpt lat="46.07511" lon="6.95105"><ele>1777.4</ele><time>2017-06-15T13:26:59Z</time></trkpt>
<trkpt lat="46.07509" lon="6.95102"><ele>1777.6</ele><time>2017-06-15T13:27:01Z</time></trkpt>
<trkpt lat="46.07508" lon="6.95099"><ele>1777.8</ele><time>2017-06-15T13:27:03Z</time></trkpt>
<trkpt lat="46.07506" lon="6.95097"><ele>1778.2</ele><time>2017-06-15T13:27:05Z</time></trkpt>
<trkpt lat="46.07504" lon="6.95094"><ele>1778.4</ele><time>2017-06-15T13:27:07Z</time></trkpt>
<trkpt lat="46.07502" lon="6.95091"><ele>1778.6</ele><time>2017-06-15T13:27:09Z</time></trkpt>
<trkpt lat="46.075" lon="6.95089"><ele>1779</ele><time>2017-06-15T13:27:11Z</time></trkpt>
<trkpt lat="46.07498" lon="6.95086"><ele>1779.2</ele><time>2017-06-15T13:27:13Z</time></trkpt>
<trkpt lat="46.07496" lon="6.95083"><ele>1779.6</ele><time>2017-06-15T13:27:15Z</time></trkpt>
<trkpt lat="46.07494" lon="6.9508"><ele>1779.8</ele><time>2017-06-15T13:27:17Z</time></trkpt>
<trkpt lat="46.07492" lon="6.95078"><ele>1780</ele><time>2017-06-15T13:27:19Z</time></trkpt>
<trkpt lat="46.07491" lon="6.95075"><ele>1780.4</ele><time>2017-06-15T13:27:21Z</time></trkpt>
<trkpt lat="46.07489" lon="6.95072"><ele>1780.6</ele><time>2017-06-15T13:27:23Z</time></trkpt>
<trkpt lat="46.07487" lon="6.95069"><ele>1781</ele><time>2017-06-15T13:27:25Z</time></trkpt>
<trkpt lat="46.07486" lon="6.95066"><ele>1781.2</ele><time>2017-06-15T13:27:27Z</time></trkpt>
<trkpt lat="46.07484" lon="6.95063"><ele>1781.4</ele><time>2017-06-15T13:27:29Z</time></trkpt>
<trkpt lat="46.07482" lon="6.9506"><ele>1781.8</ele><time>2017-06-15T13:27:31Z</time></trkpt>
<trkpt lat="46.0748" lon="6.95058"><ele>1782</ele><time>2017-06-15T13:27:33Z</time></trkpt>
<trkpt lat="46.07479" lon="6.95055"><ele>1782.4</ele><time>2017-06-15T13:27:35Z</time></trkpt>
<trkpt lat="46.07477" lon="6.95052"><ele>1782.6</ele><time>2017-06-15T13:27:37Z</time></trkpt>
<trkpt lat="46.07475" lon="6.95049"><ele>1782.8</ele><time>2017-06-15T13:27:39Z</time></trkpt>
<trkpt lat="46.07473" lon="6.95046"><ele>1783</ele><time>2017-06-15T13:27:41Z</time></trkpt>
<trkpt lat="46.07472" lon="6.95043"><ele>1783.4</ele><time>2017-06-15T13:27:43Z</time></trkpt>
<trkpt lat="46.0747" lon="6.95041"><ele>1783.6</ele><time>2017-06-15T13:27:45Z</time></trkpt>
<trkpt lat="46.07468" lon="6.95038"><ele>1783.8</ele><time>2017-06-15T13:27:47Z</time></trkpt>
<trkpt lat="46.07466" lon="6.95035"><ele>1784</ele><time>2017-06-15T13:27:49Z</time></trkpt>
<trkpt lat="46.07466" lon="6.95033"><ele>1784.2</ele><time>2017-06-15T13:27:50Z</time></trkpt>
<trkpt lat="46.07465" lon="6.95032"><ele>1784.4</ele><time>2017-06-15T13:27:51Z</time></trkpt>
<trkpt lat="46.07464" lon="6.95028"><ele>1784.6</ele><time>2017-06-15T13:27:53Z</time></trkpt>
<trkpt lat="46.07463" lon="6.95024"><ele>1785</ele><time>2017-06-15T13:27:55Z</time></trkpt>
<trkpt lat="46.07462" lon="6.95021"><ele>1785.4</ele><time>2017-06-15T13:27:57Z</time></trkpt>
<trkpt lat="46.07461" lon="6.95017"><ele>1785.6</ele><time>2017-06-15T13:27:59Z</time></trkpt>
<trkpt lat="46.0746" lon="6.95014"><ele>1786</ele><time>2017-06-15T13:28:01Z</time></trkpt>
<trkpt lat="46.07459" lon="6.9501"><ele>1786.4</ele><time>2017-06-15T13:28:03Z</time></trkpt>
<trkpt lat="46.07458" lon="6.95007"><ele>1786.6</ele><time>2017-06-15T13:28:05Z</time></trkpt>
<trkpt lat="46.07457" lon="6.95003"><ele>1787</ele><time>2017-06-15T13:28:07Z</time></trkpt>
<trkpt lat="46.07456" lon="6.95001"><ele>1787</ele><time>2017-06-15T13:28:08Z</time></trkpt>
<trkpt lat="46.07456" lon="6.94999"><ele>1787.2</ele><time>2017-06-15T13:28:09Z</time></trkpt>
<trkpt lat="46.07455" lon="6.94996"><ele>1787.4</ele><time>2017-06-15T13:28:11Z</time></trkpt>
<trkpt lat="46.07454" lon="6.94992"><ele>1787.6</ele><time>2017-06-15T13:28:13Z</time></trkpt>
<trkpt lat="46.07453" lon="6.94989"><ele>1787.6</ele><time>2017-06-15T13:28:15Z</time></trkpt>
<trkpt lat="46.07451" lon="6.94985"><ele>1787.8</ele><time>2017-06-15T13:28:17Z</time></trkpt>
<trkpt lat="46.0745" lon="6.94982"><ele>1788</ele><time>2017-06-15T13:28:19Z</time></trkpt>
<trkpt lat="46.07449" lon="6.94978"><ele>1788.2</ele><time>2017-06-15T13:28:21Z</time></trkpt>
<trkpt lat="46.07448" lon="6.94974"><ele>1788.4</ele><time>2017-06-15T13:28:23Z</time></trkpt>
<trkpt lat="46.07448" lon="6.94973"><ele>1788.6</ele><time>2017-06-15T13:28:24Z</time></trkpt>
<trkpt lat="46.07447" lon="6.94971"><ele>1788.6</ele><time>2017-06-15T13:28:25Z</time></trkpt>
<trkpt lat="46.07445" lon="6.94968"><ele>1789</ele><time>2017-06-15T13:28:27Z</time></trkpt>
<trkpt lat="46.07443" lon="6.94965"><ele>1789.4</ele><time>2017-06-15T13:28:29Z</time></trkpt>
<trkpt lat="46.07442" lon="6.94962"><ele>1789.8</ele><time>2017-06-15T13:28:31Z</time></trkpt>
<trkpt lat="46.0744" lon="6.94959"><ele>1790</ele><time>2017-06-15T13:28:33Z</time></trkpt>
<trkpt lat="46.07438" lon="6.94956"><ele>1790.4</ele><time>2017-06-15T13:28:35Z</time></trkpt>
<trkpt lat="46.07436" lon="6.94953"><ele>1790.8</ele><time>2017-06-15T13:28:37Z</time></trkpt>
<trkpt lat="46.07435" lon="6.9495"><ele>1791</ele><time>2017-06-15T13:28:39Z</time></trkpt>
<trkpt lat="46.07433" lon="6.94947"><ele>1791.4</ele><time>2017-06-15T13:28:41Z</time></trkpt>
<trkpt lat="46.07431" lon="6.94944"><ele>1791.6</ele><time>2017-06-15T13:28:43Z</time></trkpt>
<trkpt lat="46.07429" lon="6.94941"><ele>1792</ele><time>2017-06-15T13:28:45Z</time></trkpt>
<trkpt lat="46.07428" lon="6.94938"><ele>1792.2</ele><time>2017-06-15T13:28:47Z</time></trkpt>
<trkpt lat="46.07426" lon="6.94935"><ele>1792.6</ele><time>2017-06-15T13:28:49Z</time></trkpt>
<trkpt lat="46.07424" lon="6.94932"><ele>1792.8</ele><time>2017-06-15T13:28:51Z</time></trkpt>
<trkpt lat="46.07422" lon="6.94929"><ele>1793</ele><time>2017-06-15T13:28:53Z</time></trkpt>
<trkpt lat="46.07421" lon="6.94926"><ele>1793.4</ele><time>2017-06-15T13:28:55Z</time></trkpt>
<trkpt lat="46.07419" lon="6.94923"><ele>1793.6</ele><time>2017-06-15T13:28:57Z</time></trkpt>
<trkpt lat="46.07416" lon="6.94923"><ele>1794</ele><time>2017-06-15T13:28:59Z</time></trkpt>
<trkpt lat="46.07414" lon="6.94922"><ele>1794.2</ele><time>2017-06-15T13:29:01Z</time></trkpt>
<trkpt lat="46.07412" lon="6.94921"><ele>1794.4</ele><time>2017-06-15T13:29:03Z</time></trkpt>
<trkpt lat="46.07411" lon="6.9492"><ele>1794.6</ele><time>2017-06-15T13:29:04Z</time></trkpt>
<trkpt lat="46.0741" lon="6.9492"><ele>1794.8</ele><time>2017-06-15T13:29:05Z</time></trkpt>
<trkpt lat="46.07408" lon="6.94919"><ele>1795.2</ele><time>2017-06-15T13:29:07Z</time></trkpt>
<trkpt lat="46.07405" lon="6.94918"><ele>1795.6</ele><time>2017-06-15T13:29:09Z</time></trkpt>
<trkpt lat="46.07403" lon="6.94918"><ele>1795.8</ele><time>2017-06-15T13:29:11Z</time></trkpt>
<trkpt lat="46.07382" lon="6.94889"><ele>1798.2</ele><time>2017-06-15T13:29:13Z</time></trkpt>
<trkpt lat="46.07382" lon="6.94889"><ele>1798.2</ele><time>2017-06-15T13:34:36Z</time></trkpt>
<trkpt lat="46.07363" lon="6.94861"><ele>1800.2</ele><time>2017-06-15T13:34:37Z</time></trkpt>
<trkpt lat="46.07362" lon="6.94861"><ele>1800.2</ele><time>2017-06-15T13:34:39Z</time></trkpt>
<trkpt lat="46.07362" lon="6.9486"><ele>1800.2</ele><time>2017-06-15T13:34:41Z</time></trkpt>
<trkpt lat="46.07362" lon="6.9486"><ele>1800.2</ele><time>2017-06-15T13:34:43Z</time></trkpt>
<trkpt lat="46.07362" lon="6.9486"><ele>1800.2</ele><time>2017-06-15T13:34:45Z</time></trkpt>
<trkpt lat="46.07362" lon="6.94859"><ele>1800.2</ele><time>2017-06-15T13:34:47Z</time></trkpt>
<trkpt lat="46.07362" lon="6.94859"><ele>1800.2</ele><time>2017-06-15T13:34:49Z</time></trkpt>
<trkpt lat="46.07361" lon="6.94859"><ele>1800.4</ele><time>2017-06-15T13:34:51Z</time></trkpt>
<trkpt lat="46.07361" lon="6.94858"><ele>1800.4</ele><time>2017-06-15T13:34:53Z</time></trkpt>
<trkpt lat="46.07361" lon="6.94858"><ele>1800.4</ele><time>2017-06-15T13:34:54Z</time></trkpt>
<trkpt lat="46.07361" lon="6.94858"><ele>1800.6</ele><time>2017-06-15T13:34:55Z</time></trkpt>
<trkpt lat="46.07361" lon="6.94858"><ele>1800.8</ele><time>2017-06-15T13:34:57Z</time></trkpt>
<trkpt lat="46.07361" lon="6.94857"><ele>1801</ele><time>2017-06-15T13:34:59Z</time></trkpt>
<trkpt lat="46.07361" lon="6.94857"><ele>1801.4</ele><time>2017-06-15T13:35:01Z</time></trkpt>
<trkpt lat="46.0736" lon="6.94856"><ele>1801.6</ele><time>2017-06-15T13:35:02Z</time></trkpt>
<trkpt lat="46.07359" lon="6.94855"><ele>1801.6</ele><time>2017-06-15T13:35:03Z</time></trkpt>
<trkpt lat="46.07358" lon="6.94852"><ele>1802</ele><time>2017-06-15T13:35:05Z</time></trkpt>
<trkpt lat="46.07356" lon="6.94849"><ele>1802.2</ele><time>2017-06-15T13:35:07Z</time></trkpt>
<trkpt lat="46.07354" lon="6.94846"><ele>1802.4</ele><time>2017-06-15T13:35:09Z</time></trkpt>
<trkpt lat="46.07353" lon="6.94842"><ele>1802.8</ele><time>2017-06-15T13:35:11Z</time></trkpt>
<trkpt lat="46.07351" lon="6.94839"><ele>1803</ele><time>2017-06-15T13:35:13Z</time></trkpt>
<trkpt lat="46.07349" lon="6.94836"><ele>1803.4</ele><time>2017-06-15T13:35:15Z</time></trkpt>
<trkpt lat="46.07347" lon="6.94833"><ele>1803.6</ele><time>2017-06-15T13:35:17Z</time></trkpt>
<trkpt lat="46.07346" lon="6.9483"><ele>1804</ele><time>2017-06-15T13:35:19Z</time></trkpt>
<trkpt lat="46.07344" lon="6.94827"><ele>1804.2</ele><time>2017-06-15T13:35:21Z</time></trkpt>
<trkpt lat="46.07342" lon="6.94824"><ele>1804.6</ele><time>2017-06-15T13:35:23Z</time></trkpt>
<trkpt lat="46.07341" lon="6.9482"><ele>1804.8</ele><time>2017-06-15T13:35:25Z</time></trkpt>
<trkpt lat="46.07339" lon="6.94817"><ele>1805.2</ele><time>2017-06-15T13:35:27Z</time></trkpt>
<trkpt lat="46.07337" lon="6.94814"><ele>1805.4</ele><time>2017-06-15T13:35:29Z</time></trkpt>
<trkpt lat="46.07336" lon="6.94813"><ele>1805.6</ele><time>2017-06-15T13:35:30Z</time></trkpt>
<trkpt lat="46.07334" lon="6.94808"><ele>1806</ele><time>2017-06-15T13:35:33Z</time></trkpt>
<trkpt lat="46.07332" lon="6.94805"><ele>1806.2</ele><time>2017-06-15T13:35:35Z</time></trkpt>
<trkpt lat="46.07331" lon="6.94801"><ele>1806.6</ele><time>2017-06-15T13:35:37Z</time></trkpt>
<trkpt lat="46.0733" lon="6.94798"><ele>1806.8</ele><time>2017-06-15T13:35:39Z</time></trkpt>
<trkpt lat="46.07329" lon="6.94796"><ele>1807</ele><time>2017-06-15T13:35:40Z</time></trkpt>
<trkpt lat="46.07329" lon="6.94794"><ele>1807.2</ele><time>2017-06-15T13:35:41Z</time></trkpt>
<trkpt lat="46.07327" lon="6.94791"><ele>1807.4</ele><time>2017-06-15T13:35:43Z</time></trkpt>
<trkpt lat="46.07326" lon="6.94787"><ele>1807.8</ele><time>2017-06-15T13:35:45Z</time></trkpt>
<trkpt lat="46.07326" lon="6.94785"><ele>1808</ele><time>2017-06-15T13:35:46Z</time></trkpt>
<trkpt lat="46.07324" lon="6.9478"><ele>1808.4</ele><time>2017-06-15T13:35:49Z</time></trkpt>
<trkpt lat="46.07323" lon="6.94776"><ele>1808.8</ele><time>2017-06-15T13:35:51Z</time></trkpt>
<trkpt lat="46.07322" lon="6.94773"><ele>1809</ele><time>2017-06-15T13:35:53Z</time></trkpt>
<trkpt lat="46.07321" lon="6.94771"><ele>1809.2</ele><time>2017-06-15T13:35:54Z</time></trkpt>
<trkpt lat="46.07319" lon="6.94766"><ele>1809.6</ele><time>2017-06-15T13:35:57Z</time></trkpt>
<trkpt lat="46.07318" lon="6.94762"><ele>1810</ele><time>2017-06-15T13:35:59Z</time></trkpt>
<trkpt lat="46.07317" lon="6.94759"><ele>1810.2</ele><time>2017-06-15T13:36:01Z</time></trkpt>
<trkpt lat="46.07317" lon="6.94757"><ele>1810.4</ele><time>2017-06-15T13:36:02Z</time></trkpt>
<trkpt lat="46.07316" lon="6.94755"><ele>1810.4</ele><time>2017-06-15T13:36:03Z</time></trkpt>
<trkpt lat="46.07315" lon="6.94752"><ele>1810.8</ele><time>2017-06-15T13:36:05Z</time></trkpt>
<trkpt lat="46.07314" lon="6.94748"><ele>1811</ele><time>2017-06-15T13:36:07Z</time></trkpt>
<trkpt lat="46.07313" lon="6.94745"><ele>1811.2</ele><time>2017-06-15T13:36:09Z</time></trkpt>
<trkpt lat="46.07311" lon="6.94741"><ele>1811.4</ele><time>2017-06-15T13:36:11Z</time></trkpt>
<trkpt lat="46.0731" lon="6.94738"><ele>1811.6</ele><time>2017-06-15T13:36:13Z</time></trkpt>
<trkpt lat="46.07309" lon="6.94734"><ele>1812</ele><time>2017-06-15T13:36:15Z</time></trkpt>
<trkpt lat="46.07308" lon="6.94731"><ele>1812.2</ele><time>2017-06-15T13:36:17Z</time></trkpt>
<trkpt lat="46.07307" lon="6.94729"><ele>1812.2</ele><time>2017-06-15T13:36:18Z</time></trkpt>
<trkpt lat="46.07306" lon="6.94723"><ele>1812.8</ele><time>2017-06-15T13:36:21Z</time></trkpt>
<trkpt lat="46.07304" lon="6.9472"><ele>1813</ele><time>2017-06-15T13:36:23Z</time></trkpt>
<trkpt lat="46.07304" lon="6.94718"><ele>1813.2</ele><time>2017-06-15T13:36:24Z</time></trkpt>
<trkpt lat="46.07303" lon="6.94716"><ele>1813.4</ele><time>2017-06-15T13:36:25Z</time></trkpt>
<trkpt lat="46.07303" lon="6.94715"><ele>1813.6</ele><time>2017-06-15T13:36:26Z</time></trkpt>
<trkpt lat="46.07301" lon="6.94709"><ele>1814</ele><time>2017-06-15T13:36:29Z</time></trkpt>
<trkpt lat="46.073" lon="6.94706"><ele>1814.4</ele><time>2017-06-15T13:36:31Z</time></trkpt>
<trkpt lat="46.07299" lon="6.94702"><ele>1814.6</ele><time>2017-06-15T13:36:33Z</time></trkpt>
<trkpt lat="46.07297" lon="6.94699"><ele>1815</ele><time>2017-06-15T13:36:35Z</time></trkpt>
<trkpt lat="46.07296" lon="6.94695"><ele>1815.4</ele><time>2017-06-15T13:36:37Z</time></trkpt>
<trkpt lat="46.07295" lon="6.94692"><ele>1815.6</ele><time>2017-06-15T13:36:39Z</time></trkpt>
<trkpt lat="46.07294" lon="6.94688"><ele>1816</ele><time>2017-06-15T13:36:41Z</time></trkpt>
<trkpt lat="46.07293" lon="6.94686"><ele>1816.2</ele><time>2017-06-15T13:36:42Z</time></trkpt>
<trkpt lat="46.07293" lon="6.94685"><ele>1816.2</ele><time>2017-06-15T13:36:43Z</time></trkpt>
<trkpt lat="46.07291" lon="6.94682"><ele>1816.6</ele><time>2017-06-15T13:36:45Z</time></trkpt>
<trkpt lat="46.0729" lon="6.94679"><ele>1817</ele><time>2017-06-15T13:36:47Z</time></trkpt>
<trkpt lat="46.07288" lon="6.94676"><ele>1817.2</ele><time>2017-06-15T13:36:49Z</time></trkpt>
<trkpt lat="46.07287" lon="6.94673"><ele>1817.4</ele><time>2017-06-15T13:36:51Z</time></trkpt>
<trkpt lat="46.07285" lon="6.9467"><ele>1817.8</ele><time>2017-06-15T13:36:53Z</time></trkpt>
<trkpt lat="46.07283" lon="6.94667"><ele>1818</ele><time>2017-06-15T13:36:55Z</time></trkpt>
<trkpt lat="46.07282" lon="6.94664"><ele>1818.4</ele><time>2017-06-15T13:36:57Z</time></trkpt>
<trkpt lat="46.0728" lon="6.94661"><ele>1818.6</ele><time>2017-06-15T13:36:59Z</time></trkpt>
<trkpt lat="46.07279" lon="6.94658"><ele>1818.8</ele><time>2017-06-15T13:37:01Z</time></trkpt>
<trkpt lat="46.07277" lon="6.94655"><ele>1819.2</ele><time>2017-06-15T13:37:03Z</time></trkpt>
<trkpt lat="46.07276" lon="6.94652"><ele>1819.4</ele><time>2017-06-15T13:37:05Z</time></trkpt>
<trkpt lat="46.07274" lon="6.94649"><ele>1819.8</ele><time>2017-06-15T13:37:07Z</time></trkpt>
<trkpt lat="46.07273" lon="6.94646"><ele>1820</ele><time>2017-06-15T13:37:09Z</time></trkpt>
<trkpt lat="46.07272" lon="6.94645"><ele>1820.2</ele><time>2017-06-15T13:37:10Z</time></trkpt>
<trkpt lat="46.07271" lon="6.94643"><ele>1820.4</ele><time>2017-06-15T13:37:11Z</time></trkpt>
<trkpt lat="46.07269" lon="6.9464"><ele>1820.6</ele><time>2017-06-15T13:37:13Z</time></trkpt>
<trkpt lat="46.07268" lon="6.94637"><ele>1821</ele><time>2017-06-15T13:37:15Z</time></trkpt>
<trkpt lat="46.07266" lon="6.94634"><ele>1821.2</ele><time>2017-06-15T13:37:17Z</time></trkpt>
<trkpt lat="46.07265" lon="6.94633"><ele>1821.4</ele><time>2017-06-15T13:37:18Z</time></trkpt>
<trkpt lat="46.07264" lon="6.94632"><ele>1821.6</ele><time>2017-06-15T13:37:19Z</time></trkpt>
<trkpt lat="46.07262" lon="6.94629"><ele>1821.8</ele><time>2017-06-15T13:37:21Z</time></trkpt>
<trkpt lat="46.0726" lon="6.94627"><ele>1822.2</ele><time>2017-06-15T13:37:23Z</time></trkpt>
<trkpt lat="46.07258" lon="6.94624"><ele>1822.4</ele><time>2017-06-15T13:37:25Z</time></trkpt>
<trkpt lat="46.07255" lon="6.94622"><ele>1822.8</ele><time>2017-06-15T13:37:27Z</time></trkpt>
<trkpt lat="46.07253" lon="6.94619"><ele>1823</ele><time>2017-06-15T13:37:29Z</time></trkpt>
<trkpt lat="46.07251" lon="6.94617"><ele>1823.4</ele><time>2017-06-15T13:37:31Z</time></trkpt>
<trkpt lat="46.07249" lon="6.94615"><ele>1823.6</ele><time>2017-06-15T13:37:33Z</time></trkpt>
<trkpt lat="46.07246" lon="6.94612"><ele>1824</ele><time>2017-06-15T13:37:35Z</time></trkpt>
<trkpt lat="46.07244" lon="6.9461"><ele>1824.2</ele><time>2017-06-15T13:37:37Z</time></trkpt>
<trkpt lat="46.07242" lon="6.94607"><ele>1824.6</ele><time>2017-06-15T13:37:39Z</time></trkpt>
<trkpt lat="46.0724" lon="6.94605"><ele>1824.8</ele><time>2017-06-15T13:37:41Z</time></trkpt>
<trkpt lat="46.07237" lon="6.94602"><ele>1825.2</ele><time>2017-06-15T13:37:43Z</time></trkpt>
<trkpt lat="46.07235" lon="6.946"><ele>1825.4</ele><time>2017-06-15T13:37:45Z</time></trkpt>
<trkpt lat="46.07233" lon="6.94597"><ele>1825.8</ele><time>2017-06-15T13:37:47Z</time></trkpt>
<trkpt lat="46.07231" lon="6.94595"><ele>1826</ele><time>2017-06-15T13:37:49Z</time></trkpt>
<trkpt lat="46.0723" lon="6.94594"><ele>1826.2</ele><time>2017-06-15T13:37:50Z</time></trkpt>
<trkpt lat="46.07228" lon="6.94593"><ele>1826.4</ele><time>2017-06-15T13:37:51Z</time></trkpt>
<trkpt lat="46.07226" lon="6.9459"><ele>1826.6</ele><time>2017-06-15T13:37:53Z</time></trkpt>
<trkpt lat="46.07224" lon="6.94588"><ele>1827</ele><time>2017-06-15T13:37:55Z</time></trkpt>
<trkpt lat="46.07222" lon="6.94586"><ele>1827.2</ele><time>2017-06-15T13:37:57Z</time></trkpt>
<trkpt lat="46.07219" lon="6.94584"><ele>1827.6</ele><time>2017-06-15T13:37:59Z</time></trkpt>
<trkpt lat="46.07217" lon="6.94582"><ele>1828</ele><time>2017-06-15T13:38:01Z</time></trkpt>
<trkpt lat="46.07215" lon="6.9458"><ele>1828.2</ele><time>2017-06-15T13:38:03Z</time></trkpt>
<trkpt lat="46.07212" lon="6.94578"><ele>1828.6</ele><time>2017-06-15T13:38:05Z</time></trkpt>
<trkpt lat="46.07211" lon="6.94577"><ele>1828.6</ele><time>2017-06-15T13:38:06Z</time></trkpt>
<trkpt lat="46.07208" lon="6.94573"><ele>1829.2</ele><time>2017-06-15T13:38:09Z</time></trkpt>
<trkpt lat="46.07206" lon="6.94571"><ele>1829.4</ele><time>2017-06-15T13:38:11Z</time></trkpt>
<trkpt lat="46.07203" lon="6.94569"><ele>1829.8</ele><time>2017-06-15T13:38:13Z</time></trkpt>
<trkpt lat="46.07201" lon="6.94567"><ele>1830.2</ele><time>2017-06-15T13:38:15Z</time></trkpt>
<trkpt lat="46.072" lon="6.94566"><ele>1830.2</ele><time>2017-06-15T13:38:16Z</time></trkpt>
<trkpt lat="46.07199" lon="6.94565"><ele>1830.4</ele><time>2017-06-15T13:38:17Z</time></trkpt>
<trkpt lat="46.07196" lon="6.94563"><ele>1830.6</ele><time>2017-06-15T13:38:19Z</time></trkpt>
<trkpt lat="46.07195" lon="6.94561"><ele>1830.8</ele><time>2017-06-15T13:38:20Z</time></trkpt>
<trkpt lat="46.07192" lon="6.94558"><ele>1831</ele><time>2017-06-15T13:38:23Z</time></trkpt>
<trkpt lat="46.0719" lon="6.94555"><ele>1831.4</ele><time>2017-06-15T13:38:25Z</time></trkpt>
<trkpt lat="46.07189" lon="6.94552"><ele>1831.6</ele><time>2017-06-15T13:38:27Z</time></trkpt>
<trkpt lat="46.07187" lon="6.94548"><ele>1831.8</ele><time>2017-06-15T13:38:29Z</time></trkpt>
<trkpt lat="46.07186" lon="6.94545"><ele>1832</ele><time>2017-06-15T13:38:31Z</time></trkpt>
<trkpt lat="46.07184" lon="6.94542"><ele>1832.2</ele><time>2017-06-15T13:38:33Z</time></trkpt>
<trkpt lat="46.07182" lon="6.94539"><ele>1832.6</ele><time>2017-06-15T13:38:35Z</time></trkpt>
<trkpt lat="46.07181" lon="6.94535"><ele>1832.8</ele><time>2017-06-15T13:38:37Z</time></trkpt>
<trkpt lat="46.0718" lon="6.94534"><ele>1832.8</ele><time>2017-06-15T13:38:38Z</time></trkpt>
<trkpt lat="46.07177" lon="6.94529"><ele>1833.4</ele><time>2017-06-15T13:38:41Z</time></trkpt>
<trkpt lat="46.07176" lon="6.94526"><ele>1833.6</ele><time>2017-06-15T13:38:43Z</time></trkpt>
<trkpt lat="46.07174" lon="6.94523"><ele>1834</ele><time>2017-06-15T13:38:45Z</time></trkpt>
<trkpt lat="46.07173" lon="6.94519"><ele>1834.2</ele><time>2017-06-15T13:38:47Z</time></trkpt>
<trkpt lat="46.07171" lon="6.94516"><ele>1834.6</ele><time>2017-06-15T13:38:49Z</time></trkpt>
<trkpt lat="46.07169" lon="6.94513"><ele>1835</ele><time>2017-06-15T13:38:51Z</time></trkpt>
<trkpt lat="46.07168" lon="6.9451"><ele>1835.2</ele><time>2017-06-15T13:38:53Z</time></trkpt>
<trkpt lat="46.07167" lon="6.94508"><ele>1835.4</ele><time>2017-06-15T13:38:54Z</time></trkpt>
<trkpt lat="46.07166" lon="6.94506"><ele>1835.4</ele><time>2017-06-15T13:38:55Z</time></trkpt>
<trkpt lat="46.07166" lon="6.94505"><ele>1835.6</ele><time>2017-06-15T13:38:56Z</time></trkpt>
<trkpt lat="46.07165" lon="6.94503"><ele>1835.8</ele><time>2017-06-15T13:38:57Z</time></trkpt>
<trkpt lat="46.07164" lon="6.945"><ele>1836</ele><time>2017-06-15T13:38:59Z</time></trkpt>
<trkpt lat="46.07163" lon="6.94496"><ele>1836.2</ele><time>2017-06-15T13:39:01Z</time></trkpt>
<trkpt lat="46.07162" lon="6.94495"><ele>1836.4</ele><time>2017-06-15T13:39:02Z</time></trkpt>
<trkpt lat="46.07161" lon="6.94489"><ele>1836.8</ele><time>2017-06-15T13:39:05Z</time></trkpt>
<trkpt lat="46.0716" lon="6.94486"><ele>1837</ele><time>2017-06-15T13:39:07Z</time></trkpt>
<trkpt lat="46.07159" lon="6.94483"><ele>1837.2</ele><time>2017-06-15T13:39:09Z</time></trkpt>
<trkpt lat="46.07158" lon="6.94481"><ele>1837.4</ele><time>2017-06-15T13:39:10Z</time></trkpt>
<trkpt lat="46.07157" lon="6.94476"><ele>1837.8</ele><time>2017-06-15T13:39:13Z</time></trkpt>
<trkpt lat="46.07156" lon="6.94472"><ele>1838</ele><time>2017-06-15T13:39:15Z</time></trkpt>
<trkpt lat="46.07155" lon="6.94469"><ele>1838.2</ele><time>2017-06-15T13:39:17Z</time></trkpt>
<trkpt lat="46.07154" lon="6.94466"><ele>1838.6</ele><time>2017-06-15T13:39:19Z</time></trkpt>
<trkpt lat="46.07153" lon="6.94462"><ele>1838.8</ele><time>2017-06-15T13:39:21Z</time></trkpt>
<trkpt lat="46.07152" lon="6.94461"><ele>1839</ele><time>2017-06-15T13:39:22Z</time></trkpt>
<trkpt lat="46.07152" lon="6.94459"><ele>1839</ele><time>2017-06-15T13:39:23Z</time></trkpt>
<trkpt lat="46.07151" lon="6.94455"><ele>1839.4</ele><time>2017-06-15T13:39:25Z</time></trkpt>
<trkpt lat="46.0715" lon="6.94452"><ele>1839.6</ele><time>2017-06-15T13:39:27Z</time></trkpt>
<trkpt lat="46.07149" lon="6.94449"><ele>1839.8</ele><time>2017-06-15T13:39:29Z</time></trkpt>
<trkpt lat="46.07148" lon="6.94445"><ele>1840</ele><time>2017-06-15T13:39:31Z</time></trkpt>
<trkpt lat="46.07146" lon="6.94442"><ele>1840.4</ele><time>2017-06-15T13:39:33Z</time></trkpt>
<trkpt lat="46.07145" lon="6.94441"><ele>1840.4</ele><time>2017-06-15T13:39:34Z</time></trkpt>
<trkpt lat="46.07144" lon="6.94439"><ele>1840.6</ele><time>2017-06-15T13:39:35Z</time></trkpt>
<trkpt lat="46.07143" lon="6.94436"><ele>1840.8</ele><time>2017-06-15T13:39:37Z</time></trkpt>
<trkpt lat="46.07141" lon="6.94433"><ele>1841</ele><time>2017-06-15T13:39:39Z</time></trkpt>
<trkpt lat="46.07139" lon="6.9443"><ele>1841.4</ele><time>2017-06-15T13:39:41Z</time></trkpt>
<trkpt lat="46.07138" lon="6.94426"><ele>1841.8</ele><time>2017-06-15T13:39:43Z</time></trkpt>
<trkpt lat="46.07136" lon="6.94423"><ele>1842</ele><time>2017-06-15T13:39:45Z</time></trkpt>
<trkpt lat="46.07134" lon="6.9442"><ele>1842.4</ele><time>2017-06-15T13:39:47Z</time></trkpt>
<trkpt lat="46.07133" lon="6.94417"><ele>1842.6</ele><time>2017-06-15T13:39:49Z</time></trkpt>
<trkpt lat="46.07132" lon="6.94415"><ele>1842.8</ele><time>2017-06-15T13:39:50Z</time></trkpt>
<trkpt lat="46.07129" lon="6.94411"><ele>1843.4</ele><time>2017-06-15T13:39:53Z</time></trkpt>
<trkpt lat="46.07128" lon="6.94407"><ele>1843.6</ele><time>2017-06-15T13:39:55Z</time></trkpt>
<trkpt lat="46.07126" lon="6.94404"><ele>1844</ele><time>2017-06-15T13:39:57Z</time></trkpt>
<trkpt lat="46.07125" lon="6.94403"><ele>1844</ele><time>2017-06-15T13:39:58Z</time></trkpt>
<trkpt lat="46.07123" lon="6.94398"><ele>1844.6</ele><time>2017-06-15T13:40:01Z</time></trkpt>
<trkpt lat="46.07121" lon="6.94395"><ele>1844.8</ele><time>2017-06-15T13:40:03Z</time></trkpt>
<trkpt lat="46.0712" lon="6.94393"><ele>1845</ele><time>2017-06-15T13:40:04Z</time></trkpt>
<trkpt lat="46.0712" lon="6.94391"><ele>1845.2</ele><time>2017-06-15T13:40:05Z</time></trkpt>
<trkpt lat="46.07118" lon="6.94388"><ele>1845.4</ele><time>2017-06-15T13:40:07Z</time></trkpt>
<trkpt lat="46.07117" lon="6.94386"><ele>1845.6</ele><time>2017-06-15T13:40:08Z</time></trkpt>
<trkpt lat="46.07117" lon="6.94385"><ele>1845.8</ele><time>2017-06-15T13:40:09Z</time></trkpt>
<trkpt lat="46.07115" lon="6.94381"><ele>1846</ele><time>2017-06-15T13:40:11Z</time></trkpt>
<trkpt lat="46.07114" lon="6.94378"><ele>1846.2</ele><time>2017-06-15T13:40:13Z</time></trkpt>
<trkpt lat="46.07113" lon="6.94375"><ele>1846.6</ele><time>2017-06-15T13:40:15Z</time></trkpt>
<trkpt lat="46.07111" lon="6.94371"><ele>1846.8</ele><time>2017-06-15T13:40:17Z</time></trkpt>
<trkpt lat="46.0711" lon="6.94368"><ele>1847.2</ele><time>2017-06-15T13:40:19Z</time></trkpt>
<trkpt lat="46.07108" lon="6.94365"><ele>1847.4</ele><time>2017-06-15T13:40:21Z</time></trkpt>
<trkpt lat="46.07107" lon="6.94361"><ele>1847.8</ele><time>2017-06-15T13:40:23Z</time></trkpt>
<trkpt lat="46.07106" lon="6.94358"><ele>1848</ele><time>2017-06-15T13:40:25Z</time></trkpt>
<trkpt lat="46.07104" lon="6.94355"><ele>1848.2</ele><time>2017-06-15T13:40:27Z</time></trkpt>
<trkpt lat="46.07103" lon="6.94351"><ele>1848.6</ele><time>2017-06-15T13:40:29Z</time></trkpt>
<trkpt lat="46.07102" lon="6.9435"><ele>1848.6</ele><time>2017-06-15T13:40:30Z</time></trkpt>
<trkpt lat="46.07101" lon="6.94348"><ele>1848.8</ele><time>2017-06-15T13:40:31Z</time></trkpt>
<trkpt lat="46.071" lon="6.94345"><ele>1849.2</ele><time>2017-06-15T13:40:33Z</time></trkpt>
<trkpt lat="46.07099" lon="6.94341"><ele>1849.4</ele><time>2017-06-15T13:40:35Z</time></trkpt>
<trkpt lat="46.07097" lon="6.94338"><ele>1849.8</ele><time>2017-06-15T13:40:37Z</time></trkpt>
<trkpt lat="46.07097" lon="6.94336"><ele>1849.8</ele><time>2017-06-15T13:40:38Z</time></trkpt>
<trkpt lat="46.07096" lon="6.94335"><ele>1850</ele><time>2017-06-15T13:40:39Z</time></trkpt>
<trkpt lat="46.07094" lon="6.94333"><ele>1850.4</ele><time>2017-06-15T13:40:41Z</time></trkpt>
<trkpt lat="46.07092" lon="6.9433"><ele>1850.6</ele><time>2017-06-15T13:40:43Z</time></trkpt>
<trkpt lat="46.0709" lon="6.94328"><ele>1850.8</ele><time>2017-06-15T13:40:45Z</time></trkpt>
<trkpt lat="46.07088" lon="6.94325"><ele>1851.2</ele><time>2017-06-15T13:40:47Z</time></trkpt>
<trkpt lat="46.07086" lon="6.94323"><ele>1851.4</ele><time>2017-06-15T13:40:49Z</time></trkpt>
<trkpt lat="46.07084" lon="6.9432"><ele>1851.8</ele><time>2017-06-15T13:40:51Z</time></trkpt>
<trkpt lat="46.07082" lon="6.94318"><ele>1852</ele><time>2017-06-15T13:40:53Z</time></trkpt>
<trkpt lat="46.0708" lon="6.94315"><ele>1852.4</ele><time>2017-06-15T13:40:55Z</time></trkpt>
<trkpt lat="46.07078" lon="6.94313"><ele>1852.6</ele><time>2017-06-15T13:40:57Z</time></trkpt>
<trkpt lat="46.07076" lon="6.9431"><ele>1853</ele><time>2017-06-15T13:40:59Z</time></trkpt>
<trkpt lat="46.07074" lon="6.94308"><ele>1853.2</ele><time>2017-06-15T13:41:01Z</time></trkpt>
<trkpt lat="46.07073" lon="6.94305"><ele>1853.6</ele><time>2017-06-15T13:41:03Z</time></trkpt>
<trkpt lat="46.07071" lon="6.94303"><ele>1853.8</ele><time>2017-06-15T13:41:05Z</time></trkpt>
<trkpt lat="46.07069" lon="6.943"><ele>1854.2</ele><time>2017-06-15T13:41:07Z</time></trkpt>
<trkpt lat="46.07067" lon="6.94298"><ele>1854.4</ele><time>2017-06-15T13:41:09Z</time></trkpt>
<trkpt lat="46.07065" lon="6.94295"><ele>1854.8</ele><time>2017-06-15T13:41:11Z</time></trkpt>
<trkpt lat="46.07064" lon="6.94294"><ele>1854.8</ele><time>2017-06-15T13:41:12Z</time></trkpt>
<trkpt lat="46.07063" lon="6.94292"><ele>1855</ele><time>2017-06-15T13:41:13Z</time></trkpt>
<trkpt lat="46.07062" lon="6.94289"><ele>1855.2</ele><time>2017-06-15T13:41:15Z</time></trkpt>
<trkpt lat="46.0706" lon="6.94287"><ele>1855.6</ele><time>2017-06-15T13:41:17Z</time></trkpt>
<trkpt lat="46.07059" lon="6.94284"><ele>1855.8</ele><time>2017-06-15T13:41:19Z</time></trkpt>
<trkpt lat="46.07057" lon="6.94281"><ele>1856.2</ele><time>2017-06-15T13:41:21Z</time></trkpt>
<trkpt lat="46.07056" lon="6.94278"><ele>1856.4</ele><time>2017-06-15T13:41:23Z</time></trkpt>
<trkpt lat="46.07055" lon="6.94275"><ele>1856.6</ele><time>2017-06-15T13:41:25Z</time></trkpt>
<trkpt lat="46.07053" lon="6.94272"><ele>1857</ele><time>2017-06-15T13:41:27Z</time></trkpt>
<trkpt lat="46.07052" lon="6.94269"><ele>1857.2</ele><time>2017-06-15T13:41:29Z</time></trkpt>
<trkpt lat="46.07051" lon="6.94266"><ele>1857.4</ele><time>2017-06-15T13:41:31Z</time></trkpt>
<trkpt lat="46.07049" lon="6.94263"><ele>1857.8</ele><time>2017-06-15T13:41:33Z</time></trkpt>
<trkpt lat="46.07048" lon="6.9426"><ele>1858</ele><time>2017-06-15T13:41:35Z</time></trkpt>
<trkpt lat="46.07047" lon="6.94259"><ele>1858.2</ele><time>2017-06-15T13:41:36Z</time></trkpt>
<trkpt lat="46.07045" lon="6.94254"><ele>1858.6</ele><time>2017-06-15T13:41:39Z</time></trkpt>
<trkpt lat="46.07044" lon="6.94251"><ele>1858.8</ele><time>2017-06-15T13:41:41Z</time></trkpt>
<trkpt lat="46.07042" lon="6.94248"><ele>1859.2</ele><time>2017-06-15T13:41:43Z</time></trkpt>
<trkpt lat="46.07041" lon="6.94245"><ele>1859.4</ele><time>2017-06-15T13:41:45Z</time></trkpt>
<trkpt lat="46.07039" lon="6.94242"><ele>1859.6</ele><time>2017-06-15T13:41:47Z</time></trkpt>
<trkpt lat="46.07038" lon="6.94239"><ele>1860</ele><time>2017-06-15T13:41:49Z</time></trkpt>
<trkpt lat="46.07037" lon="6.94238"><ele>1860.2</ele><time>2017-06-15T13:41:50Z</time></trkpt>
<trkpt lat="46.07037" lon="6.94236"><ele>1860.2</ele><time>2017-06-15T13:41:51Z</time></trkpt>
<trkpt lat="46.07035" lon="6.94233"><ele>1860.6</ele><time>2017-06-15T13:41:53Z</time></trkpt>
<trkpt lat="46.07034" lon="6.9423"><ele>1860.8</ele><time>2017-06-15T13:41:55Z</time></trkpt>
<trkpt lat="46.07032" lon="6.94227"><ele>1861.2</ele><time>2017-06-15T13:41:57Z</time></trkpt>
<trkpt lat="46.07031" lon="6.94223"><ele>1861.4</ele><time>2017-06-15T13:41:59Z</time></trkpt>
<trkpt lat="46.07029" lon="6.9422"><ele>1861.8</ele><time>2017-06-15T13:42:01Z</time></trkpt>
<trkpt lat="46.07028" lon="6.94217"><ele>1862</ele><time>2017-06-15T13:42:03Z</time></trkpt>
<trkpt lat="46.07026" lon="6.94214"><ele>1862.4</ele><time>2017-06-15T13:42:05Z</time></trkpt>
<trkpt lat="46.07025" lon="6.94212"><ele>1862.4</ele><time>2017-06-15T13:42:06Z</time></trkpt>
<trkpt lat="46.07025" lon="6.94211"><ele>1862.6</ele><time>2017-06-15T13:42:07Z</time></trkpt>
<trkpt lat="46.07023" lon="6.94207"><ele>1863</ele><time>2017-06-15T13:42:09Z</time></trkpt>
<trkpt lat="46.07022" lon="6.94204"><ele>1863.2</ele><time>2017-06-15T13:42:11Z</time></trkpt>
<trkpt lat="46.0702" lon="6.94201"><ele>1863.6</ele><time>2017-06-15T13:42:13Z</time></trkpt>
<trkpt lat="46.07019" lon="6.94199"><ele>1863.8</ele><time>2017-06-15T13:42:14Z</time></trkpt>
<trkpt lat="46.07017" lon="6.94195"><ele>1864.2</ele><time>2017-06-15T13:42:17Z</time></trkpt>
<trkpt lat="46.07016" lon="6.94191"><ele>1864.4</ele><time>2017-06-15T13:42:19Z</time></trkpt>
<trkpt lat="46.07014" lon="6.94188"><ele>1864.8</ele><time>2017-06-15T13:42:21Z</time></trkpt>
<trkpt lat="46.07013" lon="6.94185"><ele>1865</ele><time>2017-06-15T13:42:23Z</time></trkpt>
<trkpt lat="46.07012" lon="6.94183"><ele>1865.2</ele><time>2017-06-15T13:42:24Z</time></trkpt>
<trkpt lat="46.07011" lon="6.94182"><ele>1865.4</ele><time>2017-06-15T13:42:25Z</time></trkpt>
<trkpt lat="46.0701" lon="6.94179"><ele>1865.8</ele><time>2017-06-15T13:42:27Z</time></trkpt>
<trkpt lat="46.0701" lon="6.94177"><ele>1865.8</ele><time>2017-06-15T13:42:28Z</time></trkpt>
<trkpt lat="46.07009" lon="6.94175"><ele>1866</ele><time>2017-06-15T13:42:29Z</time></trkpt>
<trkpt lat="46.07008" lon="6.94172"><ele>1866.4</ele><time>2017-06-15T13:42:31Z</time></trkpt>
<trkpt lat="46.07007" lon="6.94169"><ele>1866.6</ele><time>2017-06-15T13:42:33Z</time></trkpt>
<trkpt lat="46.07006" lon="6.94166"><ele>1866.8</ele><time>2017-06-15T13:42:35Z</time></trkpt>
<trkpt lat="46.07005" lon="6.94162"><ele>1867.2</ele><time>2017-06-15T13:42:37Z</time></trkpt>
<trkpt lat="46.07004" lon="6.94159"><ele>1867.4</ele><time>2017-06-15T13:42:39Z</time></trkpt>
<trkpt lat="46.07002" lon="6.94156"><ele>1867.8</ele><time>2017-06-15T13:42:41Z</time></trkpt>
<trkpt lat="46.07001" lon="6.94153"><ele>1868</ele><time>2017-06-15T13:42:43Z</time></trkpt>
<trkpt lat="46.07001" lon="6.94151"><ele>1868.2</ele><time>2017-06-15T13:42:44Z</time></trkpt>
<trkpt lat="46.07" lon="6.94148"><ele>1868.6</ele><time>2017-06-15T13:42:46Z</time></trkpt>
<trkpt lat="46.06998" lon="6.94143"><ele>1869</ele><time>2017-06-15T13:42:49Z</time></trkpt>
<trkpt lat="46.06997" lon="6.9414"><ele>1869.2</ele><time>2017-06-15T13:42:51Z</time></trkpt>
<trkpt lat="46.06996" lon="6.94137"><ele>1869.4</ele><time>2017-06-15T13:42:53Z</time></trkpt>
<trkpt lat="46.06995" lon="6.94134"><ele>1869.8</ele><time>2017-06-15T13:42:55Z</time></trkpt>
<trkpt lat="46.06994" lon="6.9413"><ele>1870</ele><time>2017-06-15T13:42:57Z</time></trkpt>
<trkpt lat="46.06992" lon="6.94127"><ele>1870.2</ele><time>2017-06-15T13:42:59Z</time></trkpt>
<trkpt lat="46.06991" lon="6.94124"><ele>1870.4</ele><time>2017-06-15T13:43:01Z</time></trkpt>
<trkpt lat="46.0699" lon="6.94121"><ele>1870.8</ele><time>2017-06-15T13:43:03Z</time></trkpt>
<trkpt lat="46.06988" lon="6.94118"><ele>1871</ele><time>2017-06-15T13:43:05Z</time></trkpt>
<trkpt lat="46.06987" lon="6.94114"><ele>1871.2</ele><time>2017-06-15T13:43:07Z</time></trkpt>
<trkpt lat="46.06986" lon="6.94113"><ele>1871.4</ele><time>2017-06-15T13:43:08Z</time></trkpt>
<trkpt lat="46.06984" lon="6.94108"><ele>1871.8</ele><time>2017-06-15T13:43:11Z</time></trkpt>
<trkpt lat="46.06982" lon="6.94105"><ele>1872</ele><time>2017-06-15T13:43:13Z</time></trkpt>
<trkpt lat="46.06981" lon="6.94102"><ele>1872.2</ele><time>2017-06-15T13:43:15Z</time></trkpt>
<trkpt lat="46.06979" lon="6.94098"><ele>1872.6</ele><time>2017-06-15T13:43:17Z</time></trkpt>
<trkpt lat="46.06979" lon="6.94097"><ele>1872.6</ele><time>2017-06-15T13:43:18Z</time></trkpt>
<trkpt lat="46.06978" lon="6.94095"><ele>1872.8</ele><time>2017-06-15T13:43:19Z</time></trkpt>
<trkpt lat="46.06976" lon="6.94092"><ele>1873</ele><time>2017-06-15T13:43:21Z</time></trkpt>
<trkpt lat="46.06975" lon="6.94089"><ele>1873.2</ele><time>2017-06-15T13:43:23Z</time></trkpt>
<trkpt lat="46.06974" lon="6.94087"><ele>1873.2</ele><time>2017-06-15T13:43:24Z</time></trkpt>
<trkpt lat="46.06974" lon="6.94086"><ele>1873.4</ele><time>2017-06-15T13:43:25Z</time></trkpt>
<trkpt lat="46.06972" lon="6.94083"><ele>1873.6</ele><time>2017-06-15T13:43:27Z</time></trkpt>
<trkpt lat="46.06971" lon="6.94079"><ele>1873.8</ele><time>2017-06-15T13:43:29Z</time></trkpt>
<trkpt lat="46.06969" lon="6.94076"><ele>1874.2</ele><time>2017-06-15T13:43:31Z</time></trkpt>
<trkpt lat="46.06968" lon="6.94075"><ele>1874.2</ele><time>2017-06-15T13:43:32Z</time></trkpt>
<trkpt lat="46.06966" lon="6.9407"><ele>1874.6</ele><time>2017-06-15T13:43:35Z</time></trkpt>
<trkpt lat="46.06966" lon="6.94068"><ele>1874.8</ele><time>2017-06-15T13:43:36Z</time></trkpt>
<trkpt lat="46.06964" lon="6.94063"><ele>1875.2</ele><time>2017-06-15T13:43:39Z</time></trkpt>
<trkpt lat="46.06963" lon="6.94062"><ele>1875.4</ele><time>2017-06-15T13:43:40Z</time></trkpt>
<trkpt lat="46.06963" lon="6.9406"><ele>1875.4</ele><time>2017-06-15T13:43:41Z</time></trkpt>
<trkpt lat="46.06962" lon="6.94057"><ele>1875.8</ele><time>2017-06-15T13:43:43Z</time></trkpt>
<trkpt lat="46.06961" lon="6.94053"><ele>1876</ele><time>2017-06-15T13:43:45Z</time></trkpt>
<trkpt lat="46.0696" lon="6.9405"><ele>1876.2</ele><time>2017-06-15T13:43:47Z</time></trkpt>
<trkpt lat="46.06958" lon="6.94047"><ele>1876.4</ele><time>2017-06-15T13:43:49Z</time></trkpt>
<trkpt lat="46.06957" lon="6.94043"><ele>1876.6</ele><time>2017-06-15T13:43:51Z</time></trkpt>
<trkpt lat="46.06957" lon="6.94042"><ele>1876.8</ele><time>2017-06-15T13:43:52Z</time></trkpt>
<trkpt lat="46.06956" lon="6.9404"><ele>1877</ele><time>2017-06-15T13:43:53Z</time></trkpt>
<trkpt lat="46.06955" lon="6.94037"><ele>1877.2</ele><time>2017-06-15T13:43:55Z</time></trkpt>
<trkpt lat="46.06954" lon="6.94033"><ele>1877.4</ele><time>2017-06-15T13:43:57Z</time></trkpt>
<trkpt lat="46.06953" lon="6.9403"><ele>1877.8</ele><time>2017-06-15T13:43:59Z</time></trkpt>
<trkpt lat="46.06952" lon="6.94027"><ele>1878</ele><time>2017-06-15T13:44:01Z</time></trkpt>
<trkpt lat="46.06951" lon="6.94023"><ele>1878.2</ele><time>2017-06-15T13:44:03Z</time></trkpt>
<trkpt lat="46.0695" lon="6.94022"><ele>1878.4</ele><time>2017-06-15T13:44:04Z</time></trkpt>
<trkpt lat="46.06948" lon="6.94017"><ele>1878.8</ele><time>2017-06-15T13:44:07Z</time></trkpt>
<trkpt lat="46.06948" lon="6.94015"><ele>1878.8</ele><time>2017-06-15T13:44:08Z</time></trkpt>
<trkpt lat="46.06947" lon="6.94013"><ele>1879</ele><time>2017-06-15T13:44:09Z</time></trkpt>
<trkpt lat="46.06946" lon="6.9401"><ele>1879.4</ele><time>2017-06-15T13:44:11Z</time></trkpt>
<trkpt lat="46.06946" lon="6.94006"><ele>1879.6</ele><time>2017-06-15T13:44:13Z</time></trkpt>
<trkpt lat="46.06945" lon="6.94003"><ele>1880</ele><time>2017-06-15T13:44:15Z</time></trkpt>
<trkpt lat="46.06945" lon="6.94001"><ele>1880.2</ele><time>2017-06-15T13:44:16Z</time></trkpt>
<trkpt lat="46.06943" lon="6.93996"><ele>1880.6</ele><time>2017-06-15T13:44:19Z</time></trkpt>
<trkpt lat="46.06943" lon="6.93992"><ele>1880.8</ele><time>2017-06-15T13:44:21Z</time></trkpt>
<trkpt lat="46.06942" lon="6.93989"><ele>1881.2</ele><time>2017-06-15T13:44:23Z</time></trkpt>
<trkpt lat="46.06941" lon="6.93985"><ele>1881.6</ele><time>2017-06-15T13:44:25Z</time></trkpt>
<trkpt lat="46.0694" lon="6.93982"><ele>1881.8</ele><time>2017-06-15T13:44:27Z</time></trkpt>
<trkpt lat="46.0694" lon="6.9398"><ele>1882</ele><time>2017-06-15T13:44:28Z</time></trkpt>
<trkpt lat="46.06939" lon="6.93975"><ele>1882.4</ele><time>2017-06-15T13:44:31Z</time></trkpt>
<trkpt lat="46.06938" lon="6.93971"><ele>1882.6</ele><time>2017-06-15T13:44:33Z</time></trkpt>
<trkpt lat="46.06937" lon="6.93968"><ele>1882.8</ele><time>2017-06-15T13:44:35Z</time></trkpt>
<trkpt lat="46.06937" lon="6.93964"><ele>1883</ele><time>2017-06-15T13:44:37Z</time></trkpt>
<trkpt lat="46.06936" lon="6.93961"><ele>1883.2</ele><time>2017-06-15T13:44:39Z</time></trkpt>
<trkpt lat="46.06935" lon="6.93957"><ele>1883.4</ele><time>2017-06-15T13:44:41Z</time></trkpt>
<trkpt lat="46.06935" lon="6.93954"><ele>1883.6</ele><time>2017-06-15T13:44:43Z</time></trkpt>
<trkpt lat="46.06934" lon="6.9395"><ele>1883.8</ele><time>2017-06-15T13:44:45Z</time></trkpt>
<trkpt lat="46.06933" lon="6.93947"><ele>1884.2</ele><time>2017-06-15T13:44:47Z</time></trkpt>
<trkpt lat="46.06932" lon="6.93943"><ele>1884.4</ele><time>2017-06-15T13:44:49Z</time></trkpt>
<trkpt lat="46.06931" lon="6.93939"><ele>1884.6</ele><time>2017-06-15T13:44:51Z</time></trkpt>
<trkpt lat="46.0693" lon="6.93936"><ele>1885</ele><time>2017-06-15T13:44:53Z</time></trkpt>
<trkpt lat="46.06929" lon="6.93932"><ele>1885.2</ele><time>2017-06-15T13:44:55Z</time></trkpt>
<trkpt lat="46.06928" lon="6.93929"><ele>1885.6</ele><time>2017-06-15T13:44:57Z</time></trkpt>
<trkpt lat="46.06927" lon="6.93925"><ele>1885.8</ele><time>2017-06-15T13:44:59Z</time></trkpt>
<trkpt lat="46.06926" lon="6.93921"><ele>1886</ele><time>2017-06-15T13:45:01Z</time></trkpt>
<trkpt lat="46.06925" lon="6.93918"><ele>1886.4</ele><time>2017-06-15T13:45:03Z</time></trkpt>
<trkpt lat="46.06924" lon="6.93914"><ele>1886.6</ele><time>2017-06-15T13:45:05Z</time></trkpt>
<trkpt lat="46.06923" lon="6.93911"><ele>1887</ele><time>2017-06-15T13:45:07Z</time></trkpt>
<trkpt lat="46.06922" lon="6.93907"><ele>1887.2</ele><time>2017-06-15T13:45:09Z</time></trkpt>
<trkpt lat="46.06921" lon="6.93903"><ele>1887.4</ele><time>2017-06-15T13:45:11Z</time></trkpt>
<trkpt lat="46.0692" lon="6.939"><ele>1887.6</ele><time>2017-06-15T13:45:13Z</time></trkpt>
<trkpt lat="46.06919" lon="6.93896"><ele>1887.6</ele><time>2017-06-15T13:45:15Z</time></trkpt>
<trkpt lat="46.06918" lon="6.93893"><ele>1887.8</ele><time>2017-06-15T13:45:17Z</time></trkpt>
<trkpt lat="46.06917" lon="6.93889"><ele>1888</ele><time>2017-06-15T13:45:19Z</time></trkpt>
<trkpt lat="46.06916" lon="6.93885"><ele>1888.2</ele><time>2017-06-15T13:45:21Z</time></trkpt>
<trkpt lat="46.06916" lon="6.93882"><ele>1888.6</ele><time>2017-06-15T13:45:23Z</time></trkpt>
<trkpt lat="46.06915" lon="6.93878"><ele>1889</ele><time>2017-06-15T13:45:25Z</time></trkpt>
<trkpt lat="46.06915" lon="6.93877"><ele>1889.2</ele><time>2017-06-15T13:45:26Z</time></trkpt>
<trkpt lat="46.06915" lon="6.93875"><ele>1889.2</ele><time>2017-06-15T13:45:27Z</time></trkpt>
<trkpt lat="46.06915" lon="6.93871"><ele>1889.4</ele><time>2017-06-15T13:45:29Z</time></trkpt>
<trkpt lat="46.06914" lon="6.93869"><ele>1889.6</ele><time>2017-06-15T13:45:30Z</time></trkpt>
<trkpt lat="46.06914" lon="6.93866"><ele>1889.8</ele><time>2017-06-15T13:45:32Z</time></trkpt>
<trkpt lat="46.06914" lon="6.93864"><ele>1890</ele><time>2017-06-15T13:45:33Z</time></trkpt>
<trkpt lat="46.06913" lon="6.9386"><ele>1890.2</ele><time>2017-06-15T13:45:35Z</time></trkpt>
<trkpt lat="46.06913" lon="6.93857"><ele>1890.4</ele><time>2017-06-15T13:45:37Z</time></trkpt>
<trkpt lat="46.06912" lon="6.93855"><ele>1890.6</ele><time>2017-06-15T13:45:38Z</time></trkpt>
<trkpt lat="46.06912" lon="6.93853"><ele>1890.6</ele><time>2017-06-15T13:45:39Z</time></trkpt>
<trkpt lat="46.06912" lon="6.9385"><ele>1891</ele><time>2017-06-15T13:45:41Z</time></trkpt>
<trkpt lat="46.06912" lon="6.93848"><ele>1891</ele><time>2017-06-15T13:45:42Z</time></trkpt>
<trkpt lat="46.06911" lon="6.93844"><ele>1891.2</ele><time>2017-06-15T13:45:44Z</time></trkpt>
<trkpt lat="46.0691" lon="6.93839"><ele>1891.8</ele><time>2017-06-15T13:45:47Z</time></trkpt>
<trkpt lat="46.0691" lon="6.93836"><ele>1892</ele><time>2017-06-15T13:45:49Z</time></trkpt>
<trkpt lat="46.06909" lon="6.93832"><ele>1892.4</ele><time>2017-06-15T13:45:51Z</time></trkpt>
<trkpt lat="46.06909" lon="6.93828"><ele>1892.8</ele><time>2017-06-15T13:45:53Z</time></trkpt>
<trkpt lat="46.06909" lon="6.93825"><ele>1893</ele><time>2017-06-15T13:45:55Z</time></trkpt>
<trkpt lat="46.06908" lon="6.93823"><ele>1893.2</ele><time>2017-06-15T13:45:56Z</time></trkpt>
<trkpt lat="46.06908" lon="6.93821"><ele>1893.4</ele><time>2017-06-15T13:45:57Z</time></trkpt>
<trkpt lat="46.06906" lon="6.93819"><ele>1893.6</ele><time>2017-06-15T13:45:59Z</time></trkpt>
<trkpt lat="46.06906" lon="6.93817"><ele>1893.8</ele><time>2017-06-15T13:46:00Z</time></trkpt>
<trkpt lat="46.06903" lon="6.93813"><ele>1894.2</ele><time>2017-06-15T13:46:03Z</time></trkpt>
<trkpt lat="46.06902" lon="6.93811"><ele>1894.6</ele><time>2017-06-15T13:46:05Z</time></trkpt>
<trkpt lat="46.06901" lon="6.93808"><ele>1894.8</ele><time>2017-06-15T13:46:07Z</time></trkpt>
<trkpt lat="46.06899" lon="6.93805"><ele>1895.2</ele><time>2017-06-15T13:46:09Z</time></trkpt>
<trkpt lat="46.06898" lon="6.93804"><ele>1895.4</ele><time>2017-06-15T13:46:10Z</time></trkpt>
<trkpt lat="46.06898" lon="6.93803"><ele>1895.6</ele><time>2017-06-15T13:46:11Z</time></trkpt>
<trkpt lat="46.06896" lon="6.938"><ele>1895.8</ele><time>2017-06-15T13:46:13Z</time></trkpt>
<trkpt lat="46.06895" lon="6.93799"><ele>1896</ele><time>2017-06-15T13:46:14Z</time></trkpt>
<trkpt lat="46.06893" lon="6.93795"><ele>1896.6</ele><time>2017-06-15T13:46:17Z</time></trkpt>
<trkpt lat="46.06892" lon="6.93792"><ele>1896.8</ele><time>2017-06-15T13:46:19Z</time></trkpt>
<trkpt lat="46.0689" lon="6.93789"><ele>1897.2</ele><time>2017-06-15T13:46:21Z</time></trkpt>
<trkpt lat="46.06889" lon="6.93787"><ele>1897.6</ele><time>2017-06-15T13:46:23Z</time></trkpt>
<trkpt lat="46.06887" lon="6.93784"><ele>1897.8</ele><time>2017-06-15T13:46:25Z</time></trkpt>
<trkpt lat="46.06886" lon="6.93781"><ele>1898.2</ele><time>2017-06-15T13:46:27Z</time></trkpt>
<trkpt lat="46.06885" lon="6.9378"><ele>1898.4</ele><time>2017-06-15T13:46:28Z</time></trkpt>
<trkpt lat="46.06885" lon="6.93778"><ele>1898.6</ele><time>2017-06-15T13:46:29Z</time></trkpt>
<trkpt lat="46.06883" lon="6.93776"><ele>1898.8</ele><time>2017-06-15T13:46:31Z</time></trkpt>
<trkpt lat="46.06882" lon="6.93773"><ele>1899</ele><time>2017-06-15T13:46:33Z</time></trkpt>
<trkpt lat="46.0688" lon="6.93771"><ele>1899.4</ele><time>2017-06-15T13:46:35Z</time></trkpt>
<trkpt lat="46.06879" lon="6.93768"><ele>1899.6</ele><time>2017-06-15T13:46:37Z</time></trkpt>
<trkpt lat="46.06878" lon="6.93767"><ele>1899.8</ele><time>2017-06-15T13:46:38Z</time></trkpt>
<trkpt lat="46.06876" lon="6.93764"><ele>1900.2</ele><time>2017-06-15T13:46:41Z</time></trkpt>
<trkpt lat="46.06875" lon="6.93761"><ele>1900.4</ele><time>2017-06-15T13:46:43Z</time></trkpt>
<trkpt lat="46.06874" lon="6.93759"><ele>1900.8</ele><time>2017-06-15T13:46:45Z</time></trkpt>
<trkpt lat="46.06873" lon="6.93757"><ele>1901</ele><time>2017-06-15T13:46:47Z</time></trkpt>
<trkpt lat="46.06872" lon="6.93756"><ele>1901.2</ele><time>2017-06-15T13:46:48Z</time></trkpt>
<trkpt lat="46.06871" lon="6.93753"><ele>1901.4</ele><time>2017-06-15T13:46:50Z</time></trkpt>
<trkpt lat="46.0687" lon="6.93752"><ele>1901.6</ele><time>2017-06-15T13:46:51Z</time></trkpt>
<trkpt lat="46.06869" lon="6.9375"><ele>1901.8</ele><time>2017-06-15T13:46:53Z</time></trkpt>
<trkpt lat="46.06868" lon="6.93748"><ele>1902</ele><time>2017-06-15T13:46:55Z</time></trkpt>
<trkpt lat="46.06866" lon="6.93745"><ele>1902.2</ele><time>2017-06-15T13:46:57Z</time></trkpt>
<trkpt lat="46.06865" lon="6.93743"><ele>1902.4</ele><time>2017-06-15T13:46:59Z</time></trkpt>
<trkpt lat="46.06864" lon="6.93741"><ele>1902.8</ele><time>2017-06-15T13:47:01Z</time></trkpt>
<trkpt lat="46.06863" lon="6.93738"><ele>1903</ele><time>2017-06-15T13:47:03Z</time></trkpt>
<trkpt lat="46.06861" lon="6.93736"><ele>1903.2</ele><time>2017-06-15T13:47:05Z</time></trkpt>
<trkpt lat="46.0686" lon="6.93734"><ele>1903.6</ele><time>2017-06-15T13:47:07Z</time></trkpt>
<trkpt lat="46.06859" lon="6.93732"><ele>1903.8</ele><time>2017-06-15T13:47:09Z</time></trkpt>
<trkpt lat="46.06858" lon="6.93729"><ele>1904</ele><time>2017-06-15T13:47:11Z</time></trkpt>
<trkpt lat="46.06856" lon="6.93727"><ele>1904.2</ele><time>2017-06-15T13:47:13Z</time></trkpt>
<trkpt lat="46.06856" lon="6.93726"><ele>1904.4</ele><time>2017-06-15T13:47:14Z</time></trkpt>
<trkpt lat="46.06855" lon="6.93725"><ele>1904.4</ele><time>2017-06-15T13:47:15Z</time></trkpt>
<trkpt lat="46.06854" lon="6.93722"><ele>1904.6</ele><time>2017-06-15T13:47:17Z</time></trkpt>
<trkpt lat="46.06852" lon="6.9372"><ele>1905</ele><time>2017-06-15T13:47:19Z</time></trkpt>
<trkpt lat="46.06852" lon="6.93719"><ele>1905</ele><time>2017-06-15T13:47:20Z</time></trkpt>
<trkpt lat="46.06849" lon="6.93715"><ele>1905.4</ele><time>2017-06-15T13:47:23Z</time></trkpt>
<trkpt lat="46.06848" lon="6.93712"><ele>1905.8</ele><time>2017-06-15T13:47:25Z</time></trkpt>
<trkpt lat="46.06847" lon="6.93711"><ele>1906</ele><time>2017-06-15T13:47:26Z</time></trkpt>
<trkpt lat="46.06845" lon="6.93707"><ele>1906.4</ele><time>2017-06-15T13:47:29Z</time></trkpt>
<trkpt lat="46.06844" lon="6.93705"><ele>1906.4</ele><time>2017-06-15T13:47:30Z</time></trkpt>
<trkpt lat="46.06843" lon="6.93704"><ele>1906.6</ele><time>2017-06-15T13:47:31Z</time></trkpt>
<trkpt lat="46.06842" lon="6.93701"><ele>1906.8</ele><time>2017-06-15T13:47:33Z</time></trkpt>
<trkpt lat="46.06841" lon="6.937"><ele>1906.8</ele><time>2017-06-15T13:47:34Z</time></trkpt>
<trkpt lat="46.06839" lon="6.93697"><ele>1907</ele><time>2017-06-15T13:47:36Z</time></trkpt>
<trkpt lat="46.06838" lon="6.93696"><ele>1907.2</ele><time>2017-06-15T13:47:37Z</time></trkpt>
<trkpt lat="46.06837" lon="6.93693"><ele>1907.4</ele><time>2017-06-15T13:47:39Z</time></trkpt>
<trkpt lat="46.06835" lon="6.9369"><ele>1907.8</ele><time>2017-06-15T13:47:41Z</time></trkpt>
<trkpt lat="46.06834" lon="6.93689"><ele>1908</ele><time>2017-06-15T13:47:42Z</time></trkpt>
<trkpt lat="46.06832" lon="6.93685"><ele>1908.2</ele><time>2017-06-15T13:47:45Z</time></trkpt>
<trkpt lat="46.06831" lon="6.93682"><ele>1908.6</ele><time>2017-06-15T13:47:47Z</time></trkpt>
<trkpt lat="46.06829" lon="6.93679"><ele>1908.8</ele><time>2017-06-15T13:47:49Z</time></trkpt>
<trkpt lat="46.06828" lon="6.93678"><ele>1909</ele><time>2017-06-15T13:47:50Z</time></trkpt>
<trkpt lat="46.06827" lon="6.93675"><ele>1909.2</ele><time>2017-06-15T13:47:52Z</time></trkpt>
<trkpt lat="46.06826" lon="6.93674"><ele>1909.4</ele><time>2017-06-15T13:47:53Z</time></trkpt>
<trkpt lat="46.06824" lon="6.93671"><ele>1909.6</ele><time>2017-06-15T13:47:55Z</time></trkpt>
<trkpt lat="46.06822" lon="6.93669"><ele>1909.8</ele><time>2017-06-15T13:47:57Z</time></trkpt>
<trkpt lat="46.0682" lon="6.93667"><ele>1910</ele><time>2017-06-15T13:47:59Z</time></trkpt>
<trkpt lat="46.06817" lon="6.93665"><ele>1910.2</ele><time>2017-06-15T13:48:01Z</time></trkpt>
<trkpt lat="46.06815" lon="6.93664"><ele>1910.4</ele><time>2017-06-15T13:48:02Z</time></trkpt>
<trkpt lat="46.06814" lon="6.93663"><ele>1910.6</ele><time>2017-06-15T13:48:03Z</time></trkpt>
<trkpt lat="46.06811" lon="6.93661"><ele>1910.8</ele><time>2017-06-15T13:48:05Z</time></trkpt>
<trkpt lat="46.06808" lon="6.93659"><ele>1911.2</ele><time>2017-06-15T13:48:07Z</time></trkpt>
<trkpt lat="46.06807" lon="6.93658"><ele>1911.4</ele><time>2017-06-15T13:48:08Z</time></trkpt>
<trkpt lat="46.06806" lon="6.93657"><ele>1911.6</ele><time>2017-06-15T13:48:09Z</time></trkpt>
<trkpt lat="46.06803" lon="6.93656"><ele>1911.8</ele><time>2017-06-15T13:48:11Z</time></trkpt>
<trkpt lat="46.068" lon="6.93654"><ele>1912</ele><time>2017-06-15T13:48:13Z</time></trkpt>
<trkpt lat="46.06797" lon="6.93652"><ele>1912.2</ele><time>2017-06-15T13:48:15Z</time></trkpt>
<trkpt lat="46.06795" lon="6.9365"><ele>1912.2</ele><time>2017-06-15T13:48:17Z</time></trkpt>
<trkpt lat="46.06792" lon="6.93648"><ele>1912.4</ele><time>2017-06-15T13:48:19Z</time></trkpt>
<trkpt lat="46.0679" lon="6.93647"><ele>1912.6</ele><time>2017-06-15T13:48:20Z</time></trkpt>
<trkpt lat="46.06789" lon="6.93646"><ele>1912.6</ele><time>2017-06-15T13:48:21Z</time></trkpt>
<trkpt lat="46.06786" lon="6.93645"><ele>1912.4</ele><time>2017-06-15T13:48:23Z</time></trkpt>
<trkpt lat="46.06784" lon="6.93643"><ele>1912.4</ele><time>2017-06-15T13:48:25Z</time></trkpt>
<trkpt lat="46.06786" lon="6.93647"><ele>1912.4</ele><time>2017-06-15T13:48:27Z</time></trkpt>
<trkpt lat="46.06788" lon="6.9365"><ele>1912.4</ele><time>2017-06-15T13:48:29Z</time></trkpt>
<trkpt lat="46.0679" lon="6.93645"><ele>1912.4</ele><time>2017-06-15T13:48:31Z</time></trkpt>
<trkpt lat="46.0679" lon="6.93643"><ele>1912.4</ele><time>2017-06-15T13:48:32Z</time></trkpt>
<trkpt lat="46.06793" lon="6.93635"><ele>1912.2</ele><time>2017-06-15T13:48:35Z</time></trkpt>
<trkpt lat="46.06794" lon="6.93631"><ele>1912.2</ele><time>2017-06-15T13:48:37Z</time></trkpt>
<trkpt lat="46.06795" lon="6.93628"><ele>1912.2</ele><time>2017-06-15T13:48:38Z</time></trkpt>
<trkpt lat="46.06796" lon="6.93623"><ele>1912.2</ele><time>2017-06-15T13:48:40Z</time></trkpt>
<trkpt lat="46.06799" lon="6.93616"><ele>1912.2</ele><time>2017-06-15T13:48:43Z</time></trkpt>
<trkpt lat="46.068" lon="6.93611"><ele>1912.2</ele><time>2017-06-15T13:48:45Z</time></trkpt>
<trkpt lat="46.06801" lon="6.93609"><ele>1912</ele><time>2017-06-15T13:48:46Z</time></trkpt>
<trkpt lat="46.06803" lon="6.93601"><ele>1912</ele><time>2017-06-15T13:48:49Z</time></trkpt>
<trkpt lat="46.06805" lon="6.93597"><ele>1912</ele><time>2017-06-15T13:48:51Z</time></trkpt>
<trkpt lat="46.06806" lon="6.93592"><ele>1912</ele><time>2017-06-15T13:48:53Z</time></trkpt>
<trkpt lat="46.06806" lon="6.9359"><ele>1912</ele><time>2017-06-15T13:48:54Z</time></trkpt>
<trkpt lat="46.06806" lon="6.9359"><ele>1912</ele><time>2017-06-15T13:48:55Z</time></trkpt>
<trkpt lat="46.06806" lon="6.93589"><ele>1911.8</ele><time>2017-06-15T13:48:57Z</time></trkpt>
<trkpt lat="46.06806" lon="6.93589"><ele>1911.8</ele><time>2017-06-15T13:48:59Z</time></trkpt>
<trkpt lat="46.06805" lon="6.93588"><ele>1911.8</ele><time>2017-06-15T13:49:01Z</time></trkpt>
<trkpt lat="46.06805" lon="6.93588"><ele>1911.8</ele><time>2017-06-15T13:49:02Z</time></trkpt>
<trkpt lat="46.06805" lon="6.93587"><ele>1911.8</ele><time>2017-06-15T13:49:05Z</time></trkpt>
<trkpt lat="46.06804" lon="6.93587"><ele>1911.8</ele><time>2017-06-15T13:49:07Z</time></trkpt>
<trkpt lat="46.06804" lon="6.93587"><ele>1911.8</ele><time>2017-06-15T13:49:08Z</time></trkpt>
<trkpt lat="46.06794" lon="6.9357"><ele>1910.6</ele><time>2017-06-15T13:49:12Z</time></trkpt>
<trkpt lat="46.06794" lon="6.9357"><ele>1910.6</ele><time>2017-06-15T13:51:15Z</time></trkpt>
<trkpt lat="46.06783" lon="6.93554"><ele>1909.4</ele><time>2017-06-15T13:51:17Z</time></trkpt>
<trkpt lat="46.06785" lon="6.93553"><ele>1909.4</ele><time>2017-06-15T13:51:19Z</time></trkpt>
<trkpt lat="46.06786" lon="6.93553"><ele>1909.4</ele><time>2017-06-15T13:51:21Z</time></trkpt>
<trkpt lat="46.06788" lon="6.93552"><ele>1909.4</ele><time>2017-06-15T13:51:23Z</time></trkpt>
<trkpt lat="46.0679" lon="6.93552"><ele>1909.4</ele><time>2017-06-15T13:51:25Z</time></trkpt>
<trkpt lat="46.06792" lon="6.93551"><ele>1909.4</ele><time>2017-06-15T13:51:27Z</time></trkpt>
<trkpt lat="46.06792" lon="6.93551"><ele>1909.2</ele><time>2017-06-15T13:51:28Z</time></trkpt>
<trkpt lat="46.06793" lon="6.93551"><ele>1909</ele><time>2017-06-15T13:51:29Z</time></trkpt>
<trkpt lat="46.06795" lon="6.9355"><ele>1908.4</ele><time>2017-06-15T13:51:31Z</time></trkpt>
<trkpt lat="46.06797" lon="6.9355"><ele>1907.8</ele><time>2017-06-15T13:51:33Z</time></trkpt>
<trkpt lat="46.06797" lon="6.93549"><ele>1907.6</ele><time>2017-06-15T13:51:34Z</time></trkpt>
<trkpt lat="46.06798" lon="6.93549"><ele>1907.6</ele><time>2017-06-15T13:51:35Z</time></trkpt>
<trkpt lat="46.068" lon="6.93549"><ele>1907.4</ele><time>2017-06-15T13:51:37Z</time></trkpt>
<trkpt lat="46.06801" lon="6.93548"><ele>1907.2</ele><time>2017-06-15T13:51:39Z</time></trkpt>
<trkpt lat="46.06798" lon="6.93544"><ele>1906</ele><time>2017-06-15T13:51:41Z</time></trkpt>
<trkpt lat="46.06794" lon="6.93541"><ele>1905</ele><time>2017-06-15T13:51:43Z</time></trkpt>
<trkpt lat="46.06793" lon="6.93539"><ele>1904.4</ele><time>2017-06-15T13:51:44Z</time></trkpt>
<trkpt lat="46.06791" lon="6.93538"><ele>1903.8</ele><time>2017-06-15T13:51:45Z</time></trkpt>
<trkpt lat="46.06788" lon="6.93534"><ele>1902.6</ele><time>2017-06-15T13:51:47Z</time></trkpt>
<trkpt lat="46.06784" lon="6.93531"><ele>1901.2</ele><time>2017-06-15T13:51:49Z</time></trkpt>
<trkpt lat="46.06783" lon="6.9353"><ele>1900.8</ele><time>2017-06-15T13:51:50Z</time></trkpt>
<trkpt lat="46.06781" lon="6.93528"><ele>1900.6</ele><time>2017-06-15T13:51:51Z</time></trkpt>
<trkpt lat="46.06778" lon="6.93525"><ele>1900.4</ele><time>2017-06-15T13:51:53Z</time></trkpt>
<trkpt lat="46.06776" lon="6.93523"><ele>1900.4</ele><time>2017-06-15T13:51:54Z</time></trkpt>
<trkpt lat="46.06771" lon="6.93518"><ele>1900</ele><time>2017-06-15T13:51:57Z</time></trkpt>
<trkpt lat="46.06768" lon="6.93515"><ele>1899.8</ele><time>2017-06-15T13:51:59Z</time></trkpt>
<trkpt lat="46.06767" lon="6.93515"><ele>1899.6</ele><time>2017-06-15T13:52:00Z</time></trkpt>
<trkpt lat="46.06766" lon="6.93524"><ele>1899.4</ele><time>2017-06-15T13:52:03Z</time></trkpt>
<trkpt lat="46.06766" lon="6.9353"><ele>1899.2</ele><time>2017-06-15T13:52:05Z</time></trkpt>
<trkpt lat="46.06766" lon="6.93533"><ele>1899</ele><time>2017-06-15T13:52:06Z</time></trkpt>
<trkpt lat="46.06765" lon="6.93536"><ele>1898.8</ele><time>2017-06-15T13:52:07Z</time></trkpt>
<trkpt lat="46.06765" lon="6.93543"><ele>1898.6</ele><time>2017-06-15T13:52:09Z</time></trkpt>
<trkpt lat="46.06763" lon="6.93546"><ele>1898.4</ele><time>2017-06-15T13:52:10Z</time></trkpt>
<trkpt lat="46.06759" lon="6.93552"><ele>1898.2</ele><time>2017-06-15T13:52:11Z</time></trkpt>
<trkpt lat="46.06754" lon="6.93557"><ele>1898</ele><time>2017-06-15T13:52:12Z</time></trkpt>
<trkpt lat="46.0675" lon="6.93562"><ele>1897.6</ele><time>2017-06-15T13:52:13Z</time></trkpt>
<trkpt lat="46.06742" lon="6.93573"><ele>1897</ele><time>2017-06-15T13:52:15Z</time></trkpt>
<trkpt lat="46.0674" lon="6.93579"><ele>1896.6</ele><time>2017-06-15T13:52:16Z</time></trkpt>
<trkpt lat="46.06738" lon="6.93584"><ele>1896</ele><time>2017-06-15T13:52:17Z</time></trkpt>
<trkpt lat="46.06734" lon="6.93595"><ele>1894.4</ele><time>2017-06-15T13:52:19Z</time></trkpt>
<trkpt lat="46.06732" lon="6.93598"><ele>1893.4</ele><time>2017-06-15T13:52:20Z</time></trkpt>
<trkpt lat="46.06733" lon="6.93593"><ele>1892.6</ele><time>2017-06-15T13:52:21Z</time></trkpt>
<trkpt lat="46.06735" lon="6.93584"><ele>1891</ele><time>2017-06-15T13:52:23Z</time></trkpt>
<trkpt lat="46.06736" lon="6.93579"><ele>1890.4</ele><time>2017-06-15T13:52:24Z</time></trkpt>
<trkpt lat="46.06739" lon="6.93564"><ele>1889</ele><time>2017-06-15T13:52:27Z</time></trkpt>
<trkpt lat="46.0675" lon="6.93536"><ele>1887.8</ele><time>2017-06-15T13:52:29Z</time></trkpt>
<trkpt lat="46.06748" lon="6.93515"><ele>1886.8</ele><time>2017-06-15T13:52:31Z</time></trkpt>
<trkpt lat="46.06748" lon="6.93505"><ele>1886.2</ele><time>2017-06-15T13:52:32Z</time></trkpt>
<trkpt lat="46.06756" lon="6.9349"><ele>1885.2</ele><time>2017-06-15T13:52:34Z</time></trkpt>
<trkpt lat="46.06762" lon="6.93485"><ele>1884.4</ele><time>2017-06-15T13:52:35Z</time></trkpt>
<trkpt lat="46.06769" lon="6.9348"><ele>1883.8</ele><time>2017-06-15T13:52:36Z</time></trkpt>
<trkpt lat="46.06774" lon="6.93473"><ele>1883.2</ele><time>2017-06-15T13:52:37Z</time></trkpt>
<trkpt lat="46.06777" lon="6.93463"><ele>1882.6</ele><time>2017-06-15T13:52:38Z</time></trkpt>
<trkpt lat="46.06777" lon="6.93454"><ele>1881.8</ele><time>2017-06-15T13:52:39Z</time></trkpt>
<trkpt lat="46.06778" lon="6.93444"><ele>1881.4</ele><time>2017-06-15T13:52:40Z</time></trkpt>
<trkpt lat="46.06779" lon="6.93435"><ele>1881.4</ele><time>2017-06-15T13:52:41Z</time></trkpt>
<trkpt lat="46.0678" lon="6.93416"><ele>1881.2</ele><time>2017-06-15T13:52:43Z</time></trkpt>
<trkpt lat="46.06782" lon="6.93398"><ele>1881</ele><time>2017-06-15T13:52:45Z</time></trkpt>
<trkpt lat="46.06782" lon="6.93392"><ele>1880.8</ele><time>2017-06-15T13:52:47Z</time></trkpt>
<trkpt lat="46.06782" lon="6.93386"><ele>1880.8</ele><time>2017-06-15T13:52:49Z</time></trkpt>
<trkpt lat="46.06782" lon="6.9338"><ele>1880.6</ele><time>2017-06-15T13:52:51Z</time></trkpt>
<trkpt lat="46.06782" lon="6.93374"><ele>1880.4</ele><time>2017-06-15T13:52:53Z</time></trkpt>
<trkpt lat="46.06782" lon="6.93371"><ele>1880.4</ele><time>2017-06-15T13:52:54Z</time></trkpt>
<trkpt lat="46.06783" lon="6.93362"><ele>1880.2</ele><time>2017-06-15T13:52:57Z</time></trkpt>
<trkpt lat="46.06783" lon="6.93359"><ele>1880</ele><time>2017-06-15T13:52:58Z</time></trkpt>
<trkpt lat="46.06783" lon="6.93356"><ele>1880.2</ele><time>2017-06-15T13:52:59Z</time></trkpt>
<trkpt lat="46.06783" lon="6.9335"><ele>1880.2</ele><time>2017-06-15T13:53:01Z</time></trkpt>
<trkpt lat="46.06783" lon="6.93347"><ele>1880.2</ele><time>2017-06-15T13:53:02Z</time></trkpt>
<trkpt lat="46.06783" lon="6.93341"><ele>1880.2</ele><time>2017-06-15T13:53:04Z</time></trkpt>
<trkpt lat="46.06783" lon="6.93338"><ele>1880.2</ele><time>2017-06-15T13:53:05Z</time></trkpt>
<trkpt lat="46.06783" lon="6.93331"><ele>1880.2</ele><time>2017-06-15T13:53:07Z</time></trkpt>
<trkpt lat="46.06782" lon="6.93323"><ele>1880.4</ele><time>2017-06-15T13:53:09Z</time></trkpt>
<trkpt lat="46.06782" lon="6.93315"><ele>1880.4</ele><time>2017-06-15T13:53:11Z</time></trkpt>
<trkpt lat="46.06781" lon="6.93311"><ele>1880.4</ele><time>2017-06-15T13:53:12Z</time></trkpt>
<trkpt lat="46.0678" lon="6.93298"><ele>1880.4</ele><time>2017-06-15T13:53:15Z</time></trkpt>
<trkpt lat="46.06779" lon="6.9329"><ele>1880.4</ele><time>2017-06-15T13:53:17Z</time></trkpt>
<trkpt lat="46.06779" lon="6.93282"><ele>1880.4</ele><time>2017-06-15T13:53:19Z</time></trkpt>
<trkpt lat="46.06778" lon="6.93277"><ele>1880.4</ele><time>2017-06-15T13:53:20Z</time></trkpt>
<trkpt lat="46.06776" lon="6.93265"><ele>1880.6</ele><time>2017-06-15T13:53:23Z</time></trkpt>
<trkpt lat="46.06773" lon="6.93256"><ele>1880.6</ele><time>2017-06-15T13:53:25Z</time></trkpt>
<trkpt lat="46.06769" lon="6.93247"><ele>1880.6</ele><time>2017-06-15T13:53:27Z</time></trkpt>
<trkpt lat="46.06765" lon="6.93238"><ele>1880.6</ele><time>2017-06-15T13:53:29Z</time></trkpt>
<trkpt lat="46.06761" lon="6.93228"><ele>1880.6</ele><time>2017-06-15T13:53:31Z</time></trkpt>
<trkpt lat="46.06759" lon="6.93224"><ele>1880.6</ele><time>2017-06-15T13:53:32Z</time></trkpt>
<trkpt lat="46.06753" lon="6.9321"><ele>1880.6</ele><time>2017-06-15T13:53:35Z</time></trkpt>
<trkpt lat="46.06751" lon="6.93206"><ele>1880.6</ele><time>2017-06-15T13:53:36Z</time></trkpt>
<trkpt lat="46.06749" lon="6.93202"><ele>1880.6</ele><time>2017-06-15T13:53:37Z</time></trkpt>
<trkpt lat="46.06745" lon="6.93194"><ele>1880.8</ele><time>2017-06-15T13:53:39Z</time></trkpt>
<trkpt lat="46.06741" lon="6.93186"><ele>1880.8</ele><time>2017-06-15T13:53:41Z</time></trkpt>
<trkpt lat="46.06737" lon="6.93179"><ele>1880.8</ele><time>2017-06-15T13:53:43Z</time></trkpt>
<trkpt lat="46.06733" lon="6.93171"><ele>1880.8</ele><time>2017-06-15T13:53:45Z</time></trkpt>
<trkpt lat="46.06731" lon="6.93167"><ele>1880.8</ele><time>2017-06-15T13:53:46Z</time></trkpt>
<trkpt lat="46.06725" lon="6.93155"><ele>1880.8</ele><time>2017-06-15T13:53:49Z</time></trkpt>
<trkpt lat="46.06723" lon="6.93153"><ele>1880.8</ele><time>2017-06-15T13:53:50Z</time></trkpt>
<trkpt lat="46.06721" lon="6.9315"><ele>1880.8</ele><time>2017-06-15T13:53:53Z</time></trkpt>
<trkpt lat="46.0672" lon="6.93149"><ele>1881</ele><time>2017-06-15T13:53:55Z</time></trkpt>
<trkpt lat="46.06719" lon="6.93148"><ele>1881</ele><time>2017-06-15T13:53:56Z</time></trkpt>
<trkpt lat="46.06702" lon="6.93129"><ele>1881.2</ele><time>2017-06-15T13:54:00Z</time></trkpt>
<trkpt lat="46.06702" lon="6.93129"><ele>1881.2</ele><time>2017-06-15T13:54:48Z</time></trkpt>
<trkpt lat="46.06686" lon="6.93111"><ele>1881.6</ele><time>2017-06-15T13:54:49Z</time></trkpt>
<trkpt lat="46.06685" lon="6.9311"><ele>1881.6</ele><time>2017-06-15T13:54:51Z</time></trkpt>
<trkpt lat="46.06684" lon="6.9311"><ele>1881.6</ele><time>2017-06-15T13:54:53Z</time></trkpt>
<trkpt lat="46.06656" lon="6.93092"><ele>1882.2</ele><time>2017-06-15T13:54:54Z</time></trkpt>
<trkpt lat="46.06656" lon="6.93092"><ele>1882.2</ele><time>2017-06-15T13:56:32Z</time></trkpt>
<trkpt lat="46.06629" lon="6.93075"><ele>1883</ele><time>2017-06-15T13:56:34Z</time></trkpt>
<trkpt lat="46.06621" lon="6.93071"><ele>1883</ele><time>2017-06-15T13:56:37Z</time></trkpt>
<trkpt lat="46.06615" lon="6.93068"><ele>1883</ele><time>2017-06-15T13:56:39Z</time></trkpt>
<trkpt lat="46.06613" lon="6.93065"><ele>1883</ele><time>2017-06-15T13:56:40Z</time></trkpt>
<trkpt lat="46.06612" lon="6.93061"><ele>1883</ele><time>2017-06-15T13:56:41Z</time></trkpt>
<trkpt lat="46.0661" lon="6.93051"><ele>1883</ele><time>2017-06-15T13:56:43Z</time></trkpt>
<trkpt lat="46.06608" lon="6.93042"><ele>1883</ele><time>2017-06-15T13:56:45Z</time></trkpt>
<trkpt lat="46.06606" lon="6.93032"><ele>1883</ele><time>2017-06-15T13:56:47Z</time></trkpt>
<trkpt lat="46.06605" lon="6.93027"><ele>1883</ele><time>2017-06-15T13:56:48Z</time></trkpt>
<trkpt lat="46.06603" lon="6.93018"><ele>1883.2</ele><time>2017-06-15T13:56:50Z</time></trkpt>
<trkpt lat="46.066" lon="6.93004"><ele>1883.2</ele><time>2017-06-15T13:56:53Z</time></trkpt>
<trkpt lat="46.06597" lon="6.93001"><ele>1883.2</ele><time>2017-06-15T13:56:54Z</time></trkpt>
<trkpt lat="46.06593" lon="6.92994"><ele>1883.2</ele><time>2017-06-15T13:56:56Z</time></trkpt>
<trkpt lat="46.06586" lon="6.92984"><ele>1883.2</ele><time>2017-06-15T13:56:59Z</time></trkpt>
<trkpt lat="46.06582" lon="6.92977"><ele>1883.2</ele><time>2017-06-15T13:57:01Z</time></trkpt>
<trkpt lat="46.06577" lon="6.9297"><ele>1883.2</ele><time>2017-06-15T13:57:03Z</time></trkpt>
<trkpt lat="46.06573" lon="6.92964"><ele>1883.4</ele><time>2017-06-15T13:57:05Z</time></trkpt>
<trkpt lat="46.0657" lon="6.9296"><ele>1883.4</ele><time>2017-06-15T13:57:06Z</time></trkpt>
<trkpt lat="46.06568" lon="6.92957"><ele>1883.4</ele><time>2017-06-15T13:57:07Z</time></trkpt>
<trkpt lat="46.06566" lon="6.92953"><ele>1883.4</ele><time>2017-06-15T13:57:08Z</time></trkpt>
<trkpt lat="46.06558" lon="6.92942"><ele>1883.4</ele><time>2017-06-15T13:57:11Z</time></trkpt>
<trkpt lat="46.06553" lon="6.92935"><ele>1883.4</ele><time>2017-06-15T13:57:13Z</time></trkpt>
<trkpt lat="46.06548" lon="6.92928"><ele>1883.4</ele><time>2017-06-15T13:57:15Z</time></trkpt>
<trkpt lat="46.06546" lon="6.92923"><ele>1883.4</ele><time>2017-06-15T13:57:16Z</time></trkpt>
<trkpt lat="46.06546" lon="6.92916"><ele>1883.4</ele><time>2017-06-15T13:57:17Z</time></trkpt>
<trkpt lat="46.06546" lon="6.92908"><ele>1883.4</ele><time>2017-06-15T13:57:18Z</time></trkpt>
<trkpt lat="46.06546" lon="6.92894"><ele>1883.6</ele><time>2017-06-15T13:57:20Z</time></trkpt>
<trkpt lat="46.06545" lon="6.92879"><ele>1883.6</ele><time>2017-06-15T13:57:22Z</time></trkpt>
<trkpt lat="46.06545" lon="6.92857"><ele>1883.6</ele><time>2017-06-15T13:57:25Z</time></trkpt>
<trkpt lat="46.06543" lon="6.92843"><ele>1883.6</ele><time>2017-06-15T13:57:27Z</time></trkpt>
<trkpt lat="46.06541" lon="6.92829"><ele>1883.6</ele><time>2017-06-15T13:57:29Z</time></trkpt>
<trkpt lat="46.06538" lon="6.92816"><ele>1883.6</ele><time>2017-06-15T13:57:31Z</time></trkpt>
<trkpt lat="46.0653" lon="6.9281"><ele>1883.6</ele><time>2017-06-15T13:57:33Z</time></trkpt>
<trkpt lat="46.06526" lon="6.92807"><ele>1883.6</ele><time>2017-06-15T13:57:34Z</time></trkpt>
<trkpt lat="46.06515" lon="6.92797"><ele>1883.8</ele><time>2017-06-15T13:57:37Z</time></trkpt>
<trkpt lat="46.06507" lon="6.92791"><ele>1883.8</ele><time>2017-06-15T13:57:39Z</time></trkpt>
<trkpt lat="46.06504" lon="6.92787"><ele>1883.8</ele><time>2017-06-15T13:57:40Z</time></trkpt>
<trkpt lat="46.06503" lon="6.92782"><ele>1883.8</ele><time>2017-06-15T13:57:41Z</time></trkpt>
<trkpt lat="46.06501" lon="6.92771"><ele>1883.8</ele><time>2017-06-15T13:57:43Z</time></trkpt>
<trkpt lat="46.06499" lon="6.9276"><ele>1883.8</ele><time>2017-06-15T13:57:45Z</time></trkpt>
<trkpt lat="46.06497" lon="6.92749"><ele>1883.8</ele><time>2017-06-15T13:57:47Z</time></trkpt>
<trkpt lat="46.06495" lon="6.92738"><ele>1883.8</ele><time>2017-06-15T13:57:49Z</time></trkpt>
<trkpt lat="46.06493" lon="6.92728"><ele>1883.8</ele><time>2017-06-15T13:57:51Z</time></trkpt>
<trkpt lat="46.06492" lon="6.92722"><ele>1884</ele><time>2017-06-15T13:57:52Z</time></trkpt>
<trkpt lat="46.06493" lon="6.92717"><ele>1884</ele><time>2017-06-15T13:57:53Z</time></trkpt>
<trkpt lat="46.06494" lon="6.92713"><ele>1884</ele><time>2017-06-15T13:57:54Z</time></trkpt>
<trkpt lat="46.06495" lon="6.92703"><ele>1884</ele><time>2017-06-15T13:57:56Z</time></trkpt>
<trkpt lat="46.06496" lon="6.92698"><ele>1884</ele><time>2017-06-15T13:57:57Z</time></trkpt>
<trkpt lat="46.06498" lon="6.92688"><ele>1884.2</ele><time>2017-06-15T13:57:59Z</time></trkpt>
<trkpt lat="46.065" lon="6.92678"><ele>1884.4</ele><time>2017-06-15T13:58:01Z</time></trkpt>
<trkpt lat="46.06501" lon="6.92668"><ele>1884.6</ele><time>2017-06-15T13:58:03Z</time></trkpt>
<trkpt lat="46.06503" lon="6.92658"><ele>1884.8</ele><time>2017-06-15T13:58:05Z</time></trkpt>
<trkpt lat="46.06506" lon="6.92648"><ele>1885</ele><time>2017-06-15T13:58:07Z</time></trkpt>
<trkpt lat="46.06509" lon="6.92639"><ele>1885.2</ele><time>2017-06-15T13:58:09Z</time></trkpt>
<trkpt lat="46.06512" lon="6.92629"><ele>1885.4</ele><time>2017-06-15T13:58:11Z</time></trkpt>
<trkpt lat="46.06515" lon="6.92619"><ele>1885.6</ele><time>2017-06-15T13:58:13Z</time></trkpt>
<trkpt lat="46.06516" lon="6.92614"><ele>1885.8</ele><time>2017-06-15T13:58:14Z</time></trkpt>
<trkpt lat="46.06518" lon="6.9261"><ele>1886</ele><time>2017-06-15T13:58:15Z</time></trkpt>
<trkpt lat="46.06521" lon="6.926"><ele>1886.2</ele><time>2017-06-15T13:58:17Z</time></trkpt>
<trkpt lat="46.06522" lon="6.92595"><ele>1886.4</ele><time>2017-06-15T13:58:18Z</time></trkpt>
<trkpt lat="46.06523" lon="6.92592"><ele>1886.4</ele><time>2017-06-15T13:58:19Z</time></trkpt>
<trkpt lat="46.06525" lon="6.92584"><ele>1886.8</ele><time>2017-06-15T13:58:21Z</time></trkpt>
<trkpt lat="46.06526" lon="6.92577"><ele>1887</ele><time>2017-06-15T13:58:23Z</time></trkpt>
<trkpt lat="46.06528" lon="6.9257"><ele>1887.4</ele><time>2017-06-15T13:58:25Z</time></trkpt>
<trkpt lat="46.0653" lon="6.92563"><ele>1887.6</ele><time>2017-06-15T13:58:27Z</time></trkpt>
<trkpt lat="46.06535" lon="6.92553"><ele>1887.8</ele><time>2017-06-15T13:58:29Z</time></trkpt>
<trkpt lat="46.0654" lon="6.92543"><ele>1888.2</ele><time>2017-06-15T13:58:31Z</time></trkpt>
<trkpt lat="46.06545" lon="6.92533"><ele>1888.4</ele><time>2017-06-15T13:58:33Z</time></trkpt>
<trkpt lat="46.0655" lon="6.92523"><ele>1888.8</ele><time>2017-06-15T13:58:35Z</time></trkpt>
<trkpt lat="46.06552" lon="6.92518"><ele>1888.8</ele><time>2017-06-15T13:58:36Z</time></trkpt>
<trkpt lat="46.06555" lon="6.92513"><ele>1889</ele><time>2017-06-15T13:58:37Z</time></trkpt>
<trkpt lat="46.06556" lon="6.92508"><ele>1889</ele><time>2017-06-15T13:58:38Z</time></trkpt>
<trkpt lat="46.06553" lon="6.92497"><ele>1889</ele><time>2017-06-15T13:58:40Z</time></trkpt>
<trkpt lat="46.06551" lon="6.92487"><ele>1889.2</ele><time>2017-06-15T13:58:42Z</time></trkpt>
<trkpt lat="46.0655" lon="6.92482"><ele>1889.2</ele><time>2017-06-15T13:58:43Z</time></trkpt>
<trkpt lat="46.06548" lon="6.92477"><ele>1889.2</ele><time>2017-06-15T13:58:44Z</time></trkpt>
<trkpt lat="46.06546" lon="6.92466"><ele>1889</ele><time>2017-06-15T13:58:46Z</time></trkpt>
<trkpt lat="46.06542" lon="6.92451"><ele>1889</ele><time>2017-06-15T13:58:49Z</time></trkpt>
<trkpt lat="46.0654" lon="6.92445"><ele>1889</ele><time>2017-06-15T13:58:50Z</time></trkpt>
<trkpt lat="46.06538" lon="6.92439"><ele>1889</ele><time>2017-06-15T13:58:51Z</time></trkpt>
<trkpt lat="46.06534" lon="6.92426"><ele>1888.8</ele><time>2017-06-15T13:58:53Z</time></trkpt>
<trkpt lat="46.0653" lon="6.92413"><ele>1888.8</ele><time>2017-06-15T13:58:55Z</time></trkpt>
<trkpt lat="46.06526" lon="6.92401"><ele>1888.8</ele><time>2017-06-15T13:58:57Z</time></trkpt>
<trkpt lat="46.06524" lon="6.92394"><ele>1888.8</ele><time>2017-06-15T13:58:58Z</time></trkpt>
<trkpt lat="46.06521" lon="6.92381"><ele>1888.6</ele><time>2017-06-15T13:59:00Z</time></trkpt>
<trkpt lat="46.0652" lon="6.92373"><ele>1888.6</ele><time>2017-06-15T13:59:01Z</time></trkpt>
<trkpt lat="46.0652" lon="6.92358"><ele>1888.6</ele><time>2017-06-15T13:59:03Z</time></trkpt>
<trkpt lat="46.06519" lon="6.92342"><ele>1888.6</ele><time>2017-06-15T13:59:05Z</time></trkpt>
<trkpt lat="46.0652" lon="6.92335"><ele>1888.6</ele><time>2017-06-15T13:59:06Z</time></trkpt>
<trkpt lat="46.06522" lon="6.92327"><ele>1888.6</ele><time>2017-06-15T13:59:07Z</time></trkpt>
<trkpt lat="46.06527" lon="6.92313"><ele>1888.4</ele><time>2017-06-15T13:59:09Z</time></trkpt>
<trkpt lat="46.06532" lon="6.92299"><ele>1888.4</ele><time>2017-06-15T13:59:11Z</time></trkpt>
<trkpt lat="46.06537" lon="6.92285"><ele>1888.4</ele><time>2017-06-15T13:59:13Z</time></trkpt>
<trkpt lat="46.06541" lon="6.92278"><ele>1888.4</ele><time>2017-06-15T13:59:14Z</time></trkpt>
<trkpt lat="46.0655" lon="6.92259"><ele>1888.2</ele><time>2017-06-15T13:59:17Z</time></trkpt>
<trkpt lat="46.06552" lon="6.92246"><ele>1888.2</ele><time>2017-06-15T13:59:19Z</time></trkpt>
<trkpt lat="46.06554" lon="6.9224"><ele>1888.2</ele><time>2017-06-15T13:59:20Z</time></trkpt>
<trkpt lat="46.06558" lon="6.92235"><ele>1888.2</ele><time>2017-06-15T13:59:21Z</time></trkpt>
<trkpt lat="46.06562" lon="6.92231"><ele>1888.2</ele><time>2017-06-15T13:59:22Z</time></trkpt>
<trkpt lat="46.06568" lon="6.92231"><ele>1888</ele><time>2017-06-15T13:59:23Z</time></trkpt>
<trkpt lat="46.06578" lon="6.92237"><ele>1888</ele><time>2017-06-15T13:59:25Z</time></trkpt>
<trkpt lat="46.06584" lon="6.9224"><ele>1888</ele><time>2017-06-15T13:59:26Z</time></trkpt>
<trkpt lat="46.066" lon="6.92249"><ele>1888</ele><time>2017-06-15T13:59:29Z</time></trkpt>
<trkpt lat="46.06605" lon="6.92252"><ele>1887.8</ele><time>2017-06-15T13:59:30Z</time></trkpt>
<trkpt lat="46.06611" lon="6.92255"><ele>1887.8</ele><time>2017-06-15T13:59:31Z</time></trkpt>
<trkpt lat="46.06625" lon="6.92257"><ele>1887.8</ele><time>2017-06-15T13:59:33Z</time></trkpt>
<trkpt lat="46.06639" lon="6.92259"><ele>1887.8</ele><time>2017-06-15T13:59:35Z</time></trkpt>
<trkpt lat="46.06652" lon="6.9226"><ele>1887.8</ele><time>2017-06-15T13:59:37Z</time></trkpt>
<trkpt lat="46.06659" lon="6.92261"><ele>1887.6</ele><time>2017-06-15T13:59:38Z</time></trkpt>
<trkpt lat="46.06665" lon="6.92261"><ele>1887.6</ele><time>2017-06-15T13:59:39Z</time></trkpt>
<trkpt lat="46.06678" lon="6.9226"><ele>1887.6</ele><time>2017-06-15T13:59:41Z</time></trkpt>
<trkpt lat="46.06683" lon="6.92257"><ele>1887.6</ele><time>2017-06-15T13:59:42Z</time></trkpt>
<trkpt lat="46.06692" lon="6.92248"><ele>1887.6</ele><time>2017-06-15T13:59:44Z</time></trkpt>
<trkpt lat="46.06694" lon="6.92241"><ele>1887.6</ele><time>2017-06-15T13:59:45Z</time></trkpt>
<trkpt lat="46.06697" lon="6.92234"><ele>1887.4</ele><time>2017-06-15T13:59:46Z</time></trkpt>
<trkpt lat="46.06704" lon="6.92213"><ele>1887.4</ele><time>2017-06-15T13:59:49Z</time></trkpt>
<trkpt lat="46.06708" lon="6.92199"><ele>1887.4</ele><time>2017-06-15T13:59:51Z</time></trkpt>
<trkpt lat="46.06713" lon="6.92186"><ele>1887.2</ele><time>2017-06-15T13:59:53Z</time></trkpt>
<trkpt lat="46.06714" lon="6.92173"><ele>1887.2</ele><time>2017-06-15T13:59:55Z</time></trkpt>
<trkpt lat="46.06715" lon="6.92161"><ele>1887.2</ele><time>2017-06-15T13:59:57Z</time></trkpt>
<trkpt lat="46.06716" lon="6.92148"><ele>1887.2</ele><time>2017-06-15T13:59:59Z</time></trkpt>
<trkpt lat="46.06717" lon="6.92136"><ele>1887</ele><time>2017-06-15T14:00:01Z</time></trkpt>
<trkpt lat="46.06717" lon="6.9213"><ele>1887</ele><time>2017-06-15T14:00:02Z</time></trkpt>
<trkpt lat="46.06715" lon="6.92124"><ele>1887</ele><time>2017-06-15T14:00:03Z</time></trkpt>
<trkpt lat="46.06712" lon="6.92111"><ele>1887</ele><time>2017-06-15T14:00:05Z</time></trkpt>
<trkpt lat="46.06709" lon="6.92098"><ele>1887</ele><time>2017-06-15T14:00:07Z</time></trkpt>
<trkpt lat="46.06705" lon="6.92085"><ele>1886.8</ele><time>2017-06-15T14:00:09Z</time></trkpt>
<trkpt lat="46.06703" lon="6.92079"><ele>1886.8</ele><time>2017-06-15T14:00:10Z</time></trkpt>
<trkpt lat="46.067" lon="6.92066"><ele>1886.8</ele><time>2017-06-15T14:00:12Z</time></trkpt>
<trkpt lat="46.06698" lon="6.92053"><ele>1886.8</ele><time>2017-06-15T14:00:14Z</time></trkpt>
<trkpt lat="46.06696" lon="6.9204"><ele>1886.6</ele><time>2017-06-15T14:00:16Z</time></trkpt>
<trkpt lat="46.06692" lon="6.9202"><ele>1886.6</ele><time>2017-06-15T14:00:19Z</time></trkpt>
<trkpt lat="46.06691" lon="6.92013"><ele>1886.6</ele><time>2017-06-15T14:00:20Z</time></trkpt>
<trkpt lat="46.06691" lon="6.92008"><ele>1886.6</ele><time>2017-06-15T14:00:21Z</time></trkpt>
<trkpt lat="46.06691" lon="6.91996"><ele>1886.4</ele><time>2017-06-15T14:00:23Z</time></trkpt>
<trkpt lat="46.06691" lon="6.9199"><ele>1886.4</ele><time>2017-06-15T14:00:24Z</time></trkpt>
<trkpt lat="46.0669" lon="6.91978"><ele>1886.4</ele><time>2017-06-15T14:00:26Z</time></trkpt>
<trkpt lat="46.06685" lon="6.91969"><ele>1886.4</ele><time>2017-06-15T14:00:28Z</time></trkpt>
<trkpt lat="46.06679" lon="6.91956"><ele>1886.2</ele><time>2017-06-15T14:00:31Z</time></trkpt>
<trkpt lat="46.06677" lon="6.91951"><ele>1886.2</ele><time>2017-06-15T14:00:32Z</time></trkpt>
<trkpt lat="46.0667" lon="6.91938"><ele>1886.2</ele><time>2017-06-15T14:00:35Z</time></trkpt>
<trkpt lat="46.06666" lon="6.91929"><ele>1886.2</ele><time>2017-06-15T14:00:37Z</time></trkpt>
<trkpt lat="46.06664" lon="6.91925"><ele>1886</ele><time>2017-06-15T14:00:38Z</time></trkpt>
<trkpt lat="46.06662" lon="6.91916"><ele>1886</ele><time>2017-06-15T14:00:40Z</time></trkpt>
<trkpt lat="46.06658" lon="6.91904"><ele>1886</ele><time>2017-06-15T14:00:43Z</time></trkpt>
<trkpt lat="46.06656" lon="6.919"><ele>1886</ele><time>2017-06-15T14:00:44Z</time></trkpt>
<trkpt lat="46.06652" lon="6.91888"><ele>1886</ele><time>2017-06-15T14:00:47Z</time></trkpt>
<trkpt lat="46.06651" lon="6.91884"><ele>1886</ele><time>2017-06-15T14:00:48Z</time></trkpt>
<trkpt lat="46.06634" lon="6.9185"><ele>1886.4</ele><time>2017-06-15T14:00:51Z</time></trkpt>
<trkpt lat="46.06634" lon="6.9185"><ele>1886.4</ele><time>2017-06-15T14:01:36Z</time></trkpt>
<trkpt lat="46.06619" lon="6.91824"><ele>1886.8</ele><time>2017-06-15T14:01:37Z</time></trkpt>
<trkpt lat="46.06618" lon="6.91822"><ele>1886.8</ele><time>2017-06-15T14:01:39Z</time></trkpt>
<trkpt lat="46.06617" lon="6.9182"><ele>1887</ele><time>2017-06-15T14:01:41Z</time></trkpt>
<trkpt lat="46.06616" lon="6.91818"><ele>1887</ele><time>2017-06-15T14:01:43Z</time></trkpt>
<trkpt lat="46.06614" lon="6.91816"><ele>1887</ele><time>2017-06-15T14:01:45Z</time></trkpt>
<trkpt lat="46.06613" lon="6.91814"><ele>1887</ele><time>2017-06-15T14:01:47Z</time></trkpt>
<trkpt lat="46.06611" lon="6.91807"><ele>1887</ele><time>2017-06-15T14:01:49Z</time></trkpt>
<trkpt lat="46.06608" lon="6.91801"><ele>1887</ele><time>2017-06-15T14:01:51Z</time></trkpt>
<trkpt lat="46.06606" lon="6.91794"><ele>1887.2</ele><time>2017-06-15T14:01:53Z</time></trkpt>
<trkpt lat="46.06603" lon="6.91788"><ele>1887.2</ele><time>2017-06-15T14:01:55Z</time></trkpt>
<trkpt lat="46.066" lon="6.91781"><ele>1887.2</ele><time>2017-06-15T14:01:57Z</time></trkpt>
<trkpt lat="46.06598" lon="6.91774"><ele>1887.2</ele><time>2017-06-15T14:01:59Z</time></trkpt>
<trkpt lat="46.06595" lon="6.91768"><ele>1887.2</ele><time>2017-06-15T14:02:01Z</time></trkpt>
<trkpt lat="46.06593" lon="6.91761"><ele>1887.2</ele><time>2017-06-15T14:02:03Z</time></trkpt>
<trkpt lat="46.0659" lon="6.91755"><ele>1887.4</ele><time>2017-06-15T14:02:05Z</time></trkpt>
<trkpt lat="46.06587" lon="6.91749"><ele>1887.4</ele><time>2017-06-15T14:02:07Z</time></trkpt>
<trkpt lat="46.06583" lon="6.91744"><ele>1887.4</ele><time>2017-06-15T14:02:09Z</time></trkpt>
<trkpt lat="46.06579" lon="6.91738"><ele>1887.4</ele><time>2017-06-15T14:02:11Z</time></trkpt>
<trkpt lat="46.06575" lon="6.91733"><ele>1887.4</ele><time>2017-06-15T14:02:13Z</time></trkpt>
<trkpt lat="46.06571" lon="6.91727"><ele>1887.4</ele><time>2017-06-15T14:02:15Z</time></trkpt>
<trkpt lat="46.06567" lon="6.91722"><ele>1887.6</ele><time>2017-06-15T14:02:17Z</time></trkpt>
<trkpt lat="46.06564" lon="6.91716"><ele>1887.6</ele><time>2017-06-15T14:02:19Z</time></trkpt>
<trkpt lat="46.0656" lon="6.91711"><ele>1887.6</ele><time>2017-06-15T14:02:21Z</time></trkpt>
<trkpt lat="46.06556" lon="6.91705"><ele>1887.6</ele><time>2017-06-15T14:02:23Z</time></trkpt>
<trkpt lat="46.06555" lon="6.91696"><ele>1887.6</ele><time>2017-06-15T14:02:25Z</time></trkpt>
<trkpt lat="46.06553" lon="6.91688"><ele>1887.6</ele><time>2017-06-15T14:02:27Z</time></trkpt>
<trkpt lat="46.06552" lon="6.91679"><ele>1887.8</ele><time>2017-06-15T14:02:29Z</time></trkpt>
<trkpt lat="46.0655" lon="6.91671"><ele>1887.8</ele><time>2017-06-15T14:02:31Z</time></trkpt>
<trkpt lat="46.06548" lon="6.91662"><ele>1887.8</ele><time>2017-06-15T14:02:33Z</time></trkpt>
<trkpt lat="46.06547" lon="6.91654"><ele>1887.8</ele><time>2017-06-15T14:02:35Z</time></trkpt>
<trkpt lat="46.06545" lon="6.91645"><ele>1887.8</ele><time>2017-06-15T14:02:37Z</time></trkpt>
<trkpt lat="46.06544" lon="6.91641"><ele>1887.8</ele><time>2017-06-15T14:02:38Z</time></trkpt>
<trkpt lat="46.06544" lon="6.91638"><ele>1887.8</ele><time>2017-06-15T14:02:39Z</time></trkpt>
<trkpt lat="46.06544" lon="6.9163"><ele>1888</ele><time>2017-06-15T14:02:41Z</time></trkpt>
<trkpt lat="46.06543" lon="6.91622"><ele>1888</ele><time>2017-06-15T14:02:43Z</time></trkpt>
<trkpt lat="46.06543" lon="6.91615"><ele>1888</ele><time>2017-06-15T14:02:45Z</time></trkpt>
<trkpt lat="46.06542" lon="6.91607"><ele>1888</ele><time>2017-06-15T14:02:47Z</time></trkpt>
<trkpt lat="46.06541" lon="6.916"><ele>1888</ele><time>2017-06-15T14:02:49Z</time></trkpt>
<trkpt lat="46.06541" lon="6.91592"><ele>1888</ele><time>2017-06-15T14:02:51Z</time></trkpt>
<trkpt lat="46.0654" lon="6.91585"><ele>1888.2</ele><time>2017-06-15T14:02:53Z</time></trkpt>
<trkpt lat="46.0654" lon="6.91577"><ele>1888.2</ele><time>2017-06-15T14:02:55Z</time></trkpt>
<trkpt lat="46.06539" lon="6.91573"><ele>1888.2</ele><time>2017-06-15T14:02:56Z</time></trkpt>
<trkpt lat="46.06539" lon="6.9157"><ele>1888.2</ele><time>2017-06-15T14:02:57Z</time></trkpt>
<trkpt lat="46.06539" lon="6.91566"><ele>1888.2</ele><time>2017-06-15T14:02:58Z</time></trkpt>
<trkpt lat="46.06539" lon="6.91556"><ele>1888.2</ele><time>2017-06-15T14:03:01Z</time></trkpt>
<trkpt lat="46.06539" lon="6.91552"><ele>1888.2</ele><time>2017-06-15T14:03:02Z</time></trkpt>
<trkpt lat="46.06539" lon="6.91542"><ele>1888.4</ele><time>2017-06-15T14:03:05Z</time></trkpt>
<trkpt lat="46.06538" lon="6.91538"><ele>1888.4</ele><time>2017-06-15T14:03:06Z</time></trkpt>
<trkpt lat="46.06538" lon="6.91528"><ele>1888.4</ele><time>2017-06-15T14:03:09Z</time></trkpt>
<trkpt lat="46.06538" lon="6.9152"><ele>1888.4</ele><time>2017-06-15T14:03:11Z</time></trkpt>
<trkpt lat="46.06538" lon="6.91513"><ele>1888.4</ele><time>2017-06-15T14:03:13Z</time></trkpt>
<trkpt lat="46.06538" lon="6.9151"><ele>1888.4</ele><time>2017-06-15T14:03:14Z</time></trkpt>
<trkpt lat="46.06537" lon="6.91507"><ele>1888.4</ele><time>2017-06-15T14:03:15Z</time></trkpt>
<trkpt lat="46.06537" lon="6.915"><ele>1888.6</ele><time>2017-06-15T14:03:17Z</time></trkpt>
<trkpt lat="46.06536" lon="6.91494"><ele>1888.6</ele><time>2017-06-15T14:03:19Z</time></trkpt>
<trkpt lat="46.06536" lon="6.91488"><ele>1888.6</ele><time>2017-06-15T14:03:21Z</time></trkpt>
<trkpt lat="46.06535" lon="6.91481"><ele>1888.6</ele><time>2017-06-15T14:03:23Z</time></trkpt>
<trkpt lat="46.06535" lon="6.91475"><ele>1888.6</ele><time>2017-06-15T14:03:25Z</time></trkpt>
<trkpt lat="46.06534" lon="6.91469"><ele>1888.6</ele><time>2017-06-15T14:03:27Z</time></trkpt>
<trkpt lat="46.06533" lon="6.91462"><ele>1888.8</ele><time>2017-06-15T14:03:29Z</time></trkpt>
<trkpt lat="46.06533" lon="6.91459"><ele>1888.8</ele><time>2017-06-15T14:03:30Z</time></trkpt>
<trkpt lat="46.06532" lon="6.9145"><ele>1888.8</ele><time>2017-06-15T14:03:33Z</time></trkpt>
<trkpt lat="46.06532" lon="6.91443"><ele>1888.8</ele><time>2017-06-15T14:03:35Z</time></trkpt>
<trkpt lat="46.06531" lon="6.9144"><ele>1888.8</ele><time>2017-06-15T14:03:36Z</time></trkpt>
<trkpt lat="46.06529" lon="6.91431"><ele>1888.8</ele><time>2017-06-15T14:03:39Z</time></trkpt>
<trkpt lat="46.06529" lon="6.91428"><ele>1889</ele><time>2017-06-15T14:03:40Z</time></trkpt>
<trkpt lat="46.06527" lon="6.91419"><ele>1889</ele><time>2017-06-15T14:03:43Z</time></trkpt>
<trkpt lat="46.06526" lon="6.91416"><ele>1889</ele><time>2017-06-15T14:03:44Z</time></trkpt>
<trkpt lat="46.06524" lon="6.91408"><ele>1889</ele><time>2017-06-15T14:03:47Z</time></trkpt>
<trkpt lat="46.06523" lon="6.91405"><ele>1889</ele><time>2017-06-15T14:03:48Z</time></trkpt>
<trkpt lat="46.06522" lon="6.91402"><ele>1889</ele><time>2017-06-15T14:03:49Z</time></trkpt>
<trkpt lat="46.06519" lon="6.91397"><ele>1889</ele><time>2017-06-15T14:03:51Z</time></trkpt>
<trkpt lat="46.06517" lon="6.91395"><ele>1889.2</ele><time>2017-06-15T14:03:52Z</time></trkpt>
<trkpt lat="46.06512" lon="6.91389"><ele>1889.2</ele><time>2017-06-15T14:03:55Z</time></trkpt>
<trkpt lat="46.06508" lon="6.91384"><ele>1889.2</ele><time>2017-06-15T14:03:57Z</time></trkpt>
<trkpt lat="46.06505" lon="6.9138"><ele>1889.2</ele><time>2017-06-15T14:03:59Z</time></trkpt>
<trkpt lat="46.06503" lon="6.91378"><ele>1889.2</ele><time>2017-06-15T14:04:00Z</time></trkpt>
<trkpt lat="46.06497" lon="6.91371"><ele>1889.2</ele><time>2017-06-15T14:04:03Z</time></trkpt>
<trkpt lat="46.06494" lon="6.91367"><ele>1889.4</ele><time>2017-06-15T14:04:05Z</time></trkpt>
<trkpt lat="46.0649" lon="6.91362"><ele>1889.6</ele><time>2017-06-15T14:04:07Z</time></trkpt>
<trkpt lat="46.06487" lon="6.91358"><ele>1889.6</ele><time>2017-06-15T14:04:09Z</time></trkpt>
<trkpt lat="46.06483" lon="6.91353"><ele>1889.8</ele><time>2017-06-15T14:04:11Z</time></trkpt>
<trkpt lat="46.0648" lon="6.91348"><ele>1889.8</ele><time>2017-06-15T14:04:13Z</time></trkpt>
<trkpt lat="46.06476" lon="6.91343"><ele>1890</ele><time>2017-06-15T14:04:15Z</time></trkpt>
<trkpt lat="46.06472" lon="6.91338"><ele>1890</ele><time>2017-06-15T14:04:17Z</time></trkpt>
<trkpt lat="46.06471" lon="6.91335"><ele>1890</ele><time>2017-06-15T14:04:18Z</time></trkpt>
<trkpt lat="46.06465" lon="6.91327"><ele>1890.2</ele><time>2017-06-15T14:04:21Z</time></trkpt>
<trkpt lat="46.06462" lon="6.91322"><ele>1890.4</ele><time>2017-06-15T14:04:23Z</time></trkpt>
<trkpt lat="46.06458" lon="6.91317"><ele>1890.4</ele><time>2017-06-15T14:04:25Z</time></trkpt>
<trkpt lat="46.06455" lon="6.91312"><ele>1890.6</ele><time>2017-06-15T14:04:27Z</time></trkpt>
<trkpt lat="46.06452" lon="6.91307"><ele>1890.6</ele><time>2017-06-15T14:04:29Z</time></trkpt>
<trkpt lat="46.06449" lon="6.91302"><ele>1890.8</ele><time>2017-06-15T14:04:31Z</time></trkpt>
<trkpt lat="46.06448" lon="6.91298"><ele>1890.4</ele><time>2017-06-15T14:04:33Z</time></trkpt>
<trkpt lat="46.06448" lon="6.91298"><ele>1890.4</ele><time>2017-06-15T14:05:42Z</time></trkpt>
<trkpt lat="46.06448" lon="6.91297"><ele>1890</ele><time>2017-06-15T14:05:44Z</time></trkpt>
<trkpt lat="46.06454" lon="6.91304"><ele>1889.8</ele><time>2017-06-15T14:05:46Z</time></trkpt>
<trkpt lat="46.0647" lon="6.91319"><ele>1889.6</ele><time>2017-06-15T14:05:49Z</time></trkpt>
<trkpt lat="46.06475" lon="6.91324"><ele>1889.6</ele><time>2017-06-15T14:05:50Z</time></trkpt>
<trkpt lat="46.06485" lon="6.91335"><ele>1889.4</ele><time>2017-06-15T14:05:52Z</time></trkpt>
<trkpt lat="46.0649" lon="6.91349"><ele>1889.4</ele><time>2017-06-15T14:05:54Z</time></trkpt>
<trkpt lat="46.06495" lon="6.91362"><ele>1889.2</ele><time>2017-06-15T14:05:56Z</time></trkpt>
<trkpt lat="46.06507" lon="6.91378"><ele>1889</ele><time>2017-06-15T14:05:59Z</time></trkpt>
<trkpt lat="46.06515" lon="6.91389"><ele>1888.8</ele><time>2017-06-15T14:06:01Z</time></trkpt>
<trkpt lat="46.06521" lon="6.91396"><ele>1888.8</ele><time>2017-06-15T14:06:02Z</time></trkpt>
<trkpt lat="46.06532" lon="6.91409"><ele>1888.8</ele><time>2017-06-15T14:06:04Z</time></trkpt>
<trkpt lat="46.06538" lon="6.91427"><ele>1888.6</ele><time>2017-06-15T14:06:06Z</time></trkpt>
<trkpt lat="46.06539" lon="6.91438"><ele>1888.6</ele><time>2017-06-15T14:06:07Z</time></trkpt>
<trkpt lat="46.0654" lon="6.91459"><ele>1888.4</ele><time>2017-06-15T14:06:09Z</time></trkpt>
<trkpt lat="46.0654" lon="6.9147"><ele>1888.4</ele><time>2017-06-15T14:06:10Z</time></trkpt>
<trkpt lat="46.06541" lon="6.9148"><ele>1888.2</ele><time>2017-06-15T14:06:11Z</time></trkpt>
<trkpt lat="46.06541" lon="6.91491"><ele>1888.2</ele><time>2017-06-15T14:06:12Z</time></trkpt>
<trkpt lat="46.06542" lon="6.91501"><ele>1888</ele><time>2017-06-15T14:06:13Z</time></trkpt>
<trkpt lat="46.06542" lon="6.91512"><ele>1888</ele><time>2017-06-15T14:06:14Z</time></trkpt>
<trkpt lat="46.06543" lon="6.91545"><ele>1887.6</ele><time>2017-06-15T14:06:17Z</time></trkpt>
<trkpt lat="46.06543" lon="6.91556"><ele>1887.6</ele><time>2017-06-15T14:06:18Z</time></trkpt>
<trkpt lat="46.06544" lon="6.91567"><ele>1887.4</ele><time>2017-06-15T14:06:19Z</time></trkpt>
<trkpt lat="46.06544" lon="6.91578"><ele>1887.4</ele><time>2017-06-15T14:06:20Z</time></trkpt>
<trkpt lat="46.06547" lon="6.91609"><ele>1887</ele><time>2017-06-15T14:06:23Z</time></trkpt>
<trkpt lat="46.06547" lon="6.9162"><ele>1887</ele><time>2017-06-15T14:06:24Z</time></trkpt>
<trkpt lat="46.06549" lon="6.91641"><ele>1886.6</ele><time>2017-06-15T14:06:26Z</time></trkpt>
<trkpt lat="46.0655" lon="6.9165"><ele>1886.6</ele><time>2017-06-15T14:06:27Z</time></trkpt>
<trkpt lat="46.06553" lon="6.9167"><ele>1886.4</ele><time>2017-06-15T14:06:29Z</time></trkpt>
<trkpt lat="46.06554" lon="6.9168"><ele>1886.2</ele><time>2017-06-15T14:06:30Z</time></trkpt>
<trkpt lat="46.06556" lon="6.91689"><ele>1886.2</ele><time>2017-06-15T14:06:31Z</time></trkpt>
<trkpt lat="46.0656" lon="6.91697"><ele>1886</ele><time>2017-06-15T14:06:32Z</time></trkpt>
<trkpt lat="46.06568" lon="6.91714"><ele>1885.8</ele><time>2017-06-15T14:06:34Z</time></trkpt>
<trkpt lat="46.06572" lon="6.91721"><ele>1885.8</ele><time>2017-06-15T14:06:35Z</time></trkpt>
<trkpt lat="46.06581" lon="6.91734"><ele>1885.6</ele><time>2017-06-15T14:06:37Z</time></trkpt>
<trkpt lat="46.0659" lon="6.91748"><ele>1885.4</ele><time>2017-06-15T14:06:39Z</time></trkpt>
<trkpt lat="46.06594" lon="6.91755"><ele>1885.4</ele><time>2017-06-15T14:06:40Z</time></trkpt>
<trkpt lat="46.06597" lon="6.91763"><ele>1885.4</ele><time>2017-06-15T14:06:41Z</time></trkpt>
<trkpt lat="46.06599" lon="6.91771"><ele>1885.6</ele><time>2017-06-15T14:06:42Z</time></trkpt>
<trkpt lat="46.06608" lon="6.91794"><ele>1885.6</ele><time>2017-06-15T14:06:45Z</time></trkpt>
<trkpt lat="46.06611" lon="6.91802"><ele>1885.6</ele><time>2017-06-15T14:06:46Z</time></trkpt>
<trkpt lat="46.06617" lon="6.91817"><ele>1885.8</ele><time>2017-06-15T14:06:48Z</time></trkpt>
<trkpt lat="46.0663" lon="6.91839"><ele>1885.8</ele><time>2017-06-15T14:06:51Z</time></trkpt>
<trkpt lat="46.06639" lon="6.91853"><ele>1886</ele><time>2017-06-15T14:06:53Z</time></trkpt>
<trkpt lat="46.06643" lon="6.9186"><ele>1886</ele><time>2017-06-15T14:06:54Z</time></trkpt>
<trkpt lat="46.06647" lon="6.91868"><ele>1886</ele><time>2017-06-15T14:06:55Z</time></trkpt>
<trkpt lat="46.0665" lon="6.91876"><ele>1886</ele><time>2017-06-15T14:06:56Z</time></trkpt>
<trkpt lat="46.06656" lon="6.91893"><ele>1886.2</ele><time>2017-06-15T14:06:58Z</time></trkpt>
<trkpt lat="46.06658" lon="6.91902"><ele>1886.2</ele><time>2017-06-15T14:06:59Z</time></trkpt>
<trkpt lat="46.0666" lon="6.9191"><ele>1886.2</ele><time>2017-06-15T14:07:00Z</time></trkpt>
<trkpt lat="46.06664" lon="6.91917"><ele>1886.2</ele><time>2017-06-15T14:07:01Z</time></trkpt>
<trkpt lat="46.06668" lon="6.91925"><ele>1886.2</ele><time>2017-06-15T14:07:02Z</time></trkpt>
<trkpt lat="46.0668" lon="6.91947"><ele>1886.4</ele><time>2017-06-15T14:07:05Z</time></trkpt>
<trkpt lat="46.06684" lon="6.91955"><ele>1886.4</ele><time>2017-06-15T14:07:06Z</time></trkpt>
<trkpt lat="46.06687" lon="6.91963"><ele>1886.4</ele><time>2017-06-15T14:07:07Z</time></trkpt>
<trkpt lat="46.06694" lon="6.91975"><ele>1886.6</ele><time>2017-06-15T14:07:09Z</time></trkpt>
<trkpt lat="46.06693" lon="6.91993"><ele>1886.6</ele><time>2017-06-15T14:07:11Z</time></trkpt>
<trkpt lat="46.06693" lon="6.92011"><ele>1886.8</ele><time>2017-06-15T14:07:13Z</time></trkpt>
<trkpt lat="46.06695" lon="6.92027"><ele>1886.8</ele><time>2017-06-15T14:07:15Z</time></trkpt>
<trkpt lat="46.06698" lon="6.92044"><ele>1886.8</ele><time>2017-06-15T14:07:17Z</time></trkpt>
<trkpt lat="46.067" lon="6.9206"><ele>1887</ele><time>2017-06-15T14:07:19Z</time></trkpt>
<trkpt lat="46.06703" lon="6.92077"><ele>1887</ele><time>2017-06-15T14:07:21Z</time></trkpt>
<trkpt lat="46.06708" lon="6.92094"><ele>1887</ele><time>2017-06-15T14:07:23Z</time></trkpt>
<trkpt lat="46.06713" lon="6.92111"><ele>1887.2</ele><time>2017-06-15T14:07:25Z</time></trkpt>
<trkpt lat="46.06714" lon="6.9212"><ele>1887.2</ele><time>2017-06-15T14:07:26Z</time></trkpt>
<trkpt lat="46.06717" lon="6.92148"><ele>1887.4</ele><time>2017-06-15T14:07:29Z</time></trkpt>
<trkpt lat="46.06713" lon="6.92166"><ele>1887.4</ele><time>2017-06-15T14:07:31Z</time></trkpt>
<trkpt lat="46.06709" lon="6.92184"><ele>1887.4</ele><time>2017-06-15T14:07:33Z</time></trkpt>
<trkpt lat="46.06707" lon="6.92193"><ele>1887.6</ele><time>2017-06-15T14:07:34Z</time></trkpt>
<trkpt lat="46.06702" lon="6.9221"><ele>1887.6</ele><time>2017-06-15T14:07:36Z</time></trkpt>
<trkpt lat="46.067" lon="6.92218"><ele>1887.6</ele><time>2017-06-15T14:07:37Z</time></trkpt>
<trkpt lat="46.06697" lon="6.92226"><ele>1887.6</ele><time>2017-06-15T14:07:38Z</time></trkpt>
<trkpt lat="46.06692" lon="6.92239"><ele>1887.8</ele><time>2017-06-15T14:07:40Z</time></trkpt>
<trkpt lat="46.06682" lon="6.92247"><ele>1887.8</ele><time>2017-06-15T14:07:42Z</time></trkpt>
<trkpt lat="46.06669" lon="6.92259"><ele>1888</ele><time>2017-06-15T14:07:45Z</time></trkpt>
<trkpt lat="46.0666" lon="6.92259"><ele>1888</ele><time>2017-06-15T14:07:47Z</time></trkpt>
<trkpt lat="46.06651" lon="6.92259"><ele>1888</ele><time>2017-06-15T14:07:49Z</time></trkpt>
<trkpt lat="46.06646" lon="6.9226"><ele>1888.2</ele><time>2017-06-15T14:07:50Z</time></trkpt>
<trkpt lat="46.06633" lon="6.9226"><ele>1888.2</ele><time>2017-06-15T14:07:53Z</time></trkpt>
<trkpt lat="46.06629" lon="6.9226"><ele>1888.2</ele><time>2017-06-15T14:07:54Z</time></trkpt>
<trkpt lat="46.0662" lon="6.9226"><ele>1888.4</ele><time>2017-06-15T14:07:56Z</time></trkpt>
<trkpt lat="46.06606" lon="6.92252"><ele>1888.4</ele><time>2017-06-15T14:07:59Z</time></trkpt>
<trkpt lat="46.06597" lon="6.92247"><ele>1888.6</ele><time>2017-06-15T14:08:01Z</time></trkpt>
<trkpt lat="46.06588" lon="6.92242"><ele>1888.6</ele><time>2017-06-15T14:08:03Z</time></trkpt>
<trkpt lat="46.06579" lon="6.92237"><ele>1888.6</ele><time>2017-06-15T14:08:05Z</time></trkpt>
<trkpt lat="46.0657" lon="6.92234"><ele>1888.8</ele><time>2017-06-15T14:08:07Z</time></trkpt>
<trkpt lat="46.06565" lon="6.92232"><ele>1888.8</ele><time>2017-06-15T14:08:08Z</time></trkpt>
<trkpt lat="46.06561" lon="6.92232"><ele>1888.8</ele><time>2017-06-15T14:08:09Z</time></trkpt>
<trkpt lat="46.06553" lon="6.92238"><ele>1888.6</ele><time>2017-06-15T14:08:11Z</time></trkpt>
<trkpt lat="46.06549" lon="6.92242"><ele>1888.6</ele><time>2017-06-15T14:08:12Z</time></trkpt>
<trkpt lat="46.06545" lon="6.92256"><ele>1888.6</ele><time>2017-06-15T14:08:14Z</time></trkpt>
<trkpt lat="46.06541" lon="6.92269"><ele>1888.6</ele><time>2017-06-15T14:08:16Z</time></trkpt>
<trkpt lat="46.06535" lon="6.92289"><ele>1888.4</ele><time>2017-06-15T14:08:19Z</time></trkpt>
<trkpt lat="46.06531" lon="6.92303"><ele>1888.4</ele><time>2017-06-15T14:08:21Z</time></trkpt>
<trkpt lat="46.06528" lon="6.92315"><ele>1888.2</ele><time>2017-06-15T14:08:23Z</time></trkpt>
<trkpt lat="46.06525" lon="6.92328"><ele>1888.2</ele><time>2017-06-15T14:08:25Z</time></trkpt>
<trkpt lat="46.06523" lon="6.92334"><ele>1888.2</ele><time>2017-06-15T14:08:26Z</time></trkpt>
<trkpt lat="46.0652" lon="6.92347"><ele>1888</ele><time>2017-06-15T14:08:28Z</time></trkpt>
<trkpt lat="46.0652" lon="6.92361"><ele>1888</ele><time>2017-06-15T14:08:30Z</time></trkpt>
<trkpt lat="46.0652" lon="6.92375"><ele>1888</ele><time>2017-06-15T14:08:32Z</time></trkpt>
<trkpt lat="46.06523" lon="6.92388"><ele>1887.8</ele><time>2017-06-15T14:08:34Z</time></trkpt>
<trkpt lat="46.06522" lon="6.92394"><ele>1887.8</ele><time>2017-06-15T14:08:35Z</time></trkpt>
<trkpt lat="46.06523" lon="6.92406"><ele>1887.8</ele><time>2017-06-15T14:08:37Z</time></trkpt>
<trkpt lat="46.06529" lon="6.92419"><ele>1887.8</ele><time>2017-06-15T14:08:39Z</time></trkpt>
<trkpt lat="46.06535" lon="6.92433"><ele>1887.6</ele><time>2017-06-15T14:08:41Z</time></trkpt>
<trkpt lat="46.06538" lon="6.9244"><ele>1887.6</ele><time>2017-06-15T14:08:42Z</time></trkpt>
<trkpt lat="46.06547" lon="6.9246"><ele>1887.6</ele><time>2017-06-15T14:08:45Z</time></trkpt>
<trkpt lat="46.06551" lon="6.92476"><ele>1887.4</ele><time>2017-06-15T14:08:47Z</time></trkpt>
<trkpt lat="46.06555" lon="6.92492"><ele>1887.4</ele><time>2017-06-15T14:08:49Z</time></trkpt>
<trkpt lat="46.06558" lon="6.92499"><ele>1887.4</ele><time>2017-06-15T14:08:50Z</time></trkpt>
<trkpt lat="46.06558" lon="6.92506"><ele>1887.4</ele><time>2017-06-15T14:08:51Z</time></trkpt>
<trkpt lat="46.06557" lon="6.92519"><ele>1887.2</ele><time>2017-06-15T14:08:53Z</time></trkpt>
<trkpt lat="46.0655" lon="6.92531"><ele>1887.2</ele><time>2017-06-15T14:08:55Z</time></trkpt>
<trkpt lat="46.06544" lon="6.92542"><ele>1887.2</ele><time>2017-06-15T14:08:57Z</time></trkpt>
<trkpt lat="46.06541" lon="6.92548"><ele>1887</ele><time>2017-06-15T14:08:58Z</time></trkpt>
<trkpt lat="46.06532" lon="6.92566"><ele>1887</ele><time>2017-06-15T14:09:01Z</time></trkpt>
<trkpt lat="46.06529" lon="6.92572"><ele>1887</ele><time>2017-06-15T14:09:02Z</time></trkpt>
<trkpt lat="46.06523" lon="6.92595"><ele>1886.8</ele><time>2017-06-15T14:09:05Z</time></trkpt>
<trkpt lat="46.06521" lon="6.92603"><ele>1886.8</ele><time>2017-06-15T14:09:06Z</time></trkpt>
<trkpt lat="46.06515" lon="6.92626"><ele>1886.8</ele><time>2017-06-15T14:09:09Z</time></trkpt>
<trkpt lat="46.06513" lon="6.92633"><ele>1886.6</ele><time>2017-06-15T14:09:10Z</time></trkpt>
<trkpt lat="46.06511" lon="6.92641"><ele>1886.6</ele><time>2017-06-15T14:09:11Z</time></trkpt>
<trkpt lat="46.06505" lon="6.92656"><ele>1886.6</ele><time>2017-06-15T14:09:13Z</time></trkpt>
<trkpt lat="46.06503" lon="6.92664"><ele>1886.6</ele><time>2017-06-15T14:09:14Z</time></trkpt>
<trkpt lat="46.06497" lon="6.9269"><ele>1886.4</ele><time>2017-06-15T14:09:17Z</time></trkpt>
<trkpt lat="46.06493" lon="6.92707"><ele>1886.4</ele><time>2017-06-15T14:09:19Z</time></trkpt>
<trkpt lat="46.06492" lon="6.92717"><ele>1886.4</ele><time>2017-06-15T14:09:20Z</time></trkpt>
<trkpt lat="46.06493" lon="6.92738"><ele>1886.2</ele><time>2017-06-15T14:09:22Z</time></trkpt>
<trkpt lat="46.06495" lon="6.92748"><ele>1886.2</ele><time>2017-06-15T14:09:23Z</time></trkpt>
<trkpt lat="46.06497" lon="6.92758"><ele>1886.2</ele><time>2017-06-15T14:09:24Z</time></trkpt>
<trkpt lat="46.065" lon="6.92768"><ele>1885.8</ele><time>2017-06-15T14:09:25Z</time></trkpt>
<trkpt lat="46.06507" lon="6.92786"><ele>1885.4</ele><time>2017-06-15T14:09:27Z</time></trkpt>
<trkpt lat="46.06519" lon="6.92799"><ele>1884.8</ele><time>2017-06-15T14:09:29Z</time></trkpt>
<trkpt lat="46.06525" lon="6.92805"><ele>1884.6</ele><time>2017-06-15T14:09:30Z</time></trkpt>
<trkpt lat="46.06536" lon="6.92819"><ele>1884</ele><time>2017-06-15T14:09:32Z</time></trkpt>
<trkpt lat="46.0654" lon="6.92828"><ele>1883.8</ele><time>2017-06-15T14:09:33Z</time></trkpt>
<trkpt lat="46.06543" lon="6.92837"><ele>1883.4</ele><time>2017-06-15T14:09:34Z</time></trkpt>
<trkpt lat="46.06543" lon="6.92846"><ele>1883.2</ele><time>2017-06-15T14:09:35Z</time></trkpt>
<trkpt lat="46.06544" lon="6.92856"><ele>1883</ele><time>2017-06-15T14:09:36Z</time></trkpt>
<trkpt lat="46.06549" lon="6.92887"><ele>1883</ele><time>2017-06-15T14:09:39Z</time></trkpt>
<trkpt lat="46.06548" lon="6.92895"><ele>1883</ele><time>2017-06-15T14:09:40Z</time></trkpt>
<trkpt lat="46.06548" lon="6.92921"><ele>1883</ele><time>2017-06-15T14:09:43Z</time></trkpt>
<trkpt lat="46.06556" lon="6.92932"><ele>1883</ele><time>2017-06-15T14:09:45Z</time></trkpt>
<trkpt lat="46.0656" lon="6.92937"><ele>1882.8</ele><time>2017-06-15T14:09:46Z</time></trkpt>
<trkpt lat="46.06572" lon="6.92954"><ele>1882.8</ele><time>2017-06-15T14:09:49Z</time></trkpt>
<trkpt lat="46.0658" lon="6.92964"><ele>1882.8</ele><time>2017-06-15T14:09:51Z</time></trkpt>
<trkpt lat="46.06583" lon="6.9297"><ele>1882.8</ele><time>2017-06-15T14:09:52Z</time></trkpt>
<trkpt lat="46.06587" lon="6.92978"><ele>1882.8</ele><time>2017-06-15T14:09:53Z</time></trkpt>
<trkpt lat="46.0659" lon="6.92985"><ele>1882.8</ele><time>2017-06-15T14:09:54Z</time></trkpt>
<trkpt lat="46.06597" lon="6.92999"><ele>1882.8</ele><time>2017-06-15T14:09:56Z</time></trkpt>
<trkpt lat="46.06607" lon="6.93021"><ele>1882.8</ele><time>2017-06-15T14:09:59Z</time></trkpt>
<trkpt lat="46.06609" lon="6.93029"><ele>1882.8</ele><time>2017-06-15T14:10:00Z</time></trkpt>
<trkpt lat="46.0661" lon="6.93038"><ele>1882.8</ele><time>2017-06-15T14:10:01Z</time></trkpt>
<trkpt lat="46.0661" lon="6.93048"><ele>1882.8</ele><time>2017-06-15T14:10:02Z</time></trkpt>
<trkpt lat="46.06612" lon="6.93055"><ele>1882.8</ele><time>2017-06-15T14:10:03Z</time></trkpt>
<trkpt lat="46.06616" lon="6.93061"><ele>1882.8</ele><time>2017-06-15T14:10:04Z</time></trkpt>
<trkpt lat="46.0662" lon="6.93066"><ele>1883</ele><time>2017-06-15T14:10:05Z</time></trkpt>
<trkpt lat="46.0663" lon="6.93071"><ele>1883</ele><time>2017-06-15T14:10:07Z</time></trkpt>
<trkpt lat="46.06641" lon="6.93076"><ele>1883</ele><time>2017-06-15T14:10:09Z</time></trkpt>
<trkpt lat="46.06646" lon="6.93079"><ele>1883</ele><time>2017-06-15T14:10:10Z</time></trkpt>
<trkpt lat="46.06662" lon="6.93087"><ele>1883</ele><time>2017-06-15T14:10:13Z</time></trkpt>
<trkpt lat="46.06667" lon="6.93089"><ele>1883</ele><time>2017-06-15T14:10:14Z</time></trkpt>
<trkpt lat="46.0667" lon="6.93092"><ele>1883</ele><time>2017-06-15T14:10:15Z</time></trkpt>
<trkpt lat="46.06676" lon="6.93097"><ele>1883</ele><time>2017-06-15T14:10:17Z</time></trkpt>
<trkpt lat="46.06682" lon="6.93102"><ele>1883</ele><time>2017-06-15T14:10:19Z</time></trkpt>
<trkpt lat="46.06685" lon="6.93104"><ele>1883</ele><time>2017-06-15T14:10:20Z</time></trkpt>
<trkpt lat="46.0669" lon="6.93109"><ele>1883</ele><time>2017-06-15T14:10:22Z</time></trkpt>
<trkpt lat="46.06699" lon="6.93116"><ele>1883</ele><time>2017-06-15T14:10:25Z</time></trkpt>
<trkpt lat="46.06718" lon="6.93145"><ele>1884.6</ele><time>2017-06-15T14:10:27Z</time></trkpt>
<trkpt lat="46.06718" lon="6.93145"><ele>1884.6</ele><time>2017-06-15T14:16:27Z</time></trkpt>
<trkpt lat="46.06731" lon="6.93168"><ele>1886</ele><time>2017-06-15T14:16:29Z</time></trkpt>
<trkpt lat="46.06741" lon="6.93184"><ele>1886.2</ele><time>2017-06-15T14:16:33Z</time></trkpt>
<trkpt lat="46.06744" lon="6.93188"><ele>1886.2</ele><time>2017-06-15T14:16:34Z</time></trkpt>
<trkpt lat="46.06751" lon="6.93205"><ele>1886.2</ele><time>2017-06-15T14:16:36Z</time></trkpt>
<trkpt lat="46.06762" lon="6.93231"><ele>1886.2</ele><time>2017-06-15T14:16:39Z</time></trkpt>
<trkpt lat="46.06768" lon="6.93248"><ele>1886.2</ele><time>2017-06-15T14:16:41Z</time></trkpt>
<trkpt lat="46.0677" lon="6.93258"><ele>1886.2</ele><time>2017-06-15T14:16:42Z</time></trkpt>
<trkpt lat="46.06775" lon="6.93286"><ele>1886.2</ele><time>2017-06-15T14:16:45Z</time></trkpt>
<trkpt lat="46.06776" lon="6.93295"><ele>1886.2</ele><time>2017-06-15T14:16:46Z</time></trkpt>
<trkpt lat="46.06779" lon="6.93314"><ele>1886.2</ele><time>2017-06-15T14:16:48Z</time></trkpt>
<trkpt lat="46.0678" lon="6.93323"><ele>1886.2</ele><time>2017-06-15T14:16:49Z</time></trkpt>
<trkpt lat="46.06781" lon="6.93341"><ele>1886.2</ele><time>2017-06-15T14:16:51Z</time></trkpt>
<trkpt lat="46.06782" lon="6.93359"><ele>1886.2</ele><time>2017-06-15T14:16:53Z</time></trkpt>
<trkpt lat="46.06783" lon="6.93377"><ele>1886.4</ele><time>2017-06-15T14:16:55Z</time></trkpt>
<trkpt lat="46.06783" lon="6.93386"><ele>1886.4</ele><time>2017-06-15T14:16:56Z</time></trkpt>
<trkpt lat="46.06782" lon="6.934"><ele>1886.4</ele><time>2017-06-15T14:16:58Z</time></trkpt>
<trkpt lat="46.0678" lon="6.93414"><ele>1886.4</ele><time>2017-06-15T14:17:00Z</time></trkpt>
<trkpt lat="46.06779" lon="6.93436"><ele>1886.4</ele><time>2017-06-15T14:17:03Z</time></trkpt>
<trkpt lat="46.06778" lon="6.9345"><ele>1886.4</ele><time>2017-06-15T14:17:05Z</time></trkpt>
<trkpt lat="46.06776" lon="6.93457"><ele>1886.4</ele><time>2017-06-15T14:17:06Z</time></trkpt>
<trkpt lat="46.0677" lon="6.93477"><ele>1886.4</ele><time>2017-06-15T14:17:09Z</time></trkpt>
<trkpt lat="46.06765" lon="6.9348"><ele>1886.4</ele><time>2017-06-15T14:17:11Z</time></trkpt>
<trkpt lat="46.06761" lon="6.93484"><ele>1886.4</ele><time>2017-06-15T14:17:13Z</time></trkpt>
<trkpt lat="46.06756" lon="6.93487"><ele>1886.4</ele><time>2017-06-15T14:17:15Z</time></trkpt>
<trkpt lat="46.06752" lon="6.93491"><ele>1886.4</ele><time>2017-06-15T14:17:17Z</time></trkpt>
<trkpt lat="46.06749" lon="6.93492"><ele>1886.4</ele><time>2017-06-15T14:17:18Z</time></trkpt>
<trkpt lat="46.06745" lon="6.93496"><ele>1886.6</ele><time>2017-06-15T14:17:20Z</time></trkpt>
<trkpt lat="46.06743" lon="6.93498"><ele>1886.6</ele><time>2017-06-15T14:17:21Z</time></trkpt>
<trkpt lat="46.06744" lon="6.935"><ele>1886.6</ele><time>2017-06-15T14:17:22Z</time></trkpt>
<trkpt lat="46.06744" lon="6.93505"><ele>1886.6</ele><time>2017-06-15T14:17:24Z</time></trkpt>
<trkpt lat="46.06745" lon="6.93513"><ele>1887</ele><time>2017-06-15T14:17:27Z</time></trkpt>
<trkpt lat="46.06746" lon="6.93518"><ele>1887.2</ele><time>2017-06-15T14:17:29Z</time></trkpt>
<trkpt lat="46.06746" lon="6.93523"><ele>1887.6</ele><time>2017-06-15T14:17:31Z</time></trkpt>
<trkpt lat="46.06747" lon="6.93528"><ele>1887.8</ele><time>2017-06-15T14:17:33Z</time></trkpt>
<trkpt lat="46.06747" lon="6.93533"><ele>1888.2</ele><time>2017-06-15T14:17:35Z</time></trkpt>
<trkpt lat="46.06748" lon="6.93538"><ele>1888.4</ele><time>2017-06-15T14:17:37Z</time></trkpt>
<trkpt lat="46.06748" lon="6.93543"><ele>1888.8</ele><time>2017-06-15T14:17:39Z</time></trkpt>
<trkpt lat="46.06748" lon="6.93546"><ele>1888.8</ele><time>2017-06-15T14:17:40Z</time></trkpt>
<trkpt lat="46.06748" lon="6.93548"><ele>1889</ele><time>2017-06-15T14:17:41Z</time></trkpt>
<trkpt lat="46.06747" lon="6.93553"><ele>1889.2</ele><time>2017-06-15T14:17:43Z</time></trkpt>
<trkpt lat="46.06746" lon="6.93557"><ele>1889.6</ele><time>2017-06-15T14:17:45Z</time></trkpt>
<trkpt lat="46.06745" lon="6.93559"><ele>1889.8</ele><time>2017-06-15T14:17:46Z</time></trkpt>
<trkpt lat="46.06745" lon="6.93562"><ele>1890</ele><time>2017-06-15T14:17:47Z</time></trkpt>
<trkpt lat="46.06744" lon="6.93566"><ele>1890.2</ele><time>2017-06-15T14:17:49Z</time></trkpt>
<trkpt lat="46.06743" lon="6.93571"><ele>1890.6</ele><time>2017-06-15T14:17:51Z</time></trkpt>
<trkpt lat="46.06742" lon="6.93576"><ele>1891</ele><time>2017-06-15T14:17:53Z</time></trkpt>
<trkpt lat="46.0674" lon="6.9358"><ele>1891.4</ele><time>2017-06-15T14:17:55Z</time></trkpt>
<trkpt lat="46.0674" lon="6.93582"><ele>1891.6</ele><time>2017-06-15T14:17:56Z</time></trkpt>
<trkpt lat="46.06739" lon="6.93587"><ele>1892</ele><time>2017-06-15T14:17:58Z</time></trkpt>
<trkpt lat="46.06737" lon="6.93594"><ele>1892.6</ele><time>2017-06-15T14:18:01Z</time></trkpt>
<trkpt lat="46.06736" lon="6.93599"><ele>1893</ele><time>2017-06-15T14:18:03Z</time></trkpt>
<trkpt lat="46.06736" lon="6.93601"><ele>1893</ele><time>2017-06-15T14:18:04Z</time></trkpt>
<trkpt lat="46.06736" lon="6.93603"><ele>1893.2</ele><time>2017-06-15T14:18:05Z</time></trkpt>
<trkpt lat="46.06737" lon="6.93607"><ele>1893.6</ele><time>2017-06-15T14:18:07Z</time></trkpt>
<trkpt lat="46.06737" lon="6.93611"><ele>1894</ele><time>2017-06-15T14:18:09Z</time></trkpt>
<trkpt lat="46.06737" lon="6.93614"><ele>1894.4</ele><time>2017-06-15T14:18:11Z</time></trkpt>
<trkpt lat="46.06738" lon="6.93618"><ele>1894.8</ele><time>2017-06-15T14:18:13Z</time></trkpt>
<trkpt lat="46.06738" lon="6.9362"><ele>1895</ele><time>2017-06-15T14:18:14Z</time></trkpt>
<trkpt lat="46.06738" lon="6.93624"><ele>1895.4</ele><time>2017-06-15T14:18:16Z</time></trkpt>
<trkpt lat="46.06738" lon="6.93628"><ele>1895.8</ele><time>2017-06-15T14:18:18Z</time></trkpt>
<trkpt lat="46.06739" lon="6.93634"><ele>1896.4</ele><time>2017-06-15T14:18:21Z</time></trkpt>
<trkpt lat="46.06739" lon="6.93638"><ele>1896.6</ele><time>2017-06-15T14:18:23Z</time></trkpt>
<trkpt lat="46.0674" lon="6.93642"><ele>1896.8</ele><time>2017-06-15T14:18:25Z</time></trkpt>
<trkpt lat="46.0674" lon="6.93644"><ele>1897</ele><time>2017-06-15T14:18:26Z</time></trkpt>
<trkpt lat="46.0674" lon="6.9365"><ele>1897.4</ele><time>2017-06-15T14:18:29Z</time></trkpt>
<trkpt lat="46.0674" lon="6.93651"><ele>1897.6</ele><time>2017-06-15T14:18:30Z</time></trkpt>
<trkpt lat="46.06741" lon="6.93657"><ele>1898</ele><time>2017-06-15T14:18:33Z</time></trkpt>
<trkpt lat="46.06741" lon="6.93659"><ele>1898</ele><time>2017-06-15T14:18:34Z</time></trkpt>
<trkpt lat="46.06741" lon="6.93665"><ele>1898.4</ele><time>2017-06-15T14:18:37Z</time></trkpt>
<trkpt lat="46.06741" lon="6.93667"><ele>1898.6</ele><time>2017-06-15T14:18:38Z</time></trkpt>
<trkpt lat="46.06739" lon="6.93673"><ele>1899</ele><time>2017-06-15T14:18:41Z</time></trkpt>
<trkpt lat="46.06739" lon="6.93675"><ele>1899</ele><time>2017-06-15T14:18:42Z</time></trkpt>
<trkpt lat="46.06738" lon="6.9368"><ele>1899.4</ele><time>2017-06-15T14:18:44Z</time></trkpt>
<trkpt lat="46.06737" lon="6.93684"><ele>1899.6</ele><time>2017-06-15T14:18:46Z</time></trkpt>
<trkpt lat="46.06736" lon="6.93688"><ele>1899.8</ele><time>2017-06-15T14:18:48Z</time></trkpt>
<trkpt lat="46.06735" lon="6.9369"><ele>1900</ele><time>2017-06-15T14:18:49Z</time></trkpt>
<trkpt lat="46.06735" lon="6.93692"><ele>1900</ele><time>2017-06-15T14:18:50Z</time></trkpt>
<trkpt lat="46.06734" lon="6.93696"><ele>1900.2</ele><time>2017-06-15T14:18:52Z</time></trkpt>
<trkpt lat="46.06733" lon="6.937"><ele>1900.4</ele><time>2017-06-15T14:18:54Z</time></trkpt>
<trkpt lat="46.06731" lon="6.93704"><ele>1900.6</ele><time>2017-06-15T14:18:56Z</time></trkpt>
<trkpt lat="46.0673" lon="6.93708"><ele>1900.8</ele><time>2017-06-15T14:18:58Z</time></trkpt>
<trkpt lat="46.06729" lon="6.93712"><ele>1901</ele><time>2017-06-15T14:19:00Z</time></trkpt>
<trkpt lat="46.06728" lon="6.93719"><ele>1901.4</ele><time>2017-06-15T14:19:03Z</time></trkpt>
<trkpt lat="46.06727" lon="6.93723"><ele>1901.8</ele><time>2017-06-15T14:19:05Z</time></trkpt>
<trkpt lat="46.06726" lon="6.93727"><ele>1902</ele><time>2017-06-15T14:19:07Z</time></trkpt>
<trkpt lat="46.06724" lon="6.9373"><ele>1902.2</ele><time>2017-06-15T14:19:09Z</time></trkpt>
<trkpt lat="46.06723" lon="6.93733"><ele>1902.6</ele><time>2017-06-15T14:19:11Z</time></trkpt>
<trkpt lat="46.06722" lon="6.93736"><ele>1902.8</ele><time>2017-06-15T14:19:13Z</time></trkpt>
<trkpt lat="46.0672" lon="6.93739"><ele>1903</ele><time>2017-06-15T14:19:15Z</time></trkpt>
<trkpt lat="46.06719" lon="6.93742"><ele>1903.4</ele><time>2017-06-15T14:19:17Z</time></trkpt>
<trkpt lat="46.06718" lon="6.93745"><ele>1903.6</ele><time>2017-06-15T14:19:19Z</time></trkpt>
<trkpt lat="46.06717" lon="6.93747"><ele>1903.8</ele><time>2017-06-15T14:19:20Z</time></trkpt>
<trkpt lat="46.06716" lon="6.93748"><ele>1903.8</ele><time>2017-06-15T14:19:21Z</time></trkpt>
<trkpt lat="46.06715" lon="6.93751"><ele>1904</ele><time>2017-06-15T14:19:23Z</time></trkpt>
<trkpt lat="46.06714" lon="6.93754"><ele>1904.2</ele><time>2017-06-15T14:19:25Z</time></trkpt>
<trkpt lat="46.0671" lon="6.93762"><ele>1904.8</ele><time>2017-06-15T14:19:30Z</time></trkpt>
<trkpt lat="46.06709" lon="6.93765"><ele>1905</ele><time>2017-06-15T14:19:32Z</time></trkpt>
<trkpt lat="46.06708" lon="6.93767"><ele>1905.2</ele><time>2017-06-15T14:19:34Z</time></trkpt>
<trkpt lat="46.06713" lon="6.93764"><ele>1905.6</ele><time>2017-06-15T14:19:37Z</time></trkpt>
<trkpt lat="46.06716" lon="6.93762"><ele>1905.8</ele><time>2017-06-15T14:19:39Z</time></trkpt>
<trkpt lat="46.06719" lon="6.9376"><ele>1906</ele><time>2017-06-15T14:19:41Z</time></trkpt>
<trkpt lat="46.06722" lon="6.93758"><ele>1906.4</ele><time>2017-06-15T14:19:43Z</time></trkpt>
<trkpt lat="46.06725" lon="6.93756"><ele>1906.6</ele><time>2017-06-15T14:19:45Z</time></trkpt>
<trkpt lat="46.06727" lon="6.93755"><ele>1906.6</ele><time>2017-06-15T14:19:46Z</time></trkpt>
<trkpt lat="46.06731" lon="6.93752"><ele>1907</ele><time>2017-06-15T14:19:49Z</time></trkpt>
<trkpt lat="46.06734" lon="6.9375"><ele>1907.2</ele><time>2017-06-15T14:19:51Z</time></trkpt>
<trkpt lat="46.06736" lon="6.9375"><ele>1907.4</ele><time>2017-06-15T14:19:52Z</time></trkpt>
<trkpt lat="46.0674" lon="6.93747"><ele>1907.6</ele><time>2017-06-15T14:19:55Z</time></trkpt>
<trkpt lat="46.06743" lon="6.93745"><ele>1907.8</ele><time>2017-06-15T14:19:57Z</time></trkpt>
<trkpt lat="46.06747" lon="6.93743"><ele>1908</ele><time>2017-06-15T14:19:59Z</time></trkpt>
<trkpt lat="46.0675" lon="6.93741"><ele>1908.2</ele><time>2017-06-15T14:20:01Z</time></trkpt>
<trkpt lat="46.06751" lon="6.93739"><ele>1908.4</ele><time>2017-06-15T14:20:02Z</time></trkpt>
<trkpt lat="46.06753" lon="6.93736"><ele>1908.6</ele><time>2017-06-15T14:20:04Z</time></trkpt>
<trkpt lat="46.06754" lon="6.93732"><ele>1908.8</ele><time>2017-06-15T14:20:06Z</time></trkpt>
<trkpt lat="46.06756" lon="6.93728"><ele>1909</ele><time>2017-06-15T14:20:08Z</time></trkpt>
<trkpt lat="46.06759" lon="6.93723"><ele>1909.4</ele><time>2017-06-15T14:20:11Z</time></trkpt>
<trkpt lat="46.06761" lon="6.93719"><ele>1909.6</ele><time>2017-06-15T14:20:13Z</time></trkpt>
<trkpt lat="46.06763" lon="6.93715"><ele>1909.8</ele><time>2017-06-15T14:20:15Z</time></trkpt>
<trkpt lat="46.06764" lon="6.93711"><ele>1910.2</ele><time>2017-06-15T14:20:17Z</time></trkpt>
<trkpt lat="46.06766" lon="6.93708"><ele>1910.4</ele><time>2017-06-15T14:20:19Z</time></trkpt>
<trkpt lat="46.06768" lon="6.93704"><ele>1910.8</ele><time>2017-06-15T14:20:21Z</time></trkpt>
<trkpt lat="46.06769" lon="6.93702"><ele>1911</ele><time>2017-06-15T14:20:22Z</time></trkpt>
<trkpt lat="46.06772" lon="6.93696"><ele>1911.4</ele><time>2017-06-15T14:20:25Z</time></trkpt>
<trkpt lat="46.06773" lon="6.93693"><ele>1911.6</ele><time>2017-06-15T14:20:27Z</time></trkpt>
<trkpt lat="46.06775" lon="6.93689"><ele>1912</ele><time>2017-06-15T14:20:29Z</time></trkpt>
<trkpt lat="46.06777" lon="6.93686"><ele>1912.2</ele><time>2017-06-15T14:20:31Z</time></trkpt>
<trkpt lat="46.06779" lon="6.93683"><ele>1912.6</ele><time>2017-06-15T14:20:33Z</time></trkpt>
<trkpt lat="46.06781" lon="6.93682"><ele>1912.8</ele><time>2017-06-15T14:20:34Z</time></trkpt>
<trkpt lat="46.06783" lon="6.93679"><ele>1913</ele><time>2017-06-15T14:20:36Z</time></trkpt>
<trkpt lat="46.06787" lon="6.93676"><ele>1913.4</ele><time>2017-06-15T14:20:39Z</time></trkpt>
<trkpt lat="46.06789" lon="6.93673"><ele>1913.8</ele><time>2017-06-15T14:20:41Z</time></trkpt>
<trkpt lat="46.06791" lon="6.93671"><ele>1914</ele><time>2017-06-15T14:20:43Z</time></trkpt>
<trkpt lat="46.06794" lon="6.93669"><ele>1914.2</ele><time>2017-06-15T14:20:45Z</time></trkpt>
<trkpt lat="46.06796" lon="6.93666"><ele>1914.4</ele><time>2017-06-15T14:20:47Z</time></trkpt>
<trkpt lat="46.06798" lon="6.93664"><ele>1914.6</ele><time>2017-06-15T14:20:49Z</time></trkpt>
<trkpt lat="46.06801" lon="6.93661"><ele>1914.8</ele><time>2017-06-15T14:20:51Z</time></trkpt>
<trkpt lat="46.06803" lon="6.93659"><ele>1915</ele><time>2017-06-15T14:20:53Z</time></trkpt>
<trkpt lat="46.06806" lon="6.93657"><ele>1915.2</ele><time>2017-06-15T14:20:55Z</time></trkpt>
<trkpt lat="46.06808" lon="6.93654"><ele>1915.4</ele><time>2017-06-15T14:20:57Z</time></trkpt>
<trkpt lat="46.0681" lon="6.93652"><ele>1915.6</ele><time>2017-06-15T14:20:59Z</time></trkpt>
<trkpt lat="46.06812" lon="6.9365"><ele>1915.8</ele><time>2017-06-15T14:21:02Z</time></trkpt>
<trkpt lat="46.06812" lon="6.9365"><ele>1915.8</ele><time>2017-06-15T14:22:03Z</time></trkpt>
<trkpt lat="46.06811" lon="6.9365"><ele>1915.8</ele><time>2017-06-15T14:22:05Z</time></trkpt>
<trkpt lat="46.0681" lon="6.93647"><ele>1915.8</ele><time>2017-06-15T14:22:07Z</time></trkpt>
<trkpt lat="46.06808" lon="6.93644"><ele>1915.8</ele><time>2017-06-15T14:22:09Z</time></trkpt>
<trkpt lat="46.06807" lon="6.93641"><ele>1915.8</ele><time>2017-06-15T14:22:11Z</time></trkpt>
<trkpt lat="46.06806" lon="6.93638"><ele>1915.8</ele><time>2017-06-15T14:22:13Z</time></trkpt>
<trkpt lat="46.06805" lon="6.93636"><ele>1915.8</ele><time>2017-06-15T14:22:14Z</time></trkpt>
<trkpt lat="46.06803" lon="6.93632"><ele>1915.8</ele><time>2017-06-15T14:22:17Z</time></trkpt>
<trkpt lat="46.06802" lon="6.93629"><ele>1915.8</ele><time>2017-06-15T14:22:19Z</time></trkpt>
<trkpt lat="46.06801" lon="6.93625"><ele>1915.8</ele><time>2017-06-15T14:22:21Z</time></trkpt>
<trkpt lat="46.06799" lon="6.93622"><ele>1915.8</ele><time>2017-06-15T14:22:23Z</time></trkpt>
<trkpt lat="46.06798" lon="6.93619"><ele>1915.8</ele><time>2017-06-15T14:22:25Z</time></trkpt>
<trkpt lat="46.06798" lon="6.93609"><ele>1914.6</ele><time>2017-06-15T14:22:27Z</time></trkpt>
<trkpt lat="46.06798" lon="6.93609"><ele>1914.6</ele><time>2017-06-15T14:32:01Z</time></trkpt>
<trkpt lat="46.06798" lon="6.93602"><ele>1913.6</ele><time>2017-06-15T14:32:02Z</time></trkpt>
<trkpt lat="46.06799" lon="6.93604"><ele>1913.6</ele><time>2017-06-15T14:32:03Z</time></trkpt>
<trkpt lat="46.068" lon="6.93609"><ele>1913.6</ele><time>2017-06-15T14:32:05Z</time></trkpt>
<trkpt lat="46.068" lon="6.93613"><ele>1913.4</ele><time>2017-06-15T14:32:07Z</time></trkpt>
<trkpt lat="46.068" lon="6.93615"><ele>1913.4</ele><time>2017-06-15T14:32:08Z</time></trkpt>
<trkpt lat="46.06797" lon="6.93616"><ele>1913.4</ele><time>2017-06-15T14:32:09Z</time></trkpt>
<trkpt lat="46.06796" lon="6.93616"><ele>1913.4</ele><time>2017-06-15T14:32:10Z</time></trkpt>
<trkpt lat="46.06794" lon="6.93609"><ele>1913.4</ele><time>2017-06-15T14:32:12Z</time></trkpt>
<trkpt lat="46.06796" lon="6.93607"><ele>1913.4</ele><time>2017-06-15T14:32:13Z</time></trkpt>
<trkpt lat="46.06798" lon="6.93607"><ele>1913.4</ele><time>2017-06-15T14:32:14Z</time></trkpt>
<trkpt lat="46.068" lon="6.9361"><ele>1913.4</ele><time>2017-06-15T14:32:15Z</time></trkpt>
<trkpt lat="46.06802" lon="6.93614"><ele>1913.4</ele><time>2017-06-15T14:32:16Z</time></trkpt>
<trkpt lat="46.06803" lon="6.9362"><ele>1913.4</ele><time>2017-06-15T14:32:17Z</time></trkpt>
<trkpt lat="46.06805" lon="6.93631"><ele>1913.4</ele><time>2017-06-15T14:32:19Z</time></trkpt>
<trkpt lat="46.06806" lon="6.93642"><ele>1913.4</ele><time>2017-06-15T14:32:21Z</time></trkpt>
<trkpt lat="46.06808" lon="6.93653"><ele>1913.4</ele><time>2017-06-15T14:32:23Z</time></trkpt>
<trkpt lat="46.0681" lon="6.93659"><ele>1913.4</ele><time>2017-06-15T14:32:24Z</time></trkpt>
<trkpt lat="46.06819" lon="6.9367"><ele>1913.4</ele><time>2017-06-15T14:32:26Z</time></trkpt>
<trkpt lat="46.06828" lon="6.93682"><ele>1913.4</ele><time>2017-06-15T14:32:28Z</time></trkpt>
<trkpt lat="46.06837" lon="6.93693"><ele>1913.4</ele><time>2017-06-15T14:32:30Z</time></trkpt>
<trkpt lat="46.06851" lon="6.93713"><ele>1913.4</ele><time>2017-06-15T14:32:33Z</time></trkpt>
<trkpt lat="46.06858" lon="6.93724"><ele>1913.2</ele><time>2017-06-15T14:32:34Z</time></trkpt>
<trkpt lat="46.06865" lon="6.93736"><ele>1912.4</ele><time>2017-06-15T14:32:35Z</time></trkpt>
<trkpt lat="46.06872" lon="6.93747"><ele>1911.8</ele><time>2017-06-15T14:32:36Z</time></trkpt>
<trkpt lat="46.06878" lon="6.93761"><ele>1911</ele><time>2017-06-15T14:32:37Z</time></trkpt>
<trkpt lat="46.06886" lon="6.938"><ele>1909.6</ele><time>2017-06-15T14:32:39Z</time></trkpt>
<trkpt lat="46.0689" lon="6.9382"><ele>1908.8</ele><time>2017-06-15T14:32:40Z</time></trkpt>
<trkpt lat="46.06894" lon="6.9384"><ele>1907.8</ele><time>2017-06-15T14:32:41Z</time></trkpt>
<trkpt lat="46.06902" lon="6.93878"><ele>1905.8</ele><time>2017-06-15T14:32:43Z</time></trkpt>
<trkpt lat="46.06914" lon="6.93906"><ele>1903.8</ele><time>2017-06-15T14:32:45Z</time></trkpt>
<trkpt lat="46.06926" lon="6.93933"><ele>1901.8</ele><time>2017-06-15T14:32:47Z</time></trkpt>
<trkpt lat="46.06942" lon="6.94012"><ele>1895.4</ele><time>2017-06-15T14:32:49Z</time></trkpt>
<trkpt lat="46.06955" lon="6.94058"><ele>1889.4</ele><time>2017-06-15T14:32:51Z</time></trkpt>
<trkpt lat="46.06962" lon="6.94081"><ele>1887.8</ele><time>2017-06-15T14:32:52Z</time></trkpt>
<trkpt lat="46.0697" lon="6.94103"><ele>1886</ele><time>2017-06-15T14:32:53Z</time></trkpt>
<trkpt lat="46.06987" lon="6.94147"><ele>1882.6</ele><time>2017-06-15T14:32:55Z</time></trkpt>
<trkpt lat="46.06998" lon="6.94166"><ele>1881</ele><time>2017-06-15T14:32:56Z</time></trkpt>
<trkpt lat="46.07006" lon="6.94184"><ele>1879.2</ele><time>2017-06-15T14:32:57Z</time></trkpt>
<trkpt lat="46.07022" lon="6.9422"><ele>1875.8</ele><time>2017-06-15T14:32:59Z</time></trkpt>
<trkpt lat="46.0703" lon="6.94237"><ele>1874.2</ele><time>2017-06-15T14:33:00Z</time></trkpt>
<trkpt lat="46.07035" lon="6.94255"><ele>1872.4</ele><time>2017-06-15T14:33:01Z</time></trkpt>
<trkpt lat="46.07041" lon="6.94273"><ele>1870.8</ele><time>2017-06-15T14:33:02Z</time></trkpt>
<trkpt lat="46.07047" lon="6.94291"><ele>1869.2</ele><time>2017-06-15T14:33:03Z</time></trkpt>
<trkpt lat="46.07055" lon="6.94306"><ele>1867.8</ele><time>2017-06-15T14:33:04Z</time></trkpt>
<trkpt lat="46.07066" lon="6.94318"><ele>1866.2</ele><time>2017-06-15T14:33:05Z</time></trkpt>
<trkpt lat="46.07086" lon="6.94344"><ele>1863.2</ele><time>2017-06-15T14:33:07Z</time></trkpt>
<trkpt lat="46.07094" lon="6.94361"><ele>1861.6</ele><time>2017-06-15T14:33:08Z</time></trkpt>
<trkpt lat="46.07102" lon="6.94378"><ele>1860</ele><time>2017-06-15T14:33:09Z</time></trkpt>
<trkpt lat="46.07118" lon="6.94412"><ele>1857</ele><time>2017-06-15T14:33:11Z</time></trkpt>
<trkpt lat="46.07136" lon="6.94445"><ele>1853.8</ele><time>2017-06-15T14:33:13Z</time></trkpt>
<trkpt lat="46.07144" lon="6.94463"><ele>1852.2</ele><time>2017-06-15T14:33:14Z</time></trkpt>
<trkpt lat="46.07151" lon="6.94484"><ele>1850.6</ele><time>2017-06-15T14:33:15Z</time></trkpt>
<trkpt lat="46.07166" lon="6.94524"><ele>1847.2</ele><time>2017-06-15T14:33:17Z</time></trkpt>
<trkpt lat="46.07182" lon="6.9456"><ele>1844</ele><time>2017-06-15T14:33:19Z</time></trkpt>
<trkpt lat="46.07191" lon="6.94575"><ele>1842.2</ele><time>2017-06-15T14:33:20Z</time></trkpt>
<trkpt lat="46.07202" lon="6.94589"><ele>1840.6</ele><time>2017-06-15T14:33:21Z</time></trkpt>
<trkpt lat="46.07231" lon="6.94611"><ele>1837.4</ele><time>2017-06-15T14:33:23Z</time></trkpt>
<trkpt lat="46.07256" lon="6.94642"><ele>1834.2</ele><time>2017-06-15T14:33:25Z</time></trkpt>
<trkpt lat="46.07268" lon="6.94659"><ele>1832.6</ele><time>2017-06-15T14:33:26Z</time></trkpt>
<trkpt lat="46.07279" lon="6.94678"><ele>1830.8</ele><time>2017-06-15T14:33:27Z</time></trkpt>
<trkpt lat="46.07289" lon="6.94698"><ele>1829.2</ele><time>2017-06-15T14:33:28Z</time></trkpt>
<trkpt lat="46.07298" lon="6.94721"><ele>1827.6</ele><time>2017-06-15T14:33:29Z</time></trkpt>
<trkpt lat="46.07305" lon="6.94744"><ele>1826</ele><time>2017-06-15T14:33:30Z</time></trkpt>
<trkpt lat="46.07311" lon="6.94767"><ele>1824.4</ele><time>2017-06-15T14:33:31Z</time></trkpt>
<trkpt lat="46.07317" lon="6.94789"><ele>1822.6</ele><time>2017-06-15T14:33:32Z</time></trkpt>
<trkpt lat="46.07334" lon="6.9483"><ele>1818.6</ele><time>2017-06-15T14:33:34Z</time></trkpt>
<trkpt lat="46.07343" lon="6.9485"><ele>1816.6</ele><time>2017-06-15T14:33:35Z</time></trkpt>
<trkpt lat="46.07353" lon="6.9487"><ele>1814.4</ele><time>2017-06-15T14:33:36Z</time></trkpt>
<trkpt lat="46.07364" lon="6.94889"><ele>1812.6</ele><time>2017-06-15T14:33:37Z</time></trkpt>
<trkpt lat="46.07377" lon="6.94904"><ele>1811</ele><time>2017-06-15T14:33:38Z</time></trkpt>
<trkpt lat="46.0739" lon="6.94919"><ele>1809.2</ele><time>2017-06-15T14:33:39Z</time></trkpt>
<trkpt lat="46.07418" lon="6.94947"><ele>1806</ele><time>2017-06-15T14:33:41Z</time></trkpt>
<trkpt lat="46.0743" lon="6.94962"><ele>1804.2</ele><time>2017-06-15T14:33:42Z</time></trkpt>
<trkpt lat="46.0744" lon="6.94981"><ele>1802.4</ele><time>2017-06-15T14:33:43Z</time></trkpt>
<trkpt lat="46.07449" lon="6.94999"><ele>1800.8</ele><time>2017-06-15T14:33:44Z</time></trkpt>
<trkpt lat="46.07469" lon="6.95056"><ele>1795.4</ele><time>2017-06-15T14:33:47Z</time></trkpt>
<trkpt lat="46.07479" lon="6.95073"><ele>1793.6</ele><time>2017-06-15T14:33:48Z</time></trkpt>
<trkpt lat="46.07499" lon="6.95105"><ele>1790</ele><time>2017-06-15T14:33:50Z</time></trkpt>
<trkpt lat="46.07532" lon="6.95149"><ele>1784.4</ele><time>2017-06-15T14:33:53Z</time></trkpt>
<trkpt lat="46.07553" lon="6.95164"><ele>1781.4</ele><time>2017-06-15T14:33:55Z</time></trkpt>
<trkpt lat="46.07574" lon="6.9518"><ele>1778.4</ele><time>2017-06-15T14:33:57Z</time></trkpt>
<trkpt lat="46.07581" lon="6.95189"><ele>1777</ele><time>2017-06-15T14:33:58Z</time></trkpt>
<trkpt lat="46.07605" lon="6.95216"><ele>1773.8</ele><time>2017-06-15T14:34:01Z</time></trkpt>
<trkpt lat="46.07612" lon="6.95224"><ele>1772.6</ele><time>2017-06-15T14:34:02Z</time></trkpt>
<trkpt lat="46.07618" lon="6.95231"><ele>1771.6</ele><time>2017-06-15T14:34:03Z</time></trkpt>
<trkpt lat="46.07624" lon="6.95237"><ele>1770.4</ele><time>2017-06-15T14:34:04Z</time></trkpt>
<trkpt lat="46.0763" lon="6.95244"><ele>1769</ele><time>2017-06-15T14:34:05Z</time></trkpt>
<trkpt lat="46.07654" lon="6.95267"><ele>1766</ele><time>2017-06-15T14:34:07Z</time></trkpt>
<trkpt lat="46.07675" lon="6.95291"><ele>1764.6</ele><time>2017-06-15T14:34:08Z</time></trkpt>
<trkpt lat="46.07681" lon="6.9531"><ele>1763.2</ele><time>2017-06-15T14:34:09Z</time></trkpt>
<trkpt lat="46.07687" lon="6.9533"><ele>1761.8</ele><time>2017-06-15T14:34:10Z</time></trkpt>
<trkpt lat="46.07693" lon="6.95349"><ele>1760.4</ele><time>2017-06-15T14:34:11Z</time></trkpt>
<trkpt lat="46.07697" lon="6.95369"><ele>1759.2</ele><time>2017-06-15T14:34:12Z</time></trkpt>
<trkpt lat="46.07703" lon="6.95387"><ele>1758</ele><time>2017-06-15T14:34:13Z</time></trkpt>
<trkpt lat="46.07711" lon="6.95402"><ele>1756.8</ele><time>2017-06-15T14:34:14Z</time></trkpt>
<trkpt lat="46.07721" lon="6.95414"><ele>1755.6</ele><time>2017-06-15T14:34:15Z</time></trkpt>
<trkpt lat="46.07731" lon="6.95425"><ele>1754.4</ele><time>2017-06-15T14:34:16Z</time></trkpt>
<trkpt lat="46.07741" lon="6.95437"><ele>1753.2</ele><time>2017-06-15T14:34:17Z</time></trkpt>
<trkpt lat="46.07749" lon="6.95447"><ele>1752</ele><time>2017-06-15T14:34:18Z</time></trkpt>
<trkpt lat="46.07751" lon="6.95454"><ele>1750.8</ele><time>2017-06-15T14:34:19Z</time></trkpt>
<trkpt lat="46.07749" lon="6.9546"><ele>1749.6</ele><time>2017-06-15T14:34:20Z</time></trkpt>
<trkpt lat="46.07745" lon="6.95461"><ele>1748.4</ele><time>2017-06-15T14:34:21Z</time></trkpt>
<trkpt lat="46.07738" lon="6.95455"><ele>1747.6</ele><time>2017-06-15T14:34:22Z</time></trkpt>
<trkpt lat="46.07719" lon="6.9544"><ele>1745.6</ele><time>2017-06-15T14:34:25Z</time></trkpt>
<trkpt lat="46.07706" lon="6.95427"><ele>1744.4</ele><time>2017-06-15T14:34:27Z</time></trkpt>
<trkpt lat="46.07691" lon="6.95405"><ele>1742.6</ele><time>2017-06-15T14:34:29Z</time></trkpt>
<trkpt lat="46.07676" lon="6.95382"><ele>1740.8</ele><time>2017-06-15T14:34:31Z</time></trkpt>
<trkpt lat="46.07668" lon="6.9537"><ele>1740</ele><time>2017-06-15T14:34:32Z</time></trkpt>
<trkpt lat="46.07652" lon="6.95342"><ele>1738.2</ele><time>2017-06-15T14:34:34Z</time></trkpt>
<trkpt lat="46.07641" lon="6.95332"><ele>1737.4</ele><time>2017-06-15T14:34:35Z</time></trkpt>
<trkpt lat="46.07614" lon="6.95318"><ele>1735.6</ele><time>2017-06-15T14:34:37Z</time></trkpt>
<trkpt lat="46.076" lon="6.95311"><ele>1734.4</ele><time>2017-06-15T14:34:38Z</time></trkpt>
<trkpt lat="46.07586" lon="6.95304"><ele>1733</ele><time>2017-06-15T14:34:39Z</time></trkpt>
<trkpt lat="46.07558" lon="6.95292"><ele>1730.2</ele><time>2017-06-15T14:34:41Z</time></trkpt>
<trkpt lat="46.07529" lon="6.9528"><ele>1727.2</ele><time>2017-06-15T14:34:43Z</time></trkpt>
<trkpt lat="46.07499" lon="6.95269"><ele>1724</ele><time>2017-06-15T14:34:45Z</time></trkpt>
<trkpt lat="46.07484" lon="6.95265"><ele>1722.4</ele><time>2017-06-15T14:34:46Z</time></trkpt>
<trkpt lat="46.07468" lon="6.95263"><ele>1721</ele><time>2017-06-15T14:34:47Z</time></trkpt>
<trkpt lat="46.07453" lon="6.9526"><ele>1719.4</ele><time>2017-06-15T14:34:48Z</time></trkpt>
<trkpt lat="46.07439" lon="6.95258"><ele>1717.8</ele><time>2017-06-15T14:34:49Z</time></trkpt>
<trkpt lat="46.07415" lon="6.95248"><ele>1714.8</ele><time>2017-06-15T14:34:51Z</time></trkpt>
<trkpt lat="46.07397" lon="6.95226"><ele>1711.6</ele><time>2017-06-15T14:34:53Z</time></trkpt>
<trkpt lat="46.07389" lon="6.95212"><ele>1710</ele><time>2017-06-15T14:34:54Z</time></trkpt>
<trkpt lat="46.07381" lon="6.95198"><ele>1708.6</ele><time>2017-06-15T14:34:55Z</time></trkpt>
<trkpt lat="46.07371" lon="6.95185"><ele>1707</ele><time>2017-06-15T14:34:56Z</time></trkpt>
<trkpt lat="46.07359" lon="6.95176"><ele>1705.4</ele><time>2017-06-15T14:34:57Z</time></trkpt>
<trkpt lat="46.07345" lon="6.95173"><ele>1703.8</ele><time>2017-06-15T14:34:58Z</time></trkpt>
<trkpt lat="46.07331" lon="6.95174"><ele>1702.2</ele><time>2017-06-15T14:34:59Z</time></trkpt>
<trkpt lat="46.07316" lon="6.95175"><ele>1701</ele><time>2017-06-15T14:35:00Z</time></trkpt>
<trkpt lat="46.07302" lon="6.95177"><ele>1700.2</ele><time>2017-06-15T14:35:01Z</time></trkpt>
<trkpt lat="46.07289" lon="6.95177"><ele>1699.2</ele><time>2017-06-15T14:35:02Z</time></trkpt>
<trkpt lat="46.07279" lon="6.95176"><ele>1698.4</ele><time>2017-06-15T14:35:03Z</time></trkpt>
<trkpt lat="46.07259" lon="6.95173"><ele>1696.6</ele><time>2017-06-15T14:35:05Z</time></trkpt>
<trkpt lat="46.07249" lon="6.95172"><ele>1695.8</ele><time>2017-06-15T14:35:06Z</time></trkpt>
<trkpt lat="46.07171" lon="6.95139"><ele>1689.4</ele><time>2017-06-15T14:35:10Z</time></trkpt>
<trkpt lat="46.07156" lon="6.95127"><ele>1683.4</ele><time>2017-06-15T14:35:11Z</time></trkpt>
<trkpt lat="46.07128" lon="6.95104"><ele>1680.4</ele><time>2017-06-15T14:35:13Z</time></trkpt>
<trkpt lat="46.0711" lon="6.95078"><ele>1677.4</ele><time>2017-06-15T14:35:15Z</time></trkpt>
<trkpt lat="46.07103" lon="6.95067"><ele>1676.2</ele><time>2017-06-15T14:35:16Z</time></trkpt>
<trkpt lat="46.07098" lon="6.95058"><ele>1675.8</ele><time>2017-06-15T14:35:17Z</time></trkpt>
<trkpt lat="46.07093" lon="6.95053"><ele>1675.2</ele><time>2017-06-15T14:35:18Z</time></trkpt>
<trkpt lat="46.07089" lon="6.95053"><ele>1674.6</ele><time>2017-06-15T14:35:19Z</time></trkpt>
<trkpt lat="46.07088" lon="6.95058"><ele>1674.2</ele><time>2017-06-15T14:35:20Z</time></trkpt>
<trkpt lat="46.07093" lon="6.95075"><ele>1673</ele><time>2017-06-15T14:35:22Z</time></trkpt>
<trkpt lat="46.07097" lon="6.95084"><ele>1672.6</ele><time>2017-06-15T14:35:23Z</time></trkpt>
<trkpt lat="46.07104" lon="6.95093"><ele>1672</ele><time>2017-06-15T14:35:24Z</time></trkpt>
<trkpt lat="46.07123" lon="6.95122"><ele>1670.6</ele><time>2017-06-15T14:35:27Z</time></trkpt>
<trkpt lat="46.0713" lon="6.95132"><ele>1670</ele><time>2017-06-15T14:35:28Z</time></trkpt>
<trkpt lat="46.07146" lon="6.95157"><ele>1669</ele><time>2017-06-15T14:35:30Z</time></trkpt>
<trkpt lat="46.07163" lon="6.95182"><ele>1667.8</ele><time>2017-06-15T14:35:32Z</time></trkpt>
<trkpt lat="46.07172" lon="6.95195"><ele>1666.6</ele><time>2017-06-15T14:35:33Z</time></trkpt>
<trkpt lat="46.07191" lon="6.95221"><ele>1664</ele><time>2017-06-15T14:35:35Z</time></trkpt>
<trkpt lat="46.07201" lon="6.95235"><ele>1662.8</ele><time>2017-06-15T14:35:36Z</time></trkpt>
<trkpt lat="46.07211" lon="6.95249"><ele>1661.6</ele><time>2017-06-15T14:35:37Z</time></trkpt>
<trkpt lat="46.07221" lon="6.95264"><ele>1660.2</ele><time>2017-06-15T14:35:38Z</time></trkpt>
<trkpt lat="46.07242" lon="6.95291"><ele>1657.4</ele><time>2017-06-15T14:35:40Z</time></trkpt>
<trkpt lat="46.07254" lon="6.95301"><ele>1656</ele><time>2017-06-15T14:35:41Z</time></trkpt>
<trkpt lat="46.07266" lon="6.95309"><ele>1654.4</ele><time>2017-06-15T14:35:42Z</time></trkpt>
<trkpt lat="46.0728" lon="6.95314"><ele>1652.8</ele><time>2017-06-15T14:35:43Z</time></trkpt>
<trkpt lat="46.07307" lon="6.95323"><ele>1649.4</ele><time>2017-06-15T14:35:45Z</time></trkpt>
<trkpt lat="46.07323" lon="6.95339"><ele>1647.6</ele><time>2017-06-15T14:35:46Z</time></trkpt>
<trkpt lat="46.07333" lon="6.95355"><ele>1645.8</ele><time>2017-06-15T14:35:47Z</time></trkpt>
<trkpt lat="46.07339" lon="6.95371"><ele>1644.2</ele><time>2017-06-15T14:35:48Z</time></trkpt>
<trkpt lat="46.07359" lon="6.9542"><ele>1639.2</ele><time>2017-06-15T14:35:51Z</time></trkpt>
<trkpt lat="46.07369" lon="6.95431"><ele>1637.4</ele><time>2017-06-15T14:35:52Z</time></trkpt>
<trkpt lat="46.0738" lon="6.9544"><ele>1635.8</ele><time>2017-06-15T14:35:53Z</time></trkpt>
<trkpt lat="46.07401" lon="6.95461"><ele>1633.2</ele><time>2017-06-15T14:35:55Z</time></trkpt>
<trkpt lat="46.0742" lon="6.95492"><ele>1630.6</ele><time>2017-06-15T14:35:57Z</time></trkpt>
<trkpt lat="46.0743" lon="6.95507"><ele>1629.2</ele><time>2017-06-15T14:35:58Z</time></trkpt>
<trkpt lat="46.0744" lon="6.95521"><ele>1627.8</ele><time>2017-06-15T14:35:59Z</time></trkpt>
<trkpt lat="46.07451" lon="6.95534"><ele>1626.4</ele><time>2017-06-15T14:36:00Z</time></trkpt>
<trkpt lat="46.07462" lon="6.95545"><ele>1625.2</ele><time>2017-06-15T14:36:01Z</time></trkpt>
<trkpt lat="46.07488" lon="6.95561"><ele>1622.4</ele><time>2017-06-15T14:36:03Z</time></trkpt>
<trkpt lat="46.07501" lon="6.95567"><ele>1621</ele><time>2017-06-15T14:36:04Z</time></trkpt>
<trkpt lat="46.07531" lon="6.95595"><ele>1616.8</ele><time>2017-06-15T14:36:07Z</time></trkpt>
<trkpt lat="46.07539" lon="6.95604"><ele>1615.4</ele><time>2017-06-15T14:36:08Z</time></trkpt>
<trkpt lat="46.07541" lon="6.95611"><ele>1614.4</ele><time>2017-06-15T14:36:09Z</time></trkpt>
<trkpt lat="46.0754" lon="6.95616"><ele>1613.6</ele><time>2017-06-15T14:36:10Z</time></trkpt>
<trkpt lat="46.07536" lon="6.95617"><ele>1613</ele><time>2017-06-15T14:36:11Z</time></trkpt>
<trkpt lat="46.07531" lon="6.95613"><ele>1612.2</ele><time>2017-06-15T14:36:12Z</time></trkpt>
<trkpt lat="46.07516" lon="6.95599"><ele>1610.2</ele><time>2017-06-15T14:36:15Z</time></trkpt>
<trkpt lat="46.07512" lon="6.95591"><ele>1609.6</ele><time>2017-06-15T14:36:16Z</time></trkpt>
<trkpt lat="46.07506" lon="6.95584"><ele>1609.2</ele><time>2017-06-15T14:36:17Z</time></trkpt>
<trkpt lat="46.07499" lon="6.95579"><ele>1608.8</ele><time>2017-06-15T14:36:18Z</time></trkpt>
<trkpt lat="46.07483" lon="6.9557"><ele>1607.8</ele><time>2017-06-15T14:36:20Z</time></trkpt>
<trkpt lat="46.07474" lon="6.95567"><ele>1607.4</ele><time>2017-06-15T14:36:21Z</time></trkpt>
<trkpt lat="46.07465" lon="6.95564"><ele>1606.8</ele><time>2017-06-15T14:36:22Z</time></trkpt>
<trkpt lat="46.07446" lon="6.95559"><ele>1606</ele><time>2017-06-15T14:36:24Z</time></trkpt>
<trkpt lat="46.07436" lon="6.95557"><ele>1605.4</ele><time>2017-06-15T14:36:25Z</time></trkpt>
<trkpt lat="46.07425" lon="6.95548"><ele>1604.8</ele><time>2017-06-15T14:36:26Z</time></trkpt>
<trkpt lat="46.07402" lon="6.9553"><ele>1602.2</ele><time>2017-06-15T14:36:28Z</time></trkpt>
<trkpt lat="46.0739" lon="6.95523"><ele>1601</ele><time>2017-06-15T14:36:29Z</time></trkpt>
<trkpt lat="46.07377" lon="6.95519"><ele>1599.6</ele><time>2017-06-15T14:36:30Z</time></trkpt>
<trkpt lat="46.07365" lon="6.95516"><ele>1598.4</ele><time>2017-06-15T14:36:31Z</time></trkpt>
<trkpt lat="46.07351" lon="6.95516"><ele>1597.2</ele><time>2017-06-15T14:36:32Z</time></trkpt>
<trkpt lat="46.07324" lon="6.95515"><ele>1594.4</ele><time>2017-06-15T14:36:34Z</time></trkpt>
<trkpt lat="46.07284" lon="6.95497"><ele>1590.2</ele><time>2017-06-15T14:36:37Z</time></trkpt>
<trkpt lat="46.07269" lon="6.95494"><ele>1588.8</ele><time>2017-06-15T14:36:38Z</time></trkpt>
<trkpt lat="46.07239" lon="6.95489"><ele>1585.8</ele><time>2017-06-15T14:36:40Z</time></trkpt>
<trkpt lat="46.07211" lon="6.95484"><ele>1582.8</ele><time>2017-06-15T14:36:42Z</time></trkpt>
<trkpt lat="46.07198" lon="6.9548"><ele>1581.2</ele><time>2017-06-15T14:36:43Z</time></trkpt>
<trkpt lat="46.07188" lon="6.95471"><ele>1580</ele><time>2017-06-15T14:36:44Z</time></trkpt>
<trkpt lat="46.07178" lon="6.95462"><ele>1578.6</ele><time>2017-06-15T14:36:45Z</time></trkpt>
<trkpt lat="46.07155" lon="6.95433"><ele>1575.8</ele><time>2017-06-15T14:36:47Z</time></trkpt>
<trkpt lat="46.07144" lon="6.95419"><ele>1574.6</ele><time>2017-06-15T14:36:48Z</time></trkpt>
<trkpt lat="46.07131" lon="6.95409"><ele>1573.2</ele><time>2017-06-15T14:36:49Z</time></trkpt>
<trkpt lat="46.07114" lon="6.95408"><ele>1571.8</ele><time>2017-06-15T14:36:50Z</time></trkpt>
<trkpt lat="46.07084" lon="6.95403"><ele>1568.8</ele><time>2017-06-15T14:36:52Z</time></trkpt>
<trkpt lat="46.07069" lon="6.95399"><ele>1567.4</ele><time>2017-06-15T14:36:53Z</time></trkpt>
<trkpt lat="46.07039" lon="6.95386"><ele>1564.4</ele><time>2017-06-15T14:36:55Z</time></trkpt>
<trkpt lat="46.07026" lon="6.95378"><ele>1562.6</ele><time>2017-06-15T14:36:56Z</time></trkpt>
<trkpt lat="46.07007" lon="6.95356"><ele>1559.2</ele><time>2017-06-15T14:36:58Z</time></trkpt>
<trkpt lat="46.0699" lon="6.95337"><ele>1556</ele><time>2017-06-15T14:37:00Z</time></trkpt>
<trkpt lat="46.06983" lon="6.95333"><ele>1555.2</ele><time>2017-06-15T14:37:01Z</time></trkpt>
<trkpt lat="46.06978" lon="6.95335"><ele>1554.4</ele><time>2017-06-15T14:37:02Z</time></trkpt>
<trkpt lat="46.06976" lon="6.95344"><ele>1553.6</ele><time>2017-06-15T14:37:03Z</time></trkpt>
<trkpt lat="46.06976" lon="6.95351"><ele>1552.8</ele><time>2017-06-15T14:37:04Z</time></trkpt>
<trkpt lat="46.06981" lon="6.95356"><ele>1552</ele><time>2017-06-15T14:37:05Z</time></trkpt>
<trkpt lat="46.06989" lon="6.95362"><ele>1551</ele><time>2017-06-15T14:37:06Z</time></trkpt>
<trkpt lat="46.06997" lon="6.95367"><ele>1550.4</ele><time>2017-06-15T14:37:07Z</time></trkpt>
<trkpt lat="46.07005" lon="6.95373"><ele>1549.8</ele><time>2017-06-15T14:37:08Z</time></trkpt>
<trkpt lat="46.07021" lon="6.95386"><ele>1548.4</ele><time>2017-06-15T14:37:10Z</time></trkpt>
<trkpt lat="46.07036" lon="6.95406"><ele>1547</ele><time>2017-06-15T14:37:12Z</time></trkpt>
<trkpt lat="46.07059" lon="6.95436"><ele>1544.8</ele><time>2017-06-15T14:37:15Z</time></trkpt>
<trkpt lat="46.07068" lon="6.95447"><ele>1544.2</ele><time>2017-06-15T14:37:16Z</time></trkpt>
<trkpt lat="46.07088" lon="6.95469"><ele>1542.6</ele><time>2017-06-15T14:37:18Z</time></trkpt>
<trkpt lat="46.07098" lon="6.95481"><ele>1541.6</ele><time>2017-06-15T14:37:19Z</time></trkpt>
<trkpt lat="46.07108" lon="6.95494"><ele>1540.4</ele><time>2017-06-15T14:37:20Z</time></trkpt>
<trkpt lat="46.07138" lon="6.95534"><ele>1537</ele><time>2017-06-15T14:37:23Z</time></trkpt>
<trkpt lat="46.0715" lon="6.95548"><ele>1535.6</ele><time>2017-06-15T14:37:24Z</time></trkpt>
<trkpt lat="46.07162" lon="6.95559"><ele>1534.2</ele><time>2017-06-15T14:37:25Z</time></trkpt>
<trkpt lat="46.07176" lon="6.95568"><ele>1532.8</ele><time>2017-06-15T14:37:26Z</time></trkpt>
<trkpt lat="46.07191" lon="6.95574"><ele>1531.4</ele><time>2017-06-15T14:37:27Z</time></trkpt>
<trkpt lat="46.07206" lon="6.95585"><ele>1530</ele><time>2017-06-15T14:37:28Z</time></trkpt>
<trkpt lat="46.0722" lon="6.95592"><ele>1528.6</ele><time>2017-06-15T14:37:29Z</time></trkpt>
<trkpt lat="46.07233" lon="6.95595"><ele>1527</ele><time>2017-06-15T14:37:30Z</time></trkpt>
<trkpt lat="46.07247" lon="6.95607"><ele>1525.6</ele><time>2017-06-15T14:37:31Z</time></trkpt>
<trkpt lat="46.0726" lon="6.9562"><ele>1524</ele><time>2017-06-15T14:37:32Z</time></trkpt>
<trkpt lat="46.07283" lon="6.95649"><ele>1521</ele><time>2017-06-15T14:37:34Z</time></trkpt>
<trkpt lat="46.07302" lon="6.95678"><ele>1517.8</ele><time>2017-06-15T14:37:36Z</time></trkpt>
<trkpt lat="46.07314" lon="6.95689"><ele>1516.2</ele><time>2017-06-15T14:37:37Z</time></trkpt>
<trkpt lat="46.07339" lon="6.95705"><ele>1513.2</ele><time>2017-06-15T14:37:39Z</time></trkpt>
<trkpt lat="46.07352" lon="6.95713"><ele>1511.6</ele><time>2017-06-15T14:37:40Z</time></trkpt>
<trkpt lat="46.07364" lon="6.95722"><ele>1510</ele><time>2017-06-15T14:37:41Z</time></trkpt>
<trkpt lat="46.07377" lon="6.95735"><ele>1508.6</ele><time>2017-06-15T14:37:42Z</time></trkpt>
<trkpt lat="46.07402" lon="6.95761"><ele>1505.6</ele><time>2017-06-15T14:37:44Z</time></trkpt>
<trkpt lat="46.07439" lon="6.95798"><ele>1501.6</ele><time>2017-06-15T14:37:47Z</time></trkpt>
<trkpt lat="46.07453" lon="6.9581"><ele>1500.4</ele><time>2017-06-15T14:37:48Z</time></trkpt>
<trkpt lat="46.07466" lon="6.95824"><ele>1499</ele><time>2017-06-15T14:37:49Z</time></trkpt>
<trkpt lat="46.07476" lon="6.95839"><ele>1497.6</ele><time>2017-06-15T14:37:50Z</time></trkpt>
<trkpt lat="46.07497" lon="6.9587"><ele>1494.8</ele><time>2017-06-15T14:37:52Z</time></trkpt>
<trkpt lat="46.07509" lon="6.95885"><ele>1493.4</ele><time>2017-06-15T14:37:53Z</time></trkpt>
<trkpt lat="46.07523" lon="6.95898"><ele>1492</ele><time>2017-06-15T14:37:54Z</time></trkpt>
<trkpt lat="46.07534" lon="6.95913"><ele>1490.4</ele><time>2017-06-15T14:37:55Z</time></trkpt>
<trkpt lat="46.07546" lon="6.95928"><ele>1488.8</ele><time>2017-06-15T14:37:56Z</time></trkpt>
<trkpt lat="46.07557" lon="6.95945"><ele>1487</ele><time>2017-06-15T14:37:57Z</time></trkpt>
<trkpt lat="46.07575" lon="6.95986"><ele>1483.6</ele><time>2017-06-15T14:37:59Z</time></trkpt>
<trkpt lat="46.07586" lon="6.96004"><ele>1482</ele><time>2017-06-15T14:38:00Z</time></trkpt>
<trkpt lat="46.07597" lon="6.96021"><ele>1480.8</ele><time>2017-06-15T14:38:01Z</time></trkpt>
<trkpt lat="46.07608" lon="6.96038"><ele>1479.4</ele><time>2017-06-15T14:38:02Z</time></trkpt>
<trkpt lat="46.07618" lon="6.96054"><ele>1478.2</ele><time>2017-06-15T14:38:03Z</time></trkpt>
<trkpt lat="46.07639" lon="6.96084"><ele>1475.6</ele><time>2017-06-15T14:38:05Z</time></trkpt>
<trkpt lat="46.0765" lon="6.961"><ele>1473.8</ele><time>2017-06-15T14:38:06Z</time></trkpt>
<trkpt lat="46.07663" lon="6.96113"><ele>1472.2</ele><time>2017-06-15T14:38:07Z</time></trkpt>
<trkpt lat="46.07691" lon="6.96127"><ele>1469</ele><time>2017-06-15T14:38:09Z</time></trkpt>
<trkpt lat="46.07705" lon="6.96136"><ele>1467.4</ele><time>2017-06-15T14:38:10Z</time></trkpt>
<trkpt lat="46.07719" lon="6.96148"><ele>1465.6</ele><time>2017-06-15T14:38:11Z</time></trkpt>
<trkpt lat="46.07746" lon="6.96171"><ele>1462.4</ele><time>2017-06-15T14:38:13Z</time></trkpt>
<trkpt lat="46.07758" lon="6.96185"><ele>1460.8</ele><time>2017-06-15T14:38:14Z</time></trkpt>
<trkpt lat="46.07769" lon="6.96202"><ele>1459.2</ele><time>2017-06-15T14:38:15Z</time></trkpt>
<trkpt lat="46.0778" lon="6.96218"><ele>1457.6</ele><time>2017-06-15T14:38:16Z</time></trkpt>
<trkpt lat="46.07793" lon="6.96233"><ele>1456</ele><time>2017-06-15T14:38:17Z</time></trkpt>
<trkpt lat="46.07806" lon="6.96247"><ele>1454.4</ele><time>2017-06-15T14:38:18Z</time></trkpt>
<trkpt lat="46.0782" lon="6.9626"><ele>1452.8</ele><time>2017-06-15T14:38:19Z</time></trkpt>
<trkpt lat="46.07831" lon="6.96277"><ele>1451.2</ele><time>2017-06-15T14:38:20Z</time></trkpt>
<trkpt lat="46.0784" lon="6.963"><ele>1449.4</ele><time>2017-06-15T14:38:21Z</time></trkpt>
<trkpt lat="46.07851" lon="6.9632"><ele>1447.8</ele><time>2017-06-15T14:38:22Z</time></trkpt>
<trkpt lat="46.07859" lon="6.96341"><ele>1446</ele><time>2017-06-15T14:38:23Z</time></trkpt>
<trkpt lat="46.07869" lon="6.96361"><ele>1444.2</ele><time>2017-06-15T14:38:24Z</time></trkpt>
<trkpt lat="46.07881" lon="6.96379"><ele>1442.4</ele><time>2017-06-15T14:38:25Z</time></trkpt>
<trkpt lat="46.07907" lon="6.96411"><ele>1438.6</ele><time>2017-06-15T14:38:27Z</time></trkpt>
<trkpt lat="46.07922" lon="6.96419"><ele>1437</ele><time>2017-06-15T14:38:28Z</time></trkpt>
<trkpt lat="46.07936" lon="6.96433"><ele>1435.2</ele><time>2017-06-15T14:38:29Z</time></trkpt>
<trkpt lat="46.07965" lon="6.96459"><ele>1431.6</ele><time>2017-06-15T14:38:31Z</time></trkpt>
<trkpt lat="46.0798" lon="6.9647"><ele>1429.8</ele><time>2017-06-15T14:38:32Z</time></trkpt>
<trkpt lat="46.07995" lon="6.9648"><ele>1428.2</ele><time>2017-06-15T14:38:33Z</time></trkpt>
<trkpt lat="46.08026" lon="6.96495"><ele>1424.8</ele><time>2017-06-15T14:38:35Z</time></trkpt>
<trkpt lat="46.08055" lon="6.96501"><ele>1421.4</ele><time>2017-06-15T14:38:37Z</time></trkpt>
<trkpt lat="46.0807" lon="6.96504"><ele>1420.2</ele><time>2017-06-15T14:38:38Z</time></trkpt>
<trkpt lat="46.08085" lon="6.96507"><ele>1418.8</ele><time>2017-06-15T14:38:39Z</time></trkpt>
<trkpt lat="46.08098" lon="6.96513"><ele>1417.4</ele><time>2017-06-15T14:38:40Z</time></trkpt>
<trkpt lat="46.08108" lon="6.96525"><ele>1416.2</ele><time>2017-06-15T14:38:41Z</time></trkpt>
<trkpt lat="46.08118" lon="6.96539"><ele>1414.8</ele><time>2017-06-15T14:38:42Z</time></trkpt>
<trkpt lat="46.08124" lon="6.96556"><ele>1413.6</ele><time>2017-06-15T14:38:43Z</time></trkpt>
<trkpt lat="46.08133" lon="6.96591"><ele>1410.8</ele><time>2017-06-15T14:38:45Z</time></trkpt>
<trkpt lat="46.08153" lon="6.96632"><ele>1408</ele><time>2017-06-15T14:38:47Z</time></trkpt>
<trkpt lat="46.08162" lon="6.9665"><ele>1406.6</ele><time>2017-06-15T14:38:48Z</time></trkpt>
<trkpt lat="46.08186" lon="6.96693"><ele>1402.4</ele><time>2017-06-15T14:38:51Z</time></trkpt>
<trkpt lat="46.08205" lon="6.96702"><ele>1399.6</ele><time>2017-06-15T14:38:53Z</time></trkpt>
<trkpt lat="46.08217" lon="6.96702"><ele>1398.2</ele><time>2017-06-15T14:38:54Z</time></trkpt>
<trkpt lat="46.08229" lon="6.96702"><ele>1397</ele><time>2017-06-15T14:38:55Z</time></trkpt>
<trkpt lat="46.08253" lon="6.96703"><ele>1394.8</ele><time>2017-06-15T14:38:57Z</time></trkpt>
<trkpt lat="46.08275" lon="6.96713"><ele>1392.4</ele><time>2017-06-15T14:38:59Z</time></trkpt>
<trkpt lat="46.08281" lon="6.96722"><ele>1391.4</ele><time>2017-06-15T14:39:00Z</time></trkpt>
<trkpt lat="46.08285" lon="6.96737"><ele>1390.4</ele><time>2017-06-15T14:39:01Z</time></trkpt>
<trkpt lat="46.08282" lon="6.96759"><ele>1389.4</ele><time>2017-06-15T14:39:02Z</time></trkpt>
<trkpt lat="46.08286" lon="6.96773"><ele>1388.6</ele><time>2017-06-15T14:39:03Z</time></trkpt>
<trkpt lat="46.08294" lon="6.96801"><ele>1386.6</ele><time>2017-06-15T14:39:05Z</time></trkpt>
<trkpt lat="46.08305" lon="6.96844"><ele>1384.2</ele><time>2017-06-15T14:39:07Z</time></trkpt>
<trkpt lat="46.08321" lon="6.96876"><ele>1381.8</ele><time>2017-06-15T14:39:09Z</time></trkpt>
<trkpt lat="46.08328" lon="6.96893"><ele>1380.6</ele><time>2017-06-15T14:39:10Z</time></trkpt>
<trkpt lat="46.08331" lon="6.96912"><ele>1379.4</ele><time>2017-06-15T14:39:11Z</time></trkpt>
<trkpt lat="46.08333" lon="6.9693"><ele>1378.2</ele><time>2017-06-15T14:39:12Z</time></trkpt>
<trkpt lat="46.08333" lon="6.96968"><ele>1375.4</ele><time>2017-06-15T14:39:14Z</time></trkpt>
<trkpt lat="46.08334" lon="6.96986"><ele>1374.2</ele><time>2017-06-15T14:39:15Z</time></trkpt>
<trkpt lat="46.08338" lon="6.97002"><ele>1373</ele><time>2017-06-15T14:39:16Z</time></trkpt>
<trkpt lat="46.08351" lon="6.97027"><ele>1371</ele><time>2017-06-15T14:39:18Z</time></trkpt>
<trkpt lat="46.08357" lon="6.97042"><ele>1370</ele><time>2017-06-15T14:39:19Z</time></trkpt>
<trkpt lat="46.08364" lon="6.97077"><ele>1368</ele><time>2017-06-15T14:39:21Z</time></trkpt>
<trkpt lat="46.08367" lon="6.97096"><ele>1366.8</ele><time>2017-06-15T14:39:22Z</time></trkpt>
<trkpt lat="46.0837" lon="6.97114"><ele>1365.6</ele><time>2017-06-15T14:39:23Z</time></trkpt>
<trkpt lat="46.08374" lon="6.97128"><ele>1364.4</ele><time>2017-06-15T14:39:24Z</time></trkpt>
<trkpt lat="46.08379" lon="6.97144"><ele>1363.2</ele><time>2017-06-15T14:39:25Z</time></trkpt>
<trkpt lat="46.08385" lon="6.97168"><ele>1362.2</ele><time>2017-06-15T14:39:26Z</time></trkpt>
<trkpt lat="46.0839" lon="6.97187"><ele>1360.8</ele><time>2017-06-15T14:39:27Z</time></trkpt>
<trkpt lat="46.08394" lon="6.9723"><ele>1357.8</ele><time>2017-06-15T14:39:29Z</time></trkpt>
<trkpt lat="46.08395" lon="6.97251"><ele>1356.4</ele><time>2017-06-15T14:39:30Z</time></trkpt>
<trkpt lat="46.08396" lon="6.97292"><ele>1353.4</ele><time>2017-06-15T14:39:32Z</time></trkpt>
<trkpt lat="46.08399" lon="6.97311"><ele>1351.8</ele><time>2017-06-15T14:39:33Z</time></trkpt>
<trkpt lat="46.08407" lon="6.97329"><ele>1350.4</ele><time>2017-06-15T14:39:34Z</time></trkpt>
<trkpt lat="46.08414" lon="6.97348"><ele>1348.8</ele><time>2017-06-15T14:39:35Z</time></trkpt>
<trkpt lat="46.08431" lon="6.97382"><ele>1345.6</ele><time>2017-06-15T14:39:37Z</time></trkpt>
<trkpt lat="46.08441" lon="6.97398"><ele>1344.2</ele><time>2017-06-15T14:39:38Z</time></trkpt>
<trkpt lat="46.08452" lon="6.97414"><ele>1342.6</ele><time>2017-06-15T14:39:39Z</time></trkpt>
<trkpt lat="46.08463" lon="6.9743"><ele>1341</ele><time>2017-06-15T14:39:40Z</time></trkpt>
<trkpt lat="46.08484" lon="6.97463"><ele>1337.8</ele><time>2017-06-15T14:39:42Z</time></trkpt>
<trkpt lat="46.08494" lon="6.97479"><ele>1336.4</ele><time>2017-06-15T14:39:43Z</time></trkpt>
<trkpt lat="46.08505" lon="6.97495"><ele>1334.8</ele><time>2017-06-15T14:39:44Z</time></trkpt>
<trkpt lat="46.08515" lon="6.97511"><ele>1333.2</ele><time>2017-06-15T14:39:45Z</time></trkpt>
<trkpt lat="46.0853" lon="6.97534"><ele>1331.6</ele><time>2017-06-15T14:39:46Z</time></trkpt>
<trkpt lat="46.08554" lon="6.97563"><ele>1328.4</ele><time>2017-06-15T14:39:48Z</time></trkpt>
<trkpt lat="46.08565" lon="6.97575"><ele>1326.8</ele><time>2017-06-15T14:39:49Z</time></trkpt>
<trkpt lat="46.08573" lon="6.97591"><ele>1325.2</ele><time>2017-06-15T14:39:50Z</time></trkpt>
<trkpt lat="46.08583" lon="6.97626"><ele>1321.6</ele><time>2017-06-15T14:39:52Z</time></trkpt>
<trkpt lat="46.08587" lon="6.97665"><ele>1318.2</ele><time>2017-06-15T14:39:54Z</time></trkpt>
<trkpt lat="46.08583" lon="6.97683"><ele>1316.4</ele><time>2017-06-15T14:39:55Z</time></trkpt>
<trkpt lat="46.0858" lon="6.97702"><ele>1315</ele><time>2017-06-15T14:39:56Z</time></trkpt>
<trkpt lat="46.08574" lon="6.97717"><ele>1313.8</ele><time>2017-06-15T14:39:57Z</time></trkpt>
<trkpt lat="46.08552" lon="6.97737"><ele>1311.6</ele><time>2017-06-15T14:39:59Z</time></trkpt>
<trkpt lat="46.08531" lon="6.97759"><ele>1309.4</ele><time>2017-06-15T14:40:01Z</time></trkpt>
<trkpt lat="46.0852" lon="6.9777"><ele>1308.4</ele><time>2017-06-15T14:40:02Z</time></trkpt>
<trkpt lat="46.08512" lon="6.97781"><ele>1307.6</ele><time>2017-06-15T14:40:03Z</time></trkpt>
<trkpt lat="46.08507" lon="6.97792"><ele>1306.8</ele><time>2017-06-15T14:40:04Z</time></trkpt>
<trkpt lat="46.08502" lon="6.97802"><ele>1306</ele><time>2017-06-15T14:40:05Z</time></trkpt>
<trkpt lat="46.08499" lon="6.97827"><ele>1305.2</ele><time>2017-06-15T14:40:06Z</time></trkpt>
<trkpt lat="46.085" lon="6.97844"><ele>1304.4</ele><time>2017-06-15T14:40:07Z</time></trkpt>
<trkpt lat="46.08503" lon="6.9786"><ele>1303.8</ele><time>2017-06-15T14:40:08Z</time></trkpt>
<trkpt lat="46.08512" lon="6.97892"><ele>1302.4</ele><time>2017-06-15T14:40:10Z</time></trkpt>
<trkpt lat="46.08521" lon="6.97923"><ele>1301.2</ele><time>2017-06-15T14:40:12Z</time></trkpt>
<trkpt lat="46.08525" lon="6.97938"><ele>1300.6</ele><time>2017-06-15T14:40:13Z</time></trkpt>
<trkpt lat="46.08529" lon="6.97953"><ele>1300.2</ele><time>2017-06-15T14:40:14Z</time></trkpt>
<trkpt lat="46.08532" lon="6.97968"><ele>1299.6</ele><time>2017-06-15T14:40:15Z</time></trkpt>
<trkpt lat="46.08536" lon="6.98"><ele>1298.6</ele><time>2017-06-15T14:40:17Z</time></trkpt>
<trkpt lat="46.08538" lon="6.98016"><ele>1298.2</ele><time>2017-06-15T14:40:18Z</time></trkpt>
<trkpt lat="46.0854" lon="6.98032"><ele>1297.6</ele><time>2017-06-15T14:40:19Z</time></trkpt>
<trkpt lat="46.08544" lon="6.98063"><ele>1296.8</ele><time>2017-06-15T14:40:21Z</time></trkpt>
<trkpt lat="46.08548" lon="6.98094"><ele>1295.8</ele><time>2017-06-15T14:40:23Z</time></trkpt>
<trkpt lat="46.0855" lon="6.98109"><ele>1295.2</ele><time>2017-06-15T14:40:24Z</time></trkpt>
<trkpt lat="46.08554" lon="6.9817"><ele>1292.4</ele><time>2017-06-15T14:40:28Z</time></trkpt>
<trkpt lat="46.08555" lon="6.98183"><ele>1291.6</ele><time>2017-06-15T14:40:29Z</time></trkpt>
<trkpt lat="46.08556" lon="6.98194"><ele>1291</ele><time>2017-06-15T14:40:30Z</time></trkpt>
<trkpt lat="46.08558" lon="6.98205"><ele>1290.4</ele><time>2017-06-15T14:40:31Z</time></trkpt>
<trkpt lat="46.08561" lon="6.98216"><ele>1289.8</ele><time>2017-06-15T14:40:32Z</time></trkpt>
<trkpt lat="46.08571" lon="6.9825"><ele>1288</ele><time>2017-06-15T14:40:35Z</time></trkpt>
<trkpt lat="46.08573" lon="6.98261"><ele>1287.6</ele><time>2017-06-15T14:40:36Z</time></trkpt>
<trkpt lat="46.08579" lon="6.98295"><ele>1287.2</ele><time>2017-06-15T14:40:39Z</time></trkpt>
<trkpt lat="46.08581" lon="6.98306"><ele>1287</ele><time>2017-06-15T14:40:40Z</time></trkpt>
<trkpt lat="46.08584" lon="6.98317"><ele>1286.8</ele><time>2017-06-15T14:40:41Z</time></trkpt>
<trkpt lat="46.08591" lon="6.98337"><ele>1286.6</ele><time>2017-06-15T14:40:43Z</time></trkpt>
<trkpt lat="46.08595" lon="6.98347"><ele>1286.4</ele><time>2017-06-15T14:40:44Z</time></trkpt>
<trkpt lat="46.08603" lon="6.98366"><ele>1286.2</ele><time>2017-06-15T14:40:46Z</time></trkpt>
<trkpt lat="46.08607" lon="6.98374"><ele>1286</ele><time>2017-06-15T14:40:47Z</time></trkpt>
<trkpt lat="46.08611" lon="6.98382"><ele>1285.8</ele><time>2017-06-15T14:40:48Z</time></trkpt>
<trkpt lat="46.08619" lon="6.98398"><ele>1285.6</ele><time>2017-06-15T14:40:50Z</time></trkpt>
<trkpt lat="46.08625" lon="6.98423"><ele>1285.2</ele><time>2017-06-15T14:40:53Z</time></trkpt>
<trkpt lat="46.08628" lon="6.98439"><ele>1285.2</ele><time>2017-06-15T14:40:55Z</time></trkpt>
<trkpt lat="46.08624" lon="6.98454"><ele>1285.2</ele><time>2017-06-15T14:40:57Z</time></trkpt>
<trkpt lat="46.08622" lon="6.98462"><ele>1285.2</ele><time>2017-06-15T14:40:58Z</time></trkpt>
<trkpt lat="46.08619" lon="6.98476"><ele>1285.2</ele><time>2017-06-15T14:41:00Z</time></trkpt>
<trkpt lat="46.0862" lon="6.98482"><ele>1285.2</ele><time>2017-06-15T14:41:01Z</time></trkpt>
<trkpt lat="46.08621" lon="6.98495"><ele>1285.2</ele><time>2017-06-15T14:41:03Z</time></trkpt>
<trkpt lat="46.08621" lon="6.98501"><ele>1285.4</ele><time>2017-06-15T14:41:04Z</time></trkpt>
<trkpt lat="46.08616" lon="6.98522"><ele>1285.4</ele><time>2017-06-15T14:41:08Z</time></trkpt>
<trkpt lat="46.08613" lon="6.98532"><ele>1285.4</ele><time>2017-06-15T14:41:10Z</time></trkpt>
<trkpt lat="46.08611" lon="6.98542"><ele>1285.6</ele><time>2017-06-15T14:41:12Z</time></trkpt>
<trkpt lat="46.08612" lon="6.98546"><ele>1285.6</ele><time>2017-06-15T14:41:13Z</time></trkpt>
<trkpt lat="46.08613" lon="6.98553"><ele>1285.6</ele><time>2017-06-15T14:41:15Z</time></trkpt>
<trkpt lat="46.08615" lon="6.9856"><ele>1285.6</ele><time>2017-06-15T14:41:17Z</time></trkpt>
<trkpt lat="46.08616" lon="6.98568"><ele>1285.8</ele><time>2017-06-15T14:41:19Z</time></trkpt>
<trkpt lat="46.08617" lon="6.98575"><ele>1285.8</ele><time>2017-06-15T14:41:21Z</time></trkpt>
<trkpt lat="46.08619" lon="6.98582"><ele>1285.8</ele><time>2017-06-15T14:41:23Z</time></trkpt>
<trkpt lat="46.0862" lon="6.98589"><ele>1285.8</ele><time>2017-06-15T14:41:25Z</time></trkpt>
<trkpt lat="46.08624" lon="6.98608"><ele>1286</ele><time>2017-06-15T14:41:30Z</time></trkpt>
<trkpt lat="46.08625" lon="6.98612"><ele>1286</ele><time>2017-06-15T14:41:31Z</time></trkpt>
<trkpt lat="46.08628" lon="6.9862"><ele>1286</ele><time>2017-06-15T14:41:33Z</time></trkpt>
<trkpt lat="46.0863" lon="6.98629"><ele>1286.2</ele><time>2017-06-15T14:41:35Z</time></trkpt>
<trkpt lat="46.08633" lon="6.98637"><ele>1286.2</ele><time>2017-06-15T14:41:37Z</time></trkpt>
<trkpt lat="46.08636" lon="6.98645"><ele>1286.2</ele><time>2017-06-15T14:41:39Z</time></trkpt>
<trkpt lat="46.08639" lon="6.98654"><ele>1286.2</ele><time>2017-06-15T14:41:41Z</time></trkpt>
<trkpt lat="46.08641" lon="6.98662"><ele>1286.4</ele><time>2017-06-15T14:41:43Z</time></trkpt>
<trkpt lat="46.08644" lon="6.9867"><ele>1286.4</ele><time>2017-06-15T14:41:45Z</time></trkpt>
<trkpt lat="46.08644" lon="6.98673"><ele>1286.4</ele><time>2017-06-15T14:41:46Z</time></trkpt>
<trkpt lat="46.08642" lon="6.98679"><ele>1286.6</ele><time>2017-06-15T14:41:49Z</time></trkpt>
<trkpt lat="46.08642" lon="6.98684"><ele>1286.6</ele><time>2017-06-15T14:41:51Z</time></trkpt>
<trkpt lat="46.08641" lon="6.98688"><ele>1286.6</ele><time>2017-06-15T14:41:53Z</time></trkpt>
<trkpt lat="46.0864" lon="6.98691"><ele>1286.6</ele><time>2017-06-15T14:41:54Z</time></trkpt>
<trkpt lat="46.08639" lon="6.98697"><ele>1286.8</ele><time>2017-06-15T14:41:57Z</time></trkpt>
<trkpt lat="46.08638" lon="6.98702"><ele>1286.8</ele><time>2017-06-15T14:41:59Z</time></trkpt>
<trkpt lat="46.08638" lon="6.98707"><ele>1286.8</ele><time>2017-06-15T14:42:01Z</time></trkpt>
<trkpt lat="46.08637" lon="6.98711"><ele>1286.8</ele><time>2017-06-15T14:42:03Z</time></trkpt>
<trkpt lat="46.08636" lon="6.98716"><ele>1287</ele><time>2017-06-15T14:42:05Z</time></trkpt>
<trkpt lat="46.08635" lon="6.9872"><ele>1287</ele><time>2017-06-15T14:42:07Z</time></trkpt>
<trkpt lat="46.08634" lon="6.98725"><ele>1287</ele><time>2017-06-15T14:42:09Z</time></trkpt>
<trkpt lat="46.08633" lon="6.98729"><ele>1287</ele><time>2017-06-15T14:42:11Z</time></trkpt>
<trkpt lat="46.08633" lon="6.98734"><ele>1287.2</ele><time>2017-06-15T14:42:13Z</time></trkpt>
<trkpt lat="46.08632" lon="6.98737"><ele>1287.2</ele><time>2017-06-15T14:42:14Z</time></trkpt>
<trkpt lat="46.08631" lon="6.98741"><ele>1287.2</ele><time>2017-06-15T14:42:15Z</time></trkpt>
<trkpt lat="46.0863" lon="6.98746"><ele>1287.2</ele><time>2017-06-15T14:42:16Z</time></trkpt>
<trkpt lat="46.08628" lon="6.98754"><ele>1287.2</ele><time>2017-06-15T14:42:18Z</time></trkpt>
<trkpt lat="46.08625" lon="6.98763"><ele>1287.4</ele><time>2017-06-15T14:42:20Z</time></trkpt>
<trkpt lat="46.08623" lon="6.98772"><ele>1287.4</ele><time>2017-06-15T14:42:22Z</time></trkpt>
<trkpt lat="46.08621" lon="6.9878"><ele>1287.4</ele><time>2017-06-15T14:42:24Z</time></trkpt>
<trkpt lat="46.08619" lon="6.98789"><ele>1287.4</ele><time>2017-06-15T14:42:26Z</time></trkpt>
<trkpt lat="46.08616" lon="6.98798"><ele>1287.6</ele><time>2017-06-15T14:42:28Z</time></trkpt>
<trkpt lat="46.08616" lon="6.98802"><ele>1287.6</ele><time>2017-06-15T14:42:29Z</time></trkpt>
<trkpt lat="46.08616" lon="6.98807"><ele>1287.6</ele><time>2017-06-15T14:42:30Z</time></trkpt>
<trkpt lat="46.08617" lon="6.98817"><ele>1287.6</ele><time>2017-06-15T14:42:32Z</time></trkpt>
<trkpt lat="46.08618" lon="6.98821"><ele>1287.6</ele><time>2017-06-15T14:42:33Z</time></trkpt>
<trkpt lat="46.08621" lon="6.98825"><ele>1287.6</ele><time>2017-06-15T14:42:34Z</time></trkpt>
<trkpt lat="46.0863" lon="6.98837"><ele>1287.8</ele><time>2017-06-15T14:42:37Z</time></trkpt>
<trkpt lat="46.08635" lon="6.98845"><ele>1287.8</ele><time>2017-06-15T14:42:39Z</time></trkpt>
<trkpt lat="46.08641" lon="6.98853"><ele>1287.8</ele><time>2017-06-15T14:42:41Z</time></trkpt>
<trkpt lat="46.08647" lon="6.98861"><ele>1288</ele><time>2017-06-15T14:42:43Z</time></trkpt>
<trkpt lat="46.08652" lon="6.98868"><ele>1288</ele><time>2017-06-15T14:42:45Z</time></trkpt>
<trkpt lat="46.08656" lon="6.98872"><ele>1288</ele><time>2017-06-15T14:42:46Z</time></trkpt>
<trkpt lat="46.08664" lon="6.9888"><ele>1288</ele><time>2017-06-15T14:42:48Z</time></trkpt>
<trkpt lat="46.08675" lon="6.98892"><ele>1288.2</ele><time>2017-06-15T14:42:51Z</time></trkpt>
<trkpt lat="46.08682" lon="6.989"><ele>1288.2</ele><time>2017-06-15T14:42:53Z</time></trkpt>
<trkpt lat="46.08689" lon="6.98908"><ele>1288.2</ele><time>2017-06-15T14:42:55Z</time></trkpt>
<trkpt lat="46.08694" lon="6.98916"><ele>1288.4</ele><time>2017-06-15T14:42:57Z</time></trkpt>
<trkpt lat="46.08698" lon="6.98924"><ele>1288.4</ele><time>2017-06-15T14:42:59Z</time></trkpt>
<trkpt lat="46.087" lon="6.98929"><ele>1288.2</ele><time>2017-06-15T14:43:00Z</time></trkpt>
<trkpt lat="46.087" lon="6.98935"><ele>1288</ele><time>2017-06-15T14:43:01Z</time></trkpt>
<trkpt lat="46.087" lon="6.9894"><ele>1288</ele><time>2017-06-15T14:43:02Z</time></trkpt>
<trkpt lat="46.087" lon="6.98952"><ele>1287.8</ele><time>2017-06-15T14:43:04Z</time></trkpt>
<trkpt lat="46.087" lon="6.98963"><ele>1287.4</ele><time>2017-06-15T14:43:06Z</time></trkpt>
<trkpt lat="46.087" lon="6.98974"><ele>1287.2</ele><time>2017-06-15T14:43:08Z</time></trkpt>
<trkpt lat="46.08701" lon="6.98991"><ele>1286.8</ele><time>2017-06-15T14:43:11Z</time></trkpt>
<trkpt lat="46.08707" lon="6.98999"><ele>1286.6</ele><time>2017-06-15T14:43:13Z</time></trkpt>
<trkpt lat="46.08713" lon="6.99005"><ele>1286.4</ele><time>2017-06-15T14:43:15Z</time></trkpt>
<trkpt lat="46.08719" lon="6.99004"><ele>1286.2</ele><time>2017-06-15T14:43:16Z</time></trkpt>
<trkpt lat="46.0873" lon="6.99002"><ele>1286</ele><time>2017-06-15T14:43:18Z</time></trkpt>
<trkpt lat="46.08737" lon="6.99001"><ele>1286</ele><time>2017-06-15T14:43:19Z</time></trkpt>
<trkpt lat="46.08744" lon="6.99003"><ele>1285.8</ele><time>2017-06-15T14:43:20Z</time></trkpt>
<trkpt lat="46.08767" lon="6.99008"><ele>1285.4</ele><time>2017-06-15T14:43:23Z</time></trkpt>
<trkpt lat="46.08775" lon="6.9901"><ele>1285.4</ele><time>2017-06-15T14:43:24Z</time></trkpt>
<trkpt lat="46.08782" lon="6.99011"><ele>1285.2</ele><time>2017-06-15T14:43:25Z</time></trkpt>
<trkpt lat="46.0879" lon="6.99013"><ele>1285</ele><time>2017-06-15T14:43:26Z</time></trkpt>
<trkpt lat="46.08804" lon="6.99017"><ele>1284.6</ele><time>2017-06-15T14:43:28Z</time></trkpt>
<trkpt lat="46.08826" lon="6.99022"><ele>1283.2</ele><time>2017-06-15T14:43:31Z</time></trkpt>
<trkpt lat="46.08833" lon="6.99024"><ele>1282.6</ele><time>2017-06-15T14:43:32Z</time></trkpt>
<trkpt lat="46.0884" lon="6.99027"><ele>1282.2</ele><time>2017-06-15T14:43:33Z</time></trkpt>
<trkpt lat="46.08854" lon="6.99033"><ele>1281</ele><time>2017-06-15T14:43:35Z</time></trkpt>
<trkpt lat="46.0886" lon="6.99038"><ele>1280.6</ele><time>2017-06-15T14:43:36Z</time></trkpt>
<trkpt lat="46.08869" lon="6.9905"><ele>1279.4</ele><time>2017-06-15T14:43:38Z</time></trkpt>
<trkpt lat="46.08876" lon="6.99055"><ele>1279</ele><time>2017-06-15T14:43:39Z</time></trkpt>
<trkpt lat="46.08882" lon="6.9906"><ele>1278.4</ele><time>2017-06-15T14:43:40Z</time></trkpt>
<trkpt lat="46.08896" lon="6.99069"><ele>1277.4</ele><time>2017-06-15T14:43:42Z</time></trkpt>
<trkpt lat="46.08903" lon="6.99071"><ele>1277</ele><time>2017-06-15T14:43:43Z</time></trkpt>
<trkpt lat="46.08911" lon="6.99074"><ele>1276.4</ele><time>2017-06-15T14:43:44Z</time></trkpt>
<trkpt lat="46.08918" lon="6.99076"><ele>1275.8</ele><time>2017-06-15T14:43:45Z</time></trkpt>
<trkpt lat="46.08935" lon="6.99082"><ele>1274.8</ele><time>2017-06-15T14:43:47Z</time></trkpt>
<trkpt lat="46.08943" lon="6.99085"><ele>1274.2</ele><time>2017-06-15T14:43:48Z</time></trkpt>
<trkpt lat="46.08959" lon="6.9909"><ele>1273.2</ele><time>2017-06-15T14:43:50Z</time></trkpt>
<trkpt lat="46.08966" lon="6.99089"><ele>1272.4</ele><time>2017-06-15T14:43:51Z</time></trkpt>
<trkpt lat="46.0898" lon="6.99084"><ele>1271</ele><time>2017-06-15T14:43:53Z</time></trkpt>
<trkpt lat="46.08986" lon="6.99078"><ele>1270.2</ele><time>2017-06-15T14:43:54Z</time></trkpt>
<trkpt lat="46.0899" lon="6.99071"><ele>1269.4</ele><time>2017-06-15T14:43:55Z</time></trkpt>
<trkpt lat="46.0899" lon="6.99065"><ele>1268.6</ele><time>2017-06-15T14:43:56Z</time></trkpt>
<trkpt lat="46.08994" lon="6.99062"><ele>1267.8</ele><time>2017-06-15T14:43:57Z</time></trkpt>
<trkpt lat="46.09" lon="6.9906"><ele>1267.2</ele><time>2017-06-15T14:43:58Z</time></trkpt>
<trkpt lat="46.09034" lon="6.99056"><ele>1264.6</ele><time>2017-06-15T14:44:02Z</time></trkpt>
<trkpt lat="46.09046" lon="6.99062"><ele>1262.4</ele><time>2017-06-15T14:44:05Z</time></trkpt>
<trkpt lat="46.0906" lon="6.99077"><ele>1260.8</ele><time>2017-06-15T14:44:07Z</time></trkpt>
<trkpt lat="46.09064" lon="6.99078"><ele>1260</ele><time>2017-06-15T14:44:08Z</time></trkpt>
<trkpt lat="46.09072" lon="6.99082"><ele>1258.8</ele><time>2017-06-15T14:44:10Z</time></trkpt>
<trkpt lat="46.09076" lon="6.99084"><ele>1257.4</ele><time>2017-06-15T14:44:12Z</time></trkpt>
<trkpt lat="46.0907" lon="6.99085"><ele>1256.8</ele><time>2017-06-15T14:44:13Z</time></trkpt>
<trkpt lat="46.09063" lon="6.99085"><ele>1256.2</ele><time>2017-06-15T14:44:14Z</time></trkpt>
<trkpt lat="46.09044" lon="6.99086"><ele>1254.6</ele><time>2017-06-15T14:44:17Z</time></trkpt>
<trkpt lat="46.09032" lon="6.99088"><ele>1253.6</ele><time>2017-06-15T14:44:19Z</time></trkpt>
<trkpt lat="46.09023" lon="6.99096"><ele>1252.6</ele><time>2017-06-15T14:44:21Z</time></trkpt>
<trkpt lat="46.09027" lon="6.99107"><ele>1251.4</ele><time>2017-06-15T14:44:23Z</time></trkpt>
<trkpt lat="46.0903" lon="6.99109"><ele>1251</ele><time>2017-06-15T14:44:24Z</time></trkpt>
<trkpt lat="46.09038" lon="6.99109"><ele>1250</ele><time>2017-06-15T14:44:26Z</time></trkpt>
<trkpt lat="46.09044" lon="6.99104"><ele>1249.6</ele><time>2017-06-15T14:44:27Z</time></trkpt>
<trkpt lat="46.09052" lon="6.99103"><ele>1249</ele><time>2017-06-15T14:44:28Z</time></trkpt>
<trkpt lat="46.09067" lon="6.99101"><ele>1248</ele><time>2017-06-15T14:44:30Z</time></trkpt>
<trkpt lat="46.09092" lon="6.991"><ele>1246.6</ele><time>2017-06-15T14:44:33Z</time></trkpt>
<trkpt lat="46.09113" lon="6.99108"><ele>1245.4</ele><time>2017-06-15T14:44:35Z</time></trkpt>
<trkpt lat="46.09121" lon="6.99114"><ele>1244.6</ele><time>2017-06-15T14:44:36Z</time></trkpt>
<trkpt lat="46.09126" lon="6.9912"><ele>1243.6</ele><time>2017-06-15T14:44:37Z</time></trkpt>
<trkpt lat="46.09133" lon="6.99124"><ele>1242.8</ele><time>2017-06-15T14:44:38Z</time></trkpt>
<trkpt lat="46.09138" lon="6.99128"><ele>1242</ele><time>2017-06-15T14:44:39Z</time></trkpt>
<trkpt lat="46.09138" lon="6.99132"><ele>1241</ele><time>2017-06-15T14:44:40Z</time></trkpt>
<trkpt lat="46.09133" lon="6.99133"><ele>1240.2</ele><time>2017-06-15T14:44:41Z</time></trkpt>
<trkpt lat="46.09128" lon="6.99133"><ele>1239.6</ele><time>2017-06-15T14:44:42Z</time></trkpt>
<trkpt lat="46.09124" lon="6.9913"><ele>1239</ele><time>2017-06-15T14:44:43Z</time></trkpt>
<trkpt lat="46.0912" lon="6.99127"><ele>1238.4</ele><time>2017-06-15T14:44:44Z</time></trkpt>
<trkpt lat="46.09115" lon="6.99126"><ele>1237.8</ele><time>2017-06-15T14:44:45Z</time></trkpt>
<trkpt lat="46.0911" lon="6.99123"><ele>1237.2</ele><time>2017-06-15T14:44:46Z</time></trkpt>
<trkpt lat="46.09103" lon="6.9912"><ele>1236.6</ele><time>2017-06-15T14:44:47Z</time></trkpt>
<trkpt lat="46.09095" lon="6.99122"><ele>1235.8</ele><time>2017-06-15T14:44:48Z</time></trkpt>
<trkpt lat="46.09082" lon="6.99134"><ele>1234.4</ele><time>2017-06-15T14:44:50Z</time></trkpt>
<trkpt lat="46.09075" lon="6.99138"><ele>1233.8</ele><time>2017-06-15T14:44:51Z</time></trkpt>
<trkpt lat="46.09068" lon="6.99142"><ele>1233.2</ele><time>2017-06-15T14:44:52Z</time></trkpt>
<trkpt lat="46.09056" lon="6.9915"><ele>1231.8</ele><time>2017-06-15T14:44:54Z</time></trkpt>
<trkpt lat="46.09053" lon="6.99154"><ele>1231</ele><time>2017-06-15T14:44:55Z</time></trkpt>
<trkpt lat="46.09052" lon="6.99158"><ele>1230.4</ele><time>2017-06-15T14:44:56Z</time></trkpt>
<trkpt lat="46.09058" lon="6.99159"><ele>1229.4</ele><time>2017-06-15T14:44:58Z</time></trkpt>
<trkpt lat="46.0907" lon="6.99152"><ele>1228.2</ele><time>2017-06-15T14:45:00Z</time></trkpt>
<trkpt lat="46.09085" lon="6.99152"><ele>1227</ele><time>2017-06-15T14:45:02Z</time></trkpt>
<trkpt lat="46.09099" lon="6.99152"><ele>1225.6</ele><time>2017-06-15T14:45:04Z</time></trkpt>
<trkpt lat="46.09114" lon="6.99153"><ele>1224</ele><time>2017-06-15T14:45:06Z</time></trkpt>
<trkpt lat="46.09126" lon="6.99157"><ele>1222.4</ele><time>2017-06-15T14:45:08Z</time></trkpt>
<trkpt lat="46.09135" lon="6.99161"><ele>1220.8</ele><time>2017-06-15T14:45:10Z</time></trkpt>
<trkpt lat="46.09131" lon="6.99163"><ele>1220</ele><time>2017-06-15T14:45:11Z</time></trkpt>
<trkpt lat="46.09128" lon="6.99164"><ele>1219.4</ele><time>2017-06-15T14:45:12Z</time></trkpt>
<trkpt lat="46.09118" lon="6.99169"><ele>1218.2</ele><time>2017-06-15T14:45:15Z</time></trkpt>
<trkpt lat="46.09114" lon="6.99171"><ele>1217.8</ele><time>2017-06-15T14:45:16Z</time></trkpt>
<trkpt lat="46.09108" lon="6.99174"><ele>1217</ele><time>2017-06-15T14:45:18Z</time></trkpt>
<trkpt lat="46.09104" lon="6.99176"><ele>1216.6</ele><time>2017-06-15T14:45:19Z</time></trkpt>
<trkpt lat="46.09099" lon="6.99176"><ele>1216.2</ele><time>2017-06-15T14:45:20Z</time></trkpt>
<trkpt lat="46.0909" lon="6.99177"><ele>1215.4</ele><time>2017-06-15T14:45:22Z</time></trkpt>
<trkpt lat="46.09088" lon="6.99181"><ele>1215</ele><time>2017-06-15T14:45:23Z</time></trkpt>
<trkpt lat="46.0909" lon="6.99184"><ele>1214.6</ele><time>2017-06-15T14:45:24Z</time></trkpt>
<trkpt lat="46.09099" lon="6.99187"><ele>1214</ele><time>2017-06-15T14:45:25Z</time></trkpt>
<trkpt lat="46.09111" lon="6.99183"><ele>1213</ele><time>2017-06-15T14:45:27Z</time></trkpt>
<trkpt lat="46.09118" lon="6.99185"><ele>1212.6</ele><time>2017-06-15T14:45:28Z</time></trkpt>
<trkpt lat="46.09131" lon="6.99189"><ele>1211.6</ele><time>2017-06-15T14:45:30Z</time></trkpt>
<trkpt lat="46.09145" lon="6.99193"><ele>1210.6</ele><time>2017-06-15T14:45:32Z</time></trkpt>
<trkpt lat="46.09152" lon="6.99194"><ele>1210</ele><time>2017-06-15T14:45:33Z</time></trkpt>
<trkpt lat="46.09161" lon="6.99192"><ele>1209</ele><time>2017-06-15T14:45:34Z</time></trkpt>
<trkpt lat="46.09187" lon="6.99188"><ele>1206.4</ele><time>2017-06-15T14:45:37Z</time></trkpt>
<trkpt lat="46.09196" lon="6.99188"><ele>1205.6</ele><time>2017-06-15T14:45:38Z</time></trkpt>
<trkpt lat="46.09204" lon="6.9919"><ele>1204.8</ele><time>2017-06-15T14:45:39Z</time></trkpt>
<trkpt lat="46.09212" lon="6.99192"><ele>1203.8</ele><time>2017-06-15T14:45:40Z</time></trkpt>
<trkpt lat="46.09221" lon="6.99195"><ele>1203</ele><time>2017-06-15T14:45:41Z</time></trkpt>
<trkpt lat="46.09231" lon="6.99195"><ele>1202</ele><time>2017-06-15T14:45:42Z</time></trkpt>
<trkpt lat="46.09239" lon="6.99196"><ele>1201.2</ele><time>2017-06-15T14:45:43Z</time></trkpt>
<trkpt lat="46.09248" lon="6.99194"><ele>1200.2</ele><time>2017-06-15T14:45:44Z</time></trkpt>
<trkpt lat="46.09258" lon="6.99192"><ele>1199.2</ele><time>2017-06-15T14:45:45Z</time></trkpt>
<trkpt lat="46.09293" lon="6.99183"><ele>1192</ele><time>2017-06-15T14:45:49Z</time></trkpt>
<trkpt lat="46.09301" lon="6.99181"><ele>1190.4</ele><time>2017-06-15T14:45:50Z</time></trkpt>
<trkpt lat="46.09312" lon="6.99179"><ele>1187.8</ele><time>2017-06-15T14:45:52Z</time></trkpt>
<trkpt lat="46.0931" lon="6.99182"><ele>1186.6</ele><time>2017-06-15T14:45:53Z</time></trkpt>
<trkpt lat="46.09305" lon="6.99181"><ele>1183.2</ele><time>2017-06-15T14:45:56Z</time></trkpt>
<trkpt lat="46.09302" lon="6.99183"><ele>1182.6</ele><time>2017-06-15T14:45:57Z</time></trkpt>
<trkpt lat="46.09286" lon="6.99199"><ele>1180.6</ele><time>2017-06-15T14:46:00Z</time></trkpt>
<trkpt lat="46.09282" lon="6.99202"><ele>1179.8</ele><time>2017-06-15T14:46:01Z</time></trkpt>
<trkpt lat="46.0928" lon="6.99208"><ele>1177.8</ele><time>2017-06-15T14:46:04Z</time></trkpt>
<trkpt lat="46.09279" lon="6.99212"><ele>1176.6</ele><time>2017-06-15T14:46:06Z</time></trkpt>
<trkpt lat="46.09278" lon="6.99214"><ele>1175.8</ele><time>2017-06-15T14:46:07Z</time></trkpt>
<trkpt lat="46.0928" lon="6.99214"><ele>1175.2</ele><time>2017-06-15T14:46:08Z</time></trkpt>
<trkpt lat="46.0929" lon="6.99207"><ele>1173.8</ele><time>2017-06-15T14:46:10Z</time></trkpt>
<trkpt lat="46.09297" lon="6.99206"><ele>1173.2</ele><time>2017-06-15T14:46:11Z</time></trkpt>
<trkpt lat="46.09306" lon="6.99208"><ele>1172.6</ele><time>2017-06-15T14:46:12Z</time></trkpt>
<trkpt lat="46.09316" lon="6.99208"><ele>1172</ele><time>2017-06-15T14:46:13Z</time></trkpt>
<trkpt lat="46.09325" lon="6.99207"><ele>1171.2</ele><time>2017-06-15T14:46:14Z</time></trkpt>
<trkpt lat="46.09341" lon="6.99212"><ele>1169.2</ele><time>2017-06-15T14:46:17Z</time></trkpt>
<trkpt lat="46.09346" lon="6.99214"><ele>1168.2</ele><time>2017-06-15T14:46:18Z</time></trkpt>
<trkpt lat="46.09346" lon="6.99216"><ele>1167.2</ele><time>2017-06-15T14:46:19Z</time></trkpt>
<trkpt lat="46.09331" lon="6.99221"><ele>1165.2</ele><time>2017-06-15T14:46:21Z</time></trkpt>
<trkpt lat="46.09324" lon="6.99219"><ele>1164.2</ele><time>2017-06-15T14:46:22Z</time></trkpt>
<trkpt lat="46.09318" lon="6.99222"><ele>1163.4</ele><time>2017-06-15T14:46:23Z</time></trkpt>
<trkpt lat="46.09313" lon="6.99225"><ele>1162.4</ele><time>2017-06-15T14:46:24Z</time></trkpt>
<trkpt lat="46.09309" lon="6.99228"><ele>1161.4</ele><time>2017-06-15T14:46:25Z</time></trkpt>
<trkpt lat="46.09308" lon="6.99231"><ele>1160.4</ele><time>2017-06-15T14:46:26Z</time></trkpt>
<trkpt lat="46.09309" lon="6.99232"><ele>1159.6</ele><time>2017-06-15T14:46:27Z</time></trkpt>
<trkpt lat="46.09315" lon="6.99232"><ele>1157.8</ele><time>2017-06-15T14:46:29Z</time></trkpt>
<trkpt lat="46.09316" lon="6.99231"><ele>1157</ele><time>2017-06-15T14:46:30Z</time></trkpt>
<trkpt lat="46.09319" lon="6.99229"><ele>1156.2</ele><time>2017-06-15T14:46:31Z</time></trkpt>
<trkpt lat="46.09334" lon="6.99232"><ele>1154.8</ele><time>2017-06-15T14:46:33Z</time></trkpt>
<trkpt lat="46.09341" lon="6.99234"><ele>1154</ele><time>2017-06-15T14:46:34Z</time></trkpt>
<trkpt lat="46.09348" lon="6.99234"><ele>1153.2</ele><time>2017-06-15T14:46:35Z</time></trkpt>
<trkpt lat="46.09354" lon="6.99232"><ele>1152.4</ele><time>2017-06-15T14:46:36Z</time></trkpt>
<trkpt lat="46.09367" lon="6.99228"><ele>1151</ele><time>2017-06-15T14:46:38Z</time></trkpt>
<trkpt lat="46.09379" lon="6.99225"><ele>1149.4</ele><time>2017-06-15T14:46:40Z</time></trkpt>
<trkpt lat="46.0938" lon="6.99227"><ele>1148.6</ele><time>2017-06-15T14:46:41Z</time></trkpt>
<trkpt lat="46.09376" lon="6.99231"><ele>1148</ele><time>2017-06-15T14:46:42Z</time></trkpt>
<trkpt lat="46.09369" lon="6.9924"><ele>1146.4</ele><time>2017-06-15T14:46:44Z</time></trkpt>
<trkpt lat="46.09361" lon="6.99248"><ele>1145</ele><time>2017-06-15T14:46:46Z</time></trkpt>
<trkpt lat="46.09357" lon="6.99252"><ele>1144.2</ele><time>2017-06-15T14:46:47Z</time></trkpt>
<trkpt lat="46.09349" lon="6.99261"><ele>1142.8</ele><time>2017-06-15T14:46:49Z</time></trkpt>
<trkpt lat="46.09335" lon="6.99272"><ele>1141.4</ele><time>2017-06-15T14:46:51Z</time></trkpt>
<trkpt lat="46.09329" lon="6.99278"><ele>1140.6</ele><time>2017-06-15T14:46:52Z</time></trkpt>
<trkpt lat="46.09322" lon="6.99283"><ele>1139.8</ele><time>2017-06-15T14:46:53Z</time></trkpt>
<trkpt lat="46.09315" lon="6.99289"><ele>1138.6</ele><time>2017-06-15T14:46:54Z</time></trkpt>
<trkpt lat="46.0931" lon="6.99294"><ele>1137.4</ele><time>2017-06-15T14:46:55Z</time></trkpt>
<trkpt lat="46.09305" lon="6.99299"><ele>1136.4</ele><time>2017-06-15T14:46:56Z</time></trkpt>
<trkpt lat="46.09302" lon="6.99302"><ele>1135.2</ele><time>2017-06-15T14:46:57Z</time></trkpt>
<trkpt lat="46.09303" lon="6.99302"><ele>1134</ele><time>2017-06-15T14:46:58Z</time></trkpt>
<trkpt lat="46.09304" lon="6.99302"><ele>1133</ele><time>2017-06-15T14:46:59Z</time></trkpt>
<trkpt lat="46.09309" lon="6.993"><ele>1131.4</ele><time>2017-06-15T14:47:01Z</time></trkpt>
<trkpt lat="46.09326" lon="6.99291"><ele>1130</ele><time>2017-06-15T14:47:03Z</time></trkpt>
<trkpt lat="46.09342" lon="6.99287"><ele>1128.6</ele><time>2017-06-15T14:47:05Z</time></trkpt>
<trkpt lat="46.09358" lon="6.99283"><ele>1127</ele><time>2017-06-15T14:47:07Z</time></trkpt>
<trkpt lat="46.09366" lon="6.99281"><ele>1126.2</ele><time>2017-06-15T14:47:08Z</time></trkpt>
<trkpt lat="46.09375" lon="6.99278"><ele>1125.6</ele><time>2017-06-15T14:47:09Z</time></trkpt>
<trkpt lat="46.09385" lon="6.99273"><ele>1124.6</ele><time>2017-06-15T14:47:10Z</time></trkpt>
<trkpt lat="46.09395" lon="6.9927"><ele>1123.6</ele><time>2017-06-15T14:47:11Z</time></trkpt>
<trkpt lat="46.09405" lon="6.9927"><ele>1122.4</ele><time>2017-06-15T14:47:12Z</time></trkpt>
<trkpt lat="46.09426" lon="6.99269"><ele>1120.2</ele><time>2017-06-15T14:47:14Z</time></trkpt>
<trkpt lat="46.09436" lon="6.99267"><ele>1119</ele><time>2017-06-15T14:47:15Z</time></trkpt>
<trkpt lat="46.09455" lon="6.99261"><ele>1116.2</ele><time>2017-06-15T14:47:17Z</time></trkpt>
<trkpt lat="46.09463" lon="6.99258"><ele>1114.6</ele><time>2017-06-15T14:47:18Z</time></trkpt>
<trkpt lat="46.0947" lon="6.99255"><ele>1111.8</ele><time>2017-06-15T14:47:20Z</time></trkpt>
<trkpt lat="46.09467" lon="6.99263"><ele>1110.8</ele><time>2017-06-15T14:47:21Z</time></trkpt>
<trkpt lat="46.09459" lon="6.99272"><ele>1110.4</ele><time>2017-06-15T14:47:22Z</time></trkpt>
<trkpt lat="46.09444" lon="6.99278"><ele>1109.4</ele><time>2017-06-15T14:47:24Z</time></trkpt>
<trkpt lat="46.09414" lon="6.99289"><ele>1107.2</ele><time>2017-06-15T14:47:28Z</time></trkpt>
<trkpt lat="46.09407" lon="6.99293"><ele>1106.2</ele><time>2017-06-15T14:47:29Z</time></trkpt>
<trkpt lat="46.094" lon="6.99299"><ele>1105</ele><time>2017-06-15T14:47:30Z</time></trkpt>
<trkpt lat="46.09387" lon="6.99309"><ele>1102.8</ele><time>2017-06-15T14:47:32Z</time></trkpt>
<trkpt lat="46.09386" lon="6.99309"><ele>1100.4</ele><time>2017-06-15T14:47:34Z</time></trkpt>
<trkpt lat="46.09394" lon="6.99313"><ele>1097.2</ele><time>2017-06-15T14:47:37Z</time></trkpt>
<trkpt lat="46.09402" lon="6.99309"><ele>1096</ele><time>2017-06-15T14:47:39Z</time></trkpt>
<trkpt lat="46.09408" lon="6.99307"><ele>1095.4</ele><time>2017-06-15T14:47:40Z</time></trkpt>
<trkpt lat="46.09429" lon="6.99308"><ele>1094.2</ele><time>2017-06-15T14:47:42Z</time></trkpt>
<trkpt lat="46.09439" lon="6.99308"><ele>1093.4</ele><time>2017-06-15T14:47:43Z</time></trkpt>
<trkpt lat="46.09449" lon="6.99308"><ele>1092</ele><time>2017-06-15T14:47:44Z</time></trkpt>
<trkpt lat="46.09459" lon="6.99308"><ele>1090.6</ele><time>2017-06-15T14:47:45Z</time></trkpt>
<trkpt lat="46.09468" lon="6.99309"><ele>1089.2</ele><time>2017-06-15T14:47:46Z</time></trkpt>
<trkpt lat="46.09478" lon="6.99307"><ele>1088</ele><time>2017-06-15T14:47:47Z</time></trkpt>
<trkpt lat="46.09487" lon="6.99301"><ele>1086.6</ele><time>2017-06-15T14:47:48Z</time></trkpt>
<trkpt lat="46.09506" lon="6.99291"><ele>1083.6</ele><time>2017-06-15T14:47:50Z</time></trkpt>
<trkpt lat="46.09543" lon="6.99291"><ele>1079.2</ele><time>2017-06-15T14:47:53Z</time></trkpt>
<trkpt lat="46.09554" lon="6.99291"><ele>1078</ele><time>2017-06-15T14:47:54Z</time></trkpt>
<trkpt lat="46.09595" lon="6.99289"><ele>1072.8</ele><time>2017-06-15T14:47:58Z</time></trkpt>
<trkpt lat="46.09605" lon="6.99287"><ele>1071.4</ele><time>2017-06-15T14:47:59Z</time></trkpt>
<trkpt lat="46.09614" lon="6.99288"><ele>1070.2</ele><time>2017-06-15T14:48:00Z</time></trkpt>
<trkpt lat="46.0962" lon="6.99291"><ele>1069</ele><time>2017-06-15T14:48:01Z</time></trkpt>
<trkpt lat="46.09637" lon="6.99294"><ele>1066.6</ele><time>2017-06-15T14:48:03Z</time></trkpt>
<trkpt lat="46.09666" lon="6.99311"><ele>1062.6</ele><time>2017-06-15T14:48:07Z</time></trkpt>
<trkpt lat="46.09674" lon="6.99312"><ele>1061.6</ele><time>2017-06-15T14:48:08Z</time></trkpt>
<trkpt lat="46.09683" lon="6.99313"><ele>1060.8</ele><time>2017-06-15T14:48:09Z</time></trkpt>
<trkpt lat="46.09692" lon="6.99317"><ele>1060</ele><time>2017-06-15T14:48:10Z</time></trkpt>
<trkpt lat="46.0971" lon="6.99327"><ele>1058.4</ele><time>2017-06-15T14:48:12Z</time></trkpt>
<trkpt lat="46.09719" lon="6.99337"><ele>1057.6</ele><time>2017-06-15T14:48:13Z</time></trkpt>
<trkpt lat="46.09728" lon="6.99345"><ele>1056.8</ele><time>2017-06-15T14:48:14Z</time></trkpt>
<trkpt lat="46.09747" lon="6.9936"><ele>1055.2</ele><time>2017-06-15T14:48:16Z</time></trkpt>
<trkpt lat="46.09765" lon="6.99374"><ele>1053.8</ele><time>2017-06-15T14:48:18Z</time></trkpt>
<trkpt lat="46.09773" lon="6.99379"><ele>1053</ele><time>2017-06-15T14:48:19Z</time></trkpt>
<trkpt lat="46.09788" lon="6.9939"><ele>1051.8</ele><time>2017-06-15T14:48:21Z</time></trkpt>
<trkpt lat="46.09796" lon="6.99398"><ele>1051</ele><time>2017-06-15T14:48:22Z</time></trkpt>
<trkpt lat="46.09812" lon="6.99418"><ele>1049.6</ele><time>2017-06-15T14:48:24Z</time></trkpt>
<trkpt lat="46.0983" lon="6.99436"><ele>1048.4</ele><time>2017-06-15T14:48:26Z</time></trkpt>
<trkpt lat="46.0984" lon="6.99442"><ele>1047.8</ele><time>2017-06-15T14:48:27Z</time></trkpt>
<trkpt lat="46.09849" lon="6.99451"><ele>1047.2</ele><time>2017-06-15T14:48:28Z</time></trkpt>
<trkpt lat="46.09858" lon="6.9946"><ele>1046.4</ele><time>2017-06-15T14:48:29Z</time></trkpt>
<trkpt lat="46.09867" lon="6.99469"><ele>1045.8</ele><time>2017-06-15T14:48:30Z</time></trkpt>
<trkpt lat="46.09885" lon="6.99487"><ele>1044.4</ele><time>2017-06-15T14:48:32Z</time></trkpt>
<trkpt lat="46.09903" lon="6.99504"><ele>1042.8</ele><time>2017-06-15T14:48:34Z</time></trkpt>
<trkpt lat="46.09913" lon="6.9951"><ele>1042.2</ele><time>2017-06-15T14:48:35Z</time></trkpt>
<trkpt lat="46.09921" lon="6.99518"><ele>1041.6</ele><time>2017-06-15T14:48:36Z</time></trkpt>
<trkpt lat="46.0993" lon="6.99535"><ele>1040.2</ele><time>2017-06-15T14:48:38Z</time></trkpt>
<trkpt lat="46.0994" lon="6.99552"><ele>1039</ele><time>2017-06-15T14:48:40Z</time></trkpt>
<trkpt lat="46.09945" lon="6.9956"><ele>1038.2</ele><time>2017-06-15T14:48:41Z</time></trkpt>
<trkpt lat="46.0995" lon="6.99568"><ele>1037.4</ele><time>2017-06-15T14:48:42Z</time></trkpt>
<trkpt lat="46.09953" lon="6.99574"><ele>1036.8</ele><time>2017-06-15T14:48:43Z</time></trkpt>
<trkpt lat="46.09961" lon="6.99587"><ele>1035.2</ele><time>2017-06-15T14:48:45Z</time></trkpt>
<trkpt lat="46.09964" lon="6.99593"><ele>1034.6</ele><time>2017-06-15T14:48:46Z</time></trkpt>
<trkpt lat="46.09968" lon="6.996"><ele>1034.2</ele><time>2017-06-15T14:48:47Z</time></trkpt>
<trkpt lat="46.09972" lon="6.99606"><ele>1034</ele><time>2017-06-15T14:48:48Z</time></trkpt>
<trkpt lat="46.09976" lon="6.99612"><ele>1033.6</ele><time>2017-06-15T14:48:49Z</time></trkpt>
<trkpt lat="46.09982" lon="6.99615"><ele>1033.4</ele><time>2017-06-15T14:48:50Z</time></trkpt>
<trkpt lat="46.09995" lon="6.99617"><ele>1032.6</ele><time>2017-06-15T14:48:52Z</time></trkpt>
<trkpt lat="46.10002" lon="6.99619"><ele>1032.4</ele><time>2017-06-15T14:48:53Z</time></trkpt>
<trkpt lat="46.10014" lon="6.9963"><ele>1031.8</ele><time>2017-06-15T14:48:55Z</time></trkpt>
<trkpt lat="46.10019" lon="6.99635"><ele>1031.4</ele><time>2017-06-15T14:48:56Z</time></trkpt>
<trkpt lat="46.10032" lon="6.99655"><ele>1030.4</ele><time>2017-06-15T14:48:59Z</time></trkpt>
<trkpt lat="46.10037" lon="6.99662"><ele>1030.2</ele><time>2017-06-15T14:49:00Z</time></trkpt>
<trkpt lat="46.10049" lon="6.99673"><ele>1029.6</ele><time>2017-06-15T14:49:02Z</time></trkpt>
<trkpt lat="46.10062" lon="6.99685"><ele>1029</ele><time>2017-06-15T14:49:04Z</time></trkpt>
<trkpt lat="46.10068" lon="6.99693"><ele>1028.6</ele><time>2017-06-15T14:49:05Z</time></trkpt>
<trkpt lat="46.10074" lon="6.99702"><ele>1028.4</ele><time>2017-06-15T14:49:06Z</time></trkpt>
<trkpt lat="46.1008" lon="6.99711"><ele>1028</ele><time>2017-06-15T14:49:07Z</time></trkpt>
<trkpt lat="46.10092" lon="6.99728"><ele>1027</ele><time>2017-06-15T14:49:09Z</time></trkpt>
<trkpt lat="46.10099" lon="6.99736"><ele>1026.6</ele><time>2017-06-15T14:49:10Z</time></trkpt>
<trkpt lat="46.10113" lon="6.99753"><ele>1025.6</ele><time>2017-06-15T14:49:12Z</time></trkpt>
<trkpt lat="46.10135" lon="6.99778"><ele>1024.2</ele><time>2017-06-15T14:49:15Z</time></trkpt>
<trkpt lat="46.10153" lon="6.9979"><ele>1023.2</ele><time>2017-06-15T14:49:17Z</time></trkpt>
<trkpt lat="46.1017" lon="6.99801"><ele>1022.2</ele><time>2017-06-15T14:49:19Z</time></trkpt>
<trkpt lat="46.10179" lon="6.99807"><ele>1021.8</ele><time>2017-06-15T14:49:20Z</time></trkpt>
<trkpt lat="46.10202" lon="6.99829"><ele>1020.4</ele><time>2017-06-15T14:49:23Z</time></trkpt>
<trkpt lat="46.10206" lon="6.99836"><ele>1020</ele><time>2017-06-15T14:49:24Z</time></trkpt>
<trkpt lat="46.10217" lon="6.99857"><ele>1018.6</ele><time>2017-06-15T14:49:27Z</time></trkpt>
<trkpt lat="46.10214" lon="6.99866"><ele>1018.2</ele><time>2017-06-15T14:49:28Z</time></trkpt>
<trkpt lat="46.10212" lon="6.99875"><ele>1018</ele><time>2017-06-15T14:49:29Z</time></trkpt>
<trkpt lat="46.10218" lon="6.99891"><ele>1017.8</ele><time>2017-06-15T14:49:31Z</time></trkpt>
<trkpt lat="46.10221" lon="6.99899"><ele>1017.6</ele><time>2017-06-15T14:49:32Z</time></trkpt>
<trkpt lat="46.10227" lon="6.99914"><ele>1017.6</ele><time>2017-06-15T14:49:34Z</time></trkpt>
<trkpt lat="46.10237" lon="6.99923"><ele>1017.4</ele><time>2017-06-15T14:49:36Z</time></trkpt>
<trkpt lat="46.10247" lon="6.99931"><ele>1017.2</ele><time>2017-06-15T14:49:38Z</time></trkpt>
<trkpt lat="46.10252" lon="6.99932"><ele>1017.2</ele><time>2017-06-15T14:49:39Z</time></trkpt>
<trkpt lat="46.10258" lon="6.99933"><ele>1017.2</ele><time>2017-06-15T14:49:40Z</time></trkpt>
<trkpt lat="46.10264" lon="6.99935"><ele>1017</ele><time>2017-06-15T14:49:41Z</time></trkpt>
<trkpt lat="46.10269" lon="6.99936"><ele>1017</ele><time>2017-06-15T14:49:42Z</time></trkpt>
<trkpt lat="46.10286" lon="6.99938"><ele>1017</ele><time>2017-06-15T14:49:45Z</time></trkpt>
<trkpt lat="46.10298" lon="6.99933"><ele>1017</ele><time>2017-06-15T14:49:47Z</time></trkpt>
<trkpt lat="46.10303" lon="6.9993"><ele>1017.2</ele><time>2017-06-15T14:49:48Z</time></trkpt>
<trkpt lat="46.10307" lon="6.99924"><ele>1017.2</ele><time>2017-06-15T14:49:49Z</time></trkpt>
<trkpt lat="46.10314" lon="6.99913"><ele>1017.4</ele><time>2017-06-15T14:49:51Z</time></trkpt>
<trkpt lat="46.10317" lon="6.99907"><ele>1017.4</ele><time>2017-06-15T14:49:52Z</time></trkpt>
<trkpt lat="46.10348" lon="6.99879"><ele>1017.8</ele><time>2017-06-15T14:49:58Z</time></trkpt>
<trkpt lat="46.10374" lon="6.99842"><ele>1018.2</ele><time>2017-06-15T14:50:05Z</time></trkpt>
<trkpt lat="46.1038" lon="6.99843"><ele>1018.2</ele><time>2017-06-15T14:50:06Z</time></trkpt>
<trkpt lat="46.10386" lon="6.99845"><ele>1018.4</ele><time>2017-06-15T14:50:07Z</time></trkpt>
<trkpt lat="46.10391" lon="6.9985"><ele>1018.4</ele><time>2017-06-15T14:50:08Z</time></trkpt>
<trkpt lat="46.10394" lon="6.99856"><ele>1018.4</ele><time>2017-06-15T14:50:09Z</time></trkpt>
<trkpt lat="46.10394" lon="6.99862"><ele>1018.4</ele><time>2017-06-15T14:50:10Z</time></trkpt>
<trkpt lat="46.10395" lon="6.99875"><ele>1018.6</ele><time>2017-06-15T14:50:12Z</time></trkpt>
<trkpt lat="46.10396" lon="6.99894"><ele>1018.8</ele><time>2017-06-15T14:50:15Z</time></trkpt>
<trkpt lat="46.10396" lon="6.99902"><ele>1018.8</ele><time>2017-06-15T14:50:16Z</time></trkpt>
<trkpt lat="46.10393" lon="6.99912"><ele>1019</ele><time>2017-06-15T14:50:17Z</time></trkpt>
<trkpt lat="46.10391" lon="6.99922"><ele>1019</ele><time>2017-06-15T14:50:18Z</time></trkpt>
<trkpt lat="46.10386" lon="6.99942"><ele>1019.2</ele><time>2017-06-15T14:50:20Z</time></trkpt>
<trkpt lat="46.1038" lon="6.99962"><ele>1019.2</ele><time>2017-06-15T14:50:22Z</time></trkpt>
<trkpt lat="46.10376" lon="6.99972"><ele>1019.2</ele><time>2017-06-15T14:50:23Z</time></trkpt>
<trkpt lat="46.1037" lon="6.9998"><ele>1019.4</ele><time>2017-06-15T14:50:24Z</time></trkpt>
<trkpt lat="46.10366" lon="6.99988"><ele>1019.4</ele><time>2017-06-15T14:50:25Z</time></trkpt>
<trkpt lat="46.1037" lon="6.9999"><ele>1019.4</ele><time>2017-06-15T14:50:26Z</time></trkpt>
<trkpt lat="46.10375" lon="6.99995"><ele>1019.6</ele><time>2017-06-15T14:50:28Z</time></trkpt>
<trkpt lat="46.10374" lon="6.99999"><ele>1019.6</ele><time>2017-06-15T14:50:29Z</time></trkpt>
<trkpt lat="46.10375" lon="7.00003"><ele>1019.8</ele><time>2017-06-15T14:50:30Z</time></trkpt>
<trkpt lat="46.10378" lon="7.00011"><ele>1019.8</ele><time>2017-06-15T14:50:32Z</time></trkpt>
<trkpt lat="46.10381" lon="7.00013"><ele>1020</ele><time>2017-06-15T14:50:33Z</time></trkpt>
<trkpt lat="46.10383" lon="7.00029"><ele>1020</ele><time>2017-06-15T14:50:35Z</time></trkpt>
<trkpt lat="46.10383" lon="7.0004"><ele>1020</ele><time>2017-06-15T14:50:36Z</time></trkpt>
<trkpt lat="46.10379" lon="7.00059"><ele>1020.2</ele><time>2017-06-15T14:50:37Z</time></trkpt>
<trkpt lat="46.10375" lon="7.00077"><ele>1020.2</ele><time>2017-06-15T14:50:38Z</time></trkpt>
<trkpt lat="46.10372" lon="7.0009"><ele>1020.2</ele><time>2017-06-15T14:50:39Z</time></trkpt>
<trkpt lat="46.10372" lon="7.00094"><ele>1020.4</ele><time>2017-06-15T14:50:40Z</time></trkpt>
<trkpt lat="46.10372" lon="7.00102"><ele>1020.4</ele><time>2017-06-15T14:50:42Z</time></trkpt>
<trkpt lat="46.10371" lon="7.0011"><ele>1020.6</ele><time>2017-06-15T14:50:44Z</time></trkpt>
<trkpt lat="46.10372" lon="7.00118"><ele>1021</ele><time>2017-06-15T14:50:46Z</time></trkpt>
<trkpt lat="46.10376" lon="7.00125"><ele>1021.2</ele><time>2017-06-15T14:50:48Z</time></trkpt>
<trkpt lat="46.1038" lon="7.00133"><ele>1021.6</ele><time>2017-06-15T14:50:50Z</time></trkpt>
<trkpt lat="46.10387" lon="7.00144"><ele>1022</ele><time>2017-06-15T14:50:53Z</time></trkpt>
<trkpt lat="46.10389" lon="7.00148"><ele>1022.2</ele><time>2017-06-15T14:50:54Z</time></trkpt>
<trkpt lat="46.10391" lon="7.00152"><ele>1022.4</ele><time>2017-06-15T14:50:55Z</time></trkpt>
<trkpt lat="46.10396" lon="7.00159"><ele>1022.6</ele><time>2017-06-15T14:50:57Z</time></trkpt>
<trkpt lat="46.10398" lon="7.00161"><ele>1022.8</ele><time>2017-06-15T14:50:58Z</time></trkpt>
<trkpt lat="46.10404" lon="7.00164"><ele>1023</ele><time>2017-06-15T14:51:00Z</time></trkpt>
<trkpt lat="46.1041" lon="7.00167"><ele>1023.4</ele><time>2017-06-15T14:51:02Z</time></trkpt>
<trkpt lat="46.10415" lon="7.00171"><ele>1023.6</ele><time>2017-06-15T14:51:04Z</time></trkpt>
<trkpt lat="46.10421" lon="7.00174"><ele>1024</ele><time>2017-06-15T14:51:06Z</time></trkpt>
<trkpt lat="46.1043" lon="7.00179"><ele>1024.4</ele><time>2017-06-15T14:51:09Z</time></trkpt>
<trkpt lat="46.10432" lon="7.00181"><ele>1024.4</ele><time>2017-06-15T14:51:10Z</time></trkpt>
<trkpt lat="46.10438" lon="7.00185"><ele>1024.8</ele><time>2017-06-15T14:51:12Z</time></trkpt>
<trkpt lat="46.10442" lon="7.0019"><ele>1025</ele><time>2017-06-15T14:51:14Z</time></trkpt>
<trkpt lat="46.10449" lon="7.00197"><ele>1025.4</ele><time>2017-06-15T14:51:17Z</time></trkpt>
<trkpt lat="46.10451" lon="7.00199"><ele>1025.6</ele><time>2017-06-15T14:51:18Z</time></trkpt>
<trkpt lat="46.10456" lon="7.00204"><ele>1025.8</ele><time>2017-06-15T14:51:20Z</time></trkpt>
<trkpt lat="46.1046" lon="7.00209"><ele>1026</ele><time>2017-06-15T14:51:22Z</time></trkpt>
<trkpt lat="46.10462" lon="7.00212"><ele>1026.2</ele><time>2017-06-15T14:51:23Z</time></trkpt>
<trkpt lat="46.10465" lon="7.00214"><ele>1026.4</ele><time>2017-06-15T14:51:24Z</time></trkpt>
<trkpt lat="46.10469" lon="7.00219"><ele>1026.6</ele><time>2017-06-15T14:51:26Z</time></trkpt>
<trkpt lat="46.10474" lon="7.00224"><ele>1027</ele><time>2017-06-15T14:51:28Z</time></trkpt>
<trkpt lat="46.10476" lon="7.00226"><ele>1027</ele><time>2017-06-15T14:51:29Z</time></trkpt>
<trkpt lat="46.10482" lon="7.0023"><ele>1027.4</ele><time>2017-06-15T14:51:31Z</time></trkpt>
<trkpt lat="46.10485" lon="7.00232"><ele>1027.4</ele><time>2017-06-15T14:51:32Z</time></trkpt>
<trkpt lat="46.10492" lon="7.00235"><ele>1027.6</ele><time>2017-06-15T14:51:34Z</time></trkpt>
<trkpt lat="46.10501" lon="7.0024"><ele>1028</ele><time>2017-06-15T14:51:37Z</time></trkpt>
<trkpt lat="46.10504" lon="7.00242"><ele>1028.2</ele><time>2017-06-15T14:51:38Z</time></trkpt>
<trkpt lat="46.1051" lon="7.00245"><ele>1028.4</ele><time>2017-06-15T14:51:40Z</time></trkpt>
<trkpt lat="46.10516" lon="7.00249"><ele>1028.6</ele><time>2017-06-15T14:51:42Z</time></trkpt>
<trkpt lat="46.10519" lon="7.00251"><ele>1028.8</ele><time>2017-06-15T14:51:43Z</time></trkpt>
<trkpt lat="46.10522" lon="7.00253"><ele>1028.8</ele><time>2017-06-15T14:51:44Z</time></trkpt>
<trkpt lat="46.10525" lon="7.00256"><ele>1029</ele><time>2017-06-15T14:51:45Z</time></trkpt>
<trkpt lat="46.1053" lon="7.00261"><ele>1029.2</ele><time>2017-06-15T14:51:47Z</time></trkpt>
<trkpt lat="46.10533" lon="7.00263"><ele>1029.4</ele><time>2017-06-15T14:51:48Z</time></trkpt>
<trkpt lat="46.10538" lon="7.00268"><ele>1029.6</ele><time>2017-06-15T14:51:50Z</time></trkpt>
<trkpt lat="46.10544" lon="7.00273"><ele>1030</ele><time>2017-06-15T14:51:52Z</time></trkpt>
<trkpt lat="46.10549" lon="7.00278"><ele>1030.2</ele><time>2017-06-15T14:51:54Z</time></trkpt>
<trkpt lat="46.10555" lon="7.00283"><ele>1030.6</ele><time>2017-06-15T14:51:56Z</time></trkpt>
<trkpt lat="46.10557" lon="7.00286"><ele>1030.6</ele><time>2017-06-15T14:51:57Z</time></trkpt>
<trkpt lat="46.1056" lon="7.00288"><ele>1030.8</ele><time>2017-06-15T14:51:58Z</time></trkpt>
<trkpt lat="46.10564" lon="7.00294"><ele>1031</ele><time>2017-06-15T14:52:00Z</time></trkpt>
<trkpt lat="46.10569" lon="7.00299"><ele>1031.2</ele><time>2017-06-15T14:52:02Z</time></trkpt>
<trkpt lat="46.10576" lon="7.00307"><ele>1031.6</ele><time>2017-06-15T14:52:05Z</time></trkpt>
<trkpt lat="46.10579" lon="7.0031"><ele>1031.8</ele><time>2017-06-15T14:52:06Z</time></trkpt>
<trkpt lat="46.10586" lon="7.00318"><ele>1032.2</ele><time>2017-06-15T14:52:09Z</time></trkpt>
<trkpt lat="46.10588" lon="7.00321"><ele>1032.4</ele><time>2017-06-15T14:52:10Z</time></trkpt>
<trkpt lat="46.10593" lon="7.00326"><ele>1032.6</ele><time>2017-06-15T14:52:12Z</time></trkpt>
<trkpt lat="46.10595" lon="7.00329"><ele>1032.6</ele><time>2017-06-15T14:52:13Z</time></trkpt>
<trkpt lat="46.10597" lon="7.00332"><ele>1032.8</ele><time>2017-06-15T14:52:14Z</time></trkpt>
<trkpt lat="46.10603" lon="7.00343"><ele>1033.2</ele><time>2017-06-15T14:52:17Z</time></trkpt>
<trkpt lat="46.10605" lon="7.00346"><ele>1033.4</ele><time>2017-06-15T14:52:18Z</time></trkpt>
<trkpt lat="46.10609" lon="7.00353"><ele>1033.6</ele><time>2017-06-15T14:52:20Z</time></trkpt>
<trkpt lat="46.10615" lon="7.00363"><ele>1034</ele><time>2017-06-15T14:52:23Z</time></trkpt>
<trkpt lat="46.10617" lon="7.00366"><ele>1034.2</ele><time>2017-06-15T14:52:24Z</time></trkpt>
<trkpt lat="46.10621" lon="7.00373"><ele>1034.4</ele><time>2017-06-15T14:52:26Z</time></trkpt>
<trkpt lat="46.10625" lon="7.0038"><ele>1034.6</ele><time>2017-06-15T14:52:28Z</time></trkpt>
<trkpt lat="46.10625" lon="7.00385"><ele>1034.8</ele><time>2017-06-15T14:52:29Z</time></trkpt>
<trkpt lat="46.10626" lon="7.0039"><ele>1034.8</ele><time>2017-06-15T14:52:30Z</time></trkpt>
<trkpt lat="46.10629" lon="7.00404"><ele>1035.2</ele><time>2017-06-15T14:52:33Z</time></trkpt>
<trkpt lat="46.1063" lon="7.00409"><ele>1035.4</ele><time>2017-06-15T14:52:34Z</time></trkpt>
<trkpt lat="46.10632" lon="7.00423"><ele>1035.8</ele><time>2017-06-15T14:52:37Z</time></trkpt>
<trkpt lat="46.10633" lon="7.00428"><ele>1036</ele><time>2017-06-15T14:52:38Z</time></trkpt>
<trkpt lat="46.10635" lon="7.00438"><ele>1036.2</ele><time>2017-06-15T14:52:40Z</time></trkpt>
<trkpt lat="46.10636" lon="7.00443"><ele>1036.2</ele><time>2017-06-15T14:52:41Z</time></trkpt>
<trkpt lat="46.10637" lon="7.00447"><ele>1036.4</ele><time>2017-06-15T14:52:42Z</time></trkpt>
<trkpt lat="46.10639" lon="7.00455"><ele>1036.6</ele><time>2017-06-15T14:52:44Z</time></trkpt>
<trkpt lat="46.10641" lon="7.00464"><ele>1037</ele><time>2017-06-15T14:52:46Z</time></trkpt>
<trkpt lat="46.10642" lon="7.00468"><ele>1037</ele><time>2017-06-15T14:52:47Z</time></trkpt>
<trkpt lat="46.10643" lon="7.00473"><ele>1037.2</ele><time>2017-06-15T14:52:48Z</time></trkpt>
<trkpt lat="46.10645" lon="7.00481"><ele>1037.4</ele><time>2017-06-15T14:52:50Z</time></trkpt>
<trkpt lat="46.10647" lon="7.0049"><ele>1037.4</ele><time>2017-06-15T14:52:52Z</time></trkpt>
<trkpt lat="46.10649" lon="7.00498"><ele>1037.6</ele><time>2017-06-15T14:52:54Z</time></trkpt>
<trkpt lat="46.10651" lon="7.00507"><ele>1037.8</ele><time>2017-06-15T14:52:56Z</time></trkpt>
<trkpt lat="46.10655" lon="7.00514"><ele>1038</ele><time>2017-06-15T14:52:58Z</time></trkpt>
<trkpt lat="46.10661" lon="7.00526"><ele>1038.2</ele><time>2017-06-15T14:53:01Z</time></trkpt>
<trkpt lat="46.10663" lon="7.00529"><ele>1038.4</ele><time>2017-06-15T14:53:02Z</time></trkpt>
<trkpt lat="46.10667" lon="7.00537"><ele>1038.6</ele><time>2017-06-15T14:53:04Z</time></trkpt>
<trkpt lat="46.10671" lon="7.00544"><ele>1038.8</ele><time>2017-06-15T14:53:06Z</time></trkpt>
<trkpt lat="46.10675" lon="7.00552"><ele>1038.8</ele><time>2017-06-15T14:53:08Z</time></trkpt>
<trkpt lat="46.1068" lon="7.00559"><ele>1039</ele><time>2017-06-15T14:53:10Z</time></trkpt>
<trkpt lat="46.10685" lon="7.00566"><ele>1039.2</ele><time>2017-06-15T14:53:12Z</time></trkpt>
<trkpt lat="46.10689" lon="7.00572"><ele>1039.4</ele><time>2017-06-15T14:53:14Z</time></trkpt>
<trkpt lat="46.10694" lon="7.00579"><ele>1039.6</ele><time>2017-06-15T14:53:16Z</time></trkpt>
<trkpt lat="46.10699" lon="7.00585"><ele>1039.8</ele><time>2017-06-15T14:53:18Z</time></trkpt>
<trkpt lat="46.10704" lon="7.00592"><ele>1040</ele><time>2017-06-15T14:53:20Z</time></trkpt>
<trkpt lat="46.10707" lon="7.00595"><ele>1040</ele><time>2017-06-15T14:53:21Z</time></trkpt>
<trkpt lat="46.10709" lon="7.00598"><ele>1040.2</ele><time>2017-06-15T14:53:22Z</time></trkpt>
<trkpt lat="46.10714" lon="7.00605"><ele>1040.4</ele><time>2017-06-15T14:53:24Z</time></trkpt>
<trkpt lat="46.10723" lon="7.00618"><ele>1040.8</ele><time>2017-06-15T14:53:28Z</time></trkpt>
<trkpt lat="46.10726" lon="7.00622"><ele>1040.8</ele><time>2017-06-15T14:53:29Z</time></trkpt>
<trkpt lat="46.1073" lon="7.00628"><ele>1041</ele><time>2017-06-15T14:53:31Z</time></trkpt>
<trkpt lat="46.10735" lon="7.00635"><ele>1041.2</ele><time>2017-06-15T14:53:33Z</time></trkpt>
<trkpt lat="46.10737" lon="7.00638"><ele>1041.4</ele><time>2017-06-15T14:53:34Z</time></trkpt>
<trkpt lat="46.10744" lon="7.00648"><ele>1041.6</ele><time>2017-06-15T14:53:37Z</time></trkpt>
<trkpt lat="46.10747" lon="7.00652"><ele>1041.8</ele><time>2017-06-15T14:53:38Z</time></trkpt>
<trkpt lat="46.10755" lon="7.00661"><ele>1042</ele><time>2017-06-15T14:53:41Z</time></trkpt>
<trkpt lat="46.1076" lon="7.00668"><ele>1042.2</ele><time>2017-06-15T14:53:43Z</time></trkpt>
<trkpt lat="46.10763" lon="7.00671"><ele>1042.4</ele><time>2017-06-15T14:53:44Z</time></trkpt>
<trkpt lat="46.10768" lon="7.00677"><ele>1042.6</ele><time>2017-06-15T14:53:46Z</time></trkpt>
<trkpt lat="46.10773" lon="7.00684"><ele>1042.8</ele><time>2017-06-15T14:53:48Z</time></trkpt>
<trkpt lat="46.10779" lon="7.0069"><ele>1043</ele><time>2017-06-15T14:53:50Z</time></trkpt>
<trkpt lat="46.10781" lon="7.00694"><ele>1043</ele><time>2017-06-15T14:53:51Z</time></trkpt>
<trkpt lat="46.10783" lon="7.00698"><ele>1043.2</ele><time>2017-06-15T14:53:52Z</time></trkpt>
<trkpt lat="46.10787" lon="7.00707"><ele>1043.4</ele><time>2017-06-15T14:53:54Z</time></trkpt>
<trkpt lat="46.10789" lon="7.00711"><ele>1043.4</ele><time>2017-06-15T14:53:55Z</time></trkpt>
<trkpt lat="46.10791" lon="7.00715"><ele>1043.6</ele><time>2017-06-15T14:53:56Z</time></trkpt>
<trkpt lat="46.10795" lon="7.00724"><ele>1043.8</ele><time>2017-06-15T14:53:58Z</time></trkpt>
<trkpt lat="46.10801" lon="7.00737"><ele>1044.2</ele><time>2017-06-15T14:54:01Z</time></trkpt>
<trkpt lat="46.10803" lon="7.00741"><ele>1044.4</ele><time>2017-06-15T14:54:02Z</time></trkpt>
<trkpt lat="46.10807" lon="7.00749"><ele>1044.6</ele><time>2017-06-15T14:54:04Z</time></trkpt>
<trkpt lat="46.10809" lon="7.00753"><ele>1044.8</ele><time>2017-06-15T14:54:05Z</time></trkpt>
<trkpt lat="46.10811" lon="7.00756"><ele>1045</ele><time>2017-06-15T14:54:06Z</time></trkpt>
<trkpt lat="46.10818" lon="7.00766"><ele>1045.8</ele><time>2017-06-15T14:54:09Z</time></trkpt>
<trkpt lat="46.10822" lon="7.00773"><ele>1046.4</ele><time>2017-06-15T14:54:11Z</time></trkpt>
<trkpt lat="46.10824" lon="7.00777"><ele>1046.6</ele><time>2017-06-15T14:54:12Z</time></trkpt>
<trkpt lat="46.1083" lon="7.00787"><ele>1047.4</ele><time>2017-06-15T14:54:15Z</time></trkpt>
<trkpt lat="46.10834" lon="7.00794"><ele>1048</ele><time>2017-06-15T14:54:17Z</time></trkpt>
<trkpt lat="46.10836" lon="7.00797"><ele>1048.4</ele><time>2017-06-15T14:54:18Z</time></trkpt>
<trkpt lat="46.10838" lon="7.00801"><ele>1048.6</ele><time>2017-06-15T14:54:19Z</time></trkpt>
<trkpt lat="46.10839" lon="7.00805"><ele>1049</ele><time>2017-06-15T14:54:20Z</time></trkpt>
<trkpt lat="46.10842" lon="7.00813"><ele>1049.6</ele><time>2017-06-15T14:54:22Z</time></trkpt>
<trkpt lat="46.10843" lon="7.00816"><ele>1050</ele><time>2017-06-15T14:54:23Z</time></trkpt>
<trkpt lat="46.10846" lon="7.00818"><ele>1050.2</ele><time>2017-06-15T14:54:24Z</time></trkpt>
<trkpt lat="46.10851" lon="7.00821"><ele>1050.8</ele><time>2017-06-15T14:54:26Z</time></trkpt>
<trkpt lat="46.10859" lon="7.00827"><ele>1051.6</ele><time>2017-06-15T14:54:29Z</time></trkpt>
<trkpt lat="46.10861" lon="7.00828"><ele>1052</ele><time>2017-06-15T14:54:30Z</time></trkpt>
<trkpt lat="46.10866" lon="7.00832"><ele>1052.4</ele><time>2017-06-15T14:54:32Z</time></trkpt>
<trkpt lat="46.10869" lon="7.00834"><ele>1052.8</ele><time>2017-06-15T14:54:33Z</time></trkpt>
<trkpt lat="46.10871" lon="7.00835"><ele>1052.8</ele><time>2017-06-15T14:54:34Z</time></trkpt>
<trkpt lat="46.10876" lon="7.00839"><ele>1053</ele><time>2017-06-15T14:54:36Z</time></trkpt>
<trkpt lat="46.10881" lon="7.00842"><ele>1053.2</ele><time>2017-06-15T14:54:38Z</time></trkpt>
<trkpt lat="46.10884" lon="7.00845"><ele>1053.2</ele><time>2017-06-15T14:54:39Z</time></trkpt>
<trkpt lat="46.10888" lon="7.00848"><ele>1053</ele><time>2017-06-15T14:54:40Z</time></trkpt>
<trkpt lat="46.10897" lon="7.00854"><ele>1052.8</ele><time>2017-06-15T14:54:42Z</time></trkpt>
<trkpt lat="46.10909" lon="7.00863"><ele>1052.6</ele><time>2017-06-15T14:54:45Z</time></trkpt>
<trkpt lat="46.10913" lon="7.00866"><ele>1052.4</ele><time>2017-06-15T14:54:46Z</time></trkpt>
<trkpt lat="46.10921" lon="7.00873"><ele>1052.2</ele><time>2017-06-15T14:54:48Z</time></trkpt>
<trkpt lat="46.10926" lon="7.00877"><ele>1052</ele><time>2017-06-15T14:54:49Z</time></trkpt>
<trkpt lat="46.10931" lon="7.00883"><ele>1051.8</ele><time>2017-06-15T14:54:50Z</time></trkpt>
<trkpt lat="46.10943" lon="7.00896"><ele>1051.2</ele><time>2017-06-15T14:54:52Z</time></trkpt>
<trkpt lat="46.10955" lon="7.00908"><ele>1050.6</ele><time>2017-06-15T14:54:54Z</time></trkpt>
<trkpt lat="46.1096" lon="7.00915"><ele>1050.2</ele><time>2017-06-15T14:54:55Z</time></trkpt>
<trkpt lat="46.10967" lon="7.00921"><ele>1049.6</ele><time>2017-06-15T14:54:56Z</time></trkpt>
<trkpt lat="46.10981" lon="7.00935"><ele>1048.4</ele><time>2017-06-15T14:54:58Z</time></trkpt>
<trkpt lat="46.10995" lon="7.00948"><ele>1047.4</ele><time>2017-06-15T14:55:00Z</time></trkpt>
<trkpt lat="46.11009" lon="7.00962"><ele>1047.2</ele><time>2017-06-15T14:55:02Z</time></trkpt>
<trkpt lat="46.11021" lon="7.00974"><ele>1046.8</ele><time>2017-06-15T14:55:04Z</time></trkpt>
<trkpt lat="46.11032" lon="7.00987"><ele>1046.4</ele><time>2017-06-15T14:55:06Z</time></trkpt>
<trkpt lat="46.11038" lon="7.00994"><ele>1046.4</ele><time>2017-06-15T14:55:07Z</time></trkpt>
<trkpt lat="46.11043" lon="7.01001"><ele>1046.2</ele><time>2017-06-15T14:55:08Z</time></trkpt>
<trkpt lat="46.11058" lon="7.01022"><ele>1045.6</ele><time>2017-06-15T14:55:11Z</time></trkpt>
<trkpt lat="46.11064" lon="7.0103"><ele>1045.4</ele><time>2017-06-15T14:55:12Z</time></trkpt>
<trkpt lat="46.11079" lon="7.01045"><ele>1045.2</ele><time>2017-06-15T14:55:14Z</time></trkpt>
<trkpt lat="46.11094" lon="7.0106"><ele>1044.8</ele><time>2017-06-15T14:55:16Z</time></trkpt>
<trkpt lat="46.11101" lon="7.01069"><ele>1044.4</ele><time>2017-06-15T14:55:17Z</time></trkpt>
<trkpt lat="46.11109" lon="7.01078"><ele>1043.8</ele><time>2017-06-15T14:55:18Z</time></trkpt>
<trkpt lat="46.11124" lon="7.01096"><ele>1042.2</ele><time>2017-06-15T14:55:20Z</time></trkpt>
<trkpt lat="46.1113" lon="7.01106"><ele>1041.6</ele><time>2017-06-15T14:55:21Z</time></trkpt>
<trkpt lat="46.11135" lon="7.01119"><ele>1040.8</ele><time>2017-06-15T14:55:22Z</time></trkpt>
<trkpt lat="46.1114" lon="7.01132"><ele>1040</ele><time>2017-06-15T14:55:23Z</time></trkpt>
<trkpt lat="46.11145" lon="7.01145"><ele>1039.2</ele><time>2017-06-15T14:55:24Z</time></trkpt>
<trkpt lat="46.11155" lon="7.01171"><ele>1037.4</ele><time>2017-06-15T14:55:26Z</time></trkpt>
<trkpt lat="46.11164" lon="7.01181"><ele>1036.6</ele><time>2017-06-15T14:55:27Z</time></trkpt>
<trkpt lat="46.11179" lon="7.01186"><ele>1035.8</ele><time>2017-06-15T14:55:28Z</time></trkpt>
<trkpt lat="46.11201" lon="7.01201"><ele>1034</ele><time>2017-06-15T14:55:30Z</time></trkpt>
<trkpt lat="46.11222" lon="7.01217"><ele>1032.2</ele><time>2017-06-15T14:55:32Z</time></trkpt>
<trkpt lat="46.11239" lon="7.01234"><ele>1030.6</ele><time>2017-06-15T14:55:34Z</time></trkpt>
<trkpt lat="46.11257" lon="7.01248"><ele>1029.4</ele><time>2017-06-15T14:55:36Z</time></trkpt>
<trkpt lat="46.11278" lon="7.01248"><ele>1028.2</ele><time>2017-06-15T14:55:38Z</time></trkpt>
<trkpt lat="46.113" lon="7.01247"><ele>1027</ele><time>2017-06-15T14:55:40Z</time></trkpt>
<trkpt lat="46.1131" lon="7.01247"><ele>1026.4</ele><time>2017-06-15T14:55:41Z</time></trkpt>
<trkpt lat="46.11322" lon="7.01248"><ele>1026</ele><time>2017-06-15T14:55:42Z</time></trkpt>
<trkpt lat="46.11344" lon="7.01249"><ele>1024.8</ele><time>2017-06-15T14:55:44Z</time></trkpt>
<trkpt lat="46.11355" lon="7.0125"><ele>1024.2</ele><time>2017-06-15T14:55:45Z</time></trkpt>
<trkpt lat="46.11366" lon="7.01256"><ele>1023.4</ele><time>2017-06-15T14:55:46Z</time></trkpt>
<trkpt lat="46.11387" lon="7.01268"><ele>1021.4</ele><time>2017-06-15T14:55:48Z</time></trkpt>
<trkpt lat="46.11408" lon="7.01281"><ele>1019.6</ele><time>2017-06-15T14:55:50Z</time></trkpt>
<trkpt lat="46.1144" lon="7.01306"><ele>1016.6</ele><time>2017-06-15T14:55:53Z</time></trkpt>
<trkpt lat="46.11452" lon="7.01314"><ele>1015.6</ele><time>2017-06-15T14:55:54Z</time></trkpt>
<trkpt lat="46.11478" lon="7.01331"><ele>1013.6</ele><time>2017-06-15T14:55:56Z</time></trkpt>
<trkpt lat="46.11505" lon="7.01348"><ele>1011.4</ele><time>2017-06-15T14:55:58Z</time></trkpt>
<trkpt lat="46.11531" lon="7.01366"><ele>1008.4</ele><time>2017-06-15T14:56:00Z</time></trkpt>
<trkpt lat="46.11557" lon="7.01384"><ele>1005.2</ele><time>2017-06-15T14:56:02Z</time></trkpt>
<trkpt lat="46.11581" lon="7.01406"><ele>1002</ele><time>2017-06-15T14:56:04Z</time></trkpt>
<trkpt lat="46.11601" lon="7.01428"><ele>998.6</ele><time>2017-06-15T14:56:06Z</time></trkpt>
<trkpt lat="46.11628" lon="7.01452"><ele>993.6</ele><time>2017-06-15T14:56:09Z</time></trkpt>
<trkpt lat="46.1163" lon="7.01461"><ele>992.6</ele><time>2017-06-15T14:56:10Z</time></trkpt>
<trkpt lat="46.11632" lon="7.01468"><ele>991.6</ele><time>2017-06-15T14:56:11Z</time></trkpt>
<trkpt lat="46.11627" lon="7.01478"><ele>989.6</ele><time>2017-06-15T14:56:13Z</time></trkpt>
<trkpt lat="46.11622" lon="7.01477"><ele>988.8</ele><time>2017-06-15T14:56:14Z</time></trkpt>
<trkpt lat="46.11613" lon="7.01468"><ele>987.8</ele><time>2017-06-15T14:56:16Z</time></trkpt>
<trkpt lat="46.11608" lon="7.0146"><ele>987.4</ele><time>2017-06-15T14:56:17Z</time></trkpt>
<trkpt lat="46.11603" lon="7.01453"><ele>987</ele><time>2017-06-15T14:56:18Z</time></trkpt>
<trkpt lat="46.11591" lon="7.0144"><ele>986.2</ele><time>2017-06-15T14:56:20Z</time></trkpt>
<trkpt lat="46.11583" lon="7.01436"><ele>985.8</ele><time>2017-06-15T14:56:21Z</time></trkpt>
<trkpt lat="46.11574" lon="7.01435"><ele>985.4</ele><time>2017-06-15T14:56:22Z</time></trkpt>
<trkpt lat="46.11567" lon="7.01439"><ele>985</ele><time>2017-06-15T14:56:23Z</time></trkpt>
<trkpt lat="46.11564" lon="7.01446"><ele>984.6</ele><time>2017-06-15T14:56:24Z</time></trkpt>
<trkpt lat="46.11565" lon="7.01455"><ele>984.2</ele><time>2017-06-15T14:56:25Z</time></trkpt>
<trkpt lat="46.11568" lon="7.01462"><ele>983.4</ele><time>2017-06-15T14:56:26Z</time></trkpt>
<trkpt lat="46.11583" lon="7.01471"><ele>981.6</ele><time>2017-06-15T14:56:28Z</time></trkpt>
<trkpt lat="46.11599" lon="7.01483"><ele>980</ele><time>2017-06-15T14:56:30Z</time></trkpt>
<trkpt lat="46.11614" lon="7.01505"><ele>978.4</ele><time>2017-06-15T14:56:32Z</time></trkpt>
<trkpt lat="46.11631" lon="7.01527"><ele>976.6</ele><time>2017-06-15T14:56:34Z</time></trkpt>
<trkpt lat="46.11655" lon="7.01544"><ele>975</ele><time>2017-06-15T14:56:36Z</time></trkpt>
<trkpt lat="46.11668" lon="7.0155"><ele>973.8</ele><time>2017-06-15T14:56:37Z</time></trkpt>
<trkpt lat="46.11681" lon="7.01556"><ele>972.2</ele><time>2017-06-15T14:56:38Z</time></trkpt>
<trkpt lat="46.11694" lon="7.01563"><ele>970.4</ele><time>2017-06-15T14:56:39Z</time></trkpt>
<trkpt lat="46.11706" lon="7.01574"><ele>968.8</ele><time>2017-06-15T14:56:40Z</time></trkpt>
<trkpt lat="46.11728" lon="7.01595"><ele>965.2</ele><time>2017-06-15T14:56:42Z</time></trkpt>
<trkpt lat="46.11735" lon="7.01606"><ele>963.6</ele><time>2017-06-15T14:56:43Z</time></trkpt>
<trkpt lat="46.11743" lon="7.01618"><ele>962</ele><time>2017-06-15T14:56:44Z</time></trkpt>
<trkpt lat="46.11765" lon="7.01652"><ele>957</ele><time>2017-06-15T14:56:47Z</time></trkpt>
<trkpt lat="46.11771" lon="7.01663"><ele>955.4</ele><time>2017-06-15T14:56:48Z</time></trkpt>
<trkpt lat="46.11778" lon="7.01673"><ele>953.8</ele><time>2017-06-15T14:56:49Z</time></trkpt>
<trkpt lat="46.11784" lon="7.01684"><ele>952.8</ele><time>2017-06-15T14:56:50Z</time></trkpt>
<trkpt lat="46.11798" lon="7.01704"><ele>950.4</ele><time>2017-06-15T14:56:52Z</time></trkpt>
<trkpt lat="46.11814" lon="7.01721"><ele>948.4</ele><time>2017-06-15T14:56:54Z</time></trkpt>
<trkpt lat="46.11822" lon="7.01729"><ele>947.8</ele><time>2017-06-15T14:56:55Z</time></trkpt>
<trkpt lat="46.11838" lon="7.01746"><ele>946.6</ele><time>2017-06-15T14:56:57Z</time></trkpt>
<trkpt lat="46.11854" lon="7.01762"><ele>945.4</ele><time>2017-06-15T14:56:59Z</time></trkpt>
<trkpt lat="46.1187" lon="7.01778"><ele>944.2</ele><time>2017-06-15T14:57:01Z</time></trkpt>
<trkpt lat="46.11877" lon="7.01788"><ele>943.6</ele><time>2017-06-15T14:57:02Z</time></trkpt>
<trkpt lat="46.11884" lon="7.018"><ele>943.2</ele><time>2017-06-15T14:57:03Z</time></trkpt>
<trkpt lat="46.11891" lon="7.01812"><ele>942.6</ele><time>2017-06-15T14:57:04Z</time></trkpt>
<trkpt lat="46.11906" lon="7.01836"><ele>941.4</ele><time>2017-06-15T14:57:06Z</time></trkpt>
<trkpt lat="46.11932" lon="7.0187"><ele>939.8</ele><time>2017-06-15T14:57:09Z</time></trkpt>
<trkpt lat="46.1194" lon="7.0188"><ele>939.2</ele><time>2017-06-15T14:57:10Z</time></trkpt>
<trkpt lat="46.11947" lon="7.01889"><ele>938.6</ele><time>2017-06-15T14:57:11Z</time></trkpt>
<trkpt lat="46.11953" lon="7.01898"><ele>937.8</ele><time>2017-06-15T14:57:12Z</time></trkpt>
<trkpt lat="46.11967" lon="7.01915"><ele>936.4</ele><time>2017-06-15T14:57:14Z</time></trkpt>
<trkpt lat="46.1198" lon="7.01934"><ele>934.8</ele><time>2017-06-15T14:57:16Z</time></trkpt>
<trkpt lat="46.11998" lon="7.01974"><ele>932.4</ele><time>2017-06-15T14:57:19Z</time></trkpt>
<trkpt lat="46.12004" lon="7.01988"><ele>931.6</ele><time>2017-06-15T14:57:20Z</time></trkpt>
<trkpt lat="46.12008" lon="7.02"><ele>930.8</ele><time>2017-06-15T14:57:21Z</time></trkpt>
<trkpt lat="46.12008" lon="7.0201"><ele>929.8</ele><time>2017-06-15T14:57:22Z</time></trkpt>
<trkpt lat="46.12009" lon="7.02028"><ele>927.8</ele><time>2017-06-15T14:57:24Z</time></trkpt>
<trkpt lat="46.12015" lon="7.02036"><ele>925.8</ele><time>2017-06-15T14:57:26Z</time></trkpt>
<trkpt lat="46.12018" lon="7.02039"><ele>925.2</ele><time>2017-06-15T14:57:27Z</time></trkpt>
<trkpt lat="46.12021" lon="7.02043"><ele>925.4</ele><time>2017-06-15T14:57:28Z</time></trkpt>
<trkpt lat="46.12024" lon="7.02046"><ele>925.6</ele><time>2017-06-15T14:57:29Z</time></trkpt>
<trkpt lat="46.12034" lon="7.0205"><ele>926</ele><time>2017-06-15T14:57:31Z</time></trkpt>
<trkpt lat="46.12039" lon="7.02052"><ele>926</ele><time>2017-06-15T14:57:32Z</time></trkpt>
<trkpt lat="46.12049" lon="7.02056"><ele>926.4</ele><time>2017-06-15T14:57:34Z</time></trkpt>
<trkpt lat="46.12053" lon="7.02058"><ele>926.6</ele><time>2017-06-15T14:57:35Z</time></trkpt>
<trkpt lat="46.12056" lon="7.02062"><ele>926.8</ele><time>2017-06-15T14:57:36Z</time></trkpt>
<trkpt lat="46.12062" lon="7.02069"><ele>927</ele><time>2017-06-15T14:57:38Z</time></trkpt>
<trkpt lat="46.12069" lon="7.02075"><ele>927.4</ele><time>2017-06-15T14:57:40Z</time></trkpt>
<trkpt lat="46.12077" lon="7.02082"><ele>927.6</ele><time>2017-06-15T14:57:42Z</time></trkpt>
<trkpt lat="46.12081" lon="7.02085"><ele>927.8</ele><time>2017-06-15T14:57:43Z</time></trkpt>
<trkpt lat="46.12085" lon="7.02088"><ele>928</ele><time>2017-06-15T14:57:44Z</time></trkpt>
<trkpt lat="46.12093" lon="7.02094"><ele>928.2</ele><time>2017-06-15T14:57:46Z</time></trkpt>
<trkpt lat="46.12103" lon="7.02104"><ele>928.8</ele><time>2017-06-15T14:57:49Z</time></trkpt>
<trkpt lat="46.12105" lon="7.02109"><ele>928.8</ele><time>2017-06-15T14:57:50Z</time></trkpt>
<trkpt lat="46.12117" lon="7.02118"><ele>929</ele><time>2017-06-15T14:57:53Z</time></trkpt>
<trkpt lat="46.12125" lon="7.02124"><ele>929.2</ele><time>2017-06-15T14:57:55Z</time></trkpt>
<trkpt lat="46.12129" lon="7.02127"><ele>929.4</ele><time>2017-06-15T14:57:56Z</time></trkpt>
<trkpt lat="46.12137" lon="7.02133"><ele>929.6</ele><time>2017-06-15T14:57:58Z</time></trkpt>
<trkpt lat="46.12145" lon="7.0214"><ele>929.8</ele><time>2017-06-15T14:58:00Z</time></trkpt>
<trkpt lat="46.12153" lon="7.02148"><ele>929.6</ele><time>2017-06-15T14:58:02Z</time></trkpt>
<trkpt lat="46.12161" lon="7.02157"><ele>929.4</ele><time>2017-06-15T14:58:04Z</time></trkpt>
<trkpt lat="46.12168" lon="7.02165"><ele>929.4</ele><time>2017-06-15T14:58:06Z</time></trkpt>
<trkpt lat="46.12176" lon="7.02174"><ele>929.2</ele><time>2017-06-15T14:58:08Z</time></trkpt>
<trkpt lat="46.12184" lon="7.02182"><ele>929</ele><time>2017-06-15T14:58:10Z</time></trkpt>
<trkpt lat="46.12191" lon="7.02191"><ele>929</ele><time>2017-06-15T14:58:12Z</time></trkpt>
<trkpt lat="46.12198" lon="7.022"><ele>928.8</ele><time>2017-06-15T14:58:14Z</time></trkpt>
<trkpt lat="46.12205" lon="7.02208"><ele>928.6</ele><time>2017-06-15T14:58:16Z</time></trkpt>
<trkpt lat="46.12212" lon="7.02217"><ele>928.6</ele><time>2017-06-15T14:58:18Z</time></trkpt>
<trkpt lat="46.12215" lon="7.02221"><ele>928.4</ele><time>2017-06-15T14:58:19Z</time></trkpt>
<trkpt lat="46.12219" lon="7.02224"><ele>928.4</ele><time>2017-06-15T14:58:20Z</time></trkpt>
<trkpt lat="46.12227" lon="7.02231"><ele>928.2</ele><time>2017-06-15T14:58:22Z</time></trkpt>
<trkpt lat="46.12239" lon="7.02241"><ele>928</ele><time>2017-06-15T14:58:25Z</time></trkpt>
<trkpt lat="46.12243" lon="7.02244"><ele>928</ele><time>2017-06-15T14:58:26Z</time></trkpt>
<trkpt lat="46.1225" lon="7.02251"><ele>927.8</ele><time>2017-06-15T14:58:28Z</time></trkpt>
<trkpt lat="46.12254" lon="7.02255"><ele>927.8</ele><time>2017-06-15T14:58:29Z</time></trkpt>
<trkpt lat="46.12257" lon="7.0226"><ele>927.8</ele><time>2017-06-15T14:58:30Z</time></trkpt>
<trkpt lat="46.12264" lon="7.02271"><ele>927.6</ele><time>2017-06-15T14:58:32Z</time></trkpt>
<trkpt lat="46.12268" lon="7.02276"><ele>927.6</ele><time>2017-06-15T14:58:33Z</time></trkpt>
<trkpt lat="46.12273" lon="7.02281"><ele>927.4</ele><time>2017-06-15T14:58:34Z</time></trkpt>
<trkpt lat="46.12286" lon="7.02296"><ele>927.2</ele><time>2017-06-15T14:58:37Z</time></trkpt>
<trkpt lat="46.12291" lon="7.02301"><ele>927.2</ele><time>2017-06-15T14:58:38Z</time></trkpt>
<trkpt lat="46.12295" lon="7.02307"><ele>927.2</ele><time>2017-06-15T14:58:39Z</time></trkpt>
<trkpt lat="46.12298" lon="7.02313"><ele>927</ele><time>2017-06-15T14:58:40Z</time></trkpt>
<trkpt lat="46.12307" lon="7.02321"><ele>927</ele><time>2017-06-15T14:58:42Z</time></trkpt>
<trkpt lat="46.12312" lon="7.02326"><ele>926.6</ele><time>2017-06-15T14:58:43Z</time></trkpt>
<trkpt lat="46.12317" lon="7.0233"><ele>926</ele><time>2017-06-15T14:58:44Z</time></trkpt>
<trkpt lat="46.12326" lon="7.02339"><ele>925</ele><time>2017-06-15T14:58:46Z</time></trkpt>
<trkpt lat="46.12336" lon="7.02347"><ele>923.8</ele><time>2017-06-15T14:58:48Z</time></trkpt>
<trkpt lat="46.12341" lon="7.02352"><ele>923</ele><time>2017-06-15T14:58:49Z</time></trkpt>
<trkpt lat="46.12348" lon="7.02359"><ele>922</ele><time>2017-06-15T14:58:50Z</time></trkpt>
<trkpt lat="46.12359" lon="7.02385"><ele>920</ele><time>2017-06-15T14:58:52Z</time></trkpt>
<trkpt lat="46.1237" lon="7.0241"><ele>918</ele><time>2017-06-15T14:58:54Z</time></trkpt>
<trkpt lat="46.12375" lon="7.02422"><ele>917</ele><time>2017-06-15T14:58:55Z</time></trkpt>
<trkpt lat="46.12381" lon="7.02431"><ele>916</ele><time>2017-06-15T14:58:56Z</time></trkpt>
<trkpt lat="46.12393" lon="7.02451"><ele>913.8</ele><time>2017-06-15T14:58:58Z</time></trkpt>
<trkpt lat="46.124" lon="7.0246"><ele>912.8</ele><time>2017-06-15T14:58:59Z</time></trkpt>
<trkpt lat="46.1241" lon="7.02467"><ele>911.8</ele><time>2017-06-15T14:59:00Z</time></trkpt>
<trkpt lat="46.12428" lon="7.02482"><ele>910.4</ele><time>2017-06-15T14:59:02Z</time></trkpt>
<trkpt lat="46.12447" lon="7.02497"><ele>909</ele><time>2017-06-15T14:59:04Z</time></trkpt>
<trkpt lat="46.12465" lon="7.02515"><ele>907.4</ele><time>2017-06-15T14:59:06Z</time></trkpt>
<trkpt lat="46.12485" lon="7.02532"><ele>904.8</ele><time>2017-06-15T14:59:08Z</time></trkpt>
<trkpt lat="46.12509" lon="7.02546"><ele>902.4</ele><time>2017-06-15T14:59:10Z</time></trkpt>
<trkpt lat="46.12517" lon="7.02555"><ele>901.2</ele><time>2017-06-15T14:59:11Z</time></trkpt>
<trkpt lat="46.12525" lon="7.02564"><ele>899.8</ele><time>2017-06-15T14:59:12Z</time></trkpt>
<trkpt lat="46.1254" lon="7.02583"><ele>897</ele><time>2017-06-15T14:59:14Z</time></trkpt>
<trkpt lat="46.12548" lon="7.0259"><ele>895.8</ele><time>2017-06-15T14:59:15Z</time></trkpt>
<trkpt lat="46.12554" lon="7.02593"><ele>894.4</ele><time>2017-06-15T14:59:16Z</time></trkpt>
<trkpt lat="46.1256" lon="7.02596"><ele>893.2</ele><time>2017-06-15T14:59:17Z</time></trkpt>
<trkpt lat="46.12566" lon="7.02599"><ele>892.4</ele><time>2017-06-15T14:59:18Z</time></trkpt>
<trkpt lat="46.12579" lon="7.02605"><ele>890.8</ele><time>2017-06-15T14:59:20Z</time></trkpt>
<trkpt lat="46.12584" lon="7.02609"><ele>890</ele><time>2017-06-15T14:59:21Z</time></trkpt>
<trkpt lat="46.12593" lon="7.02619"><ele>888.6</ele><time>2017-06-15T14:59:23Z</time></trkpt>
<trkpt lat="46.12597" lon="7.02624"><ele>888</ele><time>2017-06-15T14:59:24Z</time></trkpt>
<trkpt lat="46.12614" lon="7.02643"><ele>886</ele><time>2017-06-15T14:59:28Z</time></trkpt>
<trkpt lat="46.12625" lon="7.02653"><ele>885</ele><time>2017-06-15T14:59:30Z</time></trkpt>
<trkpt lat="46.12633" lon="7.02657"><ele>884.4</ele><time>2017-06-15T14:59:31Z</time></trkpt>
<trkpt lat="46.12639" lon="7.02664"><ele>884</ele><time>2017-06-15T14:59:32Z</time></trkpt>
<trkpt lat="46.12645" lon="7.02668"><ele>883.4</ele><time>2017-06-15T14:59:33Z</time></trkpt>
<trkpt lat="46.12652" lon="7.02672"><ele>883</ele><time>2017-06-15T14:59:34Z</time></trkpt>
<trkpt lat="46.12659" lon="7.02679"><ele>882.2</ele><time>2017-06-15T14:59:35Z</time></trkpt>
<trkpt lat="46.12666" lon="7.02686"><ele>881.4</ele><time>2017-06-15T14:59:36Z</time></trkpt>
<trkpt lat="46.12673" lon="7.02693"><ele>880.4</ele><time>2017-06-15T14:59:37Z</time></trkpt>
<trkpt lat="46.12681" lon="7.02697"><ele>879.6</ele><time>2017-06-15T14:59:38Z</time></trkpt>
<trkpt lat="46.12696" lon="7.02706"><ele>877.6</ele><time>2017-06-15T14:59:40Z</time></trkpt>
<trkpt lat="46.12703" lon="7.02709"><ele>876.8</ele><time>2017-06-15T14:59:41Z</time></trkpt>
<trkpt lat="46.12708" lon="7.0271"><ele>875.8</ele><time>2017-06-15T14:59:42Z</time></trkpt>
<trkpt lat="46.12713" lon="7.02714"><ele>874.8</ele><time>2017-06-15T14:59:43Z</time></trkpt>
<trkpt lat="46.1272" lon="7.0272"><ele>873.8</ele><time>2017-06-15T14:59:44Z</time></trkpt>
<trkpt lat="46.12734" lon="7.0273"><ele>871.8</ele><time>2017-06-15T14:59:46Z</time></trkpt>
<trkpt lat="46.12741" lon="7.02738"><ele>870.8</ele><time>2017-06-15T14:59:47Z</time></trkpt>
<trkpt lat="46.1275" lon="7.02746"><ele>869.4</ele><time>2017-06-15T14:59:48Z</time></trkpt>
<trkpt lat="46.12771" lon="7.02766"><ele>867</ele><time>2017-06-15T14:59:50Z</time></trkpt>
<trkpt lat="46.12778" lon="7.02784"><ele>864.6</ele><time>2017-06-15T14:59:52Z</time></trkpt>
<trkpt lat="46.12786" lon="7.02793"><ele>863.2</ele><time>2017-06-15T14:59:53Z</time></trkpt>
<trkpt lat="46.12794" lon="7.02798"><ele>861.8</ele><time>2017-06-15T14:59:54Z</time></trkpt>
<trkpt lat="46.12803" lon="7.02812"><ele>858.8</ele><time>2017-06-15T14:59:56Z</time></trkpt>
<trkpt lat="46.12809" lon="7.02817"><ele>857.4</ele><time>2017-06-15T14:59:57Z</time></trkpt>
<trkpt lat="46.12816" lon="7.02823"><ele>856</ele><time>2017-06-15T14:59:58Z</time></trkpt>
<trkpt lat="46.12837" lon="7.02843"><ele>852.4</ele><time>2017-06-15T15:00:01Z</time></trkpt>
<trkpt lat="46.12842" lon="7.02855"><ele>851.2</ele><time>2017-06-15T15:00:02Z</time></trkpt>
<trkpt lat="46.12846" lon="7.02867"><ele>850</ele><time>2017-06-15T15:00:03Z</time></trkpt>
<trkpt lat="46.12852" lon="7.02876"><ele>848.8</ele><time>2017-06-15T15:00:04Z</time></trkpt>
<trkpt lat="46.12863" lon="7.02893"><ele>846.2</ele><time>2017-06-15T15:00:06Z</time></trkpt>
<trkpt lat="46.12875" lon="7.0291"><ele>843.6</ele><time>2017-06-15T15:00:08Z</time></trkpt>
<trkpt lat="46.1288" lon="7.02918"><ele>842.4</ele><time>2017-06-15T15:00:09Z</time></trkpt>
<trkpt lat="46.12886" lon="7.02926"><ele>841.2</ele><time>2017-06-15T15:00:10Z</time></trkpt>
<trkpt lat="46.12897" lon="7.02941"><ele>838.8</ele><time>2017-06-15T15:00:12Z</time></trkpt>
<trkpt lat="46.12908" lon="7.02947"><ele>836.4</ele><time>2017-06-15T15:00:14Z</time></trkpt>
<trkpt lat="46.12914" lon="7.0295"><ele>835.2</ele><time>2017-06-15T15:00:15Z</time></trkpt>
<trkpt lat="46.12925" lon="7.02955"><ele>833</ele><time>2017-06-15T15:00:17Z</time></trkpt>
<trkpt lat="46.1293" lon="7.02954"><ele>832</ele><time>2017-06-15T15:00:18Z</time></trkpt>
<trkpt lat="46.12931" lon="7.02954"><ele>831</ele><time>2017-06-15T15:00:19Z</time></trkpt>
<trkpt lat="46.12924" lon="7.02954"><ele>830</ele><time>2017-06-15T15:00:20Z</time></trkpt>
<trkpt lat="46.1291" lon="7.02954"><ele>829</ele><time>2017-06-15T15:00:22Z</time></trkpt>
<trkpt lat="46.12903" lon="7.02952"><ele>828.4</ele><time>2017-06-15T15:00:23Z</time></trkpt>
<trkpt lat="46.12899" lon="7.02948"><ele>827.8</ele><time>2017-06-15T15:00:24Z</time></trkpt>
<trkpt lat="46.12888" lon="7.0294"><ele>826.6</ele><time>2017-06-15T15:00:26Z</time></trkpt>
<trkpt lat="46.12881" lon="7.0294"><ele>826</ele><time>2017-06-15T15:00:27Z</time></trkpt>
<trkpt lat="46.12873" lon="7.0294"><ele>825.6</ele><time>2017-06-15T15:00:28Z</time></trkpt>
<trkpt lat="46.12869" lon="7.02941"><ele>825</ele><time>2017-06-15T15:00:29Z</time></trkpt>
<trkpt lat="46.12871" lon="7.02949"><ele>823.8</ele><time>2017-06-15T15:00:31Z</time></trkpt>
<trkpt lat="46.12876" lon="7.02955"><ele>822.4</ele><time>2017-06-15T15:00:33Z</time></trkpt>
<trkpt lat="46.12885" lon="7.02955"><ele>821.6</ele><time>2017-06-15T15:00:34Z</time></trkpt>
<trkpt lat="46.12904" lon="7.02971"><ele>819.4</ele><time>2017-06-15T15:00:37Z</time></trkpt>
<trkpt lat="46.1291" lon="7.02976"><ele>818.4</ele><time>2017-06-15T15:00:38Z</time></trkpt>
<trkpt lat="46.12917" lon="7.02981"><ele>817.4</ele><time>2017-06-15T15:00:39Z</time></trkpt>
<trkpt lat="46.12927" lon="7.02984"><ele>816.2</ele><time>2017-06-15T15:00:40Z</time></trkpt>
<trkpt lat="46.12946" lon="7.0299"><ele>814</ele><time>2017-06-15T15:00:42Z</time></trkpt>
<trkpt lat="46.12952" lon="7.02993"><ele>812.8</ele><time>2017-06-15T15:00:43Z</time></trkpt>
<trkpt lat="46.12951" lon="7.02994"><ele>811.6</ele><time>2017-06-15T15:00:44Z</time></trkpt>
<trkpt lat="46.12949" lon="7.02996"><ele>809.2</ele><time>2017-06-15T15:00:46Z</time></trkpt>
<trkpt lat="46.12946" lon="7.02997"><ele>807</ele><time>2017-06-15T15:00:48Z</time></trkpt>
<trkpt lat="46.12943" lon="7.02996"><ele>806.4</ele><time>2017-06-15T15:00:49Z</time></trkpt>
<trkpt lat="46.12941" lon="7.02993"><ele>805.8</ele><time>2017-06-15T15:00:50Z</time></trkpt>
<trkpt lat="46.12938" lon="7.0299"><ele>805.4</ele><time>2017-06-15T15:00:51Z</time></trkpt>
<trkpt lat="46.12935" lon="7.02991"><ele>804.8</ele><time>2017-06-15T15:00:52Z</time></trkpt>
<trkpt lat="46.12937" lon="7.02998"><ele>803.8</ele><time>2017-06-15T15:00:54Z</time></trkpt>
<trkpt lat="46.1294" lon="7.03002"><ele>802.8</ele><time>2017-06-15T15:00:56Z</time></trkpt>
<trkpt lat="46.12945" lon="7.02995"><ele>801.8</ele><time>2017-06-15T15:00:58Z</time></trkpt>
<trkpt lat="46.12947" lon="7.02991"><ele>801.4</ele><time>2017-06-15T15:00:59Z</time></trkpt>
<trkpt lat="46.12951" lon="7.02989"><ele>800.6</ele><time>2017-06-15T15:01:00Z</time></trkpt>
<trkpt lat="46.12966" lon="7.02994"><ele>799</ele><time>2017-06-15T15:01:02Z</time></trkpt>
<trkpt lat="46.12981" lon="7.02999"><ele>797.6</ele><time>2017-06-15T15:01:04Z</time></trkpt>
<trkpt lat="46.12989" lon="7.03001"><ele>796.8</ele><time>2017-06-15T15:01:05Z</time></trkpt>
<trkpt lat="46.12994" lon="7.03004"><ele>795.8</ele><time>2017-06-15T15:01:06Z</time></trkpt>
<trkpt lat="46.12998" lon="7.0301"><ele>793.4</ele><time>2017-06-15T15:01:08Z</time></trkpt>
<trkpt lat="46.12998" lon="7.03013"><ele>792.2</ele><time>2017-06-15T15:01:09Z</time></trkpt>
<trkpt lat="46.1299" lon="7.03016"><ele>790.2</ele><time>2017-06-15T15:01:11Z</time></trkpt>
<trkpt lat="46.12984" lon="7.03014"><ele>789.8</ele><time>2017-06-15T15:01:12Z</time></trkpt>
<trkpt lat="46.12973" lon="7.03011"><ele>788.8</ele><time>2017-06-15T15:01:14Z</time></trkpt>
<trkpt lat="46.1297" lon="7.03014"><ele>788.2</ele><time>2017-06-15T15:01:15Z</time></trkpt>
<trkpt lat="46.12968" lon="7.03021"><ele>787.8</ele><time>2017-06-15T15:01:16Z</time></trkpt>
<trkpt lat="46.12967" lon="7.03027"><ele>787.2</ele><time>2017-06-15T15:01:17Z</time></trkpt>
<trkpt lat="46.12968" lon="7.03031"><ele>786.4</ele><time>2017-06-15T15:01:18Z</time></trkpt>
<trkpt lat="46.1297" lon="7.03032"><ele>785.8</ele><time>2017-06-15T15:01:19Z</time></trkpt>
<trkpt lat="46.12973" lon="7.03027"><ele>785</ele><time>2017-06-15T15:01:20Z</time></trkpt>
<trkpt lat="46.12982" lon="7.03021"><ele>783.6</ele><time>2017-06-15T15:01:22Z</time></trkpt>
<trkpt lat="46.12988" lon="7.03025"><ele>783</ele><time>2017-06-15T15:01:23Z</time></trkpt>
<trkpt lat="46.12994" lon="7.03029"><ele>782.2</ele><time>2017-06-15T15:01:24Z</time></trkpt>
<trkpt lat="46.13005" lon="7.03036"><ele>780.6</ele><time>2017-06-15T15:01:26Z</time></trkpt>
<trkpt lat="46.13009" lon="7.03039"><ele>779</ele><time>2017-06-15T15:01:28Z</time></trkpt>
<trkpt lat="46.13009" lon="7.03039"><ele>778.4</ele><time>2017-06-15T15:01:29Z</time></trkpt>
<trkpt lat="46.13005" lon="7.03039"><ele>777.8</ele><time>2017-06-15T15:01:30Z</time></trkpt>
<trkpt lat="46.12996" lon="7.03045"><ele>776.6</ele><time>2017-06-15T15:01:32Z</time></trkpt>
<trkpt lat="46.12989" lon="7.03051"><ele>775.2</ele><time>2017-06-15T15:01:34Z</time></trkpt>
<trkpt lat="46.1299" lon="7.03055"><ele>774.2</ele><time>2017-06-15T15:01:36Z</time></trkpt>
<trkpt lat="46.12992" lon="7.03057"><ele>773.6</ele><time>2017-06-15T15:01:37Z</time></trkpt>
<trkpt lat="46.12998" lon="7.0306"><ele>773</ele><time>2017-06-15T15:01:38Z</time></trkpt>
<trkpt lat="46.1301" lon="7.03064"><ele>771.8</ele><time>2017-06-15T15:01:40Z</time></trkpt>
<trkpt lat="46.13016" lon="7.03067"><ele>771.2</ele><time>2017-06-15T15:01:41Z</time></trkpt>
<trkpt lat="46.13021" lon="7.03071"><ele>770.4</ele><time>2017-06-15T15:01:42Z</time></trkpt>
<trkpt lat="46.13022" lon="7.03074"><ele>769.8</ele><time>2017-06-15T15:01:43Z</time></trkpt>
<trkpt lat="46.13018" lon="7.03074"><ele>769</ele><time>2017-06-15T15:01:44Z</time></trkpt>
<trkpt lat="46.13014" lon="7.03074"><ele>768.2</ele><time>2017-06-15T15:01:45Z</time></trkpt>
<trkpt lat="46.1301" lon="7.03074"><ele>767.6</ele><time>2017-06-15T15:01:46Z</time></trkpt>
<trkpt lat="46.13005" lon="7.03076"><ele>766.4</ele><time>2017-06-15T15:01:48Z</time></trkpt>
<trkpt lat="46.13008" lon="7.03081"><ele>765.8</ele><time>2017-06-15T15:01:49Z</time></trkpt>
<trkpt lat="46.13014" lon="7.03084"><ele>765</ele><time>2017-06-15T15:01:50Z</time></trkpt>
<trkpt lat="46.1302" lon="7.03087"><ele>764.4</ele><time>2017-06-15T15:01:51Z</time></trkpt>
<trkpt lat="46.13026" lon="7.03091"><ele>763.6</ele><time>2017-06-15T15:01:52Z</time></trkpt>
<trkpt lat="46.13039" lon="7.03106"><ele>762.2</ele><time>2017-06-15T15:01:54Z</time></trkpt>
<trkpt lat="46.13052" lon="7.03119"><ele>760.6</ele><time>2017-06-15T15:01:56Z</time></trkpt>
<trkpt lat="46.13058" lon="7.03122"><ele>759.6</ele><time>2017-06-15T15:01:57Z</time></trkpt>
<trkpt lat="46.13062" lon="7.03127"><ele>758.6</ele><time>2017-06-15T15:01:58Z</time></trkpt>
<trkpt lat="46.13067" lon="7.03134"><ele>756.6</ele><time>2017-06-15T15:02:00Z</time></trkpt>
<trkpt lat="46.13063" lon="7.03133"><ele>755.6</ele><time>2017-06-15T15:02:01Z</time></trkpt>
<trkpt lat="46.13062" lon="7.0313"><ele>755</ele><time>2017-06-15T15:02:02Z</time></trkpt>
<trkpt lat="46.13055" lon="7.03125"><ele>753.8</ele><time>2017-06-15T15:02:04Z</time></trkpt>
<trkpt lat="46.13051" lon="7.03123"><ele>753</ele><time>2017-06-15T15:02:05Z</time></trkpt>
<trkpt lat="46.13047" lon="7.03124"><ele>752.4</ele><time>2017-06-15T15:02:06Z</time></trkpt>
<trkpt lat="46.13042" lon="7.03126"><ele>751.8</ele><time>2017-06-15T15:02:07Z</time></trkpt>
<trkpt lat="46.13039" lon="7.03129"><ele>751.2</ele><time>2017-06-15T15:02:08Z</time></trkpt>
<trkpt lat="46.13039" lon="7.03142"><ele>749.8</ele><time>2017-06-15T15:02:10Z</time></trkpt>
<trkpt lat="46.1304" lon="7.03153"><ele>748.6</ele><time>2017-06-15T15:02:12Z</time></trkpt>
<trkpt lat="46.13046" lon="7.03153"><ele>747.2</ele><time>2017-06-15T15:02:14Z</time></trkpt>
<trkpt lat="46.13048" lon="7.03148"><ele>746</ele><time>2017-06-15T15:02:16Z</time></trkpt>
<trkpt lat="46.1305" lon="7.03146"><ele>745.4</ele><time>2017-06-15T15:02:17Z</time></trkpt>
<trkpt lat="46.13053" lon="7.03147"><ele>744.8</ele><time>2017-06-15T15:02:18Z</time></trkpt>
<trkpt lat="46.13057" lon="7.03151"><ele>743.6</ele><time>2017-06-15T15:02:20Z</time></trkpt>
<trkpt lat="46.13072" lon="7.03153"><ele>741.6</ele><time>2017-06-15T15:02:23Z</time></trkpt>
<trkpt lat="46.13085" lon="7.0315"><ele>740.8</ele><time>2017-06-15T15:02:24Z</time></trkpt>
<trkpt lat="46.13098" lon="7.03152"><ele>739.2</ele><time>2017-06-15T15:02:26Z</time></trkpt>
<trkpt lat="46.13108" lon="7.03155"><ele>737.8</ele><time>2017-06-15T15:02:28Z</time></trkpt>
<trkpt lat="46.13104" lon="7.03158"><ele>736.6</ele><time>2017-06-15T15:02:30Z</time></trkpt>
<trkpt lat="46.13101" lon="7.03158"><ele>736</ele><time>2017-06-15T15:02:31Z</time></trkpt>
<trkpt lat="46.13098" lon="7.03154"><ele>735.4</ele><time>2017-06-15T15:02:32Z</time></trkpt>
<trkpt lat="46.13092" lon="7.03156"><ele>734.8</ele><time>2017-06-15T15:02:33Z</time></trkpt>
<trkpt lat="46.13085" lon="7.03162"><ele>734.2</ele><time>2017-06-15T15:02:34Z</time></trkpt>
<trkpt lat="46.13073" lon="7.03175"><ele>732.6</ele><time>2017-06-15T15:02:36Z</time></trkpt>
<trkpt lat="46.13066" lon="7.0319"><ele>731.2</ele><time>2017-06-15T15:02:38Z</time></trkpt>
<trkpt lat="46.13063" lon="7.03194"><ele>730.4</ele><time>2017-06-15T15:02:39Z</time></trkpt>
<trkpt lat="46.13062" lon="7.03189"><ele>729.6</ele><time>2017-06-15T15:02:40Z</time></trkpt>
<trkpt lat="46.13065" lon="7.03182"><ele>728.6</ele><time>2017-06-15T15:02:41Z</time></trkpt>
<trkpt lat="46.13074" lon="7.03177"><ele>727.8</ele><time>2017-06-15T15:02:42Z</time></trkpt>
<trkpt lat="46.13091" lon="7.03168"><ele>726</ele><time>2017-06-15T15:02:44Z</time></trkpt>
<trkpt lat="46.13108" lon="7.0316"><ele>724</ele><time>2017-06-15T15:02:46Z</time></trkpt>
<trkpt lat="46.13117" lon="7.03161"><ele>723.2</ele><time>2017-06-15T15:02:47Z</time></trkpt>
<trkpt lat="46.13128" lon="7.03164"><ele>722.2</ele><time>2017-06-15T15:02:48Z</time></trkpt>
<trkpt lat="46.13148" lon="7.03169"><ele>720.4</ele><time>2017-06-15T15:02:50Z</time></trkpt>
<trkpt lat="46.13157" lon="7.0317"><ele>719.4</ele><time>2017-06-15T15:02:51Z</time></trkpt>
<trkpt lat="46.13164" lon="7.03174"><ele>718.6</ele><time>2017-06-15T15:02:52Z</time></trkpt>
<trkpt lat="46.13166" lon="7.03176"><ele>717.6</ele><time>2017-06-15T15:02:53Z</time></trkpt>
<trkpt lat="46.13158" lon="7.03177"><ele>716.6</ele><time>2017-06-15T15:02:54Z</time></trkpt>
<trkpt lat="46.13152" lon="7.03179"><ele>715.8</ele><time>2017-06-15T15:02:55Z</time></trkpt>
<trkpt lat="46.13149" lon="7.03183"><ele>715</ele><time>2017-06-15T15:02:56Z</time></trkpt>
<trkpt lat="46.13145" lon="7.03187"><ele>714.4</ele><time>2017-06-15T15:02:57Z</time></trkpt>
<trkpt lat="46.13139" lon="7.0319"><ele>713.8</ele><time>2017-06-15T15:02:58Z</time></trkpt>
<trkpt lat="46.13134" lon="7.03194"><ele>713.2</ele><time>2017-06-15T15:02:59Z</time></trkpt>
<trkpt lat="46.13131" lon="7.032"><ele>712.6</ele><time>2017-06-15T15:03:00Z</time></trkpt>
<trkpt lat="46.13129" lon="7.03215"><ele>711.4</ele><time>2017-06-15T15:03:02Z</time></trkpt>
<trkpt lat="46.13128" lon="7.0323"><ele>710</ele><time>2017-06-15T15:03:04Z</time></trkpt>
<trkpt lat="46.13129" lon="7.03238"><ele>709.2</ele><time>2017-06-15T15:03:05Z</time></trkpt>
<trkpt lat="46.13129" lon="7.03249"><ele>708.4</ele><time>2017-06-15T15:03:06Z</time></trkpt>
<trkpt lat="46.1313" lon="7.03258"><ele>707.6</ele><time>2017-06-15T15:03:07Z</time></trkpt>
<trkpt lat="46.13131" lon="7.03266"><ele>707</ele><time>2017-06-15T15:03:08Z</time></trkpt>
<trkpt lat="46.13132" lon="7.03275"><ele>706.2</ele><time>2017-06-15T15:03:09Z</time></trkpt>
<trkpt lat="46.13136" lon="7.03285"><ele>705.6</ele><time>2017-06-15T15:03:10Z</time></trkpt>
<trkpt lat="46.13143" lon="7.033"><ele>704</ele><time>2017-06-15T15:03:12Z</time></trkpt>
<trkpt lat="46.13147" lon="7.03296"><ele>702.4</ele><time>2017-06-15T15:03:14Z</time></trkpt>
<trkpt lat="46.13148" lon="7.03294"><ele>701.4</ele><time>2017-06-15T15:03:15Z</time></trkpt>
<trkpt lat="46.13147" lon="7.0329"><ele>700.6</ele><time>2017-06-15T15:03:16Z</time></trkpt>
<trkpt lat="46.13146" lon="7.03281"><ele>699</ele><time>2017-06-15T15:03:18Z</time></trkpt>
<trkpt lat="46.13146" lon="7.03272"><ele>698.6</ele><time>2017-06-15T15:03:19Z</time></trkpt>
<trkpt lat="46.13146" lon="7.03263"><ele>698</ele><time>2017-06-15T15:03:20Z</time></trkpt>
<trkpt lat="46.13145" lon="7.03254"><ele>697.6</ele><time>2017-06-15T15:03:21Z</time></trkpt>
<trkpt lat="46.13144" lon="7.03245"><ele>697</ele><time>2017-06-15T15:03:22Z</time></trkpt>
<trkpt lat="46.13143" lon="7.03228"><ele>695.8</ele><time>2017-06-15T15:03:24Z</time></trkpt>
<trkpt lat="46.13149" lon="7.03214"><ele>694.2</ele><time>2017-06-15T15:03:26Z</time></trkpt>
<trkpt lat="46.13158" lon="7.0321"><ele>692.4</ele><time>2017-06-15T15:03:28Z</time></trkpt>
<trkpt lat="46.13166" lon="7.03205"><ele>690.8</ele><time>2017-06-15T15:03:30Z</time></trkpt>
<trkpt lat="46.1317" lon="7.03203"><ele>690</ele><time>2017-06-15T15:03:31Z</time></trkpt>
<trkpt lat="46.13174" lon="7.03201"><ele>689.4</ele><time>2017-06-15T15:03:32Z</time></trkpt>
<trkpt lat="46.13177" lon="7.032"><ele>688.8</ele><time>2017-06-15T15:03:33Z</time></trkpt>
<trkpt lat="46.13177" lon="7.03204"><ele>688.2</ele><time>2017-06-15T15:03:34Z</time></trkpt>
<trkpt lat="46.13167" lon="7.03215"><ele>686.8</ele><time>2017-06-15T15:03:36Z</time></trkpt>
<trkpt lat="46.13162" lon="7.03221"><ele>686.2</ele><time>2017-06-15T15:03:37Z</time></trkpt>
<trkpt lat="46.13158" lon="7.03228"><ele>685.6</ele><time>2017-06-15T15:03:38Z</time></trkpt>
<trkpt lat="46.13152" lon="7.03242"><ele>684.4</ele><time>2017-06-15T15:03:40Z</time></trkpt>
<trkpt lat="46.13151" lon="7.03254"><ele>683.2</ele><time>2017-06-15T15:03:42Z</time></trkpt>
<trkpt lat="46.13152" lon="7.03256"><ele>682.6</ele><time>2017-06-15T15:03:43Z</time></trkpt>
<trkpt lat="46.13158" lon="7.03252"><ele>682</ele><time>2017-06-15T15:03:44Z</time></trkpt>
<trkpt lat="46.13163" lon="7.03247"><ele>681.4</ele><time>2017-06-15T15:03:45Z</time></trkpt>
<trkpt lat="46.13167" lon="7.03238"><ele>680.8</ele><time>2017-06-15T15:03:46Z</time></trkpt>
<trkpt lat="46.13175" lon="7.03219"><ele>679.6</ele><time>2017-06-15T15:03:48Z</time></trkpt>
<trkpt lat="46.13179" lon="7.03213"><ele>679</ele><time>2017-06-15T15:03:49Z</time></trkpt>
<trkpt lat="46.13184" lon="7.03212"><ele>678.2</ele><time>2017-06-15T15:03:50Z</time></trkpt>
<trkpt lat="46.13192" lon="7.0321"><ele>676.6</ele><time>2017-06-15T15:03:52Z</time></trkpt>
<trkpt lat="46.13194" lon="7.03211"><ele>676</ele><time>2017-06-15T15:03:53Z</time></trkpt>
<trkpt lat="46.13194" lon="7.03214"><ele>675.2</ele><time>2017-06-15T15:03:54Z</time></trkpt>
<trkpt lat="46.13197" lon="7.03221"><ele>674</ele><time>2017-06-15T15:03:56Z</time></trkpt>
<trkpt lat="46.13194" lon="7.03229"><ele>673.4</ele><time>2017-06-15T15:03:57Z</time></trkpt>
<trkpt lat="46.1319" lon="7.03237"><ele>673</ele><time>2017-06-15T15:03:58Z</time></trkpt>
<trkpt lat="46.13183" lon="7.03254"><ele>671.8</ele><time>2017-06-15T15:04:00Z</time></trkpt>
<trkpt lat="46.13174" lon="7.03276"><ele>670</ele><time>2017-06-15T15:04:03Z</time></trkpt>
<trkpt lat="46.13177" lon="7.03276"><ele>669.4</ele><time>2017-06-15T15:04:04Z</time></trkpt>
<trkpt lat="46.13179" lon="7.03274"><ele>668.8</ele><time>2017-06-15T15:04:05Z</time></trkpt>
<trkpt lat="46.13181" lon="7.03267"><ele>668.2</ele><time>2017-06-15T15:04:06Z</time></trkpt>
<trkpt lat="46.13185" lon="7.03253"><ele>667.2</ele><time>2017-06-15T15:04:08Z</time></trkpt>
<trkpt lat="46.13186" lon="7.03246"><ele>666.6</ele><time>2017-06-15T15:04:09Z</time></trkpt>
<trkpt lat="46.1319" lon="7.03243"><ele>666</ele><time>2017-06-15T15:04:10Z</time></trkpt>
<trkpt lat="46.13199" lon="7.03235"><ele>664.8</ele><time>2017-06-15T15:04:12Z</time></trkpt>
<trkpt lat="46.13201" lon="7.03234"><ele>664.2</ele><time>2017-06-15T15:04:13Z</time></trkpt>
<trkpt lat="46.132" lon="7.03238"><ele>663.6</ele><time>2017-06-15T15:04:14Z</time></trkpt>
<trkpt lat="46.13197" lon="7.03246"><ele>662.2</ele><time>2017-06-15T15:04:16Z</time></trkpt>
<trkpt lat="46.13194" lon="7.03253"><ele>660.6</ele><time>2017-06-15T15:04:18Z</time></trkpt>
<trkpt lat="46.13192" lon="7.03259"><ele>659.8</ele><time>2017-06-15T15:04:19Z</time></trkpt>
<trkpt lat="46.1319" lon="7.03269"><ele>658.8</ele><time>2017-06-15T15:04:20Z</time></trkpt>
<trkpt lat="46.13186" lon="7.0329"><ele>657.2</ele><time>2017-06-15T15:04:22Z</time></trkpt>
<trkpt lat="46.13181" lon="7.0331"><ele>655.6</ele><time>2017-06-15T15:04:24Z</time></trkpt>
<trkpt lat="46.13179" lon="7.03319"><ele>654.8</ele><time>2017-06-15T15:04:25Z</time></trkpt>
<trkpt lat="46.13178" lon="7.03316"><ele>654</ele><time>2017-06-15T15:04:26Z</time></trkpt>
<trkpt lat="46.13182" lon="7.0331"><ele>653.2</ele><time>2017-06-15T15:04:27Z</time></trkpt>
<trkpt lat="46.13191" lon="7.03302"><ele>652.4</ele><time>2017-06-15T15:04:28Z</time></trkpt>
<trkpt lat="46.13199" lon="7.03283"><ele>651</ele><time>2017-06-15T15:04:30Z</time></trkpt>
<trkpt lat="46.13208" lon="7.03264"><ele>649.6</ele><time>2017-06-15T15:04:32Z</time></trkpt>
<trkpt lat="46.13224" lon="7.03249"><ele>647.4</ele><time>2017-06-15T15:04:34Z</time></trkpt>
<trkpt lat="46.13238" lon="7.03237"><ele>645.4</ele><time>2017-06-15T15:04:36Z</time></trkpt>
<trkpt lat="46.13241" lon="7.0324"><ele>643.6</ele><time>2017-06-15T15:04:38Z</time></trkpt>
<trkpt lat="46.13226" lon="7.03258"><ele>642.2</ele><time>2017-06-15T15:04:40Z</time></trkpt>
<trkpt lat="46.1322" lon="7.03266"><ele>641.6</ele><time>2017-06-15T15:04:41Z</time></trkpt>
<trkpt lat="46.13217" lon="7.03276"><ele>641</ele><time>2017-06-15T15:04:42Z</time></trkpt>
<trkpt lat="46.1321" lon="7.03295"><ele>639.6</ele><time>2017-06-15T15:04:44Z</time></trkpt>
<trkpt lat="46.13207" lon="7.03305"><ele>638.4</ele><time>2017-06-15T15:04:45Z</time></trkpt>
<trkpt lat="46.13208" lon="7.03316"><ele>637.2</ele><time>2017-06-15T15:04:46Z</time></trkpt>
<trkpt lat="46.13209" lon="7.03337"><ele>635</ele><time>2017-06-15T15:04:48Z</time></trkpt>
<trkpt lat="46.1321" lon="7.03346"><ele>634</ele><time>2017-06-15T15:04:49Z</time></trkpt>
<trkpt lat="46.13213" lon="7.0335"><ele>633</ele><time>2017-06-15T15:04:50Z</time></trkpt>
<trkpt lat="46.13218" lon="7.03347"><ele>632.2</ele><time>2017-06-15T15:04:51Z</time></trkpt>
<trkpt lat="46.1322" lon="7.03337"><ele>631.4</ele><time>2017-06-15T15:04:52Z</time></trkpt>
<trkpt lat="46.13221" lon="7.03311"><ele>629.8</ele><time>2017-06-15T15:04:54Z</time></trkpt>
<trkpt lat="46.13222" lon="7.033"><ele>629</ele><time>2017-06-15T15:04:55Z</time></trkpt>
<trkpt lat="46.13225" lon="7.03292"><ele>628.4</ele><time>2017-06-15T15:04:56Z</time></trkpt>
<trkpt lat="46.1323" lon="7.03285"><ele>628</ele><time>2017-06-15T15:04:57Z</time></trkpt>
<trkpt lat="46.13234" lon="7.03277"><ele>627.4</ele><time>2017-06-15T15:04:58Z</time></trkpt>
<trkpt lat="46.13234" lon="7.03269"><ele>626.8</ele><time>2017-06-15T15:04:59Z</time></trkpt>
<trkpt lat="46.13237" lon="7.03262"><ele>626.2</ele><time>2017-06-15T15:05:00Z</time></trkpt>
<trkpt lat="46.13241" lon="7.03256"><ele>625.6</ele><time>2017-06-15T15:05:01Z</time></trkpt>
<trkpt lat="46.13246" lon="7.03252"><ele>625.2</ele><time>2017-06-15T15:05:02Z</time></trkpt>
<trkpt lat="46.1325" lon="7.03253"><ele>624.6</ele><time>2017-06-15T15:05:03Z</time></trkpt>
<trkpt lat="46.1325" lon="7.03263"><ele>624</ele><time>2017-06-15T15:05:04Z</time></trkpt>
<trkpt lat="46.13243" lon="7.03281"><ele>622.8</ele><time>2017-06-15T15:05:06Z</time></trkpt>
<trkpt lat="46.1324" lon="7.0329"><ele>622.2</ele><time>2017-06-15T15:05:07Z</time></trkpt>
<trkpt lat="46.13237" lon="7.03298"><ele>621.4</ele><time>2017-06-15T15:05:08Z</time></trkpt>
<trkpt lat="46.1323" lon="7.03316"><ele>619.8</ele><time>2017-06-15T15:05:10Z</time></trkpt>
<trkpt lat="46.13228" lon="7.03325"><ele>619</ele><time>2017-06-15T15:05:11Z</time></trkpt>
<trkpt lat="46.13226" lon="7.03332"><ele>618.2</ele><time>2017-06-15T15:05:12Z</time></trkpt>
<trkpt lat="46.13224" lon="7.0334"><ele>616.2</ele><time>2017-06-15T15:05:14Z</time></trkpt>
<trkpt lat="46.13227" lon="7.0333"><ele>615.2</ele><time>2017-06-15T15:05:15Z</time></trkpt>
<trkpt lat="46.13229" lon="7.03322"><ele>614.2</ele><time>2017-06-15T15:05:16Z</time></trkpt>
<trkpt lat="46.13234" lon="7.03314"><ele>613.4</ele><time>2017-06-15T15:05:17Z</time></trkpt>
<trkpt lat="46.13236" lon="7.03306"><ele>612.6</ele><time>2017-06-15T15:05:18Z</time></trkpt>
<trkpt lat="46.1324" lon="7.03299"><ele>611.8</ele><time>2017-06-15T15:05:19Z</time></trkpt>
<trkpt lat="46.13245" lon="7.03292"><ele>611</ele><time>2017-06-15T15:05:20Z</time></trkpt>
<trkpt lat="46.13251" lon="7.03282"><ele>609.6</ele><time>2017-06-15T15:05:22Z</time></trkpt>
<trkpt lat="46.13255" lon="7.03282"><ele>609</ele><time>2017-06-15T15:05:23Z</time></trkpt>
<trkpt lat="46.13257" lon="7.03282"><ele>608.4</ele><time>2017-06-15T15:05:24Z</time></trkpt>
<trkpt lat="46.13258" lon="7.03286"><ele>606.4</ele><time>2017-06-15T15:05:28Z</time></trkpt>
<trkpt lat="46.13249" lon="7.03305"><ele>604.8</ele><time>2017-06-15T15:05:30Z</time></trkpt>
<trkpt lat="46.13241" lon="7.03325"><ele>603.4</ele><time>2017-06-15T15:05:32Z</time></trkpt>
<trkpt lat="46.13237" lon="7.03335"><ele>602.6</ele><time>2017-06-15T15:05:33Z</time></trkpt>
<trkpt lat="46.13237" lon="7.03342"><ele>602.2</ele><time>2017-06-15T15:05:34Z</time></trkpt>
<trkpt lat="46.13238" lon="7.03345"><ele>601.4</ele><time>2017-06-15T15:05:36Z</time></trkpt>
<trkpt lat="46.1324" lon="7.03348"><ele>600.8</ele><time>2017-06-15T15:05:38Z</time></trkpt>
<trkpt lat="46.13242" lon="7.03351"><ele>599.6</ele><time>2017-06-15T15:05:41Z</time></trkpt>
<trkpt lat="46.13244" lon="7.0335"><ele>599.2</ele><time>2017-06-15T15:05:42Z</time></trkpt>
<trkpt lat="46.13247" lon="7.03349"><ele>598.6</ele><time>2017-06-15T15:05:44Z</time></trkpt>
<trkpt lat="46.1325" lon="7.03348"><ele>598.2</ele><time>2017-06-15T15:05:46Z</time></trkpt>
<trkpt lat="46.1325" lon="7.03348"><ele>597.8</ele><time>2017-06-15T15:05:49Z</time></trkpt>
<trkpt lat="46.1325" lon="7.03348"><ele>597.6</ele><time>2017-06-15T15:05:50Z</time></trkpt>
<trkpt lat="46.1325" lon="7.03347"><ele>597.2</ele><time>2017-06-15T15:05:52Z</time></trkpt>
<trkpt lat="46.1325" lon="7.03347"><ele>597</ele><time>2017-06-15T15:05:54Z</time></trkpt>
<trkpt lat="46.13249" lon="7.03347"><ele>596.8</ele><time>2017-06-15T15:05:55Z</time></trkpt>
<trkpt lat="46.13249" lon="7.03347"><ele>596.8</ele><time>2017-06-15T15:05:56Z</time></trkpt>
<trkpt lat="46.13249" lon="7.03347"><ele>597</ele><time>2017-06-15T15:05:58Z</time></trkpt>
<trkpt lat="46.13249" lon="7.03346"><ele>597.2</ele><time>2017-06-15T15:06:01Z</time></trkpt>
<trkpt lat="46.13261" lon="7.03324"><ele>584</ele><time>2017-06-15T15:06:03Z</time></trkpt>
<trkpt lat="46.13261" lon="7.03324"><ele>584</ele><time>2017-06-15T15:07:07Z</time></trkpt>
<trkpt lat="46.13273" lon="7.03301"><ele>571.4</ele><time>2017-06-15T15:07:09Z</time></trkpt>
<trkpt lat="46.1328" lon="7.03411"><ele>571</ele><time>2017-06-15T15:07:10Z</time></trkpt>
<trkpt lat="46.13287" lon="7.03408"><ele>570.2</ele><time>2017-06-15T15:07:12Z</time></trkpt>
<trkpt lat="46.1328" lon="7.03393"><ele>569.4</ele><time>2017-06-15T15:07:14Z</time></trkpt>
<trkpt lat="46.13278" lon="7.03387"><ele>569</ele><time>2017-06-15T15:07:15Z</time></trkpt>
<trkpt lat="46.13274" lon="7.0338"><ele>568.6</ele><time>2017-06-15T15:07:16Z</time></trkpt>
<trkpt lat="46.13271" lon="7.03375"><ele>568.2</ele><time>2017-06-15T15:07:17Z</time></trkpt>
<trkpt lat="46.13272" lon="7.03373"><ele>567.8</ele><time>2017-06-15T15:07:18Z</time></trkpt>
<trkpt lat="46.13273" lon="7.03371"><ele>567.6</ele><time>2017-06-15T15:07:19Z</time></trkpt>
<trkpt lat="46.13274" lon="7.03369"><ele>567.2</ele><time>2017-06-15T15:07:20Z</time></trkpt>
<trkpt lat="46.13275" lon="7.03365"><ele>566.6</ele><time>2017-06-15T15:07:22Z</time></trkpt>
<trkpt lat="46.13277" lon="7.03361"><ele>566</ele><time>2017-06-15T15:07:24Z</time></trkpt>
<trkpt lat="46.13278" lon="7.03357"><ele>565.4</ele><time>2017-06-15T15:07:26Z</time></trkpt>
<trkpt lat="46.1328" lon="7.03353"><ele>564.6</ele><time>2017-06-15T15:07:28Z</time></trkpt>
<trkpt lat="46.13283" lon="7.03349"><ele>564</ele><time>2017-06-15T15:07:30Z</time></trkpt>
<trkpt lat="46.13287" lon="7.03347"><ele>563.6</ele><time>2017-06-15T15:07:31Z</time></trkpt>
<trkpt lat="46.13291" lon="7.03345"><ele>563.2</ele><time>2017-06-15T15:07:32Z</time></trkpt>
<trkpt lat="46.13299" lon="7.03341"><ele>562.2</ele><time>2017-06-15T15:07:34Z</time></trkpt>
<trkpt lat="46.13304" lon="7.0334"><ele>561.8</ele><time>2017-06-15T15:07:35Z</time></trkpt>
<trkpt lat="46.13309" lon="7.03341"><ele>561.2</ele><time>2017-06-15T15:07:36Z</time></trkpt>
<trkpt lat="46.13318" lon="7.03342"><ele>560.2</ele><time>2017-06-15T15:07:38Z</time></trkpt>
<trkpt lat="46.1332" lon="7.03343"><ele>559.8</ele><time>2017-06-15T15:07:39Z</time></trkpt>
<trkpt lat="46.13317" lon="7.03346"><ele>559.4</ele><time>2017-06-15T15:07:40Z</time></trkpt>
<trkpt lat="46.13317" lon="7.03349"><ele>558.8</ele><time>2017-06-15T15:07:41Z</time></trkpt>
<trkpt lat="46.13316" lon="7.03352"><ele>558.4</ele><time>2017-06-15T15:07:42Z</time></trkpt>
<trkpt lat="46.13305" lon="7.03358"><ele>557.6</ele><time>2017-06-15T15:07:44Z</time></trkpt>
<trkpt lat="46.13302" lon="7.03364"><ele>556.8</ele><time>2017-06-15T15:07:46Z</time></trkpt>
<trkpt lat="46.13299" lon="7.03371"><ele>556</ele><time>2017-06-15T15:07:48Z</time></trkpt>
<trkpt lat="46.13296" lon="7.03377"><ele>555.2</ele><time>2017-06-15T15:07:50Z</time></trkpt>
<trkpt lat="46.13295" lon="7.03381"><ele>554.8</ele><time>2017-06-15T15:07:51Z</time></trkpt>
<trkpt lat="46.13295" lon="7.03386"><ele>554.4</ele><time>2017-06-15T15:07:52Z</time></trkpt>
<trkpt lat="46.13296" lon="7.03396"><ele>553.6</ele><time>2017-06-15T15:07:54Z</time></trkpt>
<trkpt lat="46.13297" lon="7.03399"><ele>553</ele><time>2017-06-15T15:07:55Z</time></trkpt>
<trkpt lat="46.13303" lon="7.03396"><ele>551.6</ele><time>2017-06-15T15:07:57Z</time></trkpt>
<trkpt lat="46.13305" lon="7.03392"><ele>551</ele><time>2017-06-15T15:07:58Z</time></trkpt>
<trkpt lat="46.13308" lon="7.03389"><ele>550.4</ele><time>2017-06-15T15:07:59Z</time></trkpt>
<trkpt lat="46.13311" lon="7.03385"><ele>549.8</ele><time>2017-06-15T15:08:00Z</time></trkpt>
<trkpt lat="46.13317" lon="7.03378"><ele>548.6</ele><time>2017-06-15T15:08:02Z</time></trkpt>
<trkpt lat="46.13326" lon="7.03367"><ele>547</ele><time>2017-06-15T15:08:05Z</time></trkpt>
<trkpt lat="46.13329" lon="7.03364"><ele>546.4</ele><time>2017-06-15T15:08:06Z</time></trkpt>
<trkpt lat="46.13331" lon="7.03362"><ele>546</ele><time>2017-06-15T15:08:07Z</time></trkpt>
<trkpt lat="46.13332" lon="7.03365"><ele>545.4</ele><time>2017-06-15T15:08:08Z</time></trkpt>
<trkpt lat="46.13335" lon="7.03369"><ele>544.2</ele><time>2017-06-15T15:08:10Z</time></trkpt>
<trkpt lat="46.13331" lon="7.0338"><ele>540.8</ele><time>2017-06-15T15:08:16Z</time></trkpt>
<trkpt lat="46.13315" lon="7.03401"><ele>540.4</ele><time>2017-06-15T15:08:17Z</time></trkpt>
<trkpt lat="46.13308" lon="7.03416"><ele>539.8</ele><time>2017-06-15T15:08:18Z</time></trkpt>
<trkpt lat="46.13319" lon="7.03404"><ele>538</ele><time>2017-06-15T15:08:21Z</time></trkpt>
<trkpt lat="46.13323" lon="7.03399"><ele>537.6</ele><time>2017-06-15T15:08:22Z</time></trkpt>
<trkpt lat="46.13328" lon="7.0339"><ele>536.6</ele><time>2017-06-15T15:08:24Z</time></trkpt>
<trkpt lat="46.13326" lon="7.03385"><ele>536.2</ele><time>2017-06-15T15:08:25Z</time></trkpt>
<trkpt lat="46.13328" lon="7.03379"><ele>535.6</ele><time>2017-06-15T15:08:26Z</time></trkpt>
<trkpt lat="46.13332" lon="7.03376"><ele>534.6</ele><time>2017-06-15T15:08:28Z</time></trkpt>
<trkpt lat="46.13336" lon="7.03373"><ele>533.8</ele><time>2017-06-15T15:08:30Z</time></trkpt>
<trkpt lat="46.1334" lon="7.0337"><ele>532.8</ele><time>2017-06-15T15:08:32Z</time></trkpt>
<trkpt lat="46.13345" lon="7.03367"><ele>532.2</ele><time>2017-06-15T15:08:34Z</time></trkpt>
<trkpt lat="46.13351" lon="7.03363"><ele>531.4</ele><time>2017-06-15T15:08:37Z</time></trkpt>
<trkpt lat="46.13353" lon="7.03362"><ele>531.2</ele><time>2017-06-15T15:08:38Z</time></trkpt>
<trkpt lat="46.1336" lon="7.03357"><ele>530.4</ele><time>2017-06-15T15:08:41Z</time></trkpt>
<trkpt lat="46.13362" lon="7.03356"><ele>530.2</ele><time>2017-06-15T15:08:42Z</time></trkpt>
<trkpt lat="46.13366" lon="7.03353"><ele>529.6</ele><time>2017-06-15T15:08:44Z</time></trkpt>
<trkpt lat="46.13368" lon="7.03352"><ele>529.4</ele><time>2017-06-15T15:08:45Z</time></trkpt>
<trkpt lat="46.13374" lon="7.03348"><ele>529</ele><time>2017-06-15T15:08:46Z</time></trkpt>
<trkpt lat="46.13386" lon="7.03338"><ele>528.6</ele><time>2017-06-15T15:08:48Z</time></trkpt>
<trkpt lat="46.13389" lon="7.03333"><ele>528.2</ele><time>2017-06-15T15:08:49Z</time></trkpt>
<trkpt lat="46.13391" lon="7.03331"><ele>527.4</ele><time>2017-06-15T15:08:50Z</time></trkpt>
<trkpt lat="46.13395" lon="7.03328"><ele>526.2</ele><time>2017-06-15T15:08:52Z</time></trkpt>
<trkpt lat="46.134" lon="7.03325"><ele>525</ele><time>2017-06-15T15:08:54Z</time></trkpt>
<trkpt lat="46.13405" lon="7.03321"><ele>524.4</ele><time>2017-06-15T15:08:56Z</time></trkpt>
<trkpt lat="46.13418" lon="7.03318"><ele>523.6</ele><time>2017-06-15T15:08:58Z</time></trkpt>
<trkpt lat="46.13428" lon="7.03316"><ele>522.8</ele><time>2017-06-15T15:09:00Z</time></trkpt>
<trkpt lat="46.13428" lon="7.03318"><ele>522.4</ele><time>2017-06-15T15:09:01Z</time></trkpt>
<trkpt lat="46.13423" lon="7.03321"><ele>522</ele><time>2017-06-15T15:09:02Z</time></trkpt>
<trkpt lat="46.13413" lon="7.03328"><ele>521.2</ele><time>2017-06-15T15:09:04Z</time></trkpt>
<trkpt lat="46.13403" lon="7.03334"><ele>520.4</ele><time>2017-06-15T15:09:06Z</time></trkpt>
<trkpt lat="46.13394" lon="7.03341"><ele>519.2</ele><time>2017-06-15T15:09:08Z</time></trkpt>
<trkpt lat="46.13389" lon="7.03349"><ele>517.8</ele><time>2017-06-15T15:09:10Z</time></trkpt>
<trkpt lat="46.13384" lon="7.03357"><ele>516.6</ele><time>2017-06-15T15:09:12Z</time></trkpt>
<trkpt lat="46.13378" lon="7.03365"><ele>515.4</ele><time>2017-06-15T15:09:14Z</time></trkpt>
<trkpt lat="46.13376" lon="7.03369"><ele>514.8</ele><time>2017-06-15T15:09:15Z</time></trkpt>
<trkpt lat="46.13375" lon="7.03373"><ele>514.2</ele><time>2017-06-15T15:09:16Z</time></trkpt>
<trkpt lat="46.13372" lon="7.03381"><ele>513.4</ele><time>2017-06-15T15:09:18Z</time></trkpt>
<trkpt lat="46.13368" lon="7.0339"><ele>512.4</ele><time>2017-06-15T15:09:20Z</time></trkpt>
<trkpt lat="46.13365" lon="7.03398"><ele>511.4</ele><time>2017-06-15T15:09:22Z</time></trkpt>
<trkpt lat="46.13364" lon="7.03402"><ele>511</ele><time>2017-06-15T15:09:23Z</time></trkpt>
<trkpt lat="46.13362" lon="7.03405"><ele>510.6</ele><time>2017-06-15T15:09:24Z</time></trkpt>
<trkpt lat="46.13359" lon="7.03412"><ele>509.6</ele><time>2017-06-15T15:09:26Z</time></trkpt>
<trkpt lat="46.13363" lon="7.03412"><ele>508.4</ele><time>2017-06-15T15:09:28Z</time></trkpt>
<trkpt lat="46.1337" lon="7.03402"><ele>507</ele><time>2017-06-15T15:09:30Z</time></trkpt>
<trkpt lat="46.13374" lon="7.03396"><ele>506.4</ele><time>2017-06-15T15:09:31Z</time></trkpt>
<trkpt lat="46.13379" lon="7.03386"><ele>505.8</ele><time>2017-06-15T15:09:32Z</time></trkpt>
<trkpt lat="46.13392" lon="7.03372"><ele>504.4</ele><time>2017-06-15T15:09:34Z</time></trkpt>
<trkpt lat="46.13399" lon="7.03367"><ele>503.8</ele><time>2017-06-15T15:09:35Z</time></trkpt>
<trkpt lat="46.13409" lon="7.03363"><ele>503.2</ele><time>2017-06-15T15:09:36Z</time></trkpt>
<trkpt lat="46.13429" lon="7.03357"><ele>501.8</ele><time>2017-06-15T15:09:38Z</time></trkpt>
<trkpt lat="46.13446" lon="7.03356"><ele>499.8</ele><time>2017-06-15T15:09:40Z</time></trkpt>
<trkpt lat="46.13449" lon="7.03358"><ele>498.6</ele><time>2017-06-15T15:09:41Z</time></trkpt>
<trkpt lat="46.1345" lon="7.03359"><ele>497.6</ele><time>2017-06-15T15:09:42Z</time></trkpt>
<trkpt lat="46.13445" lon="7.03358"><ele>496.6</ele><time>2017-06-15T15:09:43Z</time></trkpt>
<trkpt lat="46.13442" lon="7.0336"><ele>495.8</ele><time>2017-06-15T15:09:44Z</time></trkpt>
<trkpt lat="46.1344" lon="7.03365"><ele>495</ele><time>2017-06-15T15:09:45Z</time></trkpt>
<trkpt lat="46.13433" lon="7.0337"><ele>494.2</ele><time>2017-06-15T15:09:46Z</time></trkpt>
<trkpt lat="46.1342" lon="7.03382"><ele>492.8</ele><time>2017-06-15T15:09:48Z</time></trkpt>
<trkpt lat="46.13404" lon="7.03413"><ele>490.8</ele><time>2017-06-15T15:09:51Z</time></trkpt>
<trkpt lat="46.134" lon="7.03423"><ele>490</ele><time>2017-06-15T15:09:52Z</time></trkpt>
<trkpt lat="46.13397" lon="7.03431"><ele>489.4</ele><time>2017-06-15T15:09:53Z</time></trkpt>
<trkpt lat="46.13393" lon="7.03438"><ele>488.6</ele><time>2017-06-15T15:09:54Z</time></trkpt>
<trkpt lat="46.13393" lon="7.03449"><ele>487.8</ele><time>2017-06-15T15:09:55Z</time></trkpt>
<trkpt lat="46.13395" lon="7.03462"><ele>487</ele><time>2017-06-15T15:09:56Z</time></trkpt>
<trkpt lat="46.13397" lon="7.03488"><ele>485.4</ele><time>2017-06-15T15:09:58Z</time></trkpt>
<trkpt lat="46.13394" lon="7.03498"><ele>484.6</ele><time>2017-06-15T15:09:59Z</time></trkpt>
<trkpt lat="46.13395" lon="7.03508"><ele>483.8</ele><time>2017-06-15T15:10:00Z</time></trkpt>
<trkpt lat="46.13397" lon="7.03518"><ele>483</ele><time>2017-06-15T15:10:01Z</time></trkpt>
<trkpt lat="46.13399" lon="7.03527"><ele>482</ele><time>2017-06-15T15:10:02Z</time></trkpt>
<trkpt lat="46.13405" lon="7.03543"><ele>480</ele><time>2017-06-15T15:10:04Z</time></trkpt>
<trkpt lat="46.13409" lon="7.0355"><ele>479</ele><time>2017-06-15T15:10:05Z</time></trkpt>
<trkpt lat="46.13418" lon="7.03557"><ele>478</ele><time>2017-06-15T15:10:06Z</time></trkpt>
<trkpt lat="46.13428" lon="7.03563"><ele>477.2</ele><time>2017-06-15T15:10:07Z</time></trkpt>
<trkpt lat="46.13437" lon="7.03569"><ele>477.2</ele><time>2017-06-15T15:10:08Z</time></trkpt>
<trkpt lat="46.13455" lon="7.03582"><ele>476.8</ele><time>2017-06-15T15:10:10Z</time></trkpt>
<trkpt lat="46.13467" lon="7.03599"><ele>476.6</ele><time>2017-06-15T15:10:12Z</time></trkpt>
<trkpt lat="46.13469" lon="7.03609"><ele>476.4</ele><time>2017-06-15T15:10:13Z</time></trkpt>
<trkpt lat="46.13466" lon="7.0362"><ele>476.2</ele><time>2017-06-15T15:10:14Z</time></trkpt>
<trkpt lat="46.13461" lon="7.03639"><ele>476</ele><time>2017-06-15T15:10:16Z</time></trkpt>
<trkpt lat="46.13455" lon="7.03658"><ele>475.8</ele><time>2017-06-15T15:10:18Z</time></trkpt>
<trkpt lat="46.13451" lon="7.03665"><ele>475.6</ele><time>2017-06-15T15:10:19Z</time></trkpt>
<trkpt lat="46.13444" lon="7.03669"><ele>475.4</ele><time>2017-06-15T15:10:20Z</time></trkpt>
<trkpt lat="46.13432" lon="7.03676"><ele>475.2</ele><time>2017-06-15T15:10:22Z</time></trkpt>
<trkpt lat="46.13421" lon="7.03684"><ele>475</ele><time>2017-06-15T15:10:24Z</time></trkpt>
<trkpt lat="46.13416" lon="7.03699"><ele>474.8</ele><time>2017-06-15T15:10:26Z</time></trkpt>
<trkpt lat="46.13417" lon="7.03708"><ele>474.8</ele><time>2017-06-15T15:10:27Z</time></trkpt>
<trkpt lat="46.13419" lon="7.03717"><ele>474.8</ele><time>2017-06-15T15:10:28Z</time></trkpt>
<trkpt lat="46.13424" lon="7.03735"><ele>474.8</ele><time>2017-06-15T15:10:30Z</time></trkpt>
<trkpt lat="46.1343" lon="7.03752"><ele>474.8</ele><time>2017-06-15T15:10:32Z</time></trkpt>
<trkpt lat="46.13435" lon="7.0377"><ele>474.8</ele><time>2017-06-15T15:10:34Z</time></trkpt>
<trkpt lat="46.13438" lon="7.03778"><ele>474.8</ele><time>2017-06-15T15:10:35Z</time></trkpt>
<trkpt lat="46.13439" lon="7.03787"><ele>474.8</ele><time>2017-06-15T15:10:36Z</time></trkpt>
<trkpt lat="46.13443" lon="7.03804"><ele>474.8</ele><time>2017-06-15T15:10:38Z</time></trkpt>
<trkpt lat="46.13446" lon="7.03822"><ele>474.8</ele><time>2017-06-15T15:10:40Z</time></trkpt>
<trkpt lat="46.1345" lon="7.03839"><ele>474.8</ele><time>2017-06-15T15:10:42Z</time></trkpt>
<trkpt lat="46.13451" lon="7.03848"><ele>474.8</ele><time>2017-06-15T15:10:43Z</time></trkpt>
<trkpt lat="46.13452" lon="7.03855"><ele>474.8</ele><time>2017-06-15T15:10:44Z</time></trkpt>
<trkpt lat="46.13456" lon="7.03879"><ele>474.8</ele><time>2017-06-15T15:10:47Z</time></trkpt>
<trkpt lat="46.13457" lon="7.03886"><ele>474.8</ele><time>2017-06-15T15:10:48Z</time></trkpt>
<trkpt lat="46.13459" lon="7.03902"><ele>474.8</ele><time>2017-06-15T15:10:50Z</time></trkpt>
<trkpt lat="46.1346" lon="7.03909"><ele>474.8</ele><time>2017-06-15T15:10:51Z</time></trkpt>
<trkpt lat="46.13462" lon="7.03914"><ele>474.8</ele><time>2017-06-15T15:10:52Z</time></trkpt>
<trkpt lat="46.13465" lon="7.03925"><ele>474.8</ele><time>2017-06-15T15:10:54Z</time></trkpt>
<trkpt lat="46.13469" lon="7.03936"><ele>474.8</ele><time>2017-06-15T15:10:56Z</time></trkpt>
<trkpt lat="46.13472" lon="7.03947"><ele>474.8</ele><time>2017-06-15T15:10:58Z</time></trkpt>
<trkpt lat="46.13474" lon="7.0395"><ele>474.8</ele><time>2017-06-15T15:10:59Z</time></trkpt>
<trkpt lat="46.13478" lon="7.03951"><ele>474.8</ele><time>2017-06-15T15:11:01Z</time></trkpt>
<trkpt lat="46.1348" lon="7.03951"><ele>474.8</ele><time>2017-06-15T15:11:02Z</time></trkpt>
<trkpt lat="46.13484" lon="7.03951"><ele>474.8</ele><time>2017-06-15T15:11:04Z</time></trkpt>
<trkpt lat="46.13484" lon="7.03949"><ele>474.8</ele><time>2017-06-15T15:11:05Z</time></trkpt>
<trkpt lat="46.13488" lon="7.03949"><ele>474.8</ele><time>2017-06-15T15:11:06Z</time></trkpt>
<trkpt lat="46.13495" lon="7.0394"><ele>474.8</ele><time>2017-06-15T15:11:08Z</time></trkpt>
<trkpt lat="46.13503" lon="7.03931"><ele>474.8</ele><time>2017-06-15T15:11:10Z</time></trkpt>
<trkpt lat="46.1351" lon="7.03922"><ele>474.8</ele><time>2017-06-15T15:11:12Z</time></trkpt>
<trkpt lat="46.13517" lon="7.03911"><ele>474.8</ele><time>2017-06-15T15:11:14Z</time></trkpt>
<trkpt lat="46.13521" lon="7.03906"><ele>474.8</ele><time>2017-06-15T15:11:15Z</time></trkpt>
<trkpt lat="46.13526" lon="7.03902"><ele>474.8</ele><time>2017-06-15T15:11:16Z</time></trkpt>
<trkpt lat="46.13536" lon="7.03894"><ele>474.8</ele><time>2017-06-15T15:11:18Z</time></trkpt>
<trkpt lat="46.13547" lon="7.03886"><ele>474.8</ele><time>2017-06-15T15:11:20Z</time></trkpt>
<trkpt lat="46.13557" lon="7.03878"><ele>474.8</ele><time>2017-06-15T15:11:22Z</time></trkpt>
<trkpt lat="46.13562" lon="7.03874"><ele>474.8</ele><time>2017-06-15T15:11:23Z</time></trkpt>
<trkpt lat="46.13566" lon="7.03869"><ele>474.8</ele><time>2017-06-15T15:11:24Z</time></trkpt>
<trkpt lat="46.13589" lon="7.03846"><ele>474.8</ele><time>2017-06-15T15:11:29Z</time></trkpt>
<trkpt lat="46.13593" lon="7.03841"><ele>474.8</ele><time>2017-06-15T15:11:30Z</time></trkpt>
<trkpt lat="46.13598" lon="7.03835"><ele>474.8</ele><time>2017-06-15T15:11:31Z</time></trkpt>
<trkpt lat="46.13602" lon="7.03828"><ele>474.8</ele><time>2017-06-15T15:11:32Z</time></trkpt>
<trkpt lat="46.13606" lon="7.03822"><ele>474.8</ele><time>2017-06-15T15:11:33Z</time></trkpt>
<trkpt lat="46.13612" lon="7.03818"><ele>474.8</ele><time>2017-06-15T15:11:34Z</time></trkpt>
<trkpt lat="46.13623" lon="7.03808"><ele>474.8</ele><time>2017-06-15T15:11:36Z</time></trkpt>
<trkpt lat="46.13634" lon="7.03799"><ele>474.8</ele><time>2017-06-15T15:11:38Z</time></trkpt>
<trkpt lat="46.13645" lon="7.0379"><ele>474.8</ele><time>2017-06-15T15:11:40Z</time></trkpt>
<trkpt lat="46.13651" lon="7.03785"><ele>474.8</ele><time>2017-06-15T15:11:41Z</time></trkpt>
<trkpt lat="46.13656" lon="7.03781"><ele>474.8</ele><time>2017-06-15T15:11:42Z</time></trkpt>
<trkpt lat="46.13667" lon="7.03771"><ele>474.8</ele><time>2017-06-15T15:11:44Z</time></trkpt>
<trkpt lat="46.13677" lon="7.0376"><ele>474.8</ele><time>2017-06-15T15:11:46Z</time></trkpt>
<trkpt lat="46.13687" lon="7.0375"><ele>474.8</ele><time>2017-06-15T15:11:48Z</time></trkpt>
<trkpt lat="46.13697" lon="7.03739"><ele>474.8</ele><time>2017-06-15T15:11:50Z</time></trkpt>
<trkpt lat="46.13707" lon="7.03728"><ele>474.8</ele><time>2017-06-15T15:11:52Z</time></trkpt>
<trkpt lat="46.13717" lon="7.03718"><ele>474.8</ele><time>2017-06-15T15:11:54Z</time></trkpt>
<trkpt lat="46.13727" lon="7.03708"><ele>474.8</ele><time>2017-06-15T15:11:56Z</time></trkpt>
<trkpt lat="46.13738" lon="7.03698"><ele>474.8</ele><time>2017-06-15T15:11:58Z</time></trkpt>
<trkpt lat="46.13748" lon="7.03689"><ele>474.8</ele><time>2017-06-15T15:12:00Z</time></trkpt>
<trkpt lat="46.13757" lon="7.0368"><ele>474.8</ele><time>2017-06-15T15:12:02Z</time></trkpt>
<trkpt lat="46.13767" lon="7.03672"><ele>474.8</ele><time>2017-06-15T15:12:04Z</time></trkpt>
<trkpt lat="46.13777" lon="7.03663"><ele>474.8</ele><time>2017-06-15T15:12:06Z</time></trkpt>
<trkpt lat="46.13787" lon="7.03655"><ele>474.8</ele><time>2017-06-15T15:12:08Z</time></trkpt>
<trkpt lat="46.13796" lon="7.03645"><ele>474.8</ele><time>2017-06-15T15:12:10Z</time></trkpt>
<trkpt lat="46.13801" lon="7.03641"><ele>474.8</ele><time>2017-06-15T15:12:11Z</time></trkpt>
<trkpt lat="46.13806" lon="7.03637"><ele>474.8</ele><time>2017-06-15T15:12:12Z</time></trkpt>
<trkpt lat="46.13816" lon="7.03628"><ele>474.8</ele><time>2017-06-15T15:12:14Z</time></trkpt>
<trkpt lat="46.13826" lon="7.03619"><ele>474.8</ele><time>2017-06-15T15:12:16Z</time></trkpt>
<trkpt lat="46.13836" lon="7.03611"><ele>474.8</ele><time>2017-06-15T15:12:18Z</time></trkpt>
<trkpt lat="46.13841" lon="7.03606"><ele>474.8</ele><time>2017-06-15T15:12:19Z</time></trkpt>
<trkpt lat="46.13846" lon="7.03601"><ele>474.8</ele><time>2017-06-15T15:12:20Z</time></trkpt>
<trkpt lat="46.13855" lon="7.03592"><ele>474.8</ele><time>2017-06-15T15:12:22Z</time></trkpt>
<trkpt lat="46.13865" lon="7.03582"><ele>474.8</ele><time>2017-06-15T15:12:24Z</time></trkpt>
<trkpt lat="46.13874" lon="7.03573"><ele>474.8</ele><time>2017-06-15T15:12:26Z</time></trkpt>
<trkpt lat="46.13879" lon="7.03568"><ele>474.8</ele><time>2017-06-15T15:12:27Z</time></trkpt>
<trkpt lat="46.13883" lon="7.03563"><ele>474.8</ele><time>2017-06-15T15:12:28Z</time></trkpt>
<trkpt lat="46.13893" lon="7.03554"><ele>474.8</ele><time>2017-06-15T15:12:30Z</time></trkpt>
<trkpt lat="46.13903" lon="7.03545"><ele>474.8</ele><time>2017-06-15T15:12:32Z</time></trkpt>
<trkpt lat="46.13912" lon="7.03536"><ele>474.8</ele><time>2017-06-15T15:12:34Z</time></trkpt>
<trkpt lat="46.13922" lon="7.03527"><ele>474.8</ele><time>2017-06-15T15:12:36Z</time></trkpt>
<trkpt lat="46.13931" lon="7.03517"><ele>474.8</ele><time>2017-06-15T15:12:38Z</time></trkpt>
<trkpt lat="46.1394" lon="7.03507"><ele>474.8</ele><time>2017-06-15T15:12:40Z</time></trkpt>
<trkpt lat="46.13949" lon="7.03497"><ele>474.8</ele><time>2017-06-15T15:12:42Z</time></trkpt>
<trkpt lat="46.13959" lon="7.03487"><ele>474.8</ele><time>2017-06-15T15:12:44Z</time></trkpt>
<trkpt lat="46.1397" lon="7.03477"><ele>474.8</ele><time>2017-06-15T15:12:46Z</time></trkpt>
<trkpt lat="46.1398" lon="7.03467"><ele>474.8</ele><time>2017-06-15T15:12:48Z</time></trkpt>
<trkpt lat="46.13991" lon="7.03457"><ele>474.8</ele><time>2017-06-15T15:12:50Z</time></trkpt>
<trkpt lat="46.13997" lon="7.03452"><ele>474.8</ele><time>2017-06-15T15:12:51Z</time></trkpt>
<trkpt lat="46.14001" lon="7.03447"><ele>474.8</ele><time>2017-06-15T15:12:52Z</time></trkpt>
<trkpt lat="46.14011" lon="7.03439"><ele>474.8</ele><time>2017-06-15T15:12:54Z</time></trkpt>
<trkpt lat="46.14021" lon="7.0343"><ele>474.8</ele><time>2017-06-15T15:12:56Z</time></trkpt>
<trkpt lat="46.14031" lon="7.03421"><ele>474.8</ele><time>2017-06-15T15:12:58Z</time></trkpt>
<trkpt lat="46.1404" lon="7.03409"><ele>474.8</ele><time>2017-06-15T15:13:00Z</time></trkpt>
<trkpt lat="46.1405" lon="7.03403"><ele>474.8</ele><time>2017-06-15T15:13:02Z</time></trkpt>
<trkpt lat="46.1406" lon="7.03393"><ele>474.8</ele><time>2017-06-15T15:13:04Z</time></trkpt>
<trkpt lat="46.14069" lon="7.03384"><ele>474.8</ele><time>2017-06-15T15:13:06Z</time></trkpt>
<trkpt lat="46.14074" lon="7.03379"><ele>474.8</ele><time>2017-06-15T15:13:07Z</time></trkpt>
<trkpt lat="46.14077" lon="7.03372"><ele>474.8</ele><time>2017-06-15T15:13:08Z</time></trkpt>
<trkpt lat="46.14081" lon="7.03366"><ele>474.8</ele><time>2017-06-15T15:13:09Z</time></trkpt>
<trkpt lat="46.14087" lon="7.03361"><ele>474.8</ele><time>2017-06-15T15:13:10Z</time></trkpt>
<trkpt lat="46.14098" lon="7.03351"><ele>474.8</ele><time>2017-06-15T15:13:12Z</time></trkpt>
<trkpt lat="46.14108" lon="7.03341"><ele>474.8</ele><time>2017-06-15T15:13:14Z</time></trkpt>
<trkpt lat="46.14119" lon="7.03331"><ele>474.8</ele><time>2017-06-15T15:13:16Z</time></trkpt>
<trkpt lat="46.14128" lon="7.03321"><ele>474.8</ele><time>2017-06-15T15:13:18Z</time></trkpt>
<trkpt lat="46.14137" lon="7.03312"><ele>474.8</ele><time>2017-06-15T15:13:20Z</time></trkpt>
<trkpt lat="46.14147" lon="7.03302"><ele>474.8</ele><time>2017-06-15T15:13:22Z</time></trkpt>
<trkpt lat="46.14156" lon="7.03292"><ele>474.8</ele><time>2017-06-15T15:13:24Z</time></trkpt>
<trkpt lat="46.14166" lon="7.03281"><ele>474.8</ele><time>2017-06-15T15:13:26Z</time></trkpt>
<trkpt lat="46.14171" lon="7.03276"><ele>474.8</ele><time>2017-06-15T15:13:27Z</time></trkpt>
<trkpt lat="46.14176" lon="7.03273"><ele>474.8</ele><time>2017-06-15T15:13:28Z</time></trkpt>
<trkpt lat="46.14185" lon="7.03266"><ele>474.8</ele><time>2017-06-15T15:13:30Z</time></trkpt>
<trkpt lat="46.14194" lon="7.03259"><ele>474.8</ele><time>2017-06-15T15:13:32Z</time></trkpt>
<trkpt lat="46.14203" lon="7.03248"><ele>474.8</ele><time>2017-06-15T15:13:34Z</time></trkpt>
<trkpt lat="46.14211" lon="7.03238"><ele>474.8</ele><time>2017-06-15T15:13:36Z</time></trkpt>
<trkpt lat="46.14219" lon="7.03227"><ele>475</ele><time>2017-06-15T15:13:38Z</time></trkpt>
<trkpt lat="46.14223" lon="7.03223"><ele>475</ele><time>2017-06-15T15:13:39Z</time></trkpt>
<trkpt lat="46.14228" lon="7.03218"><ele>475</ele><time>2017-06-15T15:13:40Z</time></trkpt>
<trkpt lat="46.14237" lon="7.0321"><ele>475</ele><time>2017-06-15T15:13:42Z</time></trkpt>
<trkpt lat="46.14247" lon="7.03201"><ele>475</ele><time>2017-06-15T15:13:44Z</time></trkpt>
<trkpt lat="46.14256" lon="7.03193"><ele>475</ele><time>2017-06-15T15:13:46Z</time></trkpt>
<trkpt lat="46.14265" lon="7.03185"><ele>475</ele><time>2017-06-15T15:13:48Z</time></trkpt>
<trkpt lat="46.14275" lon="7.03176"><ele>475</ele><time>2017-06-15T15:13:50Z</time></trkpt>
<trkpt lat="46.14284" lon="7.03168"><ele>475</ele><time>2017-06-15T15:13:52Z</time></trkpt>
<trkpt lat="46.14294" lon="7.0316"><ele>475</ele><time>2017-06-15T15:13:54Z</time></trkpt>
<trkpt lat="46.14303" lon="7.03152"><ele>475</ele><time>2017-06-15T15:13:56Z</time></trkpt>
<trkpt lat="46.14308" lon="7.03149"><ele>475</ele><time>2017-06-15T15:13:57Z</time></trkpt>
<trkpt lat="46.14313" lon="7.03145"><ele>475</ele><time>2017-06-15T15:13:58Z</time></trkpt>
<trkpt lat="46.14324" lon="7.03138"><ele>475</ele><time>2017-06-15T15:14:00Z</time></trkpt>
<trkpt lat="46.14334" lon="7.03131"><ele>475</ele><time>2017-06-15T15:14:02Z</time></trkpt>
<trkpt lat="46.14344" lon="7.03125"><ele>475</ele><time>2017-06-15T15:14:04Z</time></trkpt>
<trkpt lat="46.14349" lon="7.03121"><ele>475</ele><time>2017-06-15T15:14:05Z</time></trkpt>
<trkpt lat="46.14354" lon="7.03117"><ele>475</ele><time>2017-06-15T15:14:06Z</time></trkpt>
<trkpt lat="46.14364" lon="7.03109"><ele>475</ele><time>2017-06-15T15:14:08Z</time></trkpt>
<trkpt lat="46.14366" lon="7.03104"><ele>475</ele><time>2017-06-15T15:14:09Z</time></trkpt>
<trkpt lat="46.14367" lon="7.03101"><ele>475</ele><time>2017-06-15T15:14:10Z</time></trkpt>
<trkpt lat="46.1438" lon="7.03094"><ele>475</ele><time>2017-06-15T15:14:12Z</time></trkpt>
<trkpt lat="46.14392" lon="7.03087"><ele>475</ele><time>2017-06-15T15:14:14Z</time></trkpt>
<trkpt lat="46.14404" lon="7.03082"><ele>475</ele><time>2017-06-15T15:14:16Z</time></trkpt>
<trkpt lat="46.14416" lon="7.03079"><ele>475</ele><time>2017-06-15T15:14:18Z</time></trkpt>
<trkpt lat="46.14424" lon="7.03072"><ele>475</ele><time>2017-06-15T15:14:20Z</time></trkpt>
<trkpt lat="46.14432" lon="7.03065"><ele>475</ele><time>2017-06-15T15:14:22Z</time></trkpt>
<trkpt lat="46.14442" lon="7.03061"><ele>475</ele><time>2017-06-15T15:14:24Z</time></trkpt>
<trkpt lat="46.14457" lon="7.03055"><ele>475</ele><time>2017-06-15T15:14:27Z</time></trkpt>
<trkpt lat="46.14462" lon="7.03053"><ele>475</ele><time>2017-06-15T15:14:28Z</time></trkpt>
<trkpt lat="46.14471" lon="7.03048"><ele>475</ele><time>2017-06-15T15:14:30Z</time></trkpt>
<trkpt lat="46.14474" lon="7.03045"><ele>475</ele><time>2017-06-15T15:14:31Z</time></trkpt>
<trkpt lat="46.1448" lon="7.03043"><ele>475</ele><time>2017-06-15T15:14:32Z</time></trkpt>
<trkpt lat="46.14492" lon="7.03039"><ele>475</ele><time>2017-06-15T15:14:34Z</time></trkpt>
<trkpt lat="46.14503" lon="7.03034"><ele>475</ele><time>2017-06-15T15:14:36Z</time></trkpt>
<trkpt lat="46.14515" lon="7.0303"><ele>475</ele><time>2017-06-15T15:14:38Z</time></trkpt>
<trkpt lat="46.14521" lon="7.03028"><ele>475</ele><time>2017-06-15T15:14:39Z</time></trkpt>
<trkpt lat="46.14527" lon="7.03026"><ele>475</ele><time>2017-06-15T15:14:40Z</time></trkpt>
<trkpt lat="46.14539" lon="7.03023"><ele>475</ele><time>2017-06-15T15:14:42Z</time></trkpt>
<trkpt lat="46.14545" lon="7.03022"><ele>475</ele><time>2017-06-15T15:14:43Z</time></trkpt>
<trkpt lat="46.14552" lon="7.03021"><ele>475</ele><time>2017-06-15T15:14:44Z</time></trkpt>
<trkpt lat="46.14565" lon="7.03019"><ele>475</ele><time>2017-06-15T15:14:46Z</time></trkpt>
<trkpt lat="46.14572" lon="7.03018"><ele>475</ele><time>2017-06-15T15:14:47Z</time></trkpt>
<trkpt lat="46.14577" lon="7.03017"><ele>475</ele><time>2017-06-15T15:14:48Z</time></trkpt>
<trkpt lat="46.14589" lon="7.03014"><ele>475</ele><time>2017-06-15T15:14:50Z</time></trkpt>
<trkpt lat="46.14601" lon="7.03012"><ele>475</ele><time>2017-06-15T15:14:52Z</time></trkpt>
<trkpt lat="46.14612" lon="7.03009"><ele>475</ele><time>2017-06-15T15:14:54Z</time></trkpt>
<trkpt lat="46.14624" lon="7.03006"><ele>475</ele><time>2017-06-15T15:14:56Z</time></trkpt>
<trkpt lat="46.14636" lon="7.03005"><ele>475</ele><time>2017-06-15T15:14:58Z</time></trkpt>
<trkpt lat="46.14649" lon="7.03004"><ele>475</ele><time>2017-06-15T15:15:00Z</time></trkpt>
<trkpt lat="46.14662" lon="7.03003"><ele>475</ele><time>2017-06-15T15:15:02Z</time></trkpt>
<trkpt lat="46.14674" lon="7.03002"><ele>475</ele><time>2017-06-15T15:15:04Z</time></trkpt>
<trkpt lat="46.14686" lon="7.03002"><ele>475</ele><time>2017-06-15T15:15:06Z</time></trkpt>
<trkpt lat="46.14698" lon="7.03002"><ele>475</ele><time>2017-06-15T15:15:08Z</time></trkpt>
<trkpt lat="46.14711" lon="7.03002"><ele>475</ele><time>2017-06-15T15:15:10Z</time></trkpt>
<trkpt lat="46.14722" lon="7.03002"><ele>475</ele><time>2017-06-15T15:15:12Z</time></trkpt>
<trkpt lat="46.14731" lon="7.03002"><ele>475</ele><time>2017-06-15T15:15:14Z</time></trkpt>
<trkpt lat="46.14739" lon="7.03002"><ele>475</ele><time>2017-06-15T15:15:16Z</time></trkpt>
<trkpt lat="46.14748" lon="7.03003"><ele>475</ele><time>2017-06-15T15:15:18Z</time></trkpt>
<trkpt lat="46.14757" lon="7.03005"><ele>475</ele><time>2017-06-15T15:15:20Z</time></trkpt>
<trkpt lat="46.14768" lon="7.03016"><ele>475</ele><time>2017-06-15T15:15:22Z</time></trkpt>
<trkpt lat="46.14778" lon="7.03027"><ele>475</ele><time>2017-06-15T15:15:24Z</time></trkpt>
<trkpt lat="46.14787" lon="7.03039"><ele>475</ele><time>2017-06-15T15:15:26Z</time></trkpt>
<trkpt lat="46.14789" lon="7.03056"><ele>475</ele><time>2017-06-15T15:15:28Z</time></trkpt>
<trkpt lat="46.14791" lon="7.03072"><ele>475</ele><time>2017-06-15T15:15:30Z</time></trkpt>
<trkpt lat="46.14794" lon="7.03089"><ele>475</ele><time>2017-06-15T15:15:32Z</time></trkpt>
<trkpt lat="46.14796" lon="7.03106"><ele>475</ele><time>2017-06-15T15:15:34Z</time></trkpt>
<trkpt lat="46.14802" lon="7.03122"><ele>475</ele><time>2017-06-15T15:15:36Z</time></trkpt>
<trkpt lat="46.14807" lon="7.03138"><ele>475</ele><time>2017-06-15T15:15:38Z</time></trkpt>
<trkpt lat="46.14812" lon="7.03154"><ele>475</ele><time>2017-06-15T15:15:40Z</time></trkpt>
<trkpt lat="46.14816" lon="7.0317"><ele>475</ele><time>2017-06-15T15:15:42Z</time></trkpt>
<trkpt lat="46.14817" lon="7.03178"><ele>475</ele><time>2017-06-15T15:15:43Z</time></trkpt>
<trkpt lat="46.14819" lon="7.03187"><ele>475</ele><time>2017-06-15T15:15:44Z</time></trkpt>
<trkpt lat="46.14825" lon="7.03203"><ele>475</ele><time>2017-06-15T15:15:46Z</time></trkpt>
<trkpt lat="46.14829" lon="7.0322"><ele>475</ele><time>2017-06-15T15:15:48Z</time></trkpt>
<trkpt lat="46.14828" lon="7.03236"><ele>475</ele><time>2017-06-15T15:15:50Z</time></trkpt>
<trkpt lat="46.14828" lon="7.0325"><ele>475</ele><time>2017-06-15T15:15:52Z</time></trkpt>
<trkpt lat="46.14827" lon="7.03257"><ele>475</ele><time>2017-06-15T15:15:53Z</time></trkpt>
<trkpt lat="46.14827" lon="7.03265"><ele>475</ele><time>2017-06-15T15:15:54Z</time></trkpt>
<trkpt lat="46.14826" lon="7.0328"><ele>475</ele><time>2017-06-15T15:15:56Z</time></trkpt>
<trkpt lat="46.14826" lon="7.03295"><ele>475</ele><time>2017-06-15T15:15:58Z</time></trkpt>
<trkpt lat="46.14825" lon="7.0331"><ele>475</ele><time>2017-06-15T15:16:00Z</time></trkpt>
<trkpt lat="46.14825" lon="7.03318"><ele>475</ele><time>2017-06-15T15:16:01Z</time></trkpt>
<trkpt lat="46.14826" lon="7.03326"><ele>475</ele><time>2017-06-15T15:16:02Z</time></trkpt>
<trkpt lat="46.14827" lon="7.03344"><ele>475</ele><time>2017-06-15T15:16:04Z</time></trkpt>
<trkpt lat="46.14829" lon="7.03351"><ele>475</ele><time>2017-06-15T15:16:05Z</time></trkpt>
<trkpt lat="46.14834" lon="7.03353"><ele>475</ele><time>2017-06-15T15:16:06Z</time></trkpt>
<trkpt lat="46.14844" lon="7.03357"><ele>475</ele><time>2017-06-15T15:16:08Z</time></trkpt>
<trkpt lat="46.14852" lon="7.03355"><ele>475</ele><time>2017-06-15T15:16:10Z</time></trkpt>
<trkpt lat="46.14859" lon="7.03353"><ele>475</ele><time>2017-06-15T15:16:12Z</time></trkpt>
<trkpt lat="46.14866" lon="7.0335"><ele>475</ele><time>2017-06-15T15:16:14Z</time></trkpt>
<trkpt lat="46.14873" lon="7.03345"><ele>475</ele><time>2017-06-15T15:16:16Z</time></trkpt>
<trkpt lat="46.14881" lon="7.03339"><ele>475</ele><time>2017-06-15T15:16:18Z</time></trkpt>
<trkpt lat="46.14888" lon="7.03334"><ele>475</ele><time>2017-06-15T15:16:20Z</time></trkpt>
<trkpt lat="46.14895" lon="7.03329"><ele>475</ele><time>2017-06-15T15:16:22Z</time></trkpt>
<trkpt lat="46.14902" lon="7.03323"><ele>475</ele><time>2017-06-15T15:16:24Z</time></trkpt>
<trkpt lat="46.14906" lon="7.0332"><ele>475</ele><time>2017-06-15T15:16:25Z</time></trkpt>
<trkpt lat="46.14909" lon="7.03314"><ele>475</ele><time>2017-06-15T15:16:26Z</time></trkpt>
<trkpt lat="46.14913" lon="7.0331"><ele>475</ele><time>2017-06-15T15:16:27Z</time></trkpt>
<trkpt lat="46.14918" lon="7.03308"><ele>475</ele><time>2017-06-15T15:16:28Z</time></trkpt>
<trkpt lat="46.14927" lon="7.03305"><ele>475</ele><time>2017-06-15T15:16:30Z</time></trkpt>
<trkpt lat="46.14935" lon="7.03301"><ele>475</ele><time>2017-06-15T15:16:32Z</time></trkpt>
<trkpt lat="46.14944" lon="7.03297"><ele>475</ele><time>2017-06-15T15:16:34Z</time></trkpt>
<trkpt lat="46.14953" lon="7.03293"><ele>475</ele><time>2017-06-15T15:16:36Z</time></trkpt>
<trkpt lat="46.14958" lon="7.03291"><ele>475</ele><time>2017-06-15T15:16:37Z</time></trkpt>
<trkpt lat="46.14964" lon="7.03288"><ele>475</ele><time>2017-06-15T15:16:38Z</time></trkpt>
<trkpt lat="46.14975" lon="7.03283"><ele>475</ele><time>2017-06-15T15:16:40Z</time></trkpt>
<trkpt lat="46.14987" lon="7.03278"><ele>475</ele><time>2017-06-15T15:16:42Z</time></trkpt>
<trkpt lat="46.14998" lon="7.03276"><ele>475</ele><time>2017-06-15T15:16:44Z</time></trkpt>
<trkpt lat="46.1501" lon="7.03274"><ele>475</ele><time>2017-06-15T15:16:46Z</time></trkpt>
<trkpt lat="46.15021" lon="7.0327"><ele>475</ele><time>2017-06-15T15:16:48Z</time></trkpt>
<trkpt lat="46.15032" lon="7.03266"><ele>475</ele><time>2017-06-15T15:16:50Z</time></trkpt>
<trkpt lat="46.15043" lon="7.03261"><ele>475</ele><time>2017-06-15T15:16:52Z</time></trkpt>
<trkpt lat="46.15054" lon="7.03257"><ele>475</ele><time>2017-06-15T15:16:54Z</time></trkpt>
<trkpt lat="46.15059" lon="7.03256"><ele>475</ele><time>2017-06-15T15:16:55Z</time></trkpt>
<trkpt lat="46.15065" lon="7.03254"><ele>475</ele><time>2017-06-15T15:16:56Z</time></trkpt>
<trkpt lat="46.15076" lon="7.03251"><ele>475</ele><time>2017-06-15T15:16:58Z</time></trkpt>
<trkpt lat="46.15087" lon="7.03248"><ele>475</ele><time>2017-06-15T15:17:00Z</time></trkpt>
<trkpt lat="46.15098" lon="7.03245"><ele>475</ele><time>2017-06-15T15:17:02Z</time></trkpt>
<trkpt lat="46.15109" lon="7.03242"><ele>475</ele><time>2017-06-15T15:17:04Z</time></trkpt>
<trkpt lat="46.15122" lon="7.03239"><ele>475</ele><time>2017-06-15T15:17:06Z</time></trkpt>
<trkpt lat="46.15134" lon="7.03236"><ele>475</ele><time>2017-06-15T15:17:08Z</time></trkpt>
<trkpt lat="46.15146" lon="7.03232"><ele>475</ele><time>2017-06-15T15:17:10Z</time></trkpt>
<trkpt lat="46.15158" lon="7.03229"><ele>475</ele><time>2017-06-15T15:17:12Z</time></trkpt>
<trkpt lat="46.1517" lon="7.03227"><ele>475</ele><time>2017-06-15T15:17:14Z</time></trkpt>
<trkpt lat="46.15183" lon="7.03225"><ele>475</ele><time>2017-06-15T15:17:16Z</time></trkpt>
<trkpt lat="46.15195" lon="7.03223"><ele>475</ele><time>2017-06-15T15:17:18Z</time></trkpt>
<trkpt lat="46.15207" lon="7.0322"><ele>475</ele><time>2017-06-15T15:17:20Z</time></trkpt>
<trkpt lat="46.15218" lon="7.03218"><ele>475</ele><time>2017-06-15T15:17:22Z</time></trkpt>
<trkpt lat="46.15229" lon="7.03215"><ele>475.2</ele><time>2017-06-15T15:17:24Z</time></trkpt>
<trkpt lat="46.15251" lon="7.0321"><ele>475.2</ele><time>2017-06-15T15:17:28Z</time></trkpt>
<trkpt lat="46.15264" lon="7.03209"><ele>475.2</ele><time>2017-06-15T15:17:30Z</time></trkpt>
<trkpt lat="46.15278" lon="7.03208"><ele>475.2</ele><time>2017-06-15T15:17:32Z</time></trkpt>
<trkpt lat="46.15291" lon="7.03207"><ele>475.2</ele><time>2017-06-15T15:17:34Z</time></trkpt>
<trkpt lat="46.15305" lon="7.03206"><ele>475.2</ele><time>2017-06-15T15:17:36Z</time></trkpt>
<trkpt lat="46.15319" lon="7.03201"><ele>475.2</ele><time>2017-06-15T15:17:38Z</time></trkpt>
<trkpt lat="46.15325" lon="7.03199"><ele>475.2</ele><time>2017-06-15T15:17:39Z</time></trkpt>
<trkpt lat="46.15331" lon="7.032"><ele>475.2</ele><time>2017-06-15T15:17:40Z</time></trkpt>
<trkpt lat="46.15342" lon="7.032"><ele>475.2</ele><time>2017-06-15T15:17:42Z</time></trkpt>
<trkpt lat="46.15354" lon="7.032"><ele>475.2</ele><time>2017-06-15T15:17:44Z</time></trkpt>
<trkpt lat="46.15365" lon="7.032"><ele>475.2</ele><time>2017-06-15T15:17:46Z</time></trkpt>
<trkpt lat="46.15371" lon="7.032"><ele>475.2</ele><time>2017-06-15T15:17:47Z</time></trkpt>
<trkpt lat="46.15377" lon="7.032"><ele>475.2</ele><time>2017-06-15T15:17:48Z</time></trkpt>
<trkpt lat="46.15389" lon="7.032"><ele>475.2</ele><time>2017-06-15T15:17:50Z</time></trkpt>
<trkpt lat="46.15401" lon="7.03201"><ele>475.2</ele><time>2017-06-15T15:17:52Z</time></trkpt>
<trkpt lat="46.15412" lon="7.03201"><ele>475.2</ele><time>2017-06-15T15:17:54Z</time></trkpt>
<trkpt lat="46.15418" lon="7.03201"><ele>475.2</ele><time>2017-06-15T15:17:55Z</time></trkpt>
<trkpt lat="46.15424" lon="7.03202"><ele>475.2</ele><time>2017-06-15T15:17:56Z</time></trkpt>
<trkpt lat="46.15435" lon="7.03203"><ele>475.2</ele><time>2017-06-15T15:17:58Z</time></trkpt>
<trkpt lat="46.15452" lon="7.03206"><ele>475.2</ele><time>2017-06-15T15:18:01Z</time></trkpt>
<trkpt lat="46.15458" lon="7.03206"><ele>475.2</ele><time>2017-06-15T15:18:02Z</time></trkpt>
<trkpt lat="46.15464" lon="7.03207"><ele>475.2</ele><time>2017-06-15T15:18:03Z</time></trkpt>
<trkpt lat="46.1547" lon="7.03207"><ele>475.2</ele><time>2017-06-15T15:18:04Z</time></trkpt>
<trkpt lat="46.15482" lon="7.03208"><ele>475.2</ele><time>2017-06-15T15:18:06Z</time></trkpt>
<trkpt lat="46.15494" lon="7.03209"><ele>475.2</ele><time>2017-06-15T15:18:08Z</time></trkpt>
<trkpt lat="46.15506" lon="7.0321"><ele>475.2</ele><time>2017-06-15T15:18:10Z</time></trkpt>
<trkpt lat="46.15512" lon="7.03211"><ele>475.2</ele><time>2017-06-15T15:18:11Z</time></trkpt>
<trkpt lat="46.15517" lon="7.03211"><ele>475.2</ele><time>2017-06-15T15:18:12Z</time></trkpt>
<trkpt lat="46.15528" lon="7.03212"><ele>475.2</ele><time>2017-06-15T15:18:14Z</time></trkpt>
<trkpt lat="46.15538" lon="7.03213"><ele>475.2</ele><time>2017-06-15T15:18:16Z</time></trkpt>
<trkpt lat="46.15549" lon="7.03214"><ele>475.2</ele><time>2017-06-15T15:18:18Z</time></trkpt>
<trkpt lat="46.1556" lon="7.03215"><ele>475.2</ele><time>2017-06-15T15:18:20Z</time></trkpt>
<trkpt lat="46.15567" lon="7.03214"><ele>475.2</ele><time>2017-06-15T15:18:21Z</time></trkpt>
<trkpt lat="46.15574" lon="7.03214"><ele>475.2</ele><time>2017-06-15T15:18:22Z</time></trkpt>
<trkpt lat="46.15587" lon="7.03212"><ele>475.2</ele><time>2017-06-15T15:18:24Z</time></trkpt>
<trkpt lat="46.15594" lon="7.03212"><ele>475.2</ele><time>2017-06-15T15:18:25Z</time></trkpt>
<trkpt lat="46.15599" lon="7.03213"><ele>475.2</ele><time>2017-06-15T15:18:26Z</time></trkpt>
<trkpt lat="46.15611" lon="7.03216"><ele>475.2</ele><time>2017-06-15T15:18:28Z</time></trkpt>
<trkpt lat="46.15623" lon="7.03219"><ele>475.2</ele><time>2017-06-15T15:18:30Z</time></trkpt>
<trkpt lat="46.15635" lon="7.03222"><ele>475.2</ele><time>2017-06-15T15:18:32Z</time></trkpt>
<trkpt lat="46.15641" lon="7.03224"><ele>475.2</ele><time>2017-06-15T15:18:33Z</time></trkpt>
<trkpt lat="46.15647" lon="7.03224"><ele>475.2</ele><time>2017-06-15T15:18:34Z</time></trkpt>
<trkpt lat="46.15659" lon="7.03225"><ele>475.2</ele><time>2017-06-15T15:18:36Z</time></trkpt>
<trkpt lat="46.15671" lon="7.03227"><ele>475.2</ele><time>2017-06-15T15:18:38Z</time></trkpt>
<trkpt lat="46.15683" lon="7.03228"><ele>475.2</ele><time>2017-06-15T15:18:40Z</time></trkpt>
<trkpt lat="46.15689" lon="7.03228"><ele>475.2</ele><time>2017-06-15T15:18:41Z</time></trkpt>
<trkpt lat="46.15695" lon="7.03229"><ele>475.2</ele><time>2017-06-15T15:18:42Z</time></trkpt>
<trkpt lat="46.15708" lon="7.03229"><ele>475.2</ele><time>2017-06-15T15:18:44Z</time></trkpt>
<trkpt lat="46.1572" lon="7.0323"><ele>475.2</ele><time>2017-06-15T15:18:46Z</time></trkpt>
<trkpt lat="46.15733" lon="7.03231"><ele>475.2</ele><time>2017-06-15T15:18:48Z</time></trkpt>
<trkpt lat="46.15738" lon="7.03231"><ele>475.2</ele><time>2017-06-15T15:18:49Z</time></trkpt>
<trkpt lat="46.15744" lon="7.03233"><ele>475.2</ele><time>2017-06-15T15:18:50Z</time></trkpt>
<trkpt lat="46.1575" lon="7.03236"><ele>475.2</ele><time>2017-06-15T15:18:51Z</time></trkpt>
<trkpt lat="46.15756" lon="7.03235"><ele>475.2</ele><time>2017-06-15T15:18:52Z</time></trkpt>
<trkpt lat="46.15768" lon="7.03234"><ele>475.2</ele><time>2017-06-15T15:18:54Z</time></trkpt>
<trkpt lat="46.15774" lon="7.03234"><ele>475.2</ele><time>2017-06-15T15:18:55Z</time></trkpt>
<trkpt lat="46.15779" lon="7.03236"><ele>475.2</ele><time>2017-06-15T15:18:56Z</time></trkpt>
<trkpt lat="46.15785" lon="7.03237"><ele>475.2</ele><time>2017-06-15T15:18:57Z</time></trkpt>
<trkpt lat="46.15791" lon="7.03233"><ele>475.2</ele><time>2017-06-15T15:18:58Z</time></trkpt>
<trkpt lat="46.15795" lon="7.03227"><ele>475.2</ele><time>2017-06-15T15:18:59Z</time></trkpt>
<trkpt lat="46.15795" lon="7.03219"><ele>475.2</ele><time>2017-06-15T15:19:00Z</time></trkpt>
<trkpt lat="46.15797" lon="7.03212"><ele>475.2</ele><time>2017-06-15T15:19:01Z</time></trkpt>
<trkpt lat="46.15801" lon="7.03208"><ele>475.2</ele><time>2017-06-15T15:19:02Z</time></trkpt>
<trkpt lat="46.15806" lon="7.03209"><ele>475.2</ele><time>2017-06-15T15:19:03Z</time></trkpt>
<trkpt lat="46.15811" lon="7.03211"><ele>475.2</ele><time>2017-06-15T15:19:04Z</time></trkpt>
<trkpt lat="46.15823" lon="7.03215"><ele>475.2</ele><time>2017-06-15T15:19:06Z</time></trkpt>
<trkpt lat="46.15835" lon="7.03219"><ele>475.2</ele><time>2017-06-15T15:19:08Z</time></trkpt>
<trkpt lat="46.15846" lon="7.03223"><ele>475.2</ele><time>2017-06-15T15:19:10Z</time></trkpt>
<trkpt lat="46.15852" lon="7.03225"><ele>475.2</ele><time>2017-06-15T15:19:11Z</time></trkpt>
<trkpt lat="46.15858" lon="7.03226"><ele>475.2</ele><time>2017-06-15T15:19:12Z</time></trkpt>
<trkpt lat="46.1587" lon="7.03229"><ele>475.2</ele><time>2017-06-15T15:19:14Z</time></trkpt>
<trkpt lat="46.15883" lon="7.03231"><ele>475.2</ele><time>2017-06-15T15:19:16Z</time></trkpt>
<trkpt lat="46.15895" lon="7.03234"><ele>475.2</ele><time>2017-06-15T15:19:18Z</time></trkpt>
<trkpt lat="46.15901" lon="7.03235"><ele>475.2</ele><time>2017-06-15T15:19:19Z</time></trkpt>
<trkpt lat="46.15907" lon="7.03236"><ele>475.2</ele><time>2017-06-15T15:19:20Z</time></trkpt>
<trkpt lat="46.15921" lon="7.03239"><ele>475.2</ele><time>2017-06-15T15:19:22Z</time></trkpt>
<trkpt lat="46.15934" lon="7.03242"><ele>475.2</ele><time>2017-06-15T15:19:24Z</time></trkpt>
<trkpt lat="46.15947" lon="7.03245"><ele>475.2</ele><time>2017-06-15T15:19:26Z</time></trkpt>
<trkpt lat="46.1596" lon="7.03248"><ele>475.2</ele><time>2017-06-15T15:19:28Z</time></trkpt>
<trkpt lat="46.15973" lon="7.03252"><ele>475.2</ele><time>2017-06-15T15:19:30Z</time></trkpt>
<trkpt lat="46.15985" lon="7.03255"><ele>475.2</ele><time>2017-06-15T15:19:32Z</time></trkpt>
<trkpt lat="46.15991" lon="7.03256"><ele>475.2</ele><time>2017-06-15T15:19:33Z</time></trkpt>
<trkpt lat="46.15997" lon="7.03257"><ele>475.2</ele><time>2017-06-15T15:19:34Z</time></trkpt>
<trkpt lat="46.16008" lon="7.03258"><ele>475.2</ele><time>2017-06-15T15:19:36Z</time></trkpt>
<trkpt lat="46.16019" lon="7.03259"><ele>475.2</ele><time>2017-06-15T15:19:38Z</time></trkpt>
<trkpt lat="46.16031" lon="7.0326"><ele>475.2</ele><time>2017-06-15T15:19:40Z</time></trkpt>
<trkpt lat="46.16043" lon="7.03261"><ele>475.2</ele><time>2017-06-15T15:19:42Z</time></trkpt>
<trkpt lat="46.16058" lon="7.0326"><ele>475.2</ele><time>2017-06-15T15:19:44Z</time></trkpt>
<trkpt lat="46.16073" lon="7.03258"><ele>475.2</ele><time>2017-06-15T15:19:46Z</time></trkpt>
<trkpt lat="46.16087" lon="7.03257"><ele>475.2</ele><time>2017-06-15T15:19:48Z</time></trkpt>
<trkpt lat="46.16098" lon="7.03254"><ele>475.2</ele><time>2017-06-15T15:19:50Z</time></trkpt>
<trkpt lat="46.1611" lon="7.03251"><ele>475.2</ele><time>2017-06-15T15:19:52Z</time></trkpt>
<trkpt lat="46.16121" lon="7.03249"><ele>475.2</ele><time>2017-06-15T15:19:54Z</time></trkpt>
<trkpt lat="46.16132" lon="7.03246"><ele>475.2</ele><time>2017-06-15T15:19:56Z</time></trkpt>
<trkpt lat="46.16143" lon="7.03243"><ele>475.2</ele><time>2017-06-15T15:19:58Z</time></trkpt>
<trkpt lat="46.16155" lon="7.0324"><ele>475.2</ele><time>2017-06-15T15:20:00Z</time></trkpt>
<trkpt lat="46.16166" lon="7.03237"><ele>475.2</ele><time>2017-06-15T15:20:02Z</time></trkpt>
<trkpt lat="46.16177" lon="7.03233"><ele>475.2</ele><time>2017-06-15T15:20:04Z</time></trkpt>
<trkpt lat="46.16187" lon="7.0323"><ele>475.2</ele><time>2017-06-15T15:20:06Z</time></trkpt>
<trkpt lat="46.16198" lon="7.03226"><ele>475.2</ele><time>2017-06-15T15:20:08Z</time></trkpt>
<trkpt lat="46.16208" lon="7.03223"><ele>475.2</ele><time>2017-06-15T15:20:10Z</time></trkpt>
<trkpt lat="46.1622" lon="7.0322"><ele>475.2</ele><time>2017-06-15T15:20:12Z</time></trkpt>
<trkpt lat="46.16231" lon="7.03217"><ele>475.2</ele><time>2017-06-15T15:20:14Z</time></trkpt>
<trkpt lat="46.16243" lon="7.03214"><ele>475.2</ele><time>2017-06-15T15:20:16Z</time></trkpt>
<trkpt lat="46.16255" lon="7.03211"><ele>475.2</ele><time>2017-06-15T15:20:18Z</time></trkpt>
<trkpt lat="46.16266" lon="7.03208"><ele>475.2</ele><time>2017-06-15T15:20:20Z</time></trkpt>
<trkpt lat="46.16277" lon="7.03204"><ele>475.2</ele><time>2017-06-15T15:20:22Z</time></trkpt>
<trkpt lat="46.16287" lon="7.03199"><ele>475.2</ele><time>2017-06-15T15:20:24Z</time></trkpt>
<trkpt lat="46.16298" lon="7.03195"><ele>475.2</ele><time>2017-06-15T15:20:26Z</time></trkpt>
<trkpt lat="46.16308" lon="7.0319"><ele>475.2</ele><time>2017-06-15T15:20:28Z</time></trkpt>
<trkpt lat="46.16319" lon="7.03185"><ele>475.2</ele><time>2017-06-15T15:20:30Z</time></trkpt>
<trkpt lat="46.16324" lon="7.03183"><ele>475.2</ele><time>2017-06-15T15:20:31Z</time></trkpt>
<trkpt lat="46.16329" lon="7.03181"><ele>475.2</ele><time>2017-06-15T15:20:32Z</time></trkpt>
<trkpt lat="46.16339" lon="7.03177"><ele>475.2</ele><time>2017-06-15T15:20:34Z</time></trkpt>
<trkpt lat="46.16348" lon="7.03173"><ele>475.2</ele><time>2017-06-15T15:20:36Z</time></trkpt>
<trkpt lat="46.16358" lon="7.03169"><ele>475.2</ele><time>2017-06-15T15:20:38Z</time></trkpt>
<trkpt lat="46.16368" lon="7.03165"><ele>475.2</ele><time>2017-06-15T15:20:40Z</time></trkpt>
<trkpt lat="46.16377" lon="7.03161"><ele>475.2</ele><time>2017-06-15T15:20:42Z</time></trkpt>
<trkpt lat="46.16387" lon="7.03157"><ele>475.2</ele><time>2017-06-15T15:20:44Z</time></trkpt>
<trkpt lat="46.16397" lon="7.03153"><ele>475.2</ele><time>2017-06-15T15:20:46Z</time></trkpt>
<trkpt lat="46.16406" lon="7.03149"><ele>475.2</ele><time>2017-06-15T15:20:48Z</time></trkpt>
<trkpt lat="46.16416" lon="7.03145"><ele>475.2</ele><time>2017-06-15T15:20:50Z</time></trkpt>
<trkpt lat="46.16427" lon="7.03139"><ele>475.2</ele><time>2017-06-15T15:20:52Z</time></trkpt>
<trkpt lat="46.16437" lon="7.03133"><ele>475.2</ele><time>2017-06-15T15:20:54Z</time></trkpt>
<trkpt lat="46.16448" lon="7.03127"><ele>475.2</ele><time>2017-06-15T15:20:56Z</time></trkpt>
<trkpt lat="46.16458" lon="7.0312"><ele>475.2</ele><time>2017-06-15T15:20:58Z</time></trkpt>
<trkpt lat="46.16469" lon="7.03114"><ele>475.2</ele><time>2017-06-15T15:21:00Z</time></trkpt>
<trkpt lat="46.16479" lon="7.03107"><ele>475.2</ele><time>2017-06-15T15:21:02Z</time></trkpt>
<trkpt lat="46.1649" lon="7.031"><ele>475.2</ele><time>2017-06-15T15:21:04Z</time></trkpt>
<trkpt lat="46.165" lon="7.03094"><ele>475.2</ele><time>2017-06-15T15:21:06Z</time></trkpt>
<trkpt lat="46.16507" lon="7.0309"><ele>475.4</ele><time>2017-06-15T15:21:08Z</time></trkpt>
<trkpt lat="46.16514" lon="7.03086"><ele>475.4</ele><time>2017-06-15T15:21:10Z</time></trkpt>
<trkpt lat="46.16521" lon="7.03082"><ele>475.4</ele><time>2017-06-15T15:21:12Z</time></trkpt>
<trkpt lat="46.16528" lon="7.03078"><ele>475.4</ele><time>2017-06-15T15:21:14Z</time></trkpt>
<trkpt lat="46.16536" lon="7.03074"><ele>475.4</ele><time>2017-06-15T15:21:16Z</time></trkpt>
<trkpt lat="46.16543" lon="7.03069"><ele>475.4</ele><time>2017-06-15T15:21:18Z</time></trkpt>
<trkpt lat="46.16551" lon="7.03065"><ele>475.4</ele><time>2017-06-15T15:21:20Z</time></trkpt>
<trkpt lat="46.16558" lon="7.03061"><ele>475.4</ele><time>2017-06-15T15:21:22Z</time></trkpt>
<trkpt lat="46.16566" lon="7.03057"><ele>475.4</ele><time>2017-06-15T15:21:24Z</time></trkpt>
<trkpt lat="46.16574" lon="7.03053"><ele>475.4</ele><time>2017-06-15T15:21:26Z</time></trkpt>
<trkpt lat="46.16581" lon="7.03049"><ele>475.4</ele><time>2017-06-15T15:21:28Z</time></trkpt>
<trkpt lat="46.16586" lon="7.03047"><ele>475.4</ele><time>2017-06-15T15:21:29Z</time></trkpt>
<trkpt lat="46.16591" lon="7.03044"><ele>475.4</ele><time>2017-06-15T15:21:30Z</time></trkpt>
<trkpt lat="46.16601" lon="7.03039"><ele>475.4</ele><time>2017-06-15T15:21:32Z</time></trkpt>
<trkpt lat="46.16612" lon="7.03034"><ele>475.4</ele><time>2017-06-15T15:21:34Z</time></trkpt>
<trkpt lat="46.16622" lon="7.03029"><ele>475.4</ele><time>2017-06-15T15:21:36Z</time></trkpt>
<trkpt lat="46.16632" lon="7.03025"><ele>475.4</ele><time>2017-06-15T15:21:38Z</time></trkpt>
<trkpt lat="46.16647" lon="7.03018"><ele>475.4</ele><time>2017-06-15T15:21:41Z</time></trkpt>
<trkpt lat="46.16652" lon="7.03016"><ele>475.4</ele><time>2017-06-15T15:21:42Z</time></trkpt>
<trkpt lat="46.16662" lon="7.03012"><ele>475.4</ele><time>2017-06-15T15:21:44Z</time></trkpt>
<trkpt lat="46.16671" lon="7.03008"><ele>475.4</ele><time>2017-06-15T15:21:46Z</time></trkpt>
<trkpt lat="46.16676" lon="7.03006"><ele>475.4</ele><time>2017-06-15T15:21:47Z</time></trkpt>
<trkpt lat="46.16679" lon="7.03004"><ele>475.4</ele><time>2017-06-15T15:21:48Z</time></trkpt>
<trkpt lat="46.16684" lon="7.03004"><ele>475.4</ele><time>2017-06-15T15:21:49Z</time></trkpt>
<trkpt lat="46.16691" lon="7.03004"><ele>475.4</ele><time>2017-06-15T15:21:50Z</time></trkpt>
<trkpt lat="46.167" lon="7.02999"><ele>475.4</ele><time>2017-06-15T15:21:52Z</time></trkpt>
<trkpt lat="46.1671" lon="7.02995"><ele>475.4</ele><time>2017-06-15T15:21:54Z</time></trkpt>
<trkpt lat="46.16716" lon="7.02994"><ele>475.4</ele><time>2017-06-15T15:21:55Z</time></trkpt>
<trkpt lat="46.16723" lon="7.02991"><ele>475.4</ele><time>2017-06-15T15:21:56Z</time></trkpt>
<trkpt lat="46.16735" lon="7.02985"><ele>475.4</ele><time>2017-06-15T15:21:58Z</time></trkpt>
<trkpt lat="46.16754" lon="7.02976"><ele>475.4</ele><time>2017-06-15T15:22:01Z</time></trkpt>
<trkpt lat="46.1676" lon="7.02973"><ele>475.4</ele><time>2017-06-15T15:22:02Z</time></trkpt>
<trkpt lat="46.16772" lon="7.02968"><ele>475.4</ele><time>2017-06-15T15:22:04Z</time></trkpt>
<trkpt lat="46.16783" lon="7.02963"><ele>475.4</ele><time>2017-06-15T15:22:06Z</time></trkpt>
<trkpt lat="46.16795" lon="7.02958"><ele>475.4</ele><time>2017-06-15T15:22:08Z</time></trkpt>
<trkpt lat="46.16801" lon="7.02955"><ele>475.4</ele><time>2017-06-15T15:22:09Z</time></trkpt>
<trkpt lat="46.16806" lon="7.02953"><ele>475.4</ele><time>2017-06-15T15:22:10Z</time></trkpt>
<trkpt lat="46.16817" lon="7.02949"><ele>475.4</ele><time>2017-06-15T15:22:12Z</time></trkpt>
<trkpt lat="46.16828" lon="7.02945"><ele>475.4</ele><time>2017-06-15T15:22:14Z</time></trkpt>
<trkpt lat="46.1684" lon="7.0294"><ele>475.4</ele><time>2017-06-15T15:22:16Z</time></trkpt>
<trkpt lat="46.16845" lon="7.02938"><ele>475.4</ele><time>2017-06-15T15:22:17Z</time></trkpt>
<trkpt lat="46.16851" lon="7.02936"><ele>475.4</ele><time>2017-06-15T15:22:18Z</time></trkpt>
<trkpt lat="46.16862" lon="7.02931"><ele>475.4</ele><time>2017-06-15T15:22:20Z</time></trkpt>
<trkpt lat="46.16872" lon="7.02926"><ele>475.4</ele><time>2017-06-15T15:22:22Z</time></trkpt>
<trkpt lat="46.16875" lon="7.02923"><ele>475.4</ele><time>2017-06-15T15:22:24Z</time></trkpt>
<trkpt lat="46.16879" lon="7.02919"><ele>475.4</ele><time>2017-06-15T15:22:26Z</time></trkpt>
<trkpt lat="46.16882" lon="7.02916"><ele>475.4</ele><time>2017-06-15T15:22:28Z</time></trkpt>
<trkpt lat="46.16886" lon="7.02912"><ele>475.4</ele><time>2017-06-15T15:22:30Z</time></trkpt>
<trkpt lat="46.1689" lon="7.02909"><ele>475.4</ele><time>2017-06-15T15:22:32Z</time></trkpt>
<trkpt lat="46.16891" lon="7.02907"><ele>475.4</ele><time>2017-06-15T15:22:33Z</time></trkpt>
<trkpt lat="46.1689" lon="7.02905"><ele>475.4</ele><time>2017-06-15T15:22:35Z</time></trkpt>
<trkpt lat="46.16889" lon="7.02902"><ele>475.4</ele><time>2017-06-15T15:22:37Z</time></trkpt>
<trkpt lat="46.1689" lon="7.02901"><ele>475.4</ele><time>2017-06-15T15:22:38Z</time></trkpt>
<trkpt lat="46.16893" lon="7.02901"><ele>475.4</ele><time>2017-06-15T15:22:39Z</time></trkpt>
<trkpt lat="46.16897" lon="7.02901"><ele>475.4</ele><time>2017-06-15T15:22:40Z</time></trkpt>
<trkpt lat="46.16903" lon="7.029"><ele>475.4</ele><time>2017-06-15T15:22:42Z</time></trkpt>
<trkpt lat="46.1691" lon="7.02899"><ele>475.4</ele><time>2017-06-15T15:22:44Z</time></trkpt>
<trkpt lat="46.16917" lon="7.02899"><ele>475.4</ele><time>2017-06-15T15:22:46Z</time></trkpt>
<trkpt lat="46.16924" lon="7.02898"><ele>475.4</ele><time>2017-06-15T15:22:48Z</time></trkpt>
<trkpt lat="46.16931" lon="7.02897"><ele>475.4</ele><time>2017-06-15T15:22:50Z</time></trkpt>
<trkpt lat="46.16938" lon="7.02896"><ele>475.4</ele><time>2017-06-15T15:22:52Z</time></trkpt>
<trkpt lat="46.16947" lon="7.02894"><ele>475.4</ele><time>2017-06-15T15:22:54Z</time></trkpt>
<trkpt lat="46.16956" lon="7.02892"><ele>475.4</ele><time>2017-06-15T15:22:56Z</time></trkpt>
<trkpt lat="46.16966" lon="7.02889"><ele>475.4</ele><time>2017-06-15T15:22:58Z</time></trkpt>
<trkpt lat="46.16975" lon="7.02887"><ele>475.4</ele><time>2017-06-15T15:23:00Z</time></trkpt>
<trkpt lat="46.16984" lon="7.02884"><ele>475.4</ele><time>2017-06-15T15:23:02Z</time></trkpt>
<trkpt lat="46.16994" lon="7.0288"><ele>475.4</ele><time>2017-06-15T15:23:04Z</time></trkpt>
<trkpt lat="46.17003" lon="7.02875"><ele>475.4</ele><time>2017-06-15T15:23:06Z</time></trkpt>
<trkpt lat="46.17012" lon="7.02871"><ele>475.4</ele><time>2017-06-15T15:23:08Z</time></trkpt>
<trkpt lat="46.17021" lon="7.02867"><ele>475.4</ele><time>2017-06-15T15:23:10Z</time></trkpt>
<trkpt lat="46.1703" lon="7.02863"><ele>475.4</ele><time>2017-06-15T15:23:12Z</time></trkpt>
<trkpt lat="46.17035" lon="7.0286"><ele>475.4</ele><time>2017-06-15T15:23:14Z</time></trkpt>
<trkpt lat="46.1704" lon="7.02858"><ele>475.4</ele><time>2017-06-15T15:23:16Z</time></trkpt>
<trkpt lat="46.17046" lon="7.02855"><ele>475.4</ele><time>2017-06-15T15:23:18Z</time></trkpt>
<trkpt lat="46.17051" lon="7.02852"><ele>475.4</ele><time>2017-06-15T15:23:20Z</time></trkpt>
<trkpt lat="46.17057" lon="7.0285"><ele>475.4</ele><time>2017-06-15T15:23:22Z</time></trkpt>
<trkpt lat="46.17062" lon="7.02847"><ele>475.4</ele><time>2017-06-15T15:23:24Z</time></trkpt>
<trkpt lat="46.17073" lon="7.02842"><ele>475.4</ele><time>2017-06-15T15:23:28Z</time></trkpt>
<trkpt lat="46.17079" lon="7.02839"><ele>475.4</ele><time>2017-06-15T15:23:30Z</time></trkpt>
<trkpt lat="46.17085" lon="7.02836"><ele>475.4</ele><time>2017-06-15T15:23:32Z</time></trkpt>
<trkpt lat="46.17091" lon="7.02834"><ele>475.4</ele><time>2017-06-15T15:23:34Z</time></trkpt>
<trkpt lat="46.17097" lon="7.02831"><ele>475.4</ele><time>2017-06-15T15:23:36Z</time></trkpt>
<trkpt lat="46.17103" lon="7.02828"><ele>475.4</ele><time>2017-06-15T15:23:38Z</time></trkpt>
<trkpt lat="46.17109" lon="7.02825"><ele>475.4</ele><time>2017-06-15T15:23:40Z</time></trkpt>
<trkpt lat="46.17115" lon="7.02823"><ele>475.4</ele><time>2017-06-15T15:23:42Z</time></trkpt>
<trkpt lat="46.17118" lon="7.02821"><ele>475.4</ele><time>2017-06-15T15:23:43Z</time></trkpt>
<trkpt lat="46.17122" lon="7.02819"><ele>475.4</ele><time>2017-06-15T15:23:44Z</time></trkpt>
<trkpt lat="46.1713" lon="7.02816"><ele>475.4</ele><time>2017-06-15T15:23:46Z</time></trkpt>
<trkpt lat="46.17137" lon="7.02813"><ele>475.4</ele><time>2017-06-15T15:23:48Z</time></trkpt>
<trkpt lat="46.17145" lon="7.02809"><ele>475.4</ele><time>2017-06-15T15:23:50Z</time></trkpt>
<trkpt lat="46.17153" lon="7.02806"><ele>475.4</ele><time>2017-06-15T15:23:52Z</time></trkpt>
<trkpt lat="46.1716" lon="7.02802"><ele>475.4</ele><time>2017-06-15T15:23:54Z</time></trkpt>
<trkpt lat="46.17164" lon="7.02801"><ele>475.4</ele><time>2017-06-15T15:23:55Z</time></trkpt>
<trkpt lat="46.17167" lon="7.02799"><ele>475.4</ele><time>2017-06-15T15:23:56Z</time></trkpt>
<trkpt lat="46.17173" lon="7.02796"><ele>475.4</ele><time>2017-06-15T15:23:58Z</time></trkpt>
<trkpt lat="46.17179" lon="7.02793"><ele>475.4</ele><time>2017-06-15T15:24:00Z</time></trkpt>
<trkpt lat="46.17185" lon="7.0279"><ele>475.4</ele><time>2017-06-15T15:24:02Z</time></trkpt>
<trkpt lat="46.17191" lon="7.02787"><ele>475.4</ele><time>2017-06-15T15:24:04Z</time></trkpt>
<trkpt lat="46.17197" lon="7.02784"><ele>475.4</ele><time>2017-06-15T15:24:06Z</time></trkpt>
<trkpt lat="46.17203" lon="7.02781"><ele>475.4</ele><time>2017-06-15T15:24:08Z</time></trkpt>
<trkpt lat="46.17209" lon="7.02778"><ele>475.4</ele><time>2017-06-15T15:24:10Z</time></trkpt>
<trkpt lat="46.17216" lon="7.02775"><ele>475.4</ele><time>2017-06-15T15:24:12Z</time></trkpt>
<trkpt lat="46.17222" lon="7.02772"><ele>475.4</ele><time>2017-06-15T15:24:14Z</time></trkpt>
<trkpt lat="46.17229" lon="7.02769"><ele>475.4</ele><time>2017-06-15T15:24:16Z</time></trkpt>
<trkpt lat="46.17235" lon="7.02766"><ele>475.4</ele><time>2017-06-15T15:24:18Z</time></trkpt>
<trkpt lat="46.17245" lon="7.02761"><ele>475.4</ele><time>2017-06-15T15:24:21Z</time></trkpt>
<trkpt lat="46.17248" lon="7.0276"><ele>475.4</ele><time>2017-06-15T15:24:22Z</time></trkpt>
<trkpt lat="46.17254" lon="7.02757"><ele>475.4</ele><time>2017-06-15T15:24:24Z</time></trkpt>
<trkpt lat="46.17262" lon="7.02753"><ele>475.4</ele><time>2017-06-15T15:24:26Z</time></trkpt>
<trkpt lat="46.17269" lon="7.02749"><ele>475.4</ele><time>2017-06-15T15:24:28Z</time></trkpt>
<trkpt lat="46.17276" lon="7.02745"><ele>475.4</ele><time>2017-06-15T15:24:30Z</time></trkpt>
<trkpt lat="46.17284" lon="7.02741"><ele>475.4</ele><time>2017-06-15T15:24:32Z</time></trkpt>
<trkpt lat="46.17291" lon="7.02738"><ele>475.4</ele><time>2017-06-15T15:24:34Z</time></trkpt>
<trkpt lat="46.17298" lon="7.02734"><ele>475.4</ele><time>2017-06-15T15:24:36Z</time></trkpt>
<trkpt lat="46.17307" lon="7.0273"><ele>475.4</ele><time>2017-06-15T15:24:38Z</time></trkpt>
<trkpt lat="46.17315" lon="7.02726"><ele>475.4</ele><time>2017-06-15T15:24:40Z</time></trkpt>
<trkpt lat="46.17323" lon="7.02723"><ele>475.4</ele><time>2017-06-15T15:24:42Z</time></trkpt>
<trkpt lat="46.17331" lon="7.02719"><ele>475.4</ele><time>2017-06-15T15:24:44Z</time></trkpt>
<trkpt lat="46.1734" lon="7.02715"><ele>475.4</ele><time>2017-06-15T15:24:46Z</time></trkpt>
<trkpt lat="46.17344" lon="7.02714"><ele>475.4</ele><time>2017-06-15T15:24:47Z</time></trkpt>
<trkpt lat="46.17348" lon="7.02712"><ele>475.4</ele><time>2017-06-15T15:24:48Z</time></trkpt>
<trkpt lat="46.17358" lon="7.02709"><ele>475.4</ele><time>2017-06-15T15:24:50Z</time></trkpt>
<trkpt lat="46.17367" lon="7.02705"><ele>475.4</ele><time>2017-06-15T15:24:52Z</time></trkpt>
<trkpt lat="46.17376" lon="7.02702"><ele>475.6</ele><time>2017-06-15T15:24:54Z</time></trkpt>
<trkpt lat="46.17385" lon="7.02698"><ele>475.6</ele><time>2017-06-15T15:24:56Z</time></trkpt>
<trkpt lat="46.17389" lon="7.02697"><ele>475.6</ele><time>2017-06-15T15:24:57Z</time></trkpt>
<trkpt lat="46.17394" lon="7.02696"><ele>475.6</ele><time>2017-06-15T15:24:58Z</time></trkpt>
<trkpt lat="46.17403" lon="7.02693"><ele>475.6</ele><time>2017-06-15T15:25:00Z</time></trkpt>
<trkpt lat="46.17412" lon="7.0269"><ele>475.6</ele><time>2017-06-15T15:25:02Z</time></trkpt>
<trkpt lat="46.17421" lon="7.02688"><ele>475.6</ele><time>2017-06-15T15:25:04Z</time></trkpt>
<trkpt lat="46.1743" lon="7.02685"><ele>475.6</ele><time>2017-06-15T15:25:06Z</time></trkpt>
<trkpt lat="46.17434" lon="7.02684"><ele>475.6</ele><time>2017-06-15T15:25:07Z</time></trkpt>
<trkpt lat="46.17439" lon="7.02683"><ele>475.6</ele><time>2017-06-15T15:25:08Z</time></trkpt>
<trkpt lat="46.17448" lon="7.02682"><ele>475.6</ele><time>2017-06-15T15:25:10Z</time></trkpt>
<trkpt lat="46.17458" lon="7.02681"><ele>475.6</ele><time>2017-06-15T15:25:12Z</time></trkpt>
<trkpt lat="46.17467" lon="7.0268"><ele>475.6</ele><time>2017-06-15T15:25:14Z</time></trkpt>
<trkpt lat="46.17476" lon="7.02678"><ele>475.6</ele><time>2017-06-15T15:25:16Z</time></trkpt>
<trkpt lat="46.17481" lon="7.02678"><ele>475.6</ele><time>2017-06-15T15:25:17Z</time></trkpt>
<trkpt lat="46.17485" lon="7.02677"><ele>475.6</ele><time>2017-06-15T15:25:18Z</time></trkpt>
<trkpt lat="46.17493" lon="7.02676"><ele>475.6</ele><time>2017-06-15T15:25:20Z</time></trkpt>
<trkpt lat="46.17501" lon="7.02674"><ele>475.6</ele><time>2017-06-15T15:25:22Z</time></trkpt>
<trkpt lat="46.17509" lon="7.02673"><ele>475.6</ele><time>2017-06-15T15:25:24Z</time></trkpt>
<trkpt lat="46.17517" lon="7.02672"><ele>475.6</ele><time>2017-06-15T15:25:26Z</time></trkpt>
<trkpt lat="46.17525" lon="7.0267"><ele>475.6</ele><time>2017-06-15T15:25:28Z</time></trkpt>
<trkpt lat="46.17529" lon="7.0267"><ele>475.6</ele><time>2017-06-15T15:25:29Z</time></trkpt>
<trkpt lat="46.17534" lon="7.0267"><ele>475.6</ele><time>2017-06-15T15:25:30Z</time></trkpt>
<trkpt lat="46.17543" lon="7.02672"><ele>475.6</ele><time>2017-06-15T15:25:32Z</time></trkpt>
<trkpt lat="46.17552" lon="7.02673"><ele>475.6</ele><time>2017-06-15T15:25:34Z</time></trkpt>
<trkpt lat="46.17561" lon="7.02674"><ele>475.6</ele><time>2017-06-15T15:25:36Z</time></trkpt>
<trkpt lat="46.1757" lon="7.02675"><ele>475.6</ele><time>2017-06-15T15:25:38Z</time></trkpt>
<trkpt lat="46.17574" lon="7.02675"><ele>475.6</ele><time>2017-06-15T15:25:39Z</time></trkpt>
<trkpt lat="46.17579" lon="7.02676"><ele>475.6</ele><time>2017-06-15T15:25:40Z</time></trkpt>
<trkpt lat="46.17588" lon="7.02677"><ele>475.6</ele><time>2017-06-15T15:25:42Z</time></trkpt>
<trkpt lat="46.17597" lon="7.02679"><ele>475.6</ele><time>2017-06-15T15:25:44Z</time></trkpt>
<trkpt lat="46.17605" lon="7.0268"><ele>475.6</ele><time>2017-06-15T15:25:46Z</time></trkpt>
<trkpt lat="46.17614" lon="7.02681"><ele>475.6</ele><time>2017-06-15T15:25:48Z</time></trkpt>
<trkpt lat="46.17623" lon="7.02682"><ele>475.6</ele><time>2017-06-15T15:25:50Z</time></trkpt>
<trkpt lat="46.17631" lon="7.02683"><ele>475.6</ele><time>2017-06-15T15:25:52Z</time></trkpt>
<trkpt lat="46.1764" lon="7.02683"><ele>475.6</ele><time>2017-06-15T15:25:54Z</time></trkpt>
<trkpt lat="46.17648" lon="7.02684"><ele>475.6</ele><time>2017-06-15T15:25:56Z</time></trkpt>
<trkpt lat="46.17657" lon="7.02684"><ele>475.6</ele><time>2017-06-15T15:25:58Z</time></trkpt>
<trkpt lat="46.17665" lon="7.02685"><ele>475.6</ele><time>2017-06-15T15:26:00Z</time></trkpt>
<trkpt lat="46.17669" lon="7.02685"><ele>475.6</ele><time>2017-06-15T15:26:01Z</time></trkpt>
<trkpt lat="46.17671" lon="7.02686"><ele>475.6</ele><time>2017-06-15T15:26:02Z</time></trkpt>
<trkpt lat="46.17676" lon="7.02688"><ele>475.6</ele><time>2017-06-15T15:26:04Z</time></trkpt>
<trkpt lat="46.17681" lon="7.0269"><ele>475.6</ele><time>2017-06-15T15:26:06Z</time></trkpt>
<trkpt lat="46.17686" lon="7.02691"><ele>475.6</ele><time>2017-06-15T15:26:08Z</time></trkpt>
<trkpt lat="46.1769" lon="7.02693"><ele>475.6</ele><time>2017-06-15T15:26:10Z</time></trkpt>
<trkpt lat="46.17695" lon="7.02695"><ele>475.6</ele><time>2017-06-15T15:26:12Z</time></trkpt>
<trkpt lat="46.17697" lon="7.02696"><ele>475.6</ele><time>2017-06-15T15:26:13Z</time></trkpt>
<trkpt lat="46.177" lon="7.02696"><ele>475.8</ele><time>2017-06-15T15:26:14Z</time></trkpt>
<trkpt lat="46.17707" lon="7.02699"><ele>476.4</ele><time>2017-06-15T15:26:17Z</time></trkpt>
<trkpt lat="46.17709" lon="7.027"><ele>476.4</ele><time>2017-06-15T15:26:18Z</time></trkpt>
<trkpt lat="46.17714" lon="7.02701"><ele>476.8</ele><time>2017-06-15T15:26:20Z</time></trkpt>
<trkpt lat="46.17719" lon="7.02703"><ele>477.2</ele><time>2017-06-15T15:26:22Z</time></trkpt>
<trkpt lat="46.17724" lon="7.02705"><ele>477.4</ele><time>2017-06-15T15:26:24Z</time></trkpt>
<trkpt lat="46.17729" lon="7.02706"><ele>477.8</ele><time>2017-06-15T15:26:26Z</time></trkpt>
<trkpt lat="46.17733" lon="7.02708"><ele>478.2</ele><time>2017-06-15T15:26:28Z</time></trkpt>
<trkpt lat="46.17738" lon="7.0271"><ele>478.6</ele><time>2017-06-15T15:26:30Z</time></trkpt>
<trkpt lat="46.17741" lon="7.02711"><ele>478.6</ele><time>2017-06-15T15:26:31Z</time></trkpt>
<trkpt lat="46.17743" lon="7.02712"><ele>478.8</ele><time>2017-06-15T15:26:32Z</time></trkpt>
<trkpt lat="46.17748" lon="7.02713"><ele>479.2</ele><time>2017-06-15T15:26:34Z</time></trkpt>
<trkpt lat="46.17753" lon="7.02715"><ele>479.6</ele><time>2017-06-15T15:26:36Z</time></trkpt>
<trkpt lat="46.17757" lon="7.02717"><ele>480</ele><time>2017-06-15T15:26:38Z</time></trkpt>
<trkpt lat="46.1776" lon="7.02717"><ele>480.2</ele><time>2017-06-15T15:26:39Z</time></trkpt>
<trkpt lat="46.17762" lon="7.02719"><ele>480.4</ele><time>2017-06-15T15:26:40Z</time></trkpt>
<trkpt lat="46.17766" lon="7.02721"><ele>480.8</ele><time>2017-06-15T15:26:42Z</time></trkpt>
<trkpt lat="46.17771" lon="7.02723"><ele>481.2</ele><time>2017-06-15T15:26:44Z</time></trkpt>
<trkpt lat="46.17775" lon="7.02725"><ele>481.6</ele><time>2017-06-15T15:26:46Z</time></trkpt>
<trkpt lat="46.17779" lon="7.02727"><ele>482</ele><time>2017-06-15T15:26:48Z</time></trkpt>
<trkpt lat="46.17784" lon="7.02729"><ele>482</ele><time>2017-06-15T15:26:50Z</time></trkpt>
<trkpt lat="46.17788" lon="7.02731"><ele>482.2</ele><time>2017-06-15T15:26:52Z</time></trkpt>
<trkpt lat="46.17793" lon="7.02734"><ele>482.2</ele><time>2017-06-15T15:26:54Z</time></trkpt>
<trkpt lat="46.17797" lon="7.02736"><ele>482.2</ele><time>2017-06-15T15:26:56Z</time></trkpt>
<trkpt lat="46.17801" lon="7.02738"><ele>482.4</ele><time>2017-06-15T15:26:58Z</time></trkpt>
<trkpt lat="46.17804" lon="7.0274"><ele>482.4</ele><time>2017-06-15T15:26:59Z</time></trkpt>
<trkpt lat="46.17809" lon="7.02743"><ele>482.4</ele><time>2017-06-15T15:27:00Z</time></trkpt>
<trkpt lat="46.17818" lon="7.0275"><ele>482.4</ele><time>2017-06-15T15:27:02Z</time></trkpt>
<trkpt lat="46.17827" lon="7.02756"><ele>482.6</ele><time>2017-06-15T15:27:04Z</time></trkpt>
<trkpt lat="46.17831" lon="7.0276"><ele>482.4</ele><time>2017-06-15T15:27:05Z</time></trkpt>
<trkpt lat="46.17836" lon="7.02763"><ele>482.2</ele><time>2017-06-15T15:27:06Z</time></trkpt>
<trkpt lat="46.17845" lon="7.0277"><ele>481.4</ele><time>2017-06-15T15:27:08Z</time></trkpt>
<trkpt lat="46.17855" lon="7.02777"><ele>480.8</ele><time>2017-06-15T15:27:10Z</time></trkpt>
<trkpt lat="46.17865" lon="7.02783"><ele>480.2</ele><time>2017-06-15T15:27:12Z</time></trkpt>
<trkpt lat="46.17874" lon="7.0279"><ele>479.4</ele><time>2017-06-15T15:27:14Z</time></trkpt>
<trkpt lat="46.17884" lon="7.02796"><ele>478.8</ele><time>2017-06-15T15:27:16Z</time></trkpt>
<trkpt lat="46.17889" lon="7.028"><ele>478.8</ele><time>2017-06-15T15:27:17Z</time></trkpt>
<trkpt lat="46.17892" lon="7.02802"><ele>478.8</ele><time>2017-06-15T15:27:18Z</time></trkpt>
<trkpt lat="46.17899" lon="7.02808"><ele>478.8</ele><time>2017-06-15T15:27:20Z</time></trkpt>
<trkpt lat="46.17906" lon="7.02814"><ele>478.8</ele><time>2017-06-15T15:27:22Z</time></trkpt>
<trkpt lat="46.17913" lon="7.02819"><ele>478.8</ele><time>2017-06-15T15:27:24Z</time></trkpt>
<trkpt lat="46.1792" lon="7.02825"><ele>478.8</ele><time>2017-06-15T15:27:26Z</time></trkpt>
<trkpt lat="46.17928" lon="7.0283"><ele>478.8</ele><time>2017-06-15T15:27:28Z</time></trkpt>
<trkpt lat="46.17932" lon="7.02834"><ele>478.8</ele><time>2017-06-15T15:27:29Z</time></trkpt>
<trkpt lat="46.17936" lon="7.02837"><ele>478.6</ele><time>2017-06-15T15:27:30Z</time></trkpt>
<trkpt lat="46.17946" lon="7.02844"><ele>478.6</ele><time>2017-06-15T15:27:32Z</time></trkpt>
<trkpt lat="46.17951" lon="7.02848"><ele>478.6</ele><time>2017-06-15T15:27:33Z</time></trkpt>
<trkpt lat="46.17956" lon="7.02851"><ele>478.4</ele><time>2017-06-15T15:27:34Z</time></trkpt>
<trkpt lat="46.17966" lon="7.02858"><ele>477.8</ele><time>2017-06-15T15:27:36Z</time></trkpt>
<trkpt lat="46.17976" lon="7.02866"><ele>477.2</ele><time>2017-06-15T15:27:38Z</time></trkpt>
<trkpt lat="46.17986" lon="7.02876"><ele>476.8</ele><time>2017-06-15T15:27:40Z</time></trkpt>
<trkpt lat="46.17997" lon="7.02886"><ele>476.2</ele><time>2017-06-15T15:27:42Z</time></trkpt>
<trkpt lat="46.18008" lon="7.02896"><ele>475.6</ele><time>2017-06-15T15:27:44Z</time></trkpt>
<trkpt lat="46.18013" lon="7.02901"><ele>475.4</ele><time>2017-06-15T15:27:45Z</time></trkpt>
<trkpt lat="46.1802" lon="7.02909"><ele>475.2</ele><time>2017-06-15T15:27:46Z</time></trkpt>
<trkpt lat="46.18026" lon="7.02913"><ele>474.8</ele><time>2017-06-15T15:27:47Z</time></trkpt>
<trkpt lat="46.18032" lon="7.02914"><ele>474.6</ele><time>2017-06-15T15:27:48Z</time></trkpt>
<trkpt lat="46.18034" lon="7.02911"><ele>474.4</ele><time>2017-06-15T15:27:49Z</time></trkpt>
<trkpt lat="46.18032" lon="7.02905"><ele>474.2</ele><time>2017-06-15T15:27:50Z</time></trkpt>
<trkpt lat="46.18041" lon="7.02899"><ele>474.4</ele><time>2017-06-15T15:27:52Z</time></trkpt>
<trkpt lat="46.18045" lon="7.02898"><ele>474.6</ele><time>2017-06-15T15:27:53Z</time></trkpt>
<trkpt lat="46.18048" lon="7.02899"><ele>474.6</ele><time>2017-06-15T15:27:54Z</time></trkpt>
<trkpt lat="46.18053" lon="7.02901"><ele>475</ele><time>2017-06-15T15:27:56Z</time></trkpt>
<trkpt lat="46.18058" lon="7.02903"><ele>475.2</ele><time>2017-06-15T15:27:58Z</time></trkpt>
<trkpt lat="46.18064" lon="7.02905"><ele>475.4</ele><time>2017-06-15T15:28:00Z</time></trkpt>
<trkpt lat="46.18066" lon="7.02906"><ele>475.6</ele><time>2017-06-15T15:28:01Z</time></trkpt>
<trkpt lat="46.18069" lon="7.02907"><ele>475.8</ele><time>2017-06-15T15:28:02Z</time></trkpt>
<trkpt lat="46.18074" lon="7.02909"><ele>476</ele><time>2017-06-15T15:28:04Z</time></trkpt>
<trkpt lat="46.1808" lon="7.02911"><ele>476.4</ele><time>2017-06-15T15:28:06Z</time></trkpt>
<trkpt lat="46.18085" lon="7.02913"><ele>476.8</ele><time>2017-06-15T15:28:08Z</time></trkpt>
<trkpt lat="46.18091" lon="7.02915"><ele>477</ele><time>2017-06-15T15:28:10Z</time></trkpt>
<trkpt lat="46.18097" lon="7.02916"><ele>477.4</ele><time>2017-06-15T15:28:12Z</time></trkpt>
<trkpt lat="46.18102" lon="7.02918"><ele>477.6</ele><time>2017-06-15T15:28:14Z</time></trkpt>
<trkpt lat="46.18108" lon="7.0292"><ele>477.8</ele><time>2017-06-15T15:28:16Z</time></trkpt>
<trkpt lat="46.18114" lon="7.02922"><ele>478</ele><time>2017-06-15T15:28:18Z</time></trkpt>
<trkpt lat="46.1812" lon="7.02924"><ele>478.2</ele><time>2017-06-15T15:28:20Z</time></trkpt>
<trkpt lat="46.18126" lon="7.02926"><ele>478.4</ele><time>2017-06-15T15:28:22Z</time></trkpt>
<trkpt lat="46.18132" lon="7.02927"><ele>478.6</ele><time>2017-06-15T15:28:24Z</time></trkpt>
<trkpt lat="46.18135" lon="7.02928"><ele>478.6</ele><time>2017-06-15T15:28:25Z</time></trkpt>
<trkpt lat="46.18139" lon="7.02929"><ele>478.8</ele><time>2017-06-15T15:28:26Z</time></trkpt>
<trkpt lat="46.18146" lon="7.02931"><ele>479</ele><time>2017-06-15T15:28:28Z</time></trkpt>
<trkpt lat="46.18152" lon="7.02932"><ele>479.2</ele><time>2017-06-15T15:28:30Z</time></trkpt>
<trkpt lat="46.18159" lon="7.02934"><ele>479.4</ele><time>2017-06-15T15:28:32Z</time></trkpt>
<trkpt lat="46.18166" lon="7.02935"><ele>479.6</ele><time>2017-06-15T15:28:34Z</time></trkpt>
<trkpt lat="46.18173" lon="7.02937"><ele>480</ele><time>2017-06-15T15:28:36Z</time></trkpt>
<trkpt lat="46.1818" lon="7.02939"><ele>480.2</ele><time>2017-06-15T15:28:38Z</time></trkpt>
<trkpt lat="46.18183" lon="7.02939"><ele>480.2</ele><time>2017-06-15T15:28:39Z</time></trkpt>
<trkpt lat="46.18189" lon="7.02939"><ele>480.6</ele><time>2017-06-15T15:28:41Z</time></trkpt>
<trkpt lat="46.18192" lon="7.02939"><ele>480.6</ele><time>2017-06-15T15:28:42Z</time></trkpt>
<trkpt lat="46.18199" lon="7.02939"><ele>480.8</ele><time>2017-06-15T15:28:44Z</time></trkpt>
<trkpt lat="46.18205" lon="7.02939"><ele>481.2</ele><time>2017-06-15T15:28:46Z</time></trkpt>
<trkpt lat="46.18211" lon="7.02939"><ele>481.4</ele><time>2017-06-15T15:28:48Z</time></trkpt>
<trkpt lat="46.18217" lon="7.02939"><ele>481.6</ele><time>2017-06-15T15:28:50Z</time></trkpt>
<trkpt lat="46.18224" lon="7.02939"><ele>481.8</ele><time>2017-06-15T15:28:52Z</time></trkpt>
<trkpt lat="46.1823" lon="7.02939"><ele>482</ele><time>2017-06-15T15:28:54Z</time></trkpt>
<trkpt lat="46.18236" lon="7.02939"><ele>482.2</ele><time>2017-06-15T15:28:56Z</time></trkpt>
<trkpt lat="46.18243" lon="7.02939"><ele>482.4</ele><time>2017-06-15T15:28:58Z</time></trkpt>
<trkpt lat="46.18249" lon="7.02939"><ele>482.8</ele><time>2017-06-15T15:29:00Z</time></trkpt>
<trkpt lat="46.18256" lon="7.02939"><ele>483</ele><time>2017-06-15T15:29:02Z</time></trkpt>
<trkpt lat="46.18263" lon="7.02939"><ele>483.2</ele><time>2017-06-15T15:29:04Z</time></trkpt>
<trkpt lat="46.18269" lon="7.02939"><ele>483.4</ele><time>2017-06-15T15:29:06Z</time></trkpt>
<trkpt lat="46.18276" lon="7.02939"><ele>483.6</ele><time>2017-06-15T15:29:08Z</time></trkpt>
<trkpt lat="46.18283" lon="7.02938"><ele>483.8</ele><time>2017-06-15T15:29:10Z</time></trkpt>
<trkpt lat="46.1829" lon="7.02937"><ele>484</ele><time>2017-06-15T15:29:12Z</time></trkpt>
<trkpt lat="46.18297" lon="7.02936"><ele>484.2</ele><time>2017-06-15T15:29:14Z</time></trkpt>
<trkpt lat="46.18304" lon="7.02936"><ele>484.6</ele><time>2017-06-15T15:29:16Z</time></trkpt>
<trkpt lat="46.1831" lon="7.02935"><ele>484.8</ele><time>2017-06-15T15:29:18Z</time></trkpt>
<trkpt lat="46.18314" lon="7.02934"><ele>484.8</ele><time>2017-06-15T15:29:19Z</time></trkpt>
<trkpt lat="46.18317" lon="7.02934"><ele>485</ele><time>2017-06-15T15:29:20Z</time></trkpt>
<trkpt lat="46.18321" lon="7.02933"><ele>485.2</ele><time>2017-06-15T15:29:21Z</time></trkpt>
<trkpt lat="46.18324" lon="7.02932"><ele>485.2</ele><time>2017-06-15T15:29:22Z</time></trkpt>
<trkpt lat="46.18331" lon="7.0293"><ele>485.4</ele><time>2017-06-15T15:29:24Z</time></trkpt>
<trkpt lat="46.18344" lon="7.02926"><ele>486</ele><time>2017-06-15T15:29:28Z</time></trkpt>
<trkpt lat="46.1835" lon="7.02924"><ele>486.2</ele><time>2017-06-15T15:29:30Z</time></trkpt>
<trkpt lat="46.18357" lon="7.02922"><ele>486.4</ele><time>2017-06-15T15:29:32Z</time></trkpt>
<trkpt lat="46.18363" lon="7.0292"><ele>486.8</ele><time>2017-06-15T15:29:34Z</time></trkpt>
<trkpt lat="46.18367" lon="7.02919"><ele>486.8</ele><time>2017-06-15T15:29:35Z</time></trkpt>
<trkpt lat="46.1837" lon="7.02918"><ele>487</ele><time>2017-06-15T15:29:36Z</time></trkpt>
<trkpt lat="46.18378" lon="7.02915"><ele>487.2</ele><time>2017-06-15T15:29:38Z</time></trkpt>
<trkpt lat="46.18385" lon="7.02912"><ele>487.4</ele><time>2017-06-15T15:29:40Z</time></trkpt>
<trkpt lat="46.18392" lon="7.0291"><ele>487.6</ele><time>2017-06-15T15:29:42Z</time></trkpt>
<trkpt lat="46.184" lon="7.02907"><ele>487.8</ele><time>2017-06-15T15:29:44Z</time></trkpt>
<trkpt lat="46.18407" lon="7.02904"><ele>488</ele><time>2017-06-15T15:29:46Z</time></trkpt>
<trkpt lat="46.18411" lon="7.02902"><ele>488</ele><time>2017-06-15T15:29:47Z</time></trkpt>
<trkpt lat="46.18414" lon="7.02901"><ele>488.2</ele><time>2017-06-15T15:29:48Z</time></trkpt>
<trkpt lat="46.18421" lon="7.02897"><ele>488.4</ele><time>2017-06-15T15:29:50Z</time></trkpt>
<trkpt lat="46.18428" lon="7.02894"><ele>488.6</ele><time>2017-06-15T15:29:52Z</time></trkpt>
<trkpt lat="46.18435" lon="7.0289"><ele>488.8</ele><time>2017-06-15T15:29:54Z</time></trkpt>
<trkpt lat="46.18442" lon="7.02887"><ele>489</ele><time>2017-06-15T15:29:56Z</time></trkpt>
<trkpt lat="46.18446" lon="7.02885"><ele>489</ele><time>2017-06-15T15:29:57Z</time></trkpt>
<trkpt lat="46.18449" lon="7.02883"><ele>489</ele><time>2017-06-15T15:29:58Z</time></trkpt>
<trkpt lat="46.18456" lon="7.0288"><ele>489</ele><time>2017-06-15T15:30:00Z</time></trkpt>
<trkpt lat="46.18464" lon="7.02876"><ele>489</ele><time>2017-06-15T15:30:02Z</time></trkpt>
<trkpt lat="46.18472" lon="7.02872"><ele>489</ele><time>2017-06-15T15:30:04Z</time></trkpt>
<trkpt lat="46.1848" lon="7.02868"><ele>489</ele><time>2017-06-15T15:30:06Z</time></trkpt>
<trkpt lat="46.18488" lon="7.02865"><ele>489</ele><time>2017-06-15T15:30:08Z</time></trkpt>
<trkpt lat="46.18495" lon="7.02861"><ele>488.8</ele><time>2017-06-15T15:30:10Z</time></trkpt>
<trkpt lat="46.18499" lon="7.02859"><ele>488.8</ele><time>2017-06-15T15:30:11Z</time></trkpt>
<trkpt lat="46.18503" lon="7.02857"><ele>488.8</ele><time>2017-06-15T15:30:12Z</time></trkpt>
<trkpt lat="46.18511" lon="7.02854"><ele>488.8</ele><time>2017-06-15T15:30:14Z</time></trkpt>
<trkpt lat="46.18519" lon="7.0285"><ele>488.8</ele><time>2017-06-15T15:30:16Z</time></trkpt>
<trkpt lat="46.18527" lon="7.02846"><ele>488.8</ele><time>2017-06-15T15:30:18Z</time></trkpt>
<trkpt lat="46.18534" lon="7.02843"><ele>488.8</ele><time>2017-06-15T15:30:20Z</time></trkpt>
<trkpt lat="46.18542" lon="7.02839"><ele>488.8</ele><time>2017-06-15T15:30:22Z</time></trkpt>
<trkpt lat="46.1855" lon="7.02835"><ele>488.8</ele><time>2017-06-15T15:30:24Z</time></trkpt>
<trkpt lat="46.18558" lon="7.02831"><ele>488.6</ele><time>2017-06-15T15:30:26Z</time></trkpt>
<trkpt lat="46.18565" lon="7.02826"><ele>488.6</ele><time>2017-06-15T15:30:28Z</time></trkpt>
<trkpt lat="46.18573" lon="7.02822"><ele>488.6</ele><time>2017-06-15T15:30:30Z</time></trkpt>
<trkpt lat="46.18581" lon="7.02818"><ele>488.6</ele><time>2017-06-15T15:30:32Z</time></trkpt>
<trkpt lat="46.18585" lon="7.02816"><ele>488.6</ele><time>2017-06-15T15:30:33Z</time></trkpt>
<trkpt lat="46.1859" lon="7.02815"><ele>488.6</ele><time>2017-06-15T15:30:34Z</time></trkpt>
<trkpt lat="46.18599" lon="7.02812"><ele>488.6</ele><time>2017-06-15T15:30:36Z</time></trkpt>
<trkpt lat="46.18609" lon="7.02809"><ele>488.6</ele><time>2017-06-15T15:30:38Z</time></trkpt>
<trkpt lat="46.18623" lon="7.02804"><ele>488.4</ele><time>2017-06-15T15:30:41Z</time></trkpt>
<trkpt lat="46.18627" lon="7.02802"><ele>488.4</ele><time>2017-06-15T15:30:42Z</time></trkpt>
<trkpt lat="46.18632" lon="7.02801"><ele>488.4</ele><time>2017-06-15T15:30:43Z</time></trkpt>
<trkpt lat="46.18637" lon="7.028"><ele>488.4</ele><time>2017-06-15T15:30:44Z</time></trkpt>
<trkpt lat="46.18646" lon="7.02798"><ele>488.4</ele><time>2017-06-15T15:30:46Z</time></trkpt>
<trkpt lat="46.18655" lon="7.02796"><ele>488.4</ele><time>2017-06-15T15:30:48Z</time></trkpt>
<trkpt lat="46.18664" lon="7.02793"><ele>488.4</ele><time>2017-06-15T15:30:50Z</time></trkpt>
<trkpt lat="46.18673" lon="7.02791"><ele>488.4</ele><time>2017-06-15T15:30:52Z</time></trkpt>
<trkpt lat="46.18677" lon="7.02791"><ele>488.4</ele><time>2017-06-15T15:30:53Z</time></trkpt>
<trkpt lat="46.1868" lon="7.02789"><ele>488</ele><time>2017-06-15T15:30:54Z</time></trkpt>
<trkpt lat="46.1868" lon="7.02789"><ele>488</ele><time>2017-06-15T15:31:47Z</time></trkpt>
<trkpt lat="46.18683" lon="7.02785"><ele>487.6</ele><time>2017-06-15T15:31:48Z</time></trkpt>
<trkpt lat="46.18692" lon="7.02782"><ele>487.6</ele><time>2017-06-15T15:31:50Z</time></trkpt>
<trkpt lat="46.18701" lon="7.02779"><ele>487.6</ele><time>2017-06-15T15:31:52Z</time></trkpt>
<trkpt lat="46.1871" lon="7.02777"><ele>487.6</ele><time>2017-06-15T15:31:54Z</time></trkpt>
<trkpt lat="46.18719" lon="7.02774"><ele>487.6</ele><time>2017-06-15T15:31:56Z</time></trkpt>
<trkpt lat="46.18729" lon="7.02771"><ele>487.4</ele><time>2017-06-15T15:31:58Z</time></trkpt>
<trkpt lat="46.18739" lon="7.02768"><ele>487.4</ele><time>2017-06-15T15:32:00Z</time></trkpt>
<trkpt lat="46.18748" lon="7.02765"><ele>487.4</ele><time>2017-06-15T15:32:02Z</time></trkpt>
<trkpt lat="46.18758" lon="7.02762"><ele>487.4</ele><time>2017-06-15T15:32:04Z</time></trkpt>
<trkpt lat="46.18768" lon="7.02759"><ele>487.4</ele><time>2017-06-15T15:32:06Z</time></trkpt>
<trkpt lat="46.18778" lon="7.02754"><ele>487.4</ele><time>2017-06-15T15:32:08Z</time></trkpt>
<trkpt lat="46.18789" lon="7.0275"><ele>487.4</ele><time>2017-06-15T15:32:10Z</time></trkpt>
<trkpt lat="46.18799" lon="7.02745"><ele>487.4</ele><time>2017-06-15T15:32:12Z</time></trkpt>
<trkpt lat="46.18809" lon="7.02741"><ele>487.2</ele><time>2017-06-15T15:32:14Z</time></trkpt>
<trkpt lat="46.18814" lon="7.02738"><ele>487.2</ele><time>2017-06-15T15:32:15Z</time></trkpt>
<trkpt lat="46.18819" lon="7.02735"><ele>487.2</ele><time>2017-06-15T15:32:16Z</time></trkpt>
<trkpt lat="46.18828" lon="7.02728"><ele>487.2</ele><time>2017-06-15T15:32:18Z</time></trkpt>
<trkpt lat="46.18838" lon="7.02721"><ele>487.2</ele><time>2017-06-15T15:32:20Z</time></trkpt>
<trkpt lat="46.18847" lon="7.02714"><ele>487.2</ele><time>2017-06-15T15:32:22Z</time></trkpt>
<trkpt lat="46.18857" lon="7.02708"><ele>487.2</ele><time>2017-06-15T15:32:24Z</time></trkpt>
<trkpt lat="46.1887" lon="7.02697"><ele>487.2</ele><time>2017-06-15T15:32:27Z</time></trkpt>
<trkpt lat="46.18875" lon="7.02694"><ele>487.2</ele><time>2017-06-15T15:32:28Z</time></trkpt>
<trkpt lat="46.18884" lon="7.02687"><ele>487</ele><time>2017-06-15T15:32:30Z</time></trkpt>
<trkpt lat="46.18893" lon="7.0268"><ele>487</ele><time>2017-06-15T15:32:32Z</time></trkpt>
<trkpt lat="46.18897" lon="7.02677"><ele>487</ele><time>2017-06-15T15:32:33Z</time></trkpt>
<trkpt lat="46.18901" lon="7.02673"><ele>487</ele><time>2017-06-15T15:32:34Z</time></trkpt>
<trkpt lat="46.18909" lon="7.02665"><ele>487</ele><time>2017-06-15T15:32:36Z</time></trkpt>
<trkpt lat="46.18917" lon="7.02658"><ele>487</ele><time>2017-06-15T15:32:38Z</time></trkpt>
<trkpt lat="46.18925" lon="7.0265"><ele>487</ele><time>2017-06-15T15:32:40Z</time></trkpt>
<trkpt lat="46.18933" lon="7.02642"><ele>487</ele><time>2017-06-15T15:32:42Z</time></trkpt>
<trkpt lat="46.18936" lon="7.02638"><ele>487</ele><time>2017-06-15T15:32:43Z</time></trkpt>
<trkpt lat="46.1894" lon="7.02635"><ele>486.8</ele><time>2017-06-15T15:32:44Z</time></trkpt>
<trkpt lat="46.18947" lon="7.02628"><ele>486.8</ele><time>2017-06-15T15:32:46Z</time></trkpt>
<trkpt lat="46.18954" lon="7.02621"><ele>486.8</ele><time>2017-06-15T15:32:48Z</time></trkpt>
<trkpt lat="46.18962" lon="7.02614"><ele>486.8</ele><time>2017-06-15T15:32:50Z</time></trkpt>
<trkpt lat="46.18972" lon="7.02604"><ele>486.8</ele><time>2017-06-15T15:32:53Z</time></trkpt>
<trkpt lat="46.18976" lon="7.026"><ele>486.8</ele><time>2017-06-15T15:32:54Z</time></trkpt>
<trkpt lat="46.1898" lon="7.02597"><ele>486.8</ele><time>2017-06-15T15:32:55Z</time></trkpt>
<trkpt lat="46.18987" lon="7.0259"><ele>486.8</ele><time>2017-06-15T15:32:57Z</time></trkpt>
<trkpt lat="46.18991" lon="7.02587"><ele>486.8</ele><time>2017-06-15T15:32:58Z</time></trkpt>
<trkpt lat="46.18998" lon="7.02581"><ele>486.6</ele><time>2017-06-15T15:33:00Z</time></trkpt>
<trkpt lat="46.19005" lon="7.02574"><ele>486.6</ele><time>2017-06-15T15:33:02Z</time></trkpt>
<trkpt lat="46.19013" lon="7.02568"><ele>486.6</ele><time>2017-06-15T15:33:04Z</time></trkpt>
<trkpt lat="46.19017" lon="7.02564"><ele>486.6</ele><time>2017-06-15T15:33:05Z</time></trkpt>
<trkpt lat="46.1902" lon="7.02562"><ele>486.6</ele><time>2017-06-15T15:33:06Z</time></trkpt>
<trkpt lat="46.19028" lon="7.02556"><ele>486.6</ele><time>2017-06-15T15:33:08Z</time></trkpt>
<trkpt lat="46.19036" lon="7.02551"><ele>486.6</ele><time>2017-06-15T15:33:10Z</time></trkpt>
<trkpt lat="46.19044" lon="7.02546"><ele>486.6</ele><time>2017-06-15T15:33:12Z</time></trkpt>
<trkpt lat="46.19052" lon="7.0254"><ele>486.6</ele><time>2017-06-15T15:33:14Z</time></trkpt>
<trkpt lat="46.1906" lon="7.02535"><ele>486.4</ele><time>2017-06-15T15:33:16Z</time></trkpt>
<trkpt lat="46.19066" lon="7.02531"><ele>486.4</ele><time>2017-06-15T15:33:18Z</time></trkpt>
<trkpt lat="46.19073" lon="7.02527"><ele>486.4</ele><time>2017-06-15T15:33:20Z</time></trkpt>
<trkpt lat="46.19079" lon="7.02523"><ele>486.4</ele><time>2017-06-15T15:33:22Z</time></trkpt>
<trkpt lat="46.19086" lon="7.02519"><ele>486.4</ele><time>2017-06-15T15:33:24Z</time></trkpt>
<trkpt lat="46.19093" lon="7.02515"><ele>486.4</ele><time>2017-06-15T15:33:26Z</time></trkpt>
<trkpt lat="46.19099" lon="7.02511"><ele>486.4</ele><time>2017-06-15T15:33:28Z</time></trkpt>
<trkpt lat="46.19103" lon="7.02509"><ele>486.4</ele><time>2017-06-15T15:33:29Z</time></trkpt>
<trkpt lat="46.19113" lon="7.02504"><ele>486.2</ele><time>2017-06-15T15:33:31Z</time></trkpt>
<trkpt lat="46.19123" lon="7.02499"><ele>486.2</ele><time>2017-06-15T15:33:33Z</time></trkpt>
<trkpt lat="46.19128" lon="7.02496"><ele>486.2</ele><time>2017-06-15T15:33:34Z</time></trkpt>
<trkpt lat="46.19138" lon="7.02491"><ele>486.2</ele><time>2017-06-15T15:33:36Z</time></trkpt>
<trkpt lat="46.19149" lon="7.02486"><ele>486.2</ele><time>2017-06-15T15:33:38Z</time></trkpt>
<trkpt lat="46.1916" lon="7.02481"><ele>486.2</ele><time>2017-06-15T15:33:40Z</time></trkpt>
<trkpt lat="46.19172" lon="7.02475"><ele>486.2</ele><time>2017-06-15T15:33:42Z</time></trkpt>
<trkpt lat="46.19183" lon="7.0247"><ele>486.2</ele><time>2017-06-15T15:33:44Z</time></trkpt>
<trkpt lat="46.19195" lon="7.02464"><ele>486</ele><time>2017-06-15T15:33:46Z</time></trkpt>
<trkpt lat="46.19206" lon="7.02458"><ele>486</ele><time>2017-06-15T15:33:48Z</time></trkpt>
<trkpt lat="46.19218" lon="7.02452"><ele>486</ele><time>2017-06-15T15:33:50Z</time></trkpt>
<trkpt lat="46.19229" lon="7.02446"><ele>486</ele><time>2017-06-15T15:33:52Z</time></trkpt>
<trkpt lat="46.19241" lon="7.0244"><ele>486</ele><time>2017-06-15T15:33:54Z</time></trkpt>
<trkpt lat="46.19251" lon="7.02434"><ele>486</ele><time>2017-06-15T15:33:56Z</time></trkpt>
<trkpt lat="46.19262" lon="7.02428"><ele>486</ele><time>2017-06-15T15:33:58Z</time></trkpt>
<trkpt lat="46.19277" lon="7.02419"><ele>486</ele><time>2017-06-15T15:34:01Z</time></trkpt>
<trkpt lat="46.19283" lon="7.02416"><ele>485.8</ele><time>2017-06-15T15:34:02Z</time></trkpt>
<trkpt lat="46.19294" lon="7.0241"><ele>485.8</ele><time>2017-06-15T15:34:04Z</time></trkpt>
<trkpt lat="46.19305" lon="7.02404"><ele>485.8</ele><time>2017-06-15T15:34:06Z</time></trkpt>
<trkpt lat="46.19316" lon="7.02398"><ele>485.8</ele><time>2017-06-15T15:34:08Z</time></trkpt>
<trkpt lat="46.19327" lon="7.02392"><ele>485.8</ele><time>2017-06-15T15:34:10Z</time></trkpt>
<trkpt lat="46.19338" lon="7.02386"><ele>485.8</ele><time>2017-06-15T15:34:12Z</time></trkpt>
<trkpt lat="46.19349" lon="7.02381"><ele>485.8</ele><time>2017-06-15T15:34:14Z</time></trkpt>
<trkpt lat="46.1936" lon="7.02375"><ele>485.8</ele><time>2017-06-15T15:34:16Z</time></trkpt>
<trkpt lat="46.19371" lon="7.02369"><ele>485.6</ele><time>2017-06-15T15:34:18Z</time></trkpt>
<trkpt lat="46.19388" lon="7.02357"><ele>485.6</ele><time>2017-06-15T15:34:21Z</time></trkpt>
<trkpt lat="46.19394" lon="7.02353"><ele>485.6</ele><time>2017-06-15T15:34:22Z</time></trkpt>
<trkpt lat="46.19405" lon="7.02346"><ele>485.6</ele><time>2017-06-15T15:34:24Z</time></trkpt>
<trkpt lat="46.19417" lon="7.02337"><ele>485.6</ele><time>2017-06-15T15:34:26Z</time></trkpt>
<trkpt lat="46.19429" lon="7.02328"><ele>485.4</ele><time>2017-06-15T15:34:28Z</time></trkpt>
<trkpt lat="46.1944" lon="7.02318"><ele>485.2</ele><time>2017-06-15T15:34:30Z</time></trkpt>
<trkpt lat="46.19452" lon="7.02308"><ele>484.8</ele><time>2017-06-15T15:34:32Z</time></trkpt>
<trkpt lat="46.19458" lon="7.02303"><ele>484.8</ele><time>2017-06-15T15:34:33Z</time></trkpt>
<trkpt lat="46.19464" lon="7.02298"><ele>484.6</ele><time>2017-06-15T15:34:34Z</time></trkpt>
<trkpt lat="46.19475" lon="7.02287"><ele>484.2</ele><time>2017-06-15T15:34:36Z</time></trkpt>
<trkpt lat="46.19487" lon="7.02276"><ele>484</ele><time>2017-06-15T15:34:38Z</time></trkpt>
<trkpt lat="46.19492" lon="7.0227"><ele>483.8</ele><time>2017-06-15T15:34:39Z</time></trkpt>
<trkpt lat="46.19497" lon="7.02263"><ele>483.6</ele><time>2017-06-15T15:34:40Z</time></trkpt>
<trkpt lat="46.19508" lon="7.02249"><ele>483</ele><time>2017-06-15T15:34:42Z</time></trkpt>
<trkpt lat="46.19518" lon="7.02235"><ele>482.6</ele><time>2017-06-15T15:34:44Z</time></trkpt>
<trkpt lat="46.19529" lon="7.02222"><ele>482.2</ele><time>2017-06-15T15:34:46Z</time></trkpt>
<trkpt lat="46.19541" lon="7.02211"><ele>481.6</ele><time>2017-06-15T15:34:48Z</time></trkpt>
<trkpt lat="46.19547" lon="7.02206"><ele>481.4</ele><time>2017-06-15T15:34:49Z</time></trkpt>
<trkpt lat="46.19553" lon="7.022"><ele>481.2</ele><time>2017-06-15T15:34:50Z</time></trkpt>
<trkpt lat="46.19565" lon="7.0219"><ele>480.8</ele><time>2017-06-15T15:34:52Z</time></trkpt>
<trkpt lat="46.19571" lon="7.02184"><ele>480.6</ele><time>2017-06-15T15:34:53Z</time></trkpt>
<trkpt lat="46.19576" lon="7.02179"><ele>480.4</ele><time>2017-06-15T15:34:54Z</time></trkpt>
<trkpt lat="46.19588" lon="7.02171"><ele>479.8</ele><time>2017-06-15T15:34:56Z</time></trkpt>
<trkpt lat="46.19595" lon="7.02169"><ele>479.6</ele><time>2017-06-15T15:34:57Z</time></trkpt>
<trkpt lat="46.196" lon="7.02164"><ele>479.4</ele><time>2017-06-15T15:34:58Z</time></trkpt>
<trkpt lat="46.19611" lon="7.02155"><ele>479</ele><time>2017-06-15T15:35:00Z</time></trkpt>
<trkpt lat="46.19621" lon="7.02146"><ele>478.6</ele><time>2017-06-15T15:35:02Z</time></trkpt>
<trkpt lat="46.19631" lon="7.02137"><ele>478.2</ele><time>2017-06-15T15:35:04Z</time></trkpt>
<trkpt lat="46.19637" lon="7.02132"><ele>478</ele><time>2017-06-15T15:35:05Z</time></trkpt>
<trkpt lat="46.19644" lon="7.02127"><ele>477.8</ele><time>2017-06-15T15:35:06Z</time></trkpt>
<trkpt lat="46.19657" lon="7.02116"><ele>477.2</ele><time>2017-06-15T15:35:08Z</time></trkpt>
<trkpt lat="46.19672" lon="7.02106"><ele>476.8</ele><time>2017-06-15T15:35:10Z</time></trkpt>
<trkpt lat="46.19679" lon="7.02101"><ele>476.6</ele><time>2017-06-15T15:35:11Z</time></trkpt>
<trkpt lat="46.19686" lon="7.02095"><ele>476.4</ele><time>2017-06-15T15:35:12Z</time></trkpt>
<trkpt lat="46.19692" lon="7.02089"><ele>476.2</ele><time>2017-06-15T15:35:13Z</time></trkpt>
<trkpt lat="46.19698" lon="7.02083"><ele>476</ele><time>2017-06-15T15:35:14Z</time></trkpt>
<trkpt lat="46.19711" lon="7.02071"><ele>475.6</ele><time>2017-06-15T15:35:16Z</time></trkpt>
<trkpt lat="46.19717" lon="7.02065"><ele>475.4</ele><time>2017-06-15T15:35:17Z</time></trkpt>
<trkpt lat="46.19724" lon="7.02059"><ele>475.2</ele><time>2017-06-15T15:35:18Z</time></trkpt>
<trkpt lat="46.19738" lon="7.02047"><ele>474.8</ele><time>2017-06-15T15:35:20Z</time></trkpt>
<trkpt lat="46.19752" lon="7.02035"><ele>474.2</ele><time>2017-06-15T15:35:22Z</time></trkpt>
<trkpt lat="46.19759" lon="7.02029"><ele>474</ele><time>2017-06-15T15:35:23Z</time></trkpt>
<trkpt lat="46.19765" lon="7.02023"><ele>473.8</ele><time>2017-06-15T15:35:24Z</time></trkpt>
<trkpt lat="46.1979" lon="7.01999"><ele>473</ele><time>2017-06-15T15:35:28Z</time></trkpt>
<trkpt lat="46.19797" lon="7.01992"><ele>472.4</ele><time>2017-06-15T15:35:29Z</time></trkpt>
<trkpt lat="46.19804" lon="7.01984"><ele>471.8</ele><time>2017-06-15T15:35:30Z</time></trkpt>
<trkpt lat="46.19819" lon="7.01969"><ele>470.2</ele><time>2017-06-15T15:35:32Z</time></trkpt>
<trkpt lat="46.19834" lon="7.01954"><ele>468.8</ele><time>2017-06-15T15:35:34Z</time></trkpt>
<trkpt lat="46.19849" lon="7.01938"><ele>467.2</ele><time>2017-06-15T15:35:36Z</time></trkpt>
<trkpt lat="46.19865" lon="7.01922"><ele>465.6</ele><time>2017-06-15T15:35:38Z</time></trkpt>
<trkpt lat="46.19873" lon="7.01914"><ele>464.8</ele><time>2017-06-15T15:35:39Z</time></trkpt>
<trkpt lat="46.19881" lon="7.01906"><ele>464</ele><time>2017-06-15T15:35:40Z</time></trkpt>
<trkpt lat="46.1989" lon="7.01898"><ele>463.2</ele><time>2017-06-15T15:35:41Z</time></trkpt>
<trkpt lat="46.199" lon="7.01892"><ele>462.6</ele><time>2017-06-15T15:35:42Z</time></trkpt>
<trkpt lat="46.1991" lon="7.01886"><ele>461.8</ele><time>2017-06-15T15:35:43Z</time></trkpt>
<trkpt lat="46.19918" lon="7.01877"><ele>461</ele><time>2017-06-15T15:35:44Z</time></trkpt>
<trkpt lat="46.19932" lon="7.01857"><ele>459.6</ele><time>2017-06-15T15:35:46Z</time></trkpt>
<trkpt lat="46.19937" lon="7.01844"><ele>459.2</ele><time>2017-06-15T15:35:47Z</time></trkpt>
<trkpt lat="46.19941" lon="7.01832"><ele>459</ele><time>2017-06-15T15:35:48Z</time></trkpt>
<trkpt lat="46.19948" lon="7.01806"><ele>458.6</ele><time>2017-06-15T15:35:50Z</time></trkpt>
<trkpt lat="46.19953" lon="7.01782"><ele>458.2</ele><time>2017-06-15T15:35:52Z</time></trkpt>
<trkpt lat="46.19958" lon="7.01758"><ele>457.8</ele><time>2017-06-15T15:35:54Z</time></trkpt>
<trkpt lat="46.19962" lon="7.01734"><ele>457.6</ele><time>2017-06-15T15:35:56Z</time></trkpt>
<trkpt lat="46.19968" lon="7.0171"><ele>457.2</ele><time>2017-06-15T15:35:58Z</time></trkpt>
<trkpt lat="46.19973" lon="7.01686"><ele>456.8</ele><time>2017-06-15T15:36:00Z</time></trkpt>
<trkpt lat="46.19978" lon="7.01662"><ele>456.4</ele><time>2017-06-15T15:36:02Z</time></trkpt>
<trkpt lat="46.19983" lon="7.01637"><ele>456</ele><time>2017-06-15T15:36:04Z</time></trkpt>
<trkpt lat="46.19989" lon="7.01613"><ele>455.8</ele><time>2017-06-15T15:36:06Z</time></trkpt>
<trkpt lat="46.1999" lon="7.01602"><ele>455.6</ele><time>2017-06-15T15:36:07Z</time></trkpt>
<trkpt lat="46.19991" lon="7.0159"><ele>455.4</ele><time>2017-06-15T15:36:08Z</time></trkpt>
<trkpt lat="46.19991" lon="7.01579"><ele>455.2</ele><time>2017-06-15T15:36:09Z</time></trkpt>
<trkpt lat="46.19993" lon="7.01567"><ele>455</ele><time>2017-06-15T15:36:10Z</time></trkpt>
<trkpt lat="46.20003" lon="7.01543"><ele>454.8</ele><time>2017-06-15T15:36:12Z</time></trkpt>
<trkpt lat="46.20008" lon="7.01518"><ele>454.6</ele><time>2017-06-15T15:36:14Z</time></trkpt>
<trkpt lat="46.20016" lon="7.01496"><ele>454.4</ele><time>2017-06-15T15:36:16Z</time></trkpt>
<trkpt lat="46.20023" lon="7.01475"><ele>454</ele><time>2017-06-15T15:36:18Z</time></trkpt>
<trkpt lat="46.20031" lon="7.01453"><ele>453.8</ele><time>2017-06-15T15:36:20Z</time></trkpt>
<trkpt lat="46.20038" lon="7.0143"><ele>453.6</ele><time>2017-06-15T15:36:22Z</time></trkpt>
<trkpt lat="46.20046" lon="7.01408"><ele>453.2</ele><time>2017-06-15T15:36:24Z</time></trkpt>
<trkpt lat="46.20054" lon="7.01386"><ele>453</ele><time>2017-06-15T15:36:26Z</time></trkpt>
<trkpt lat="46.20062" lon="7.01365"><ele>452.8</ele><time>2017-06-15T15:36:28Z</time></trkpt>
<trkpt lat="46.20071" lon="7.01343"><ele>452.6</ele><time>2017-06-15T15:36:30Z</time></trkpt>
<trkpt lat="46.20075" lon="7.01333"><ele>452.4</ele><time>2017-06-15T15:36:31Z</time></trkpt>
<trkpt lat="46.2008" lon="7.01322"><ele>452.2</ele><time>2017-06-15T15:36:32Z</time></trkpt>
<trkpt lat="46.20089" lon="7.01303"><ele>451.8</ele><time>2017-06-15T15:36:34Z</time></trkpt>
<trkpt lat="46.20099" lon="7.01284"><ele>451.4</ele><time>2017-06-15T15:36:36Z</time></trkpt>
<trkpt lat="46.20108" lon="7.01265"><ele>450.8</ele><time>2017-06-15T15:36:38Z</time></trkpt>
<trkpt lat="46.20118" lon="7.01245"><ele>450.2</ele><time>2017-06-15T15:36:40Z</time></trkpt>
<trkpt lat="46.20127" lon="7.01225"><ele>449.6</ele><time>2017-06-15T15:36:42Z</time></trkpt>
<trkpt lat="46.20137" lon="7.01206"><ele>449</ele><time>2017-06-15T15:36:44Z</time></trkpt>
<trkpt lat="46.20149" lon="7.01188"><ele>448.2</ele><time>2017-06-15T15:36:46Z</time></trkpt>
<trkpt lat="46.2016" lon="7.0117"><ele>447.6</ele><time>2017-06-15T15:36:48Z</time></trkpt>
<trkpt lat="46.2017" lon="7.01149"><ele>447</ele><time>2017-06-15T15:36:50Z</time></trkpt>
<trkpt lat="46.20181" lon="7.01129"><ele>446.4</ele><time>2017-06-15T15:36:52Z</time></trkpt>
<trkpt lat="46.20186" lon="7.01119"><ele>446</ele><time>2017-06-15T15:36:53Z</time></trkpt>
<trkpt lat="46.20193" lon="7.0111"><ele>445.8</ele><time>2017-06-15T15:36:54Z</time></trkpt>
<trkpt lat="46.20207" lon="7.01092"><ele>445.2</ele><time>2017-06-15T15:36:56Z</time></trkpt>
<trkpt lat="46.20221" lon="7.01074"><ele>444.4</ele><time>2017-06-15T15:36:58Z</time></trkpt>
<trkpt lat="46.20234" lon="7.01056"><ele>443.8</ele><time>2017-06-15T15:37:00Z</time></trkpt>
<trkpt lat="46.20247" lon="7.01037"><ele>443.2</ele><time>2017-06-15T15:37:02Z</time></trkpt>
<trkpt lat="46.20254" lon="7.01028"><ele>443</ele><time>2017-06-15T15:37:03Z</time></trkpt>
<trkpt lat="46.20261" lon="7.0102"><ele>442.6</ele><time>2017-06-15T15:37:04Z</time></trkpt>
<trkpt lat="46.20275" lon="7.01004"><ele>442</ele><time>2017-06-15T15:37:06Z</time></trkpt>
<trkpt lat="46.20291" lon="7.00989"><ele>441.4</ele><time>2017-06-15T15:37:08Z</time></trkpt>
<trkpt lat="46.203" lon="7.00984"><ele>441.2</ele><time>2017-06-15T15:37:09Z</time></trkpt>
<trkpt lat="46.20308" lon="7.00977"><ele>440.8</ele><time>2017-06-15T15:37:10Z</time></trkpt>
<trkpt lat="46.20324" lon="7.00967"><ele>440.4</ele><time>2017-06-15T15:37:12Z</time></trkpt>
<trkpt lat="46.20341" lon="7.00957"><ele>439.8</ele><time>2017-06-15T15:37:14Z</time></trkpt>
<trkpt lat="46.20349" lon="7.00952"><ele>439.6</ele><time>2017-06-15T15:37:15Z</time></trkpt>
<trkpt lat="46.20357" lon="7.00947"><ele>439.4</ele><time>2017-06-15T15:37:16Z</time></trkpt>
<trkpt lat="46.2037" lon="7.00936"><ele>439.4</ele><time>2017-06-15T15:37:18Z</time></trkpt>
<trkpt lat="46.20384" lon="7.00925"><ele>439.2</ele><time>2017-06-15T15:37:20Z</time></trkpt>
<trkpt lat="46.20391" lon="7.0092"><ele>439.2</ele><time>2017-06-15T15:37:21Z</time></trkpt>
<trkpt lat="46.20397" lon="7.00915"><ele>439.2</ele><time>2017-06-15T15:37:22Z</time></trkpt>
<trkpt lat="46.20408" lon="7.00905"><ele>439</ele><time>2017-06-15T15:37:24Z</time></trkpt>
<trkpt lat="46.2042" lon="7.00895"><ele>439</ele><time>2017-06-15T15:37:26Z</time></trkpt>
<trkpt lat="46.20431" lon="7.00885"><ele>439</ele><time>2017-06-15T15:37:28Z</time></trkpt>
<trkpt lat="46.20437" lon="7.0088"><ele>438.8</ele><time>2017-06-15T15:37:29Z</time></trkpt>
<trkpt lat="46.20442" lon="7.00876"><ele>438.8</ele><time>2017-06-15T15:37:30Z</time></trkpt>
<trkpt lat="46.20452" lon="7.00867"><ele>438.8</ele><time>2017-06-15T15:37:32Z</time></trkpt>
<trkpt lat="46.20462" lon="7.00857"><ele>439</ele><time>2017-06-15T15:37:34Z</time></trkpt>
<trkpt lat="46.20472" lon="7.00847"><ele>439</ele><time>2017-06-15T15:37:36Z</time></trkpt>
<trkpt lat="46.20482" lon="7.00838"><ele>439.2</ele><time>2017-06-15T15:37:38Z</time></trkpt>
<trkpt lat="46.20493" lon="7.0083"><ele>439.4</ele><time>2017-06-15T15:37:40Z</time></trkpt>
<trkpt lat="46.20505" lon="7.00822"><ele>439.4</ele><time>2017-06-15T15:37:42Z</time></trkpt>
<trkpt lat="46.20516" lon="7.00814"><ele>439.6</ele><time>2017-06-15T15:37:44Z</time></trkpt>
<trkpt lat="46.20521" lon="7.0081"><ele>439.6</ele><time>2017-06-15T15:37:45Z</time></trkpt>
<trkpt lat="46.20527" lon="7.00805"><ele>439.8</ele><time>2017-06-15T15:37:46Z</time></trkpt>
<trkpt lat="46.20538" lon="7.00797"><ele>439.8</ele><time>2017-06-15T15:37:48Z</time></trkpt>
<trkpt lat="46.2055" lon="7.00791"><ele>440</ele><time>2017-06-15T15:37:50Z</time></trkpt>
<trkpt lat="46.2056" lon="7.00783"><ele>440.2</ele><time>2017-06-15T15:37:52Z</time></trkpt>
<trkpt lat="46.2057" lon="7.00775"><ele>440.2</ele><time>2017-06-15T15:37:54Z</time></trkpt>
<trkpt lat="46.2058" lon="7.00767"><ele>440.4</ele><time>2017-06-15T15:37:56Z</time></trkpt>
<trkpt lat="46.20589" lon="7.00761"><ele>440.6</ele><time>2017-06-15T15:37:58Z</time></trkpt>
<trkpt lat="46.20601" lon="7.00752"><ele>440.8</ele><time>2017-06-15T15:38:01Z</time></trkpt>
<trkpt lat="46.20606" lon="7.0075"><ele>440.8</ele><time>2017-06-15T15:38:02Z</time></trkpt>
<trkpt lat="46.20614" lon="7.00744"><ele>441</ele><time>2017-06-15T15:38:04Z</time></trkpt>
<trkpt lat="46.20622" lon="7.00738"><ele>441</ele><time>2017-06-15T15:38:06Z</time></trkpt>
<trkpt lat="46.2063" lon="7.00732"><ele>441.2</ele><time>2017-06-15T15:38:08Z</time></trkpt>
<trkpt lat="46.20637" lon="7.00726"><ele>441.4</ele><time>2017-06-15T15:38:10Z</time></trkpt>
<trkpt lat="46.20641" lon="7.00723"><ele>441.4</ele><time>2017-06-15T15:38:11Z</time></trkpt>
<trkpt lat="46.20645" lon="7.00721"><ele>441.4</ele><time>2017-06-15T15:38:12Z</time></trkpt>
<trkpt lat="46.20653" lon="7.00717"><ele>441.6</ele><time>2017-06-15T15:38:14Z</time></trkpt>
<trkpt lat="46.20661" lon="7.00713"><ele>441.8</ele><time>2017-06-15T15:38:16Z</time></trkpt>
<trkpt lat="46.20669" lon="7.00709"><ele>441.8</ele><time>2017-06-15T15:38:18Z</time></trkpt>
<trkpt lat="46.20677" lon="7.00704"><ele>442</ele><time>2017-06-15T15:38:20Z</time></trkpt>
<trkpt lat="46.20681" lon="7.00702"><ele>442</ele><time>2017-06-15T15:38:21Z</time></trkpt>
<trkpt lat="46.20685" lon="7.007"><ele>442.2</ele><time>2017-06-15T15:38:22Z</time></trkpt>
<trkpt lat="46.20693" lon="7.00694"><ele>442.4</ele><time>2017-06-15T15:38:24Z</time></trkpt>
<trkpt lat="46.207" lon="7.00689"><ele>442.8</ele><time>2017-06-15T15:38:26Z</time></trkpt>
<trkpt lat="46.20708" lon="7.00683"><ele>443</ele><time>2017-06-15T15:38:28Z</time></trkpt>
<trkpt lat="46.20715" lon="7.00678"><ele>443.2</ele><time>2017-06-15T15:38:30Z</time></trkpt>
<trkpt lat="46.20723" lon="7.00672"><ele>443.6</ele><time>2017-06-15T15:38:32Z</time></trkpt>
<trkpt lat="46.20726" lon="7.00669"><ele>443.6</ele><time>2017-06-15T15:38:33Z</time></trkpt>
<trkpt lat="46.2073" lon="7.00665"><ele>443.6</ele><time>2017-06-15T15:38:34Z</time></trkpt>
<trkpt lat="46.20737" lon="7.00658"><ele>443.8</ele><time>2017-06-15T15:38:36Z</time></trkpt>
<trkpt lat="46.20745" lon="7.00651"><ele>443.8</ele><time>2017-06-15T15:38:38Z</time></trkpt>
<trkpt lat="46.20756" lon="7.0064"><ele>443.8</ele><time>2017-06-15T15:38:41Z</time></trkpt>
<trkpt lat="46.20759" lon="7.00636"><ele>443.8</ele><time>2017-06-15T15:38:42Z</time></trkpt>
<trkpt lat="46.20767" lon="7.00629"><ele>443.6</ele><time>2017-06-15T15:38:44Z</time></trkpt>
<trkpt lat="46.20774" lon="7.00622"><ele>443.6</ele><time>2017-06-15T15:38:46Z</time></trkpt>
<trkpt lat="46.20781" lon="7.00615"><ele>443.6</ele><time>2017-06-15T15:38:48Z</time></trkpt>
<trkpt lat="46.20785" lon="7.00611"><ele>443.6</ele><time>2017-06-15T15:38:49Z</time></trkpt>
<trkpt lat="46.20788" lon="7.00607"><ele>443.6</ele><time>2017-06-15T15:38:50Z</time></trkpt>
<trkpt lat="46.20795" lon="7.00599"><ele>443.4</ele><time>2017-06-15T15:38:52Z</time></trkpt>
<trkpt lat="46.20801" lon="7.00591"><ele>443.4</ele><time>2017-06-15T15:38:54Z</time></trkpt>
<trkpt lat="46.20808" lon="7.00584"><ele>443.4</ele><time>2017-06-15T15:38:56Z</time></trkpt>
<trkpt lat="46.20812" lon="7.00581"><ele>443.4</ele><time>2017-06-15T15:38:57Z</time></trkpt>
<trkpt lat="46.20817" lon="7.00582"><ele>443.4</ele><time>2017-06-15T15:38:58Z</time></trkpt>
<trkpt lat="46.20826" lon="7.00583"><ele>443.2</ele><time>2017-06-15T15:39:00Z</time></trkpt>
<trkpt lat="46.2083" lon="7.00585"><ele>443.2</ele><time>2017-06-15T15:39:01Z</time></trkpt>
<trkpt lat="46.20834" lon="7.0059"><ele>443.2</ele><time>2017-06-15T15:39:02Z</time></trkpt>
<trkpt lat="46.20841" lon="7.00601"><ele>443.2</ele><time>2017-06-15T15:39:04Z</time></trkpt>
<trkpt lat="46.20848" lon="7.00611"><ele>443.2</ele><time>2017-06-15T15:39:06Z</time></trkpt>
<trkpt lat="46.20854" lon="7.00622"><ele>443.2</ele><time>2017-06-15T15:39:08Z</time></trkpt>
<trkpt lat="46.20855" lon="7.00632"><ele>443</ele><time>2017-06-15T15:39:10Z</time></trkpt>
<trkpt lat="46.20855" lon="7.00637"><ele>443</ele><time>2017-06-15T15:39:11Z</time></trkpt>
<trkpt lat="46.20853" lon="7.00643"><ele>443</ele><time>2017-06-15T15:39:12Z</time></trkpt>
<trkpt lat="46.20851" lon="7.00653"><ele>443</ele><time>2017-06-15T15:39:14Z</time></trkpt>
<trkpt lat="46.20849" lon="7.00664"><ele>443</ele><time>2017-06-15T15:39:16Z</time></trkpt>
<trkpt lat="46.20851" lon="7.00678"><ele>442.8</ele><time>2017-06-15T15:39:18Z</time></trkpt>
<trkpt lat="46.2086" lon="7.00686"><ele>442.8</ele><time>2017-06-15T15:39:20Z</time></trkpt>
<trkpt lat="46.20871" lon="7.00686"><ele>442.8</ele><time>2017-06-15T15:39:22Z</time></trkpt>
<trkpt lat="46.20875" lon="7.00685"><ele>442.8</ele><time>2017-06-15T15:39:23Z</time></trkpt>
<trkpt lat="46.20879" lon="7.0068"><ele>442.8</ele><time>2017-06-15T15:39:24Z</time></trkpt>
<trkpt lat="46.20886" lon="7.0067"><ele>442.6</ele><time>2017-06-15T15:39:26Z</time></trkpt>
<trkpt lat="46.20893" lon="7.00662"><ele>442.6</ele><time>2017-06-15T15:39:28Z</time></trkpt>
<trkpt lat="46.20903" lon="7.00658"><ele>442.6</ele><time>2017-06-15T15:39:30Z</time></trkpt>
<trkpt lat="46.20914" lon="7.00654"><ele>442.6</ele><time>2017-06-15T15:39:32Z</time></trkpt>
<trkpt lat="46.20924" lon="7.0065"><ele>442.6</ele><time>2017-06-15T15:39:34Z</time></trkpt>
<trkpt lat="46.20934" lon="7.00646"><ele>442.4</ele><time>2017-06-15T15:39:36Z</time></trkpt>
<trkpt lat="46.20939" lon="7.00643"><ele>442.4</ele><time>2017-06-15T15:39:37Z</time></trkpt>
<trkpt lat="46.20946" lon="7.00641"><ele>442.4</ele><time>2017-06-15T15:39:38Z</time></trkpt>
<trkpt lat="46.20958" lon="7.00636"><ele>442.4</ele><time>2017-06-15T15:39:40Z</time></trkpt>
<trkpt lat="46.20971" lon="7.00632"><ele>442.4</ele><time>2017-06-15T15:39:42Z</time></trkpt>
<trkpt lat="46.20984" lon="7.00627"><ele>442.2</ele><time>2017-06-15T15:39:44Z</time></trkpt>
<trkpt lat="46.20997" lon="7.00622"><ele>442.2</ele><time>2017-06-15T15:39:46Z</time></trkpt>
<trkpt lat="46.2101" lon="7.00618"><ele>442.2</ele><time>2017-06-15T15:39:48Z</time></trkpt>
<trkpt lat="46.21023" lon="7.00613"><ele>442.2</ele><time>2017-06-15T15:39:50Z</time></trkpt>
<trkpt lat="46.21027" lon="7.00611"><ele>442.2</ele><time>2017-06-15T15:39:51Z</time></trkpt>
<trkpt lat="46.21028" lon="7.0061"><ele>442</ele><time>2017-06-15T15:39:52Z</time></trkpt>
<trkpt lat="46.21042" lon="7.00606"><ele>442</ele><time>2017-06-15T15:39:54Z</time></trkpt>
<trkpt lat="46.21056" lon="7.00602"><ele>442</ele><time>2017-06-15T15:39:56Z</time></trkpt>
<trkpt lat="46.21063" lon="7.00601"><ele>441.8</ele><time>2017-06-15T15:39:57Z</time></trkpt>
<trkpt lat="46.21071" lon="7.006"><ele>441.6</ele><time>2017-06-15T15:39:58Z</time></trkpt>
<trkpt lat="46.21095" lon="7.00597"><ele>441</ele><time>2017-06-15T15:40:01Z</time></trkpt>
<trkpt lat="46.21103" lon="7.00596"><ele>440.6</ele><time>2017-06-15T15:40:02Z</time></trkpt>
<trkpt lat="46.2111" lon="7.00595"><ele>440.4</ele><time>2017-06-15T15:40:03Z</time></trkpt>
<trkpt lat="46.21118" lon="7.00594"><ele>440.2</ele><time>2017-06-15T15:40:04Z</time></trkpt>
<trkpt lat="46.21132" lon="7.00593"><ele>439.8</ele><time>2017-06-15T15:40:06Z</time></trkpt>
<trkpt lat="46.21147" lon="7.00591"><ele>439.4</ele><time>2017-06-15T15:40:08Z</time></trkpt>
<trkpt lat="46.21161" lon="7.0059"><ele>439</ele><time>2017-06-15T15:40:10Z</time></trkpt>
<trkpt lat="46.21174" lon="7.00589"><ele>438.6</ele><time>2017-06-15T15:40:12Z</time></trkpt>
<trkpt lat="46.21186" lon="7.00588"><ele>438.6</ele><time>2017-06-15T15:40:14Z</time></trkpt>
<trkpt lat="46.21191" lon="7.00585"><ele>438.4</ele><time>2017-06-15T15:40:15Z</time></trkpt>
<trkpt lat="46.21196" lon="7.00579"><ele>438.4</ele><time>2017-06-15T15:40:16Z</time></trkpt>
<trkpt lat="46.21205" lon="7.00567"><ele>438.2</ele><time>2017-06-15T15:40:18Z</time></trkpt>
<trkpt lat="46.2121" lon="7.00563"><ele>438.2</ele><time>2017-06-15T15:40:19Z</time></trkpt>
<trkpt lat="46.21216" lon="7.00561"><ele>438.2</ele><time>2017-06-15T15:40:20Z</time></trkpt>
<trkpt lat="46.21227" lon="7.00558"><ele>438</ele><time>2017-06-15T15:40:22Z</time></trkpt>
<trkpt lat="46.21238" lon="7.00555"><ele>437.8</ele><time>2017-06-15T15:40:24Z</time></trkpt>
<trkpt lat="46.21249" lon="7.00552"><ele>438</ele><time>2017-06-15T15:40:26Z</time></trkpt>
<trkpt lat="46.21261" lon="7.0055"><ele>438</ele><time>2017-06-15T15:40:28Z</time></trkpt>
<trkpt lat="46.21274" lon="7.00547"><ele>438</ele><time>2017-06-15T15:40:30Z</time></trkpt>
<trkpt lat="46.21286" lon="7.00544"><ele>438</ele><time>2017-06-15T15:40:32Z</time></trkpt>
<trkpt lat="46.21299" lon="7.00541"><ele>438</ele><time>2017-06-15T15:40:34Z</time></trkpt>
<trkpt lat="46.21305" lon="7.00539"><ele>438</ele><time>2017-06-15T15:40:35Z</time></trkpt>
<trkpt lat="46.21311" lon="7.00537"><ele>438</ele><time>2017-06-15T15:40:36Z</time></trkpt>
<trkpt lat="46.21323" lon="7.00534"><ele>438</ele><time>2017-06-15T15:40:38Z</time></trkpt>
<trkpt lat="46.21335" lon="7.0053"><ele>438</ele><time>2017-06-15T15:40:40Z</time></trkpt>
<trkpt lat="46.21347" lon="7.00527"><ele>438</ele><time>2017-06-15T15:40:42Z</time></trkpt>
<trkpt lat="46.21353" lon="7.00525"><ele>438</ele><time>2017-06-15T15:40:43Z</time></trkpt>
<trkpt lat="46.21358" lon="7.00524"><ele>438</ele><time>2017-06-15T15:40:44Z</time></trkpt>
<trkpt lat="46.21369" lon="7.0052"><ele>438.2</ele><time>2017-06-15T15:40:46Z</time></trkpt>
<trkpt lat="46.2138" lon="7.00517"><ele>438.2</ele><time>2017-06-15T15:40:48Z</time></trkpt>
<trkpt lat="46.21391" lon="7.00514"><ele>438.2</ele><time>2017-06-15T15:40:50Z</time></trkpt>
<trkpt lat="46.21397" lon="7.00512"><ele>438.2</ele><time>2017-06-15T15:40:51Z</time></trkpt>
<trkpt lat="46.21403" lon="7.0051"><ele>438.2</ele><time>2017-06-15T15:40:52Z</time></trkpt>
<trkpt lat="46.21415" lon="7.00505"><ele>438.2</ele><time>2017-06-15T15:40:54Z</time></trkpt>
<trkpt lat="46.21427" lon="7.00501"><ele>438.2</ele><time>2017-06-15T15:40:56Z</time></trkpt>
<trkpt lat="46.21439" lon="7.00497"><ele>438.2</ele><time>2017-06-15T15:40:58Z</time></trkpt>
<trkpt lat="46.21445" lon="7.00495"><ele>438.2</ele><time>2017-06-15T15:40:59Z</time></trkpt>
<trkpt lat="46.21451" lon="7.00493"><ele>438.2</ele><time>2017-06-15T15:41:00Z</time></trkpt>
<trkpt lat="46.21462" lon="7.0049"><ele>438.2</ele><time>2017-06-15T15:41:02Z</time></trkpt>
<trkpt lat="46.21473" lon="7.00487"><ele>438.2</ele><time>2017-06-15T15:41:04Z</time></trkpt>
<trkpt lat="46.21485" lon="7.00485"><ele>438.2</ele><time>2017-06-15T15:41:06Z</time></trkpt>
<trkpt lat="46.2149" lon="7.00483"><ele>438.4</ele><time>2017-06-15T15:41:07Z</time></trkpt>
<trkpt lat="46.21496" lon="7.00482"><ele>438.4</ele><time>2017-06-15T15:41:08Z</time></trkpt>
<trkpt lat="46.21506" lon="7.00478"><ele>438.4</ele><time>2017-06-15T15:41:10Z</time></trkpt>
<trkpt lat="46.21517" lon="7.00475"><ele>438.4</ele><time>2017-06-15T15:41:12Z</time></trkpt>
<trkpt lat="46.21527" lon="7.00472"><ele>438.4</ele><time>2017-06-15T15:41:14Z</time></trkpt>
<trkpt lat="46.21537" lon="7.00469"><ele>438.4</ele><time>2017-06-15T15:41:16Z</time></trkpt>
<trkpt lat="46.21545" lon="7.00468"><ele>438.4</ele><time>2017-06-15T15:41:18Z</time></trkpt>
<trkpt lat="46.21553" lon="7.00466"><ele>438.4</ele><time>2017-06-15T15:41:20Z</time></trkpt>
<trkpt lat="46.21561" lon="7.00464"><ele>438.4</ele><time>2017-06-15T15:41:22Z</time></trkpt>
<trkpt lat="46.21569" lon="7.00462"><ele>438.4</ele><time>2017-06-15T15:41:24Z</time></trkpt>
<trkpt lat="46.21586" lon="7.00458"><ele>438.6</ele><time>2017-06-15T15:41:28Z</time></trkpt>
<trkpt lat="46.21606" lon="7.00453"><ele>438.6</ele><time>2017-06-15T15:41:30Z</time></trkpt>
<trkpt lat="46.21625" lon="7.00448"><ele>438.6</ele><time>2017-06-15T15:41:32Z</time></trkpt>
<trkpt lat="46.21634" lon="7.00447"><ele>438.6</ele><time>2017-06-15T15:41:33Z</time></trkpt>
<trkpt lat="46.21639" lon="7.00447"><ele>438.6</ele><time>2017-06-15T15:41:34Z</time></trkpt>
<trkpt lat="46.21651" lon="7.00447"><ele>438.6</ele><time>2017-06-15T15:41:36Z</time></trkpt>
<trkpt lat="46.21663" lon="7.00447"><ele>438.6</ele><time>2017-06-15T15:41:38Z</time></trkpt>
<trkpt lat="46.21673" lon="7.00445"><ele>438.6</ele><time>2017-06-15T15:41:40Z</time></trkpt>
<trkpt lat="46.21677" lon="7.0044"><ele>438.6</ele><time>2017-06-15T15:41:42Z</time></trkpt>
<trkpt lat="46.21685" lon="7.00438"><ele>438.6</ele><time>2017-06-15T15:41:44Z</time></trkpt>
<trkpt lat="46.21694" lon="7.00436"><ele>438.6</ele><time>2017-06-15T15:41:46Z</time></trkpt>
<trkpt lat="46.21698" lon="7.00436"><ele>438.6</ele><time>2017-06-15T15:41:47Z</time></trkpt>
<trkpt lat="46.21702" lon="7.00437"><ele>438.8</ele><time>2017-06-15T15:41:48Z</time></trkpt>
<trkpt lat="46.2171" lon="7.00439"><ele>438.8</ele><time>2017-06-15T15:41:50Z</time></trkpt>
<trkpt lat="46.21718" lon="7.00441"><ele>438.8</ele><time>2017-06-15T15:41:52Z</time></trkpt>
<trkpt lat="46.21726" lon="7.00443"><ele>438.8</ele><time>2017-06-15T15:41:54Z</time></trkpt>
<trkpt lat="46.21734" lon="7.00445"><ele>438.8</ele><time>2017-06-15T15:41:56Z</time></trkpt>
<trkpt lat="46.21742" lon="7.00447"><ele>438.8</ele><time>2017-06-15T15:41:58Z</time></trkpt>
<trkpt lat="46.21745" lon="7.00447"><ele>438.8</ele><time>2017-06-15T15:41:59Z</time></trkpt>
<trkpt lat="46.21749" lon="7.00447"><ele>438.8</ele><time>2017-06-15T15:42:00Z</time></trkpt>
<trkpt lat="46.21755" lon="7.00445"><ele>438.8</ele><time>2017-06-15T15:42:02Z</time></trkpt>
<trkpt lat="46.21762" lon="7.00444"><ele>438.8</ele><time>2017-06-15T15:42:04Z</time></trkpt>
<trkpt lat="46.21769" lon="7.00445"><ele>438.8</ele><time>2017-06-15T15:42:06Z</time></trkpt>
<trkpt lat="46.21776" lon="7.00446"><ele>439</ele><time>2017-06-15T15:42:08Z</time></trkpt>
<trkpt lat="46.21783" lon="7.00448"><ele>439</ele><time>2017-06-15T15:42:10Z</time></trkpt>
<trkpt lat="46.21791" lon="7.00449"><ele>439</ele><time>2017-06-15T15:42:12Z</time></trkpt>
<trkpt lat="46.21798" lon="7.0045"><ele>439</ele><time>2017-06-15T15:42:14Z</time></trkpt>
<trkpt lat="46.21805" lon="7.00451"><ele>439</ele><time>2017-06-15T15:42:16Z</time></trkpt>
<trkpt lat="46.21808" lon="7.00452"><ele>439</ele><time>2017-06-15T15:42:17Z</time></trkpt>
<trkpt lat="46.21811" lon="7.00453"><ele>439</ele><time>2017-06-15T15:42:18Z</time></trkpt>
<trkpt lat="46.21817" lon="7.00454"><ele>439</ele><time>2017-06-15T15:42:20Z</time></trkpt>
<trkpt lat="46.21823" lon="7.00456"><ele>439</ele><time>2017-06-15T15:42:22Z</time></trkpt>
<trkpt lat="46.21829" lon="7.00457"><ele>439</ele><time>2017-06-15T15:42:24Z</time></trkpt>
<trkpt lat="46.21836" lon="7.00459"><ele>439</ele><time>2017-06-15T15:42:26Z</time></trkpt>
<trkpt lat="46.21842" lon="7.0046"><ele>439</ele><time>2017-06-15T15:42:28Z</time></trkpt>
<trkpt lat="46.21848" lon="7.00462"><ele>439.2</ele><time>2017-06-15T15:42:30Z</time></trkpt>
<trkpt lat="46.21854" lon="7.00463"><ele>439.2</ele><time>2017-06-15T15:42:32Z</time></trkpt>
<trkpt lat="46.21861" lon="7.00461"><ele>439.2</ele><time>2017-06-15T15:42:34Z</time></trkpt>
<trkpt lat="46.21868" lon="7.0046"><ele>439.2</ele><time>2017-06-15T15:42:36Z</time></trkpt>
<trkpt lat="46.21875" lon="7.00458"><ele>439.2</ele><time>2017-06-15T15:42:38Z</time></trkpt>
<trkpt lat="46.21882" lon="7.00457"><ele>439.2</ele><time>2017-06-15T15:42:40Z</time></trkpt>
<trkpt lat="46.21889" lon="7.00455"><ele>439.2</ele><time>2017-06-15T15:42:42Z</time></trkpt>
<trkpt lat="46.21893" lon="7.00455"><ele>439.2</ele><time>2017-06-15T15:42:43Z</time></trkpt>
<trkpt lat="46.21897" lon="7.00456"><ele>439.2</ele><time>2017-06-15T15:42:44Z</time></trkpt>
<trkpt lat="46.21905" lon="7.00458"><ele>439.2</ele><time>2017-06-15T15:42:46Z</time></trkpt>
<trkpt lat="46.21913" lon="7.0046"><ele>439.2</ele><time>2017-06-15T15:42:48Z</time></trkpt>
<trkpt lat="46.21921" lon="7.00462"><ele>439.4</ele><time>2017-06-15T15:42:50Z</time></trkpt>
<trkpt lat="46.21931" lon="7.00464"><ele>439.4</ele><time>2017-06-15T15:42:52Z</time></trkpt>
<trkpt lat="46.21944" lon="7.00463"><ele>439.4</ele><time>2017-06-15T15:42:54Z</time></trkpt>
<trkpt lat="46.21947" lon="7.00465"><ele>439.4</ele><time>2017-06-15T15:42:55Z</time></trkpt>
<trkpt lat="46.21951" lon="7.00464"><ele>439.4</ele><time>2017-06-15T15:42:56Z</time></trkpt>
<trkpt lat="46.21957" lon="7.00462"><ele>439.4</ele><time>2017-06-15T15:42:58Z</time></trkpt>
<trkpt lat="46.21963" lon="7.00462"><ele>439.4</ele><time>2017-06-15T15:43:00Z</time></trkpt>
<trkpt lat="46.2197" lon="7.00462"><ele>439.4</ele><time>2017-06-15T15:43:02Z</time></trkpt>
<trkpt lat="46.21977" lon="7.00462"><ele>439.4</ele><time>2017-06-15T15:43:04Z</time></trkpt>
<trkpt lat="46.21984" lon="7.00462"><ele>439.4</ele><time>2017-06-15T15:43:06Z</time></trkpt>
<trkpt lat="46.21992" lon="7.00462"><ele>439.4</ele><time>2017-06-15T15:43:08Z</time></trkpt>
<trkpt lat="46.21999" lon="7.00462"><ele>439.6</ele><time>2017-06-15T15:43:10Z</time></trkpt>
<trkpt lat="46.22006" lon="7.00462"><ele>439.6</ele><time>2017-06-15T15:43:12Z</time></trkpt>
<trkpt lat="46.2201" lon="7.00461"><ele>439.6</ele><time>2017-06-15T15:43:13Z</time></trkpt>
<trkpt lat="46.22014" lon="7.00461"><ele>439.6</ele><time>2017-06-15T15:43:14Z</time></trkpt>
<trkpt lat="46.22024" lon="7.00459"><ele>439.6</ele><time>2017-06-15T15:43:16Z</time></trkpt>
<trkpt lat="46.22033" lon="7.00457"><ele>439.6</ele><time>2017-06-15T15:43:18Z</time></trkpt>
<trkpt lat="46.22043" lon="7.00455"><ele>439.6</ele><time>2017-06-15T15:43:20Z</time></trkpt>
<trkpt lat="46.22055" lon="7.00454"><ele>439.6</ele><time>2017-06-15T15:43:22Z</time></trkpt>
<trkpt lat="46.22067" lon="7.00453"><ele>439.6</ele><time>2017-06-15T15:43:24Z</time></trkpt>
<trkpt lat="46.22079" lon="7.00452"><ele>439.6</ele><time>2017-06-15T15:43:26Z</time></trkpt>
<trkpt lat="46.22091" lon="7.0045"><ele>439.6</ele><time>2017-06-15T15:43:28Z</time></trkpt>
<trkpt lat="46.22104" lon="7.00446"><ele>439.6</ele><time>2017-06-15T15:43:30Z</time></trkpt>
<trkpt lat="46.22116" lon="7.00443"><ele>439.8</ele><time>2017-06-15T15:43:32Z</time></trkpt>
<trkpt lat="46.2213" lon="7.00444"><ele>439.8</ele><time>2017-06-15T15:43:34Z</time></trkpt>
<trkpt lat="46.22136" lon="7.00446"><ele>439.8</ele><time>2017-06-15T15:43:35Z</time></trkpt>
<trkpt lat="46.2214" lon="7.00447"><ele>439.8</ele><time>2017-06-15T15:43:36Z</time></trkpt>
<trkpt lat="46.22153" lon="7.00443"><ele>439.8</ele><time>2017-06-15T15:43:38Z</time></trkpt>
<trkpt lat="46.22165" lon="7.0044"><ele>439.8</ele><time>2017-06-15T15:43:40Z</time></trkpt>
<trkpt lat="46.22177" lon="7.00435"><ele>439.8</ele><time>2017-06-15T15:43:42Z</time></trkpt>
<trkpt lat="46.22187" lon="7.00427"><ele>439.8</ele><time>2017-06-15T15:43:44Z</time></trkpt>
<trkpt lat="46.22198" lon="7.0042"><ele>439.8</ele><time>2017-06-15T15:43:46Z</time></trkpt>
<trkpt lat="46.22209" lon="7.00412"><ele>439.8</ele><time>2017-06-15T15:43:48Z</time></trkpt>
<trkpt lat="46.22219" lon="7.00404"><ele>439.8</ele><time>2017-06-15T15:43:50Z</time></trkpt>
<trkpt lat="46.22228" lon="7.00397"><ele>440</ele><time>2017-06-15T15:43:52Z</time></trkpt>
<trkpt lat="46.22238" lon="7.0039"><ele>440</ele><time>2017-06-15T15:43:54Z</time></trkpt>
<trkpt lat="46.22247" lon="7.00383"><ele>440</ele><time>2017-06-15T15:43:56Z</time></trkpt>
<trkpt lat="46.22256" lon="7.00376"><ele>440</ele><time>2017-06-15T15:43:58Z</time></trkpt>
<trkpt lat="46.22265" lon="7.00369"><ele>440</ele><time>2017-06-15T15:44:00Z</time></trkpt>
<trkpt lat="46.22274" lon="7.00363"><ele>440</ele><time>2017-06-15T15:44:02Z</time></trkpt>
<trkpt lat="46.22283" lon="7.00356"><ele>440</ele><time>2017-06-15T15:44:04Z</time></trkpt>
<trkpt lat="46.22286" lon="7.00352"><ele>440</ele><time>2017-06-15T15:44:05Z</time></trkpt>
<trkpt lat="46.22287" lon="7.00349"><ele>440</ele><time>2017-06-15T15:44:06Z</time></trkpt>
<trkpt lat="46.22296" lon="7.00343"><ele>440.2</ele><time>2017-06-15T15:44:08Z</time></trkpt>
<trkpt lat="46.22304" lon="7.00336"><ele>440.4</ele><time>2017-06-15T15:44:10Z</time></trkpt>
<trkpt lat="46.22312" lon="7.0033"><ele>440.6</ele><time>2017-06-15T15:44:12Z</time></trkpt>
<trkpt lat="46.22321" lon="7.00324"><ele>440.8</ele><time>2017-06-15T15:44:14Z</time></trkpt>
<trkpt lat="46.22329" lon="7.00318"><ele>441</ele><time>2017-06-15T15:44:16Z</time></trkpt>
<trkpt lat="46.22333" lon="7.00315"><ele>441</ele><time>2017-06-15T15:44:17Z</time></trkpt>
<trkpt lat="46.22336" lon="7.00313"><ele>441.2</ele><time>2017-06-15T15:44:18Z</time></trkpt>
<trkpt lat="46.22346" lon="7.00307"><ele>441.4</ele><time>2017-06-15T15:44:21Z</time></trkpt>
<trkpt lat="46.22349" lon="7.00304"><ele>441.6</ele><time>2017-06-15T15:44:22Z</time></trkpt>
<trkpt lat="46.22357" lon="7.00294"><ele>441.6</ele><time>2017-06-15T15:44:24Z</time></trkpt>
<trkpt lat="46.22364" lon="7.00285"><ele>441.2</ele><time>2017-06-15T15:44:26Z</time></trkpt>
<trkpt lat="46.22368" lon="7.00274"><ele>441</ele><time>2017-06-15T15:44:28Z</time></trkpt>
<trkpt lat="46.22372" lon="7.00269"><ele>440.8</ele><time>2017-06-15T15:44:29Z</time></trkpt>
<trkpt lat="46.22377" lon="7.00265"><ele>440.6</ele><time>2017-06-15T15:44:30Z</time></trkpt>
<trkpt lat="46.22386" lon="7.00256"><ele>440.2</ele><time>2017-06-15T15:44:32Z</time></trkpt>
<trkpt lat="46.22396" lon="7.00247"><ele>439.8</ele><time>2017-06-15T15:44:34Z</time></trkpt>
<trkpt lat="46.22401" lon="7.00242"><ele>439.6</ele><time>2017-06-15T15:44:35Z</time></trkpt>
<trkpt lat="46.22408" lon="7.00238"><ele>439.4</ele><time>2017-06-15T15:44:36Z</time></trkpt>
<trkpt lat="46.2242" lon="7.00228"><ele>439.2</ele><time>2017-06-15T15:44:38Z</time></trkpt>
<trkpt lat="46.22433" lon="7.0022"><ele>438.8</ele><time>2017-06-15T15:44:40Z</time></trkpt>
<trkpt lat="46.22441" lon="7.00217"><ele>438.6</ele><time>2017-06-15T15:44:41Z</time></trkpt>
<trkpt lat="46.22448" lon="7.00215"><ele>438.6</ele><time>2017-06-15T15:44:42Z</time></trkpt>
<trkpt lat="46.22464" lon="7.00209"><ele>438.2</ele><time>2017-06-15T15:44:44Z</time></trkpt>
<trkpt lat="46.22479" lon="7.00204"><ele>438</ele><time>2017-06-15T15:44:46Z</time></trkpt>
<trkpt lat="46.22493" lon="7.00197"><ele>437.8</ele><time>2017-06-15T15:44:48Z</time></trkpt>
<trkpt lat="46.22508" lon="7.00191"><ele>437.6</ele><time>2017-06-15T15:44:50Z</time></trkpt>
<trkpt lat="46.22522" lon="7.00183"><ele>437.4</ele><time>2017-06-15T15:44:52Z</time></trkpt>
<trkpt lat="46.22533" lon="7.00168"><ele>437.2</ele><time>2017-06-15T15:44:54Z</time></trkpt>
<trkpt lat="46.22543" lon="7.00154"><ele>437</ele><time>2017-06-15T15:44:56Z</time></trkpt>
<trkpt lat="46.22545" lon="7.00147"><ele>436.8</ele><time>2017-06-15T15:44:58Z</time></trkpt>
<trkpt lat="46.22548" lon="7.00142"><ele>436.6</ele><time>2017-06-15T15:44:59Z</time></trkpt>
<trkpt lat="46.22553" lon="7.00138"><ele>436.6</ele><time>2017-06-15T15:45:00Z</time></trkpt>
<trkpt lat="46.22564" lon="7.0013"><ele>436.4</ele><time>2017-06-15T15:45:02Z</time></trkpt>
<trkpt lat="46.2258" lon="7.00128"><ele>436.2</ele><time>2017-06-15T15:45:04Z</time></trkpt>
<trkpt lat="46.22595" lon="7.00127"><ele>436.2</ele><time>2017-06-15T15:45:06Z</time></trkpt>
<trkpt lat="46.22602" lon="7.00126"><ele>436</ele><time>2017-06-15T15:45:07Z</time></trkpt>
<trkpt lat="46.22608" lon="7.00126"><ele>436</ele><time>2017-06-15T15:45:08Z</time></trkpt>
<trkpt lat="46.22621" lon="7.00126"><ele>436</ele><time>2017-06-15T15:45:10Z</time></trkpt>
<trkpt lat="46.22633" lon="7.00126"><ele>435.8</ele><time>2017-06-15T15:45:12Z</time></trkpt>
<trkpt lat="46.22646" lon="7.00126"><ele>435.8</ele><time>2017-06-15T15:45:14Z</time></trkpt>
<trkpt lat="46.22652" lon="7.00126"><ele>435.8</ele><time>2017-06-15T15:45:15Z</time></trkpt>
<trkpt lat="46.22657" lon="7.00125"><ele>435.6</ele><time>2017-06-15T15:45:16Z</time></trkpt>
<trkpt lat="46.22669" lon="7.00122"><ele>435.6</ele><time>2017-06-15T15:45:18Z</time></trkpt>
<trkpt lat="46.2268" lon="7.0012"><ele>435.4</ele><time>2017-06-15T15:45:20Z</time></trkpt>
<trkpt lat="46.22692" lon="7.00117"><ele>435.4</ele><time>2017-06-15T15:45:22Z</time></trkpt>
<trkpt lat="46.22698" lon="7.00116"><ele>435.4</ele><time>2017-06-15T15:45:23Z</time></trkpt>
<trkpt lat="46.22704" lon="7.00115"><ele>435.4</ele><time>2017-06-15T15:45:24Z</time></trkpt>
<trkpt lat="46.22717" lon="7.00112"><ele>435.2</ele><time>2017-06-15T15:45:26Z</time></trkpt>
<trkpt lat="46.2273" lon="7.0011"><ele>435.2</ele><time>2017-06-15T15:45:28Z</time></trkpt>
<trkpt lat="46.22743" lon="7.00108"><ele>435</ele><time>2017-06-15T15:45:30Z</time></trkpt>
<trkpt lat="46.22756" lon="7.00105"><ele>435</ele><time>2017-06-15T15:45:32Z</time></trkpt>
<trkpt lat="46.22768" lon="7.00102"><ele>434.8</ele><time>2017-06-15T15:45:34Z</time></trkpt>
<trkpt lat="46.22781" lon="7.00098"><ele>434.8</ele><time>2017-06-15T15:45:36Z</time></trkpt>
<trkpt lat="46.22792" lon="7.00094"><ele>434.6</ele><time>2017-06-15T15:45:38Z</time></trkpt>
<trkpt lat="46.22804" lon="7.0009"><ele>434.6</ele><time>2017-06-15T15:45:40Z</time></trkpt>
<trkpt lat="46.22815" lon="7.00086"><ele>434.4</ele><time>2017-06-15T15:45:42Z</time></trkpt>
<trkpt lat="46.22827" lon="7.00082"><ele>434.4</ele><time>2017-06-15T15:45:44Z</time></trkpt>
<trkpt lat="46.22838" lon="7.00077"><ele>434.2</ele><time>2017-06-15T15:45:46Z</time></trkpt>
<trkpt lat="46.2285" lon="7.00071"><ele>434.2</ele><time>2017-06-15T15:45:48Z</time></trkpt>
<trkpt lat="46.22861" lon="7.00066"><ele>434.2</ele><time>2017-06-15T15:45:50Z</time></trkpt>
<trkpt lat="46.22872" lon="7.00061"><ele>434</ele><time>2017-06-15T15:45:52Z</time></trkpt>
<trkpt lat="46.22883" lon="7.00053"><ele>434</ele><time>2017-06-15T15:45:54Z</time></trkpt>
<trkpt lat="46.22893" lon="7.00046"><ele>433.8</ele><time>2017-06-15T15:45:56Z</time></trkpt>
<trkpt lat="46.22904" lon="7.00039"><ele>433.8</ele><time>2017-06-15T15:45:58Z</time></trkpt>
<trkpt lat="46.22915" lon="7.00031"><ele>433.6</ele><time>2017-06-15T15:46:00Z</time></trkpt>
<trkpt lat="46.22928" lon="7.00023"><ele>433.6</ele><time>2017-06-15T15:46:02Z</time></trkpt>
<trkpt lat="46.2294" lon="7.00015"><ele>433.4</ele><time>2017-06-15T15:46:04Z</time></trkpt>
<trkpt lat="46.22953" lon="7.00007"><ele>433.4</ele><time>2017-06-15T15:46:06Z</time></trkpt>
<trkpt lat="46.2296" lon="7.00003"><ele>433.2</ele><time>2017-06-15T15:46:07Z</time></trkpt>
<trkpt lat="46.22966" lon="6.99997"><ele>433</ele><time>2017-06-15T15:46:08Z</time></trkpt>
<trkpt lat="46.2298" lon="6.99986"><ele>432.6</ele><time>2017-06-15T15:46:10Z</time></trkpt>
<trkpt lat="46.22994" lon="6.99975"><ele>432.2</ele><time>2017-06-15T15:46:12Z</time></trkpt>
<trkpt lat="46.23" lon="6.99969"><ele>432</ele><time>2017-06-15T15:46:13Z</time></trkpt>
<trkpt lat="46.23006" lon="6.99963"><ele>431.8</ele><time>2017-06-15T15:46:14Z</time></trkpt>
<trkpt lat="46.23018" lon="6.99949"><ele>431.2</ele><time>2017-06-15T15:46:16Z</time></trkpt>
<trkpt lat="46.23031" lon="6.99937"><ele>430.8</ele><time>2017-06-15T15:46:18Z</time></trkpt>
<trkpt lat="46.23045" lon="6.99925"><ele>430.4</ele><time>2017-06-15T15:46:20Z</time></trkpt>
<trkpt lat="46.23058" lon="6.99912"><ele>430</ele><time>2017-06-15T15:46:22Z</time></trkpt>
<trkpt lat="46.23071" lon="6.99899"><ele>430</ele><time>2017-06-15T15:46:24Z</time></trkpt>
<trkpt lat="46.23083" lon="6.99886"><ele>429.8</ele><time>2017-06-15T15:46:26Z</time></trkpt>
<trkpt lat="46.23096" lon="6.99872"><ele>429.8</ele><time>2017-06-15T15:46:28Z</time></trkpt>
<trkpt lat="46.23109" lon="6.99857"><ele>429.6</ele><time>2017-06-15T15:46:30Z</time></trkpt>
<trkpt lat="46.23121" lon="6.99843"><ele>429.4</ele><time>2017-06-15T15:46:32Z</time></trkpt>
<trkpt lat="46.23126" lon="6.99836"><ele>429.4</ele><time>2017-06-15T15:46:33Z</time></trkpt>
<trkpt lat="46.23132" lon="6.99828"><ele>429.4</ele><time>2017-06-15T15:46:34Z</time></trkpt>
<trkpt lat="46.23146" lon="6.99813"><ele>429.2</ele><time>2017-06-15T15:46:36Z</time></trkpt>
<trkpt lat="46.23159" lon="6.99798"><ele>429.2</ele><time>2017-06-15T15:46:38Z</time></trkpt>
<trkpt lat="46.23165" lon="6.99791"><ele>429.2</ele><time>2017-06-15T15:46:39Z</time></trkpt>
<trkpt lat="46.23171" lon="6.99785"><ele>429</ele><time>2017-06-15T15:46:40Z</time></trkpt>
<trkpt lat="46.23184" lon="6.99773"><ele>429</ele><time>2017-06-15T15:46:42Z</time></trkpt>
<trkpt lat="46.23202" lon="6.99754"><ele>428.8</ele><time>2017-06-15T15:46:45Z</time></trkpt>
<trkpt lat="46.23222" lon="6.99731"><ele>428.6</ele><time>2017-06-15T15:46:49Z</time></trkpt>
<trkpt lat="46.23227" lon="6.99725"><ele>428.6</ele><time>2017-06-15T15:46:50Z</time></trkpt>
<trkpt lat="46.23237" lon="6.99714"><ele>428.4</ele><time>2017-06-15T15:46:52Z</time></trkpt>
<trkpt lat="46.23242" lon="6.99708"><ele>428.4</ele><time>2017-06-15T15:46:53Z</time></trkpt>
<trkpt lat="46.23248" lon="6.99703"><ele>428.4</ele><time>2017-06-15T15:46:54Z</time></trkpt>
<trkpt lat="46.23259" lon="6.99693"><ele>428.2</ele><time>2017-06-15T15:46:56Z</time></trkpt>
<trkpt lat="46.23265" lon="6.99681"><ele>428.2</ele><time>2017-06-15T15:46:58Z</time></trkpt>
<trkpt lat="46.23274" lon="6.99664"><ele>428</ele><time>2017-06-15T15:47:01Z</time></trkpt>
<trkpt lat="46.23277" lon="6.99659"><ele>428</ele><time>2017-06-15T15:47:02Z</time></trkpt>
<trkpt lat="46.23283" lon="6.99647"><ele>427.8</ele><time>2017-06-15T15:47:04Z</time></trkpt>
<trkpt lat="46.23287" lon="6.99642"><ele>427.8</ele><time>2017-06-15T15:47:05Z</time></trkpt>
<trkpt lat="46.23293" lon="6.99639"><ele>427.8</ele><time>2017-06-15T15:47:06Z</time></trkpt>
<trkpt lat="46.23299" lon="6.99636"><ele>427.8</ele><time>2017-06-15T15:47:07Z</time></trkpt>
<trkpt lat="46.23305" lon="6.99635"><ele>427.6</ele><time>2017-06-15T15:47:08Z</time></trkpt>
<trkpt lat="46.23316" lon="6.9963"><ele>427.6</ele><time>2017-06-15T15:47:10Z</time></trkpt>
<trkpt lat="46.23325" lon="6.99618"><ele>427.4</ele><time>2017-06-15T15:47:12Z</time></trkpt>
<trkpt lat="46.23334" lon="6.99607"><ele>427.4</ele><time>2017-06-15T15:47:14Z</time></trkpt>
<trkpt lat="46.23343" lon="6.99595"><ele>427.2</ele><time>2017-06-15T15:47:16Z</time></trkpt>
<trkpt lat="46.23351" lon="6.99584"><ele>427.2</ele><time>2017-06-15T15:47:18Z</time></trkpt>
<trkpt lat="46.23359" lon="6.99576"><ele>427</ele><time>2017-06-15T15:47:20Z</time></trkpt>
<trkpt lat="46.23367" lon="6.99568"><ele>427</ele><time>2017-06-15T15:47:22Z</time></trkpt>
<trkpt lat="46.23374" lon="6.9956"><ele>426.8</ele><time>2017-06-15T15:47:24Z</time></trkpt>
<trkpt lat="46.23386" lon="6.99547"><ele>426.8</ele><time>2017-06-15T15:47:27Z</time></trkpt>
<trkpt lat="46.23394" lon="6.99538"><ele>426.6</ele><time>2017-06-15T15:47:28Z</time></trkpt>
<trkpt lat="46.23413" lon="6.99516"><ele>426.6</ele><time>2017-06-15T15:47:30Z</time></trkpt>
<trkpt lat="46.23425" lon="6.99514"><ele>426.4</ele><time>2017-06-15T15:47:32Z</time></trkpt>
<trkpt lat="46.23436" lon="6.99516"><ele>426.4</ele><time>2017-06-15T15:47:34Z</time></trkpt>
<trkpt lat="46.23447" lon="6.99519"><ele>426.2</ele><time>2017-06-15T15:47:36Z</time></trkpt>
<trkpt lat="46.23458" lon="6.99521"><ele>426.2</ele><time>2017-06-15T15:47:38Z</time></trkpt>
<trkpt lat="46.23468" lon="6.99524"><ele>426</ele><time>2017-06-15T15:47:40Z</time></trkpt>
<trkpt lat="46.23474" lon="6.99526"><ele>426</ele><time>2017-06-15T15:47:41Z</time></trkpt>
<trkpt lat="46.23478" lon="6.9953"><ele>426</ele><time>2017-06-15T15:47:42Z</time></trkpt>
<trkpt lat="46.23486" lon="6.99541"><ele>425.8</ele><time>2017-06-15T15:47:44Z</time></trkpt>
<trkpt lat="46.23494" lon="6.99553"><ele>425.8</ele><time>2017-06-15T15:47:46Z</time></trkpt>
<trkpt lat="46.23503" lon="6.99564"><ele>425.6</ele><time>2017-06-15T15:47:48Z</time></trkpt>
<trkpt lat="46.23516" lon="6.99574"><ele>425.6</ele><time>2017-06-15T15:47:50Z</time></trkpt>
<trkpt lat="46.23528" lon="6.99585"><ele>425.4</ele><time>2017-06-15T15:47:52Z</time></trkpt>
<trkpt lat="46.2354" lon="6.99596"><ele>425.4</ele><time>2017-06-15T15:47:54Z</time></trkpt>
<trkpt lat="46.23546" lon="6.99602"><ele>425.2</ele><time>2017-06-15T15:47:55Z</time></trkpt>
<trkpt lat="46.23552" lon="6.99608"><ele>425.2</ele><time>2017-06-15T15:47:56Z</time></trkpt>
<trkpt lat="46.23563" lon="6.99616"><ele>425</ele><time>2017-06-15T15:47:58Z</time></trkpt>
<trkpt lat="46.23573" lon="6.9961"><ele>424.8</ele><time>2017-06-15T15:48:00Z</time></trkpt>
<trkpt lat="46.23577" lon="6.99604"><ele>424.8</ele><time>2017-06-15T15:48:01Z</time></trkpt>
<trkpt lat="46.23582" lon="6.99598"><ele>424.6</ele><time>2017-06-15T15:48:02Z</time></trkpt>
<trkpt lat="46.23591" lon="6.99585"><ele>424.4</ele><time>2017-06-15T15:48:04Z</time></trkpt>
<trkpt lat="46.236" lon="6.99572"><ele>424.2</ele><time>2017-06-15T15:48:06Z</time></trkpt>
<trkpt lat="46.23609" lon="6.99559"><ele>424</ele><time>2017-06-15T15:48:08Z</time></trkpt>
<trkpt lat="46.23619" lon="6.99548"><ele>423.8</ele><time>2017-06-15T15:48:10Z</time></trkpt>
<trkpt lat="46.23629" lon="6.99536"><ele>423.8</ele><time>2017-06-15T15:48:12Z</time></trkpt>
<trkpt lat="46.23634" lon="6.99531"><ele>423.6</ele><time>2017-06-15T15:48:13Z</time></trkpt>
<trkpt lat="46.2364" lon="6.99528"><ele>423.6</ele><time>2017-06-15T15:48:14Z</time></trkpt>
<trkpt lat="46.23651" lon="6.99523"><ele>423.4</ele><time>2017-06-15T15:48:16Z</time></trkpt>
<trkpt lat="46.23656" lon="6.99521"><ele>423.2</ele><time>2017-06-15T15:48:17Z</time></trkpt>
<trkpt lat="46.23662" lon="6.99518"><ele>423.4</ele><time>2017-06-15T15:48:18Z</time></trkpt>
<trkpt lat="46.23673" lon="6.99513"><ele>423.4</ele><time>2017-06-15T15:48:20Z</time></trkpt>
<trkpt lat="46.23679" lon="6.9951"><ele>423.4</ele><time>2017-06-15T15:48:21Z</time></trkpt>
<trkpt lat="46.23685" lon="6.99507"><ele>423.4</ele><time>2017-06-15T15:48:22Z</time></trkpt>
<trkpt lat="46.23697" lon="6.99501"><ele>423.4</ele><time>2017-06-15T15:48:24Z</time></trkpt>
<trkpt lat="46.2371" lon="6.99495"><ele>423.4</ele><time>2017-06-15T15:48:26Z</time></trkpt>
<trkpt lat="46.23722" lon="6.99489"><ele>423.4</ele><time>2017-06-15T15:48:28Z</time></trkpt>
<trkpt lat="46.23734" lon="6.99485"><ele>423.4</ele><time>2017-06-15T15:48:30Z</time></trkpt>
<trkpt lat="46.23746" lon="6.99481"><ele>423.4</ele><time>2017-06-15T15:48:32Z</time></trkpt>
<trkpt lat="46.23758" lon="6.99476"><ele>423.4</ele><time>2017-06-15T15:48:34Z</time></trkpt>
<trkpt lat="46.2377" lon="6.99472"><ele>423.4</ele><time>2017-06-15T15:48:36Z</time></trkpt>
<trkpt lat="46.23782" lon="6.99469"><ele>423.6</ele><time>2017-06-15T15:48:38Z</time></trkpt>
<trkpt lat="46.23793" lon="6.99466"><ele>423.6</ele><time>2017-06-15T15:48:40Z</time></trkpt>
<trkpt lat="46.23805" lon="6.99462"><ele>423.6</ele><time>2017-06-15T15:48:42Z</time></trkpt>
<trkpt lat="46.23817" lon="6.99459"><ele>423.6</ele><time>2017-06-15T15:48:44Z</time></trkpt>
<trkpt lat="46.23831" lon="6.99453"><ele>423.6</ele><time>2017-06-15T15:48:46Z</time></trkpt>
<trkpt lat="46.23846" lon="6.99447"><ele>423.6</ele><time>2017-06-15T15:48:48Z</time></trkpt>
<trkpt lat="46.23853" lon="6.99444"><ele>423.6</ele><time>2017-06-15T15:48:49Z</time></trkpt>
<trkpt lat="46.23858" lon="6.99441"><ele>423.6</ele><time>2017-06-15T15:48:50Z</time></trkpt>
<trkpt lat="46.23868" lon="6.99434"><ele>423.6</ele><time>2017-06-15T15:48:52Z</time></trkpt>
<trkpt lat="46.23878" lon="6.99427"><ele>423.6</ele><time>2017-06-15T15:48:54Z</time></trkpt>
<trkpt lat="46.23888" lon="6.9942"><ele>423.8</ele><time>2017-06-15T15:48:56Z</time></trkpt>
<trkpt lat="46.23898" lon="6.99414"><ele>423.8</ele><time>2017-06-15T15:48:58Z</time></trkpt>
<trkpt lat="46.23907" lon="6.99407"><ele>423.8</ele><time>2017-06-15T15:49:00Z</time></trkpt>
<trkpt lat="46.23915" lon="6.994"><ele>423.8</ele><time>2017-06-15T15:49:02Z</time></trkpt>
<trkpt lat="46.23924" lon="6.99393"><ele>423.8</ele><time>2017-06-15T15:49:04Z</time></trkpt>
<trkpt lat="46.23933" lon="6.99386"><ele>423.8</ele><time>2017-06-15T15:49:06Z</time></trkpt>
<trkpt lat="46.23938" lon="6.99383"><ele>423.8</ele><time>2017-06-15T15:49:07Z</time></trkpt>
<trkpt lat="46.23944" lon="6.99379"><ele>423.8</ele><time>2017-06-15T15:49:08Z</time></trkpt>
<trkpt lat="46.23956" lon="6.99371"><ele>423.8</ele><time>2017-06-15T15:49:10Z</time></trkpt>
<trkpt lat="46.23965" lon="6.99362"><ele>423.8</ele><time>2017-06-15T15:49:12Z</time></trkpt>
<trkpt lat="46.23975" lon="6.99352"><ele>423.8</ele><time>2017-06-15T15:49:14Z</time></trkpt>
<trkpt lat="46.23985" lon="6.99342"><ele>424</ele><time>2017-06-15T15:49:16Z</time></trkpt>
<trkpt lat="46.23994" lon="6.99332"><ele>424</ele><time>2017-06-15T15:49:18Z</time></trkpt>
<trkpt lat="46.24004" lon="6.99321"><ele>424</ele><time>2017-06-15T15:49:20Z</time></trkpt>
<trkpt lat="46.24014" lon="6.99309"><ele>424</ele><time>2017-06-15T15:49:22Z</time></trkpt>
<trkpt lat="46.24024" lon="6.99298"><ele>424</ele><time>2017-06-15T15:49:24Z</time></trkpt>
<trkpt lat="46.24029" lon="6.99292"><ele>424</ele><time>2017-06-15T15:49:25Z</time></trkpt>
<trkpt lat="46.24034" lon="6.99286"><ele>424</ele><time>2017-06-15T15:49:26Z</time></trkpt>
<trkpt lat="46.24043" lon="6.99275"><ele>424</ele><time>2017-06-15T15:49:28Z</time></trkpt>
<trkpt lat="46.24047" lon="6.9927"><ele>424</ele><time>2017-06-15T15:49:29Z</time></trkpt>
<trkpt lat="46.24051" lon="6.99265"><ele>424</ele><time>2017-06-15T15:49:30Z</time></trkpt>
<trkpt lat="46.24059" lon="6.99257"><ele>424</ele><time>2017-06-15T15:49:32Z</time></trkpt>
<trkpt lat="46.24067" lon="6.99248"><ele>424</ele><time>2017-06-15T15:49:34Z</time></trkpt>
<trkpt lat="46.24075" lon="6.99239"><ele>424.2</ele><time>2017-06-15T15:49:36Z</time></trkpt>
<trkpt lat="46.24083" lon="6.9923"><ele>424.2</ele><time>2017-06-15T15:49:38Z</time></trkpt>
<trkpt lat="46.24092" lon="6.99221"><ele>424.2</ele><time>2017-06-15T15:49:40Z</time></trkpt>
<trkpt lat="46.24101" lon="6.99212"><ele>424.2</ele><time>2017-06-15T15:49:42Z</time></trkpt>
<trkpt lat="46.24111" lon="6.99203"><ele>424.2</ele><time>2017-06-15T15:49:44Z</time></trkpt>
<trkpt lat="46.2412" lon="6.99194"><ele>424.2</ele><time>2017-06-15T15:49:46Z</time></trkpt>
<trkpt lat="46.24124" lon="6.99189"><ele>424.2</ele><time>2017-06-15T15:49:47Z</time></trkpt>
<trkpt lat="46.24129" lon="6.99183"><ele>424.2</ele><time>2017-06-15T15:49:48Z</time></trkpt>
<trkpt lat="46.2414" lon="6.99174"><ele>424.2</ele><time>2017-06-15T15:49:50Z</time></trkpt>
<trkpt lat="46.24146" lon="6.99171"><ele>424.2</ele><time>2017-06-15T15:49:51Z</time></trkpt>
<trkpt lat="46.24151" lon="6.99165"><ele>424.2</ele><time>2017-06-15T15:49:52Z</time></trkpt>
<trkpt lat="46.2416" lon="6.99154"><ele>424.2</ele><time>2017-06-15T15:49:54Z</time></trkpt>
<trkpt lat="46.24171" lon="6.99143"><ele>424.4</ele><time>2017-06-15T15:49:56Z</time></trkpt>
<trkpt lat="46.24182" lon="6.99132"><ele>424.4</ele><time>2017-06-15T15:49:58Z</time></trkpt>
<trkpt lat="46.24193" lon="6.9912"><ele>424.4</ele><time>2017-06-15T15:50:00Z</time></trkpt>
<trkpt lat="46.24198" lon="6.99115"><ele>424.4</ele><time>2017-06-15T15:50:01Z</time></trkpt>
<trkpt lat="46.24202" lon="6.9911"><ele>424.4</ele><time>2017-06-15T15:50:02Z</time></trkpt>
<trkpt lat="46.24211" lon="6.99099"><ele>424.4</ele><time>2017-06-15T15:50:04Z</time></trkpt>
<trkpt lat="46.24221" lon="6.99089"><ele>424.4</ele><time>2017-06-15T15:50:06Z</time></trkpt>
<trkpt lat="46.2423" lon="6.99079"><ele>424.4</ele><time>2017-06-15T15:50:08Z</time></trkpt>
<trkpt lat="46.24234" lon="6.99074"><ele>424.4</ele><time>2017-06-15T15:50:09Z</time></trkpt>
<trkpt lat="46.24238" lon="6.9907"><ele>424.4</ele><time>2017-06-15T15:50:10Z</time></trkpt>
<trkpt lat="46.24246" lon="6.99061"><ele>424.4</ele><time>2017-06-15T15:50:12Z</time></trkpt>
<trkpt lat="46.24252" lon="6.99048"><ele>424.6</ele><time>2017-06-15T15:50:14Z</time></trkpt>
<trkpt lat="46.24255" lon="6.99043"><ele>424.6</ele><time>2017-06-15T15:50:15Z</time></trkpt>
<trkpt lat="46.2426" lon="6.99039"><ele>424.6</ele><time>2017-06-15T15:50:16Z</time></trkpt>
<trkpt lat="46.24269" lon="6.99031"><ele>424.6</ele><time>2017-06-15T15:50:18Z</time></trkpt>
<trkpt lat="46.24273" lon="6.99027"><ele>424.6</ele><time>2017-06-15T15:50:19Z</time></trkpt>
<trkpt lat="46.24276" lon="6.99024"><ele>424.6</ele><time>2017-06-15T15:50:20Z</time></trkpt>
<trkpt lat="46.24284" lon="6.99023"><ele>424.6</ele><time>2017-06-15T15:50:22Z</time></trkpt>
<trkpt lat="46.24287" lon="6.99024"><ele>424.6</ele><time>2017-06-15T15:50:23Z</time></trkpt>
<trkpt lat="46.24289" lon="6.99028"><ele>424.6</ele><time>2017-06-15T15:50:24Z</time></trkpt>
<trkpt lat="46.24293" lon="6.99034"><ele>424.6</ele><time>2017-06-15T15:50:26Z</time></trkpt>
<trkpt lat="46.24298" lon="6.99041"><ele>424.6</ele><time>2017-06-15T15:50:28Z</time></trkpt>
<trkpt lat="46.24302" lon="6.99048"><ele>424.6</ele><time>2017-06-15T15:50:30Z</time></trkpt>
<trkpt lat="46.24306" lon="6.99054"><ele>424.6</ele><time>2017-06-15T15:50:32Z</time></trkpt>
<trkpt lat="46.2431" lon="6.99061"><ele>424.8</ele><time>2017-06-15T15:50:34Z</time></trkpt>
<trkpt lat="46.24315" lon="6.99068"><ele>424.8</ele><time>2017-06-15T15:50:36Z</time></trkpt>
<trkpt lat="46.24319" lon="6.99075"><ele>424.8</ele><time>2017-06-15T15:50:38Z</time></trkpt>
<trkpt lat="46.24324" lon="6.99083"><ele>424.8</ele><time>2017-06-15T15:50:40Z</time></trkpt>
<trkpt lat="46.24329" lon="6.99091"><ele>424.8</ele><time>2017-06-15T15:50:42Z</time></trkpt>
<trkpt lat="46.24334" lon="6.991"><ele>424.8</ele><time>2017-06-15T15:50:44Z</time></trkpt>
<trkpt lat="46.24339" lon="6.99108"><ele>424.8</ele><time>2017-06-15T15:50:46Z</time></trkpt>
<trkpt lat="46.24344" lon="6.99117"><ele>424.8</ele><time>2017-06-15T15:50:48Z</time></trkpt>
<trkpt lat="46.24346" lon="6.99121"><ele>424.8</ele><time>2017-06-15T15:50:49Z</time></trkpt>
<trkpt lat="46.24349" lon="6.99126"><ele>424.8</ele><time>2017-06-15T15:50:50Z</time></trkpt>
<trkpt lat="46.24357" lon="6.99138"><ele>424.8</ele><time>2017-06-15T15:50:52Z</time></trkpt>
<trkpt lat="46.24365" lon="6.9915"><ele>425</ele><time>2017-06-15T15:50:54Z</time></trkpt>
<trkpt lat="46.24372" lon="6.99163"><ele>425</ele><time>2017-06-15T15:50:56Z</time></trkpt>
<trkpt lat="46.2438" lon="6.99175"><ele>425</ele><time>2017-06-15T15:50:58Z</time></trkpt>
<trkpt lat="46.24389" lon="6.99186"><ele>425</ele><time>2017-06-15T15:51:00Z</time></trkpt>
<trkpt lat="46.24392" lon="6.99192"><ele>425</ele><time>2017-06-15T15:51:01Z</time></trkpt>
<trkpt lat="46.24389" lon="6.99197"><ele>425</ele><time>2017-06-15T15:51:02Z</time></trkpt>
<trkpt lat="46.24381" lon="6.99205"><ele>425</ele><time>2017-06-15T15:51:04Z</time></trkpt>
<trkpt lat="46.24372" lon="6.99213"><ele>425</ele><time>2017-06-15T15:51:06Z</time></trkpt>
<trkpt lat="46.24364" lon="6.9922"><ele>425</ele><time>2017-06-15T15:51:08Z</time></trkpt>
<trkpt lat="46.24355" lon="6.99228"><ele>425</ele><time>2017-06-15T15:51:10Z</time></trkpt>
<trkpt lat="46.24351" lon="6.99231"><ele>425</ele><time>2017-06-15T15:51:11Z</time></trkpt>
<trkpt lat="46.24348" lon="6.99235"><ele>425.2</ele><time>2017-06-15T15:51:12Z</time></trkpt>
<trkpt lat="46.24341" lon="6.99241"><ele>425.2</ele><time>2017-06-15T15:51:14Z</time></trkpt>
<trkpt lat="46.24336" lon="6.9924"><ele>425.2</ele><time>2017-06-15T15:51:15Z</time></trkpt>
<trkpt lat="46.24332" lon="6.99234"><ele>425.2</ele><time>2017-06-15T15:51:16Z</time></trkpt>
<trkpt lat="46.24325" lon="6.99222"><ele>425.2</ele><time>2017-06-15T15:51:18Z</time></trkpt>
<trkpt lat="46.24317" lon="6.99211"><ele>425.2</ele><time>2017-06-15T15:51:20Z</time></trkpt>
<trkpt lat="46.2431" lon="6.99196"><ele>425.2</ele><time>2017-06-15T15:51:22Z</time></trkpt>
<trkpt lat="46.24303" lon="6.99181"><ele>425.2</ele><time>2017-06-15T15:51:24Z</time></trkpt>
<trkpt lat="46.24295" lon="6.99168"><ele>425.2</ele><time>2017-06-15T15:51:26Z</time></trkpt>
<trkpt lat="46.24285" lon="6.99161"><ele>425.2</ele><time>2017-06-15T15:51:28Z</time></trkpt>
<trkpt lat="46.24274" lon="6.99163"><ele>425.2</ele><time>2017-06-15T15:51:30Z</time></trkpt>
<trkpt lat="46.24266" lon="6.99173"><ele>425.4</ele><time>2017-06-15T15:51:32Z</time></trkpt>
<trkpt lat="46.24257" lon="6.99183"><ele>425.4</ele><time>2017-06-15T15:51:34Z</time></trkpt>
<trkpt lat="46.24249" lon="6.99193"><ele>425.4</ele><time>2017-06-15T15:51:36Z</time></trkpt>
<trkpt lat="46.2424" lon="6.99204"><ele>425.4</ele><time>2017-06-15T15:51:38Z</time></trkpt>
<trkpt lat="46.24236" lon="6.99208"><ele>425.4</ele><time>2017-06-15T15:51:39Z</time></trkpt>
<trkpt lat="46.24231" lon="6.99213"><ele>425.4</ele><time>2017-06-15T15:51:40Z</time></trkpt>
<trkpt lat="46.24222" lon="6.99222"><ele>425.4</ele><time>2017-06-15T15:51:42Z</time></trkpt>
<trkpt lat="46.24213" lon="6.99231"><ele>425.4</ele><time>2017-06-15T15:51:44Z</time></trkpt>
<trkpt lat="46.24204" lon="6.99243"><ele>425.4</ele><time>2017-06-15T15:51:46Z</time></trkpt>
<trkpt lat="46.24195" lon="6.99255"><ele>425.4</ele><time>2017-06-15T15:51:48Z</time></trkpt>
<trkpt lat="46.24187" lon="6.99266"><ele>425.4</ele><time>2017-06-15T15:51:50Z</time></trkpt>
<trkpt lat="46.24178" lon="6.99278"><ele>425.6</ele><time>2017-06-15T15:51:52Z</time></trkpt>
<trkpt lat="46.24169" lon="6.99289"><ele>425.6</ele><time>2017-06-15T15:51:54Z</time></trkpt>
<trkpt lat="46.2416" lon="6.993"><ele>425.6</ele><time>2017-06-15T15:51:56Z</time></trkpt>
<trkpt lat="46.24152" lon="6.99311"><ele>425.6</ele><time>2017-06-15T15:51:58Z</time></trkpt>
<trkpt lat="46.24143" lon="6.99322"><ele>425.6</ele><time>2017-06-15T15:52:00Z</time></trkpt>
<trkpt lat="46.24133" lon="6.99333"><ele>425.6</ele><time>2017-06-15T15:52:02Z</time></trkpt>
<trkpt lat="46.24124" lon="6.99343"><ele>425.6</ele><time>2017-06-15T15:52:04Z</time></trkpt>
<trkpt lat="46.24114" lon="6.99353"><ele>425.6</ele><time>2017-06-15T15:52:06Z</time></trkpt>
<trkpt lat="46.2411" lon="6.99359"><ele>425.6</ele><time>2017-06-15T15:52:07Z</time></trkpt>
<trkpt lat="46.24105" lon="6.99366"><ele>425.6</ele><time>2017-06-15T15:52:08Z</time></trkpt>
<trkpt lat="46.24096" lon="6.99381"><ele>425.8</ele><time>2017-06-15T15:52:10Z</time></trkpt>
<trkpt lat="46.24092" lon="6.99387"><ele>425.8</ele><time>2017-06-15T15:52:11Z</time></trkpt>
<trkpt lat="46.24087" lon="6.99392"><ele>425.8</ele><time>2017-06-15T15:52:12Z</time></trkpt>
<trkpt lat="46.24077" lon="6.99401"><ele>425.8</ele><time>2017-06-15T15:52:14Z</time></trkpt>
<trkpt lat="46.24067" lon="6.9941"><ele>425.8</ele><time>2017-06-15T15:52:16Z</time></trkpt>
<trkpt lat="46.24057" lon="6.99419"><ele>425.8</ele><time>2017-06-15T15:52:18Z</time></trkpt>
<trkpt lat="46.24052" lon="6.99424"><ele>425.8</ele><time>2017-06-15T15:52:19Z</time></trkpt>
<trkpt lat="46.24046" lon="6.99429"><ele>425.8</ele><time>2017-06-15T15:52:20Z</time></trkpt>
<trkpt lat="46.24035" lon="6.99439"><ele>425.8</ele><time>2017-06-15T15:52:22Z</time></trkpt>
<trkpt lat="46.24024" lon="6.99449"><ele>425.8</ele><time>2017-06-15T15:52:24Z</time></trkpt>
<trkpt lat="46.24013" lon="6.99459"><ele>425.8</ele><time>2017-06-15T15:52:26Z</time></trkpt>
<trkpt lat="46.24003" lon="6.99467"><ele>425.8</ele><time>2017-06-15T15:52:28Z</time></trkpt>
<trkpt lat="46.23992" lon="6.99475"><ele>426</ele><time>2017-06-15T15:52:30Z</time></trkpt>
<trkpt lat="46.23982" lon="6.99484"><ele>426</ele><time>2017-06-15T15:52:32Z</time></trkpt>
<trkpt lat="46.23971" lon="6.99492"><ele>426</ele><time>2017-06-15T15:52:34Z</time></trkpt>
<trkpt lat="46.23961" lon="6.99498"><ele>426</ele><time>2017-06-15T15:52:36Z</time></trkpt>
<trkpt lat="46.2395" lon="6.99503"><ele>426</ele><time>2017-06-15T15:52:38Z</time></trkpt>
<trkpt lat="46.23939" lon="6.99509"><ele>426</ele><time>2017-06-15T15:52:40Z</time></trkpt>
<trkpt lat="46.23929" lon="6.99515"><ele>426</ele><time>2017-06-15T15:52:42Z</time></trkpt>
<trkpt lat="46.23919" lon="6.9952"><ele>426</ele><time>2017-06-15T15:52:44Z</time></trkpt>
<trkpt lat="46.23908" lon="6.99525"><ele>426</ele><time>2017-06-15T15:52:46Z</time></trkpt>
<trkpt lat="46.23898" lon="6.9953"><ele>426</ele><time>2017-06-15T15:52:48Z</time></trkpt>
<trkpt lat="46.23888" lon="6.99536"><ele>426.2</ele><time>2017-06-15T15:52:50Z</time></trkpt>
<trkpt lat="46.23883" lon="6.99538"><ele>426.2</ele><time>2017-06-15T15:52:51Z</time></trkpt>
<trkpt lat="46.23879" lon="6.99541"><ele>426.2</ele><time>2017-06-15T15:52:52Z</time></trkpt>
<trkpt lat="46.23871" lon="6.99545"><ele>426.2</ele><time>2017-06-15T15:52:54Z</time></trkpt>
<trkpt lat="46.23868" lon="6.99549"><ele>426.2</ele><time>2017-06-15T15:52:55Z</time></trkpt>
<trkpt lat="46.23866" lon="6.99555"><ele>426.2</ele><time>2017-06-15T15:52:56Z</time></trkpt>
<trkpt lat="46.23864" lon="6.99566"><ele>426.2</ele><time>2017-06-15T15:52:58Z</time></trkpt>
<trkpt lat="46.23867" lon="6.99579"><ele>426.2</ele><time>2017-06-15T15:53:00Z</time></trkpt>
<trkpt lat="46.23872" lon="6.99593"><ele>426.2</ele><time>2017-06-15T15:53:02Z</time></trkpt>
<trkpt lat="46.23877" lon="6.99606"><ele>426.2</ele><time>2017-06-15T15:53:04Z</time></trkpt>
<trkpt lat="46.23882" lon="6.9962"><ele>426.2</ele><time>2017-06-15T15:53:06Z</time></trkpt>
<trkpt lat="46.23887" lon="6.99634"><ele>426.4</ele><time>2017-06-15T15:53:08Z</time></trkpt>
<trkpt lat="46.2389" lon="6.9964"><ele>426.4</ele><time>2017-06-15T15:53:09Z</time></trkpt>
<trkpt lat="46.23892" lon="6.99645"><ele>426.4</ele><time>2017-06-15T15:53:10Z</time></trkpt>
<trkpt lat="46.23896" lon="6.99656"><ele>426.4</ele><time>2017-06-15T15:53:12Z</time></trkpt>
<trkpt lat="46.239" lon="6.99667"><ele>426.4</ele><time>2017-06-15T15:53:14Z</time></trkpt>
<trkpt lat="46.23902" lon="6.99673"><ele>426.4</ele><time>2017-06-15T15:53:15Z</time></trkpt>
<trkpt lat="46.23903" lon="6.99677"><ele>426.4</ele><time>2017-06-15T15:53:16Z</time></trkpt>
<trkpt lat="46.23906" lon="6.99686"><ele>426.4</ele><time>2017-06-15T15:53:18Z</time></trkpt>
<trkpt lat="46.23911" lon="6.997"><ele>426.4</ele><time>2017-06-15T15:53:21Z</time></trkpt>
<trkpt lat="46.23912" lon="6.99705"><ele>426.4</ele><time>2017-06-15T15:53:22Z</time></trkpt>
<trkpt lat="46.23915" lon="6.99714"><ele>426.6</ele><time>2017-06-15T15:53:24Z</time></trkpt>
<trkpt lat="46.2392" lon="6.99728"><ele>426.6</ele><time>2017-06-15T15:53:27Z</time></trkpt>
<trkpt lat="46.23921" lon="6.99733"><ele>426.8</ele><time>2017-06-15T15:53:28Z</time></trkpt>
<trkpt lat="46.23925" lon="6.99744"><ele>426.8</ele><time>2017-06-15T15:53:30Z</time></trkpt>
<trkpt lat="46.23929" lon="6.99756"><ele>426.8</ele><time>2017-06-15T15:53:32Z</time></trkpt>
<trkpt lat="46.23933" lon="6.99768"><ele>427</ele><time>2017-06-15T15:53:34Z</time></trkpt>
<trkpt lat="46.23937" lon="6.99779"><ele>427</ele><time>2017-06-15T15:53:36Z</time></trkpt>
<trkpt lat="46.23941" lon="6.99791"><ele>427.2</ele><time>2017-06-15T15:53:38Z</time></trkpt>
<trkpt lat="46.23943" lon="6.99797"><ele>427.2</ele><time>2017-06-15T15:53:39Z</time></trkpt>
<trkpt lat="46.23946" lon="6.99804"><ele>427.2</ele><time>2017-06-15T15:53:40Z</time></trkpt>
<trkpt lat="46.23951" lon="6.99819"><ele>427.2</ele><time>2017-06-15T15:53:42Z</time></trkpt>
<trkpt lat="46.23956" lon="6.99833"><ele>427.2</ele><time>2017-06-15T15:53:44Z</time></trkpt>
<trkpt lat="46.23962" lon="6.99848"><ele>426.6</ele><time>2017-06-15T15:53:46Z</time></trkpt>
<trkpt lat="46.23964" lon="6.99856"><ele>426.4</ele><time>2017-06-15T15:53:47Z</time></trkpt>
<trkpt lat="46.23967" lon="6.99864"><ele>426</ele><time>2017-06-15T15:53:48Z</time></trkpt>
<trkpt lat="46.23972" lon="6.99882"><ele>425.6</ele><time>2017-06-15T15:53:50Z</time></trkpt>
<trkpt lat="46.23974" lon="6.9989"><ele>425.2</ele><time>2017-06-15T15:53:51Z</time></trkpt>
<trkpt lat="46.23973" lon="6.99899"><ele>425</ele><time>2017-06-15T15:53:52Z</time></trkpt>
<trkpt lat="46.23971" lon="6.99916"><ele>424.4</ele><time>2017-06-15T15:53:54Z</time></trkpt>
<trkpt lat="46.23969" lon="6.99934"><ele>424.6</ele><time>2017-06-15T15:53:56Z</time></trkpt>
<trkpt lat="46.23968" lon="6.99951"><ele>424.8</ele><time>2017-06-15T15:53:58Z</time></trkpt>
<trkpt lat="46.23968" lon="6.99959"><ele>424.8</ele><time>2017-06-15T15:53:59Z</time></trkpt>
<trkpt lat="46.2397" lon="6.99971"><ele>425</ele><time>2017-06-15T15:54:01Z</time></trkpt>
<trkpt lat="46.23971" lon="6.99977"><ele>425</ele><time>2017-06-15T15:54:02Z</time></trkpt>
<trkpt lat="46.23974" lon="6.99988"><ele>425.2</ele><time>2017-06-15T15:54:04Z</time></trkpt>
<trkpt lat="46.23975" lon="6.99994"><ele>425.4</ele><time>2017-06-15T15:54:05Z</time></trkpt>
<trkpt lat="46.23976" lon="7"><ele>425.6</ele><time>2017-06-15T15:54:06Z</time></trkpt>
<trkpt lat="46.23979" lon="7.00012"><ele>426</ele><time>2017-06-15T15:54:08Z</time></trkpt>
<trkpt lat="46.23981" lon="7.00024"><ele>426.6</ele><time>2017-06-15T15:54:10Z</time></trkpt>
<trkpt lat="46.23985" lon="7.00035"><ele>427</ele><time>2017-06-15T15:54:12Z</time></trkpt>
<trkpt lat="46.23988" lon="7.00046"><ele>427.4</ele><time>2017-06-15T15:54:14Z</time></trkpt>
<trkpt lat="46.23992" lon="7.00058"><ele>427.8</ele><time>2017-06-15T15:54:16Z</time></trkpt>
<trkpt lat="46.23995" lon="7.00069"><ele>428</ele><time>2017-06-15T15:54:18Z</time></trkpt>
<trkpt lat="46.23999" lon="7.00081"><ele>428.4</ele><time>2017-06-15T15:54:20Z</time></trkpt>
<trkpt lat="46.24" lon="7.00086"><ele>428.4</ele><time>2017-06-15T15:54:21Z</time></trkpt>
<trkpt lat="46.24001" lon="7.00091"><ele>428.6</ele><time>2017-06-15T15:54:22Z</time></trkpt>
<trkpt lat="46.24003" lon="7.001"><ele>428.8</ele><time>2017-06-15T15:54:24Z</time></trkpt>
<trkpt lat="46.24005" lon="7.0011"><ele>429</ele><time>2017-06-15T15:54:26Z</time></trkpt>
<trkpt lat="46.24007" lon="7.00119"><ele>429.2</ele><time>2017-06-15T15:54:28Z</time></trkpt>
<trkpt lat="46.24009" lon="7.00128"><ele>429.4</ele><time>2017-06-15T15:54:30Z</time></trkpt>
<trkpt lat="46.24012" lon="7.00137"><ele>429.6</ele><time>2017-06-15T15:54:32Z</time></trkpt>
<trkpt lat="46.24019" lon="7.0014"><ele>429.8</ele><time>2017-06-15T15:54:34Z</time></trkpt>
<trkpt lat="46.24027" lon="7.00143"><ele>430</ele><time>2017-06-15T15:54:36Z</time></trkpt>
<trkpt lat="46.24031" lon="7.00144"><ele>430</ele><time>2017-06-15T15:54:37Z</time></trkpt>
<trkpt lat="46.24036" lon="7.00144"><ele>430.2</ele><time>2017-06-15T15:54:38Z</time></trkpt>
<trkpt lat="46.24045" lon="7.00146"><ele>430.2</ele><time>2017-06-15T15:54:40Z</time></trkpt>
<trkpt lat="46.24054" lon="7.00148"><ele>430.4</ele><time>2017-06-15T15:54:42Z</time></trkpt>
<trkpt lat="46.24064" lon="7.0015"><ele>430.6</ele><time>2017-06-15T15:54:44Z</time></trkpt>
<trkpt lat="46.24072" lon="7.00151"><ele>430.6</ele><time>2017-06-15T15:54:46Z</time></trkpt>
<trkpt lat="46.24079" lon="7.00153"><ele>430.8</ele><time>2017-06-15T15:54:48Z</time></trkpt>
<trkpt lat="46.24086" lon="7.00155"><ele>430.8</ele><time>2017-06-15T15:54:50Z</time></trkpt>
<trkpt lat="46.24093" lon="7.00156"><ele>431</ele><time>2017-06-15T15:54:52Z</time></trkpt>
<trkpt lat="46.241" lon="7.00158"><ele>431.2</ele><time>2017-06-15T15:54:54Z</time></trkpt>
<trkpt lat="46.24107" lon="7.0016"><ele>431.2</ele><time>2017-06-15T15:54:56Z</time></trkpt>
<trkpt lat="46.24113" lon="7.00163"><ele>431.4</ele><time>2017-06-15T15:54:58Z</time></trkpt>
<trkpt lat="46.24113" lon="7.00174"><ele>431.6</ele><time>2017-06-15T15:55:00Z</time></trkpt>
<trkpt lat="46.24114" lon="7.00185"><ele>431.6</ele><time>2017-06-15T15:55:02Z</time></trkpt>
<trkpt lat="46.24114" lon="7.00195"><ele>431.8</ele><time>2017-06-15T15:55:04Z</time></trkpt>
<trkpt lat="46.24114" lon="7.00206"><ele>432</ele><time>2017-06-15T15:55:06Z</time></trkpt>
<trkpt lat="46.24114" lon="7.00216"><ele>432</ele><time>2017-06-15T15:55:08Z</time></trkpt>
<trkpt lat="46.24114" lon="7.00227"><ele>432.2</ele><time>2017-06-15T15:55:10Z</time></trkpt>
<trkpt lat="46.24115" lon="7.00232"><ele>432.2</ele><time>2017-06-15T15:55:11Z</time></trkpt>
<trkpt lat="46.24116" lon="7.00237"><ele>432.4</ele><time>2017-06-15T15:55:12Z</time></trkpt>
<trkpt lat="46.24119" lon="7.00247"><ele>432.4</ele><time>2017-06-15T15:55:14Z</time></trkpt>
<trkpt lat="46.24121" lon="7.00258"><ele>432.6</ele><time>2017-06-15T15:55:16Z</time></trkpt>
<trkpt lat="46.24124" lon="7.00268"><ele>432.8</ele><time>2017-06-15T15:55:18Z</time></trkpt>
<trkpt lat="46.24127" lon="7.00278"><ele>432.8</ele><time>2017-06-15T15:55:20Z</time></trkpt>
<trkpt lat="46.24129" lon="7.00288"><ele>433</ele><time>2017-06-15T15:55:22Z</time></trkpt>
<trkpt lat="46.2413" lon="7.00293"><ele>433</ele><time>2017-06-15T15:55:23Z</time></trkpt>
<trkpt lat="46.24131" lon="7.00297"><ele>433.2</ele><time>2017-06-15T15:55:24Z</time></trkpt>
<trkpt lat="46.24134" lon="7.00305"><ele>433.2</ele><time>2017-06-15T15:55:26Z</time></trkpt>
<trkpt lat="46.24136" lon="7.00312"><ele>433.6</ele><time>2017-06-15T15:55:28Z</time></trkpt>
<trkpt lat="46.24138" lon="7.0032"><ele>434</ele><time>2017-06-15T15:55:30Z</time></trkpt>
<trkpt lat="46.2414" lon="7.00328"><ele>434.2</ele><time>2017-06-15T15:55:32Z</time></trkpt>
<trkpt lat="46.24141" lon="7.00331"><ele>434.4</ele><time>2017-06-15T15:55:33Z</time></trkpt>
<trkpt lat="46.24143" lon="7.00332"><ele>434.6</ele><time>2017-06-15T15:55:34Z</time></trkpt>
<trkpt lat="46.24148" lon="7.00335"><ele>435</ele><time>2017-06-15T15:55:36Z</time></trkpt>
<trkpt lat="46.24153" lon="7.00337"><ele>435.4</ele><time>2017-06-15T15:55:38Z</time></trkpt>
<trkpt lat="46.24157" lon="7.0034"><ele>435.8</ele><time>2017-06-15T15:55:40Z</time></trkpt>
<trkpt lat="46.24162" lon="7.00343"><ele>436.2</ele><time>2017-06-15T15:55:42Z</time></trkpt>
<trkpt lat="46.24166" lon="7.00345"><ele>436.6</ele><time>2017-06-15T15:55:44Z</time></trkpt>
<trkpt lat="46.24171" lon="7.00348"><ele>437</ele><time>2017-06-15T15:55:46Z</time></trkpt>
<trkpt lat="46.24175" lon="7.0035"><ele>437.4</ele><time>2017-06-15T15:55:48Z</time></trkpt>
<trkpt lat="46.24177" lon="7.00352"><ele>437.6</ele><time>2017-06-15T15:55:49Z</time></trkpt>
<trkpt lat="46.24179" lon="7.00354"><ele>437.8</ele><time>2017-06-15T15:55:50Z</time></trkpt>
<trkpt lat="46.24182" lon="7.0036"><ele>438</ele><time>2017-06-15T15:55:52Z</time></trkpt>
<trkpt lat="46.24185" lon="7.00366"><ele>438.2</ele><time>2017-06-15T15:55:54Z</time></trkpt>
<trkpt lat="46.24187" lon="7.00373"><ele>438.4</ele><time>2017-06-15T15:55:56Z</time></trkpt>
<trkpt lat="46.2419" lon="7.00379"><ele>438.6</ele><time>2017-06-15T15:55:58Z</time></trkpt>
<trkpt lat="46.24193" lon="7.00385"><ele>438.8</ele><time>2017-06-15T15:56:00Z</time></trkpt>
<trkpt lat="46.24195" lon="7.00392"><ele>439.2</ele><time>2017-06-15T15:56:02Z</time></trkpt>
<trkpt lat="46.24198" lon="7.00398"><ele>439.4</ele><time>2017-06-15T15:56:04Z</time></trkpt>
<trkpt lat="46.24201" lon="7.00404"><ele>439.6</ele><time>2017-06-15T15:56:06Z</time></trkpt>
<trkpt lat="46.24202" lon="7.00408"><ele>439.8</ele><time>2017-06-15T15:56:07Z</time></trkpt>
<trkpt lat="46.24203" lon="7.00411"><ele>439.8</ele><time>2017-06-15T15:56:08Z</time></trkpt>
<trkpt lat="46.24203" lon="7.00418"><ele>440</ele><time>2017-06-15T15:56:10Z</time></trkpt>
<trkpt lat="46.24202" lon="7.00421"><ele>440.2</ele><time>2017-06-15T15:56:11Z</time></trkpt>
<trkpt lat="46.24199" lon="7.00424"><ele>440.2</ele><time>2017-06-15T15:56:12Z</time></trkpt>
<trkpt lat="46.24194" lon="7.00428"><ele>440.4</ele><time>2017-06-15T15:56:14Z</time></trkpt>
<trkpt lat="46.24188" lon="7.00433"><ele>440.6</ele><time>2017-06-15T15:56:16Z</time></trkpt>
<trkpt lat="46.24182" lon="7.00438"><ele>440.8</ele><time>2017-06-15T15:56:18Z</time></trkpt>
<trkpt lat="46.24176" lon="7.00443"><ele>441</ele><time>2017-06-15T15:56:20Z</time></trkpt>
<trkpt lat="46.24171" lon="7.00448"><ele>441.2</ele><time>2017-06-15T15:56:22Z</time></trkpt>
<trkpt lat="46.24165" lon="7.00453"><ele>441.4</ele><time>2017-06-15T15:56:24Z</time></trkpt>
<trkpt lat="46.24162" lon="7.00455"><ele>441.4</ele><time>2017-06-15T15:56:25Z</time></trkpt>
<trkpt lat="46.24159" lon="7.00458"><ele>441.6</ele><time>2017-06-15T15:56:26Z</time></trkpt>
<trkpt lat="46.24153" lon="7.00463"><ele>441.8</ele><time>2017-06-15T15:56:28Z</time></trkpt>
<trkpt lat="46.24148" lon="7.00468"><ele>442</ele><time>2017-06-15T15:56:30Z</time></trkpt>
<trkpt lat="46.24142" lon="7.00473"><ele>442.2</ele><time>2017-06-15T15:56:32Z</time></trkpt>
<trkpt lat="46.24136" lon="7.00478"><ele>442.4</ele><time>2017-06-15T15:56:34Z</time></trkpt>
<trkpt lat="46.2413" lon="7.00484"><ele>442.6</ele><time>2017-06-15T15:56:36Z</time></trkpt>
<trkpt lat="46.24124" lon="7.00489"><ele>442.6</ele><time>2017-06-15T15:56:38Z</time></trkpt>
<trkpt lat="46.24122" lon="7.00491"><ele>442.8</ele><time>2017-06-15T15:56:39Z</time></trkpt>
<trkpt lat="46.24119" lon="7.00494"><ele>442.8</ele><time>2017-06-15T15:56:40Z</time></trkpt>
<trkpt lat="46.24114" lon="7.00499"><ele>443.2</ele><time>2017-06-15T15:56:42Z</time></trkpt>
<trkpt lat="46.24108" lon="7.00504"><ele>443.4</ele><time>2017-06-15T15:56:44Z</time></trkpt>
<trkpt lat="46.24103" lon="7.0051"><ele>443.8</ele><time>2017-06-15T15:56:46Z</time></trkpt>
<trkpt lat="46.24098" lon="7.00515"><ele>444.2</ele><time>2017-06-15T15:56:48Z</time></trkpt>
<trkpt lat="46.24093" lon="7.0052"><ele>444.4</ele><time>2017-06-15T15:56:50Z</time></trkpt>
<trkpt lat="46.24087" lon="7.00526"><ele>444.6</ele><time>2017-06-15T15:56:52Z</time></trkpt>
<trkpt lat="46.24085" lon="7.00529"><ele>444.6</ele><time>2017-06-15T15:56:53Z</time></trkpt>
<trkpt lat="46.24085" lon="7.00534"><ele>444.6</ele><time>2017-06-15T15:56:54Z</time></trkpt>
<trkpt lat="46.24084" lon="7.00545"><ele>444.8</ele><time>2017-06-15T15:56:56Z</time></trkpt>
<trkpt lat="46.24085" lon="7.0055"><ele>445</ele><time>2017-06-15T15:56:57Z</time></trkpt>
<trkpt lat="46.24089" lon="7.00555"><ele>445</ele><time>2017-06-15T15:56:58Z</time></trkpt>
<trkpt lat="46.24093" lon="7.00567"><ele>445.2</ele><time>2017-06-15T15:57:00Z</time></trkpt>
<trkpt lat="46.24096" lon="7.00579"><ele>445.4</ele><time>2017-06-15T15:57:02Z</time></trkpt>
<trkpt lat="46.241" lon="7.0059"><ele>445.6</ele><time>2017-06-15T15:57:04Z</time></trkpt>
<trkpt lat="46.24104" lon="7.00602"><ele>445.6</ele><time>2017-06-15T15:57:06Z</time></trkpt>
<trkpt lat="46.24108" lon="7.00613"><ele>445.8</ele><time>2017-06-15T15:57:08Z</time></trkpt>
<trkpt lat="46.2411" lon="7.00619"><ele>445.8</ele><time>2017-06-15T15:57:09Z</time></trkpt>
<trkpt lat="46.24112" lon="7.00625"><ele>445.8</ele><time>2017-06-15T15:57:10Z</time></trkpt>
<trkpt lat="46.24116" lon="7.00637"><ele>445.8</ele><time>2017-06-15T15:57:12Z</time></trkpt>
<trkpt lat="46.2412" lon="7.00649"><ele>445.8</ele><time>2017-06-15T15:57:14Z</time></trkpt>
<trkpt lat="46.24123" lon="7.00661"><ele>446</ele><time>2017-06-15T15:57:16Z</time></trkpt>
<trkpt lat="46.24127" lon="7.00674"><ele>446</ele><time>2017-06-15T15:57:18Z</time></trkpt>
<trkpt lat="46.24129" lon="7.00679"><ele>446</ele><time>2017-06-15T15:57:19Z</time></trkpt>
<trkpt lat="46.24131" lon="7.00684"><ele>446</ele><time>2017-06-15T15:57:20Z</time></trkpt>
<trkpt lat="46.24134" lon="7.00695"><ele>446.2</ele><time>2017-06-15T15:57:22Z</time></trkpt>
<trkpt lat="46.24138" lon="7.00705"><ele>446.2</ele><time>2017-06-15T15:57:24Z</time></trkpt>
<trkpt lat="46.24141" lon="7.00715"><ele>446.2</ele><time>2017-06-15T15:57:26Z</time></trkpt>
<trkpt lat="46.24145" lon="7.00725"><ele>446.2</ele><time>2017-06-15T15:57:28Z</time></trkpt>
<trkpt lat="46.24148" lon="7.00735"><ele>446.4</ele><time>2017-06-15T15:57:30Z</time></trkpt>
<trkpt lat="46.2415" lon="7.0074"><ele>446.4</ele><time>2017-06-15T15:57:31Z</time></trkpt>
<trkpt lat="46.24151" lon="7.00745"><ele>446.4</ele><time>2017-06-15T15:57:32Z</time></trkpt>
<trkpt lat="46.24154" lon="7.00755"><ele>446.4</ele><time>2017-06-15T15:57:34Z</time></trkpt>
<trkpt lat="46.24157" lon="7.00764"><ele>446.6</ele><time>2017-06-15T15:57:36Z</time></trkpt>
<trkpt lat="46.24159" lon="7.00774"><ele>446.6</ele><time>2017-06-15T15:57:38Z</time></trkpt>
<trkpt lat="46.24162" lon="7.00783"><ele>446.6</ele><time>2017-06-15T15:57:40Z</time></trkpt>
<trkpt lat="46.24165" lon="7.00793"><ele>446.6</ele><time>2017-06-15T15:57:42Z</time></trkpt>
<trkpt lat="46.24168" lon="7.00803"><ele>446.8</ele><time>2017-06-15T15:57:44Z</time></trkpt>
<trkpt lat="46.24171" lon="7.00815"><ele>446.8</ele><time>2017-06-15T15:57:46Z</time></trkpt>
<trkpt lat="46.24175" lon="7.00828"><ele>446.8</ele><time>2017-06-15T15:57:48Z</time></trkpt>
<trkpt lat="46.24179" lon="7.0084"><ele>447</ele><time>2017-06-15T15:57:50Z</time></trkpt>
<trkpt lat="46.24183" lon="7.00852"><ele>447</ele><time>2017-06-15T15:57:52Z</time></trkpt>
<trkpt lat="46.24187" lon="7.00865"><ele>447</ele><time>2017-06-15T15:57:54Z</time></trkpt>
<trkpt lat="46.24192" lon="7.00877"><ele>447</ele><time>2017-06-15T15:57:56Z</time></trkpt>
<trkpt lat="46.24195" lon="7.00889"><ele>447.2</ele><time>2017-06-15T15:57:58Z</time></trkpt>
<trkpt lat="46.24197" lon="7.00895"><ele>447.2</ele><time>2017-06-15T15:57:59Z</time></trkpt>
<trkpt lat="46.24199" lon="7.00901"><ele>447.2</ele><time>2017-06-15T15:58:00Z</time></trkpt>
<trkpt lat="46.24204" lon="7.00912"><ele>447.2</ele><time>2017-06-15T15:58:02Z</time></trkpt>
<trkpt lat="46.2421" lon="7.00924"><ele>447.4</ele><time>2017-06-15T15:58:04Z</time></trkpt>
<trkpt lat="46.24212" lon="7.0093"><ele>447.4</ele><time>2017-06-15T15:58:05Z</time></trkpt>
<trkpt lat="46.24212" lon="7.00936"><ele>447.4</ele><time>2017-06-15T15:58:06Z</time></trkpt>
<trkpt lat="46.24213" lon="7.00942"><ele>447.4</ele><time>2017-06-15T15:58:07Z</time></trkpt>
<trkpt lat="46.24217" lon="7.00948"><ele>447.4</ele><time>2017-06-15T15:58:08Z</time></trkpt>
<trkpt lat="46.2422" lon="7.00954"><ele>447.4</ele><time>2017-06-15T15:58:09Z</time></trkpt>
<trkpt lat="46.24222" lon="7.00961"><ele>447.4</ele><time>2017-06-15T15:58:10Z</time></trkpt>
<trkpt lat="46.24227" lon="7.00974"><ele>447.6</ele><time>2017-06-15T15:58:12Z</time></trkpt>
<trkpt lat="46.24232" lon="7.00988"><ele>447.6</ele><time>2017-06-15T15:58:14Z</time></trkpt>
<trkpt lat="46.24237" lon="7.01001"><ele>447.6</ele><time>2017-06-15T15:58:16Z</time></trkpt>
<trkpt lat="46.24242" lon="7.01014"><ele>447.8</ele><time>2017-06-15T15:58:18Z</time></trkpt>
<trkpt lat="46.24245" lon="7.01025"><ele>447.8</ele><time>2017-06-15T15:58:20Z</time></trkpt>
<trkpt lat="46.24248" lon="7.01037"><ele>447.8</ele><time>2017-06-15T15:58:22Z</time></trkpt>
<trkpt lat="46.2425" lon="7.01043"><ele>447.8</ele><time>2017-06-15T15:58:23Z</time></trkpt>
<trkpt lat="46.24253" lon="7.01048"><ele>448</ele><time>2017-06-15T15:58:24Z</time></trkpt>
<trkpt lat="46.24257" lon="7.01059"><ele>448</ele><time>2017-06-15T15:58:26Z</time></trkpt>
<trkpt lat="46.24262" lon="7.01071"><ele>448</ele><time>2017-06-15T15:58:28Z</time></trkpt>
<trkpt lat="46.24267" lon="7.01082"><ele>448</ele><time>2017-06-15T15:58:30Z</time></trkpt>
<trkpt lat="46.24271" lon="7.01093"><ele>448.2</ele><time>2017-06-15T15:58:32Z</time></trkpt>
<trkpt lat="46.24271" lon="7.01104"><ele>448.2</ele><time>2017-06-15T15:58:34Z</time></trkpt>
<trkpt lat="46.24272" lon="7.01109"><ele>448.2</ele><time>2017-06-15T15:58:35Z</time></trkpt>
<trkpt lat="46.24274" lon="7.01115"><ele>448.2</ele><time>2017-06-15T15:58:36Z</time></trkpt>
<trkpt lat="46.24279" lon="7.01127"><ele>448.4</ele><time>2017-06-15T15:58:38Z</time></trkpt>
<trkpt lat="46.24283" lon="7.01139"><ele>448.4</ele><time>2017-06-15T15:58:40Z</time></trkpt>
<trkpt lat="46.24288" lon="7.01151"><ele>448.4</ele><time>2017-06-15T15:58:42Z</time></trkpt>
<trkpt lat="46.24292" lon="7.01162"><ele>448.4</ele><time>2017-06-15T15:58:44Z</time></trkpt>
<trkpt lat="46.24294" lon="7.01168"><ele>448.6</ele><time>2017-06-15T15:58:45Z</time></trkpt>
<trkpt lat="46.24297" lon="7.01175"><ele>448.6</ele><time>2017-06-15T15:58:46Z</time></trkpt>
<trkpt lat="46.24302" lon="7.01187"><ele>448.6</ele><time>2017-06-15T15:58:48Z</time></trkpt>
<trkpt lat="46.24306" lon="7.012"><ele>448.6</ele><time>2017-06-15T15:58:50Z</time></trkpt>
<trkpt lat="46.24309" lon="7.01206"><ele>448.8</ele><time>2017-06-15T15:58:51Z</time></trkpt>
<trkpt lat="46.24311" lon="7.01212"><ele>448.8</ele><time>2017-06-15T15:58:52Z</time></trkpt>
<trkpt lat="46.24316" lon="7.01225"><ele>449.2</ele><time>2017-06-15T15:58:54Z</time></trkpt>
<trkpt lat="46.24319" lon="7.01231"><ele>449.4</ele><time>2017-06-15T15:58:55Z</time></trkpt>
<trkpt lat="46.24321" lon="7.01237"><ele>449.4</ele><time>2017-06-15T15:58:56Z</time></trkpt>
<trkpt lat="46.24326" lon="7.01249"><ele>449.8</ele><time>2017-06-15T15:58:58Z</time></trkpt>
<trkpt lat="46.24331" lon="7.0126"><ele>450</ele><time>2017-06-15T15:59:00Z</time></trkpt>
<trkpt lat="46.24336" lon="7.01272"><ele>450.4</ele><time>2017-06-15T15:59:02Z</time></trkpt>
<trkpt lat="46.24341" lon="7.01284"><ele>450.6</ele><time>2017-06-15T15:59:04Z</time></trkpt>
<trkpt lat="46.24344" lon="7.01289"><ele>450.8</ele><time>2017-06-15T15:59:05Z</time></trkpt>
<trkpt lat="46.24346" lon="7.01294"><ele>450.8</ele><time>2017-06-15T15:59:06Z</time></trkpt>
<trkpt lat="46.2435" lon="7.01304"><ele>451.2</ele><time>2017-06-15T15:59:08Z</time></trkpt>
<trkpt lat="46.24354" lon="7.01315"><ele>451.4</ele><time>2017-06-15T15:59:10Z</time></trkpt>
<trkpt lat="46.24358" lon="7.01325"><ele>451.8</ele><time>2017-06-15T15:59:12Z</time></trkpt>
<trkpt lat="46.2436" lon="7.0133"><ele>452</ele><time>2017-06-15T15:59:13Z</time></trkpt>
<trkpt lat="46.24362" lon="7.01335"><ele>452.2</ele><time>2017-06-15T15:59:14Z</time></trkpt>
<trkpt lat="46.24366" lon="7.01345"><ele>452.4</ele><time>2017-06-15T15:59:16Z</time></trkpt>
<trkpt lat="46.24368" lon="7.01348"><ele>452.6</ele><time>2017-06-15T15:59:17Z</time></trkpt>
<trkpt lat="46.24371" lon="7.01349"><ele>452.8</ele><time>2017-06-15T15:59:18Z</time></trkpt>
<trkpt lat="46.24377" lon="7.01349"><ele>453.2</ele><time>2017-06-15T15:59:20Z</time></trkpt>
<trkpt lat="46.24383" lon="7.01343"><ele>453.6</ele><time>2017-06-15T15:59:22Z</time></trkpt>
<trkpt lat="46.24389" lon="7.01337"><ele>454</ele><time>2017-06-15T15:59:24Z</time></trkpt>
<trkpt lat="46.24397" lon="7.01327"><ele>454.4</ele><time>2017-06-15T15:59:27Z</time></trkpt>
<trkpt lat="46.244" lon="7.01324"><ele>454.6</ele><time>2017-06-15T15:59:28Z</time></trkpt>
<trkpt lat="46.24406" lon="7.01318"><ele>455</ele><time>2017-06-15T15:59:30Z</time></trkpt>
<trkpt lat="46.24412" lon="7.01312"><ele>455.2</ele><time>2017-06-15T15:59:32Z</time></trkpt>
<trkpt lat="46.24415" lon="7.01309"><ele>455.2</ele><time>2017-06-15T15:59:33Z</time></trkpt>
<trkpt lat="46.24417" lon="7.01306"><ele>455.4</ele><time>2017-06-15T15:59:34Z</time></trkpt>
<trkpt lat="46.24422" lon="7.01301"><ele>455.6</ele><time>2017-06-15T15:59:36Z</time></trkpt>
<trkpt lat="46.24428" lon="7.01295"><ele>455.8</ele><time>2017-06-15T15:59:38Z</time></trkpt>
<trkpt lat="46.24433" lon="7.0129"><ele>456</ele><time>2017-06-15T15:59:40Z</time></trkpt>
<trkpt lat="46.24438" lon="7.01284"><ele>456</ele><time>2017-06-15T15:59:42Z</time></trkpt>
<trkpt lat="46.24443" lon="7.01279"><ele>456.2</ele><time>2017-06-15T15:59:44Z</time></trkpt>
<trkpt lat="46.24449" lon="7.01273"><ele>456.4</ele><time>2017-06-15T15:59:46Z</time></trkpt>
<trkpt lat="46.24451" lon="7.0127"><ele>456.4</ele><time>2017-06-15T15:59:47Z</time></trkpt>
<trkpt lat="46.24454" lon="7.01268"><ele>456.4</ele><time>2017-06-15T15:59:48Z</time></trkpt>
<trkpt lat="46.24462" lon="7.01263"><ele>456</ele><time>2017-06-15T15:59:50Z</time></trkpt>
<trkpt lat="46.2447" lon="7.01258"><ele>455.8</ele><time>2017-06-15T15:59:52Z</time></trkpt>
<trkpt lat="46.24478" lon="7.01254"><ele>455.4</ele><time>2017-06-15T15:59:54Z</time></trkpt>
<trkpt lat="46.2449" lon="7.0125"><ele>455.2</ele><time>2017-06-15T15:59:56Z</time></trkpt>
<trkpt lat="46.24501" lon="7.01246"><ele>455</ele><time>2017-06-15T15:59:58Z</time></trkpt>
<trkpt lat="46.24513" lon="7.01242"><ele>454.6</ele><time>2017-06-15T16:00:00Z</time></trkpt>
<trkpt lat="46.24523" lon="7.01236"><ele>454.4</ele><time>2017-06-15T16:00:02Z</time></trkpt>
<trkpt lat="46.24534" lon="7.0123"><ele>454.2</ele><time>2017-06-15T16:00:04Z</time></trkpt>
<trkpt lat="46.24545" lon="7.01224"><ele>453.8</ele><time>2017-06-15T16:00:06Z</time></trkpt>
<trkpt lat="46.24556" lon="7.01219"><ele>453.6</ele><time>2017-06-15T16:00:08Z</time></trkpt>
<trkpt lat="46.24567" lon="7.01219"><ele>453.2</ele><time>2017-06-15T16:00:10Z</time></trkpt>
<trkpt lat="46.24577" lon="7.01229"><ele>453</ele><time>2017-06-15T16:00:12Z</time></trkpt>
<trkpt lat="46.24582" lon="7.01241"><ele>452.8</ele><time>2017-06-15T16:00:14Z</time></trkpt>
<trkpt lat="46.24586" lon="7.01247"><ele>452.6</ele><time>2017-06-15T16:00:15Z</time></trkpt>
<trkpt lat="46.2459" lon="7.0125"><ele>452.6</ele><time>2017-06-15T16:00:16Z</time></trkpt>
<trkpt lat="46.24598" lon="7.01255"><ele>452.4</ele><time>2017-06-15T16:00:20Z</time></trkpt>
</trkseg></trk></gpx>